<?xml version='1.0' encoding='UTF-8'?>
<gpx version="1.1" creator="https://www.komoot.de" xmlns="http://www.topografix.com/GPX/1/1" xmlns:xsi="http://www.w3.org/2001/XMLSchema-instance" xsi:schemaLocation="http://www.topografix.com/GPX/1/1 http://www.topografix.com/GPX/1/1/gpx.xsd">
  <metadata>
    <name>Eurovelo 8 (France)</name>
    <author>
      <link href="https://www.komoot.de">
        <text>komoot</text>
        <type>text/html</type>
      </link>
    </author>
  </metadata>
  <trk>
    <name>Eurovelo 8 (France)</name>
    <trkseg>
      <trkpt lat="42.439524" lon="3.172855">
        <ele>45.399273</ele>
        <time>2022-07-26T11:14:26.296Z</time>
      </trkpt>
      <trkpt lat="42.439969" lon="3.173240">
        <ele>45.399273</ele>
        <time>2022-07-26T11:14:33.712Z</time>
      </trkpt>
      <trkpt lat="42.440219" lon="3.174212">
        <ele>43.756725</ele>
        <time>2022-07-26T11:14:44.242Z</time>
      </trkpt>
      <trkpt lat="42.439939" lon="3.175366">
        <ele>39.964372</ele>
        <time>2022-07-26T11:14:57.904Z</time>
      </trkpt>
      <trkpt lat="42.440086" lon="3.175531">
        <ele>39.156886</ele>
        <time>2022-07-26T11:15:01.694Z</time>
      </trkpt>
      <trkpt lat="42.440166" lon="3.175510">
        <ele>38.812173</ele>
        <time>2022-07-26T11:15:03.593Z</time>
      </trkpt>
      <trkpt lat="42.440232" lon="3.175438">
        <ele>38.453740</ele>
        <time>2022-07-26T11:15:05.671Z</time>
      </trkpt>
      <trkpt lat="42.440281" lon="3.175336">
        <ele>38.073788</ele>
        <time>2022-07-26T11:15:08.571Z</time>
      </trkpt>
      <trkpt lat="42.440299" lon="3.175269">
        <ele>37.851195</ele>
        <time>2022-07-26T11:15:10.187Z</time>
      </trkpt>
      <trkpt lat="42.440312" lon="3.175212">
        <ele>37.920995</ele>
        <time>2022-07-26T11:15:11.188Z</time>
      </trkpt>
      <trkpt lat="42.440384" lon="3.174211">
        <ele>41.182549</ele>
        <time>2022-07-26T11:15:32.474Z</time>
      </trkpt>
      <trkpt lat="42.440258" lon="3.172702">
        <ele>45.887425</ele>
        <time>2022-07-26T11:16:32.198Z</time>
      </trkpt>
      <trkpt lat="42.440199" lon="3.172399">
        <ele>46.362483</ele>
        <time>2022-07-26T11:16:42.596Z</time>
      </trkpt>
      <trkpt lat="42.440133" lon="3.172293">
        <ele>46.572729</ele>
        <time>2022-07-26T11:16:47.800Z</time>
      </trkpt>
      <trkpt lat="42.440071" lon="3.172244">
        <ele>46.720169</ele>
        <time>2022-07-26T11:16:50.851Z</time>
      </trkpt>
      <trkpt lat="42.439183" lon="3.172020">
        <ele>48.575643</ele>
        <time>2022-07-26T11:17:12.895Z</time>
      </trkpt>
      <trkpt lat="42.439113" lon="3.171853">
        <ele>48.866800</ele>
        <time>2022-07-26T11:17:16.206Z</time>
      </trkpt>
      <trkpt lat="42.439110" lon="3.171822">
        <ele>48.914198</ele>
        <time>2022-07-26T11:17:16.862Z</time>
      </trkpt>
      <trkpt lat="42.439109" lon="3.171794">
        <ele>48.956695</ele>
        <time>2022-07-26T11:17:17.445Z</time>
      </trkpt>
      <trkpt lat="42.439128" lon="3.171686">
        <ele>49.125011</ele>
        <time>2022-07-26T11:17:19.374Z</time>
      </trkpt>
      <trkpt lat="42.439109" lon="3.171794">
        <ele>49.293326</ele>
        <time>2022-07-26T11:17:21.263Z</time>
      </trkpt>
      <trkpt lat="42.439110" lon="3.171822">
        <ele>49.335823</ele>
        <time>2022-07-26T11:17:21.630Z</time>
      </trkpt>
      <trkpt lat="42.439648" lon="3.171053">
        <ele>47.426244</ele>
        <time>2022-07-26T11:17:36.962Z</time>
      </trkpt>
      <trkpt lat="42.439836" lon="3.170804">
        <ele>46.743699</ele>
        <time>2022-07-26T11:17:41.565Z</time>
      </trkpt>
      <trkpt lat="42.439911" lon="3.170619">
        <ele>46.339268</ele>
        <time>2022-07-26T11:17:44.177Z</time>
      </trkpt>
      <trkpt lat="42.439886" lon="3.170549">
        <ele>46.190265</ele>
        <time>2022-07-26T11:17:45.182Z</time>
      </trkpt>
      <trkpt lat="42.440035" lon="3.170247">
        <ele>45.494217</ele>
        <time>2022-07-26T11:17:49.080Z</time>
      </trkpt>
      <trkpt lat="42.439994" lon="3.170037">
        <ele>45.078007</ele>
        <time>2022-07-26T11:17:51.501Z</time>
      </trkpt>
      <trkpt lat="42.439085" lon="3.169577">
        <ele>40.800086</ele>
        <time>2022-07-26T11:18:06.561Z</time>
      </trkpt>
      <trkpt lat="42.439030" lon="3.169463">
        <ele>40.326698</ele>
        <time>2022-07-26T11:18:08.126Z</time>
      </trkpt>
      <trkpt lat="42.439114" lon="3.169260">
        <ele>39.517786</ele>
        <time>2022-07-26T11:18:10.697Z</time>
      </trkpt>
      <trkpt lat="42.439878" lon="3.168901">
        <ele>35.507073</ele>
        <time>2022-07-26T11:18:23.244Z</time>
      </trkpt>
      <trkpt lat="42.440099" lon="3.168616">
        <ele>33.530792</ele>
        <time>2022-07-26T11:18:27.564Z</time>
      </trkpt>
      <trkpt lat="42.440355" lon="3.167788">
        <ele>29.239218</ele>
        <time>2022-07-26T11:18:37.130Z</time>
      </trkpt>
      <trkpt lat="42.440369" lon="3.167613">
        <ele>28.397735</ele>
        <time>2022-07-26T11:18:39.088Z</time>
      </trkpt>
      <trkpt lat="42.440329" lon="3.167496">
        <ele>27.781317</ele>
        <time>2022-07-26T11:18:40.500Z</time>
      </trkpt>
      <trkpt lat="42.440066" lon="3.167229">
        <ele>25.652561</ele>
        <time>2022-07-26T11:18:45.109Z</time>
      </trkpt>
      <trkpt lat="42.440005" lon="3.166872">
        <ele>23.962523</ele>
        <time>2022-07-26T11:18:48.797Z</time>
      </trkpt>
      <trkpt lat="42.440023" lon="3.166693">
        <ele>23.175485</ele>
        <time>2022-07-26T11:18:51.030Z</time>
      </trkpt>
      <trkpt lat="42.440143" lon="3.166396">
        <ele>21.700346</ele>
        <time>2022-07-26T11:18:54.643Z</time>
      </trkpt>
      <trkpt lat="42.440306" lon="3.166170">
        <ele>20.323633</ele>
        <time>2022-07-26T11:18:58.143Z</time>
      </trkpt>
      <trkpt lat="42.440583" lon="3.166120">
        <ele>18.673954</ele>
        <time>2022-07-26T11:19:02.291Z</time>
      </trkpt>
      <trkpt lat="42.440754" lon="3.165939">
        <ele>17.393004</ele>
        <time>2022-07-26T11:19:05.325Z</time>
      </trkpt>
      <trkpt lat="42.440820" lon="3.165851">
        <ele>16.846393</ele>
        <time>2022-07-26T11:19:06.775Z</time>
      </trkpt>
      <trkpt lat="42.441077" lon="3.165577">
        <ele>14.915929</ele>
        <time>2022-07-26T11:19:11.418Z</time>
      </trkpt>
      <trkpt lat="42.441434" lon="3.165318">
        <ele>14.073298</ele>
        <time>2022-07-26T11:19:18.031Z</time>
      </trkpt>
      <trkpt lat="42.441793" lon="3.165430">
        <ele>14.214316</ele>
        <time>2022-07-26T11:19:24.330Z</time>
      </trkpt>
      <trkpt lat="42.441990" lon="3.165560">
        <ele>14.298192</ele>
        <time>2022-07-26T11:19:28.346Z</time>
      </trkpt>
      <trkpt lat="42.442144" lon="3.165675">
        <ele>14.365501</ele>
        <time>2022-07-26T11:19:32.524Z</time>
      </trkpt>
      <trkpt lat="42.442238" lon="3.165737">
        <ele>14.405520</ele>
        <time>2022-07-26T11:19:36.363Z</time>
      </trkpt>
      <trkpt lat="42.442200" lon="3.165690">
        <ele>14.425214</ele>
        <time>2022-07-26T11:19:37.691Z</time>
      </trkpt>
      <trkpt lat="42.442242" lon="3.165720">
        <ele>14.443388</ele>
        <time>2022-07-26T11:19:38.919Z</time>
      </trkpt>
      <trkpt lat="42.442268" lon="3.165740">
        <ele>14.454832</ele>
        <time>2022-07-26T11:19:39.694Z</time>
      </trkpt>
      <trkpt lat="42.442310" lon="3.165780">
        <ele>14.474483</ele>
        <time>2022-07-26T11:19:41.022Z</time>
      </trkpt>
      <trkpt lat="42.442371" lon="3.165820">
        <ele>14.500424</ele>
        <time>2022-07-26T11:19:42.773Z</time>
      </trkpt>
      <trkpt lat="42.442440" lon="3.165710">
        <ele>14.541206</ele>
        <time>2022-07-26T11:19:45.533Z</time>
      </trkpt>
      <trkpt lat="42.442471" lon="3.165690">
        <ele>14.554349</ele>
        <time>2022-07-26T11:19:46.421Z</time>
      </trkpt>
      <trkpt lat="42.442520" lon="3.165720">
        <ele>14.574931</ele>
        <time>2022-07-26T11:19:47.811Z</time>
      </trkpt>
      <trkpt lat="42.442650" lon="3.165890">
        <ele>14.644087</ele>
        <time>2022-07-26T11:19:52.485Z</time>
      </trkpt>
      <trkpt lat="42.442669" lon="3.166010">
        <ele>14.896824</ele>
        <time>2022-07-26T11:19:54.832Z</time>
      </trkpt>
      <trkpt lat="42.442711" lon="3.166260">
        <ele>16.378199</ele>
        <time>2022-07-26T11:19:59.728Z</time>
      </trkpt>
      <trkpt lat="42.442719" lon="3.166300">
        <ele>16.617643</ele>
        <time>2022-07-26T11:20:00.519Z</time>
      </trkpt>
      <trkpt lat="42.442841" lon="3.166240">
        <ele>17.633781</ele>
        <time>2022-07-26T11:20:03.883Z</time>
      </trkpt>
      <trkpt lat="42.442890" lon="3.166180">
        <ele>18.150840</ele>
        <time>2022-07-26T11:20:05.592Z</time>
      </trkpt>
      <trkpt lat="42.443008" lon="3.166360">
        <ele>19.541907</ele>
        <time>2022-07-26T11:20:10.195Z</time>
      </trkpt>
      <trkpt lat="42.443241" lon="3.166190">
        <ele>21.613750</ele>
        <time>2022-07-26T11:20:17.063Z</time>
      </trkpt>
      <trkpt lat="42.443390" lon="3.166400">
        <ele>23.296895</ele>
        <time>2022-07-26T11:20:22.642Z</time>
      </trkpt>
      <trkpt lat="42.443458" lon="3.166440">
        <ele>23.877285</ele>
        <time>2022-07-26T11:20:24.573Z</time>
      </trkpt>
      <trkpt lat="42.443578" lon="3.166513">
        <ele>24.907130</ele>
        <time>2022-07-26T11:20:32.359Z</time>
      </trkpt>
      <trkpt lat="42.443959" lon="3.167008">
        <ele>29.059382</ele>
        <time>2022-07-26T11:21:04.077Z</time>
      </trkpt>
      <trkpt lat="42.444036" lon="3.167031">
        <ele>29.718887</ele>
        <time>2022-07-26T11:21:08.832Z</time>
      </trkpt>
      <trkpt lat="42.444421" lon="3.166720">
        <ele>33.467827</ele>
        <time>2022-07-26T11:21:35.295Z</time>
      </trkpt>
      <trkpt lat="42.445863" lon="3.166931">
        <ele>45.143998</ele>
        <time>2022-07-26T11:22:57.844Z</time>
      </trkpt>
      <trkpt lat="42.446023" lon="3.166871">
        <ele>46.182478</ele>
        <time>2022-07-26T11:23:04.095Z</time>
      </trkpt>
      <trkpt lat="42.446121" lon="3.166689">
        <ele>47.222469</ele>
        <time>2022-07-26T11:23:12.270Z</time>
      </trkpt>
      <trkpt lat="42.446240" lon="3.166482">
        <ele>48.433710</ele>
        <time>2022-07-26T11:23:19.305Z</time>
      </trkpt>
      <trkpt lat="42.446364" lon="3.166410">
        <ele>49.277584</ele>
        <time>2022-07-26T11:23:26.228Z</time>
      </trkpt>
      <trkpt lat="42.446503" lon="3.166464">
        <ele>50.182109</ele>
        <time>2022-07-26T11:23:32.795Z</time>
      </trkpt>
      <trkpt lat="42.446621" lon="3.166615">
        <ele>51.197325</ele>
        <time>2022-07-26T11:23:40.401Z</time>
      </trkpt>
      <trkpt lat="42.447038" lon="3.166515">
        <ele>53.846361</ele>
        <time>2022-07-26T11:24:01.911Z</time>
      </trkpt>
      <trkpt lat="42.447095" lon="3.166592">
        <ele>54.349808</ele>
        <time>2022-07-26T11:24:05.190Z</time>
      </trkpt>
      <trkpt lat="42.447558" lon="3.166085">
        <ele>57.431321</ele>
        <time>2022-07-26T11:24:32.836Z</time>
      </trkpt>
      <trkpt lat="42.447878" lon="3.165656">
        <ele>59.649999</ele>
        <time>2022-07-26T11:24:54.367Z</time>
      </trkpt>
      <trkpt lat="42.448013" lon="3.165291">
        <ele>61.134984</ele>
        <time>2022-07-26T11:25:06.635Z</time>
      </trkpt>
      <trkpt lat="42.448036" lon="3.164852">
        <ele>62.735699</ele>
        <time>2022-07-26T11:25:17.197Z</time>
      </trkpt>
      <trkpt lat="42.447925" lon="3.164020">
        <ele>65.078405</ele>
        <time>2022-07-26T11:25:40.355Z</time>
      </trkpt>
      <trkpt lat="42.447992" lon="3.163775">
        <ele>65.662381</ele>
        <time>2022-07-26T11:25:46.437Z</time>
      </trkpt>
      <trkpt lat="42.448167" lon="3.163631">
        <ele>66.282500</ele>
        <time>2022-07-26T11:25:51.030Z</time>
      </trkpt>
      <trkpt lat="42.448531" lon="3.163558">
        <ele>67.397037</ele>
        <time>2022-07-26T11:26:02.256Z</time>
      </trkpt>
      <trkpt lat="42.448616" lon="3.163466">
        <ele>67.726528</ele>
        <time>2022-07-26T11:26:07.884Z</time>
      </trkpt>
      <trkpt lat="42.448698" lon="3.163283">
        <ele>68.205039</ele>
        <time>2022-07-26T11:26:13.395Z</time>
      </trkpt>
      <trkpt lat="42.448736" lon="3.163198">
        <ele>68.427161</ele>
        <time>2022-07-26T11:26:15.217Z</time>
      </trkpt>
      <trkpt lat="42.448798" lon="3.162636">
        <ele>70.298010</ele>
        <time>2022-07-26T11:26:30.761Z</time>
      </trkpt>
      <trkpt lat="42.448874" lon="3.162449">
        <ele>71.622404</ele>
        <time>2022-07-26T11:26:37.283Z</time>
      </trkpt>
      <trkpt lat="42.448798" lon="3.162636">
        <ele>72.946799</ele>
        <time>2022-07-26T11:26:41.318Z</time>
      </trkpt>
      <trkpt lat="42.448728" lon="3.162483">
        <ele>74.063592</ele>
        <time>2022-07-26T11:26:49.726Z</time>
      </trkpt>
      <trkpt lat="42.448801" lon="3.162216">
        <ele>75.829996</ele>
        <time>2022-07-26T11:26:58.688Z</time>
      </trkpt>
      <trkpt lat="42.448749" lon="3.161858">
        <ele>78.093499</ele>
        <time>2022-07-26T11:27:18.423Z</time>
      </trkpt>
      <trkpt lat="42.448020" lon="3.160048">
        <ele>92.417392</ele>
        <time>2022-07-26T11:29:00.767Z</time>
      </trkpt>
      <trkpt lat="42.447996" lon="3.159638">
        <ele>95.578961</ele>
        <time>2022-07-26T11:29:20.968Z</time>
      </trkpt>
      <trkpt lat="42.448071" lon="3.159399">
        <ele>97.575389</ele>
        <time>2022-07-26T11:29:33.094Z</time>
      </trkpt>
      <trkpt lat="42.448620" lon="3.159024">
        <ele>103.917814</ele>
        <time>2022-07-26T11:30:11.548Z</time>
      </trkpt>
      <trkpt lat="42.448782" lon="3.158756">
        <ele>106.363609</ele>
        <time>2022-07-26T11:30:26.938Z</time>
      </trkpt>
      <trkpt lat="42.448831" lon="3.158304">
        <ele>109.588828</ele>
        <time>2022-07-26T11:30:45.867Z</time>
      </trkpt>
      <trkpt lat="42.448721" lon="3.157295">
        <ele>116.789351</ele>
        <time>2022-07-26T11:31:31.327Z</time>
      </trkpt>
      <trkpt lat="42.448748" lon="3.156910">
        <ele>119.519570</ele>
        <time>2022-07-26T11:31:51.279Z</time>
      </trkpt>
      <trkpt lat="42.448855" lon="3.156605">
        <ele>121.755629</ele>
        <time>2022-07-26T11:32:08.325Z</time>
      </trkpt>
      <trkpt lat="42.449227" lon="3.156068">
        <ele>126.434214</ele>
        <time>2022-07-26T11:32:41.158Z</time>
      </trkpt>
      <trkpt lat="42.449324" lon="3.155442">
        <ele>130.497191</ele>
        <time>2022-07-26T11:33:07.873Z</time>
      </trkpt>
      <trkpt lat="42.449287" lon="3.154996">
        <ele>133.347956</ele>
        <time>2022-07-26T11:33:25.810Z</time>
      </trkpt>
      <trkpt lat="42.448993" lon="3.154165">
        <ele>137.598073</ele>
        <time>2022-07-26T11:34:01.625Z</time>
      </trkpt>
      <trkpt lat="42.449068" lon="3.153983">
        <ele>138.277173</ele>
        <time>2022-07-26T11:34:08.930Z</time>
      </trkpt>
      <trkpt lat="42.449529" lon="3.153653">
        <ele>140.578947</ele>
        <time>2022-07-26T11:34:30.342Z</time>
      </trkpt>
      <trkpt lat="42.449873" lon="3.153371">
        <ele>142.353925</ele>
        <time>2022-07-26T11:34:43.985Z</time>
      </trkpt>
      <trkpt lat="42.450274" lon="3.152854">
        <ele>144.311164</ele>
        <time>2022-07-26T11:35:01.036Z</time>
      </trkpt>
      <trkpt lat="42.450447" lon="3.152817">
        <ele>144.687267</ele>
        <time>2022-07-26T11:35:06.175Z</time>
      </trkpt>
      <trkpt lat="42.450802" lon="3.153331">
        <ele>145.802824</ele>
        <time>2022-07-26T11:35:23.021Z</time>
      </trkpt>
      <trkpt lat="42.451132" lon="3.153477">
        <ele>146.548281</ele>
        <time>2022-07-26T11:35:33.026Z</time>
      </trkpt>
      <trkpt lat="42.451466" lon="3.153539">
        <ele>147.272221</ele>
        <time>2022-07-26T11:35:42.390Z</time>
      </trkpt>
      <trkpt lat="42.451676" lon="3.153717">
        <ele>148.135981</ele>
        <time>2022-07-26T11:35:49.699Z</time>
      </trkpt>
      <trkpt lat="42.452016" lon="3.153866">
        <ele>151.700975</ele>
        <time>2022-07-26T11:36:02.144Z</time>
      </trkpt>
      <trkpt lat="42.452498" lon="3.154617">
        <ele>159.028035</ele>
        <time>2022-07-26T11:36:43.779Z</time>
      </trkpt>
      <trkpt lat="42.452985" lon="3.154671">
        <ele>163.902913</ele>
        <time>2022-07-26T11:37:23.444Z</time>
      </trkpt>
      <trkpt lat="42.453162" lon="3.154556">
        <ele>166.058004</ele>
        <time>2022-07-26T11:37:41.101Z</time>
      </trkpt>
      <trkpt lat="42.453587" lon="3.152810">
        <ele>192.671792</ele>
        <time>2022-07-26T11:40:08.120Z</time>
      </trkpt>
      <trkpt lat="42.453571" lon="3.151721">
        <ele>205.930522</ele>
        <time>2022-07-26T11:41:29.413Z</time>
      </trkpt>
      <trkpt lat="42.453635" lon="3.150451">
        <ele>218.189929</ele>
        <time>2022-07-26T11:42:37.849Z</time>
      </trkpt>
      <trkpt lat="42.453724" lon="3.150216">
        <ele>220.733863</ele>
        <time>2022-07-26T11:42:50.092Z</time>
      </trkpt>
      <trkpt lat="42.453924" lon="3.150012">
        <ele>224.001094</ele>
        <time>2022-07-26T11:43:03.525Z</time>
      </trkpt>
      <trkpt lat="42.454281" lon="3.149789">
        <ele>228.251354</ele>
        <time>2022-07-26T11:43:23.329Z</time>
      </trkpt>
      <trkpt lat="42.454380" lon="3.149622">
        <ele>229.928706</ele>
        <time>2022-07-26T11:43:33.460Z</time>
      </trkpt>
      <trkpt lat="42.454368" lon="3.149494">
        <ele>230.938977</ele>
        <time>2022-07-26T11:43:39.336Z</time>
      </trkpt>
      <trkpt lat="42.454256" lon="3.149356">
        <ele>232.545268</ele>
        <time>2022-07-26T11:43:50.770Z</time>
      </trkpt>
      <trkpt lat="42.453714" lon="3.149064">
        <ele>238.734780</ele>
        <time>2022-07-26T11:44:29.695Z</time>
      </trkpt>
      <trkpt lat="42.453331" lon="3.148773">
        <ele>243.394312</ele>
        <time>2022-07-26T11:45:01.880Z</time>
      </trkpt>
      <trkpt lat="42.452998" lon="3.148353">
        <ele>246.547150</ele>
        <time>2022-07-26T11:45:36.604Z</time>
      </trkpt>
      <trkpt lat="42.452786" lon="3.147888">
        <ele>249.306178</ele>
        <time>2022-07-26T11:45:59.470Z</time>
      </trkpt>
      <trkpt lat="42.452712" lon="3.147607">
        <ele>250.812171</ele>
        <time>2022-07-26T11:46:09.741Z</time>
      </trkpt>
      <trkpt lat="42.452897" lon="3.146818">
        <ele>254.990933</ele>
        <time>2022-07-26T11:46:35.595Z</time>
      </trkpt>
      <trkpt lat="42.452953" lon="3.146622">
        <ele>255.736851</ele>
        <time>2022-07-26T11:46:40.584Z</time>
      </trkpt>
      <trkpt lat="42.453459" lon="3.146081">
        <ele>254.303091</ele>
        <time>2022-07-26T11:46:51.897Z</time>
      </trkpt>
      <trkpt lat="42.453706" lon="3.145692">
        <ele>253.460702</ele>
        <time>2022-07-26T11:46:58.314Z</time>
      </trkpt>
      <trkpt lat="42.453948" lon="3.145032">
        <ele>252.250989</ele>
        <time>2022-07-26T11:47:07.256Z</time>
      </trkpt>
      <trkpt lat="42.454217" lon="3.144578">
        <ele>251.463096</ele>
        <time>2022-07-26T11:47:14.439Z</time>
      </trkpt>
      <trkpt lat="42.454627" lon="3.144320">
        <ele>250.783589</ele>
        <time>2022-07-26T11:47:23.278Z</time>
      </trkpt>
      <trkpt lat="42.455052" lon="3.143383">
        <ele>249.563702</ele>
        <time>2022-07-26T11:47:41.007Z</time>
      </trkpt>
      <trkpt lat="42.455255" lon="3.143181">
        <ele>249.185138</ele>
        <time>2022-07-26T11:47:46.093Z</time>
      </trkpt>
      <trkpt lat="42.455836" lon="3.142249">
        <ele>246.072567</ele>
        <time>2022-07-26T11:48:02.852Z</time>
      </trkpt>
      <trkpt lat="42.456309" lon="3.140780">
        <ele>241.255788</ele>
        <time>2022-07-26T11:48:21.576Z</time>
      </trkpt>
      <trkpt lat="42.456603" lon="3.140385">
        <ele>238.729600</ele>
        <time>2022-07-26T11:48:27.710Z</time>
      </trkpt>
      <trkpt lat="42.456780" lon="3.140301">
        <ele>237.585173</ele>
        <time>2022-07-26T11:48:30.472Z</time>
      </trkpt>
      <trkpt lat="42.457085" lon="3.140568">
        <ele>235.369479</ele>
        <time>2022-07-26T11:48:36.107Z</time>
      </trkpt>
      <trkpt lat="42.457499" lon="3.140666">
        <ele>232.804830</ele>
        <time>2022-07-26T11:48:42.497Z</time>
      </trkpt>
      <trkpt lat="42.457889" lon="3.140458">
        <ele>231.079764</ele>
        <time>2022-07-26T11:48:48.948Z</time>
      </trkpt>
      <trkpt lat="42.458313" lon="3.140022">
        <ele>229.687235</ele>
        <time>2022-07-26T11:48:57.858Z</time>
      </trkpt>
      <trkpt lat="42.458447" lon="3.139975">
        <ele>229.325075</ele>
        <time>2022-07-26T11:49:00.640Z</time>
      </trkpt>
      <trkpt lat="42.458788" lon="3.140017">
        <ele>228.429169</ele>
        <time>2022-07-26T11:49:07.035Z</time>
      </trkpt>
      <trkpt lat="42.459315" lon="3.140333">
        <ele>226.987607</ele>
        <time>2022-07-26T11:49:18.573Z</time>
      </trkpt>
      <trkpt lat="42.459458" lon="3.140296">
        <ele>226.933953</ele>
        <time>2022-07-26T11:49:22.609Z</time>
      </trkpt>
      <trkpt lat="42.460410" lon="3.139378">
        <ele>226.503374</ele>
        <time>2022-07-26T11:49:49.641Z</time>
      </trkpt>
      <trkpt lat="42.461491" lon="3.138860">
        <ele>224.517152</ele>
        <time>2022-07-26T11:50:13.217Z</time>
      </trkpt>
      <trkpt lat="42.461851" lon="3.138890">
        <ele>223.568380</ele>
        <time>2022-07-26T11:50:19.555Z</time>
      </trkpt>
      <trkpt lat="42.462310" lon="3.139097">
        <ele>222.295905</ele>
        <time>2022-07-26T11:50:27.473Z</time>
      </trkpt>
      <trkpt lat="42.462725" lon="3.139645">
        <ele>220.395416</ele>
        <time>2022-07-26T11:50:36.764Z</time>
      </trkpt>
      <trkpt lat="42.462943" lon="3.140169">
        <ele>218.699981</ele>
        <time>2022-07-26T11:50:43.882Z</time>
      </trkpt>
      <trkpt lat="42.463096" lon="3.140976">
        <ele>216.351715</ele>
        <time>2022-07-26T11:50:54.231Z</time>
      </trkpt>
      <trkpt lat="42.462998" lon="3.141435">
        <ele>215.005033</ele>
        <time>2022-07-26T11:51:00.343Z</time>
      </trkpt>
      <trkpt lat="42.462790" lon="3.141835">
        <ele>213.332426</ele>
        <time>2022-07-26T11:51:06.641Z</time>
      </trkpt>
      <trkpt lat="42.462804" lon="3.142143">
        <ele>212.232274</ele>
        <time>2022-07-26T11:51:10.637Z</time>
      </trkpt>
      <trkpt lat="42.463001" lon="3.142457">
        <ele>210.762725</ele>
        <time>2022-07-26T11:51:15.760Z</time>
      </trkpt>
      <trkpt lat="42.463872" lon="3.142622">
        <ele>206.512535</ele>
        <time>2022-07-26T11:51:29.460Z</time>
      </trkpt>
      <trkpt lat="42.464020" lon="3.142781">
        <ele>205.282914</ele>
        <time>2022-07-26T11:51:32.277Z</time>
      </trkpt>
      <trkpt lat="42.464126" lon="3.143663">
        <ele>199.805220</ele>
        <time>2022-07-26T11:51:41.854Z</time>
      </trkpt>
      <trkpt lat="42.464445" lon="3.144548">
        <ele>193.767484</ele>
        <time>2022-07-26T11:51:52.265Z</time>
      </trkpt>
      <trkpt lat="42.464559" lon="3.145194">
        <ele>190.713544</ele>
        <time>2022-07-26T11:51:59.398Z</time>
      </trkpt>
      <trkpt lat="42.464799" lon="3.145741">
        <ele>189.649411</ele>
        <time>2022-07-26T11:52:06.656Z</time>
      </trkpt>
      <trkpt lat="42.465228" lon="3.147291">
        <ele>187.160461</ele>
        <time>2022-07-26T11:52:34.372Z</time>
      </trkpt>
      <trkpt lat="42.465373" lon="3.147326">
        <ele>187.506007</ele>
        <time>2022-07-26T11:52:40.112Z</time>
      </trkpt>
      <trkpt lat="42.465606" lon="3.147221">
        <ele>188.082081</ele>
        <time>2022-07-26T11:52:50.378Z</time>
      </trkpt>
      <trkpt lat="42.466432" lon="3.146606">
        <ele>190.293090</ele>
        <time>2022-07-26T11:53:26.289Z</time>
      </trkpt>
      <trkpt lat="42.466767" lon="3.146473">
        <ele>191.112072</ele>
        <time>2022-07-26T11:53:37.238Z</time>
      </trkpt>
      <trkpt lat="42.467330" lon="3.146463">
        <ele>188.939781</ele>
        <time>2022-07-26T11:53:48.665Z</time>
      </trkpt>
      <trkpt lat="42.467635" lon="3.146608">
        <ele>187.480651</ele>
        <time>2022-07-26T11:53:54.077Z</time>
      </trkpt>
      <trkpt lat="42.468062" lon="3.146489">
        <ele>185.512657</ele>
        <time>2022-07-26T11:54:00.858Z</time>
      </trkpt>
      <trkpt lat="42.468570" lon="3.146456">
        <ele>183.216670</ele>
        <time>2022-07-26T11:54:08.288Z</time>
      </trkpt>
      <trkpt lat="42.469346" lon="3.146150">
        <ele>175.080175</ele>
        <time>2022-07-26T11:54:19.858Z</time>
      </trkpt>
      <trkpt lat="42.469717" lon="3.145747">
        <ele>170.220865</ele>
        <time>2022-07-26T11:54:26.562Z</time>
      </trkpt>
      <trkpt lat="42.470087" lon="3.145502">
        <ele>166.011923</ele>
        <time>2022-07-26T11:54:32.367Z</time>
      </trkpt>
      <trkpt lat="42.470269" lon="3.145564">
        <ele>163.972587</ele>
        <time>2022-07-26T11:54:35.033Z</time>
      </trkpt>
      <trkpt lat="42.470643" lon="3.146244">
        <ele>156.366255</ele>
        <time>2022-07-26T11:54:43.712Z</time>
      </trkpt>
      <trkpt lat="42.471134" lon="3.145977">
        <ele>149.934846</ele>
        <time>2022-07-26T11:54:51.047Z</time>
      </trkpt>
      <trkpt lat="42.471254" lon="3.145586">
        <ele>146.137254</ele>
        <time>2022-07-26T11:54:55.384Z</time>
      </trkpt>
      <trkpt lat="42.471322" lon="3.144684">
        <ele>138.012012</ele>
        <time>2022-07-26T11:55:04.659Z</time>
      </trkpt>
      <trkpt lat="42.471466" lon="3.144414">
        <ele>135.027553</ele>
        <time>2022-07-26T11:55:08.072Z</time>
      </trkpt>
      <trkpt lat="42.471751" lon="3.144088">
        <ele>130.499299</ele>
        <time>2022-07-26T11:55:13.216Z</time>
      </trkpt>
      <trkpt lat="42.472107" lon="3.143206">
        <ele>121.493484</ele>
        <time>2022-07-26T11:55:23.486Z</time>
      </trkpt>
      <trkpt lat="42.472620" lon="3.142579">
        <ele>115.600395</ele>
        <time>2022-07-26T11:55:33.454Z</time>
      </trkpt>
      <trkpt lat="42.473020" lon="3.141774">
        <ele>109.644767</ele>
        <time>2022-07-26T11:55:43.895Z</time>
      </trkpt>
      <trkpt lat="42.473728" lon="3.140925">
        <ele>104.486298</ele>
        <time>2022-07-26T11:55:58.467Z</time>
      </trkpt>
      <trkpt lat="42.473872" lon="3.140800">
        <ele>103.962436</ele>
        <time>2022-07-26T11:56:01.473Z</time>
      </trkpt>
      <trkpt lat="42.474732" lon="3.140583">
        <ele>101.282366</ele>
        <time>2022-07-26T11:56:18.062Z</time>
      </trkpt>
      <trkpt lat="42.474973" lon="3.140470">
        <ele>100.498425</ele>
        <time>2022-07-26T11:56:23.300Z</time>
      </trkpt>
      <trkpt lat="42.475627" lon="3.139667">
        <ele>97.654655</ele>
        <time>2022-07-26T11:56:40.154Z</time>
      </trkpt>
      <trkpt lat="42.475901" lon="3.139522">
        <ele>96.706656</ele>
        <time>2022-07-26T11:56:45.105Z</time>
      </trkpt>
      <trkpt lat="42.476152" lon="3.139481">
        <ele>95.891822</ele>
        <time>2022-07-26T11:56:49.211Z</time>
      </trkpt>
      <trkpt lat="42.476337" lon="3.138759">
        <ele>93.055886</ele>
        <time>2022-07-26T11:57:04.467Z</time>
      </trkpt>
      <trkpt lat="42.476174" lon="3.137293">
        <ele>84.253775</ele>
        <time>2022-07-26T11:57:32.447Z</time>
      </trkpt>
      <trkpt lat="42.476285" lon="3.136461">
        <ele>78.971658</ele>
        <time>2022-07-26T11:57:47.622Z</time>
      </trkpt>
      <trkpt lat="42.476507" lon="3.135850">
        <ele>73.910760</ele>
        <time>2022-07-26T11:57:59.780Z</time>
      </trkpt>
      <trkpt lat="42.476576" lon="3.135660">
        <ele>72.337151</ele>
        <time>2022-07-26T11:58:03.589Z</time>
      </trkpt>
      <trkpt lat="42.476946" lon="3.135328">
        <ele>67.867326</ele>
        <time>2022-07-26T11:58:34.549Z</time>
      </trkpt>
      <trkpt lat="42.477048" lon="3.135156">
        <ele>66.227452</ele>
        <time>2022-07-26T11:58:45.889Z</time>
      </trkpt>
      <trkpt lat="42.477674" lon="3.134093">
        <ele>57.427189</ele>
        <time>2022-07-26T11:59:55.973Z</time>
      </trkpt>
      <trkpt lat="42.477854" lon="3.134409">
        <ele>55.102799</ele>
        <time>2022-07-26T12:00:00.308Z</time>
      </trkpt>
      <trkpt lat="42.478023" lon="3.134428">
        <ele>53.764268</ele>
        <time>2022-07-26T12:00:02.859Z</time>
      </trkpt>
      <trkpt lat="42.478102" lon="3.134441">
        <ele>53.136128</ele>
        <time>2022-07-26T12:00:04.129Z</time>
      </trkpt>
      <trkpt lat="42.478167" lon="3.134455">
        <ele>52.616636</ele>
        <time>2022-07-26T12:00:05.128Z</time>
      </trkpt>
      <trkpt lat="42.478698" lon="3.133715">
        <ele>46.563638</ele>
        <time>2022-07-26T12:00:17.068Z</time>
      </trkpt>
      <trkpt lat="42.478792" lon="3.133544">
        <ele>45.283017</ele>
        <time>2022-07-26T12:00:19.458Z</time>
      </trkpt>
      <trkpt lat="42.478786" lon="3.133427">
        <ele>44.578781</ele>
        <time>2022-07-26T12:00:20.738Z</time>
      </trkpt>
      <trkpt lat="42.478613" lon="3.133286">
        <ele>42.935413</ele>
        <time>2022-07-26T12:00:23.640Z</time>
      </trkpt>
      <trkpt lat="42.478365" lon="3.133103">
        <ele>40.636663</ele>
        <time>2022-07-26T12:00:27.664Z</time>
      </trkpt>
      <trkpt lat="42.478696" lon="3.132398">
        <ele>35.618415</ele>
        <time>2022-07-26T12:00:36.721Z</time>
      </trkpt>
      <trkpt lat="42.478740" lon="3.132261">
        <ele>34.721168</ele>
        <time>2022-07-26T12:00:38.357Z</time>
      </trkpt>
      <trkpt lat="42.478826" lon="3.132035">
        <ele>33.176825</ele>
        <time>2022-07-26T12:00:41.043Z</time>
      </trkpt>
      <trkpt lat="42.479092" lon="3.131554">
        <ele>29.054229</ele>
        <time>2022-07-26T12:00:47.115Z</time>
      </trkpt>
      <trkpt lat="42.479292" lon="3.130804">
        <ele>23.585429</ele>
        <time>2022-07-26T12:00:55.089Z</time>
      </trkpt>
      <trkpt lat="42.479302" lon="3.130312">
        <ele>20.210382</ele>
        <time>2022-07-26T12:01:00.030Z</time>
      </trkpt>
      <trkpt lat="42.479333" lon="3.130184">
        <ele>19.286541</ele>
        <time>2022-07-26T12:01:01.418Z</time>
      </trkpt>
      <trkpt lat="42.479752" lon="3.130396">
        <ele>15.745275</ele>
        <time>2022-07-26T12:01:07.654Z</time>
      </trkpt>
      <trkpt lat="42.480010" lon="3.130736">
        <ele>13.809216</ele>
        <time>2022-07-26T12:01:12.914Z</time>
      </trkpt>
      <trkpt lat="42.480689" lon="3.130952">
        <ele>10.056154</ele>
        <time>2022-07-26T12:01:30.963Z</time>
      </trkpt>
      <trkpt lat="42.480805" lon="3.130584">
        <ele>8.467875</ele>
        <time>2022-07-26T12:01:35.713Z</time>
      </trkpt>
      <trkpt lat="42.481039" lon="3.130061">
        <ele>6.772177</ele>
        <time>2022-07-26T12:01:43.186Z</time>
      </trkpt>
      <trkpt lat="42.481156" lon="3.129867">
        <ele>6.610803</ele>
        <time>2022-07-26T12:01:46.202Z</time>
      </trkpt>
      <trkpt lat="42.481297" lon="3.129693">
        <ele>6.444340</ele>
        <time>2022-07-26T12:01:49.416Z</time>
      </trkpt>
      <trkpt lat="42.481424" lon="3.129526">
        <ele>6.289874</ele>
        <time>2022-07-26T12:01:52.603Z</time>
      </trkpt>
      <trkpt lat="42.481478" lon="3.129537">
        <ele>6.242196</ele>
        <time>2022-07-26T12:01:53.586Z</time>
      </trkpt>
      <trkpt lat="42.481498" lon="3.129452">
        <ele>6.184744</ele>
        <time>2022-07-26T12:01:54.837Z</time>
      </trkpt>
      <trkpt lat="42.481772" lon="3.129265">
        <ele>5.916913</ele>
        <time>2022-07-26T12:02:00.927Z</time>
      </trkpt>
      <trkpt lat="42.481892" lon="3.129185">
        <ele>5.800159</ele>
        <time>2022-07-26T12:02:03.932Z</time>
      </trkpt>
      <trkpt lat="42.482019" lon="3.129122">
        <ele>5.682084</ele>
        <time>2022-07-26T12:02:07.465Z</time>
      </trkpt>
      <trkpt lat="42.482119" lon="3.129084">
        <ele>5.591408</ele>
        <time>2022-07-26T12:02:10.214Z</time>
      </trkpt>
      <trkpt lat="42.482267" lon="3.129034">
        <ele>5.458235</ele>
        <time>2022-07-26T12:02:14.349Z</time>
      </trkpt>
      <trkpt lat="42.482262" lon="3.129030">
        <ele>5.453166</ele>
        <time>2022-07-26T12:02:14.502Z</time>
      </trkpt>
      <trkpt lat="42.482422" lon="3.129000">
        <ele>5.462526</ele>
        <time>2022-07-26T12:02:18.679Z</time>
      </trkpt>
      <trkpt lat="42.482601" lon="3.128960">
        <ele>6.063397</ele>
        <time>2022-07-26T12:02:23.370Z</time>
      </trkpt>
      <trkpt lat="42.482540" lon="3.128720">
        <ele>6.683473</ele>
        <time>2022-07-26T12:02:28.211Z</time>
      </trkpt>
      <trkpt lat="42.482521" lon="3.128650">
        <ele>6.865672</ele>
        <time>2022-07-26T12:02:29.635Z</time>
      </trkpt>
      <trkpt lat="42.482479" lon="3.128490">
        <ele>7.280516</ele>
        <time>2022-07-26T12:02:32.873Z</time>
      </trkpt>
      <trkpt lat="42.482449" lon="3.128420">
        <ele>7.478277</ele>
        <time>2022-07-26T12:02:34.419Z</time>
      </trkpt>
      <trkpt lat="42.482719" lon="3.128260">
        <ele>8.454228</ele>
        <time>2022-07-26T12:02:42.040Z</time>
      </trkpt>
      <trkpt lat="42.482800" lon="3.128190">
        <ele>8.772366</ele>
        <time>2022-07-26T12:02:44.525Z</time>
      </trkpt>
      <trkpt lat="42.482769" lon="3.127910">
        <ele>9.463970</ele>
        <time>2022-07-26T12:02:49.927Z</time>
      </trkpt>
      <trkpt lat="42.482868" lon="3.127760">
        <ele>9.955668</ele>
        <time>2022-07-26T12:02:53.771Z</time>
      </trkpt>
      <trkpt lat="42.482866" lon="3.127759">
        <ele>9.962728</ele>
        <time>2022-07-26T12:02:53.817Z</time>
      </trkpt>
      <trkpt lat="42.482686" lon="3.127537">
        <ele>10.768639</ele>
        <time>2022-07-26T12:03:05.846Z</time>
      </trkpt>
      <trkpt lat="42.482773" lon="3.127429">
        <ele>11.159315</ele>
        <time>2022-07-26T12:03:11.581Z</time>
      </trkpt>
      <trkpt lat="42.482939" lon="3.127196">
        <ele>12.430769</ele>
        <time>2022-07-26T12:03:24.030Z</time>
      </trkpt>
      <trkpt lat="42.482884" lon="3.127025">
        <ele>13.223166</ele>
        <time>2022-07-26T12:03:30.162Z</time>
      </trkpt>
      <trkpt lat="42.482901" lon="3.126927">
        <ele>13.650783</ele>
        <time>2022-07-26T12:03:33.202Z</time>
      </trkpt>
      <trkpt lat="42.483032" lon="3.126938">
        <ele>14.406724</ele>
        <time>2022-07-26T12:03:39.643Z</time>
      </trkpt>
      <trkpt lat="42.483219" lon="3.126950">
        <ele>15.484958</ele>
        <time>2022-07-26T12:03:48.498Z</time>
      </trkpt>
      <trkpt lat="42.483451" lon="3.126502">
        <ele>17.810120</ele>
        <time>2022-07-26T12:04:07.668Z</time>
      </trkpt>
      <trkpt lat="42.483477" lon="3.126249">
        <ele>18.895115</ele>
        <time>2022-07-26T12:04:17.225Z</time>
      </trkpt>
      <trkpt lat="42.483447" lon="3.126062">
        <ele>19.707970</ele>
        <time>2022-07-26T12:04:23.447Z</time>
      </trkpt>
      <trkpt lat="42.483500" lon="3.125908">
        <ele>20.429803</ele>
        <time>2022-07-26T12:04:29.497Z</time>
      </trkpt>
      <trkpt lat="42.483629" lon="3.125794">
        <ele>21.316637</ele>
        <time>2022-07-26T12:04:37.243Z</time>
      </trkpt>
      <trkpt lat="42.484260" lon="3.125812">
        <ele>22.148110</ele>
        <time>2022-07-26T12:05:06.248Z</time>
      </trkpt>
      <trkpt lat="42.484933" lon="3.125850">
        <ele>22.723200</ele>
        <time>2022-07-26T12:05:23.962Z</time>
      </trkpt>
      <trkpt lat="42.485265" lon="3.125929">
        <ele>23.010986</ele>
        <time>2022-07-26T12:05:29.897Z</time>
      </trkpt>
      <trkpt lat="42.485566" lon="3.126081">
        <ele>22.552333</ele>
        <time>2022-07-26T12:05:34.997Z</time>
      </trkpt>
      <trkpt lat="42.485558" lon="3.126182">
        <ele>22.091919</ele>
        <time>2022-07-26T12:05:36.273Z</time>
      </trkpt>
      <trkpt lat="42.485636" lon="3.126281">
        <ele>21.435283</ele>
        <time>2022-07-26T12:05:37.862Z</time>
      </trkpt>
      <trkpt lat="42.485652" lon="3.126283">
        <ele>21.336527</ele>
        <time>2022-07-26T12:05:38.091Z</time>
      </trkpt>
      <trkpt lat="42.485732" lon="3.126239">
        <ele>20.805928</ele>
        <time>2022-07-26T12:05:39.290Z</time>
      </trkpt>
      <trkpt lat="42.485756" lon="3.126112">
        <ele>20.211705</ele>
        <time>2022-07-26T12:05:40.746Z</time>
      </trkpt>
      <trkpt lat="42.486289" lon="3.126054">
        <ele>16.925262</ele>
        <time>2022-07-26T12:05:48.476Z</time>
      </trkpt>
      <trkpt lat="42.486705" lon="3.126205">
        <ele>14.278439</ele>
        <time>2022-07-26T12:05:54.489Z</time>
      </trkpt>
      <trkpt lat="42.486962" lon="3.126417">
        <ele>12.429575</ele>
        <time>2022-07-26T12:05:58.767Z</time>
      </trkpt>
      <trkpt lat="42.487372" lon="3.126758">
        <ele>12.165139</ele>
        <time>2022-07-26T12:06:05.773Z</time>
      </trkpt>
      <trkpt lat="42.487461" lon="3.126836">
        <ele>12.171022</ele>
        <time>2022-07-26T12:06:07.496Z</time>
      </trkpt>
      <trkpt lat="42.487577" lon="3.126924">
        <ele>12.178400</ele>
        <time>2022-07-26T12:06:09.752Z</time>
      </trkpt>
      <trkpt lat="42.488125" lon="3.127226">
        <ele>12.211236</ele>
        <time>2022-07-26T12:06:26.085Z</time>
      </trkpt>
      <trkpt lat="42.488415" lon="3.127359">
        <ele>12.228230</ele>
        <time>2022-07-26T12:06:38.081Z</time>
      </trkpt>
      <trkpt lat="42.488572" lon="3.127293">
        <ele>12.237354</ele>
        <time>2022-07-26T12:06:45.144Z</time>
      </trkpt>
      <trkpt lat="42.488684" lon="3.127052">
        <ele>13.571459</ele>
        <time>2022-07-26T12:06:55.140Z</time>
      </trkpt>
      <trkpt lat="42.488700" lon="3.126743">
        <ele>15.647983</ele>
        <time>2022-07-26T12:07:06.795Z</time>
      </trkpt>
      <trkpt lat="42.488697" lon="3.126313">
        <ele>18.530675</ele>
        <time>2022-07-26T12:07:24.824Z</time>
      </trkpt>
      <trkpt lat="42.488706" lon="3.124849">
        <ele>28.345138</ele>
        <time>2022-07-26T12:08:34.962Z</time>
      </trkpt>
      <trkpt lat="42.488643" lon="3.124539">
        <ele>30.637610</ele>
        <time>2022-07-26T12:08:50.240Z</time>
      </trkpt>
      <trkpt lat="42.488593" lon="3.124213">
        <ele>33.029825</ele>
        <time>2022-07-26T12:09:06.528Z</time>
      </trkpt>
      <trkpt lat="42.488656" lon="3.123770">
        <ele>36.271128</ele>
        <time>2022-07-26T12:09:27.660Z</time>
      </trkpt>
      <trkpt lat="42.489541" lon="3.121711">
        <ele>51.006214</ele>
        <time>2022-07-26T12:11:10.648Z</time>
      </trkpt>
      <trkpt lat="42.490326" lon="3.120057">
        <ele>59.008257</ele>
        <time>2022-07-26T12:12:11.906Z</time>
      </trkpt>
      <trkpt lat="42.490845" lon="3.119280">
        <ele>61.172509</ele>
        <time>2022-07-26T12:12:34.344Z</time>
      </trkpt>
      <trkpt lat="42.491120" lon="3.119071">
        <ele>62.055041</ele>
        <time>2022-07-26T12:12:44.010Z</time>
      </trkpt>
      <trkpt lat="42.491414" lon="3.118961">
        <ele>62.908863</ele>
        <time>2022-07-26T12:12:53.685Z</time>
      </trkpt>
      <trkpt lat="42.491781" lon="3.118944">
        <ele>63.248529</ele>
        <time>2022-07-26T12:13:05.748Z</time>
      </trkpt>
      <trkpt lat="42.492051" lon="3.119035">
        <ele>63.496359</ele>
        <time>2022-07-26T12:13:15.266Z</time>
      </trkpt>
      <trkpt lat="42.492103" lon="3.119084">
        <ele>63.552764</ele>
        <time>2022-07-26T12:13:16.956Z</time>
      </trkpt>
      <trkpt lat="42.492204" lon="3.119050">
        <ele>63.645464</ele>
        <time>2022-07-26T12:13:20.285Z</time>
      </trkpt>
      <trkpt lat="42.492390" lon="3.119105">
        <ele>63.815044</ele>
        <time>2022-07-26T12:13:25.051Z</time>
      </trkpt>
      <trkpt lat="42.492928" lon="3.119300">
        <ele>64.311111</ele>
        <time>2022-07-26T12:13:37.166Z</time>
      </trkpt>
      <trkpt lat="42.493483" lon="3.119259">
        <ele>63.393939</ele>
        <time>2022-07-26T12:13:47.923Z</time>
      </trkpt>
      <trkpt lat="42.494038" lon="3.119030">
        <ele>61.273488</ele>
        <time>2022-07-26T12:13:57.726Z</time>
      </trkpt>
      <trkpt lat="42.494714" lon="3.118451">
        <ele>58.351061</ele>
        <time>2022-07-26T12:14:09.794Z</time>
      </trkpt>
      <trkpt lat="42.495055" lon="3.118251">
        <ele>56.248829</ele>
        <time>2022-07-26T12:14:15.103Z</time>
      </trkpt>
      <trkpt lat="42.495511" lon="3.118190">
        <ele>53.278218</ele>
        <time>2022-07-26T12:14:21.793Z</time>
      </trkpt>
      <trkpt lat="42.495802" lon="3.118259">
        <ele>51.363039</ele>
        <time>2022-07-26T12:14:26.214Z</time>
      </trkpt>
      <trkpt lat="42.495972" lon="3.118358">
        <ele>50.163619</ele>
        <time>2022-07-26T12:14:28.846Z</time>
      </trkpt>
      <trkpt lat="42.496062" lon="3.118433">
        <ele>49.478806</ele>
        <time>2022-07-26T12:14:30.480Z</time>
      </trkpt>
      <trkpt lat="42.496904" lon="3.119394">
        <ele>41.131062</ele>
        <time>2022-07-26T12:14:46.083Z</time>
      </trkpt>
      <trkpt lat="42.497022" lon="3.119455">
        <ele>40.060890</ele>
        <time>2022-07-26T12:14:47.767Z</time>
      </trkpt>
      <trkpt lat="42.497482" lon="3.119502">
        <ele>36.151553</ele>
        <time>2022-07-26T12:14:54.099Z</time>
      </trkpt>
      <trkpt lat="42.498501" lon="3.119523">
        <ele>28.099273</ele>
        <time>2022-07-26T12:15:08.209Z</time>
      </trkpt>
      <trkpt lat="42.499032" lon="3.119442">
        <ele>24.319018</ele>
        <time>2022-07-26T12:15:15.831Z</time>
      </trkpt>
      <trkpt lat="42.499451" lon="3.119448">
        <ele>21.354629</ele>
        <time>2022-07-26T12:15:21.859Z</time>
      </trkpt>
      <trkpt lat="42.499708" lon="3.119589">
        <ele>19.393365</ele>
        <time>2022-07-26T12:15:25.928Z</time>
      </trkpt>
      <trkpt lat="42.500086" lon="3.120281">
        <ele>16.112528</ele>
        <time>2022-07-26T12:15:35.447Z</time>
      </trkpt>
      <trkpt lat="42.500358" lon="3.120668">
        <ele>14.309742</ele>
        <time>2022-07-26T12:15:41.505Z</time>
      </trkpt>
      <trkpt lat="42.500557" lon="3.120849">
        <ele>13.213980</ele>
        <time>2022-07-26T12:15:45.281Z</time>
      </trkpt>
      <trkpt lat="42.500775" lon="3.120954">
        <ele>12.156015</ele>
        <time>2022-07-26T12:15:48.842Z</time>
      </trkpt>
      <trkpt lat="42.501070" lon="3.120946">
        <ele>10.806632</ele>
        <time>2022-07-26T12:15:53.381Z</time>
      </trkpt>
      <trkpt lat="42.501752" lon="3.120598">
        <ele>8.837223</ele>
        <time>2022-07-26T12:16:04.997Z</time>
      </trkpt>
      <trkpt lat="42.501893" lon="3.120533">
        <ele>8.509485</ele>
        <time>2022-07-26T12:16:07.653Z</time>
      </trkpt>
      <trkpt lat="42.502122" lon="3.120547">
        <ele>8.005001</ele>
        <time>2022-07-26T12:16:11.511Z</time>
      </trkpt>
      <trkpt lat="42.502182" lon="3.120583">
        <ele>7.860614</ele>
        <time>2022-07-26T12:16:12.691Z</time>
      </trkpt>
      <trkpt lat="42.502375" lon="3.120800">
        <ele>7.308916</ele>
        <time>2022-07-26T12:16:17.288Z</time>
      </trkpt>
      <trkpt lat="42.502604" lon="3.121040">
        <ele>6.672034</ele>
        <time>2022-07-26T12:16:23.039Z</time>
      </trkpt>
      <trkpt lat="42.502962" lon="3.121205">
        <ele>6.115534</ele>
        <time>2022-07-26T12:16:30.603Z</time>
      </trkpt>
      <trkpt lat="42.503489" lon="3.121350">
        <ele>6.007773</ele>
        <time>2022-07-26T12:16:41.390Z</time>
      </trkpt>
      <trkpt lat="42.503879" lon="3.121294">
        <ele>5.929180</ele>
        <time>2022-07-26T12:16:49.318Z</time>
      </trkpt>
      <trkpt lat="42.503958" lon="3.121277">
        <ele>5.913151</ele>
        <time>2022-07-26T12:16:50.865Z</time>
      </trkpt>
      <trkpt lat="42.503991" lon="3.121267">
        <ele>5.906375</ele>
        <time>2022-07-26T12:16:51.526Z</time>
      </trkpt>
      <trkpt lat="42.505091" lon="3.120937">
        <ele>7.520279</ele>
        <time>2022-07-26T12:17:19.609Z</time>
      </trkpt>
      <trkpt lat="42.505381" lon="3.120572">
        <ele>8.869626</ele>
        <time>2022-07-26T12:17:31.740Z</time>
      </trkpt>
      <trkpt lat="42.505553" lon="3.120133">
        <ele>10.119700</ele>
        <time>2022-07-26T12:17:45.367Z</time>
      </trkpt>
      <trkpt lat="42.505596" lon="3.120010">
        <ele>10.461996</ele>
        <time>2022-07-26T12:17:50.378Z</time>
      </trkpt>
      <trkpt lat="42.505648" lon="3.119857">
        <ele>10.885629</ele>
        <time>2022-07-26T12:17:55.726Z</time>
      </trkpt>
      <trkpt lat="42.505868" lon="3.119223">
        <ele>13.629328</ele>
        <time>2022-07-26T12:18:20.078Z</time>
      </trkpt>
      <trkpt lat="42.505904" lon="3.118674">
        <ele>16.878940</ele>
        <time>2022-07-26T12:18:44.025Z</time>
      </trkpt>
      <trkpt lat="42.505900" lon="3.118567">
        <ele>17.510608</ele>
        <time>2022-07-26T12:18:49.669Z</time>
      </trkpt>
      <trkpt lat="42.505875" lon="3.118274">
        <ele>19.249629</ele>
        <time>2022-07-26T12:19:02.835Z</time>
      </trkpt>
      <trkpt lat="42.505884" lon="3.118097">
        <ele>20.295677</ele>
        <time>2022-07-26T12:19:11.824Z</time>
      </trkpt>
      <trkpt lat="42.506021" lon="3.117733">
        <ele>22.705284</ele>
        <time>2022-07-26T12:19:29.664Z</time>
      </trkpt>
      <trkpt lat="42.506091" lon="3.117347">
        <ele>25.048929</ele>
        <time>2022-07-26T12:19:47.131Z</time>
      </trkpt>
      <trkpt lat="42.506118" lon="3.116406">
        <ele>27.973866</ele>
        <time>2022-07-26T12:20:17.597Z</time>
      </trkpt>
      <trkpt lat="42.506265" lon="3.115556">
        <ele>29.975437</ele>
        <time>2022-07-26T12:20:38.015Z</time>
      </trkpt>
      <trkpt lat="42.506326" lon="3.115405">
        <ele>30.370180</ele>
        <time>2022-07-26T12:20:42.358Z</time>
      </trkpt>
      <trkpt lat="42.506409" lon="3.115387">
        <ele>30.631571</ele>
        <time>2022-07-26T12:20:46.620Z</time>
      </trkpt>
      <trkpt lat="42.506555" lon="3.115482">
        <ele>31.135134</ele>
        <time>2022-07-26T12:20:49.257Z</time>
      </trkpt>
      <trkpt lat="42.506582" lon="3.115621">
        <ele>31.464673</ele>
        <time>2022-07-26T12:20:52.711Z</time>
      </trkpt>
      <trkpt lat="42.506546" lon="3.116287">
        <ele>32.512942</ele>
        <time>2022-07-26T12:21:04.116Z</time>
      </trkpt>
      <trkpt lat="42.506675" lon="3.116968">
        <ele>33.417519</ele>
        <time>2022-07-26T12:21:13.867Z</time>
      </trkpt>
      <trkpt lat="42.506801" lon="3.117249">
        <ele>33.840650</ele>
        <time>2022-07-26T12:21:20.794Z</time>
      </trkpt>
      <trkpt lat="42.507045" lon="3.117368">
        <ele>34.293149</ele>
        <time>2022-07-26T12:21:27.758Z</time>
      </trkpt>
      <trkpt lat="42.507473" lon="3.117284">
        <ele>35.080791</ele>
        <time>2022-07-26T12:21:46.033Z</time>
      </trkpt>
      <trkpt lat="42.507956" lon="3.116656">
        <ele>39.150273</ele>
        <time>2022-07-26T12:22:18.631Z</time>
      </trkpt>
      <trkpt lat="42.508403" lon="3.116487">
        <ele>41.972809</ele>
        <time>2022-07-26T12:22:41.655Z</time>
      </trkpt>
      <trkpt lat="42.508566" lon="3.116373">
        <ele>43.088284</ele>
        <time>2022-07-26T12:22:50.556Z</time>
      </trkpt>
      <trkpt lat="42.508981" lon="3.115537">
        <ele>47.465482</ele>
        <time>2022-07-26T12:23:24.815Z</time>
      </trkpt>
      <trkpt lat="42.509291" lon="3.115324">
        <ele>49.395255</ele>
        <time>2022-07-26T12:23:39.722Z</time>
      </trkpt>
      <trkpt lat="42.509830" lon="3.115382">
        <ele>52.397910</ele>
        <time>2022-07-26T12:24:01.467Z</time>
      </trkpt>
      <trkpt lat="42.509952" lon="3.115449">
        <ele>53.128832</ele>
        <time>2022-07-26T12:24:07.244Z</time>
      </trkpt>
      <trkpt lat="42.510115" lon="3.115991">
        <ele>55.525159</ele>
        <time>2022-07-26T12:24:27.324Z</time>
      </trkpt>
      <trkpt lat="42.510324" lon="3.116211">
        <ele>57.328690</ele>
        <time>2022-07-26T12:24:40.347Z</time>
      </trkpt>
      <trkpt lat="42.510699" lon="3.116372">
        <ele>60.221712</ele>
        <time>2022-07-26T12:24:59.897Z</time>
      </trkpt>
      <trkpt lat="42.511135" lon="3.116406">
        <ele>63.433856</ele>
        <time>2022-07-26T12:25:23.058Z</time>
      </trkpt>
      <trkpt lat="42.511234" lon="3.116449">
        <ele>64.198429</ele>
        <time>2022-07-26T12:25:29.084Z</time>
      </trkpt>
      <trkpt lat="42.511435" lon="3.116558">
        <ele>65.790560</ele>
        <time>2022-07-26T12:25:40.670Z</time>
      </trkpt>
      <trkpt lat="42.511548" lon="3.116555">
        <ele>66.621853</ele>
        <time>2022-07-26T12:25:47.312Z</time>
      </trkpt>
      <trkpt lat="42.511640" lon="3.116510">
        <ele>67.341168</ele>
        <time>2022-07-26T12:25:53.115Z</time>
      </trkpt>
      <trkpt lat="42.511732" lon="3.116357">
        <ele>68.411688</ele>
        <time>2022-07-26T12:26:00.242Z</time>
      </trkpt>
      <trkpt lat="42.511876" lon="3.115580">
        <ele>71.009617</ele>
        <time>2022-07-26T12:26:31.409Z</time>
      </trkpt>
      <trkpt lat="42.512097" lon="3.114786">
        <ele>73.356217</ele>
        <time>2022-07-26T12:26:56.508Z</time>
      </trkpt>
      <trkpt lat="42.512275" lon="3.114093">
        <ele>75.385261</ele>
        <time>2022-07-26T12:27:12.650Z</time>
      </trkpt>
      <trkpt lat="42.512302" lon="3.113592">
        <ele>74.800890</ele>
        <time>2022-07-26T12:27:21.644Z</time>
      </trkpt>
      <trkpt lat="42.512528" lon="3.112801">
        <ele>71.603316</ele>
        <time>2022-07-26T12:27:30.850Z</time>
      </trkpt>
      <trkpt lat="42.512383" lon="3.111860">
        <ele>67.979822</ele>
        <time>2022-07-26T12:27:40.959Z</time>
      </trkpt>
      <trkpt lat="42.512438" lon="3.111750">
        <ele>67.478826</ele>
        <time>2022-07-26T12:27:42.422Z</time>
      </trkpt>
      <trkpt lat="42.512714" lon="3.111552">
        <ele>65.186709</ele>
        <time>2022-07-26T12:27:46.923Z</time>
      </trkpt>
      <trkpt lat="42.512945" lon="3.111305">
        <ele>62.465766</ele>
        <time>2022-07-26T12:27:51.100Z</time>
      </trkpt>
      <trkpt lat="42.513009" lon="3.111184">
        <ele>61.450218</ele>
        <time>2022-07-26T12:27:52.649Z</time>
      </trkpt>
      <trkpt lat="42.513044" lon="3.111046">
        <ele>60.455041</ele>
        <time>2022-07-26T12:27:54.136Z</time>
      </trkpt>
      <trkpt lat="42.513033" lon="3.110791">
        <ele>58.713202</ele>
        <time>2022-07-26T12:27:56.705Z</time>
      </trkpt>
      <trkpt lat="42.512833" lon="3.110543">
        <ele>56.206589</ele>
        <time>2022-07-26T12:28:00.362Z</time>
      </trkpt>
      <trkpt lat="42.512684" lon="3.110272">
        <ele>53.901167</ele>
        <time>2022-07-26T12:28:03.669Z</time>
      </trkpt>
      <trkpt lat="42.512668" lon="3.110083">
        <ele>52.603883</ele>
        <time>2022-07-26T12:28:05.511Z</time>
      </trkpt>
      <trkpt lat="42.512682" lon="3.109938">
        <ele>51.606665</ele>
        <time>2022-07-26T12:28:06.952Z</time>
      </trkpt>
      <trkpt lat="42.512798" lon="3.109646">
        <ele>49.360994</ele>
        <time>2022-07-26T12:28:10.274Z</time>
      </trkpt>
      <trkpt lat="42.512988" lon="3.109501">
        <ele>47.387550</ele>
        <time>2022-07-26T12:28:13.338Z</time>
      </trkpt>
      <trkpt lat="42.513199" lon="3.109684">
        <ele>45.120497</ele>
        <time>2022-07-26T12:28:16.952Z</time>
      </trkpt>
      <trkpt lat="42.513266" lon="3.109704">
        <ele>44.499470</ele>
        <time>2022-07-26T12:28:17.916Z</time>
      </trkpt>
      <trkpt lat="42.513327" lon="3.109719">
        <ele>43.938270</ele>
        <time>2022-07-26T12:28:18.784Z</time>
      </trkpt>
      <trkpt lat="42.513601" lon="3.109744">
        <ele>41.452284</ele>
        <time>2022-07-26T12:28:22.625Z</time>
      </trkpt>
      <trkpt lat="42.513732" lon="3.109695">
        <ele>40.222158</ele>
        <time>2022-07-26T12:28:24.455Z</time>
      </trkpt>
      <trkpt lat="42.514391" lon="3.109175">
        <ele>33.467655</ele>
        <time>2022-07-26T12:28:34.822Z</time>
      </trkpt>
      <trkpt lat="42.514683" lon="3.108938">
        <ele>31.291873</ele>
        <time>2022-07-26T12:28:39.629Z</time>
      </trkpt>
      <trkpt lat="42.515110" lon="3.108833">
        <ele>28.517008</ele>
        <time>2022-07-26T12:28:45.953Z</time>
      </trkpt>
      <trkpt lat="42.515195" lon="3.108862">
        <ele>27.956567</ele>
        <time>2022-07-26T12:28:47.262Z</time>
      </trkpt>
      <trkpt lat="42.515307" lon="3.108815">
        <ele>27.206925</ele>
        <time>2022-07-26T12:28:49.089Z</time>
      </trkpt>
      <trkpt lat="42.515374" lon="3.108804">
        <ele>26.775379</ele>
        <time>2022-07-26T12:28:50.130Z</time>
      </trkpt>
      <trkpt lat="42.515513" lon="3.108767">
        <ele>25.869622</ele>
        <time>2022-07-26T12:28:52.260Z</time>
      </trkpt>
      <trkpt lat="42.515621" lon="3.108685">
        <ele>25.078243</ele>
        <time>2022-07-26T12:28:54.137Z</time>
      </trkpt>
      <trkpt lat="42.515669" lon="3.108540">
        <ele>24.329069</ele>
        <time>2022-07-26T12:28:55.911Z</time>
      </trkpt>
      <trkpt lat="42.515554" lon="3.108034">
        <ele>21.870932</ele>
        <time>2022-07-26T12:29:01.714Z</time>
      </trkpt>
      <trkpt lat="42.515635" lon="3.107476">
        <ele>19.397391</ele>
        <time>2022-07-26T12:29:07.821Z</time>
      </trkpt>
      <trkpt lat="42.515608" lon="3.107379">
        <ele>18.946427</ele>
        <time>2022-07-26T12:29:08.930Z</time>
      </trkpt>
      <trkpt lat="42.515323" lon="3.107143">
        <ele>16.976238</ele>
        <time>2022-07-26T12:29:13.868Z</time>
      </trkpt>
      <trkpt lat="42.515296" lon="3.107053">
        <ele>16.553617</ele>
        <time>2022-07-26T12:29:14.920Z</time>
      </trkpt>
      <trkpt lat="42.515852" lon="3.106032">
        <ele>11.151914</ele>
        <time>2022-07-26T12:29:28.653Z</time>
      </trkpt>
      <trkpt lat="42.515903" lon="3.106006">
        <ele>10.887399</ele>
        <time>2022-07-26T12:29:29.438Z</time>
      </trkpt>
      <trkpt lat="42.515978" lon="3.106107">
        <ele>10.374335</ele>
        <time>2022-07-26T12:29:30.964Z</time>
      </trkpt>
      <trkpt lat="42.516025" lon="3.106109">
        <ele>10.146033</ele>
        <time>2022-07-26T12:29:31.643Z</time>
      </trkpt>
      <trkpt lat="42.516049" lon="3.106075">
        <ele>9.977563</ele>
        <time>2022-07-26T12:29:32.151Z</time>
      </trkpt>
      <trkpt lat="42.516058" lon="3.106032">
        <ele>9.817598</ele>
        <time>2022-07-26T12:29:32.634Z</time>
      </trkpt>
      <trkpt lat="42.516102" lon="3.105913">
        <ele>9.341162</ele>
        <time>2022-07-26T12:29:34.069Z</time>
      </trkpt>
      <trkpt lat="42.516110" lon="3.105898">
        <ele>9.274904</ele>
        <time>2022-07-26T12:29:34.265Z</time>
      </trkpt>
      <trkpt lat="42.516351" lon="3.105541">
        <ele>7.542484</ele>
        <time>2022-07-26T12:29:39.476Z</time>
      </trkpt>
      <trkpt lat="42.516519" lon="3.105510">
        <ele>6.719316</ele>
        <time>2022-07-26T12:29:41.967Z</time>
      </trkpt>
      <trkpt lat="42.516678" lon="3.105615">
        <ele>5.860760</ele>
        <time>2022-07-26T12:29:44.700Z</time>
      </trkpt>
      <trkpt lat="42.516738" lon="3.105669">
        <ele>5.511185</ele>
        <time>2022-07-26T12:29:45.800Z</time>
      </trkpt>
      <trkpt lat="42.517436" lon="3.106295">
        <ele>2.759788</ele>
        <time>2022-07-26T12:29:59.655Z</time>
      </trkpt>
      <trkpt lat="42.517910" lon="3.106725">
        <ele>2.371149</ele>
        <time>2022-07-26T12:30:09.958Z</time>
      </trkpt>
      <trkpt lat="42.518301" lon="3.107094">
        <ele>2.046516</ele>
        <time>2022-07-26T12:30:20.312Z</time>
      </trkpt>
      <trkpt lat="42.518821" lon="3.107561">
        <ele>2.602002</ele>
        <time>2022-07-26T12:30:36.726Z</time>
      </trkpt>
      <trkpt lat="42.518909" lon="3.107636">
        <ele>3.080296</ele>
        <time>2022-07-26T12:30:40.818Z</time>
      </trkpt>
      <trkpt lat="42.519067" lon="3.107672">
        <ele>3.817662</ele>
        <time>2022-07-26T12:30:46.149Z</time>
      </trkpt>
      <trkpt lat="42.519155" lon="3.107664">
        <ele>4.223584</ele>
        <time>2022-07-26T12:30:49.153Z</time>
      </trkpt>
      <trkpt lat="42.519322" lon="3.107625">
        <ele>5.003492</ele>
        <time>2022-07-26T12:30:56.531Z</time>
      </trkpt>
      <trkpt lat="42.520133" lon="3.107114">
        <ele>9.118926</ele>
        <time>2022-07-26T12:31:36.835Z</time>
      </trkpt>
      <trkpt lat="42.520177" lon="3.107036">
        <ele>9.452117</ele>
        <time>2022-07-26T12:31:41.094Z</time>
      </trkpt>
      <trkpt lat="42.520277" lon="3.106829">
        <ele>10.393220</ele>
        <time>2022-07-26T12:31:49.211Z</time>
      </trkpt>
      <trkpt lat="42.520900" lon="3.105384">
        <ele>18.242717</ele>
        <time>2022-07-26T12:32:48.799Z</time>
      </trkpt>
      <trkpt lat="42.521043" lon="3.105265">
        <ele>19.309933</ele>
        <time>2022-07-26T12:32:58.025Z</time>
      </trkpt>
      <trkpt lat="42.521194" lon="3.105289">
        <ele>20.277133</ele>
        <time>2022-07-26T12:33:05.927Z</time>
      </trkpt>
      <trkpt lat="42.521307" lon="3.105274">
        <ele>20.999447</ele>
        <time>2022-07-26T12:33:11.598Z</time>
      </trkpt>
      <trkpt lat="42.521385" lon="3.105177">
        <ele>21.586181</ele>
        <time>2022-07-26T12:33:17.364Z</time>
      </trkpt>
      <trkpt lat="42.522154" lon="3.103449">
        <ele>27.040775</ele>
        <time>2022-07-26T12:34:13.094Z</time>
      </trkpt>
      <trkpt lat="42.522380" lon="3.103042">
        <ele>27.901443</ele>
        <time>2022-07-26T12:34:24.384Z</time>
      </trkpt>
      <trkpt lat="42.522607" lon="3.102588">
        <ele>27.225190</ele>
        <time>2022-07-26T12:34:33.741Z</time>
      </trkpt>
      <trkpt lat="42.522896" lon="3.102079">
        <ele>26.433179</ele>
        <time>2022-07-26T12:34:42.658Z</time>
      </trkpt>
      <trkpt lat="42.523076" lon="3.101891">
        <ele>26.053268</ele>
        <time>2022-07-26T12:34:46.479Z</time>
      </trkpt>
      <trkpt lat="42.523152" lon="3.101888">
        <ele>25.926104</ele>
        <time>2022-07-26T12:34:47.643Z</time>
      </trkpt>
      <trkpt lat="42.523189" lon="3.101806">
        <ele>25.807589</ele>
        <time>2022-07-26T12:34:48.759Z</time>
      </trkpt>
      <trkpt lat="42.523174" lon="3.101735">
        <ele>25.716547</ele>
        <time>2022-07-26T12:34:49.658Z</time>
      </trkpt>
      <trkpt lat="42.523190" lon="3.100244">
        <ele>23.316526</ele>
        <time>2022-07-26T12:35:06.767Z</time>
      </trkpt>
      <trkpt lat="42.523162" lon="3.098833">
        <ele>20.745560</ele>
        <time>2022-07-26T12:35:24.763Z</time>
      </trkpt>
      <trkpt lat="42.523310" lon="3.097662">
        <ele>22.798461</ele>
        <time>2022-07-26T12:35:49.095Z</time>
      </trkpt>
      <trkpt lat="42.523410" lon="3.096738">
        <ele>24.634013</ele>
        <time>2022-07-26T12:36:17.052Z</time>
      </trkpt>
      <trkpt lat="42.523443" lon="3.096030">
        <ele>26.058317</ele>
        <time>2022-07-26T12:36:37.846Z</time>
      </trkpt>
      <trkpt lat="42.523418" lon="3.095484">
        <ele>27.185366</ele>
        <time>2022-07-26T12:36:53.698Z</time>
      </trkpt>
      <trkpt lat="42.523295" lon="3.095142">
        <ele>27.969381</ele>
        <time>2022-07-26T12:37:03.394Z</time>
      </trkpt>
      <trkpt lat="42.523148" lon="3.094970">
        <ele>28.511995</ele>
        <time>2022-07-26T12:37:10.831Z</time>
      </trkpt>
      <trkpt lat="42.522855" lon="3.094622">
        <ele>29.600520</ele>
        <time>2022-07-26T12:37:22.884Z</time>
      </trkpt>
      <trkpt lat="42.522846" lon="3.094361">
        <ele>30.138831</ele>
        <time>2022-07-26T12:37:27.914Z</time>
      </trkpt>
      <trkpt lat="42.522967" lon="3.094180">
        <ele>30.346370</ele>
        <time>2022-07-26T12:37:32.527Z</time>
      </trkpt>
      <trkpt lat="42.523521" lon="3.094103">
        <ele>29.687057</ele>
        <time>2022-07-26T12:37:43.179Z</time>
      </trkpt>
      <trkpt lat="42.523686" lon="3.094003">
        <ele>29.473113</ele>
        <time>2022-07-26T12:37:46.597Z</time>
      </trkpt>
      <trkpt lat="42.523795" lon="3.093821">
        <ele>29.268490</ele>
        <time>2022-07-26T12:37:49.488Z</time>
      </trkpt>
      <trkpt lat="42.523835" lon="3.093443">
        <ele>28.935292</ele>
        <time>2022-07-26T12:37:54.393Z</time>
      </trkpt>
      <trkpt lat="42.523629" lon="3.092967">
        <ele>28.453655</ele>
        <time>2022-07-26T12:38:01.710Z</time>
      </trkpt>
      <trkpt lat="42.523674" lon="3.092650">
        <ele>28.214300</ele>
        <time>2022-07-26T12:38:06.013Z</time>
      </trkpt>
      <trkpt lat="42.523758" lon="3.092553">
        <ele>28.125262</ele>
        <time>2022-07-26T12:38:07.953Z</time>
      </trkpt>
      <trkpt lat="42.524394" lon="3.092315">
        <ele>27.592705</ele>
        <time>2022-07-26T12:38:20.092Z</time>
      </trkpt>
      <trkpt lat="42.524578" lon="3.092178">
        <ele>27.423284</ele>
        <time>2022-07-26T12:38:24.233Z</time>
      </trkpt>
      <trkpt lat="42.525165" lon="3.091657">
        <ele>26.857079</ele>
        <time>2022-07-26T12:38:39.477Z</time>
      </trkpt>
      <trkpt lat="42.525321" lon="3.091374">
        <ele>26.852628</ele>
        <time>2022-07-26T12:38:45.733Z</time>
      </trkpt>
      <trkpt lat="42.525312" lon="3.091077">
        <ele>26.852224</ele>
        <time>2022-07-26T12:38:51.903Z</time>
      </trkpt>
      <trkpt lat="42.525200" lon="3.090716">
        <ele>26.851692</ele>
        <time>2022-07-26T12:39:00.052Z</time>
      </trkpt>
      <trkpt lat="42.525177" lon="3.090238">
        <ele>26.851042</ele>
        <time>2022-07-26T12:39:08.912Z</time>
      </trkpt>
      <trkpt lat="42.525116" lon="3.090065">
        <ele>26.850781</ele>
        <time>2022-07-26T12:39:12.525Z</time>
      </trkpt>
      <trkpt lat="42.524986" lon="3.089937">
        <ele>26.850485</ele>
        <time>2022-07-26T12:39:15.531Z</time>
      </trkpt>
      <trkpt lat="42.524548" lon="3.089893">
        <ele>26.626675</ele>
        <time>2022-07-26T12:39:23.368Z</time>
      </trkpt>
      <trkpt lat="42.524382" lon="3.089806">
        <ele>25.951369</ele>
        <time>2022-07-26T12:39:27.261Z</time>
      </trkpt>
      <trkpt lat="42.524242" lon="3.089544">
        <ele>25.046277</ele>
        <time>2022-07-26T12:39:31.218Z</time>
      </trkpt>
      <trkpt lat="42.524228" lon="3.089339">
        <ele>24.470480</ele>
        <time>2022-07-26T12:39:34.132Z</time>
      </trkpt>
      <trkpt lat="42.524417" lon="3.088579">
        <ele>22.227181</ele>
        <time>2022-07-26T12:39:43.594Z</time>
      </trkpt>
      <trkpt lat="42.524492" lon="3.088221">
        <ele>21.186270</ele>
        <time>2022-07-26T12:39:47.599Z</time>
      </trkpt>
      <trkpt lat="42.524440" lon="3.087945">
        <ele>20.389537</ele>
        <time>2022-07-26T12:39:50.846Z</time>
      </trkpt>
      <trkpt lat="42.524295" lon="3.087858">
        <ele>19.743294</ele>
        <time>2022-07-26T12:39:53.024Z</time>
      </trkpt>
      <trkpt lat="42.523922" lon="3.087855">
        <ele>18.060667</ele>
        <time>2022-07-26T12:39:58.277Z</time>
      </trkpt>
      <trkpt lat="42.523720" lon="3.087678">
        <ele>16.975957</ele>
        <time>2022-07-26T12:40:01.860Z</time>
      </trkpt>
      <trkpt lat="42.523666" lon="3.087533">
        <ele>16.435842</ele>
        <time>2022-07-26T12:40:03.558Z</time>
      </trkpt>
      <trkpt lat="42.523644" lon="3.087030">
        <ele>14.760631</ele>
        <time>2022-07-26T12:40:09.312Z</time>
      </trkpt>
      <trkpt lat="42.523649" lon="3.086987">
        <ele>14.615905</ele>
        <time>2022-07-26T12:40:09.889Z</time>
      </trkpt>
      <trkpt lat="42.523645" lon="3.086865">
        <ele>14.209904</ele>
        <time>2022-07-26T12:40:11.476Z</time>
      </trkpt>
      <trkpt lat="42.523633" lon="3.086279">
        <ele>12.260942</ele>
        <time>2022-07-26T12:40:18.952Z</time>
      </trkpt>
      <trkpt lat="42.523636" lon="3.086115">
        <ele>11.925124</ele>
        <time>2022-07-26T12:40:20.978Z</time>
      </trkpt>
      <trkpt lat="42.523644" lon="3.086027">
        <ele>11.947199</ele>
        <time>2022-07-26T12:40:22.101Z</time>
      </trkpt>
      <trkpt lat="42.523662" lon="3.085950">
        <ele>11.967312</ele>
        <time>2022-07-26T12:40:23.230Z</time>
      </trkpt>
      <trkpt lat="42.523995" lon="3.085259">
        <ele>12.172866</ele>
        <time>2022-07-26T12:40:34.783Z</time>
      </trkpt>
      <trkpt lat="42.524070" lon="3.085103">
        <ele>12.219239</ele>
        <time>2022-07-26T12:40:38.318Z</time>
      </trkpt>
      <trkpt lat="42.524098" lon="3.085042">
        <ele>12.237131</ele>
        <time>2022-07-26T12:40:39.690Z</time>
      </trkpt>
      <trkpt lat="42.524129" lon="3.084755">
        <ele>12.309349</ele>
        <time>2022-07-26T12:40:46.112Z</time>
      </trkpt>
      <trkpt lat="42.524155" lon="3.084323">
        <ele>12.417263</ele>
        <time>2022-07-26T12:40:56.234Z</time>
      </trkpt>
      <trkpt lat="42.524215" lon="3.083501">
        <ele>12.672892</ele>
        <time>2022-07-26T12:41:14.925Z</time>
      </trkpt>
      <trkpt lat="42.524259" lon="3.082909">
        <ele>12.891684</ele>
        <time>2022-07-26T12:41:26.864Z</time>
      </trkpt>
      <trkpt lat="42.524326" lon="3.082539">
        <ele>13.031785</ele>
        <time>2022-07-26T12:41:34.027Z</time>
      </trkpt>
      <trkpt lat="42.524456" lon="3.082341">
        <ele>13.129294</ele>
        <time>2022-07-26T12:41:38.608Z</time>
      </trkpt>
      <trkpt lat="42.524487" lon="3.082381">
        <ele>13.150639</ele>
        <time>2022-07-26T12:41:39.475Z</time>
      </trkpt>
      <trkpt lat="42.524597" lon="3.082333">
        <ele>13.208291</ele>
        <time>2022-07-26T12:41:41.901Z</time>
      </trkpt>
      <trkpt lat="42.524651" lon="3.082390">
        <ele>13.242426</ele>
        <time>2022-07-26T12:41:43.204Z</time>
      </trkpt>
      <trkpt lat="42.525151" lon="3.082595">
        <ele>13.259634</ele>
        <time>2022-07-26T12:41:53.127Z</time>
      </trkpt>
      <trkpt lat="42.525802" lon="3.083009">
        <ele>12.620241</ele>
        <time>2022-07-26T12:42:05.969Z</time>
      </trkpt>
      <trkpt lat="42.525959" lon="3.083023">
        <ele>12.480313</ele>
        <time>2022-07-26T12:42:08.806Z</time>
      </trkpt>
      <trkpt lat="42.526039" lon="3.083021">
        <ele>12.409154</ele>
        <time>2022-07-26T12:42:10.221Z</time>
      </trkpt>
      <trkpt lat="42.526076" lon="3.083019">
        <ele>12.376222</ele>
        <time>2022-07-26T12:42:10.911Z</time>
      </trkpt>
      <trkpt lat="42.526114" lon="3.083013">
        <ele>12.342200</ele>
        <time>2022-07-26T12:42:11.614Z</time>
      </trkpt>
      <trkpt lat="42.526163" lon="3.083010">
        <ele>12.298578</ele>
        <time>2022-07-26T12:42:12.672Z</time>
      </trkpt>
      <trkpt lat="42.526301" lon="3.083002">
        <ele>12.175737</ele>
        <time>2022-07-26T12:42:15.720Z</time>
      </trkpt>
      <trkpt lat="42.526311" lon="3.083002">
        <ele>12.166843</ele>
        <time>2022-07-26T12:42:15.924Z</time>
      </trkpt>
      <trkpt lat="42.526388" lon="3.082900">
        <ele>12.071143</ele>
        <time>2022-07-26T12:42:18.210Z</time>
      </trkpt>
      <trkpt lat="42.526457" lon="3.082805">
        <ele>11.983722</ele>
        <time>2022-07-26T12:42:20.353Z</time>
      </trkpt>
      <trkpt lat="42.526616" lon="3.082623">
        <ele>11.876151</ele>
        <time>2022-07-26T12:42:25.765Z</time>
      </trkpt>
      <trkpt lat="42.526991" lon="3.082498">
        <ele>13.075943</ele>
        <time>2022-07-26T12:42:35.831Z</time>
      </trkpt>
      <trkpt lat="42.527076" lon="3.082482">
        <ele>13.342572</ele>
        <time>2022-07-26T12:42:37.933Z</time>
      </trkpt>
      <trkpt lat="42.527452" lon="3.082421">
        <ele>14.519150</ele>
        <time>2022-07-26T12:42:49.233Z</time>
      </trkpt>
      <trkpt lat="42.527557" lon="3.082481">
        <ele>14.873140</ele>
        <time>2022-07-26T12:42:53.635Z</time>
      </trkpt>
      <trkpt lat="42.527698" lon="3.082391">
        <ele>15.357285</ele>
        <time>2022-07-26T12:42:58.999Z</time>
      </trkpt>
      <trkpt lat="42.527753" lon="3.082291">
        <ele>15.643000</ele>
        <time>2022-07-26T12:43:02.314Z</time>
      </trkpt>
      <trkpt lat="42.527734" lon="3.082055">
        <ele>16.186597</ele>
        <time>2022-07-26T12:43:09.746Z</time>
      </trkpt>
      <trkpt lat="42.527521" lon="3.081228">
        <ele>19.327196</ele>
        <time>2022-07-26T12:43:39.175Z</time>
      </trkpt>
      <trkpt lat="42.527525" lon="3.081057">
        <ele>20.282966</ele>
        <time>2022-07-26T12:43:45.179Z</time>
      </trkpt>
      <trkpt lat="42.527590" lon="3.080859">
        <ele>21.493871</ele>
        <time>2022-07-26T12:43:53.423Z</time>
      </trkpt>
      <trkpt lat="42.528742" lon="3.079902">
        <ele>31.631553</ele>
        <time>2022-07-26T12:45:08.886Z</time>
      </trkpt>
      <trkpt lat="42.529383" lon="3.079162">
        <ele>37.077328</ele>
        <time>2022-07-26T12:45:54.004Z</time>
      </trkpt>
      <trkpt lat="42.529447" lon="3.079072">
        <ele>37.673730</ele>
        <time>2022-07-26T12:45:58.377Z</time>
      </trkpt>
      <trkpt lat="42.529901" lon="3.078361">
        <ele>42.159875</ele>
        <time>2022-07-26T12:46:26.078Z</time>
      </trkpt>
      <trkpt lat="42.530035" lon="3.077752">
        <ele>44.045154</ele>
        <time>2022-07-26T12:46:46.171Z</time>
      </trkpt>
      <trkpt lat="42.529934" lon="3.077313">
        <ele>45.238491</ele>
        <time>2022-07-26T12:47:00.803Z</time>
      </trkpt>
      <trkpt lat="42.529743" lon="3.077056">
        <ele>46.185595</ele>
        <time>2022-07-26T12:47:11.312Z</time>
      </trkpt>
      <trkpt lat="42.529613" lon="3.076881">
        <ele>46.830365</ele>
        <time>2022-07-26T12:47:18.500Z</time>
      </trkpt>
      <trkpt lat="42.529615" lon="3.076779">
        <ele>47.095129</ele>
        <time>2022-07-26T12:47:21.442Z</time>
      </trkpt>
      <trkpt lat="42.529711" lon="3.075509">
        <ele>48.419782</ele>
        <time>2022-07-26T12:47:46.862Z</time>
      </trkpt>
      <trkpt lat="42.529720" lon="3.075257">
        <ele>48.142648</ele>
        <time>2022-07-26T12:47:50.468Z</time>
      </trkpt>
      <trkpt lat="42.529740" lon="3.075024">
        <ele>47.884979</ele>
        <time>2022-07-26T12:47:54.797Z</time>
      </trkpt>
      <trkpt lat="42.529870" lon="3.074992">
        <ele>47.688042</ele>
        <time>2022-07-26T12:47:57.978Z</time>
      </trkpt>
      <trkpt lat="42.529954" lon="3.074660">
        <ele>47.302463</ele>
        <time>2022-07-26T12:48:04.467Z</time>
      </trkpt>
      <trkpt lat="42.529954" lon="3.074257">
        <ele>46.859791</ele>
        <time>2022-07-26T12:48:09.784Z</time>
      </trkpt>
      <trkpt lat="42.530057" lon="3.073960">
        <ele>46.499233</ele>
        <time>2022-07-26T12:48:13.711Z</time>
      </trkpt>
      <trkpt lat="42.530752" lon="3.073157">
        <ele>40.448591</ele>
        <time>2022-07-26T12:48:27.195Z</time>
      </trkpt>
      <trkpt lat="42.530892" lon="3.072838">
        <ele>38.435292</ele>
        <time>2022-07-26T12:48:31.088Z</time>
      </trkpt>
      <trkpt lat="42.530905" lon="3.072098">
        <ele>34.421517</ele>
        <time>2022-07-26T12:48:39.198Z</time>
      </trkpt>
      <trkpt lat="42.530813" lon="3.071633">
        <ele>32.178166</ele>
        <time>2022-07-26T12:48:44.568Z</time>
      </trkpt>
      <trkpt lat="42.530962" lon="3.071286">
        <ele>30.623472</ele>
        <time>2022-07-26T12:48:49.042Z</time>
      </trkpt>
      <trkpt lat="42.531033" lon="3.070805">
        <ele>28.724469</ele>
        <time>2022-07-26T12:48:54.607Z</time>
      </trkpt>
      <trkpt lat="42.530931" lon="3.070492">
        <ele>27.399614</ele>
        <time>2022-07-26T12:48:58.584Z</time>
      </trkpt>
      <trkpt lat="42.530647" lon="3.070174">
        <ele>25.465395</ele>
        <time>2022-07-26T12:49:04.579Z</time>
      </trkpt>
      <trkpt lat="42.530632" lon="3.069901">
        <ele>24.405636</ele>
        <time>2022-07-26T12:49:07.914Z</time>
      </trkpt>
      <trkpt lat="42.530746" lon="3.069775">
        <ele>23.638267</ele>
        <time>2022-07-26T12:49:10.352Z</time>
      </trkpt>
      <trkpt lat="42.531039" lon="3.069699">
        <ele>22.669879</ele>
        <time>2022-07-26T12:49:15.430Z</time>
      </trkpt>
      <trkpt lat="42.531593" lon="3.069886">
        <ele>20.816623</ele>
        <time>2022-07-26T12:49:25.465Z</time>
      </trkpt>
      <trkpt lat="42.531816" lon="3.069841">
        <ele>20.084736</ele>
        <time>2022-07-26T12:49:29.371Z</time>
      </trkpt>
      <trkpt lat="42.532501" lon="3.068585">
        <ele>16.447139</ele>
        <time>2022-07-26T12:49:48.883Z</time>
      </trkpt>
      <trkpt lat="42.532948" lon="3.067923">
        <ele>14.446849</ele>
        <time>2022-07-26T12:49:59.906Z</time>
      </trkpt>
      <trkpt lat="42.533041" lon="3.067650">
        <ele>13.776829</ele>
        <time>2022-07-26T12:50:03.782Z</time>
      </trkpt>
      <trkpt lat="42.533235" lon="3.067534">
        <ele>13.135922</ele>
        <time>2022-07-26T12:50:07.398Z</time>
      </trkpt>
      <trkpt lat="42.533458" lon="3.067811">
        <ele>12.374401</ele>
        <time>2022-07-26T12:50:12.611Z</time>
      </trkpt>
      <trkpt lat="42.533618" lon="3.067567">
        <ele>12.397218</ele>
        <time>2022-07-26T12:50:20.494Z</time>
      </trkpt>
      <trkpt lat="42.533741" lon="3.067293">
        <ele>12.419632</ele>
        <time>2022-07-26T12:50:28.372Z</time>
      </trkpt>
      <trkpt lat="42.533791" lon="3.067327">
        <ele>12.424934</ele>
        <time>2022-07-26T12:50:29.966Z</time>
      </trkpt>
      <trkpt lat="42.533873" lon="3.067111">
        <ele>12.441908</ele>
        <time>2022-07-26T12:50:35.399Z</time>
      </trkpt>
      <trkpt lat="42.533952" lon="3.066904">
        <ele>12.458194</ele>
        <time>2022-07-26T12:50:40.531Z</time>
      </trkpt>
      <trkpt lat="42.533903" lon="3.066871">
        <ele>12.463380</ele>
        <time>2022-07-26T12:50:42.207Z</time>
      </trkpt>
      <trkpt lat="42.534219" lon="3.065995">
        <ele>12.531516</ele>
        <time>2022-07-26T12:51:11.756Z</time>
      </trkpt>
      <trkpt lat="42.534349" lon="3.065567">
        <ele>13.073316</ele>
        <time>2022-07-26T12:51:24.319Z</time>
      </trkpt>
      <trkpt lat="42.534360" lon="3.065523">
        <ele>13.146720</ele>
        <time>2022-07-26T12:51:25.765Z</time>
      </trkpt>
      <trkpt lat="42.534337" lon="3.065473">
        <ele>13.239838</ele>
        <time>2022-07-26T12:51:28.511Z</time>
      </trkpt>
      <trkpt lat="42.534616" lon="3.064228">
        <ele>15.295649</ele>
        <time>2022-07-26T12:52:13.251Z</time>
      </trkpt>
      <trkpt lat="42.534870" lon="3.063335">
        <ele>16.624542</ele>
        <time>2022-07-26T12:52:46.261Z</time>
      </trkpt>
      <trkpt lat="42.534845" lon="3.062930">
        <ele>16.980481</ele>
        <time>2022-07-26T12:52:58.593Z</time>
      </trkpt>
      <trkpt lat="42.534852" lon="3.061591">
        <ele>18.153200</ele>
        <time>2022-07-26T12:53:38.500Z</time>
      </trkpt>
      <trkpt lat="42.534869" lon="3.061363">
        <ele>18.353901</ele>
        <time>2022-07-26T12:53:45.274Z</time>
      </trkpt>
      <trkpt lat="42.534981" lon="3.060973">
        <ele>18.596011</ele>
        <time>2022-07-26T12:53:58.581Z</time>
      </trkpt>
      <trkpt lat="42.534907" lon="3.060284">
        <ele>18.798260</ele>
        <time>2022-07-26T12:54:18.936Z</time>
      </trkpt>
      <trkpt lat="42.534989" lon="3.060067">
        <ele>18.869097</ele>
        <time>2022-07-26T12:54:26.385Z</time>
      </trkpt>
      <trkpt lat="42.535142" lon="3.059709">
        <ele>18.989310</ele>
        <time>2022-07-26T12:54:38.827Z</time>
      </trkpt>
      <trkpt lat="42.535353" lon="3.059592">
        <ele>19.079161</ele>
        <time>2022-07-26T12:54:57.113Z</time>
      </trkpt>
      <trkpt lat="42.535438" lon="3.059499">
        <ele>19.122201</ele>
        <time>2022-07-26T12:55:04.670Z</time>
      </trkpt>
      <trkpt lat="42.535498" lon="3.059181">
        <ele>19.217551</ele>
        <time>2022-07-26T12:55:21.479Z</time>
      </trkpt>
      <trkpt lat="42.535563" lon="3.058519">
        <ele>17.972412</ele>
        <time>2022-07-26T12:55:55.678Z</time>
      </trkpt>
      <trkpt lat="42.535599" lon="3.058153">
        <ele>17.162417</ele>
        <time>2022-07-26T12:56:14.598Z</time>
      </trkpt>
      <trkpt lat="42.535570" lon="3.057477">
        <ele>15.677003</ele>
        <time>2022-07-26T12:56:49.282Z</time>
      </trkpt>
      <trkpt lat="42.535688" lon="3.057373">
        <ele>15.258135</ele>
        <time>2022-07-26T12:56:51.519Z</time>
      </trkpt>
      <trkpt lat="42.535724" lon="3.057418">
        <ele>15.112428</ele>
        <time>2022-07-26T12:56:52.352Z</time>
      </trkpt>
      <trkpt lat="42.535789" lon="3.057383">
        <ele>14.904246</ele>
        <time>2022-07-26T12:56:53.458Z</time>
      </trkpt>
      <trkpt lat="42.535777" lon="3.057310">
        <ele>14.740175</ele>
        <time>2022-07-26T12:56:54.368Z</time>
      </trkpt>
      <trkpt lat="42.535702" lon="3.057211">
        <ele>14.428702</ele>
        <time>2022-07-26T12:56:56.104Z</time>
      </trkpt>
      <trkpt lat="42.535761" lon="3.056922">
        <ele>13.723444</ele>
        <time>2022-07-26T12:56:59.610Z</time>
      </trkpt>
      <trkpt lat="42.535838" lon="3.056807">
        <ele>13.245389</ele>
        <time>2022-07-26T12:57:01.476Z</time>
      </trkpt>
      <trkpt lat="42.536012" lon="3.056544">
        <ele>12.157964</ele>
        <time>2022-07-26T12:57:05.581Z</time>
      </trkpt>
      <trkpt lat="42.536042" lon="3.056501">
        <ele>11.975781</ele>
        <time>2022-07-26T12:57:06.299Z</time>
      </trkpt>
      <trkpt lat="42.536107" lon="3.056407">
        <ele>11.579186</ele>
        <time>2022-07-26T12:57:07.798Z</time>
      </trkpt>
      <trkpt lat="42.536121" lon="3.056386">
        <ele>11.492060</ele>
        <time>2022-07-26T12:57:08.114Z</time>
      </trkpt>
      <trkpt lat="42.536412" lon="3.055975">
        <ele>9.738469</ele>
        <time>2022-07-26T12:57:14.718Z</time>
      </trkpt>
      <trkpt lat="42.536639" lon="3.055637">
        <ele>8.331481</ele>
        <time>2022-07-26T12:57:20.211Z</time>
      </trkpt>
      <trkpt lat="42.536672" lon="3.055588">
        <ele>8.127252</ele>
        <time>2022-07-26T12:57:21.030Z</time>
      </trkpt>
      <trkpt lat="42.536759" lon="3.055461">
        <ele>7.593764</ele>
        <time>2022-07-26T12:57:23.143Z</time>
      </trkpt>
      <trkpt lat="42.536883" lon="3.055280">
        <ele>6.833417</ele>
        <time>2022-07-26T12:57:26.166Z</time>
      </trkpt>
      <trkpt lat="42.537219" lon="3.054794">
        <ele>5.850822</ele>
        <time>2022-07-26T12:57:35.252Z</time>
      </trkpt>
      <trkpt lat="42.537304" lon="3.054675">
        <ele>5.682098</ele>
        <time>2022-07-26T12:57:37.692Z</time>
      </trkpt>
      <trkpt lat="42.537930" lon="3.053803">
        <ele>4.442713</ele>
        <time>2022-07-26T12:57:55.499Z</time>
      </trkpt>
      <trkpt lat="42.538263" lon="3.053313">
        <ele>3.951547</ele>
        <time>2022-07-26T12:58:05.722Z</time>
      </trkpt>
      <trkpt lat="42.538411" lon="3.053120">
        <ele>4.077755</ele>
        <time>2022-07-26T12:58:10.237Z</time>
      </trkpt>
      <trkpt lat="42.538566" lon="3.052904">
        <ele>4.214362</ele>
        <time>2022-07-26T12:58:15.467Z</time>
      </trkpt>
      <trkpt lat="42.538712" lon="3.052697">
        <ele>4.344191</ele>
        <time>2022-07-26T12:58:20.737Z</time>
      </trkpt>
      <trkpt lat="42.539008" lon="3.052266">
        <ele>4.611137</ele>
        <time>2022-07-26T12:58:32.322Z</time>
      </trkpt>
      <trkpt lat="42.539080" lon="3.052270">
        <ele>4.655447</ele>
        <time>2022-07-26T12:58:34.258Z</time>
      </trkpt>
      <trkpt lat="42.539148" lon="3.052169">
        <ele>4.717434</ele>
        <time>2022-07-26T12:58:37.106Z</time>
      </trkpt>
      <trkpt lat="42.539104" lon="3.052019">
        <ele>4.790582</ele>
        <time>2022-07-26T12:58:40.606Z</time>
      </trkpt>
      <trkpt lat="42.539071" lon="3.052000">
        <ele>4.812624</ele>
        <time>2022-07-26T12:58:41.681Z</time>
      </trkpt>
      <trkpt lat="42.538908" lon="3.051801">
        <ele>4.947439</ele>
        <time>2022-07-26T12:58:48.155Z</time>
      </trkpt>
      <trkpt lat="42.538845" lon="3.051757">
        <ele>4.991006</ele>
        <time>2022-07-26T12:58:50.352Z</time>
      </trkpt>
      <trkpt lat="42.537752" lon="3.050359">
        <ele>6.535762</ele>
        <time>2022-07-26T12:59:33.134Z</time>
      </trkpt>
      <trkpt lat="42.537559" lon="3.049975">
        <ele>6.833190</ele>
        <time>2022-07-26T12:59:41.640Z</time>
      </trkpt>
      <trkpt lat="42.537594" lon="3.049811">
        <ele>6.738186</ele>
        <time>2022-07-26T12:59:44.384Z</time>
      </trkpt>
      <trkpt lat="42.537534" lon="3.049740">
        <ele>6.678073</ele>
        <time>2022-07-26T12:59:46.122Z</time>
      </trkpt>
      <trkpt lat="42.538152" lon="3.047616">
        <ele>5.390059</ele>
        <time>2022-07-26T13:00:18.408Z</time>
      </trkpt>
      <trkpt lat="42.538313" lon="3.047026">
        <ele>4.973344</ele>
        <time>2022-07-26T13:00:27.074Z</time>
      </trkpt>
      <trkpt lat="42.538377" lon="3.046961">
        <ele>4.901489</ele>
        <time>2022-07-26T13:00:28.593Z</time>
      </trkpt>
      <trkpt lat="42.539234" lon="3.047463">
        <ele>4.062442</ele>
        <time>2022-07-26T13:00:46.982Z</time>
      </trkpt>
      <trkpt lat="42.539328" lon="3.047423">
        <ele>3.973890</ele>
        <time>2022-07-26T13:00:48.891Z</time>
      </trkpt>
      <trkpt lat="42.539915" lon="3.047062">
        <ele>3.719404</ele>
        <time>2022-07-26T13:01:02.467Z</time>
      </trkpt>
      <trkpt lat="42.540188" lon="3.046893">
        <ele>3.629471</ele>
        <time>2022-07-26T13:01:08.876Z</time>
      </trkpt>
      <trkpt lat="42.541092" lon="3.046336">
        <ele>3.354884</ele>
        <time>2022-07-26T13:01:29.686Z</time>
      </trkpt>
      <trkpt lat="42.541202" lon="3.046460">
        <ele>3.402508</ele>
        <time>2022-07-26T13:01:32.722Z</time>
      </trkpt>
      <trkpt lat="42.541334" lon="3.046342">
        <ele>3.455150</ele>
        <time>2022-07-26T13:01:36.614Z</time>
      </trkpt>
      <trkpt lat="42.541710" lon="3.046537">
        <ele>3.589207</ele>
        <time>2022-07-26T13:01:46.294Z</time>
      </trkpt>
      <trkpt lat="42.542418" lon="3.046918">
        <ele>3.842865</ele>
        <time>2022-07-26T13:02:05.170Z</time>
      </trkpt>
      <trkpt lat="42.542471" lon="3.046955">
        <ele>3.862715</ele>
        <time>2022-07-26T13:02:06.494Z</time>
      </trkpt>
      <trkpt lat="42.542889" lon="3.048156">
        <ele>3.968781</ele>
        <time>2022-07-26T13:02:29.440Z</time>
      </trkpt>
      <trkpt lat="42.543152" lon="3.048958">
        <ele>3.992301</ele>
        <time>2022-07-26T13:02:43.960Z</time>
      </trkpt>
      <trkpt lat="42.543318" lon="3.049237">
        <ele>4.001909</ele>
        <time>2022-07-26T13:02:49.567Z</time>
      </trkpt>
      <trkpt lat="42.543289" lon="3.049350">
        <ele>4.005115</ele>
        <time>2022-07-26T13:02:51.551Z</time>
      </trkpt>
      <trkpt lat="42.543352" lon="3.049503">
        <ele>3.984393</ele>
        <time>2022-07-26T13:02:54.221Z</time>
      </trkpt>
      <trkpt lat="42.543452" lon="3.049524">
        <ele>3.951702</ele>
        <time>2022-07-26T13:02:56.179Z</time>
      </trkpt>
      <trkpt lat="42.543533" lon="3.049442">
        <ele>3.919056</ele>
        <time>2022-07-26T13:02:58.244Z</time>
      </trkpt>
      <trkpt lat="42.543666" lon="3.049550">
        <ele>3.868985</ele>
        <time>2022-07-26T13:03:01.311Z</time>
      </trkpt>
      <trkpt lat="42.543699" lon="3.049558">
        <ele>3.858155</ele>
        <time>2022-07-26T13:03:01.934Z</time>
      </trkpt>
      <trkpt lat="42.543971" lon="3.049589">
        <ele>3.769971</ele>
        <time>2022-07-26T13:03:07.287Z</time>
      </trkpt>
      <trkpt lat="42.544256" lon="3.049577">
        <ele>3.677853</ele>
        <time>2022-07-26T13:03:13.148Z</time>
      </trkpt>
      <trkpt lat="42.544757" lon="3.049362">
        <ele>3.508098</ele>
        <time>2022-07-26T13:03:24.298Z</time>
      </trkpt>
      <trkpt lat="42.545025" lon="3.049077">
        <ele>3.451825</ele>
        <time>2022-07-26T13:03:32.111Z</time>
      </trkpt>
      <trkpt lat="42.545101" lon="3.049037">
        <ele>3.475925</ele>
        <time>2022-07-26T13:03:34.094Z</time>
      </trkpt>
      <trkpt lat="42.545379" lon="3.048765">
        <ele>3.577246</ele>
        <time>2022-07-26T13:03:42.350Z</time>
      </trkpt>
      <trkpt lat="42.545448" lon="3.048808">
        <ele>3.599693</ele>
        <time>2022-07-26T13:03:44.491Z</time>
      </trkpt>
      <trkpt lat="42.545757" lon="3.048710">
        <ele>3.693512</ele>
        <time>2022-07-26T13:03:51.977Z</time>
      </trkpt>
      <trkpt lat="42.546111" lon="3.048727">
        <ele>3.798240</ele>
        <time>2022-07-26T13:04:00.563Z</time>
      </trkpt>
      <trkpt lat="42.546266" lon="3.048753">
        <ele>3.844415</ele>
        <time>2022-07-26T13:04:04.534Z</time>
      </trkpt>
      <trkpt lat="42.546615" lon="3.048532">
        <ele>3.957618</ele>
        <time>2022-07-26T13:04:14.179Z</time>
      </trkpt>
      <trkpt lat="42.546730" lon="3.048866">
        <ele>3.882238</ele>
        <time>2022-07-26T13:04:21.004Z</time>
      </trkpt>
      <trkpt lat="42.546880" lon="3.049279">
        <ele>3.788092</ele>
        <time>2022-07-26T13:04:33.308Z</time>
      </trkpt>
      <trkpt lat="42.547376" lon="3.048966">
        <ele>3.636290</ele>
        <time>2022-07-26T13:04:44.918Z</time>
      </trkpt>
      <trkpt lat="42.547878" lon="3.048677">
        <ele>3.484959</ele>
        <time>2022-07-26T13:04:56.362Z</time>
      </trkpt>
      <trkpt lat="42.548384" lon="3.048561">
        <ele>3.416209</ele>
        <time>2022-07-26T13:05:07.685Z</time>
      </trkpt>
      <trkpt lat="42.548910" lon="3.048456">
        <ele>3.362183</ele>
        <time>2022-07-26T13:05:20.332Z</time>
      </trkpt>
      <trkpt lat="42.549439" lon="3.048333">
        <ele>3.307643</ele>
        <time>2022-07-26T13:05:32.276Z</time>
      </trkpt>
      <trkpt lat="42.549980" lon="3.048224">
        <ele>3.347866</ele>
        <time>2022-07-26T13:05:44.590Z</time>
      </trkpt>
      <trkpt lat="42.550518" lon="3.048105">
        <ele>3.514284</ele>
        <time>2022-07-26T13:05:59.391Z</time>
      </trkpt>
      <trkpt lat="42.550551" lon="3.048094">
        <ele>3.524658</ele>
        <time>2022-07-26T13:06:00.135Z</time>
      </trkpt>
      <trkpt lat="42.550583" lon="3.048412">
        <ele>3.596843</ele>
        <time>2022-07-26T13:06:06.370Z</time>
      </trkpt>
      <trkpt lat="42.550978" lon="3.048328">
        <ele>3.718908</ele>
        <time>2022-07-26T13:06:16.351Z</time>
      </trkpt>
      <trkpt lat="42.551143" lon="3.048293">
        <ele>3.769893</ele>
        <time>2022-07-26T13:06:20.421Z</time>
      </trkpt>
      <trkpt lat="42.551276" lon="3.048265">
        <ele>3.810984</ele>
        <time>2022-07-26T13:06:23.299Z</time>
      </trkpt>
      <trkpt lat="42.551334" lon="3.048252">
        <ele>3.822661</ele>
        <time>2022-07-26T13:06:24.562Z</time>
      </trkpt>
      <trkpt lat="42.551306" lon="3.047978">
        <ele>3.782642</ele>
        <time>2022-07-26T13:06:29.087Z</time>
      </trkpt>
      <trkpt lat="42.551769" lon="3.047881">
        <ele>3.690641</ele>
        <time>2022-07-26T13:06:38.641Z</time>
      </trkpt>
      <trkpt lat="42.552310" lon="3.047769">
        <ele>3.583170</ele>
        <time>2022-07-26T13:06:52.087Z</time>
      </trkpt>
      <trkpt lat="42.552844" lon="3.047658">
        <ele>3.477080</ele>
        <time>2022-07-26T13:07:04.569Z</time>
      </trkpt>
      <trkpt lat="42.553441" lon="3.047522">
        <ele>3.439105</ele>
        <time>2022-07-26T13:07:16.963Z</time>
      </trkpt>
      <trkpt lat="42.553401" lon="3.047096">
        <ele>3.421188</ele>
        <time>2022-07-26T13:07:28.259Z</time>
      </trkpt>
      <trkpt lat="42.553446" lon="3.047007">
        <ele>3.416684</ele>
        <time>2022-07-26T13:07:31.100Z</time>
      </trkpt>
      <trkpt lat="42.553556" lon="3.046988">
        <ele>3.410404</ele>
        <time>2022-07-26T13:07:33.719Z</time>
      </trkpt>
      <trkpt lat="42.553997" lon="3.046911">
        <ele>3.385221</ele>
        <time>2022-07-26T13:07:44.832Z</time>
      </trkpt>
      <trkpt lat="42.554436" lon="3.046829">
        <ele>3.445842</ele>
        <time>2022-07-26T13:07:56.457Z</time>
      </trkpt>
      <trkpt lat="42.555186" lon="3.046671">
        <ele>3.774988</ele>
        <time>2022-07-26T13:08:15.222Z</time>
      </trkpt>
      <trkpt lat="42.557137" lon="3.046241">
        <ele>4.633116</ele>
        <time>2022-07-26T13:09:04.210Z</time>
      </trkpt>
      <trkpt lat="42.557247" lon="3.046217">
        <ele>4.681528</ele>
        <time>2022-07-26T13:09:07.033Z</time>
      </trkpt>
      <trkpt lat="42.557304" lon="3.046174">
        <ele>4.709864</ele>
        <time>2022-07-26T13:09:08.647Z</time>
      </trkpt>
      <trkpt lat="42.557389" lon="3.046210">
        <ele>4.748555</ele>
        <time>2022-07-26T13:09:10.854Z</time>
      </trkpt>
      <trkpt lat="42.557476" lon="3.046068">
        <ele>4.807673</ele>
        <time>2022-07-26T13:09:14.205Z</time>
      </trkpt>
      <trkpt lat="42.558243" lon="3.045934">
        <ele>4.926316</ele>
        <time>2022-07-26T13:09:33.796Z</time>
      </trkpt>
      <trkpt lat="42.558409" lon="3.045905">
        <ele>4.924499</ele>
        <time>2022-07-26T13:09:37.767Z</time>
      </trkpt>
      <trkpt lat="42.559349" lon="3.045736">
        <ele>4.914206</ele>
        <time>2022-07-26T13:09:59.340Z</time>
      </trkpt>
      <trkpt lat="42.559359" lon="3.045776">
        <ele>4.913868</ele>
        <time>2022-07-26T13:09:59.994Z</time>
      </trkpt>
      <trkpt lat="42.559465" lon="3.045851">
        <ele>4.912571</ele>
        <time>2022-07-26T13:10:02.511Z</time>
      </trkpt>
      <trkpt lat="42.559526" lon="3.045814">
        <ele>4.898173</ele>
        <time>2022-07-26T13:10:03.992Z</time>
      </trkpt>
      <trkpt lat="42.559559" lon="3.045688">
        <ele>4.837212</ele>
        <time>2022-07-26T13:10:06.134Z</time>
      </trkpt>
      <trkpt lat="42.560471" lon="3.045539">
        <ele>4.268712</ele>
        <time>2022-07-26T13:10:24.870Z</time>
      </trkpt>
      <trkpt lat="42.560526" lon="3.045650">
        <ele>4.207729</ele>
        <time>2022-07-26T13:10:26.976Z</time>
      </trkpt>
      <trkpt lat="42.560590" lon="3.045675">
        <ele>4.166513</ele>
        <time>2022-07-26T13:10:28.378Z</time>
      </trkpt>
      <trkpt lat="42.560685" lon="3.045613">
        <ele>4.101278</ele>
        <time>2022-07-26T13:10:30.458Z</time>
      </trkpt>
      <trkpt lat="42.560709" lon="3.045474">
        <ele>4.036197</ele>
        <time>2022-07-26T13:10:32.671Z</time>
      </trkpt>
      <trkpt lat="42.561667" lon="3.045305">
        <ele>4.059281</ele>
        <time>2022-07-26T13:10:53.880Z</time>
      </trkpt>
      <trkpt lat="42.562434" lon="3.045182">
        <ele>4.404379</ele>
        <time>2022-07-26T13:11:13.932Z</time>
      </trkpt>
      <trkpt lat="42.564250" lon="3.044858">
        <ele>5.783481</ele>
        <time>2022-07-26T13:12:04.374Z</time>
      </trkpt>
      <trkpt lat="42.564229" lon="3.044665">
        <ele>5.905731</ele>
        <time>2022-07-26T13:12:08.047Z</time>
      </trkpt>
      <trkpt lat="42.564159" lon="3.043903">
        <ele>5.947801</ele>
        <time>2022-07-26T13:12:21.031Z</time>
      </trkpt>
      <trkpt lat="42.564334" lon="3.043732">
        <ele>5.814166</ele>
        <time>2022-07-26T13:12:26.125Z</time>
      </trkpt>
      <trkpt lat="42.564326" lon="3.043652">
        <ele>5.777311</ele>
        <time>2022-07-26T13:12:27.401Z</time>
      </trkpt>
      <trkpt lat="42.564560" lon="3.043102">
        <ele>5.487358</ele>
        <time>2022-07-26T13:12:44.100Z</time>
      </trkpt>
      <trkpt lat="42.564561" lon="3.043101">
        <ele>5.486589</ele>
        <time>2022-07-26T13:12:44.130Z</time>
      </trkpt>
      <trkpt lat="42.564703" lon="3.042914">
        <ele>5.363979</ele>
        <time>2022-07-26T13:12:50.884Z</time>
      </trkpt>
      <trkpt lat="42.564862" lon="3.042898">
        <ele>5.265160</ele>
        <time>2022-07-26T13:12:55.946Z</time>
      </trkpt>
      <trkpt lat="42.565094" lon="3.042539">
        <ele>5.047138</ele>
        <time>2022-07-26T13:13:07.442Z</time>
      </trkpt>
      <trkpt lat="42.565295" lon="3.042367">
        <ele>4.727107</ele>
        <time>2022-07-26T13:13:15.367Z</time>
      </trkpt>
      <trkpt lat="42.565615" lon="3.041773">
        <ele>3.900056</ele>
        <time>2022-07-26T13:13:32.763Z</time>
      </trkpt>
      <trkpt lat="42.565760" lon="3.041504">
        <ele>3.525441</ele>
        <time>2022-07-26T13:13:40.609Z</time>
      </trkpt>
      <trkpt lat="42.565804" lon="3.041438">
        <ele>3.425398</ele>
        <time>2022-07-26T13:13:42.602Z</time>
      </trkpt>
      <trkpt lat="42.566673" lon="3.041444">
        <ele>2.215041</ele>
        <time>2022-07-26T13:14:11.028Z</time>
      </trkpt>
      <trkpt lat="42.566765" lon="3.041376">
        <ele>2.161303</ele>
        <time>2022-07-26T13:14:14.278Z</time>
      </trkpt>
      <trkpt lat="42.566826" lon="3.041278">
        <ele>2.112822</ele>
        <time>2022-07-26T13:14:17.322Z</time>
      </trkpt>
      <trkpt lat="42.567051" lon="3.041278">
        <ele>1.997392</ele>
        <time>2022-07-26T13:14:21.835Z</time>
      </trkpt>
      <trkpt lat="42.567660" lon="3.041278">
        <ele>1.684960</ele>
        <time>2022-07-26T13:14:34.385Z</time>
      </trkpt>
      <trkpt lat="42.568088" lon="3.041268">
        <ele>1.465353</ele>
        <time>2022-07-26T13:14:43.701Z</time>
      </trkpt>
      <trkpt lat="42.568310" lon="3.041249">
        <ele>1.351236</ele>
        <time>2022-07-26T13:14:48.474Z</time>
      </trkpt>
      <trkpt lat="42.569215" lon="3.041170">
        <ele>1.881394</ele>
        <time>2022-07-26T13:15:11.587Z</time>
      </trkpt>
      <trkpt lat="42.570049" lon="3.040942">
        <ele>2.379490</ele>
        <time>2022-07-26T13:15:32.907Z</time>
      </trkpt>
      <trkpt lat="42.570180" lon="3.040884">
        <ele>2.408163</ele>
        <time>2022-07-26T13:15:36.172Z</time>
      </trkpt>
      <trkpt lat="42.570909" lon="3.040543">
        <ele>2.442021</ele>
        <time>2022-07-26T13:15:54.198Z</time>
      </trkpt>
      <trkpt lat="42.570911" lon="3.040542">
        <ele>2.442114</ele>
        <time>2022-07-26T13:15:54.384Z</time>
      </trkpt>
      <trkpt lat="42.571665" lon="3.040062">
        <ele>2.478682</ele>
        <time>2022-07-26T13:16:12.296Z</time>
      </trkpt>
      <trkpt lat="42.571646" lon="3.040015">
        <ele>2.480416</ele>
        <time>2022-07-26T13:16:13.348Z</time>
      </trkpt>
      <trkpt lat="42.572447" lon="3.039313">
        <ele>2.014819</ele>
        <time>2022-07-26T13:16:32.657Z</time>
      </trkpt>
      <trkpt lat="42.572854" lon="3.038880">
        <ele>1.744733</ele>
        <time>2022-07-26T13:16:43.041Z</time>
      </trkpt>
      <trkpt lat="42.572878" lon="3.038930">
        <ele>1.721774</ele>
        <time>2022-07-26T13:16:44.032Z</time>
      </trkpt>
      <trkpt lat="42.573286" lon="3.038428">
        <ele>1.525421</ele>
        <time>2022-07-26T13:16:55.347Z</time>
      </trkpt>
      <trkpt lat="42.573754" lon="3.037732">
        <ele>1.465835</ele>
        <time>2022-07-26T13:17:10.027Z</time>
      </trkpt>
      <trkpt lat="42.574893" lon="3.035674">
        <ele>1.505027</ele>
        <time>2022-07-26T13:17:53.866Z</time>
      </trkpt>
      <trkpt lat="42.575072" lon="3.035474">
        <ele>1.531926</ele>
        <time>2022-07-26T13:17:59.178Z</time>
      </trkpt>
      <trkpt lat="42.575512" lon="3.034978">
        <ele>1.597734</ele>
        <time>2022-07-26T13:18:11.785Z</time>
      </trkpt>
      <trkpt lat="42.575739" lon="3.034816">
        <ele>1.600685</ele>
        <time>2022-07-26T13:18:17.421Z</time>
      </trkpt>
      <trkpt lat="42.575914" lon="3.034792">
        <ele>1.602709</ele>
        <time>2022-07-26T13:18:21.230Z</time>
      </trkpt>
      <trkpt lat="42.575992" lon="3.034696">
        <ele>1.603920</ele>
        <time>2022-07-26T13:18:23.588Z</time>
      </trkpt>
      <trkpt lat="42.576032" lon="3.034508">
        <ele>1.605578</ele>
        <time>2022-07-26T13:18:26.760Z</time>
      </trkpt>
      <trkpt lat="42.576649" lon="3.033989">
        <ele>1.613929</ele>
        <time>2022-07-26T13:18:42.624Z</time>
      </trkpt>
      <trkpt lat="42.578677" lon="3.033148">
        <ele>2.084518</ele>
        <time>2022-07-26T13:19:31.694Z</time>
      </trkpt>
      <trkpt lat="42.579218" lon="3.032924">
        <ele>2.379443</ele>
        <time>2022-07-26T13:19:45.748Z</time>
      </trkpt>
      <trkpt lat="42.579724" lon="3.032771">
        <ele>2.666501</ele>
        <time>2022-07-26T13:19:58.652Z</time>
      </trkpt>
      <trkpt lat="42.580391" lon="3.032676">
        <ele>3.037877</ele>
        <time>2022-07-26T13:20:15.366Z</time>
      </trkpt>
      <trkpt lat="42.580816" lon="3.032645">
        <ele>3.111892</ele>
        <time>2022-07-26T13:20:25.611Z</time>
      </trkpt>
      <trkpt lat="42.581493" lon="3.032604">
        <ele>3.142097</ele>
        <time>2022-07-26T13:20:40.972Z</time>
      </trkpt>
      <trkpt lat="42.581951" lon="3.032490">
        <ele>3.162851</ele>
        <time>2022-07-26T13:20:51.040Z</time>
      </trkpt>
      <trkpt lat="42.582211" lon="3.032425">
        <ele>3.174635</ele>
        <time>2022-07-26T13:20:56.647Z</time>
      </trkpt>
      <trkpt lat="42.582501" lon="3.032298">
        <ele>3.135549</ele>
        <time>2022-07-26T13:21:03.000Z</time>
      </trkpt>
      <trkpt lat="42.583188" lon="3.031878">
        <ele>2.997534</ele>
        <time>2022-07-26T13:21:18.877Z</time>
      </trkpt>
      <trkpt lat="42.583395" lon="3.031746">
        <ele>2.955642</ele>
        <time>2022-07-26T13:21:23.733Z</time>
      </trkpt>
      <trkpt lat="42.583577" lon="3.031627">
        <ele>2.918639</ele>
        <time>2022-07-26T13:21:28.135Z</time>
      </trkpt>
      <trkpt lat="42.583694" lon="3.031553">
        <ele>2.894996</ele>
        <time>2022-07-26T13:21:30.923Z</time>
      </trkpt>
      <trkpt lat="42.585515" lon="3.030392">
        <ele>2.976639</ele>
        <time>2022-07-26T13:22:16.690Z</time>
      </trkpt>
      <trkpt lat="42.586562" lon="3.029726">
        <ele>2.992263</ele>
        <time>2022-07-26T13:22:42.355Z</time>
      </trkpt>
      <trkpt lat="42.588301" lon="3.028567">
        <ele>2.999998</ele>
        <time>2022-07-26T13:23:25.502Z</time>
      </trkpt>
      <trkpt lat="42.589584" lon="3.027245">
        <ele>2.931741</ele>
        <time>2022-07-26T13:24:01.103Z</time>
      </trkpt>
      <trkpt lat="42.590465" lon="3.026373">
        <ele>2.930726</ele>
        <time>2022-07-26T13:24:24.745Z</time>
      </trkpt>
      <trkpt lat="42.590624" lon="3.026216">
        <ele>2.956089</ele>
        <time>2022-07-26T13:24:29.096Z</time>
      </trkpt>
      <trkpt lat="42.591150" lon="3.025867">
        <ele>3.031620</ele>
        <time>2022-07-26T13:24:42.396Z</time>
      </trkpt>
      <trkpt lat="42.592097" lon="3.025483">
        <ele>3.232112</ele>
        <time>2022-07-26T13:25:05.722Z</time>
      </trkpt>
      <trkpt lat="42.593390" lon="3.025287">
        <ele>3.689322</ele>
        <time>2022-07-26T13:25:37.056Z</time>
      </trkpt>
      <trkpt lat="42.595229" lon="3.025022">
        <ele>3.702109</ele>
        <time>2022-07-26T13:26:18.278Z</time>
      </trkpt>
      <trkpt lat="42.595711" lon="3.025031">
        <ele>3.520986</ele>
        <time>2022-07-26T13:26:28.062Z</time>
      </trkpt>
      <trkpt lat="42.595744" lon="3.025031">
        <ele>3.504832</ele>
        <time>2022-07-26T13:26:28.701Z</time>
      </trkpt>
      <trkpt lat="42.595956" lon="3.025109">
        <ele>3.397313</ele>
        <time>2022-07-26T13:26:33.134Z</time>
      </trkpt>
      <trkpt lat="42.595986" lon="3.025177">
        <ele>3.368744</ele>
        <time>2022-07-26T13:26:34.322Z</time>
      </trkpt>
      <trkpt lat="42.596063" lon="3.025267">
        <ele>3.319018</ele>
        <time>2022-07-26T13:26:36.343Z</time>
      </trkpt>
      <trkpt lat="42.596276" lon="3.025294">
        <ele>3.214296</ele>
        <time>2022-07-26T13:26:40.698Z</time>
      </trkpt>
      <trkpt lat="42.596421" lon="3.025122">
        <ele>3.120061</ele>
        <time>2022-07-26T13:26:44.589Z</time>
      </trkpt>
      <trkpt lat="42.596433" lon="3.025085">
        <ele>3.105491</ele>
        <time>2022-07-26T13:26:45.181Z</time>
      </trkpt>
      <trkpt lat="42.596623" lon="3.024919">
        <ele>2.994905</ele>
        <time>2022-07-26T13:26:49.814Z</time>
      </trkpt>
      <trkpt lat="42.597360" lon="3.024731">
        <ele>2.857336</ele>
        <time>2022-07-26T13:27:05.378Z</time>
      </trkpt>
      <trkpt lat="42.600527" lon="3.024312">
        <ele>3.501806</ele>
        <time>2022-07-26T13:28:19.989Z</time>
      </trkpt>
      <trkpt lat="42.600716" lon="3.024121">
        <ele>3.503373</ele>
        <time>2022-07-26T13:28:25.695Z</time>
      </trkpt>
      <trkpt lat="42.601209" lon="3.024002">
        <ele>3.489368</ele>
        <time>2022-07-26T13:28:37.565Z</time>
      </trkpt>
      <trkpt lat="42.601343" lon="3.024046">
        <ele>3.485512</ele>
        <time>2022-07-26T13:28:40.719Z</time>
      </trkpt>
      <trkpt lat="42.602224" lon="3.023955">
        <ele>3.460800</ele>
        <time>2022-07-26T13:29:00.708Z</time>
      </trkpt>
      <trkpt lat="42.603143" lon="3.024008">
        <ele>3.326883</ele>
        <time>2022-07-26T13:29:20.911Z</time>
      </trkpt>
      <trkpt lat="42.603495" lon="3.024039">
        <ele>3.272262</ele>
        <time>2022-07-26T13:29:28.745Z</time>
      </trkpt>
      <trkpt lat="42.606036" lon="3.024208">
        <ele>3.385478</ele>
        <time>2022-07-26T13:30:28.761Z</time>
      </trkpt>
      <trkpt lat="42.606149" lon="3.024175">
        <ele>3.372872</ele>
        <time>2022-07-26T13:30:31.610Z</time>
      </trkpt>
      <trkpt lat="42.606220" lon="3.024073">
        <ele>3.361603</ele>
        <time>2022-07-26T13:30:34.084Z</time>
      </trkpt>
      <trkpt lat="42.606611" lon="3.023263">
        <ele>3.283848</ele>
        <time>2022-07-26T13:30:50.650Z</time>
      </trkpt>
      <trkpt lat="42.606842" lon="3.022569">
        <ele>3.222708</ele>
        <time>2022-07-26T13:31:03.026Z</time>
      </trkpt>
      <trkpt lat="42.606942" lon="3.022105">
        <ele>3.096136</ele>
        <time>2022-07-26T13:31:10.718Z</time>
      </trkpt>
      <trkpt lat="42.607241" lon="3.021761">
        <ele>2.883083</ele>
        <time>2022-07-26T13:31:19.080Z</time>
      </trkpt>
      <trkpt lat="42.607933" lon="3.021299">
        <ele>2.463808</ele>
        <time>2022-07-26T13:31:35.340Z</time>
      </trkpt>
      <trkpt lat="42.608842" lon="3.020422">
        <ele>2.018184</ele>
        <time>2022-07-26T13:31:59.102Z</time>
      </trkpt>
      <trkpt lat="42.609529" lon="3.019608">
        <ele>1.737523</ele>
        <time>2022-07-26T13:32:19.660Z</time>
      </trkpt>
      <trkpt lat="42.610967" lon="3.018446">
        <ele>1.613477</ele>
        <time>2022-07-26T13:32:57.535Z</time>
      </trkpt>
      <trkpt lat="42.611227" lon="3.017988">
        <ele>1.647869</ele>
        <time>2022-07-26T13:33:07.672Z</time>
      </trkpt>
      <trkpt lat="42.611548" lon="3.016978">
        <ele>2.062295</ele>
        <time>2022-07-26T13:33:27.977Z</time>
      </trkpt>
      <trkpt lat="42.611697" lon="3.016643">
        <ele>2.209743</ele>
        <time>2022-07-26T13:33:35.630Z</time>
      </trkpt>
      <trkpt lat="42.612788" lon="3.015322">
        <ele>2.892138</ele>
        <time>2022-07-26T13:34:12.653Z</time>
      </trkpt>
      <trkpt lat="42.613069" lon="3.015108">
        <ele>3.032293</ele>
        <time>2022-07-26T13:34:20.587Z</time>
      </trkpt>
      <trkpt lat="42.613111" lon="3.015083">
        <ele>3.052244</ele>
        <time>2022-07-26T13:34:21.702Z</time>
      </trkpt>
      <trkpt lat="42.613396" lon="3.014807">
        <ele>3.204517</ele>
        <time>2022-07-26T13:34:30.246Z</time>
      </trkpt>
      <trkpt lat="42.613502" lon="3.014606">
        <ele>3.283697</ele>
        <time>2022-07-26T13:34:34.516Z</time>
      </trkpt>
      <trkpt lat="42.613695" lon="3.014136">
        <ele>3.602424</ele>
        <time>2022-07-26T13:34:44.438Z</time>
      </trkpt>
      <trkpt lat="42.613725" lon="3.014035">
        <ele>3.670657</ele>
        <time>2022-07-26T13:34:46.607Z</time>
      </trkpt>
      <trkpt lat="42.613994" lon="3.013163">
        <ele>4.262995</ele>
        <time>2022-07-26T13:35:04.090Z</time>
      </trkpt>
      <trkpt lat="42.614204" lon="3.012557">
        <ele>4.682620</ele>
        <time>2022-07-26T13:35:17.706Z</time>
      </trkpt>
      <trkpt lat="42.614291" lon="3.012353">
        <ele>4.830329</ele>
        <time>2022-07-26T13:35:22.819Z</time>
      </trkpt>
      <trkpt lat="42.614366" lon="3.012184">
        <ele>5.138869</ele>
        <time>2022-07-26T13:35:27.194Z</time>
      </trkpt>
      <trkpt lat="42.614726" lon="3.011319">
        <ele>6.721873</ele>
        <time>2022-07-26T13:35:50.359Z</time>
      </trkpt>
      <trkpt lat="42.615012" lon="3.010173">
        <ele>8.649524</ele>
        <time>2022-07-26T13:36:20.314Z</time>
      </trkpt>
      <trkpt lat="42.615139" lon="3.009466">
        <ele>9.667398</ele>
        <time>2022-07-26T13:36:36.817Z</time>
      </trkpt>
      <trkpt lat="42.615362" lon="3.008806">
        <ele>10.672979</ele>
        <time>2022-07-26T13:36:53.533Z</time>
      </trkpt>
      <trkpt lat="42.615522" lon="3.008387">
        <ele>11.326597</ele>
        <time>2022-07-26T13:37:04.229Z</time>
      </trkpt>
      <trkpt lat="42.615580" lon="3.008238">
        <ele>11.559992</ele>
        <time>2022-07-26T13:37:07.873Z</time>
      </trkpt>
      <trkpt lat="42.615776" lon="3.008004">
        <ele>12.050884</ele>
        <time>2022-07-26T13:37:15.825Z</time>
      </trkpt>
      <trkpt lat="42.615801" lon="3.007913">
        <ele>12.148458</ele>
        <time>2022-07-26T13:37:17.807Z</time>
      </trkpt>
      <trkpt lat="42.615903" lon="3.007290">
        <ele>12.589863</ele>
        <time>2022-07-26T13:37:31.028Z</time>
      </trkpt>
      <trkpt lat="42.615940" lon="3.007164">
        <ele>12.683687</ele>
        <time>2022-07-26T13:37:33.891Z</time>
      </trkpt>
      <trkpt lat="42.615977" lon="3.006170">
        <ele>13.372021</ele>
        <time>2022-07-26T13:37:52.460Z</time>
      </trkpt>
      <trkpt lat="42.615993" lon="3.005468">
        <ele>13.813440</ele>
        <time>2022-07-26T13:38:06.226Z</time>
      </trkpt>
      <trkpt lat="42.616016" lon="3.004729">
        <ele>13.918592</ele>
        <time>2022-07-26T13:38:20.366Z</time>
      </trkpt>
      <trkpt lat="42.616027" lon="3.004397">
        <ele>13.965837</ele>
        <time>2022-07-26T13:38:26.373Z</time>
      </trkpt>
      <trkpt lat="42.616156" lon="3.004358">
        <ele>13.991367</ele>
        <time>2022-07-26T13:38:29.453Z</time>
      </trkpt>
      <trkpt lat="42.616322" lon="3.004245">
        <ele>14.027233</ele>
        <time>2022-07-26T13:38:33.833Z</time>
      </trkpt>
      <trkpt lat="42.616330" lon="3.004171">
        <ele>14.037866</ele>
        <time>2022-07-26T13:38:35.093Z</time>
      </trkpt>
      <trkpt lat="42.616321" lon="3.004073">
        <ele>14.051906</ele>
        <time>2022-07-26T13:38:36.716Z</time>
      </trkpt>
      <trkpt lat="42.616314" lon="3.003996">
        <ele>14.062936</ele>
        <time>2022-07-26T13:38:37.967Z</time>
      </trkpt>
      <trkpt lat="42.616200" lon="3.003796">
        <ele>14.098900</ele>
        <time>2022-07-26T13:38:42.171Z</time>
      </trkpt>
      <trkpt lat="42.616118" lon="3.003770">
        <ele>14.115166</ele>
        <time>2022-07-26T13:38:44.094Z</time>
      </trkpt>
      <trkpt lat="42.616305" lon="3.003146">
        <ele>13.828127</ele>
        <time>2022-07-26T13:38:54.868Z</time>
      </trkpt>
      <trkpt lat="42.616717" lon="3.002656">
        <ele>13.275674</ele>
        <time>2022-07-26T13:39:06.259Z</time>
      </trkpt>
      <trkpt lat="42.616849" lon="3.002974">
        <ele>13.004573</ele>
        <time>2022-07-26T13:39:11.588Z</time>
      </trkpt>
      <trkpt lat="42.616717" lon="3.002656">
        <ele>12.733471</ele>
        <time>2022-07-26T13:39:16.950Z</time>
      </trkpt>
      <trkpt lat="42.617089" lon="3.002341">
        <ele>12.249718</ele>
        <time>2022-07-26T13:39:25.283Z</time>
      </trkpt>
      <trkpt lat="42.617318" lon="3.002018">
        <ele>11.598037</ele>
        <time>2022-07-26T13:39:31.391Z</time>
      </trkpt>
      <trkpt lat="42.617431" lon="3.002171">
        <ele>11.283080</ele>
        <time>2022-07-26T13:39:34.364Z</time>
      </trkpt>
      <trkpt lat="42.617451" lon="3.002200">
        <ele>11.225332</ele>
        <time>2022-07-26T13:39:35.121Z</time>
      </trkpt>
      <trkpt lat="42.617599" lon="3.001930">
        <ele>10.736159</ele>
        <time>2022-07-26T13:39:41.529Z</time>
      </trkpt>
      <trkpt lat="42.617550" lon="3.001860">
        <ele>10.595786</ele>
        <time>2022-07-26T13:39:43.369Z</time>
      </trkpt>
      <trkpt lat="42.617420" lon="3.001570">
        <ele>10.102402</ele>
        <time>2022-07-26T13:39:49.832Z</time>
      </trkpt>
      <trkpt lat="42.617390" lon="3.001510">
        <ele>9.997005</ele>
        <time>2022-07-26T13:39:51.213Z</time>
      </trkpt>
      <trkpt lat="42.617619" lon="3.001460">
        <ele>9.539060</ele>
        <time>2022-07-26T13:39:57.214Z</time>
      </trkpt>
      <trkpt lat="42.617970" lon="3.001330">
        <ele>8.820754</ele>
        <time>2022-07-26T13:40:06.622Z</time>
      </trkpt>
      <trkpt lat="42.618092" lon="3.001280">
        <ele>8.611924</ele>
        <time>2022-07-26T13:40:09.919Z</time>
      </trkpt>
      <trkpt lat="42.618240" lon="3.000840">
        <ele>8.049417</ele>
        <time>2022-07-26T13:40:19.125Z</time>
      </trkpt>
      <trkpt lat="42.618251" lon="3.000805">
        <ele>8.005165</ele>
        <time>2022-07-26T13:40:19.841Z</time>
      </trkpt>
      <trkpt lat="42.618279" lon="3.000831">
        <ele>7.951582</ele>
        <time>2022-07-26T13:40:20.410Z</time>
      </trkpt>
      <trkpt lat="42.618416" lon="3.000544">
        <ele>7.553824</ele>
        <time>2022-07-26T13:40:25.278Z</time>
      </trkpt>
      <trkpt lat="42.619681" lon="2.999543">
        <ele>5.561664</ele>
        <time>2022-07-26T13:40:53.781Z</time>
      </trkpt>
      <trkpt lat="42.619675" lon="2.999470">
        <ele>5.515369</ele>
        <time>2022-07-26T13:40:54.964Z</time>
      </trkpt>
      <trkpt lat="42.619656" lon="2.999333">
        <ele>5.427504</ele>
        <time>2022-07-26T13:40:57.009Z</time>
      </trkpt>
      <trkpt lat="42.619703" lon="2.999106">
        <ele>5.278881</ele>
        <time>2022-07-26T13:41:00.478Z</time>
      </trkpt>
      <trkpt lat="42.619812" lon="2.999100">
        <ele>5.185448</ele>
        <time>2022-07-26T13:41:02.778Z</time>
      </trkpt>
      <trkpt lat="42.619838" lon="2.999048">
        <ele>5.145825</ele>
        <time>2022-07-26T13:41:03.729Z</time>
      </trkpt>
      <trkpt lat="42.620022" lon="2.998687">
        <ele>4.869055</ele>
        <time>2022-07-26T13:41:10.393Z</time>
      </trkpt>
      <trkpt lat="42.620385" lon="2.998152">
        <ele>4.410412</ele>
        <time>2022-07-26T13:41:21.909Z</time>
      </trkpt>
      <trkpt lat="42.620451" lon="2.998102">
        <ele>4.392045</ele>
        <time>2022-07-26T13:41:23.483Z</time>
      </trkpt>
      <trkpt lat="42.620544" lon="2.998099">
        <ele>4.379343</ele>
        <time>2022-07-26T13:41:25.634Z</time>
      </trkpt>
      <trkpt lat="42.620998" lon="2.997622">
        <ele>4.300987</ele>
        <time>2022-07-26T13:41:37.919Z</time>
      </trkpt>
      <trkpt lat="42.621012" lon="2.997648">
        <ele>4.297750</ele>
        <time>2022-07-26T13:41:38.414Z</time>
      </trkpt>
      <trkpt lat="42.621042" lon="2.997703">
        <ele>4.290871</ele>
        <time>2022-07-26T13:41:39.481Z</time>
      </trkpt>
      <trkpt lat="42.621178" lon="2.997498">
        <ele>4.263139</ele>
        <time>2022-07-26T13:41:43.918Z</time>
      </trkpt>
      <trkpt lat="42.621277" lon="2.997400">
        <ele>4.246416</ele>
        <time>2022-07-26T13:41:46.608Z</time>
      </trkpt>
      <trkpt lat="42.621316" lon="2.997362">
        <ele>4.239863</ele>
        <time>2022-07-26T13:41:47.668Z</time>
      </trkpt>
      <trkpt lat="42.621367" lon="2.997311">
        <ele>4.231218</ele>
        <time>2022-07-26T13:41:49.162Z</time>
      </trkpt>
      <trkpt lat="42.621385" lon="2.997293">
        <ele>4.228166</ele>
        <time>2022-07-26T13:41:49.696Z</time>
      </trkpt>
      <trkpt lat="42.621592" lon="2.997092">
        <ele>4.193429</ele>
        <time>2022-07-26T13:41:55.563Z</time>
      </trkpt>
      <trkpt lat="42.621979" lon="2.996786">
        <ele>4.187124</ele>
        <time>2022-07-26T13:42:06.293Z</time>
      </trkpt>
      <trkpt lat="42.622103" lon="2.996704">
        <ele>4.213275</ele>
        <time>2022-07-26T13:42:09.524Z</time>
      </trkpt>
      <trkpt lat="42.622847" lon="2.996303">
        <ele>4.365052</ele>
        <time>2022-07-26T13:42:27.674Z</time>
      </trkpt>
      <trkpt lat="42.622850" lon="2.996301">
        <ele>4.365685</ele>
        <time>2022-07-26T13:42:27.756Z</time>
      </trkpt>
      <trkpt lat="42.623266" lon="2.995973">
        <ele>4.456888</ele>
        <time>2022-07-26T13:42:38.446Z</time>
      </trkpt>
      <trkpt lat="42.623323" lon="2.995911">
        <ele>4.470733</ele>
        <time>2022-07-26T13:42:40.099Z</time>
      </trkpt>
      <trkpt lat="42.623347" lon="2.995887">
        <ele>4.476383</ele>
        <time>2022-07-26T13:42:40.783Z</time>
      </trkpt>
      <trkpt lat="42.623486" lon="2.995865">
        <ele>4.504528</ele>
        <time>2022-07-26T13:42:44.070Z</time>
      </trkpt>
      <trkpt lat="42.623571" lon="2.995894">
        <ele>4.525201</ele>
        <time>2022-07-26T13:42:46.137Z</time>
      </trkpt>
      <trkpt lat="42.623692" lon="2.995786">
        <ele>4.559350</ele>
        <time>2022-07-26T13:42:49.571Z</time>
      </trkpt>
      <trkpt lat="42.623690" lon="2.995602">
        <ele>4.591291</ele>
        <time>2022-07-26T13:42:52.800Z</time>
      </trkpt>
      <trkpt lat="42.623854" lon="2.995518">
        <ele>4.632634</ele>
        <time>2022-07-26T13:42:56.986Z</time>
      </trkpt>
      <trkpt lat="42.624107" lon="2.995388">
        <ele>4.696439</ele>
        <time>2022-07-26T13:43:03.499Z</time>
      </trkpt>
      <trkpt lat="42.625377" lon="2.994233">
        <ele>4.849874</ele>
        <time>2022-07-26T13:43:38.565Z</time>
      </trkpt>
      <trkpt lat="42.625670" lon="2.993968">
        <ele>4.806782</ele>
        <time>2022-07-26T13:43:46.323Z</time>
      </trkpt>
      <trkpt lat="42.625804" lon="2.993939">
        <ele>4.790169</ele>
        <time>2022-07-26T13:43:49.221Z</time>
      </trkpt>
      <trkpt lat="42.626040" lon="2.993924">
        <ele>4.761242</ele>
        <time>2022-07-26T13:43:54.319Z</time>
      </trkpt>
      <trkpt lat="42.626207" lon="2.993689">
        <ele>4.731809</ele>
        <time>2022-07-26T13:43:59.368Z</time>
      </trkpt>
      <trkpt lat="42.626231" lon="2.993534">
        <ele>4.717540</ele>
        <time>2022-07-26T13:44:01.822Z</time>
      </trkpt>
      <trkpt lat="42.626226" lon="2.993434">
        <ele>4.708510</ele>
        <time>2022-07-26T13:44:03.316Z</time>
      </trkpt>
      <trkpt lat="42.626506" lon="2.992853">
        <ele>4.497019</ele>
        <time>2022-07-26T13:44:13.645Z</time>
      </trkpt>
      <trkpt lat="42.627086" lon="2.992106">
        <ele>4.131624</ele>
        <time>2022-07-26T13:44:29.904Z</time>
      </trkpt>
      <trkpt lat="42.627615" lon="2.991695">
        <ele>3.871571</ele>
        <time>2022-07-26T13:44:42.700Z</time>
      </trkpt>
      <trkpt lat="42.631384" lon="2.989915">
        <ele>3.444303</ele>
        <time>2022-07-26T13:46:10.442Z</time>
      </trkpt>
      <trkpt lat="42.632711" lon="2.989288">
        <ele>3.193759</ele>
        <time>2022-07-26T13:46:40.408Z</time>
      </trkpt>
      <trkpt lat="42.632746" lon="2.989269">
        <ele>3.190659</ele>
        <time>2022-07-26T13:46:41.189Z</time>
      </trkpt>
      <trkpt lat="42.633311" lon="2.988926">
        <ele>3.139762</ele>
        <time>2022-07-26T13:46:54.258Z</time>
      </trkpt>
      <trkpt lat="42.633429" lon="2.988813">
        <ele>3.127889</ele>
        <time>2022-07-26T13:46:57.367Z</time>
      </trkpt>
      <trkpt lat="42.633581" lon="2.988627">
        <ele>3.111066</ele>
        <time>2022-07-26T13:47:01.820Z</time>
      </trkpt>
      <trkpt lat="42.633646" lon="2.988553">
        <ele>3.104092</ele>
        <time>2022-07-26T13:47:03.728Z</time>
      </trkpt>
      <trkpt lat="42.633802" lon="2.988353">
        <ele>3.086453</ele>
        <time>2022-07-26T13:47:08.440Z</time>
      </trkpt>
      <trkpt lat="42.633913" lon="2.988216">
        <ele>3.074121</ele>
        <time>2022-07-26T13:47:11.898Z</time>
      </trkpt>
      <trkpt lat="42.633937" lon="2.988184">
        <ele>3.071356</ele>
        <time>2022-07-26T13:47:12.651Z</time>
      </trkpt>
      <trkpt lat="42.634115" lon="2.988030">
        <ele>3.054000</ele>
        <time>2022-07-26T13:47:17.366Z</time>
      </trkpt>
      <trkpt lat="42.634215" lon="2.987934">
        <ele>3.104798</ele>
        <time>2022-07-26T13:47:20.240Z</time>
      </trkpt>
      <trkpt lat="42.634255" lon="2.987953">
        <ele>3.135061</ele>
        <time>2022-07-26T13:47:21.227Z</time>
      </trkpt>
      <trkpt lat="42.634420" lon="2.987854">
        <ele>3.263880</ele>
        <time>2022-07-26T13:47:25.445Z</time>
      </trkpt>
      <trkpt lat="42.634446" lon="2.987706">
        <ele>3.343834</ele>
        <time>2022-07-26T13:47:28.178Z</time>
      </trkpt>
      <trkpt lat="42.634772" lon="2.987388">
        <ele>3.630427</ele>
        <time>2022-07-26T13:47:38.213Z</time>
      </trkpt>
      <trkpt lat="42.634960" lon="2.987255">
        <ele>3.781800</ele>
        <time>2022-07-26T13:47:43.695Z</time>
      </trkpt>
      <trkpt lat="42.635123" lon="2.987141">
        <ele>3.912727</ele>
        <time>2022-07-26T13:47:48.461Z</time>
      </trkpt>
      <trkpt lat="42.635258" lon="2.987069">
        <ele>4.016305</ele>
        <time>2022-07-26T13:47:52.201Z</time>
      </trkpt>
      <trkpt lat="42.635699" lon="2.986832">
        <ele>4.351399</ele>
        <time>2022-07-26T13:48:04.605Z</time>
      </trkpt>
      <trkpt lat="42.635788" lon="2.986865">
        <ele>4.405481</ele>
        <time>2022-07-26T13:48:07.005Z</time>
      </trkpt>
      <trkpt lat="42.635834" lon="2.986741">
        <ele>4.465376</ele>
        <time>2022-07-26T13:48:09.748Z</time>
      </trkpt>
      <trkpt lat="42.636165" lon="2.986578">
        <ele>4.671767</ele>
        <time>2022-07-26T13:48:18.942Z</time>
      </trkpt>
      <trkpt lat="42.638273" lon="2.985504">
        <ele>5.584732</ele>
        <time>2022-07-26T13:49:12.786Z</time>
      </trkpt>
      <trkpt lat="42.638460" lon="2.985363">
        <ele>5.625410</ele>
        <time>2022-07-26T13:49:17.342Z</time>
      </trkpt>
      <trkpt lat="42.638529" lon="2.985458">
        <ele>5.644092</ele>
        <time>2022-07-26T13:49:19.514Z</time>
      </trkpt>
      <trkpt lat="42.638623" lon="2.985439">
        <ele>5.662170</ele>
        <time>2022-07-26T13:49:21.570Z</time>
      </trkpt>
      <trkpt lat="42.638665" lon="2.985275">
        <ele>5.686470</ele>
        <time>2022-07-26T13:49:24.254Z</time>
      </trkpt>
      <trkpt lat="42.638881" lon="2.985176">
        <ele>5.729832</ele>
        <time>2022-07-26T13:49:29.280Z</time>
      </trkpt>
      <trkpt lat="42.638946" lon="2.985214">
        <ele>5.746047</ele>
        <time>2022-07-26T13:49:30.777Z</time>
      </trkpt>
      <trkpt lat="42.639611" lon="2.984885">
        <ele>5.912066</ele>
        <time>2022-07-26T13:49:47.104Z</time>
      </trkpt>
      <trkpt lat="42.639863" lon="2.984775">
        <ele>5.974158</ele>
        <time>2022-07-26T13:49:53.443Z</time>
      </trkpt>
      <trkpt lat="42.640057" lon="2.984591">
        <ele>6.029652</ele>
        <time>2022-07-26T13:49:59.096Z</time>
      </trkpt>
      <trkpt lat="42.640210" lon="2.984098">
        <ele>6.121993</ele>
        <time>2022-07-26T13:50:08.981Z</time>
      </trkpt>
      <trkpt lat="42.640265" lon="2.983996">
        <ele>6.143819</ele>
        <time>2022-07-26T13:50:11.421Z</time>
      </trkpt>
      <trkpt lat="42.640536" lon="2.983092">
        <ele>6.656642</ele>
        <time>2022-07-26T13:50:30.779Z</time>
      </trkpt>
      <trkpt lat="42.640487" lon="2.983052">
        <ele>6.699119</ele>
        <time>2022-07-26T13:50:32.317Z</time>
      </trkpt>
      <trkpt lat="42.640527" lon="2.982924">
        <ele>6.775147</ele>
        <time>2022-07-26T13:50:34.997Z</time>
      </trkpt>
      <trkpt lat="42.640648" lon="2.982659">
        <ele>6.945658</ele>
        <time>2022-07-26T13:50:40.960Z</time>
      </trkpt>
      <trkpt lat="42.640827" lon="2.982046">
        <ele>7.306213</ele>
        <time>2022-07-26T13:50:53.203Z</time>
      </trkpt>
      <trkpt lat="42.640867" lon="2.981931">
        <ele>7.375756</ele>
        <time>2022-07-26T13:50:55.504Z</time>
      </trkpt>
      <trkpt lat="42.640925" lon="2.981965">
        <ele>7.422696</ele>
        <time>2022-07-26T13:50:57.038Z</time>
      </trkpt>
      <trkpt lat="42.640980" lon="2.981924">
        <ele>7.469313</ele>
        <time>2022-07-26T13:50:58.544Z</time>
      </trkpt>
      <trkpt lat="42.640954" lon="2.981780">
        <ele>7.499247</ele>
        <time>2022-07-26T13:51:01.159Z</time>
      </trkpt>
      <trkpt lat="42.641077" lon="2.981511">
        <ele>7.525465</ele>
        <time>2022-07-26T13:51:06.635Z</time>
      </trkpt>
      <trkpt lat="42.641432" lon="2.980888">
        <ele>7.590698</ele>
        <time>2022-07-26T13:51:19.910Z</time>
      </trkpt>
      <trkpt lat="42.641500" lon="2.980857">
        <ele>7.598769</ele>
        <time>2022-07-26T13:51:21.560Z</time>
      </trkpt>
      <trkpt lat="42.641476" lon="2.980768">
        <ele>7.606615</ele>
        <time>2022-07-26T13:51:23.127Z</time>
      </trkpt>
      <trkpt lat="42.641853" lon="2.980006">
        <ele>7.682630</ele>
        <time>2022-07-26T13:51:38.129Z</time>
      </trkpt>
      <trkpt lat="42.642060" lon="2.979541">
        <ele>7.665105</ele>
        <time>2022-07-26T13:51:46.474Z</time>
      </trkpt>
      <trkpt lat="42.642190" lon="2.978944">
        <ele>7.624845</ele>
        <time>2022-07-26T13:51:56.257Z</time>
      </trkpt>
      <trkpt lat="42.642206" lon="2.978871">
        <ele>7.619919</ele>
        <time>2022-07-26T13:51:57.463Z</time>
      </trkpt>
      <trkpt lat="42.642275" lon="2.978807">
        <ele>7.612576</ele>
        <time>2022-07-26T13:51:59.347Z</time>
      </trkpt>
      <trkpt lat="42.642200" lon="2.978750">
        <ele>7.605023</ele>
        <time>2022-07-26T13:52:01.214Z</time>
      </trkpt>
      <trkpt lat="42.642203" lon="2.978352">
        <ele>7.579285</ele>
        <time>2022-07-26T13:52:07.720Z</time>
      </trkpt>
      <trkpt lat="42.642285" lon="2.977994">
        <ele>7.555039</ele>
        <time>2022-07-26T13:52:13.897Z</time>
      </trkpt>
      <trkpt lat="42.642531" lon="2.977193">
        <ele>7.539915</ele>
        <time>2022-07-26T13:52:28.549Z</time>
      </trkpt>
      <trkpt lat="42.642958" lon="2.976569">
        <ele>7.548461</ele>
        <time>2022-07-26T13:52:41.908Z</time>
      </trkpt>
      <trkpt lat="42.643304" lon="2.976103">
        <ele>7.555101</ele>
        <time>2022-07-26T13:52:52.679Z</time>
      </trkpt>
      <trkpt lat="42.643445" lon="2.975934">
        <ele>7.557663</ele>
        <time>2022-07-26T13:52:56.937Z</time>
      </trkpt>
      <trkpt lat="42.643559" lon="2.975889">
        <ele>7.573550</ele>
        <time>2022-07-26T13:52:59.633Z</time>
      </trkpt>
      <trkpt lat="42.643600" lon="2.975900">
        <ele>7.597201</ele>
        <time>2022-07-26T13:53:00.677Z</time>
      </trkpt>
      <trkpt lat="42.643671" lon="2.975843">
        <ele>7.643865</ele>
        <time>2022-07-26T13:53:02.615Z</time>
      </trkpt>
      <trkpt lat="42.643683" lon="2.975768">
        <ele>7.675817</ele>
        <time>2022-07-26T13:53:03.926Z</time>
      </trkpt>
      <trkpt lat="42.643742" lon="2.975564">
        <ele>7.767068</ele>
        <time>2022-07-26T13:53:07.667Z</time>
      </trkpt>
      <trkpt lat="42.643865" lon="2.975374">
        <ele>7.872431</ele>
        <time>2022-07-26T13:53:12.212Z</time>
      </trkpt>
      <trkpt lat="42.644248" lon="2.974862">
        <ele>8.176419</ele>
        <time>2022-07-26T13:53:25.243Z</time>
      </trkpt>
      <trkpt lat="42.644906" lon="2.973870">
        <ele>8.767113</ele>
        <time>2022-07-26T13:53:50.426Z</time>
      </trkpt>
      <trkpt lat="42.645431" lon="2.972707">
        <ele>9.461569</ele>
        <time>2022-07-26T13:54:16.191Z</time>
      </trkpt>
      <trkpt lat="42.645561" lon="2.972142">
        <ele>9.762851</ele>
        <time>2022-07-26T13:54:26.751Z</time>
      </trkpt>
      <trkpt lat="42.645558" lon="2.971458">
        <ele>9.919110</ele>
        <time>2022-07-26T13:54:38.502Z</time>
      </trkpt>
      <trkpt lat="42.645421" lon="2.970024">
        <ele>10.167622</ele>
        <time>2022-07-26T13:55:02.954Z</time>
      </trkpt>
      <trkpt lat="42.645544" lon="2.968892">
        <ele>10.405267</ele>
        <time>2022-07-26T13:55:22.042Z</time>
      </trkpt>
      <trkpt lat="42.645580" lon="2.968616">
        <ele>10.469527</ele>
        <time>2022-07-26T13:55:26.948Z</time>
      </trkpt>
      <trkpt lat="42.645622" lon="2.968420">
        <ele>10.516328</ele>
        <time>2022-07-26T13:55:30.548Z</time>
      </trkpt>
      <trkpt lat="42.645793" lon="2.967982">
        <ele>10.630007</ele>
        <time>2022-07-26T13:55:39.363Z</time>
      </trkpt>
      <trkpt lat="42.645962" lon="2.967784">
        <ele>10.699539</ele>
        <time>2022-07-26T13:55:44.744Z</time>
      </trkpt>
      <trkpt lat="42.645975" lon="2.967671">
        <ele>10.725759</ele>
        <time>2022-07-26T13:55:46.776Z</time>
      </trkpt>
      <trkpt lat="42.646127" lon="2.967593">
        <ele>10.776395</ele>
        <time>2022-07-26T13:55:50.611Z</time>
      </trkpt>
      <trkpt lat="42.646172" lon="2.967437">
        <ele>10.809145</ele>
        <time>2022-07-26T13:55:53.550Z</time>
      </trkpt>
      <trkpt lat="42.646223" lon="2.967046">
        <ele>10.859574</ele>
        <time>2022-07-26T13:56:00.367Z</time>
      </trkpt>
      <trkpt lat="42.646264" lon="2.966918">
        <ele>10.877304</ele>
        <time>2022-07-26T13:56:02.755Z</time>
      </trkpt>
      <trkpt lat="42.646529" lon="2.966546">
        <ele>10.943069</ele>
        <time>2022-07-26T13:56:11.485Z</time>
      </trkpt>
      <trkpt lat="42.648529" lon="2.964254">
        <ele>11.333478</ele>
        <time>2022-07-26T13:57:10.806Z</time>
      </trkpt>
      <trkpt lat="42.650309" lon="2.962596">
        <ele>11.800413</ele>
        <time>2022-07-26T13:58:00.582Z</time>
      </trkpt>
      <trkpt lat="42.651284" lon="2.961880">
        <ele>12.028744</ele>
        <time>2022-07-26T13:58:26.544Z</time>
      </trkpt>
      <trkpt lat="42.651311" lon="2.961860">
        <ele>12.035079</ele>
        <time>2022-07-26T13:58:27.250Z</time>
      </trkpt>
      <trkpt lat="42.652326" lon="2.961059">
        <ele>12.127757</ele>
        <time>2022-07-26T13:58:53.585Z</time>
      </trkpt>
      <trkpt lat="42.652830" lon="2.960616">
        <ele>12.124950</ele>
        <time>2022-07-26T13:59:06.997Z</time>
      </trkpt>
      <trkpt lat="42.653988" lon="2.959573">
        <ele>12.088940</ele>
        <time>2022-07-26T13:59:37.212Z</time>
      </trkpt>
      <trkpt lat="42.654168" lon="2.959417">
        <ele>12.080929</ele>
        <time>2022-07-26T13:59:42.092Z</time>
      </trkpt>
      <trkpt lat="42.654794" lon="2.958967">
        <ele>12.053753</ele>
        <time>2022-07-26T13:59:58.157Z</time>
      </trkpt>
      <trkpt lat="42.655187" lon="2.958583">
        <ele>12.021883</ele>
        <time>2022-07-26T14:00:08.682Z</time>
      </trkpt>
      <trkpt lat="42.655423" lon="2.958276">
        <ele>12.000375</ele>
        <time>2022-07-26T14:00:15.622Z</time>
      </trkpt>
      <trkpt lat="42.655636" lon="2.958115">
        <ele>11.984326</ele>
        <time>2022-07-26T14:00:20.833Z</time>
      </trkpt>
      <trkpt lat="42.655714" lon="2.958060">
        <ele>11.978540</ele>
        <time>2022-07-26T14:00:22.754Z</time>
      </trkpt>
      <trkpt lat="42.655759" lon="2.957989">
        <ele>11.974001</ele>
        <time>2022-07-26T14:00:24.278Z</time>
      </trkpt>
      <trkpt lat="42.655858" lon="2.957846">
        <ele>11.964489</ele>
        <time>2022-07-26T14:00:27.437Z</time>
      </trkpt>
      <trkpt lat="42.655833" lon="2.957684">
        <ele>11.956473</ele>
        <time>2022-07-26T14:00:30.161Z</time>
      </trkpt>
      <trkpt lat="42.655865" lon="2.957545">
        <ele>11.949418</ele>
        <time>2022-07-26T14:00:32.660Z</time>
      </trkpt>
      <trkpt lat="42.655949" lon="2.957191">
        <ele>11.962038</ele>
        <time>2022-07-26T14:00:38.838Z</time>
      </trkpt>
      <trkpt lat="42.656516" lon="2.955871">
        <ele>12.316240</ele>
        <time>2022-07-26T14:01:04.298Z</time>
      </trkpt>
      <trkpt lat="42.656520" lon="2.955863">
        <ele>12.318482</ele>
        <time>2022-07-26T14:01:04.552Z</time>
      </trkpt>
      <trkpt lat="42.656828" lon="2.955326">
        <ele>12.476274</ele>
        <time>2022-07-26T14:01:16.665Z</time>
      </trkpt>
      <trkpt lat="42.656893" lon="2.955266">
        <ele>12.501027</ele>
        <time>2022-07-26T14:01:18.626Z</time>
      </trkpt>
      <trkpt lat="42.656987" lon="2.955187">
        <ele>12.646889</ele>
        <time>2022-07-26T14:01:21.363Z</time>
      </trkpt>
      <trkpt lat="42.657009" lon="2.955187">
        <ele>12.677535</ele>
        <time>2022-07-26T14:01:21.925Z</time>
      </trkpt>
      <trkpt lat="42.657124" lon="2.955125">
        <ele>12.849864</ele>
        <time>2022-07-26T14:01:25.219Z</time>
      </trkpt>
      <trkpt lat="42.657145" lon="2.954991">
        <ele>12.990222</ele>
        <time>2022-07-26T14:01:27.847Z</time>
      </trkpt>
      <trkpt lat="42.657131" lon="2.954943">
        <ele>13.043122</ele>
        <time>2022-07-26T14:01:28.812Z</time>
      </trkpt>
      <trkpt lat="42.657173" lon="2.954747">
        <ele>13.252265</ele>
        <time>2022-07-26T14:01:32.852Z</time>
      </trkpt>
      <trkpt lat="42.657722" lon="2.954036">
        <ele>14.308391</ele>
        <time>2022-07-26T14:01:54.087Z</time>
      </trkpt>
      <trkpt lat="42.658039" lon="2.953625">
        <ele>14.918534</ele>
        <time>2022-07-26T14:02:07.230Z</time>
      </trkpt>
      <trkpt lat="42.658630" lon="2.952893">
        <ele>16.148810</ele>
        <time>2022-07-26T14:02:31.487Z</time>
      </trkpt>
      <trkpt lat="42.659123" lon="2.952419">
        <ele>17.085799</ele>
        <time>2022-07-26T14:02:48.962Z</time>
      </trkpt>
      <trkpt lat="42.659435" lon="2.952195">
        <ele>17.633320</ele>
        <time>2022-07-26T14:02:58.427Z</time>
      </trkpt>
      <trkpt lat="42.659661" lon="2.952036">
        <ele>17.761574</ele>
        <time>2022-07-26T14:03:04.864Z</time>
      </trkpt>
      <trkpt lat="42.659770" lon="2.951986">
        <ele>17.731372</ele>
        <time>2022-07-26T14:03:07.692Z</time>
      </trkpt>
      <trkpt lat="42.660026" lon="2.951871">
        <ele>17.660586</ele>
        <time>2022-07-26T14:03:14.047Z</time>
      </trkpt>
      <trkpt lat="42.660168" lon="2.951871">
        <ele>17.623304</ele>
        <time>2022-07-26T14:03:17.186Z</time>
      </trkpt>
      <trkpt lat="42.660210" lon="2.951907">
        <ele>17.610270</ele>
        <time>2022-07-26T14:03:18.264Z</time>
      </trkpt>
      <trkpt lat="42.660393" lon="2.951897">
        <ele>17.562184</ele>
        <time>2022-07-26T14:03:22.223Z</time>
      </trkpt>
      <trkpt lat="42.660470" lon="2.951786">
        <ele>17.532722</ele>
        <time>2022-07-26T14:03:24.501Z</time>
      </trkpt>
      <trkpt lat="42.660532" lon="2.951772">
        <ele>17.516221</ele>
        <time>2022-07-26T14:03:26.706Z</time>
      </trkpt>
      <trkpt lat="42.660962" lon="2.951518">
        <ele>17.393134</ele>
        <time>2022-07-26T14:03:35.798Z</time>
      </trkpt>
      <trkpt lat="42.661918" lon="2.951015">
        <ele>16.648278</ele>
        <time>2022-07-26T14:03:55.414Z</time>
      </trkpt>
      <trkpt lat="42.662166" lon="2.950823">
        <ele>16.398559</ele>
        <time>2022-07-26T14:04:00.903Z</time>
      </trkpt>
      <trkpt lat="42.662480" lon="2.950553">
        <ele>16.073470</ele>
        <time>2022-07-26T14:04:08.209Z</time>
      </trkpt>
      <trkpt lat="42.663201" lon="2.949784">
        <ele>15.653119</ele>
        <time>2022-07-26T14:04:26.838Z</time>
      </trkpt>
      <trkpt lat="42.663854" lon="2.949298">
        <ele>15.516875</ele>
        <time>2022-07-26T14:04:43.125Z</time>
      </trkpt>
      <trkpt lat="42.664649" lon="2.948717">
        <ele>15.494479</ele>
        <time>2022-07-26T14:05:03.807Z</time>
      </trkpt>
      <trkpt lat="42.665864" lon="2.947345">
        <ele>15.754902</ele>
        <time>2022-07-26T14:05:40.199Z</time>
      </trkpt>
      <trkpt lat="42.665847" lon="2.947295">
        <ele>15.758598</ele>
        <time>2022-07-26T14:05:41.059Z</time>
      </trkpt>
      <trkpt lat="42.665939" lon="2.947230">
        <ele>15.768058</ele>
        <time>2022-07-26T14:05:43.376Z</time>
      </trkpt>
      <trkpt lat="42.666428" lon="2.946883">
        <ele>15.818384</ele>
        <time>2022-07-26T14:05:55.800Z</time>
      </trkpt>
      <trkpt lat="42.666714" lon="2.946733">
        <ele>15.846353</ele>
        <time>2022-07-26T14:06:02.562Z</time>
      </trkpt>
      <trkpt lat="42.666760" lon="2.946709">
        <ele>15.850848</ele>
        <time>2022-07-26T14:06:03.677Z</time>
      </trkpt>
      <trkpt lat="42.666929" lon="2.946647">
        <ele>15.866819</ele>
        <time>2022-07-26T14:06:07.551Z</time>
      </trkpt>
      <trkpt lat="42.668242" lon="2.946189">
        <ele>16.341251</ele>
        <time>2022-07-26T14:06:38.661Z</time>
      </trkpt>
      <trkpt lat="42.668382" lon="2.946140">
        <ele>16.407063</ele>
        <time>2022-07-26T14:06:42.291Z</time>
      </trkpt>
      <trkpt lat="42.669047" lon="2.945767">
        <ele>16.750044</ele>
        <time>2022-07-26T14:07:00.455Z</time>
      </trkpt>
      <trkpt lat="42.669874" lon="2.945285">
        <ele>17.643493</ele>
        <time>2022-07-26T14:07:23.539Z</time>
      </trkpt>
      <trkpt lat="42.670401" lon="2.945077">
        <ele>18.188399</ele>
        <time>2022-07-26T14:07:37.519Z</time>
      </trkpt>
      <trkpt lat="42.671921" lon="2.944800">
        <ele>20.735337</ele>
        <time>2022-07-26T14:08:21.580Z</time>
      </trkpt>
      <trkpt lat="42.672083" lon="2.944791">
        <ele>21.033307</ele>
        <time>2022-07-26T14:08:26.603Z</time>
      </trkpt>
      <trkpt lat="42.672363" lon="2.944752">
        <ele>21.550579</ele>
        <time>2022-07-26T14:08:35.400Z</time>
      </trkpt>
      <trkpt lat="42.672389" lon="2.944799">
        <ele>21.630054</ele>
        <time>2022-07-26T14:08:36.718Z</time>
      </trkpt>
      <trkpt lat="42.672465" lon="2.944858">
        <ele>21.790876</ele>
        <time>2022-07-26T14:08:39.456Z</time>
      </trkpt>
      <trkpt lat="42.672509" lon="2.944865">
        <ele>21.895626</ele>
        <time>2022-07-26T14:08:40.824Z</time>
      </trkpt>
      <trkpt lat="42.672627" lon="2.944792">
        <ele>22.227662</ele>
        <time>2022-07-26T14:08:44.940Z</time>
      </trkpt>
      <trkpt lat="42.672797" lon="2.944722">
        <ele>22.682609</ele>
        <time>2022-07-26T14:08:50.740Z</time>
      </trkpt>
      <trkpt lat="42.673093" lon="2.944555">
        <ele>23.503409</ele>
        <time>2022-07-26T14:09:01.316Z</time>
      </trkpt>
      <trkpt lat="42.673127" lon="2.944428">
        <ele>23.757936</ele>
        <time>2022-07-26T14:09:04.647Z</time>
      </trkpt>
      <trkpt lat="42.673113" lon="2.944371">
        <ele>23.871109</ele>
        <time>2022-07-26T14:09:06.111Z</time>
      </trkpt>
      <trkpt lat="42.673093" lon="2.944286">
        <ele>24.039177</ele>
        <time>2022-07-26T14:09:08.335Z</time>
      </trkpt>
      <trkpt lat="42.673147" lon="2.944170">
        <ele>24.297733</ele>
        <time>2022-07-26T14:09:11.931Z</time>
      </trkpt>
      <trkpt lat="42.673616" lon="2.943744">
        <ele>25.742254</ele>
        <time>2022-07-26T14:09:31.251Z</time>
      </trkpt>
      <trkpt lat="42.673642" lon="2.943720">
        <ele>25.822737</ele>
        <time>2022-07-26T14:09:32.249Z</time>
      </trkpt>
      <trkpt lat="42.674127" lon="2.943210">
        <ele>26.752315</ele>
        <time>2022-07-26T14:09:50.818Z</time>
      </trkpt>
      <trkpt lat="42.674320" lon="2.942950">
        <ele>26.989967</ele>
        <time>2022-07-26T14:09:58.289Z</time>
      </trkpt>
      <trkpt lat="42.674488" lon="2.942724">
        <ele>27.196690</ele>
        <time>2022-07-26T14:10:04.452Z</time>
      </trkpt>
      <trkpt lat="42.674541" lon="2.942656">
        <ele>27.260432</ele>
        <time>2022-07-26T14:10:06.252Z</time>
      </trkpt>
      <trkpt lat="42.674691" lon="2.942534">
        <ele>27.413335</ele>
        <time>2022-07-26T14:10:10.412Z</time>
      </trkpt>
      <trkpt lat="42.674725" lon="2.942526">
        <ele>27.443522</ele>
        <time>2022-07-26T14:10:11.227Z</time>
      </trkpt>
      <trkpt lat="42.674818" lon="2.942313">
        <ele>27.602866</ele>
        <time>2022-07-26T14:10:15.494Z</time>
      </trkpt>
      <trkpt lat="42.675027" lon="2.942089">
        <ele>27.835658</ele>
        <time>2022-07-26T14:10:21.413Z</time>
      </trkpt>
      <trkpt lat="42.675620" lon="2.941619">
        <ele>27.864824</ele>
        <time>2022-07-26T14:10:35.968Z</time>
      </trkpt>
      <trkpt lat="42.675738" lon="2.941552">
        <ele>27.832284</ele>
        <time>2022-07-26T14:10:38.599Z</time>
      </trkpt>
      <trkpt lat="42.675855" lon="2.941497">
        <ele>27.800781</ele>
        <time>2022-07-26T14:10:41.088Z</time>
      </trkpt>
      <trkpt lat="42.676315" lon="2.941316">
        <ele>27.678918</ele>
        <time>2022-07-26T14:10:50.916Z</time>
      </trkpt>
      <trkpt lat="42.676535" lon="2.941234">
        <ele>27.620867</ele>
        <time>2022-07-26T14:10:55.776Z</time>
      </trkpt>
      <trkpt lat="42.676761" lon="2.941159">
        <ele>27.561666</ele>
        <time>2022-07-26T14:11:00.795Z</time>
      </trkpt>
      <trkpt lat="42.676932" lon="2.941063">
        <ele>27.594697</ele>
        <time>2022-07-26T14:11:04.991Z</time>
      </trkpt>
      <trkpt lat="42.677127" lon="2.940939">
        <ele>27.746533</ele>
        <time>2022-07-26T14:11:09.812Z</time>
      </trkpt>
      <trkpt lat="42.677183" lon="2.940904">
        <ele>27.790004</ele>
        <time>2022-07-26T14:11:11.278Z</time>
      </trkpt>
      <trkpt lat="42.677337" lon="2.940813">
        <ele>27.908438</ele>
        <time>2022-07-26T14:11:15.240Z</time>
      </trkpt>
      <trkpt lat="42.677692" lon="2.940520">
        <ele>28.201335</ele>
        <time>2022-07-26T14:11:25.588Z</time>
      </trkpt>
      <trkpt lat="42.677860" lon="2.940350">
        <ele>28.349032</ele>
        <time>2022-07-26T14:11:31.010Z</time>
      </trkpt>
      <trkpt lat="42.678020" lon="2.940190">
        <ele>28.489108</ele>
        <time>2022-07-26T14:11:36.146Z</time>
      </trkpt>
      <trkpt lat="42.678162" lon="2.940060">
        <ele>28.609843</ele>
        <time>2022-07-26T14:11:40.572Z</time>
      </trkpt>
      <trkpt lat="42.678219" lon="2.939950">
        <ele>28.679631</ele>
        <time>2022-07-26T14:11:43.130Z</time>
      </trkpt>
      <trkpt lat="42.678299" lon="2.939670">
        <ele>28.862708</ele>
        <time>2022-07-26T14:11:48.842Z</time>
      </trkpt>
      <trkpt lat="42.678391" lon="2.939440">
        <ele>29.118529</ele>
        <time>2022-07-26T14:11:53.820Z</time>
      </trkpt>
      <trkpt lat="42.678478" lon="2.939200">
        <ele>29.379967</ele>
        <time>2022-07-26T14:11:58.907Z</time>
      </trkpt>
      <trkpt lat="42.678581" lon="2.939010">
        <ele>29.610610</ele>
        <time>2022-07-26T14:12:03.396Z</time>
      </trkpt>
      <trkpt lat="42.678669" lon="2.938890">
        <ele>29.776207</ele>
        <time>2022-07-26T14:12:06.618Z</time>
      </trkpt>
      <trkpt lat="42.678671" lon="2.938889">
        <ele>29.779039</ele>
        <time>2022-07-26T14:12:06.666Z</time>
      </trkpt>
      <trkpt lat="42.678770" lon="2.938850">
        <ele>29.916012</ele>
        <time>2022-07-26T14:12:09.469Z</time>
      </trkpt>
      <trkpt lat="42.678950" lon="2.938991">
        <ele>30.192055</ele>
        <time>2022-07-26T14:12:15.277Z</time>
      </trkpt>
      <trkpt lat="42.679279" lon="2.938986">
        <ele>30.629310</ele>
        <time>2022-07-26T14:12:24.576Z</time>
      </trkpt>
      <trkpt lat="42.679268" lon="2.938928">
        <ele>30.687831</ele>
        <time>2022-07-26T14:12:25.753Z</time>
      </trkpt>
      <trkpt lat="42.679269" lon="2.938813">
        <ele>30.800194</ele>
        <time>2022-07-26T14:12:28.012Z</time>
      </trkpt>
      <trkpt lat="42.679304" lon="2.938385">
        <ele>31.213991</ele>
        <time>2022-07-26T14:12:37.200Z</time>
      </trkpt>
      <trkpt lat="42.679306" lon="2.938361">
        <ele>31.231311</ele>
        <time>2022-07-26T14:12:37.690Z</time>
      </trkpt>
      <trkpt lat="42.679401" lon="2.938173">
        <ele>31.394896</ele>
        <time>2022-07-26T14:12:42.672Z</time>
      </trkpt>
      <trkpt lat="42.679927" lon="2.937975">
        <ele>31.927237</ele>
        <time>2022-07-26T14:12:57.273Z</time>
      </trkpt>
      <trkpt lat="42.679920" lon="2.937990">
        <ele>31.939977</ele>
        <time>2022-07-26T14:12:57.611Z</time>
      </trkpt>
      <trkpt lat="42.679920" lon="2.937920">
        <ele>31.990172</ele>
        <time>2022-07-26T14:12:58.941Z</time>
      </trkpt>
      <trkpt lat="42.679932" lon="2.937780">
        <ele>32.091241</ele>
        <time>2022-07-26T14:13:01.621Z</time>
      </trkpt>
      <trkpt lat="42.680359" lon="2.937020">
        <ele>32.777140</ele>
        <time>2022-07-26T14:13:19.806Z</time>
      </trkpt>
      <trkpt lat="42.680489" lon="2.936810">
        <ele>32.978605</ele>
        <time>2022-07-26T14:13:25.025Z</time>
      </trkpt>
      <trkpt lat="42.680649" lon="2.936610">
        <ele>33.229979</ele>
        <time>2022-07-26T14:13:30.644Z</time>
      </trkpt>
      <trkpt lat="42.680801" lon="2.936380">
        <ele>33.492997</ele>
        <time>2022-07-26T14:13:36.523Z</time>
      </trkpt>
      <trkpt lat="42.680820" lon="2.936320">
        <ele>33.548556</ele>
        <time>2022-07-26T14:13:37.765Z</time>
      </trkpt>
      <trkpt lat="42.680824" lon="2.936316">
        <ele>33.554299</ele>
        <time>2022-07-26T14:13:37.884Z</time>
      </trkpt>
      <trkpt lat="42.680915" lon="2.935951">
        <ele>33.882073</ele>
        <time>2022-07-26T14:13:44.997Z</time>
      </trkpt>
      <trkpt lat="42.681113" lon="2.935129">
        <ele>34.617697</ele>
        <time>2022-07-26T14:14:01.549Z</time>
      </trkpt>
      <trkpt lat="42.681391" lon="2.934360">
        <ele>35.856955</ele>
        <time>2022-07-26T14:14:20.877Z</time>
      </trkpt>
      <trkpt lat="42.681430" lon="2.934252">
        <ele>36.124329</ele>
        <time>2022-07-26T14:14:23.749Z</time>
      </trkpt>
      <trkpt lat="42.681577" lon="2.934210">
        <ele>36.578357</ele>
        <time>2022-07-26T14:14:28.936Z</time>
      </trkpt>
      <trkpt lat="42.681625" lon="2.934049">
        <ele>36.964410</ele>
        <time>2022-07-26T14:14:33.409Z</time>
      </trkpt>
      <trkpt lat="42.681544" lon="2.933880">
        <ele>37.412703</ele>
        <time>2022-07-26T14:14:38.480Z</time>
      </trkpt>
      <trkpt lat="42.681652" lon="2.933669">
        <ele>37.984012</ele>
        <time>2022-07-26T14:14:45.421Z</time>
      </trkpt>
      <trkpt lat="42.681858" lon="2.933273">
        <ele>39.061975</ele>
        <time>2022-07-26T14:14:58.576Z</time>
      </trkpt>
      <trkpt lat="42.682347" lon="2.932385">
        <ele>40.956372</ele>
        <time>2022-07-26T14:15:28.019Z</time>
      </trkpt>
      <trkpt lat="42.682637" lon="2.931825">
        <ele>41.659084</ele>
        <time>2022-07-26T14:15:44.555Z</time>
      </trkpt>
      <trkpt lat="42.682663" lon="2.931768">
        <ele>41.727900</ele>
        <time>2022-07-26T14:15:46.074Z</time>
      </trkpt>
      <trkpt lat="42.683040" lon="2.930821">
        <ele>42.832689</ele>
        <time>2022-07-26T14:16:04.346Z</time>
      </trkpt>
      <trkpt lat="42.683315" lon="2.930443">
        <ele>42.478567</ele>
        <time>2022-07-26T14:16:11.841Z</time>
      </trkpt>
      <trkpt lat="42.683379" lon="2.930357">
        <ele>42.322853</ele>
        <time>2022-07-26T14:16:13.467Z</time>
      </trkpt>
      <trkpt lat="42.683752" lon="2.929700">
        <ele>41.266581</ele>
        <time>2022-07-26T14:16:24.389Z</time>
      </trkpt>
      <trkpt lat="42.684011" lon="2.929046">
        <ele>40.321344</ele>
        <time>2022-07-26T14:16:33.738Z</time>
      </trkpt>
      <trkpt lat="42.684177" lon="2.928583">
        <ele>39.742825</ele>
        <time>2022-07-26T14:16:40.155Z</time>
      </trkpt>
      <trkpt lat="42.684466" lon="2.927916">
        <ele>39.141538</ele>
        <time>2022-07-26T14:16:50.280Z</time>
      </trkpt>
      <trkpt lat="42.684793" lon="2.927172">
        <ele>38.468339</ele>
        <time>2022-07-26T14:17:03.258Z</time>
      </trkpt>
      <trkpt lat="42.684957" lon="2.926805">
        <ele>38.134793</ele>
        <time>2022-07-26T14:17:10.029Z</time>
      </trkpt>
      <trkpt lat="42.685151" lon="2.925931">
        <ele>38.042136</ele>
        <time>2022-07-26T14:17:24.474Z</time>
      </trkpt>
      <trkpt lat="42.685243" lon="2.925500">
        <ele>38.093380</ele>
        <time>2022-07-26T14:17:32.061Z</time>
      </trkpt>
      <trkpt lat="42.685447" lon="2.924464">
        <ele>38.215841</ele>
        <time>2022-07-26T14:17:50.615Z</time>
      </trkpt>
      <trkpt lat="42.685518" lon="2.923782">
        <ele>38.321403</ele>
        <time>2022-07-26T14:18:02.867Z</time>
      </trkpt>
      <trkpt lat="42.685866" lon="2.922262">
        <ele>38.597299</ele>
        <time>2022-07-26T14:18:29.071Z</time>
      </trkpt>
      <trkpt lat="42.686035" lon="2.921602">
        <ele>38.880800</ele>
        <time>2022-07-26T14:18:41.174Z</time>
      </trkpt>
      <trkpt lat="42.686048" lon="2.921533">
        <ele>38.931791</ele>
        <time>2022-07-26T14:18:42.440Z</time>
      </trkpt>
      <trkpt lat="42.686221" lon="2.920534">
        <ele>39.666503</ele>
        <time>2022-07-26T14:19:01.848Z</time>
      </trkpt>
      <trkpt lat="42.686304" lon="2.920297">
        <ele>39.854429</ele>
        <time>2022-07-26T14:19:07.017Z</time>
      </trkpt>
      <trkpt lat="42.686344" lon="2.920290">
        <ele>39.893704</ele>
        <time>2022-07-26T14:19:08.149Z</time>
      </trkpt>
      <trkpt lat="42.686498" lon="2.920141">
        <ele>40.077737</ele>
        <time>2022-07-26T14:19:13.241Z</time>
      </trkpt>
      <trkpt lat="42.686520" lon="2.920075">
        <ele>40.129614</ele>
        <time>2022-07-26T14:19:14.701Z</time>
      </trkpt>
      <trkpt lat="42.686531" lon="2.920005">
        <ele>40.180855</ele>
        <time>2022-07-26T14:19:16.152Z</time>
      </trkpt>
      <trkpt lat="42.686497" lon="2.919811">
        <ele>40.323622</ele>
        <time>2022-07-26T14:19:20.253Z</time>
      </trkpt>
      <trkpt lat="42.686451" lon="2.919736">
        <ele>40.393545</ele>
        <time>2022-07-26T14:19:22.204Z</time>
      </trkpt>
      <trkpt lat="42.686470" lon="2.919294">
        <ele>40.948950</ele>
        <time>2022-07-26T14:19:31.928Z</time>
      </trkpt>
      <trkpt lat="42.686537" lon="2.919041">
        <ele>41.298475</ele>
        <time>2022-07-26T14:19:37.889Z</time>
      </trkpt>
      <trkpt lat="42.686553" lon="2.918981">
        <ele>41.381433</ele>
        <time>2022-07-26T14:19:39.382Z</time>
      </trkpt>
      <trkpt lat="42.686791" lon="2.918190">
        <ele>42.492326</ele>
        <time>2022-07-26T14:19:59.460Z</time>
      </trkpt>
      <trkpt lat="42.686933" lon="2.917702">
        <ele>43.174488</ele>
        <time>2022-07-26T14:20:10.835Z</time>
      </trkpt>
      <trkpt lat="42.686932" lon="2.917740">
        <ele>43.223910</ele>
        <time>2022-07-26T14:20:11.549Z</time>
      </trkpt>
      <trkpt lat="42.687000" lon="2.917420">
        <ele>43.597052</ele>
        <time>2022-07-26T14:20:17.881Z</time>
      </trkpt>
      <trkpt lat="42.687080" lon="2.917110">
        <ele>43.586602</ele>
        <time>2022-07-26T14:20:24.126Z</time>
      </trkpt>
      <trkpt lat="42.687141" lon="2.916830">
        <ele>43.577314</ele>
        <time>2022-07-26T14:20:29.678Z</time>
      </trkpt>
      <trkpt lat="42.687271" lon="2.916490">
        <ele>43.565124</ele>
        <time>2022-07-26T14:20:36.962Z</time>
      </trkpt>
      <trkpt lat="42.687561" lon="2.915890">
        <ele>43.542285</ele>
        <time>2022-07-26T14:20:50.612Z</time>
      </trkpt>
      <trkpt lat="42.687889" lon="2.915210">
        <ele>43.425169</ele>
        <time>2022-07-26T14:21:06.072Z</time>
      </trkpt>
      <trkpt lat="42.688061" lon="2.914840">
        <ele>43.111458</ele>
        <time>2022-07-26T14:21:14.394Z</time>
      </trkpt>
      <trkpt lat="42.688351" lon="2.914240">
        <ele>42.596885</ele>
        <time>2022-07-26T14:21:28.046Z</time>
      </trkpt>
      <trkpt lat="42.688190" lon="2.913770">
        <ele>42.225312</ele>
        <time>2022-07-26T14:21:37.902Z</time>
      </trkpt>
      <trkpt lat="42.688167" lon="2.913748">
        <ele>42.197903</ele>
        <time>2022-07-26T14:21:38.628Z</time>
      </trkpt>
      <trkpt lat="42.688285" lon="2.913451">
        <ele>41.955977</ele>
        <time>2022-07-26T14:21:43.533Z</time>
      </trkpt>
      <trkpt lat="42.688443" lon="2.913214">
        <ele>41.771150</ele>
        <time>2022-07-26T14:21:48.392Z</time>
      </trkpt>
      <trkpt lat="42.688466" lon="2.913190">
        <ele>41.773906</ele>
        <time>2022-07-26T14:21:49.016Z</time>
      </trkpt>
      <trkpt lat="42.688793" lon="2.912931">
        <ele>41.809877</ele>
        <time>2022-07-26T14:21:57.735Z</time>
      </trkpt>
      <trkpt lat="42.688945" lon="2.912769">
        <ele>41.828234</ele>
        <time>2022-07-26T14:22:02.440Z</time>
      </trkpt>
      <trkpt lat="42.688969" lon="2.912728">
        <ele>41.831896</ele>
        <time>2022-07-26T14:22:03.374Z</time>
      </trkpt>
      <trkpt lat="42.689244" lon="2.912122">
        <ele>41.881663</ele>
        <time>2022-07-26T14:22:15.893Z</time>
      </trkpt>
      <trkpt lat="42.689502" lon="2.911367">
        <ele>41.944528</ele>
        <time>2022-07-26T14:22:30.918Z</time>
      </trkpt>
      <trkpt lat="42.689724" lon="2.911520">
        <ele>42.035305</ele>
        <time>2022-07-26T14:22:37.136Z</time>
      </trkpt>
      <trkpt lat="42.690384" lon="2.910080">
        <ele>42.490306</ele>
        <time>2022-07-26T14:23:07.370Z</time>
      </trkpt>
      <trkpt lat="42.690371" lon="2.910028">
        <ele>42.505032</ele>
        <time>2022-07-26T14:23:08.322Z</time>
      </trkpt>
      <trkpt lat="42.690445" lon="2.909771">
        <ele>42.579037</ele>
        <time>2022-07-26T14:23:13.198Z</time>
      </trkpt>
      <trkpt lat="42.690661" lon="2.909187">
        <ele>43.090097</ele>
        <time>2022-07-26T14:23:25.461Z</time>
      </trkpt>
      <trkpt lat="42.690745" lon="2.908959">
        <ele>43.301943</ele>
        <time>2022-07-26T14:23:30.391Z</time>
      </trkpt>
      <trkpt lat="42.690993" lon="2.908218">
        <ele>43.978256</ele>
        <time>2022-07-26T14:23:47.192Z</time>
      </trkpt>
      <trkpt lat="42.691288" lon="2.907528">
        <ele>44.647635</ele>
        <time>2022-07-26T14:24:04.692Z</time>
      </trkpt>
      <trkpt lat="42.691904" lon="2.906324">
        <ele>46.402544</ele>
        <time>2022-07-26T14:24:37.709Z</time>
      </trkpt>
      <trkpt lat="42.692227" lon="2.905665">
        <ele>47.350094</ele>
        <time>2022-07-26T14:24:54.123Z</time>
      </trkpt>
      <trkpt lat="42.692342" lon="2.905451">
        <ele>47.644106</ele>
        <time>2022-07-26T14:24:59.727Z</time>
      </trkpt>
      <trkpt lat="42.692937" lon="2.904459">
        <ele>48.862146</ele>
        <time>2022-07-26T14:25:26.856Z</time>
      </trkpt>
      <trkpt lat="42.693252" lon="2.903894">
        <ele>49.536765</ele>
        <time>2022-07-26T14:25:41.540Z</time>
      </trkpt>
      <trkpt lat="42.693776" lon="2.902873">
        <ele>50.125548</ele>
        <time>2022-07-26T14:26:06.676Z</time>
      </trkpt>
      <trkpt lat="42.694008" lon="2.902426">
        <ele>50.276455</ele>
        <time>2022-07-26T14:26:17.498Z</time>
      </trkpt>
      <trkpt lat="42.694242" lon="2.901965">
        <ele>50.430956</ele>
        <time>2022-07-26T14:26:27.217Z</time>
      </trkpt>
      <trkpt lat="42.694491" lon="2.901560">
        <ele>50.492968</ele>
        <time>2022-07-26T14:26:35.347Z</time>
      </trkpt>
      <trkpt lat="42.694535" lon="2.901489">
        <ele>50.408225</ele>
        <time>2022-07-26T14:26:36.713Z</time>
      </trkpt>
      <trkpt lat="42.694584" lon="2.901435">
        <ele>50.329938</ele>
        <time>2022-07-26T14:26:37.933Z</time>
      </trkpt>
      <trkpt lat="42.694633" lon="2.901382">
        <ele>50.252223</ele>
        <time>2022-07-26T14:26:39.111Z</time>
      </trkpt>
      <trkpt lat="42.694905" lon="2.901042">
        <ele>49.793651</ele>
        <time>2022-07-26T14:26:46.108Z</time>
      </trkpt>
      <trkpt lat="42.695242" lon="2.900622">
        <ele>49.226265</ele>
        <time>2022-07-26T14:26:54.726Z</time>
      </trkpt>
      <trkpt lat="42.695566" lon="2.900218">
        <ele>48.680644</ele>
        <time>2022-07-26T14:27:03.237Z</time>
      </trkpt>
      <trkpt lat="42.696076" lon="2.899582">
        <ele>48.118251</ele>
        <time>2022-07-26T14:27:17.252Z</time>
      </trkpt>
      <trkpt lat="42.696101" lon="2.899551">
        <ele>48.101043</ele>
        <time>2022-07-26T14:27:17.943Z</time>
      </trkpt>
      <trkpt lat="42.696108" lon="2.898982">
        <ele>47.888250</ele>
        <time>2022-07-26T14:27:26.665Z</time>
      </trkpt>
      <trkpt lat="42.696114" lon="2.898772">
        <ele>47.809667</ele>
        <time>2022-07-26T14:27:30.004Z</time>
      </trkpt>
      <trkpt lat="42.696117" lon="2.898516">
        <ele>47.713931</ele>
        <time>2022-07-26T14:27:33.985Z</time>
      </trkpt>
      <trkpt lat="42.696141" lon="2.897892">
        <ele>47.480283</ele>
        <time>2022-07-26T14:27:43.977Z</time>
      </trkpt>
      <trkpt lat="42.696174" lon="2.897762">
        <ele>47.428856</ele>
        <time>2022-07-26T14:27:46.122Z</time>
      </trkpt>
      <trkpt lat="42.696352" lon="2.897285">
        <ele>46.996849</ele>
        <time>2022-07-26T14:27:54.426Z</time>
      </trkpt>
      <trkpt lat="42.696517" lon="2.896921">
        <ele>46.631088</ele>
        <time>2022-07-26T14:28:00.626Z</time>
      </trkpt>
      <trkpt lat="42.696684" lon="2.896496">
        <ele>46.218918</ele>
        <time>2022-07-26T14:28:07.299Z</time>
      </trkpt>
      <trkpt lat="42.696771" lon="2.896254">
        <ele>45.988514</ele>
        <time>2022-07-26T14:28:10.899Z</time>
      </trkpt>
      <trkpt lat="42.696808" lon="2.896160">
        <ele>45.897317</ele>
        <time>2022-07-26T14:28:12.347Z</time>
      </trkpt>
      <trkpt lat="42.696880" lon="2.895955">
        <ele>45.703000</ele>
        <time>2022-07-26T14:28:15.313Z</time>
      </trkpt>
      <trkpt lat="42.696919" lon="2.895857">
        <ele>45.607688</ele>
        <time>2022-07-26T14:28:16.794Z</time>
      </trkpt>
      <trkpt lat="42.697009" lon="2.895678">
        <ele>45.422202</ele>
        <time>2022-07-26T14:28:19.658Z</time>
      </trkpt>
      <trkpt lat="42.697138" lon="2.895449">
        <ele>45.053353</ele>
        <time>2022-07-26T14:28:23.388Z</time>
      </trkpt>
      <trkpt lat="42.697263" lon="2.895193">
        <ele>44.562168</ele>
        <time>2022-07-26T14:28:27.375Z</time>
      </trkpt>
      <trkpt lat="42.697452" lon="2.894956">
        <ele>44.003275</ele>
        <time>2022-07-26T14:28:31.898Z</time>
      </trkpt>
      <trkpt lat="42.697548" lon="2.894836">
        <ele>43.719806</ele>
        <time>2022-07-26T14:28:34.192Z</time>
      </trkpt>
      <trkpt lat="42.697678" lon="2.894956">
        <ele>43.378210</ele>
        <time>2022-07-26T14:28:37.051Z</time>
      </trkpt>
      <trkpt lat="42.697701" lon="2.894756">
        <ele>43.054696</ele>
        <time>2022-07-26T14:28:47.391Z</time>
      </trkpt>
      <trkpt lat="42.697690" lon="2.894594">
        <ele>42.794697</ele>
        <time>2022-07-26T14:28:55.712Z</time>
      </trkpt>
      <trkpt lat="42.697672" lon="2.894228">
        <ele>42.208475</ele>
        <time>2022-07-26T14:29:14.423Z</time>
      </trkpt>
      <trkpt lat="42.697646" lon="2.893968">
        <ele>41.789134</ele>
        <time>2022-07-26T14:29:27.818Z</time>
      </trkpt>
      <trkpt lat="42.697577" lon="2.893278">
        <ele>40.655363</ele>
        <time>2022-07-26T14:30:03.420Z</time>
      </trkpt>
      <trkpt lat="42.697548" lon="2.892659">
        <ele>39.635675</ele>
        <time>2022-07-26T14:30:35.094Z</time>
      </trkpt>
      <trkpt lat="42.697505" lon="2.892532">
        <ele>39.405799</ele>
        <time>2022-07-26T14:30:42.226Z</time>
      </trkpt>
      <trkpt lat="42.697611" lon="2.892444">
        <ele>39.128040</ele>
        <time>2022-07-26T14:30:44.544Z</time>
      </trkpt>
      <trkpt lat="42.697633" lon="2.892421">
        <ele>39.065980</ele>
        <time>2022-07-26T14:30:45.027Z</time>
      </trkpt>
      <trkpt lat="42.698257" lon="2.891841">
        <ele>37.378608</ele>
        <time>2022-07-26T14:30:58.599Z</time>
      </trkpt>
      <trkpt lat="42.698332" lon="2.891950">
        <ele>37.258420</ele>
        <time>2022-07-26T14:31:00.526Z</time>
      </trkpt>
      <trkpt lat="42.698822" lon="2.892310">
        <ele>36.648520</ele>
        <time>2022-07-26T14:31:10.176Z</time>
      </trkpt>
      <trkpt lat="42.699020" lon="2.891987">
        <ele>36.309963</ele>
        <time>2022-07-26T14:31:31.654Z</time>
      </trkpt>
      <trkpt lat="42.699207" lon="2.891683">
        <ele>35.990867</ele>
        <time>2022-07-26T14:31:51.925Z</time>
      </trkpt>
      <trkpt lat="42.699295" lon="2.891536">
        <ele>35.838258</ele>
        <time>2022-07-26T14:31:55.058Z</time>
      </trkpt>
      <trkpt lat="42.699364" lon="2.891276">
        <ele>35.615754</ele>
        <time>2022-07-26T14:32:00.103Z</time>
      </trkpt>
      <trkpt lat="42.698966" lon="2.891082">
        <ele>35.577381</ele>
        <time>2022-07-26T14:32:10.315Z</time>
      </trkpt>
      <trkpt lat="42.699043" lon="2.890749">
        <ele>35.757371</ele>
        <time>2022-07-26T14:32:16.147Z</time>
      </trkpt>
      <trkpt lat="42.699086" lon="2.890615">
        <ele>35.832759</ele>
        <time>2022-07-26T14:32:18.543Z</time>
      </trkpt>
      <trkpt lat="42.699308" lon="2.889722">
        <ele>36.318810</ele>
        <time>2022-07-26T14:32:36.237Z</time>
      </trkpt>
      <trkpt lat="42.699806" lon="2.889679">
        <ele>36.668887</ele>
        <time>2022-07-26T14:32:49.158Z</time>
      </trkpt>
      <trkpt lat="42.700305" lon="2.889635">
        <ele>36.778899</ele>
        <time>2022-07-26T14:33:02.078Z</time>
      </trkpt>
      <trkpt lat="42.699878" lon="2.889175">
        <ele>36.895281</ele>
        <time>2022-07-26T14:33:14.498Z</time>
      </trkpt>
      <trkpt lat="42.700155" lon="2.889034">
        <ele>36.958481</ele>
        <time>2022-07-26T14:33:20.965Z</time>
      </trkpt>
      <trkpt lat="42.700089" lon="2.890225">
        <ele>37.142658</ele>
        <time>2022-07-26T14:33:43.657Z</time>
      </trkpt>
      <trkpt lat="42.700023" lon="2.891415">
        <ele>37.322863</ele>
        <time>2022-07-26T14:34:06.348Z</time>
      </trkpt>
      <trkpt lat="42.699957" lon="2.892606">
        <ele>37.994054</ele>
        <time>2022-07-26T14:34:29.040Z</time>
      </trkpt>
      <trkpt lat="42.699891" lon="2.893796">
        <ele>39.340131</ele>
        <time>2022-07-26T14:34:51.734Z</time>
      </trkpt>
      <trkpt lat="42.699825" lon="2.894987">
        <ele>40.630495</ele>
        <time>2022-07-26T14:35:14.429Z</time>
      </trkpt>
      <trkpt lat="42.699759" lon="2.896178">
        <ele>41.824374</ele>
        <time>2022-07-26T14:35:37.121Z</time>
      </trkpt>
      <trkpt lat="42.699693" lon="2.897368">
        <ele>43.027845</ele>
        <time>2022-07-26T14:35:59.814Z</time>
      </trkpt>
      <trkpt lat="42.699627" lon="2.898559">
        <ele>44.254730</ele>
        <time>2022-07-26T14:36:22.509Z</time>
      </trkpt>
      <trkpt lat="42.699561" lon="2.899750">
        <ele>44.817866</ele>
        <time>2022-07-26T14:36:45.202Z</time>
      </trkpt>
      <trkpt lat="42.699495" lon="2.900940">
        <ele>43.602579</ele>
        <time>2022-07-26T14:37:07.894Z</time>
      </trkpt>
      <trkpt lat="42.699429" lon="2.902131">
        <ele>42.270083</ele>
        <time>2022-07-26T14:37:30.594Z</time>
      </trkpt>
      <trkpt lat="42.699363" lon="2.903321">
        <ele>40.531237</ele>
        <time>2022-07-26T14:37:53.295Z</time>
      </trkpt>
      <trkpt lat="42.699297" lon="2.904512">
        <ele>39.252476</ele>
        <time>2022-07-26T14:38:15.987Z</time>
      </trkpt>
      <trkpt lat="42.699231" lon="2.905703">
        <ele>40.198344</ele>
        <time>2022-07-26T14:38:38.679Z</time>
      </trkpt>
      <trkpt lat="42.699165" lon="2.906893">
        <ele>41.199441</ele>
        <time>2022-07-26T14:39:01.374Z</time>
      </trkpt>
      <trkpt lat="42.699099" lon="2.908084">
        <ele>42.604842</ele>
        <time>2022-07-26T14:39:24.069Z</time>
      </trkpt>
      <trkpt lat="42.699291" lon="2.908878">
        <ele>43.588397</ele>
        <time>2022-07-26T14:39:41.629Z</time>
      </trkpt>
      <trkpt lat="42.699445" lon="2.910452">
        <ele>43.961684</ele>
        <time>2022-07-26T14:40:10.925Z</time>
      </trkpt>
      <trkpt lat="42.699484" lon="2.911067">
        <ele>43.986904</ele>
        <time>2022-07-26T14:40:20.166Z</time>
      </trkpt>
      <trkpt lat="42.699441" lon="2.911752">
        <ele>43.924553</ele>
        <time>2022-07-26T14:40:29.949Z</time>
      </trkpt>
      <trkpt lat="42.699264" lon="2.912892">
        <ele>43.365630</ele>
        <time>2022-07-26T14:40:45.992Z</time>
      </trkpt>
      <trkpt lat="42.698910" lon="2.914277">
        <ele>43.101709</ele>
        <time>2022-07-26T14:41:09.132Z</time>
      </trkpt>
      <trkpt lat="42.698896" lon="2.914891">
        <ele>43.561408</ele>
        <time>2022-07-26T14:41:20.940Z</time>
      </trkpt>
      <trkpt lat="42.698981" lon="2.915265">
        <ele>43.854362</ele>
        <time>2022-07-26T14:41:28.850Z</time>
      </trkpt>
      <trkpt lat="42.699280" lon="2.916088">
        <ele>44.541382</ele>
        <time>2022-07-26T14:41:48.150Z</time>
      </trkpt>
      <trkpt lat="42.699894" lon="2.919314">
        <ele>47.666427</ele>
        <time>2022-07-26T14:42:56.516Z</time>
      </trkpt>
      <trkpt lat="42.700337" lon="2.920682">
        <ele>48.598943</ele>
        <time>2022-07-26T14:43:24.036Z</time>
      </trkpt>
      <trkpt lat="42.700400" lon="2.921058">
        <ele>48.745428</ele>
        <time>2022-07-26T14:43:30.842Z</time>
      </trkpt>
      <trkpt lat="42.700548" lon="2.922951">
        <ele>48.758678</ele>
        <time>2022-07-26T14:44:02.105Z</time>
      </trkpt>
      <trkpt lat="42.700648" lon="2.923939">
        <ele>48.301857</ele>
        <time>2022-07-26T14:44:17.594Z</time>
      </trkpt>
      <trkpt lat="42.700560" lon="2.924586">
        <ele>47.802964</ele>
        <time>2022-07-26T14:44:27.086Z</time>
      </trkpt>
      <trkpt lat="42.700366" lon="2.925084">
        <ele>47.375606</ele>
        <time>2022-07-26T14:44:34.887Z</time>
      </trkpt>
      <trkpt lat="42.699479" lon="2.926886">
        <ele>44.812680</ele>
        <time>2022-07-26T14:45:03.265Z</time>
      </trkpt>
      <trkpt lat="42.699185" lon="2.927443">
        <ele>43.886120</ele>
        <time>2022-07-26T14:45:12.103Z</time>
      </trkpt>
      <trkpt lat="42.698952" lon="2.927924">
        <ele>43.206108</ele>
        <time>2022-07-26T14:45:19.775Z</time>
      </trkpt>
      <trkpt lat="42.698809" lon="2.928232">
        <ele>42.812422</ele>
        <time>2022-07-26T14:45:24.590Z</time>
      </trkpt>
      <trkpt lat="42.698732" lon="2.928683">
        <ele>42.312082</ele>
        <time>2022-07-26T14:45:30.804Z</time>
      </trkpt>
      <trkpt lat="42.698702" lon="2.928709">
        <ele>42.259782</ele>
        <time>2022-07-26T14:45:31.454Z</time>
      </trkpt>
      <trkpt lat="42.698597" lon="2.928949">
        <ele>41.957956</ele>
        <time>2022-07-26T14:45:35.306Z</time>
      </trkpt>
      <trkpt lat="42.698662" lon="2.929237">
        <ele>41.632391</ele>
        <time>2022-07-26T14:45:39.416Z</time>
      </trkpt>
      <trkpt lat="42.698688" lon="2.929434">
        <ele>41.416102</ele>
        <time>2022-07-26T14:45:42.245Z</time>
      </trkpt>
      <trkpt lat="42.698884" lon="2.930267">
        <ele>40.563028</ele>
        <time>2022-07-26T14:45:54.293Z</time>
      </trkpt>
      <trkpt lat="42.699323" lon="2.931461">
        <ele>39.395184</ele>
        <time>2022-07-26T14:46:12.984Z</time>
      </trkpt>
      <trkpt lat="42.699508" lon="2.932126">
        <ele>38.780032</ele>
        <time>2022-07-26T14:46:22.734Z</time>
      </trkpt>
      <trkpt lat="42.699618" lon="2.932584">
        <ele>38.429930</ele>
        <time>2022-07-26T14:46:29.442Z</time>
      </trkpt>
      <trkpt lat="42.699961" lon="2.933880">
        <ele>37.429062</ele>
        <time>2022-07-26T14:46:48.837Z</time>
      </trkpt>
      <trkpt lat="42.700073" lon="2.934293">
        <ele>37.109201</ele>
        <time>2022-07-26T14:46:55.295Z</time>
      </trkpt>
      <trkpt lat="42.700764" lon="2.936048">
        <ele>36.416835</ele>
        <time>2022-07-26T14:47:25.195Z</time>
      </trkpt>
      <trkpt lat="42.700972" lon="2.936660">
        <ele>36.281502</ele>
        <time>2022-07-26T14:47:35.842Z</time>
      </trkpt>
      <trkpt lat="42.701240" lon="2.937933">
        <ele>36.822374</ele>
        <time>2022-07-26T14:47:58.645Z</time>
      </trkpt>
      <trkpt lat="42.701415" lon="2.938512">
        <ele>37.078086</ele>
        <time>2022-07-26T14:48:10.345Z</time>
      </trkpt>
      <trkpt lat="42.702714" lon="2.940837">
        <ele>39.568800</ele>
        <time>2022-07-26T14:49:09.530Z</time>
      </trkpt>
      <trkpt lat="42.702978" lon="2.941426">
        <ele>39.913571</ele>
        <time>2022-07-26T14:49:22.823Z</time>
      </trkpt>
      <trkpt lat="42.703599" lon="2.943357">
        <ele>40.907763</ele>
        <time>2022-07-26T14:50:00.309Z</time>
      </trkpt>
      <trkpt lat="42.703708" lon="2.943732">
        <ele>41.055343</ele>
        <time>2022-07-26T14:50:07.189Z</time>
      </trkpt>
      <trkpt lat="42.704177" lon="2.945269">
        <ele>41.653679</ele>
        <time>2022-07-26T14:50:36.969Z</time>
      </trkpt>
      <trkpt lat="42.704409" lon="2.946211">
        <ele>41.845920</ele>
        <time>2022-07-26T14:50:55.355Z</time>
      </trkpt>
      <trkpt lat="42.704729" lon="2.947475">
        <ele>42.104609</ele>
        <time>2022-07-26T14:51:17.482Z</time>
      </trkpt>
      <trkpt lat="42.705193" lon="2.949414">
        <ele>41.191787</ele>
        <time>2022-07-26T14:51:47.708Z</time>
      </trkpt>
      <trkpt lat="42.706139" lon="2.952672">
        <ele>39.019748</ele>
        <time>2022-07-26T14:52:38.058Z</time>
      </trkpt>
      <trkpt lat="42.706273" lon="2.953180">
        <ele>38.676084</ele>
        <time>2022-07-26T14:52:46.201Z</time>
      </trkpt>
      <trkpt lat="42.706351" lon="2.953613">
        <ele>38.392219</ele>
        <time>2022-07-26T14:52:52.951Z</time>
      </trkpt>
      <trkpt lat="42.706275" lon="2.953794">
        <ele>38.259485</ele>
        <time>2022-07-26T14:52:56.057Z</time>
      </trkpt>
      <trkpt lat="42.706285" lon="2.954002">
        <ele>38.126763</ele>
        <time>2022-07-26T14:52:59.051Z</time>
      </trkpt>
      <trkpt lat="42.706326" lon="2.954103">
        <ele>38.053293</ele>
        <time>2022-07-26T14:53:00.731Z</time>
      </trkpt>
      <trkpt lat="42.706469" lon="2.954230">
        <ele>37.905335</ele>
        <time>2022-07-26T14:53:04.117Z</time>
      </trkpt>
      <trkpt lat="42.706542" lon="2.954242">
        <ele>37.841622</ele>
        <time>2022-07-26T14:53:05.553Z</time>
      </trkpt>
      <trkpt lat="42.706629" lon="2.954308">
        <ele>37.707595</ele>
        <time>2022-07-26T14:53:07.486Z</time>
      </trkpt>
      <trkpt lat="42.706693" lon="2.954462">
        <ele>37.530064</ele>
        <time>2022-07-26T14:53:10.091Z</time>
      </trkpt>
      <trkpt lat="42.707074" lon="2.955767">
        <ele>36.121016</ele>
        <time>2022-07-26T14:53:29.434Z</time>
      </trkpt>
      <trkpt lat="42.707355" lon="2.957016">
        <ele>34.426415</ele>
        <time>2022-07-26T14:53:46.646Z</time>
      </trkpt>
      <trkpt lat="42.707545" lon="2.958229">
        <ele>32.346342</ele>
        <time>2022-07-26T14:54:02.160Z</time>
      </trkpt>
      <trkpt lat="42.707705" lon="2.958938">
        <ele>31.112262</ele>
        <time>2022-07-26T14:54:11.322Z</time>
      </trkpt>
      <trkpt lat="42.708087" lon="2.959892">
        <ele>29.392696</ele>
        <time>2022-07-26T14:54:24.817Z</time>
      </trkpt>
      <trkpt lat="42.708900" lon="2.961352">
        <ele>26.988990</ele>
        <time>2022-07-26T14:54:48.842Z</time>
      </trkpt>
      <trkpt lat="42.709116" lon="2.961971">
        <ele>26.495504</ele>
        <time>2022-07-26T14:54:58.589Z</time>
      </trkpt>
      <trkpt lat="42.709276" lon="2.962687">
        <ele>25.956559</ele>
        <time>2022-07-26T14:55:09.605Z</time>
      </trkpt>
      <trkpt lat="42.709344" lon="2.963471">
        <ele>25.572316</ele>
        <time>2022-07-26T14:55:21.755Z</time>
      </trkpt>
      <trkpt lat="42.709318" lon="2.965460">
        <ele>25.187363</ele>
        <time>2022-07-26T14:55:53.226Z</time>
      </trkpt>
      <trkpt lat="42.709407" lon="2.966967">
        <ele>24.869523</ele>
        <time>2022-07-26T14:56:16.880Z</time>
      </trkpt>
      <trkpt lat="42.709375" lon="2.968661">
        <ele>24.349152</ele>
        <time>2022-07-26T14:56:43.106Z</time>
      </trkpt>
      <trkpt lat="42.709384" lon="2.969040">
        <ele>24.174486</ele>
        <time>2022-07-26T14:56:48.972Z</time>
      </trkpt>
      <trkpt lat="42.709438" lon="2.971461">
        <ele>23.105280</ele>
        <time>2022-07-26T14:57:23.994Z</time>
      </trkpt>
      <trkpt lat="42.709376" lon="2.971580">
        <ele>23.044841</ele>
        <time>2022-07-26T14:57:26.100Z</time>
      </trkpt>
      <trkpt lat="42.709096" lon="2.971732">
        <ele>22.874867</ele>
        <time>2022-07-26T14:57:32.151Z</time>
      </trkpt>
      <trkpt lat="42.708975" lon="2.971975">
        <ele>22.753249</ele>
        <time>2022-07-26T14:57:36.468Z</time>
      </trkpt>
      <trkpt lat="42.708903" lon="2.972360">
        <ele>22.588651</ele>
        <time>2022-07-26T14:57:42.494Z</time>
      </trkpt>
      <trkpt lat="42.708782" lon="2.974257">
        <ele>23.201654</ele>
        <time>2022-07-26T14:58:15.448Z</time>
      </trkpt>
      <trkpt lat="42.708690" lon="2.975076">
        <ele>23.565014</ele>
        <time>2022-07-26T14:58:32.069Z</time>
      </trkpt>
      <trkpt lat="42.708587" lon="2.975694">
        <ele>24.011975</ele>
        <time>2022-07-26T14:58:44.588Z</time>
      </trkpt>
      <trkpt lat="42.708347" lon="2.976631">
        <ele>24.711864</ele>
        <time>2022-07-26T14:59:03.875Z</time>
      </trkpt>
      <trkpt lat="42.707828" lon="2.978154">
        <ele>25.543012</ele>
        <time>2022-07-26T14:59:34.457Z</time>
      </trkpt>
      <trkpt lat="42.707405" lon="2.979841">
        <ele>26.067587</ele>
        <time>2022-07-26T15:00:05.445Z</time>
      </trkpt>
      <trkpt lat="42.707385" lon="2.979932">
        <ele>26.076429</ele>
        <time>2022-07-26T15:00:07.117Z</time>
      </trkpt>
      <trkpt lat="42.707026" lon="2.981590">
        <ele>26.237329</ele>
        <time>2022-07-26T15:00:35.891Z</time>
      </trkpt>
      <trkpt lat="42.706599" lon="2.983861">
        <ele>25.962048</ele>
        <time>2022-07-26T15:01:13.670Z</time>
      </trkpt>
      <trkpt lat="42.706271" lon="2.984866">
        <ele>25.493266</ele>
        <time>2022-07-26T15:01:29.869Z</time>
      </trkpt>
      <trkpt lat="42.706235" lon="2.985193">
        <ele>25.290285</ele>
        <time>2022-07-26T15:01:34.729Z</time>
      </trkpt>
      <trkpt lat="42.706336" lon="2.985482">
        <ele>25.093831</ele>
        <time>2022-07-26T15:01:39.495Z</time>
      </trkpt>
      <trkpt lat="42.706293" lon="2.985851">
        <ele>24.864477</ele>
        <time>2022-07-26T15:01:44.849Z</time>
      </trkpt>
      <trkpt lat="42.706345" lon="2.986128">
        <ele>24.688970</ele>
        <time>2022-07-26T15:01:48.786Z</time>
      </trkpt>
      <trkpt lat="42.706438" lon="2.986321">
        <ele>24.547289</ele>
        <time>2022-07-26T15:01:52.024Z</time>
      </trkpt>
      <trkpt lat="42.706499" lon="2.986401">
        <ele>24.476517</ele>
        <time>2022-07-26T15:01:53.577Z</time>
      </trkpt>
      <trkpt lat="42.706730" lon="2.986559">
        <ele>24.337171</ele>
        <time>2022-07-26T15:01:58.508Z</time>
      </trkpt>
      <trkpt lat="42.706858" lon="2.986582">
        <ele>24.292892</ele>
        <time>2022-07-26T15:02:00.922Z</time>
      </trkpt>
      <trkpt lat="42.707111" lon="2.986511">
        <ele>24.204299</ele>
        <time>2022-07-26T15:02:06.047Z</time>
      </trkpt>
      <trkpt lat="42.707314" lon="2.986297">
        <ele>24.116234</ele>
        <time>2022-07-26T15:02:11.101Z</time>
      </trkpt>
      <trkpt lat="42.707385" lon="2.986149">
        <ele>24.071691</ele>
        <time>2022-07-26T15:02:13.736Z</time>
      </trkpt>
      <trkpt lat="42.707493" lon="2.986114">
        <ele>24.033616</ele>
        <time>2022-07-26T15:02:15.960Z</time>
      </trkpt>
      <trkpt lat="42.707595" lon="2.986176">
        <ele>23.995304</ele>
        <time>2022-07-26T15:02:18.522Z</time>
      </trkpt>
      <trkpt lat="42.707636" lon="2.986417">
        <ele>23.932962</ele>
        <time>2022-07-26T15:02:22.570Z</time>
      </trkpt>
      <trkpt lat="42.707590" lon="2.986542">
        <ele>23.897731</ele>
        <time>2022-07-26T15:02:25.047Z</time>
      </trkpt>
      <trkpt lat="42.707369" lon="2.986816">
        <ele>23.795200</ele>
        <time>2022-07-26T15:02:32.255Z</time>
      </trkpt>
      <trkpt lat="42.707268" lon="2.986990">
        <ele>23.829637</ele>
        <time>2022-07-26T15:02:36.383Z</time>
      </trkpt>
      <trkpt lat="42.707177" lon="2.987236">
        <ele>23.942618</ele>
        <time>2022-07-26T15:02:41.351Z</time>
      </trkpt>
      <trkpt lat="42.706714" lon="2.989311">
        <ele>24.755960</ele>
        <time>2022-07-26T15:03:21.388Z</time>
      </trkpt>
      <trkpt lat="42.706688" lon="2.989469">
        <ele>24.729304</ele>
        <time>2022-07-26T15:03:23.982Z</time>
      </trkpt>
      <trkpt lat="42.706650" lon="2.989643">
        <ele>24.699419</ele>
        <time>2022-07-26T15:03:26.936Z</time>
      </trkpt>
      <trkpt lat="42.706484" lon="2.991440">
        <ele>24.401241</ele>
        <time>2022-07-26T15:03:54.644Z</time>
      </trkpt>
      <trkpt lat="42.706451" lon="2.991927">
        <ele>24.309311</ele>
        <time>2022-07-26T15:04:01.865Z</time>
      </trkpt>
      <trkpt lat="42.706402" lon="2.992922">
        <ele>24.110500</ele>
        <time>2022-07-26T15:04:17.097Z</time>
      </trkpt>
      <trkpt lat="42.706398" lon="2.993028">
        <ele>24.089340</ele>
        <time>2022-07-26T15:04:18.817Z</time>
      </trkpt>
      <trkpt lat="42.706393" lon="2.994486">
        <ele>23.805846</ele>
        <time>2022-07-26T15:04:42.511Z</time>
      </trkpt>
      <trkpt lat="42.706377" lon="2.994695">
        <ele>23.767365</ele>
        <time>2022-07-26T15:04:45.927Z</time>
      </trkpt>
      <trkpt lat="42.706202" lon="2.996615">
        <ele>23.369051</ele>
        <time>2022-07-26T15:05:15.989Z</time>
      </trkpt>
      <trkpt lat="42.706173" lon="2.997102">
        <ele>23.125439</ele>
        <time>2022-07-26T15:05:23.048Z</time>
      </trkpt>
      <trkpt lat="42.706095" lon="2.997880">
        <ele>22.733937</ele>
        <time>2022-07-26T15:05:34.554Z</time>
      </trkpt>
      <trkpt lat="42.706088" lon="2.997941">
        <ele>22.703154</ele>
        <time>2022-07-26T15:05:35.454Z</time>
      </trkpt>
      <trkpt lat="42.706077" lon="2.998006">
        <ele>22.669897</ele>
        <time>2022-07-26T15:05:36.430Z</time>
      </trkpt>
      <trkpt lat="42.706010" lon="2.998403">
        <ele>22.466801</ele>
        <time>2022-07-26T15:05:42.422Z</time>
      </trkpt>
      <trkpt lat="42.705876" lon="2.998986">
        <ele>22.178305</ele>
        <time>2022-07-26T15:05:51.363Z</time>
      </trkpt>
      <trkpt lat="42.705854" lon="2.999085">
        <ele>22.141542</ele>
        <time>2022-07-26T15:05:52.915Z</time>
      </trkpt>
      <trkpt lat="42.705842" lon="2.999144">
        <ele>22.119782</ele>
        <time>2022-07-26T15:05:53.798Z</time>
      </trkpt>
      <trkpt lat="42.705820" lon="2.999242">
        <ele>22.083359</ele>
        <time>2022-07-26T15:05:55.293Z</time>
      </trkpt>
      <trkpt lat="42.705762" lon="2.999483">
        <ele>21.993219</ele>
        <time>2022-07-26T15:05:58.994Z</time>
      </trkpt>
      <trkpt lat="42.705668" lon="3.000003">
        <ele>21.802875</ele>
        <time>2022-07-26T15:06:06.947Z</time>
      </trkpt>
      <trkpt lat="42.705667" lon="3.000009">
        <ele>21.800688</ele>
        <time>2022-07-26T15:06:07.087Z</time>
      </trkpt>
      <trkpt lat="42.705706" lon="3.001462">
        <ele>21.260806</ele>
        <time>2022-07-26T15:06:29.933Z</time>
      </trkpt>
      <trkpt lat="42.705711" lon="3.001684">
        <ele>21.153548</ele>
        <time>2022-07-26T15:06:33.414Z</time>
      </trkpt>
      <trkpt lat="42.705428" lon="3.003228">
        <ele>20.385075</ele>
        <time>2022-07-26T15:06:56.668Z</time>
      </trkpt>
      <trkpt lat="42.705340" lon="3.003842">
        <ele>20.073701</ele>
        <time>2022-07-26T15:07:05.579Z</time>
      </trkpt>
      <trkpt lat="42.705285" lon="3.004447">
        <ele>19.746498</ele>
        <time>2022-07-26T15:07:14.442Z</time>
      </trkpt>
      <trkpt lat="42.705271" lon="3.004582">
        <ele>19.673321</ele>
        <time>2022-07-26T15:07:16.460Z</time>
      </trkpt>
      <trkpt lat="42.705199" lon="3.005396">
        <ele>19.233261</ele>
        <time>2022-07-26T15:07:28.493Z</time>
      </trkpt>
      <trkpt lat="42.705114" lon="3.005415">
        <ele>19.170345</ele>
        <time>2022-07-26T15:07:30.209Z</time>
      </trkpt>
      <trkpt lat="42.705121" lon="3.005512">
        <ele>19.118030</ele>
        <time>2022-07-26T15:07:31.656Z</time>
      </trkpt>
      <trkpt lat="42.705191" lon="3.005527">
        <ele>19.066272</ele>
        <time>2022-07-26T15:07:33.070Z</time>
      </trkpt>
      <trkpt lat="42.705222" lon="3.006162">
        <ele>18.713406</ele>
        <time>2022-07-26T15:07:42.442Z</time>
      </trkpt>
      <trkpt lat="42.705221" lon="3.006399">
        <ele>18.574961</ele>
        <time>2022-07-26T15:07:46.008Z</time>
      </trkpt>
      <trkpt lat="42.705241" lon="3.007102">
        <ele>18.163997</ele>
        <time>2022-07-26T15:07:56.628Z</time>
      </trkpt>
      <trkpt lat="42.705243" lon="3.007127">
        <ele>18.149307</ele>
        <time>2022-07-26T15:07:56.998Z</time>
      </trkpt>
      <trkpt lat="42.705207" lon="3.007569">
        <ele>17.889532</ele>
        <time>2022-07-26T15:08:03.632Z</time>
      </trkpt>
      <trkpt lat="42.705193" lon="3.007983">
        <ele>17.647438</ele>
        <time>2022-07-26T15:08:09.625Z</time>
      </trkpt>
      <trkpt lat="42.705210" lon="3.008523">
        <ele>17.219043</ele>
        <time>2022-07-26T15:08:17.154Z</time>
      </trkpt>
      <trkpt lat="42.705237" lon="3.009161">
        <ele>16.383408</ele>
        <time>2022-07-26T15:08:25.678Z</time>
      </trkpt>
      <trkpt lat="42.705237" lon="3.009345">
        <ele>16.142809</ele>
        <time>2022-07-26T15:08:28.070Z</time>
      </trkpt>
      <trkpt lat="42.705246" lon="3.009858">
        <ele>15.471815</ele>
        <time>2022-07-26T15:08:34.755Z</time>
      </trkpt>
      <trkpt lat="42.705154" lon="3.010234">
        <ele>14.953617</ele>
        <time>2022-07-26T15:08:39.898Z</time>
      </trkpt>
      <trkpt lat="42.705177" lon="3.010369">
        <ele>14.772408</ele>
        <time>2022-07-26T15:08:41.650Z</time>
      </trkpt>
      <trkpt lat="42.705102" lon="3.010752">
        <ele>14.254117</ele>
        <time>2022-07-26T15:08:46.743Z</time>
      </trkpt>
      <trkpt lat="42.705048" lon="3.010938">
        <ele>13.971230</ele>
        <time>2022-07-26T15:08:49.309Z</time>
      </trkpt>
      <trkpt lat="42.704935" lon="3.010949">
        <ele>13.750868</ele>
        <time>2022-07-26T15:08:51.291Z</time>
      </trkpt>
      <trkpt lat="42.704897" lon="3.011011">
        <ele>13.635467</ele>
        <time>2022-07-26T15:08:52.313Z</time>
      </trkpt>
      <trkpt lat="42.704894" lon="3.011122">
        <ele>13.476696</ele>
        <time>2022-07-26T15:08:53.707Z</time>
      </trkpt>
      <trkpt lat="42.704949" lon="3.011205">
        <ele>13.316944</ele>
        <time>2022-07-26T15:08:55.141Z</time>
      </trkpt>
      <trkpt lat="42.704751" lon="3.011806">
        <ele>12.375493</ele>
        <time>2022-07-26T15:09:03.598Z</time>
      </trkpt>
      <trkpt lat="42.704541" lon="3.012585">
        <ele>11.189429</ele>
        <time>2022-07-26T15:09:14.300Z</time>
      </trkpt>
      <trkpt lat="42.704434" lon="3.013005">
        <ele>10.610582</ele>
        <time>2022-07-26T15:09:20.214Z</time>
      </trkpt>
      <trkpt lat="42.704181" lon="3.013969">
        <ele>9.635574</ele>
        <time>2022-07-26T15:09:34.330Z</time>
      </trkpt>
      <trkpt lat="42.703911" lon="3.014629">
        <ele>8.916078</ele>
        <time>2022-07-26T15:09:44.990Z</time>
      </trkpt>
      <trkpt lat="42.703676" lon="3.015081">
        <ele>8.389781</ele>
        <time>2022-07-26T15:09:52.691Z</time>
      </trkpt>
      <trkpt lat="42.703590" lon="3.015202">
        <ele>8.278949</ele>
        <time>2022-07-26T15:09:54.994Z</time>
      </trkpt>
      <trkpt lat="42.703410" lon="3.015311">
        <ele>8.102431</ele>
        <time>2022-07-26T15:09:58.667Z</time>
      </trkpt>
      <trkpt lat="42.703187" lon="3.015245">
        <ele>7.897964</ele>
        <time>2022-07-26T15:10:02.910Z</time>
      </trkpt>
      <trkpt lat="42.703018" lon="3.014986">
        <ele>7.669915</ele>
        <time>2022-07-26T15:10:07.737Z</time>
      </trkpt>
      <trkpt lat="42.702788" lon="3.014880">
        <ele>7.452350</ele>
        <time>2022-07-26T15:10:12.293Z</time>
      </trkpt>
      <trkpt lat="42.702549" lon="3.014938">
        <ele>7.234840</ele>
        <time>2022-07-26T15:10:17.042Z</time>
      </trkpt>
      <trkpt lat="42.702340" lon="3.015188">
        <ele>6.985525</ele>
        <time>2022-07-26T15:10:22.694Z</time>
      </trkpt>
      <trkpt lat="42.702265" lon="3.015544">
        <ele>6.799074</ele>
        <time>2022-07-26T15:10:28.283Z</time>
      </trkpt>
      <trkpt lat="42.702329" lon="3.015868">
        <ele>6.902827</ele>
        <time>2022-07-26T15:10:33.643Z</time>
      </trkpt>
      <trkpt lat="42.702546" lon="3.016140">
        <ele>7.026980</ele>
        <time>2022-07-26T15:10:40.569Z</time>
      </trkpt>
      <trkpt lat="42.702755" lon="3.016207">
        <ele>7.117337</ele>
        <time>2022-07-26T15:10:45.885Z</time>
      </trkpt>
      <trkpt lat="42.703049" lon="3.016064">
        <ele>7.248721</ele>
        <time>2022-07-26T15:10:53.730Z</time>
      </trkpt>
      <trkpt lat="42.703190" lon="3.016086">
        <ele>7.308444</ele>
        <time>2022-07-26T15:10:57.313Z</time>
      </trkpt>
      <trkpt lat="42.703514" lon="3.016289">
        <ele>7.458544</ele>
        <time>2022-07-26T15:11:06.685Z</time>
      </trkpt>
      <trkpt lat="42.703826" lon="3.016514">
        <ele>7.517326</ele>
        <time>2022-07-26T15:11:15.981Z</time>
      </trkpt>
      <trkpt lat="42.704063" lon="3.016669">
        <ele>7.485020</ele>
        <time>2022-07-26T15:11:22.222Z</time>
      </trkpt>
      <trkpt lat="42.705047" lon="3.017464">
        <ele>7.344423</ele>
        <time>2022-07-26T15:11:46.962Z</time>
      </trkpt>
      <trkpt lat="42.705338" lon="3.017706">
        <ele>7.187478</ele>
        <time>2022-07-26T15:11:53.439Z</time>
      </trkpt>
      <trkpt lat="42.706210" lon="3.018455">
        <ele>6.028269</ele>
        <time>2022-07-26T15:12:12.251Z</time>
      </trkpt>
      <trkpt lat="42.707592" lon="3.019802">
        <ele>4.904730</ele>
        <time>2022-07-26T15:12:46.290Z</time>
      </trkpt>
      <trkpt lat="42.707692" lon="3.019900">
        <ele>4.858849</ele>
        <time>2022-07-26T15:12:48.925Z</time>
      </trkpt>
      <trkpt lat="42.708407" lon="3.020589">
        <ele>4.683355</ele>
        <time>2022-07-26T15:13:08.728Z</time>
      </trkpt>
      <trkpt lat="42.709582" lon="3.021742">
        <ele>5.024178</ele>
        <time>2022-07-26T15:13:43.317Z</time>
      </trkpt>
      <trkpt lat="42.709778" lon="3.021917">
        <ele>4.947063</ele>
        <time>2022-07-26T15:13:48.500Z</time>
      </trkpt>
      <trkpt lat="42.710031" lon="3.022170">
        <ele>4.707260</ele>
        <time>2022-07-26T15:13:55.100Z</time>
      </trkpt>
      <trkpt lat="42.710445" lon="3.022576">
        <ele>4.317499</ele>
        <time>2022-07-26T15:14:05.132Z</time>
      </trkpt>
      <trkpt lat="42.711628" lon="3.023728">
        <ele>3.205915</ele>
        <time>2022-07-26T15:14:32.480Z</time>
      </trkpt>
      <trkpt lat="42.714368" lon="3.026363">
        <ele>1.380087</ele>
        <time>2022-07-26T15:15:41.578Z</time>
      </trkpt>
      <trkpt lat="42.715197" lon="3.027075">
        <ele>1.276726</ele>
        <time>2022-07-26T15:16:02.910Z</time>
      </trkpt>
      <trkpt lat="42.716289" lon="3.027853">
        <ele>1.511494</ele>
        <time>2022-07-26T15:16:31.311Z</time>
      </trkpt>
      <trkpt lat="42.717235" lon="3.028414">
        <ele>1.880198</ele>
        <time>2022-07-26T15:16:56.258Z</time>
      </trkpt>
      <trkpt lat="42.718145" lon="3.028861">
        <ele>2.107298</ele>
        <time>2022-07-26T15:17:19.664Z</time>
      </trkpt>
      <trkpt lat="42.719726" lon="3.029429">
        <ele>2.056797</ele>
        <time>2022-07-26T15:17:55.850Z</time>
      </trkpt>
      <trkpt lat="42.721359" lon="3.029767">
        <ele>1.466145</ele>
        <time>2022-07-26T15:18:29.474Z</time>
      </trkpt>
      <trkpt lat="42.723115" lon="3.029861">
        <ele>0.956011</ele>
        <time>2022-07-26T15:19:06.078Z</time>
      </trkpt>
      <trkpt lat="42.723306" lon="3.029857">
        <ele>0.954638</ele>
        <time>2022-07-26T15:19:10.431Z</time>
      </trkpt>
      <trkpt lat="42.724548" lon="3.029713">
        <ele>1.023414</ele>
        <time>2022-07-26T15:19:39.264Z</time>
      </trkpt>
      <trkpt lat="42.724795" lon="3.029684">
        <ele>1.092363</ele>
        <time>2022-07-26T15:19:45.220Z</time>
      </trkpt>
      <trkpt lat="42.726495" lon="3.029255">
        <ele>1.456719</ele>
        <time>2022-07-26T15:20:25.625Z</time>
      </trkpt>
      <trkpt lat="42.727458" lon="3.028903">
        <ele>1.476297</ele>
        <time>2022-07-26T15:20:47.477Z</time>
      </trkpt>
      <trkpt lat="42.729072" lon="3.028078">
        <ele>1.485312</ele>
        <time>2022-07-26T15:21:25.501Z</time>
      </trkpt>
      <trkpt lat="42.730137" lon="3.027424">
        <ele>1.533067</ele>
        <time>2022-07-26T15:21:52.156Z</time>
      </trkpt>
      <trkpt lat="42.731474" lon="3.026713">
        <ele>1.582257</ele>
        <time>2022-07-26T15:22:24.325Z</time>
      </trkpt>
      <trkpt lat="42.731901" lon="3.026505">
        <ele>1.561063</ele>
        <time>2022-07-26T15:22:34.360Z</time>
      </trkpt>
      <trkpt lat="42.732025" lon="3.026497">
        <ele>1.555262</ele>
        <time>2022-07-26T15:22:37.107Z</time>
      </trkpt>
      <trkpt lat="42.732197" lon="3.026641">
        <ele>1.545825</ele>
        <time>2022-07-26T15:22:41.523Z</time>
      </trkpt>
      <trkpt lat="42.732292" lon="3.026650">
        <ele>1.541375</ele>
        <time>2022-07-26T15:22:43.629Z</time>
      </trkpt>
      <trkpt lat="42.732384" lon="3.026619">
        <ele>1.536946</ele>
        <time>2022-07-26T15:22:45.687Z</time>
      </trkpt>
      <trkpt lat="42.732550" lon="3.026390">
        <ele>1.525901</ele>
        <time>2022-07-26T15:22:50.853Z</time>
      </trkpt>
      <trkpt lat="42.732571" lon="3.026279">
        <ele>1.521967</ele>
        <time>2022-07-26T15:22:52.670Z</time>
      </trkpt>
      <trkpt lat="42.732817" lon="3.026065">
        <ele>1.490359</ele>
        <time>2022-07-26T15:22:59.016Z</time>
      </trkpt>
      <trkpt lat="42.735192" lon="3.025215">
        <ele>1.125381</ele>
        <time>2022-07-26T15:23:52.087Z</time>
      </trkpt>
      <trkpt lat="42.737052" lon="3.024801">
        <ele>0.947714</ele>
        <time>2022-07-26T15:24:33.185Z</time>
      </trkpt>
      <trkpt lat="42.737276" lon="3.024751">
        <ele>0.935579</ele>
        <time>2022-07-26T15:24:38.130Z</time>
      </trkpt>
      <trkpt lat="42.740023" lon="3.024140">
        <ele>0.892124</ele>
        <time>2022-07-26T15:25:40.129Z</time>
      </trkpt>
      <trkpt lat="42.740366" lon="3.024068">
        <ele>0.883974</ele>
        <time>2022-07-26T15:25:48.035Z</time>
      </trkpt>
      <trkpt lat="42.752181" lon="3.021465">
        <ele>0.565626</ele>
        <time>2022-07-26T15:30:12.857Z</time>
      </trkpt>
      <trkpt lat="42.752706" lon="3.021355">
        <ele>0.507841</ele>
        <time>2022-07-26T15:30:24.203Z</time>
      </trkpt>
      <trkpt lat="42.755599" lon="3.020719">
        <ele>0.245707</ele>
        <time>2022-07-26T15:31:28.494Z</time>
      </trkpt>
      <trkpt lat="42.759593" lon="3.019842">
        <ele>0.619748</ele>
        <time>2022-07-26T15:32:59.675Z</time>
      </trkpt>
      <trkpt lat="42.761491" lon="3.019560">
        <ele>1.200332</ele>
        <time>2022-07-26T15:33:45.091Z</time>
      </trkpt>
      <trkpt lat="42.761851" lon="3.019573">
        <ele>1.280421</ele>
        <time>2022-07-26T15:33:53.523Z</time>
      </trkpt>
      <trkpt lat="42.761972" lon="3.019722">
        <ele>1.316698</ele>
        <time>2022-07-26T15:33:57.275Z</time>
      </trkpt>
      <trkpt lat="42.762048" lon="3.019759">
        <ele>1.334647</ele>
        <time>2022-07-26T15:33:59.136Z</time>
      </trkpt>
      <trkpt lat="42.762189" lon="3.019754">
        <ele>1.366015</ele>
        <time>2022-07-26T15:34:02.429Z</time>
      </trkpt>
      <trkpt lat="42.762349" lon="3.019616">
        <ele>1.408131</ele>
        <time>2022-07-26T15:34:06.747Z</time>
      </trkpt>
      <trkpt lat="42.762401" lon="3.019494">
        <ele>1.431165</ele>
        <time>2022-07-26T15:34:09.133Z</time>
      </trkpt>
      <trkpt lat="42.762651" lon="3.019314">
        <ele>1.494052</ele>
        <time>2022-07-26T15:34:15.490Z</time>
      </trkpt>
      <trkpt lat="42.764941" lon="3.018667">
        <ele>1.725931</ele>
        <time>2022-07-26T15:35:07.787Z</time>
      </trkpt>
      <trkpt lat="42.770155" lon="3.017508">
        <ele>3.130465</ele>
        <time>2022-07-26T15:37:11.687Z</time>
      </trkpt>
      <trkpt lat="42.771040" lon="3.017314">
        <ele>3.263526</ele>
        <time>2022-07-26T15:37:32.436Z</time>
      </trkpt>
      <trkpt lat="42.771440" lon="3.017237">
        <ele>3.323493</ele>
        <time>2022-07-26T15:37:41.407Z</time>
      </trkpt>
      <trkpt lat="42.772012" lon="3.017102">
        <ele>3.145946</ele>
        <time>2022-07-26T15:37:54.015Z</time>
      </trkpt>
      <trkpt lat="42.772583" lon="3.016980">
        <ele>2.926354</ele>
        <time>2022-07-26T15:38:06.184Z</time>
      </trkpt>
      <trkpt lat="42.774199" lon="3.016825">
        <ele>2.350459</ele>
        <time>2022-07-26T15:38:38.906Z</time>
      </trkpt>
      <trkpt lat="42.774319" lon="3.016883">
        <ele>2.307694</ele>
        <time>2022-07-26T15:38:41.641Z</time>
      </trkpt>
      <trkpt lat="42.774354" lon="3.017015">
        <ele>2.273094</ele>
        <time>2022-07-26T15:38:43.873Z</time>
      </trkpt>
      <trkpt lat="42.774461" lon="3.017156">
        <ele>2.223095</ele>
        <time>2022-07-26T15:38:47.244Z</time>
      </trkpt>
      <trkpt lat="42.774647" lon="3.017960">
        <ele>2.073664</ele>
        <time>2022-07-26T15:39:00.995Z</time>
      </trkpt>
      <trkpt lat="42.774656" lon="3.018010">
        <ele>2.083533</ele>
        <time>2022-07-26T15:39:01.854Z</time>
      </trkpt>
      <trkpt lat="42.774682" lon="3.018243">
        <ele>2.128712</ele>
        <time>2022-07-26T15:39:08.399Z</time>
      </trkpt>
      <trkpt lat="42.774734" lon="3.018703">
        <ele>2.217933</ele>
        <time>2022-07-26T15:39:21.144Z</time>
      </trkpt>
      <trkpt lat="42.774779" lon="3.018699">
        <ele>2.229710</ele>
        <time>2022-07-26T15:39:22.174Z</time>
      </trkpt>
      <trkpt lat="42.774807" lon="3.018871">
        <ele>2.263483</ele>
        <time>2022-07-26T15:39:25.039Z</time>
      </trkpt>
      <trkpt lat="42.774924" lon="3.019589">
        <ele>2.404474</ele>
        <time>2022-07-26T15:39:38.047Z</time>
      </trkpt>
      <trkpt lat="42.774967" lon="3.019988">
        <ele>2.481781</ele>
        <time>2022-07-26T15:39:45.211Z</time>
      </trkpt>
      <trkpt lat="42.775017" lon="3.020391">
        <ele>2.559521</ele>
        <time>2022-07-26T15:39:52.486Z</time>
      </trkpt>
      <trkpt lat="42.775031" lon="3.020504">
        <ele>2.581172</ele>
        <time>2022-07-26T15:39:54.527Z</time>
      </trkpt>
      <trkpt lat="42.775066" lon="3.020795">
        <ele>2.636884</ele>
        <time>2022-07-26T15:39:59.646Z</time>
      </trkpt>
      <trkpt lat="42.775204" lon="3.021481">
        <ele>2.771270</ele>
        <time>2022-07-26T15:40:11.778Z</time>
      </trkpt>
      <trkpt lat="42.775625" lon="3.022881">
        <ele>3.044664</ele>
        <time>2022-07-26T15:40:36.896Z</time>
      </trkpt>
      <trkpt lat="42.775660" lon="3.022999">
        <ele>3.064787</ele>
        <time>2022-07-26T15:40:39.027Z</time>
      </trkpt>
      <trkpt lat="42.775962" lon="3.024066">
        <ele>3.245607</ele>
        <time>2022-07-26T15:40:58.471Z</time>
      </trkpt>
      <trkpt lat="42.776116" lon="3.024927">
        <ele>3.388037</ele>
        <time>2022-07-26T15:41:13.742Z</time>
      </trkpt>
      <trkpt lat="42.776375" lon="3.026461">
        <ele>3.669805</ele>
        <time>2022-07-26T15:41:40.838Z</time>
      </trkpt>
      <trkpt lat="42.776566" lon="3.027593">
        <ele>3.796012</ele>
        <time>2022-07-26T15:42:00.446Z</time>
      </trkpt>
      <trkpt lat="42.776712" lon="3.028326">
        <ele>3.775107</ele>
        <time>2022-07-26T15:42:12.852Z</time>
      </trkpt>
      <trkpt lat="42.776822" lon="3.028548">
        <ele>3.767734</ele>
        <time>2022-07-26T15:42:17.128Z</time>
      </trkpt>
      <trkpt lat="42.776930" lon="3.028692">
        <ele>3.762067</ele>
        <time>2022-07-26T15:42:20.394Z</time>
      </trkpt>
      <trkpt lat="42.778565" lon="3.030150">
        <ele>3.381851</ele>
        <time>2022-07-26T15:43:02.322Z</time>
      </trkpt>
      <trkpt lat="42.780229" lon="3.031667">
        <ele>2.811941</ele>
        <time>2022-07-26T15:43:44.443Z</time>
      </trkpt>
      <trkpt lat="42.782139" lon="3.033419">
        <ele>2.398884</ele>
        <time>2022-07-26T15:44:33.404Z</time>
      </trkpt>
      <trkpt lat="42.782243" lon="3.033516">
        <ele>2.441910</ele>
        <time>2022-07-26T15:44:36.343Z</time>
      </trkpt>
      <trkpt lat="42.782284" lon="3.033554">
        <ele>2.458838</ele>
        <time>2022-07-26T15:44:37.489Z</time>
      </trkpt>
      <trkpt lat="42.782464" lon="3.033714">
        <ele>2.532207</ele>
        <time>2022-07-26T15:44:42.432Z</time>
      </trkpt>
      <trkpt lat="42.782463" lon="3.033768">
        <ele>2.545742</ele>
        <time>2022-07-26T15:44:43.382Z</time>
      </trkpt>
      <trkpt lat="42.782523" lon="3.033928">
        <ele>2.590760</ele>
        <time>2022-07-26T15:44:46.558Z</time>
      </trkpt>
      <trkpt lat="42.782572" lon="3.033949">
        <ele>2.608296</ele>
        <time>2022-07-26T15:44:47.787Z</time>
      </trkpt>
      <trkpt lat="42.782710" lon="3.033861">
        <ele>2.660311</ele>
        <time>2022-07-26T15:44:51.425Z</time>
      </trkpt>
      <trkpt lat="42.782883" lon="3.034042">
        <ele>2.734773</ele>
        <time>2022-07-26T15:44:56.784Z</time>
      </trkpt>
      <trkpt lat="42.783245" lon="3.034356">
        <ele>2.881272</ele>
        <time>2022-07-26T15:45:07.425Z</time>
      </trkpt>
      <trkpt lat="42.783304" lon="3.034409">
        <ele>2.905397</ele>
        <time>2022-07-26T15:45:09.210Z</time>
      </trkpt>
      <trkpt lat="42.783700" lon="3.034767">
        <ele>3.197712</ele>
        <time>2022-07-26T15:45:21.311Z</time>
      </trkpt>
      <trkpt lat="42.783961" lon="3.035003">
        <ele>3.401638</ele>
        <time>2022-07-26T15:45:29.302Z</time>
      </trkpt>
      <trkpt lat="42.784847" lon="3.035803">
        <ele>4.093588</ele>
        <time>2022-07-26T15:45:55.786Z</time>
      </trkpt>
      <trkpt lat="42.785007" lon="3.035951">
        <ele>4.086894</ele>
        <time>2022-07-26T15:46:00.298Z</time>
      </trkpt>
      <trkpt lat="42.785165" lon="3.036087">
        <ele>4.078806</ele>
        <time>2022-07-26T15:46:04.517Z</time>
      </trkpt>
      <trkpt lat="42.785358" lon="3.036262">
        <ele>4.068772</ele>
        <time>2022-07-26T15:46:09.706Z</time>
      </trkpt>
      <trkpt lat="42.785427" lon="3.036327">
        <ele>4.065142</ele>
        <time>2022-07-26T15:46:11.499Z</time>
      </trkpt>
      <trkpt lat="42.785847" lon="3.036714">
        <ele>4.043199</ele>
        <time>2022-07-26T15:46:22.500Z</time>
      </trkpt>
      <trkpt lat="42.785905" lon="3.036777">
        <ele>4.039989</ele>
        <time>2022-07-26T15:46:24.091Z</time>
      </trkpt>
      <trkpt lat="42.786073" lon="3.036958">
        <ele>4.030720</ele>
        <time>2022-07-26T15:46:28.650Z</time>
      </trkpt>
      <trkpt lat="42.786102" lon="3.037000">
        <ele>4.028889</ele>
        <time>2022-07-26T15:46:29.559Z</time>
      </trkpt>
      <trkpt lat="42.786100" lon="3.037213">
        <ele>4.022123</ele>
        <time>2022-07-26T15:46:32.951Z</time>
      </trkpt>
      <trkpt lat="42.786146" lon="3.037294">
        <ele>4.018870</ele>
        <time>2022-07-26T15:46:34.555Z</time>
      </trkpt>
      <trkpt lat="42.786218" lon="3.037306">
        <ele>4.010602</ele>
        <time>2022-07-26T15:46:36.161Z</time>
      </trkpt>
      <trkpt lat="42.786886" lon="3.037195">
        <ele>3.887301</ele>
        <time>2022-07-26T15:46:50.918Z</time>
      </trkpt>
      <trkpt lat="42.787414" lon="3.037141">
        <ele>3.790286</ele>
        <time>2022-07-26T15:47:02.657Z</time>
      </trkpt>
      <trkpt lat="42.787425" lon="3.037162">
        <ele>3.786817</ele>
        <time>2022-07-26T15:47:03.085Z</time>
      </trkpt>
      <trkpt lat="42.787476" lon="3.037193">
        <ele>3.776585</ele>
        <time>2022-07-26T15:47:04.336Z</time>
      </trkpt>
      <trkpt lat="42.787534" lon="3.037149">
        <ele>3.764422</ele>
        <time>2022-07-26T15:47:05.725Z</time>
      </trkpt>
      <trkpt lat="42.787537" lon="3.037058">
        <ele>3.752173</ele>
        <time>2022-07-26T15:47:07.148Z</time>
      </trkpt>
      <trkpt lat="42.787861" lon="3.036988">
        <ele>3.692066</ele>
        <time>2022-07-26T15:47:14.521Z</time>
      </trkpt>
      <trkpt lat="42.787893" lon="3.036985">
        <ele>3.688856</ele>
        <time>2022-07-26T15:47:15.238Z</time>
      </trkpt>
      <trkpt lat="42.788132" lon="3.036959">
        <ele>3.719509</ele>
        <time>2022-07-26T15:47:20.748Z</time>
      </trkpt>
      <trkpt lat="42.788374" lon="3.036933">
        <ele>3.750544</ele>
        <time>2022-07-26T15:47:26.286Z</time>
      </trkpt>
      <trkpt lat="42.788687" lon="3.036889">
        <ele>3.790772</ele>
        <time>2022-07-26T15:47:33.527Z</time>
      </trkpt>
      <trkpt lat="42.788972" lon="3.036863">
        <ele>3.827291</ele>
        <time>2022-07-26T15:47:40.108Z</time>
      </trkpt>
      <trkpt lat="42.789224" lon="3.036834">
        <ele>3.859623</ele>
        <time>2022-07-26T15:47:45.938Z</time>
      </trkpt>
      <trkpt lat="42.789286" lon="3.036827">
        <ele>3.867577</ele>
        <time>2022-07-26T15:47:47.376Z</time>
      </trkpt>
      <trkpt lat="42.789532" lon="3.036798">
        <ele>3.899145</ele>
        <time>2022-07-26T15:47:53.056Z</time>
      </trkpt>
      <trkpt lat="42.790297" lon="3.036716">
        <ele>3.859973</ele>
        <time>2022-07-26T15:48:10.283Z</time>
      </trkpt>
      <trkpt lat="42.790401" lon="3.036705">
        <ele>3.850292</ele>
        <time>2022-07-26T15:48:12.548Z</time>
      </trkpt>
      <trkpt lat="42.791028" lon="3.036636">
        <ele>3.791911</ele>
        <time>2022-07-26T15:48:26.713Z</time>
      </trkpt>
      <trkpt lat="42.791903" lon="3.036538">
        <ele>3.692460</ele>
        <time>2022-07-26T15:48:46.135Z</time>
      </trkpt>
      <trkpt lat="42.791985" lon="3.036607">
        <ele>3.679533</ele>
        <time>2022-07-26T15:48:48.215Z</time>
      </trkpt>
      <trkpt lat="42.792051" lon="3.036544">
        <ele>3.668724</ele>
        <time>2022-07-26T15:48:49.901Z</time>
      </trkpt>
      <trkpt lat="42.792645" lon="3.036477">
        <ele>3.588774</ele>
        <time>2022-07-26T15:49:02.622Z</time>
      </trkpt>
      <trkpt lat="42.793129" lon="3.036391">
        <ele>3.523302</ele>
        <time>2022-07-26T15:49:13.538Z</time>
      </trkpt>
      <trkpt lat="42.793207" lon="3.036383">
        <ele>3.512810</ele>
        <time>2022-07-26T15:49:15.337Z</time>
      </trkpt>
      <trkpt lat="42.793243" lon="3.036380">
        <ele>3.513692</ele>
        <time>2022-07-26T15:49:16.215Z</time>
      </trkpt>
      <trkpt lat="42.793699" lon="3.036382">
        <ele>3.678968</ele>
        <time>2022-07-26T15:49:26.798Z</time>
      </trkpt>
      <trkpt lat="42.793791" lon="3.036389">
        <ele>3.712365</ele>
        <time>2022-07-26T15:49:28.881Z</time>
      </trkpt>
      <trkpt lat="42.794262" lon="3.036424">
        <ele>3.883330</ele>
        <time>2022-07-26T15:49:40.047Z</time>
      </trkpt>
      <trkpt lat="42.794377" lon="3.036432">
        <ele>3.925065</ele>
        <time>2022-07-26T15:49:42.924Z</time>
      </trkpt>
      <trkpt lat="42.794921" lon="3.036483">
        <ele>4.122702</ele>
        <time>2022-07-26T15:49:56.578Z</time>
      </trkpt>
      <trkpt lat="42.794966" lon="3.036553">
        <ele>4.147453</ele>
        <time>2022-07-26T15:49:58.278Z</time>
      </trkpt>
      <trkpt lat="42.794989" lon="3.036571">
        <ele>4.157066</ele>
        <time>2022-07-26T15:49:58.947Z</time>
      </trkpt>
      <trkpt lat="42.795082" lon="3.036502">
        <ele>4.127816</ele>
        <time>2022-07-26T15:50:01.332Z</time>
      </trkpt>
      <trkpt lat="42.795326" lon="3.036514">
        <ele>4.040382</ele>
        <time>2022-07-26T15:50:07.150Z</time>
      </trkpt>
      <trkpt lat="42.795620" lon="3.036541">
        <ele>3.934861</ele>
        <time>2022-07-26T15:50:13.640Z</time>
      </trkpt>
      <trkpt lat="42.795761" lon="3.036555">
        <ele>3.884235</ele>
        <time>2022-07-26T15:50:16.613Z</time>
      </trkpt>
      <trkpt lat="42.795973" lon="3.036575">
        <ele>3.808136</ele>
        <time>2022-07-26T15:50:21.010Z</time>
      </trkpt>
      <trkpt lat="42.796175" lon="3.036594">
        <ele>3.735627</ele>
        <time>2022-07-26T15:50:24.894Z</time>
      </trkpt>
      <trkpt lat="42.796230" lon="3.036761">
        <ele>3.687528</ele>
        <time>2022-07-26T15:50:27.627Z</time>
      </trkpt>
      <trkpt lat="42.796337" lon="3.036798">
        <ele>3.647996</ele>
        <time>2022-07-26T15:50:29.787Z</time>
      </trkpt>
      <trkpt lat="42.796403" lon="3.036758">
        <ele>3.622130</ele>
        <time>2022-07-26T15:50:31.106Z</time>
      </trkpt>
      <trkpt lat="42.796446" lon="3.036679">
        <ele>3.596284</ele>
        <time>2022-07-26T15:50:32.496Z</time>
      </trkpt>
      <trkpt lat="42.796456" lon="3.036613">
        <ele>3.578575</ele>
        <time>2022-07-26T15:50:33.499Z</time>
      </trkpt>
      <trkpt lat="42.796687" lon="3.036629">
        <ele>3.503895</ele>
        <time>2022-07-26T15:50:37.997Z</time>
      </trkpt>
      <trkpt lat="42.797557" lon="3.036670">
        <ele>3.309855</ele>
        <time>2022-07-26T15:50:55.801Z</time>
      </trkpt>
      <trkpt lat="42.797637" lon="3.036673">
        <ele>3.292016</ele>
        <time>2022-07-26T15:50:57.506Z</time>
      </trkpt>
      <trkpt lat="42.797741" lon="3.036678">
        <ele>3.268819</ele>
        <time>2022-07-26T15:50:59.621Z</time>
      </trkpt>
      <trkpt lat="42.797852" lon="3.036683">
        <ele>3.244064</ele>
        <time>2022-07-26T15:51:01.988Z</time>
      </trkpt>
      <trkpt lat="42.798431" lon="3.036729">
        <ele>3.123273</ele>
        <time>2022-07-26T15:51:15.375Z</time>
      </trkpt>
      <trkpt lat="42.799556" lon="3.036828">
        <ele>4.186194</ele>
        <time>2022-07-26T15:51:44.886Z</time>
      </trkpt>
      <trkpt lat="42.799702" lon="3.036832">
        <ele>4.323879</ele>
        <time>2022-07-26T15:51:48.983Z</time>
      </trkpt>
      <trkpt lat="42.799876" lon="3.036870">
        <ele>4.490029</ele>
        <time>2022-07-26T15:51:53.875Z</time>
      </trkpt>
      <trkpt lat="42.799942" lon="3.036940">
        <ele>4.568880</ele>
        <time>2022-07-26T15:51:56.340Z</time>
      </trkpt>
      <trkpt lat="42.800052" lon="3.036965">
        <ele>4.674026</ele>
        <time>2022-07-26T15:51:59.396Z</time>
      </trkpt>
      <trkpt lat="42.800138" lon="3.036921">
        <ele>4.760637</ele>
        <time>2022-07-26T15:52:01.840Z</time>
      </trkpt>
      <trkpt lat="42.800400" lon="3.036936">
        <ele>4.823554</ele>
        <time>2022-07-26T15:52:08.726Z</time>
      </trkpt>
      <trkpt lat="42.800442" lon="3.036938">
        <ele>4.825840</ele>
        <time>2022-07-26T15:52:09.727Z</time>
      </trkpt>
      <trkpt lat="42.800518" lon="3.036943">
        <ele>4.829978</ele>
        <time>2022-07-26T15:52:11.584Z</time>
      </trkpt>
      <trkpt lat="42.800665" lon="3.036956">
        <ele>4.837991</ele>
        <time>2022-07-26T15:52:15.224Z</time>
      </trkpt>
      <trkpt lat="42.800848" lon="3.036972">
        <ele>4.847965</ele>
        <time>2022-07-26T15:52:19.324Z</time>
      </trkpt>
      <trkpt lat="42.801044" lon="3.036989">
        <ele>4.858647</ele>
        <time>2022-07-26T15:52:23.753Z</time>
      </trkpt>
      <trkpt lat="42.801491" lon="3.037027">
        <ele>4.883008</ele>
        <time>2022-07-26T15:52:33.113Z</time>
      </trkpt>
      <trkpt lat="42.801785" lon="3.037055">
        <ele>4.899038</ele>
        <time>2022-07-26T15:52:39.190Z</time>
      </trkpt>
      <trkpt lat="42.802136" lon="3.037078">
        <ele>4.834546</ele>
        <time>2022-07-26T15:52:46.483Z</time>
      </trkpt>
      <trkpt lat="42.802995" lon="3.037158">
        <ele>4.395035</ele>
        <time>2022-07-26T15:53:03.840Z</time>
      </trkpt>
      <trkpt lat="42.803122" lon="3.037168">
        <ele>4.330098</ele>
        <time>2022-07-26T15:53:06.394Z</time>
      </trkpt>
      <trkpt lat="42.803454" lon="3.037195">
        <ele>4.160322</ele>
        <time>2022-07-26T15:53:13.193Z</time>
      </trkpt>
      <trkpt lat="42.803642" lon="3.037210">
        <ele>4.064191</ele>
        <time>2022-07-26T15:53:17.072Z</time>
      </trkpt>
      <trkpt lat="42.803983" lon="3.037237">
        <ele>3.957965</ele>
        <time>2022-07-26T15:53:24.304Z</time>
      </trkpt>
      <trkpt lat="42.804466" lon="3.037277">
        <ele>3.875747</ele>
        <time>2022-07-26T15:53:34.662Z</time>
      </trkpt>
      <trkpt lat="42.804699" lon="3.037296">
        <ele>3.836087</ele>
        <time>2022-07-26T15:53:39.700Z</time>
      </trkpt>
      <trkpt lat="42.805198" lon="3.037329">
        <ele>3.751202</ele>
        <time>2022-07-26T15:53:50.744Z</time>
      </trkpt>
      <trkpt lat="42.805329" lon="3.037333">
        <ele>3.728938</ele>
        <time>2022-07-26T15:53:53.669Z</time>
      </trkpt>
      <trkpt lat="42.805541" lon="3.037333">
        <ele>3.692917</ele>
        <time>2022-07-26T15:53:58.429Z</time>
      </trkpt>
      <trkpt lat="42.805644" lon="3.037330">
        <ele>3.681389</ele>
        <time>2022-07-26T15:54:00.711Z</time>
      </trkpt>
      <trkpt lat="42.805929" lon="3.037319">
        <ele>3.659411</ele>
        <time>2022-07-26T15:54:06.981Z</time>
      </trkpt>
      <trkpt lat="42.806102" lon="3.037373">
        <ele>3.645730</ele>
        <time>2022-07-26T15:54:10.839Z</time>
      </trkpt>
      <trkpt lat="42.806147" lon="3.037429">
        <ele>3.641033</ele>
        <time>2022-07-26T15:54:12.187Z</time>
      </trkpt>
      <trkpt lat="42.806278" lon="3.037425">
        <ele>3.630933</ele>
        <time>2022-07-26T15:54:14.970Z</time>
      </trkpt>
      <trkpt lat="42.806437" lon="3.037412">
        <ele>3.618654</ele>
        <time>2022-07-26T15:54:18.428Z</time>
      </trkpt>
      <trkpt lat="42.807277" lon="3.037497">
        <ele>3.553725</ele>
        <time>2022-07-26T15:54:36.884Z</time>
      </trkpt>
      <trkpt lat="42.808319" lon="3.037575">
        <ele>3.505377</ele>
        <time>2022-07-26T15:55:00.147Z</time>
      </trkpt>
      <trkpt lat="42.810861" lon="3.037795">
        <ele>3.126546</ele>
        <time>2022-07-26T15:55:55.344Z</time>
      </trkpt>
      <trkpt lat="42.811341" lon="3.037840">
        <ele>2.966452</ele>
        <time>2022-07-26T15:56:05.370Z</time>
      </trkpt>
      <trkpt lat="42.811530" lon="3.037908">
        <ele>2.895853</ele>
        <time>2022-07-26T15:56:09.398Z</time>
      </trkpt>
      <trkpt lat="42.811615" lon="3.038012">
        <ele>2.854602</ele>
        <time>2022-07-26T15:56:11.755Z</time>
      </trkpt>
      <trkpt lat="42.811726" lon="3.037982">
        <ele>2.813732</ele>
        <time>2022-07-26T15:56:14.150Z</time>
      </trkpt>
      <trkpt lat="42.811764" lon="3.037917">
        <ele>2.791710</ele>
        <time>2022-07-26T15:56:15.383Z</time>
      </trkpt>
      <trkpt lat="42.811808" lon="3.037910">
        <ele>2.775711</ele>
        <time>2022-07-26T15:56:16.284Z</time>
      </trkpt>
      <trkpt lat="42.811911" lon="3.037868">
        <ele>2.736882</ele>
        <time>2022-07-26T15:56:18.497Z</time>
      </trkpt>
      <trkpt lat="42.811928" lon="3.037869">
        <ele>2.730737</ele>
        <time>2022-07-26T15:56:18.852Z</time>
      </trkpt>
      <trkpt lat="42.811980" lon="3.037873">
        <ele>2.711926</ele>
        <time>2022-07-26T15:56:19.933Z</time>
      </trkpt>
      <trkpt lat="42.811974" lon="3.037935">
        <ele>2.695357</ele>
        <time>2022-07-26T15:56:20.980Z</time>
      </trkpt>
      <trkpt lat="42.813641" lon="3.038047">
        <ele>2.320316</ele>
        <time>2022-07-26T15:56:57.505Z</time>
      </trkpt>
      <trkpt lat="42.820660" lon="3.038622">
        <ele>2.968109</ele>
        <time>2022-07-26T15:59:44.450Z</time>
      </trkpt>
      <trkpt lat="42.820848" lon="3.038622">
        <ele>2.965846</ele>
        <time>2022-07-26T15:59:48.790Z</time>
      </trkpt>
      <trkpt lat="42.821173" lon="3.038430">
        <ele>2.961582</ele>
        <time>2022-07-26T15:59:56.910Z</time>
      </trkpt>
      <trkpt lat="42.821164" lon="3.038312">
        <ele>2.960534</ele>
        <time>2022-07-26T16:00:00.117Z</time>
      </trkpt>
      <trkpt lat="42.821247" lon="3.038012">
        <ele>2.957703</ele>
        <time>2022-07-26T16:00:05.248Z</time>
      </trkpt>
      <trkpt lat="42.821197" lon="3.037998">
        <ele>2.957088</ele>
        <time>2022-07-26T16:00:08.783Z</time>
      </trkpt>
      <trkpt lat="42.821550" lon="3.035369">
        <ele>2.511488</ele>
        <time>2022-07-26T16:00:52.508Z</time>
      </trkpt>
      <trkpt lat="42.821729" lon="3.034687">
        <ele>2.380844</ele>
        <time>2022-07-26T16:01:04.301Z</time>
      </trkpt>
      <trkpt lat="42.821806" lon="3.034652">
        <ele>2.360885</ele>
        <time>2022-07-26T16:01:06.094Z</time>
      </trkpt>
      <trkpt lat="42.821987" lon="3.034591">
        <ele>2.315038</ele>
        <time>2022-07-26T16:01:10.147Z</time>
      </trkpt>
      <trkpt lat="42.822726" lon="3.034587">
        <ele>2.133317</ele>
        <time>2022-07-26T16:01:26.354Z</time>
      </trkpt>
      <trkpt lat="42.822725" lon="3.034730">
        <ele>2.107524</ele>
        <time>2022-07-26T16:01:28.708Z</time>
      </trkpt>
      <trkpt lat="42.822725" lon="3.034819">
        <ele>2.122869</ele>
        <time>2022-07-26T16:01:30.156Z</time>
      </trkpt>
      <trkpt lat="42.823134" lon="3.034875">
        <ele>2.325849</ele>
        <time>2022-07-26T16:01:39.110Z</time>
      </trkpt>
      <trkpt lat="42.823312" lon="3.035096">
        <ele>2.444729</ele>
        <time>2022-07-26T16:01:44.761Z</time>
      </trkpt>
      <trkpt lat="42.823392" lon="3.035134">
        <ele>2.486561</ele>
        <time>2022-07-26T16:01:46.781Z</time>
      </trkpt>
      <trkpt lat="42.823544" lon="3.034991">
        <ele>2.577753</ele>
        <time>2022-07-26T16:01:51.451Z</time>
      </trkpt>
      <trkpt lat="42.823708" lon="3.035013">
        <ele>2.659128</ele>
        <time>2022-07-26T16:01:56.046Z</time>
      </trkpt>
      <trkpt lat="42.824345" lon="3.035159">
        <ele>2.978091</ele>
        <time>2022-07-26T16:02:14.520Z</time>
      </trkpt>
      <trkpt lat="42.824386" lon="3.035168">
        <ele>3.003196</ele>
        <time>2022-07-26T16:02:15.602Z</time>
      </trkpt>
      <trkpt lat="42.824418" lon="3.035174">
        <ele>3.027755</ele>
        <time>2022-07-26T16:02:16.442Z</time>
      </trkpt>
      <trkpt lat="42.825165" lon="3.035346">
        <ele>3.603751</ele>
        <time>2022-07-26T16:02:38.458Z</time>
      </trkpt>
      <trkpt lat="42.825169" lon="3.035194">
        <ele>3.688567</ele>
        <time>2022-07-26T16:02:41.624Z</time>
      </trkpt>
      <trkpt lat="42.825175" lon="3.035156">
        <ele>3.710242</ele>
        <time>2022-07-26T16:02:43.651Z</time>
      </trkpt>
      <trkpt lat="42.825269" lon="3.035178">
        <ele>3.782757</ele>
        <time>2022-07-26T16:02:46.333Z</time>
      </trkpt>
      <trkpt lat="42.828122" lon="3.035850">
        <ele>4.862124</ele>
        <time>2022-07-26T16:03:54.670Z</time>
      </trkpt>
      <trkpt lat="42.828358" lon="3.035906">
        <ele>4.816355</ele>
        <time>2022-07-26T16:03:59.972Z</time>
      </trkpt>
      <trkpt lat="42.828479" lon="3.036160">
        <ele>4.773914</ele>
        <time>2022-07-26T16:04:04.969Z</time>
      </trkpt>
      <trkpt lat="42.828935" lon="3.036797">
        <ele>4.649183</ele>
        <time>2022-07-26T16:04:18.648Z</time>
      </trkpt>
      <trkpt lat="42.828974" lon="3.036848">
        <ele>4.638858</ele>
        <time>2022-07-26T16:04:19.781Z</time>
      </trkpt>
      <trkpt lat="42.829009" lon="3.036901">
        <ele>4.628865</ele>
        <time>2022-07-26T16:04:20.894Z</time>
      </trkpt>
      <trkpt lat="42.829115" lon="3.037113">
        <ele>4.592911</ele>
        <time>2022-07-26T16:04:24.773Z</time>
      </trkpt>
      <trkpt lat="42.829122" lon="3.037308">
        <ele>4.576428</ele>
        <time>2022-07-26T16:04:27.588Z</time>
      </trkpt>
      <trkpt lat="42.829243" lon="3.037387">
        <ele>4.566297</ele>
        <time>2022-07-26T16:04:30.312Z</time>
      </trkpt>
      <trkpt lat="42.829349" lon="3.037300">
        <ele>4.556955</ele>
        <time>2022-07-26T16:04:32.928Z</time>
      </trkpt>
      <trkpt lat="42.829457" lon="3.037313">
        <ele>4.548768</ele>
        <time>2022-07-26T16:04:35.186Z</time>
      </trkpt>
      <trkpt lat="42.829464" lon="3.037320">
        <ele>4.548113</ele>
        <time>2022-07-26T16:04:35.380Z</time>
      </trkpt>
      <trkpt lat="42.829504" lon="3.037376">
        <ele>4.543784</ele>
        <time>2022-07-26T16:04:36.645Z</time>
      </trkpt>
      <trkpt lat="42.829546" lon="3.037426">
        <ele>4.539573</ele>
        <time>2022-07-26T16:04:37.911Z</time>
      </trkpt>
      <trkpt lat="42.829949" lon="3.037984">
        <ele>4.496204</ele>
        <time>2022-07-26T16:04:50.602Z</time>
      </trkpt>
      <trkpt lat="42.830255" lon="3.038412">
        <ele>4.463102</ele>
        <time>2022-07-26T16:05:00.574Z</time>
      </trkpt>
      <trkpt lat="42.830371" lon="3.038516">
        <ele>4.452619</ele>
        <time>2022-07-26T16:05:03.877Z</time>
      </trkpt>
      <trkpt lat="42.830692" lon="3.038562">
        <ele>4.566418</ele>
        <time>2022-07-26T16:05:11.419Z</time>
      </trkpt>
      <trkpt lat="42.831441" lon="3.038661">
        <ele>4.912887</ele>
        <time>2022-07-26T16:05:29.227Z</time>
      </trkpt>
      <trkpt lat="42.831557" lon="3.038753">
        <ele>4.974673</ele>
        <time>2022-07-26T16:05:32.518Z</time>
      </trkpt>
      <trkpt lat="42.831640" lon="3.038878">
        <ele>5.031609</ele>
        <time>2022-07-26T16:05:35.531Z</time>
      </trkpt>
      <trkpt lat="42.831599" lon="3.038938">
        <ele>5.059300</ele>
        <time>2022-07-26T16:05:37.571Z</time>
      </trkpt>
      <trkpt lat="42.831921" lon="3.039425">
        <ele>5.278206</ele>
        <time>2022-07-26T16:05:56.678Z</time>
      </trkpt>
      <trkpt lat="42.832186" lon="3.039727">
        <ele>5.355577</ele>
        <time>2022-07-26T16:06:10.376Z</time>
      </trkpt>
      <trkpt lat="42.832439" lon="3.039769">
        <ele>5.412675</ele>
        <time>2022-07-26T16:06:20.509Z</time>
      </trkpt>
      <trkpt lat="42.832442" lon="3.039679">
        <ele>5.427477</ele>
        <time>2022-07-26T16:06:22.397Z</time>
      </trkpt>
      <trkpt lat="42.833056" lon="3.039729">
        <ele>5.565275</ele>
        <time>2022-07-26T16:06:36.413Z</time>
      </trkpt>
      <trkpt lat="42.833239" lon="3.039753">
        <ele>5.606462</ele>
        <time>2022-07-26T16:06:40.315Z</time>
      </trkpt>
      <trkpt lat="42.833413" lon="3.039767">
        <ele>5.645511</ele>
        <time>2022-07-26T16:06:44.152Z</time>
      </trkpt>
      <trkpt lat="42.834026" lon="3.039823">
        <ele>5.621385</ele>
        <time>2022-07-26T16:06:57.515Z</time>
      </trkpt>
      <trkpt lat="42.834129" lon="3.039832">
        <ele>5.608665</ele>
        <time>2022-07-26T16:06:59.753Z</time>
      </trkpt>
      <trkpt lat="42.834408" lon="3.039852">
        <ele>5.574235</ele>
        <time>2022-07-26T16:07:05.974Z</time>
      </trkpt>
      <trkpt lat="42.834880" lon="3.039886">
        <ele>5.515987</ele>
        <time>2022-07-26T16:07:16.398Z</time>
      </trkpt>
      <trkpt lat="42.835004" lon="3.039733">
        <ele>5.495378</ele>
        <time>2022-07-26T16:07:21.170Z</time>
      </trkpt>
      <trkpt lat="42.835394" lon="3.039778">
        <ele>5.444371</ele>
        <time>2022-07-26T16:07:32.206Z</time>
      </trkpt>
      <trkpt lat="42.835689" lon="3.039812">
        <ele>5.397753</ele>
        <time>2022-07-26T16:07:40.563Z</time>
      </trkpt>
      <trkpt lat="42.835797" lon="3.040151">
        <ele>5.355075</ele>
        <time>2022-07-26T16:07:48.440Z</time>
      </trkpt>
      <trkpt lat="42.835922" lon="3.040309">
        <ele>5.328238</ele>
        <time>2022-07-26T16:07:52.275Z</time>
      </trkpt>
      <trkpt lat="42.835997" lon="3.040339">
        <ele>5.315930</ele>
        <time>2022-07-26T16:07:53.990Z</time>
      </trkpt>
      <trkpt lat="42.836534" lon="3.040382">
        <ele>5.231227</ele>
        <time>2022-07-26T16:08:05.968Z</time>
      </trkpt>
      <trkpt lat="42.837607" lon="3.040472">
        <ele>4.716774</ele>
        <time>2022-07-26T16:08:28.211Z</time>
      </trkpt>
      <trkpt lat="42.837651" lon="3.040475">
        <ele>4.688450</ele>
        <time>2022-07-26T16:08:29.095Z</time>
      </trkpt>
      <trkpt lat="42.837758" lon="3.040484">
        <ele>4.619528</ele>
        <time>2022-07-26T16:08:31.247Z</time>
      </trkpt>
      <trkpt lat="42.837898" lon="3.040496">
        <ele>4.529343</ele>
        <time>2022-07-26T16:08:34.083Z</time>
      </trkpt>
      <trkpt lat="42.837956" lon="3.040482">
        <ele>4.491475</ele>
        <time>2022-07-26T16:08:35.295Z</time>
      </trkpt>
      <trkpt lat="42.838180" lon="3.040186">
        <ele>4.290945</ele>
        <time>2022-07-26T16:08:41.610Z</time>
      </trkpt>
      <trkpt lat="42.838267" lon="3.040070">
        <ele>4.212721</ele>
        <time>2022-07-26T16:08:44.045Z</time>
      </trkpt>
      <trkpt lat="42.838409" lon="3.039996">
        <ele>4.114989</ele>
        <time>2022-07-26T16:08:47.045Z</time>
      </trkpt>
      <trkpt lat="42.838483" lon="3.039984">
        <ele>4.067078</ele>
        <time>2022-07-26T16:08:48.515Z</time>
      </trkpt>
      <trkpt lat="42.838611" lon="3.040039">
        <ele>3.951433</ele>
        <time>2022-07-26T16:08:51.129Z</time>
      </trkpt>
      <trkpt lat="42.838721" lon="3.040098">
        <ele>3.814718</ele>
        <time>2022-07-26T16:08:53.402Z</time>
      </trkpt>
      <trkpt lat="42.839369" lon="3.040904">
        <ele>2.800313</ele>
        <time>2022-07-26T16:09:09.808Z</time>
      </trkpt>
      <trkpt lat="42.839417" lon="3.040968">
        <ele>2.722670</ele>
        <time>2022-07-26T16:09:11.074Z</time>
      </trkpt>
      <trkpt lat="42.839534" lon="3.041122">
        <ele>2.534597</ele>
        <time>2022-07-26T16:09:14.165Z</time>
      </trkpt>
      <trkpt lat="42.839845" lon="3.041540">
        <ele>2.029556</ele>
        <time>2022-07-26T16:09:22.425Z</time>
      </trkpt>
      <trkpt lat="42.840222" lon="3.042044">
        <ele>1.659105</ele>
        <time>2022-07-26T16:09:32.507Z</time>
      </trkpt>
      <trkpt lat="42.840386" lon="3.042130">
        <ele>1.550055</ele>
        <time>2022-07-26T16:09:35.959Z</time>
      </trkpt>
      <trkpt lat="42.840450" lon="3.042130">
        <ele>1.510334</ele>
        <time>2022-07-26T16:09:37.133Z</time>
      </trkpt>
      <trkpt lat="42.841094" lon="3.042138">
        <ele>1.110626</ele>
        <time>2022-07-26T16:09:49.933Z</time>
      </trkpt>
      <trkpt lat="42.841263" lon="3.042143">
        <ele>1.005713</ele>
        <time>2022-07-26T16:09:53.323Z</time>
      </trkpt>
      <trkpt lat="42.841269" lon="3.042269">
        <ele>0.948253</ele>
        <time>2022-07-26T16:09:56.650Z</time>
      </trkpt>
      <trkpt lat="42.845961" lon="3.042359">
        <ele>2.619730</ele>
        <time>2022-07-26T16:11:53.882Z</time>
      </trkpt>
      <trkpt lat="42.845995" lon="3.042207">
        <ele>2.661363</ele>
        <time>2022-07-26T16:11:57.576Z</time>
      </trkpt>
      <trkpt lat="42.846422" lon="3.042212">
        <ele>2.813945</ele>
        <time>2022-07-26T16:12:07.414Z</time>
      </trkpt>
      <trkpt lat="42.846974" lon="3.042216">
        <ele>2.948000</ele>
        <time>2022-07-26T16:12:20.024Z</time>
      </trkpt>
      <trkpt lat="42.847262" lon="3.042219">
        <ele>2.953516</ele>
        <time>2022-07-26T16:12:26.692Z</time>
      </trkpt>
      <trkpt lat="42.847322" lon="3.042219">
        <ele>2.954665</ele>
        <time>2022-07-26T16:12:27.994Z</time>
      </trkpt>
      <trkpt lat="42.847690" lon="3.042223">
        <ele>2.961714</ele>
        <time>2022-07-26T16:12:36.388Z</time>
      </trkpt>
      <trkpt lat="42.847727" lon="3.042223">
        <ele>2.962422</ele>
        <time>2022-07-26T16:12:37.188Z</time>
      </trkpt>
      <trkpt lat="42.848114" lon="3.042174">
        <ele>2.969866</ele>
        <time>2022-07-26T16:12:45.646Z</time>
      </trkpt>
      <trkpt lat="42.848202" lon="3.042186">
        <ele>2.971560</ele>
        <time>2022-07-26T16:12:47.621Z</time>
      </trkpt>
      <trkpt lat="42.849162" lon="3.040922">
        <ele>3.050085</ele>
        <time>2022-07-26T16:13:16.978Z</time>
      </trkpt>
      <trkpt lat="42.849494" lon="3.040714">
        <ele>3.077397</ele>
        <time>2022-07-26T16:13:25.415Z</time>
      </trkpt>
      <trkpt lat="42.849887" lon="3.040716">
        <ele>3.106776</ele>
        <time>2022-07-26T16:13:34.462Z</time>
      </trkpt>
      <trkpt lat="42.850771" lon="3.040732">
        <ele>3.332669</ele>
        <time>2022-07-26T16:13:54.948Z</time>
      </trkpt>
      <trkpt lat="42.850913" lon="3.040681">
        <ele>3.373110</ele>
        <time>2022-07-26T16:13:58.341Z</time>
      </trkpt>
      <trkpt lat="42.850985" lon="3.040681">
        <ele>3.392939</ele>
        <time>2022-07-26T16:14:00.040Z</time>
      </trkpt>
      <trkpt lat="42.851030" lon="3.040735">
        <ele>3.409445</ele>
        <time>2022-07-26T16:14:01.470Z</time>
      </trkpt>
      <trkpt lat="42.852359" lon="3.040749">
        <ele>3.679412</ele>
        <time>2022-07-26T16:14:32.789Z</time>
      </trkpt>
      <trkpt lat="42.853008" lon="3.040758">
        <ele>3.755211</ele>
        <time>2022-07-26T16:14:47.602Z</time>
      </trkpt>
      <trkpt lat="42.853116" lon="3.040763">
        <ele>3.767832</ele>
        <time>2022-07-26T16:14:49.976Z</time>
      </trkpt>
      <trkpt lat="42.853220" lon="3.040764">
        <ele>3.779978</ele>
        <time>2022-07-26T16:14:52.291Z</time>
      </trkpt>
      <trkpt lat="42.854002" lon="3.040768">
        <ele>3.623560</ele>
        <time>2022-07-26T16:15:09.229Z</time>
      </trkpt>
      <trkpt lat="42.854388" lon="3.040770">
        <ele>3.456156</ele>
        <time>2022-07-26T16:15:17.290Z</time>
      </trkpt>
      <trkpt lat="42.854914" lon="3.040773">
        <ele>3.228034</ele>
        <time>2022-07-26T16:15:27.942Z</time>
      </trkpt>
      <trkpt lat="42.854977" lon="3.040746">
        <ele>3.199395</ele>
        <time>2022-07-26T16:15:29.265Z</time>
      </trkpt>
      <trkpt lat="42.855051" lon="3.040714">
        <ele>3.165728</ele>
        <time>2022-07-26T16:15:30.833Z</time>
      </trkpt>
      <trkpt lat="42.855224" lon="3.040534">
        <ele>3.071367</ele>
        <time>2022-07-26T16:15:35.198Z</time>
      </trkpt>
      <trkpt lat="42.855339" lon="3.040381">
        <ele>2.999094</ele>
        <time>2022-07-26T16:15:38.448Z</time>
      </trkpt>
      <trkpt lat="42.855440" lon="3.040245">
        <ele>2.933210</ele>
        <time>2022-07-26T16:15:41.324Z</time>
      </trkpt>
      <trkpt lat="42.855508" lon="3.040148">
        <ele>2.887534</ele>
        <time>2022-07-26T16:15:43.333Z</time>
      </trkpt>
      <trkpt lat="42.855556" lon="3.040084">
        <ele>2.856374</ele>
        <time>2022-07-26T16:15:44.696Z</time>
      </trkpt>
      <trkpt lat="42.856055" lon="3.039419">
        <ele>2.532521</ele>
        <time>2022-07-26T16:15:59.049Z</time>
      </trkpt>
      <trkpt lat="42.856131" lon="3.039320">
        <ele>2.483736</ele>
        <time>2022-07-26T16:16:01.218Z</time>
      </trkpt>
      <trkpt lat="42.856270" lon="3.039328">
        <ele>2.419150</ele>
        <time>2022-07-26T16:16:04.119Z</time>
      </trkpt>
      <trkpt lat="42.856324" lon="3.039259">
        <ele>2.384801</ele>
        <time>2022-07-26T16:16:05.670Z</time>
      </trkpt>
      <trkpt lat="42.856331" lon="3.039079">
        <ele>2.323458</ele>
        <time>2022-07-26T16:16:08.415Z</time>
      </trkpt>
      <trkpt lat="42.856264" lon="3.038989">
        <ele>2.279805</ele>
        <time>2022-07-26T16:16:10.402Z</time>
      </trkpt>
      <trkpt lat="42.856149" lon="3.038988">
        <ele>2.226417</ele>
        <time>2022-07-26T16:16:12.817Z</time>
      </trkpt>
      <trkpt lat="42.856095" lon="3.038917">
        <ele>2.202285</ele>
        <time>2022-07-26T16:16:14.380Z</time>
      </trkpt>
      <trkpt lat="42.855627" lon="3.038293">
        <ele>2.166820</ele>
        <time>2022-07-26T16:16:28.482Z</time>
      </trkpt>
      <trkpt lat="42.855156" lon="3.037661">
        <ele>2.131016</ele>
        <time>2022-07-26T16:16:43.149Z</time>
      </trkpt>
      <trkpt lat="42.855062" lon="3.037610">
        <ele>2.125534</ele>
        <time>2022-07-26T16:16:45.405Z</time>
      </trkpt>
      <trkpt lat="42.854985" lon="3.037493">
        <ele>2.119287</ele>
        <time>2022-07-26T16:16:48.046Z</time>
      </trkpt>
      <trkpt lat="42.854960" lon="3.037457">
        <ele>2.117317</ele>
        <time>2022-07-26T16:16:48.874Z</time>
      </trkpt>
      <trkpt lat="42.854888" lon="3.037347">
        <ele>2.111459</ele>
        <time>2022-07-26T16:16:51.332Z</time>
      </trkpt>
      <trkpt lat="42.854773" lon="3.037183">
        <ele>2.122966</ele>
        <time>2022-07-26T16:16:55.163Z</time>
      </trkpt>
      <trkpt lat="42.854734" lon="3.037129">
        <ele>2.136302</ele>
        <time>2022-07-26T16:16:56.468Z</time>
      </trkpt>
      <trkpt lat="42.854695" lon="3.037074">
        <ele>2.149763</ele>
        <time>2022-07-26T16:16:57.766Z</time>
      </trkpt>
      <trkpt lat="42.854589" lon="3.036822">
        <ele>2.200876</ele>
        <time>2022-07-26T16:17:02.686Z</time>
      </trkpt>
      <trkpt lat="42.854391" lon="3.036555">
        <ele>2.267690</ele>
        <time>2022-07-26T16:17:09.076Z</time>
      </trkpt>
      <trkpt lat="42.854210" lon="3.036313">
        <ele>2.328511</ele>
        <time>2022-07-26T16:17:14.858Z</time>
      </trkpt>
      <trkpt lat="42.854122" lon="3.036195">
        <ele>2.358124</ele>
        <time>2022-07-26T16:17:17.737Z</time>
      </trkpt>
      <trkpt lat="42.853696" lon="3.035611">
        <ele>2.503061</ele>
        <time>2022-07-26T16:17:31.836Z</time>
      </trkpt>
      <trkpt lat="42.853696" lon="3.035514">
        <ele>2.520126</ele>
        <time>2022-07-26T16:17:33.592Z</time>
      </trkpt>
      <trkpt lat="42.853579" lon="3.035422">
        <ele>2.557718</ele>
        <time>2022-07-26T16:17:36.705Z</time>
      </trkpt>
      <trkpt lat="42.853494" lon="3.035528">
        <ele>2.595117</ele>
        <time>2022-07-26T16:17:39.413Z</time>
      </trkpt>
      <trkpt lat="42.853496" lon="3.035605">
        <ele>2.613460</ele>
        <time>2022-07-26T16:17:40.796Z</time>
      </trkpt>
      <trkpt lat="42.853432" lon="3.035772">
        <ele>2.658322</ele>
        <time>2022-07-26T16:17:44.083Z</time>
      </trkpt>
      <trkpt lat="42.853281" lon="3.035969">
        <ele>2.726174</ele>
        <time>2022-07-26T16:17:49.017Z</time>
      </trkpt>
      <trkpt lat="42.853109" lon="3.036205">
        <ele>2.805398</ele>
        <time>2022-07-26T16:17:54.845Z</time>
      </trkpt>
      <trkpt lat="42.852936" lon="3.036442">
        <ele>2.885020</ele>
        <time>2022-07-26T16:18:00.737Z</time>
      </trkpt>
      <trkpt lat="42.852896" lon="3.036495">
        <ele>2.903129</ele>
        <time>2022-07-26T16:18:02.004Z</time>
      </trkpt>
      <trkpt lat="42.852936" lon="3.036442">
        <ele>2.921238</ele>
        <time>2022-07-26T16:18:03.307Z</time>
      </trkpt>
      <trkpt lat="42.852890" lon="3.036407">
        <ele>2.938343</ele>
        <time>2022-07-26T16:18:04.869Z</time>
      </trkpt>
      <trkpt lat="42.852786" lon="3.036517">
        <ele>2.981079</ele>
        <time>2022-07-26T16:18:08.074Z</time>
      </trkpt>
      <trkpt lat="42.852598" lon="3.036587">
        <ele>3.044364</ele>
        <time>2022-07-26T16:18:12.470Z</time>
      </trkpt>
      <trkpt lat="42.851942" lon="3.036625">
        <ele>3.220251</ele>
        <time>2022-07-26T16:18:27.682Z</time>
      </trkpt>
      <trkpt lat="42.851789" lon="3.036592">
        <ele>3.256708</ele>
        <time>2022-07-26T16:18:31.300Z</time>
      </trkpt>
      <trkpt lat="42.851654" lon="3.036477">
        <ele>3.294168</ele>
        <time>2022-07-26T16:18:34.958Z</time>
      </trkpt>
      <trkpt lat="42.851561" lon="3.036183">
        <ele>3.349416</ele>
        <time>2022-07-26T16:18:40.376Z</time>
      </trkpt>
      <trkpt lat="42.851585" lon="3.035967">
        <ele>3.387111</ele>
        <time>2022-07-26T16:18:44.019Z</time>
      </trkpt>
      <trkpt lat="42.851714" lon="3.035737">
        <ele>3.437077</ele>
        <time>2022-07-26T16:18:48.884Z</time>
      </trkpt>
      <trkpt lat="42.852878" lon="3.034836">
        <ele>3.676264</ele>
        <time>2022-07-26T16:19:20.228Z</time>
      </trkpt>
      <trkpt lat="42.853125" lon="3.034664">
        <ele>3.717609</ele>
        <time>2022-07-26T16:19:26.878Z</time>
      </trkpt>
      <trkpt lat="42.855337" lon="3.033136">
        <ele>3.392799</ele>
        <time>2022-07-26T16:20:20.837Z</time>
      </trkpt>
      <trkpt lat="42.856399" lon="3.032389">
        <ele>2.462139</ele>
        <time>2022-07-26T16:20:43.857Z</time>
      </trkpt>
      <trkpt lat="42.856897" lon="3.032054">
        <ele>2.029660</ele>
        <time>2022-07-26T16:20:54.708Z</time>
      </trkpt>
      <trkpt lat="42.857736" lon="3.031757">
        <ele>1.835178</ele>
        <time>2022-07-26T16:21:17.122Z</time>
      </trkpt>
      <trkpt lat="42.858575" lon="3.031460">
        <ele>1.646516</ele>
        <time>2022-07-26T16:21:39.537Z</time>
      </trkpt>
      <trkpt lat="42.859414" lon="3.031163">
        <ele>1.691458</ele>
        <time>2022-07-26T16:22:01.952Z</time>
      </trkpt>
      <trkpt lat="42.860253" lon="3.030866">
        <ele>1.758668</ele>
        <time>2022-07-26T16:22:24.366Z</time>
      </trkpt>
      <trkpt lat="42.861092" lon="3.030570">
        <ele>1.931256</ele>
        <time>2022-07-26T16:22:46.781Z</time>
      </trkpt>
      <trkpt lat="42.861331" lon="3.030144">
        <ele>2.018823</ele>
        <time>2022-07-26T16:23:01.825Z</time>
      </trkpt>
      <trkpt lat="42.861709" lon="3.029827">
        <ele>2.117631</ele>
        <time>2022-07-26T16:23:18.593Z</time>
      </trkpt>
      <trkpt lat="42.862418" lon="3.029810">
        <ele>2.210255</ele>
        <time>2022-07-26T16:23:45.670Z</time>
      </trkpt>
      <trkpt lat="42.862820" lon="3.030072">
        <ele>2.248038</ele>
        <time>2022-07-26T16:24:02.641Z</time>
      </trkpt>
      <trkpt lat="42.862920" lon="3.029930">
        <ele>2.260278</ele>
        <time>2022-07-26T16:24:08.007Z</time>
      </trkpt>
      <trkpt lat="42.863813" lon="3.030673">
        <ele>2.309242</ele>
        <time>2022-07-26T16:24:30.866Z</time>
      </trkpt>
      <trkpt lat="42.864023" lon="3.031469">
        <ele>2.282508</ele>
        <time>2022-07-26T16:24:44.262Z</time>
      </trkpt>
      <trkpt lat="42.864149" lon="3.031661">
        <ele>2.274365</ele>
        <time>2022-07-26T16:24:48.426Z</time>
      </trkpt>
      <trkpt lat="42.864469" lon="3.031942">
        <ele>2.257958</ele>
        <time>2022-07-26T16:24:56.889Z</time>
      </trkpt>
      <trkpt lat="42.865258" lon="3.032490">
        <ele>2.279253</ele>
        <time>2022-07-26T16:25:19.762Z</time>
      </trkpt>
      <trkpt lat="42.866046" lon="3.033038">
        <ele>2.330733</ele>
        <time>2022-07-26T16:25:42.634Z</time>
      </trkpt>
      <trkpt lat="42.866834" lon="3.033585">
        <ele>2.432030</ele>
        <time>2022-07-26T16:26:05.506Z</time>
      </trkpt>
      <trkpt lat="42.867622" lon="3.034133">
        <ele>2.562664</ele>
        <time>2022-07-26T16:26:28.378Z</time>
      </trkpt>
      <trkpt lat="42.868410" lon="3.034681">
        <ele>3.051440</ele>
        <time>2022-07-26T16:26:51.251Z</time>
      </trkpt>
      <trkpt lat="42.869198" lon="3.035228">
        <ele>3.782716</ele>
        <time>2022-07-26T16:27:14.124Z</time>
      </trkpt>
      <trkpt lat="42.869987" lon="3.035776">
        <ele>4.211845</ele>
        <time>2022-07-26T16:27:36.997Z</time>
      </trkpt>
      <trkpt lat="42.870775" lon="3.036324">
        <ele>4.404925</ele>
        <time>2022-07-26T16:27:59.869Z</time>
      </trkpt>
      <trkpt lat="42.871563" lon="3.036872">
        <ele>4.161978</ele>
        <time>2022-07-26T16:28:22.741Z</time>
      </trkpt>
      <trkpt lat="42.872351" lon="3.037419">
        <ele>3.531617</ele>
        <time>2022-07-26T16:28:45.614Z</time>
      </trkpt>
      <trkpt lat="42.873139" lon="3.037967">
        <ele>3.296425</ele>
        <time>2022-07-26T16:29:08.486Z</time>
      </trkpt>
      <trkpt lat="42.873927" lon="3.038515">
        <ele>3.464069</ele>
        <time>2022-07-26T16:29:31.358Z</time>
      </trkpt>
      <trkpt lat="42.874715" lon="3.039062">
        <ele>4.036551</ele>
        <time>2022-07-26T16:29:54.230Z</time>
      </trkpt>
      <trkpt lat="42.875504" lon="3.039610">
        <ele>5.082962</ele>
        <time>2022-07-26T16:30:17.104Z</time>
      </trkpt>
      <trkpt lat="42.876292" lon="3.040158">
        <ele>5.733765</ele>
        <time>2022-07-26T16:30:39.977Z</time>
      </trkpt>
      <trkpt lat="42.877080" lon="3.040705">
        <ele>5.858627</ele>
        <time>2022-07-26T16:31:02.848Z</time>
      </trkpt>
      <trkpt lat="42.877868" lon="3.041253">
        <ele>5.641179</ele>
        <time>2022-07-26T16:31:25.720Z</time>
      </trkpt>
      <trkpt lat="42.878656" lon="3.041801">
        <ele>4.898483</ele>
        <time>2022-07-26T16:31:48.592Z</time>
      </trkpt>
      <trkpt lat="42.879444" lon="3.042348">
        <ele>4.261080</ele>
        <time>2022-07-26T16:32:11.464Z</time>
      </trkpt>
      <trkpt lat="42.880232" lon="3.042896">
        <ele>3.809653</ele>
        <time>2022-07-26T16:32:34.336Z</time>
      </trkpt>
      <trkpt lat="42.881655" lon="3.044198">
        <ele>3.300727</ele>
        <time>2022-07-26T16:33:11.258Z</time>
      </trkpt>
      <trkpt lat="42.883057" lon="3.045376">
        <ele>3.063289</ele>
        <time>2022-07-26T16:33:46.860Z</time>
      </trkpt>
      <trkpt lat="42.885166" lon="3.047080">
        <ele>2.911424</ele>
        <time>2022-07-26T16:34:40.836Z</time>
      </trkpt>
      <trkpt lat="42.886039" lon="3.047682">
        <ele>2.833336</ele>
        <time>2022-07-26T16:35:02.580Z</time>
      </trkpt>
      <trkpt lat="42.886529" lon="3.047946">
        <ele>2.785786</ele>
        <time>2022-07-26T16:35:14.180Z</time>
      </trkpt>
      <trkpt lat="42.887094" lon="3.048186">
        <ele>2.708694</ele>
        <time>2022-07-26T16:35:27.118Z</time>
      </trkpt>
      <trkpt lat="42.888097" lon="3.048452">
        <ele>2.410082</ele>
        <time>2022-07-26T16:35:48.607Z</time>
      </trkpt>
      <trkpt lat="42.888845" lon="3.048504">
        <ele>2.204836</ele>
        <time>2022-07-26T16:36:04.272Z</time>
      </trkpt>
      <trkpt lat="42.888970" lon="3.048513">
        <ele>2.187371</ele>
        <time>2022-07-26T16:36:06.949Z</time>
      </trkpt>
      <trkpt lat="42.889800" lon="3.048459">
        <ele>2.071439</ele>
        <time>2022-07-26T16:36:24.856Z</time>
      </trkpt>
      <trkpt lat="42.890023" lon="3.048436">
        <ele>2.040238</ele>
        <time>2022-07-26T16:36:29.808Z</time>
      </trkpt>
      <trkpt lat="42.890376" lon="3.048399">
        <ele>1.990843</ele>
        <time>2022-07-26T16:36:37.555Z</time>
      </trkpt>
      <trkpt lat="42.891280" lon="3.048299">
        <ele>2.018523</ele>
        <time>2022-07-26T16:36:57.998Z</time>
      </trkpt>
      <trkpt lat="42.893530" lon="3.048090">
        <ele>2.118896</ele>
        <time>2022-07-26T16:37:48.997Z</time>
      </trkpt>
      <trkpt lat="42.894356" lon="3.048096">
        <ele>2.121217</ele>
        <time>2022-07-26T16:38:07.045Z</time>
      </trkpt>
      <trkpt lat="42.901292" lon="3.049101">
        <ele>1.918614</ele>
        <time>2022-07-26T16:40:40.800Z</time>
      </trkpt>
      <trkpt lat="42.901912" lon="3.049078">
        <ele>2.209928</ele>
        <time>2022-07-26T16:40:55.875Z</time>
      </trkpt>
      <trkpt lat="42.902342" lon="3.048953">
        <ele>2.417773</ele>
        <time>2022-07-26T16:41:06.586Z</time>
      </trkpt>
      <trkpt lat="42.902561" lon="3.048816">
        <ele>2.531660</ele>
        <time>2022-07-26T16:41:12.551Z</time>
      </trkpt>
      <trkpt lat="42.902968" lon="3.048440">
        <ele>2.763991</ele>
        <time>2022-07-26T16:41:24.742Z</time>
      </trkpt>
      <trkpt lat="42.903454" lon="3.047834">
        <ele>2.981719</ele>
        <time>2022-07-26T16:41:40.769Z</time>
      </trkpt>
      <trkpt lat="42.903606" lon="3.047536">
        <ele>3.069083</ele>
        <time>2022-07-26T16:41:47.183Z</time>
      </trkpt>
      <trkpt lat="42.903894" lon="3.046970">
        <ele>3.234885</ele>
        <time>2022-07-26T16:41:59.129Z</time>
      </trkpt>
      <trkpt lat="42.904402" lon="3.045427">
        <ele>2.868321</ele>
        <time>2022-07-26T16:42:25.703Z</time>
      </trkpt>
      <trkpt lat="42.905444" lon="3.042674">
        <ele>1.393560</ele>
        <time>2022-07-26T16:43:09.944Z</time>
      </trkpt>
      <trkpt lat="42.905755" lon="3.041419">
        <ele>1.219272</ele>
        <time>2022-07-26T16:43:30.631Z</time>
      </trkpt>
      <trkpt lat="42.905833" lon="3.040562">
        <ele>1.415693</ele>
        <time>2022-07-26T16:43:45.634Z</time>
      </trkpt>
      <trkpt lat="42.905778" lon="3.039567">
        <ele>1.706926</ele>
        <time>2022-07-26T16:44:03.837Z</time>
      </trkpt>
      <trkpt lat="42.905598" lon="3.038644">
        <ele>2.599118</ele>
        <time>2022-07-26T16:44:22.073Z</time>
      </trkpt>
      <trkpt lat="42.905330" lon="3.037796">
        <ele>3.461808</ele>
        <time>2022-07-26T16:44:40.605Z</time>
      </trkpt>
      <trkpt lat="42.905305" lon="3.037565">
        <ele>3.679925</ele>
        <time>2022-07-26T16:44:45.605Z</time>
      </trkpt>
      <trkpt lat="42.905314" lon="3.037386">
        <ele>3.847520</ele>
        <time>2022-07-26T16:44:49.454Z</time>
      </trkpt>
      <trkpt lat="42.905212" lon="3.037262">
        <ele>4.146314</ele>
        <time>2022-07-26T16:44:53.538Z</time>
      </trkpt>
      <trkpt lat="42.905136" lon="3.037262">
        <ele>4.357146</ele>
        <time>2022-07-26T16:44:55.843Z</time>
      </trkpt>
      <trkpt lat="42.904866" lon="3.036838">
        <ele>5.498770</ele>
        <time>2022-07-26T16:45:08.603Z</time>
      </trkpt>
      <trkpt lat="42.903405" lon="3.033834">
        <ele>13.002494</ele>
        <time>2022-07-26T16:46:41.155Z</time>
      </trkpt>
      <trkpt lat="42.902257" lon="3.031483">
        <ele>17.232409</ele>
        <time>2022-07-26T16:47:44.450Z</time>
      </trkpt>
      <trkpt lat="42.902163" lon="3.031271">
        <ele>17.472995</ele>
        <time>2022-07-26T16:47:48.755Z</time>
      </trkpt>
      <trkpt lat="42.901801" lon="3.030304">
        <ele>17.820509</ele>
        <time>2022-07-26T16:48:07.334Z</time>
      </trkpt>
      <trkpt lat="42.901551" lon="3.029386">
        <ele>18.133921</ele>
        <time>2022-07-26T16:48:22.691Z</time>
      </trkpt>
      <trkpt lat="42.901419" lon="3.028685">
        <ele>18.712654</ele>
        <time>2022-07-26T16:48:35.891Z</time>
      </trkpt>
      <trkpt lat="42.901325" lon="3.027921">
        <ele>19.592527</ele>
        <time>2022-07-26T16:48:52.557Z</time>
      </trkpt>
      <trkpt lat="42.901284" lon="3.027150">
        <ele>20.470502</ele>
        <time>2022-07-26T16:49:09.943Z</time>
      </trkpt>
      <trkpt lat="42.901289" lon="3.026649">
        <ele>21.021495</ele>
        <time>2022-07-26T16:49:21.116Z</time>
      </trkpt>
      <trkpt lat="42.901302" lon="3.026252">
        <ele>21.092735</ele>
        <time>2022-07-26T16:49:29.772Z</time>
      </trkpt>
      <trkpt lat="42.901447" lon="3.024958">
        <ele>21.327405</ele>
        <time>2022-07-26T16:49:55.500Z</time>
      </trkpt>
      <trkpt lat="42.901910" lon="3.022890">
        <ele>18.236737</ele>
        <time>2022-07-26T16:50:22.749Z</time>
      </trkpt>
      <trkpt lat="42.901977" lon="3.022590">
        <ele>17.531354</ele>
        <time>2022-07-26T16:50:26.180Z</time>
      </trkpt>
      <trkpt lat="42.902332" lon="3.021529">
        <ele>15.175048</ele>
        <time>2022-07-26T16:50:39.591Z</time>
      </trkpt>
      <trkpt lat="42.902745" lon="3.020825">
        <ele>13.673630</ele>
        <time>2022-07-26T16:50:50.286Z</time>
      </trkpt>
      <trkpt lat="42.902855" lon="3.020692">
        <ele>13.339706</ele>
        <time>2022-07-26T16:50:53.087Z</time>
      </trkpt>
      <trkpt lat="42.903409" lon="3.020187">
        <ele>11.862024</ele>
        <time>2022-07-26T16:51:05.991Z</time>
      </trkpt>
      <trkpt lat="42.903671" lon="3.020032">
        <ele>12.253715</ele>
        <time>2022-07-26T16:51:11.894Z</time>
      </trkpt>
      <trkpt lat="42.904269" lon="3.019821">
        <ele>13.100971</ele>
        <time>2022-07-26T16:51:29.223Z</time>
      </trkpt>
      <trkpt lat="42.904921" lon="3.019804">
        <ele>13.995509</ele>
        <time>2022-07-26T16:51:49.628Z</time>
      </trkpt>
      <trkpt lat="42.905698" lon="3.020011">
        <ele>15.452594</ele>
        <time>2022-07-26T16:52:14.706Z</time>
      </trkpt>
      <trkpt lat="42.907214" lon="3.020577">
        <ele>18.695463</ele>
        <time>2022-07-26T16:53:01.381Z</time>
      </trkpt>
      <trkpt lat="42.908288" lon="3.020762">
        <ele>21.037528</ele>
        <time>2022-07-26T16:53:34.342Z</time>
      </trkpt>
      <trkpt lat="42.909829" lon="3.020764">
        <ele>24.176603</ele>
        <time>2022-07-26T16:54:24.926Z</time>
      </trkpt>
      <trkpt lat="42.910905" lon="3.020760">
        <ele>25.681047</ele>
        <time>2022-07-26T16:54:53.578Z</time>
      </trkpt>
      <trkpt lat="42.911795" lon="3.020789">
        <ele>26.138383</ele>
        <time>2022-07-26T16:55:12.861Z</time>
      </trkpt>
      <trkpt lat="42.912627" lon="3.020925">
        <ele>27.479082</ele>
        <time>2022-07-26T16:55:33.800Z</time>
      </trkpt>
      <trkpt lat="42.912743" lon="3.020943">
        <ele>27.831762</ele>
        <time>2022-07-26T16:55:37.232Z</time>
      </trkpt>
      <trkpt lat="42.913081" lon="3.020997">
        <ele>28.859794</ele>
        <time>2022-07-26T16:55:47.844Z</time>
      </trkpt>
      <trkpt lat="42.915017" lon="3.021316">
        <ele>35.688349</ele>
        <time>2022-07-26T16:57:06.326Z</time>
      </trkpt>
      <trkpt lat="42.915973" lon="3.021329">
        <ele>39.218648</ele>
        <time>2022-07-26T16:57:41.539Z</time>
      </trkpt>
      <trkpt lat="42.916601" lon="3.021377">
        <ele>40.356880</ele>
        <time>2022-07-26T16:58:10.465Z</time>
      </trkpt>
      <trkpt lat="42.917222" lon="3.021111">
        <ele>41.534659</ele>
        <time>2022-07-26T16:58:38.062Z</time>
      </trkpt>
      <trkpt lat="42.917826" lon="3.020690">
        <ele>42.325375</ele>
        <time>2022-07-26T16:59:05.804Z</time>
      </trkpt>
      <trkpt lat="42.918177" lon="3.020372">
        <ele>42.449766</ele>
        <time>2022-07-26T16:59:21.872Z</time>
      </trkpt>
      <trkpt lat="42.919149" lon="3.019258">
        <ele>42.770199</ele>
        <time>2022-07-26T17:00:09.167Z</time>
      </trkpt>
      <trkpt lat="42.919478" lon="3.018874">
        <ele>42.767294</ele>
        <time>2022-07-26T17:00:25.036Z</time>
      </trkpt>
      <trkpt lat="42.920096" lon="3.018315">
        <ele>42.762318</ele>
        <time>2022-07-26T17:00:52.403Z</time>
      </trkpt>
      <trkpt lat="42.920873" lon="3.017907">
        <ele>42.744969</ele>
        <time>2022-07-26T17:01:23.545Z</time>
      </trkpt>
      <trkpt lat="42.921161" lon="3.017808">
        <ele>42.733967</ele>
        <time>2022-07-26T17:01:34.502Z</time>
      </trkpt>
      <trkpt lat="42.921189" lon="3.017806">
        <ele>42.732928</ele>
        <time>2022-07-26T17:01:35.624Z</time>
      </trkpt>
      <trkpt lat="42.921876" lon="3.017756">
        <ele>42.707439</ele>
        <time>2022-07-26T17:02:01.146Z</time>
      </trkpt>
      <trkpt lat="42.922591" lon="3.017898">
        <ele>42.527883</ele>
        <time>2022-07-26T17:02:27.632Z</time>
      </trkpt>
      <trkpt lat="42.924340" lon="3.018623">
        <ele>41.454737</ele>
        <time>2022-07-26T17:03:31.258Z</time>
      </trkpt>
      <trkpt lat="42.925122" lon="3.018817">
        <ele>40.725277</ele>
        <time>2022-07-26T17:03:58.084Z</time>
      </trkpt>
      <trkpt lat="42.925288" lon="3.018811">
        <ele>40.572871</ele>
        <time>2022-07-26T17:04:01.511Z</time>
      </trkpt>
      <trkpt lat="42.925410" lon="3.018684">
        <ele>40.432080</ele>
        <time>2022-07-26T17:04:04.529Z</time>
      </trkpt>
      <trkpt lat="42.926208" lon="3.018653">
        <ele>39.622675</ele>
        <time>2022-07-26T17:04:19.964Z</time>
      </trkpt>
      <trkpt lat="42.927186" lon="3.018380">
        <ele>38.542782</ele>
        <time>2022-07-26T17:04:39.124Z</time>
      </trkpt>
      <trkpt lat="42.928110" lon="3.017877">
        <ele>37.102870</ele>
        <time>2022-07-26T17:04:57.954Z</time>
      </trkpt>
      <trkpt lat="42.928944" lon="3.017151">
        <ele>35.489352</ele>
        <time>2022-07-26T17:05:15.781Z</time>
      </trkpt>
      <trkpt lat="42.929389" lon="3.016618">
        <ele>33.387999</ele>
        <time>2022-07-26T17:05:25.986Z</time>
      </trkpt>
      <trkpt lat="42.929743" lon="3.016096">
        <ele>31.206103</ele>
        <time>2022-07-26T17:05:34.212Z</time>
      </trkpt>
      <trkpt lat="42.930249" lon="3.015118">
        <ele>27.425686</ele>
        <time>2022-07-26T17:05:47.335Z</time>
      </trkpt>
      <trkpt lat="42.930524" lon="3.014413">
        <ele>23.516787</ele>
        <time>2022-07-26T17:05:55.831Z</time>
      </trkpt>
      <trkpt lat="42.931067" lon="3.012532">
        <ele>14.215235</ele>
        <time>2022-07-26T17:06:16.906Z</time>
      </trkpt>
      <trkpt lat="42.931137" lon="3.012269">
        <ele>13.237541</ele>
        <time>2022-07-26T17:06:19.934Z</time>
      </trkpt>
      <trkpt lat="42.931334" lon="3.011549">
        <ele>10.552113</ele>
        <time>2022-07-26T17:06:28.320Z</time>
      </trkpt>
      <trkpt lat="42.932295" lon="3.008014">
        <ele>2.424571</ele>
        <time>2022-07-26T17:07:14.402Z</time>
      </trkpt>
      <trkpt lat="42.932935" lon="3.005650">
        <ele>2.550562</ele>
        <time>2022-07-26T17:07:58.644Z</time>
      </trkpt>
      <trkpt lat="42.933363" lon="3.004083">
        <ele>4.078250</ele>
        <time>2022-07-26T17:08:33.359Z</time>
      </trkpt>
      <trkpt lat="42.933515" lon="3.003524">
        <ele>4.589633</ele>
        <time>2022-07-26T17:08:45.420Z</time>
      </trkpt>
      <trkpt lat="42.933710" lon="3.003128">
        <ele>4.948172</ele>
        <time>2022-07-26T17:08:54.819Z</time>
      </trkpt>
      <trkpt lat="42.933852" lon="3.003033">
        <ele>5.110424</ele>
        <time>2022-07-26T17:08:58.983Z</time>
      </trkpt>
      <trkpt lat="42.933902" lon="3.002855">
        <ele>5.253657</ele>
        <time>2022-07-26T17:09:02.683Z</time>
      </trkpt>
      <trkpt lat="42.933846" lon="3.002665">
        <ele>5.407532</ele>
        <time>2022-07-26T17:09:06.614Z</time>
      </trkpt>
      <trkpt lat="42.933880" lon="3.002180">
        <ele>5.773570</ele>
        <time>2022-07-26T17:09:15.812Z</time>
      </trkpt>
      <trkpt lat="42.934066" lon="3.001498">
        <ele>6.316086</ele>
        <time>2022-07-26T17:09:29.226Z</time>
      </trkpt>
      <trkpt lat="42.934685" lon="2.999159">
        <ele>8.001309</ele>
        <time>2022-07-26T17:10:16.201Z</time>
      </trkpt>
      <trkpt lat="42.935107" lon="2.997342">
        <ele>9.709567</ele>
        <time>2022-07-26T17:10:54.385Z</time>
      </trkpt>
      <trkpt lat="42.935336" lon="2.996293">
        <ele>10.722372</ele>
        <time>2022-07-26T17:11:16.299Z</time>
      </trkpt>
      <trkpt lat="42.935713" lon="2.994855">
        <ele>12.168762</ele>
        <time>2022-07-26T17:11:47.080Z</time>
      </trkpt>
      <trkpt lat="42.936191" lon="2.993684">
        <ele>13.256723</ele>
        <time>2022-07-26T17:12:13.827Z</time>
      </trkpt>
      <trkpt lat="42.936513" lon="2.993128">
        <ele>13.804022</ele>
        <time>2022-07-26T17:12:27.654Z</time>
      </trkpt>
      <trkpt lat="42.937336" lon="2.992477">
        <ele>14.518495</ele>
        <time>2022-07-26T17:12:51.857Z</time>
      </trkpt>
      <trkpt lat="42.937557" lon="2.992050">
        <ele>14.666345</ele>
        <time>2022-07-26T17:13:01.226Z</time>
      </trkpt>
      <trkpt lat="42.937773" lon="2.991326">
        <ele>14.887389</ele>
        <time>2022-07-26T17:13:14.323Z</time>
      </trkpt>
      <trkpt lat="42.937894" lon="2.991156">
        <ele>14.954426</ele>
        <time>2022-07-26T17:13:18.209Z</time>
      </trkpt>
      <trkpt lat="42.938027" lon="2.990968">
        <ele>15.028342</ele>
        <time>2022-07-26T17:13:22.503Z</time>
      </trkpt>
      <trkpt lat="42.938185" lon="2.990826">
        <ele>15.079979</ele>
        <time>2022-07-26T17:13:26.737Z</time>
      </trkpt>
      <trkpt lat="42.938792" lon="2.990595">
        <ele>15.228475</ele>
        <time>2022-07-26T17:13:40.951Z</time>
      </trkpt>
      <trkpt lat="42.938866" lon="2.990512">
        <ele>15.251040</ele>
        <time>2022-07-26T17:13:43.140Z</time>
      </trkpt>
      <trkpt lat="42.939205" lon="2.990412">
        <ele>15.332772</ele>
        <time>2022-07-26T17:13:51.207Z</time>
      </trkpt>
      <trkpt lat="42.939342" lon="2.990373">
        <ele>15.365751</ele>
        <time>2022-07-26T17:13:54.506Z</time>
      </trkpt>
      <trkpt lat="42.939703" lon="2.990260">
        <ele>15.453031</ele>
        <time>2022-07-26T17:14:03.318Z</time>
      </trkpt>
      <trkpt lat="42.940130" lon="2.990133">
        <ele>15.688150</ele>
        <time>2022-07-26T17:14:13.836Z</time>
      </trkpt>
      <trkpt lat="42.940888" lon="2.989915">
        <ele>16.152244</ele>
        <time>2022-07-26T17:14:32.896Z</time>
      </trkpt>
      <trkpt lat="42.942475" lon="2.989446">
        <ele>17.172616</ele>
        <time>2022-07-26T17:15:13.566Z</time>
      </trkpt>
      <trkpt lat="42.943253" lon="2.989216">
        <ele>17.688833</ele>
        <time>2022-07-26T17:15:33.452Z</time>
      </trkpt>
      <trkpt lat="42.943890" lon="2.989028">
        <ele>17.885115</ele>
        <time>2022-07-26T17:15:49.262Z</time>
      </trkpt>
      <trkpt lat="42.944506" lon="2.988845">
        <ele>18.060890</ele>
        <time>2022-07-26T17:16:03.998Z</time>
      </trkpt>
      <trkpt lat="42.946066" lon="2.988373">
        <ele>17.962438</ele>
        <time>2022-07-26T17:16:38.943Z</time>
      </trkpt>
      <trkpt lat="42.947297" lon="2.988012">
        <ele>17.506863</ele>
        <time>2022-07-26T17:17:05.059Z</time>
      </trkpt>
      <trkpt lat="42.947365" lon="2.987992">
        <ele>17.469268</ele>
        <time>2022-07-26T17:17:06.476Z</time>
      </trkpt>
      <trkpt lat="42.950129" lon="2.987167">
        <ele>15.846835</ele>
        <time>2022-07-26T17:18:04.060Z</time>
      </trkpt>
      <trkpt lat="42.950522" lon="2.987049">
        <ele>15.578994</ele>
        <time>2022-07-26T17:18:12.150Z</time>
      </trkpt>
      <trkpt lat="42.953547" lon="2.986140">
        <ele>13.280909</ele>
        <time>2022-07-26T17:19:13.546Z</time>
      </trkpt>
      <trkpt lat="42.953789" lon="2.986068">
        <ele>13.093851</ele>
        <time>2022-07-26T17:19:18.422Z</time>
      </trkpt>
      <trkpt lat="42.955999" lon="2.985412">
        <ele>11.340922</ele>
        <time>2022-07-26T17:20:03.275Z</time>
      </trkpt>
      <trkpt lat="42.956688" lon="2.985266">
        <ele>10.845921</ele>
        <time>2022-07-26T17:20:17.265Z</time>
      </trkpt>
      <trkpt lat="42.958083" lon="2.985297">
        <ele>10.009927</ele>
        <time>2022-07-26T17:20:45.207Z</time>
      </trkpt>
      <trkpt lat="42.958424" lon="2.985303">
        <ele>9.841982</ele>
        <time>2022-07-26T17:20:52.267Z</time>
      </trkpt>
      <trkpt lat="42.958592" lon="2.985362">
        <ele>9.756559</ele>
        <time>2022-07-26T17:20:55.944Z</time>
      </trkpt>
      <trkpt lat="42.958727" lon="2.985490">
        <ele>9.675639</ele>
        <time>2022-07-26T17:20:59.298Z</time>
      </trkpt>
      <trkpt lat="42.958895" lon="2.985504">
        <ele>9.592751</ele>
        <time>2022-07-26T17:21:02.888Z</time>
      </trkpt>
      <trkpt lat="42.959082" lon="2.985337">
        <ele>9.482736</ele>
        <time>2022-07-26T17:21:07.513Z</time>
      </trkpt>
      <trkpt lat="42.959132" lon="2.985186">
        <ele>9.466866</ele>
        <time>2022-07-26T17:21:10.155Z</time>
      </trkpt>
      <trkpt lat="42.959234" lon="2.985054">
        <ele>9.457144</ele>
        <time>2022-07-26T17:21:13.081Z</time>
      </trkpt>
      <trkpt lat="42.959546" lon="2.984890">
        <ele>9.434011</ele>
        <time>2022-07-26T17:21:20.248Z</time>
      </trkpt>
      <trkpt lat="42.959832" lon="2.984656">
        <ele>9.410942</ele>
        <time>2022-07-26T17:21:27.531Z</time>
      </trkpt>
      <trkpt lat="42.960491" lon="2.984165">
        <ele>9.358999</ele>
        <time>2022-07-26T17:21:44.601Z</time>
      </trkpt>
      <trkpt lat="42.961486" lon="2.983788">
        <ele>9.267160</ele>
        <time>2022-07-26T17:22:07.272Z</time>
      </trkpt>
      <trkpt lat="42.961885" lon="2.983668">
        <ele>9.229595</ele>
        <time>2022-07-26T17:22:16.183Z</time>
      </trkpt>
      <trkpt lat="42.963837" lon="2.983082">
        <ele>9.262420</ele>
        <time>2022-07-26T17:23:00.002Z</time>
      </trkpt>
      <trkpt lat="42.968541" lon="2.981673">
        <ele>11.395226</ele>
        <time>2022-07-26T17:24:55.535Z</time>
      </trkpt>
      <trkpt lat="42.970673" lon="2.981034">
        <ele>13.263939</ele>
        <time>2022-07-26T17:25:51.618Z</time>
      </trkpt>
      <trkpt lat="42.971156" lon="2.980890">
        <ele>13.757737</ele>
        <time>2022-07-26T17:26:05.057Z</time>
      </trkpt>
      <trkpt lat="42.974648" lon="2.979839">
        <ele>18.670047</ele>
        <time>2022-07-26T17:27:44.564Z</time>
      </trkpt>
      <trkpt lat="42.977273" lon="2.979104">
        <ele>22.379357</ele>
        <time>2022-07-26T17:28:57.790Z</time>
      </trkpt>
      <trkpt lat="42.977720" lon="2.979007">
        <ele>23.100076</ele>
        <time>2022-07-26T17:29:10.439Z</time>
      </trkpt>
      <trkpt lat="42.978160" lon="2.978950">
        <ele>23.803872</ele>
        <time>2022-07-26T17:29:23.769Z</time>
      </trkpt>
      <trkpt lat="42.978955" lon="2.979049">
        <ele>26.800034</ele>
        <time>2022-07-26T17:29:49.903Z</time>
      </trkpt>
      <trkpt lat="42.979513" lon="2.979258">
        <ele>29.038571</ele>
        <time>2022-07-26T17:30:11.342Z</time>
      </trkpt>
      <trkpt lat="42.980655" lon="2.979900">
        <ele>36.204360</ele>
        <time>2022-07-26T17:31:09.518Z</time>
      </trkpt>
      <trkpt lat="42.981690" lon="2.980404">
        <ele>43.864155</ele>
        <time>2022-07-26T17:32:07.072Z</time>
      </trkpt>
      <trkpt lat="42.982352" lon="2.980531">
        <ele>48.625046</ele>
        <time>2022-07-26T17:32:43.738Z</time>
      </trkpt>
      <trkpt lat="42.982685" lon="2.980551">
        <ele>50.998920</ele>
        <time>2022-07-26T17:33:01.064Z</time>
      </trkpt>
      <trkpt lat="42.983386" lon="2.980471">
        <ele>56.008727</ele>
        <time>2022-07-26T17:33:34.690Z</time>
      </trkpt>
      <trkpt lat="42.983494" lon="2.980428">
        <ele>56.588136</ele>
        <time>2022-07-26T17:33:40.317Z</time>
      </trkpt>
      <trkpt lat="42.984112" lon="2.980186">
        <ele>59.609948</ele>
        <time>2022-07-26T17:34:08.275Z</time>
      </trkpt>
      <trkpt lat="42.984526" lon="2.979892">
        <ele>61.802929</ele>
        <time>2022-07-26T17:34:27.393Z</time>
      </trkpt>
      <trkpt lat="42.984756" lon="2.979729">
        <ele>63.020723</ele>
        <time>2022-07-26T17:34:36.902Z</time>
      </trkpt>
      <trkpt lat="42.985006" lon="2.979483">
        <ele>64.468664</ele>
        <time>2022-07-26T17:34:48.185Z</time>
      </trkpt>
      <trkpt lat="42.985577" lon="2.978722">
        <ele>67.367686</ele>
        <time>2022-07-26T17:35:16.270Z</time>
      </trkpt>
      <trkpt lat="42.985788" lon="2.978340">
        <ele>68.625734</ele>
        <time>2022-07-26T17:35:28.785Z</time>
      </trkpt>
      <trkpt lat="42.987176" lon="2.975450">
        <ele>78.171939</ele>
        <time>2022-07-26T17:37:04.723Z</time>
      </trkpt>
      <trkpt lat="42.987422" lon="2.975120">
        <ele>79.098261</ele>
        <time>2022-07-26T17:37:20.120Z</time>
      </trkpt>
      <trkpt lat="42.987578" lon="2.975066">
        <ele>79.530769</ele>
        <time>2022-07-26T17:37:26.988Z</time>
      </trkpt>
      <trkpt lat="42.987704" lon="2.974744">
        <ele>80.248717</ele>
        <time>2022-07-26T17:37:38.119Z</time>
      </trkpt>
      <trkpt lat="42.987700" lon="2.974406">
        <ele>80.913321</ele>
        <time>2022-07-26T17:37:48.221Z</time>
      </trkpt>
      <trkpt lat="42.987994" lon="2.973910">
        <ele>82.168425</ele>
        <time>2022-07-26T17:38:02.660Z</time>
      </trkpt>
      <trkpt lat="42.988362" lon="2.973441">
        <ele>83.013099</ele>
        <time>2022-07-26T17:38:16.599Z</time>
      </trkpt>
      <trkpt lat="42.989125" lon="2.972793">
        <ele>83.529373</ele>
        <time>2022-07-26T17:38:38.556Z</time>
      </trkpt>
      <trkpt lat="42.989915" lon="2.972369">
        <ele>83.920470</ele>
        <time>2022-07-26T17:38:57.343Z</time>
      </trkpt>
      <trkpt lat="42.991435" lon="2.971734">
        <ele>84.018655</ele>
        <time>2022-07-26T17:39:33.802Z</time>
      </trkpt>
      <trkpt lat="42.991947" lon="2.971458">
        <ele>83.311446</ele>
        <time>2022-07-26T17:39:46.017Z</time>
      </trkpt>
      <trkpt lat="42.993138" lon="2.970784">
        <ele>81.494777</ele>
        <time>2022-07-26T17:40:09.824Z</time>
      </trkpt>
      <trkpt lat="42.993703" lon="2.970598">
        <ele>78.031039</ele>
        <time>2022-07-26T17:40:18.785Z</time>
      </trkpt>
      <trkpt lat="42.994350" lon="2.970494">
        <ele>74.148255</ele>
        <time>2022-07-26T17:40:28.190Z</time>
      </trkpt>
      <trkpt lat="42.995332" lon="2.970368">
        <ele>67.761530</ele>
        <time>2022-07-26T17:40:41.984Z</time>
      </trkpt>
      <trkpt lat="42.995382" lon="2.970305">
        <ele>67.277792</ele>
        <time>2022-07-26T17:40:43.693Z</time>
      </trkpt>
      <trkpt lat="42.995466" lon="2.970292">
        <ele>66.676369</ele>
        <time>2022-07-26T17:40:44.870Z</time>
      </trkpt>
      <trkpt lat="42.995584" lon="2.970276">
        <ele>65.832756</ele>
        <time>2022-07-26T17:40:46.534Z</time>
      </trkpt>
      <trkpt lat="42.995814" lon="2.970306">
        <ele>64.189023</ele>
        <time>2022-07-26T17:40:49.773Z</time>
      </trkpt>
      <trkpt lat="42.996459" lon="2.970191">
        <ele>59.561407</ele>
        <time>2022-07-26T17:40:59.045Z</time>
      </trkpt>
      <trkpt lat="42.998179" lon="2.969890">
        <ele>51.541987</ele>
        <time>2022-07-26T17:41:25.991Z</time>
      </trkpt>
      <trkpt lat="43.001122" lon="2.969525">
        <ele>41.943277</ele>
        <time>2022-07-26T17:42:13.664Z</time>
      </trkpt>
      <trkpt lat="43.001275" lon="2.969669">
        <ele>41.470535</ele>
        <time>2022-07-26T17:42:16.989Z</time>
      </trkpt>
      <trkpt lat="43.001343" lon="2.969598">
        <ele>41.252776</ele>
        <time>2022-07-26T17:42:18.418Z</time>
      </trkpt>
      <trkpt lat="43.001468" lon="2.969580">
        <ele>40.932871</ele>
        <time>2022-07-26T17:42:20.569Z</time>
      </trkpt>
      <trkpt lat="43.001865" lon="2.969529">
        <ele>39.917991</ele>
        <time>2022-07-26T17:42:27.584Z</time>
      </trkpt>
      <trkpt lat="43.002220" lon="2.969456">
        <ele>39.827542</ele>
        <time>2022-07-26T17:42:34.450Z</time>
      </trkpt>
      <trkpt lat="43.003229" lon="2.969416">
        <ele>40.690448</ele>
        <time>2022-07-26T17:42:58.511Z</time>
      </trkpt>
      <trkpt lat="43.006117" lon="2.969340">
        <ele>48.869142</ele>
        <time>2022-07-26T17:44:38.018Z</time>
      </trkpt>
      <trkpt lat="43.007534" lon="2.969391">
        <ele>55.007330</ele>
        <time>2022-07-26T17:45:35.177Z</time>
      </trkpt>
      <trkpt lat="43.008480" lon="2.969554">
        <ele>60.222333</ele>
        <time>2022-07-26T17:46:20.089Z</time>
      </trkpt>
      <trkpt lat="43.009363" lon="2.969790">
        <ele>64.473691</ele>
        <time>2022-07-26T17:47:00.881Z</time>
      </trkpt>
      <trkpt lat="43.011075" lon="2.970348">
        <ele>67.674042</ele>
        <time>2022-07-26T17:47:54.141Z</time>
      </trkpt>
      <trkpt lat="43.012024" lon="2.970852">
        <ele>64.496469</ele>
        <time>2022-07-26T17:48:11.141Z</time>
      </trkpt>
      <trkpt lat="43.013201" lon="2.971652">
        <ele>56.785982</ele>
        <time>2022-07-26T17:48:30.340Z</time>
      </trkpt>
      <trkpt lat="43.014115" lon="2.972254">
        <ele>48.473288</ele>
        <time>2022-07-26T17:48:44.177Z</time>
      </trkpt>
      <trkpt lat="43.014527" lon="2.972453">
        <ele>45.257718</ele>
        <time>2022-07-26T17:48:50.170Z</time>
      </trkpt>
      <trkpt lat="43.014932" lon="2.972596">
        <ele>42.249422</ele>
        <time>2022-07-26T17:48:55.926Z</time>
      </trkpt>
      <trkpt lat="43.015587" lon="2.972703">
        <ele>37.505126</ele>
        <time>2022-07-26T17:49:05.291Z</time>
      </trkpt>
      <trkpt lat="43.016614" lon="2.972538">
        <ele>34.046997</ele>
        <time>2022-07-26T17:49:22.203Z</time>
      </trkpt>
      <trkpt lat="43.016825" lon="2.972483">
        <ele>33.763889</ele>
        <time>2022-07-26T17:49:26.936Z</time>
      </trkpt>
      <trkpt lat="43.017480" lon="2.972144">
        <ele>32.840845</ele>
        <time>2022-07-26T17:49:42.552Z</time>
      </trkpt>
      <trkpt lat="43.018142" lon="2.971593">
        <ele>32.490149</ele>
        <time>2022-07-26T17:50:01.335Z</time>
      </trkpt>
      <trkpt lat="43.018389" lon="2.971315">
        <ele>32.445725</ele>
        <time>2022-07-26T17:50:08.890Z</time>
      </trkpt>
      <trkpt lat="43.018946" lon="2.970543">
        <ele>32.335598</ele>
        <time>2022-07-26T17:50:25.116Z</time>
      </trkpt>
      <trkpt lat="43.019483" lon="2.969438">
        <ele>31.493477</ele>
        <time>2022-07-26T17:50:43.989Z</time>
      </trkpt>
      <trkpt lat="43.020176" lon="2.967653">
        <ele>30.020973</ele>
        <time>2022-07-26T17:51:12.283Z</time>
      </trkpt>
      <trkpt lat="43.020831" lon="2.966500">
        <ele>28.903173</ele>
        <time>2022-07-26T17:51:32.787Z</time>
      </trkpt>
      <trkpt lat="43.021466" lon="2.965696">
        <ele>28.177655</ele>
        <time>2022-07-26T17:51:49.408Z</time>
      </trkpt>
      <trkpt lat="43.021870" lon="2.965343">
        <ele>27.805576</ele>
        <time>2022-07-26T17:51:58.805Z</time>
      </trkpt>
      <trkpt lat="43.022528" lon="2.964898">
        <ele>27.305409</ele>
        <time>2022-07-26T17:52:13.777Z</time>
      </trkpt>
      <trkpt lat="43.023184" lon="2.964628">
        <ele>27.361428</ele>
        <time>2022-07-26T17:52:28.449Z</time>
      </trkpt>
      <trkpt lat="43.023592" lon="2.964545">
        <ele>27.395159</ele>
        <time>2022-07-26T17:52:37.835Z</time>
      </trkpt>
      <trkpt lat="43.024386" lon="2.964490">
        <ele>27.509550</ele>
        <time>2022-07-26T17:52:57.146Z</time>
      </trkpt>
      <trkpt lat="43.024805" lon="2.964544">
        <ele>27.662731</ele>
        <time>2022-07-26T17:53:07.698Z</time>
      </trkpt>
      <trkpt lat="43.025275" lon="2.964694">
        <ele>27.838395</ele>
        <time>2022-07-26T17:53:19.699Z</time>
      </trkpt>
      <trkpt lat="43.026314" lon="2.965246">
        <ele>27.650581</ele>
        <time>2022-07-26T17:53:45.313Z</time>
      </trkpt>
      <trkpt lat="43.028109" lon="2.966525">
        <ele>24.501031</ele>
        <time>2022-07-26T17:54:22.113Z</time>
      </trkpt>
      <trkpt lat="43.029415" lon="2.967317">
        <ele>20.859426</ele>
        <time>2022-07-26T17:54:45.677Z</time>
      </trkpt>
      <trkpt lat="43.030407" lon="2.967588">
        <ele>18.034288</ele>
        <time>2022-07-26T17:55:02.362Z</time>
      </trkpt>
      <trkpt lat="43.031603" lon="2.967840">
        <ele>15.167799</ele>
        <time>2022-07-26T17:55:22.996Z</time>
      </trkpt>
      <trkpt lat="43.032188" lon="2.967985">
        <ele>13.960873</ele>
        <time>2022-07-26T17:55:33.289Z</time>
      </trkpt>
      <trkpt lat="43.036063" lon="2.969007">
        <ele>8.962913</ele>
        <time>2022-07-26T17:56:47.447Z</time>
      </trkpt>
      <trkpt lat="43.037167" lon="2.969335">
        <ele>9.306383</ele>
        <time>2022-07-26T17:57:12.357Z</time>
      </trkpt>
      <trkpt lat="43.038301" lon="2.969480">
        <ele>10.220170</ele>
        <time>2022-07-26T17:57:43.899Z</time>
      </trkpt>
      <trkpt lat="43.039407" lon="2.969344">
        <ele>11.912802</ele>
        <time>2022-07-26T17:58:16.786Z</time>
      </trkpt>
      <trkpt lat="43.040002" lon="2.969123">
        <ele>12.566908</ele>
        <time>2022-07-26T17:58:33.556Z</time>
      </trkpt>
      <trkpt lat="43.040697" lon="2.968698">
        <ele>12.720538</ele>
        <time>2022-07-26T17:58:51.891Z</time>
      </trkpt>
      <trkpt lat="43.048318" lon="2.963949">
        <ele>9.350136</ele>
        <time>2022-07-26T18:01:43.830Z</time>
      </trkpt>
      <trkpt lat="43.049099" lon="2.963631">
        <ele>9.394940</ele>
        <time>2022-07-26T18:02:02.497Z</time>
      </trkpt>
      <trkpt lat="43.050754" lon="2.963299">
        <ele>9.782260</ele>
        <time>2022-07-26T18:02:42.094Z</time>
      </trkpt>
      <trkpt lat="43.051070" lon="2.963191">
        <ele>9.892046</ele>
        <time>2022-07-26T18:02:49.685Z</time>
      </trkpt>
      <trkpt lat="43.051735" lon="2.962875">
        <ele>10.149972</ele>
        <time>2022-07-26T18:03:06.402Z</time>
      </trkpt>
      <trkpt lat="43.052513" lon="2.962212">
        <ele>10.526958</ele>
        <time>2022-07-26T18:03:28.296Z</time>
      </trkpt>
      <trkpt lat="43.052614" lon="2.962076">
        <ele>10.585240</ele>
        <time>2022-07-26T18:03:31.714Z</time>
      </trkpt>
      <trkpt lat="43.053139" lon="2.961372">
        <ele>11.057717</ele>
        <time>2022-07-26T18:03:48.975Z</time>
      </trkpt>
      <trkpt lat="43.053585" lon="2.960467">
        <ele>11.883620</ele>
        <time>2022-07-26T18:04:09.549Z</time>
      </trkpt>
      <trkpt lat="43.053606" lon="2.960410">
        <ele>11.931918</ele>
        <time>2022-07-26T18:04:10.806Z</time>
      </trkpt>
      <trkpt lat="43.053865" lon="2.959519">
        <ele>12.683331</ele>
        <time>2022-07-26T18:04:30.200Z</time>
      </trkpt>
      <trkpt lat="43.053986" lon="2.958782">
        <ele>14.008989</ele>
        <time>2022-07-26T18:04:46.800Z</time>
      </trkpt>
      <trkpt lat="43.054035" lon="2.957909">
        <ele>15.545588</ele>
        <time>2022-07-26T18:05:07.096Z</time>
      </trkpt>
      <trkpt lat="43.053886" lon="2.954937">
        <ele>21.902104</ele>
        <time>2022-07-26T18:06:22.763Z</time>
      </trkpt>
      <trkpt lat="43.053885" lon="2.952439">
        <ele>26.859496</ele>
        <time>2022-07-26T18:07:25.893Z</time>
      </trkpt>
      <trkpt lat="43.053998" lon="2.947121">
        <ele>30.022044</ele>
        <time>2022-07-26T18:09:01.766Z</time>
      </trkpt>
      <trkpt lat="43.054209" lon="2.946059">
        <ele>30.560353</ele>
        <time>2022-07-26T18:09:23.383Z</time>
      </trkpt>
      <trkpt lat="43.054577" lon="2.945022">
        <ele>31.124224</ele>
        <time>2022-07-26T18:09:44.108Z</time>
      </trkpt>
      <trkpt lat="43.055088" lon="2.944122">
        <ele>29.902949</ele>
        <time>2022-07-26T18:10:01.514Z</time>
      </trkpt>
      <trkpt lat="43.055816" lon="2.943342">
        <ele>28.434547</ele>
        <time>2022-07-26T18:10:17.445Z</time>
      </trkpt>
      <trkpt lat="43.060335" lon="2.939926">
        <ele>9.930472</ele>
        <time>2022-07-26T18:11:39.182Z</time>
      </trkpt>
      <trkpt lat="43.061557" lon="2.938993">
        <ele>7.271505</ele>
        <time>2022-07-26T18:12:03.456Z</time>
      </trkpt>
      <trkpt lat="43.062956" lon="2.937984">
        <ele>6.667412</ele>
        <time>2022-07-26T18:12:38.047Z</time>
      </trkpt>
      <trkpt lat="43.063803" lon="2.937650">
        <ele>7.116138</ele>
        <time>2022-07-26T18:13:01.649Z</time>
      </trkpt>
      <trkpt lat="43.064361" lon="2.937566">
        <ele>7.630083</ele>
        <time>2022-07-26T18:13:16.517Z</time>
      </trkpt>
      <trkpt lat="43.065038" lon="2.937613">
        <ele>8.280537</ele>
        <time>2022-07-26T18:13:34.189Z</time>
      </trkpt>
      <trkpt lat="43.065096" lon="2.937630">
        <ele>8.337453</ele>
        <time>2022-07-26T18:13:35.719Z</time>
      </trkpt>
      <trkpt lat="43.065760" lon="2.937825">
        <ele>9.014095</ele>
        <time>2022-07-26T18:13:53.038Z</time>
      </trkpt>
      <trkpt lat="43.066408" lon="2.938171">
        <ele>9.821567</ele>
        <time>2022-07-26T18:14:10.578Z</time>
      </trkpt>
      <trkpt lat="43.067587" lon="2.939046">
        <ele>11.358635</ele>
        <time>2022-07-26T18:14:48.166Z</time>
      </trkpt>
      <trkpt lat="43.067607" lon="2.939159">
        <ele>11.452583</ele>
        <time>2022-07-26T18:14:50.605Z</time>
      </trkpt>
      <trkpt lat="43.067726" lon="2.939313">
        <ele>11.633714</ele>
        <time>2022-07-26T18:14:55.378Z</time>
      </trkpt>
      <trkpt lat="43.067899" lon="2.939304">
        <ele>11.825199</ele>
        <time>2022-07-26T18:14:59.995Z</time>
      </trkpt>
      <trkpt lat="43.068021" lon="2.939311">
        <ele>11.960256</ele>
        <time>2022-07-26T18:15:03.571Z</time>
      </trkpt>
      <trkpt lat="43.068377" lon="2.939559">
        <ele>12.402069</ele>
        <time>2022-07-26T18:15:14.445Z</time>
      </trkpt>
      <trkpt lat="43.071002" lon="2.941960">
        <ele>15.105113</ele>
        <time>2022-07-26T18:16:29.364Z</time>
      </trkpt>
      <trkpt lat="43.072888" lon="2.943558">
        <ele>20.637430</ele>
        <time>2022-07-26T18:17:44.241Z</time>
      </trkpt>
      <trkpt lat="43.073565" lon="2.943828">
        <ele>22.749483</ele>
        <time>2022-07-26T18:18:10.154Z</time>
      </trkpt>
      <trkpt lat="43.073600" lon="2.943830">
        <ele>22.844262</ele>
        <time>2022-07-26T18:18:12.100Z</time>
      </trkpt>
      <trkpt lat="43.074322" lon="2.943859">
        <ele>24.798553</ele>
        <time>2022-07-26T18:18:37.336Z</time>
      </trkpt>
      <trkpt lat="43.074983" lon="2.943651">
        <ele>26.633599</ele>
        <time>2022-07-26T18:18:58.604Z</time>
      </trkpt>
      <trkpt lat="43.075708" lon="2.943188">
        <ele>27.655885</ele>
        <time>2022-07-26T18:19:20.620Z</time>
      </trkpt>
      <trkpt lat="43.076255" lon="2.942916">
        <ele>28.172323</ele>
        <time>2022-07-26T18:19:35.271Z</time>
      </trkpt>
      <trkpt lat="43.076612" lon="2.942801">
        <ele>28.497778</ele>
        <time>2022-07-26T18:19:44.149Z</time>
      </trkpt>
      <trkpt lat="43.077074" lon="2.942739">
        <ele>28.615482</ele>
        <time>2022-07-26T18:19:55.089Z</time>
      </trkpt>
      <trkpt lat="43.077719" lon="2.942789">
        <ele>28.404879</ele>
        <time>2022-07-26T18:20:09.865Z</time>
      </trkpt>
      <trkpt lat="43.079334" lon="2.943080">
        <ele>27.058985</ele>
        <time>2022-07-26T18:20:41.678Z</time>
      </trkpt>
      <trkpt lat="43.080834" lon="2.943327">
        <ele>25.012481</ele>
        <time>2022-07-26T18:21:08.489Z</time>
      </trkpt>
      <trkpt lat="43.086934" lon="2.944390">
        <ele>18.351558</ele>
        <time>2022-07-26T18:23:06.962Z</time>
      </trkpt>
      <trkpt lat="43.086964" lon="2.944395">
        <ele>18.319850</ele>
        <time>2022-07-26T18:23:07.610Z</time>
      </trkpt>
      <trkpt lat="43.087638" lon="2.944559">
        <ele>17.538820</ele>
        <time>2022-07-26T18:23:20.770Z</time>
      </trkpt>
      <trkpt lat="43.088377" lon="2.944917">
        <ele>16.225923</ele>
        <time>2022-07-26T18:23:35.131Z</time>
      </trkpt>
      <trkpt lat="43.089363" lon="2.945492">
        <ele>14.417234</ele>
        <time>2022-07-26T18:23:53.995Z</time>
      </trkpt>
      <trkpt lat="43.089954" lon="2.945801">
        <ele>13.302398</ele>
        <time>2022-07-26T18:24:05.103Z</time>
      </trkpt>
      <trkpt lat="43.090315" lon="2.945990">
        <ele>12.621307</ele>
        <time>2022-07-26T18:24:12.017Z</time>
      </trkpt>
      <trkpt lat="43.090823" lon="2.946225">
        <ele>11.676372</ele>
        <time>2022-07-26T18:24:21.876Z</time>
      </trkpt>
      <trkpt lat="43.091075" lon="2.946371">
        <ele>11.307731</ele>
        <time>2022-07-26T18:24:26.997Z</time>
      </trkpt>
      <trkpt lat="43.091402" lon="2.946524">
        <ele>10.907921</ele>
        <time>2022-07-26T18:24:33.383Z</time>
      </trkpt>
      <trkpt lat="43.091693" lon="2.946673">
        <ele>10.548471</ele>
        <time>2022-07-26T18:24:39.234Z</time>
      </trkpt>
      <trkpt lat="43.092300" lon="2.946982">
        <ele>9.799224</ele>
        <time>2022-07-26T18:24:51.764Z</time>
      </trkpt>
      <trkpt lat="43.092793" lon="2.947227">
        <ele>9.286924</ele>
        <time>2022-07-26T18:25:01.914Z</time>
      </trkpt>
      <trkpt lat="43.093412" lon="2.947510">
        <ele>8.815719</ele>
        <time>2022-07-26T18:25:14.747Z</time>
      </trkpt>
      <trkpt lat="43.094030" lon="2.947674">
        <ele>8.361187</ele>
        <time>2022-07-26T18:25:27.391Z</time>
      </trkpt>
      <trkpt lat="43.094575" lon="2.947688">
        <ele>7.968809</ele>
        <time>2022-07-26T18:25:38.735Z</time>
      </trkpt>
      <trkpt lat="43.094695" lon="2.947662">
        <ele>7.881684</ele>
        <time>2022-07-26T18:25:41.222Z</time>
      </trkpt>
      <trkpt lat="43.096169" lon="2.947641">
        <ele>6.831389</ele>
        <time>2022-07-26T18:26:10.299Z</time>
      </trkpt>
      <trkpt lat="43.097850" lon="2.947617">
        <ele>5.893418</ele>
        <time>2022-07-26T18:26:44.034Z</time>
      </trkpt>
      <trkpt lat="43.099883" lon="2.947586">
        <ele>6.785389</ele>
        <time>2022-07-26T18:27:32.679Z</time>
      </trkpt>
      <trkpt lat="43.100799" lon="2.947354">
        <ele>8.112587</ele>
        <time>2022-07-26T18:27:58.193Z</time>
      </trkpt>
      <trkpt lat="43.100855" lon="2.947327">
        <ele>8.197172</ele>
        <time>2022-07-26T18:27:59.833Z</time>
      </trkpt>
      <trkpt lat="43.100972" lon="2.947277">
        <ele>8.371794</ele>
        <time>2022-07-26T18:28:03.231Z</time>
      </trkpt>
      <trkpt lat="43.101547" lon="2.946906">
        <ele>9.436521</ele>
        <time>2022-07-26T18:28:21.934Z</time>
      </trkpt>
      <trkpt lat="43.102624" lon="2.946027">
        <ele>13.035074</ele>
        <time>2022-07-26T18:29:04.941Z</time>
      </trkpt>
      <trkpt lat="43.103171" lon="2.945695">
        <ele>14.736032</ele>
        <time>2022-07-26T18:29:26.049Z</time>
      </trkpt>
      <trkpt lat="43.103882" lon="2.945445">
        <ele>16.769573</ele>
        <time>2022-07-26T18:29:51.698Z</time>
      </trkpt>
      <trkpt lat="43.104493" lon="2.945394">
        <ele>18.465355</ele>
        <time>2022-07-26T18:30:12.336Z</time>
      </trkpt>
      <trkpt lat="43.104935" lon="2.945434">
        <ele>19.420300</ele>
        <time>2022-07-26T18:30:25.786Z</time>
      </trkpt>
      <trkpt lat="43.105490" lon="2.945596">
        <ele>19.989264</ele>
        <time>2022-07-26T18:30:41.283Z</time>
      </trkpt>
      <trkpt lat="43.106082" lon="2.945886">
        <ele>20.619650</ele>
        <time>2022-07-26T18:30:57.202Z</time>
      </trkpt>
      <trkpt lat="43.108796" lon="2.947921">
        <ele>22.674951</ele>
        <time>2022-07-26T18:32:08.910Z</time>
      </trkpt>
      <trkpt lat="43.110915" lon="2.949513">
        <ele>27.480403</ele>
        <time>2022-07-26T18:33:25.727Z</time>
      </trkpt>
      <trkpt lat="43.111033" lon="2.949597">
        <ele>27.797765</ele>
        <time>2022-07-26T18:33:29.967Z</time>
      </trkpt>
      <trkpt lat="43.111179" lon="2.949675">
        <ele>28.171755</ele>
        <time>2022-07-26T18:33:34.910Z</time>
      </trkpt>
      <trkpt lat="43.111543" lon="2.949869">
        <ele>29.074890</ele>
        <time>2022-07-26T18:33:47.093Z</time>
      </trkpt>
      <trkpt lat="43.114744" lon="2.950858">
        <ele>36.772127</ele>
        <time>2022-07-26T18:35:30.184Z</time>
      </trkpt>
      <trkpt lat="43.115597" lon="2.951115">
        <ele>38.858150</ele>
        <time>2022-07-26T18:36:00.343Z</time>
      </trkpt>
      <trkpt lat="43.116154" lon="2.951354">
        <ele>40.252237</ele>
        <time>2022-07-26T18:36:18.920Z</time>
      </trkpt>
      <trkpt lat="43.116321" lon="2.951433">
        <ele>40.674216</ele>
        <time>2022-07-26T18:36:24.512Z</time>
      </trkpt>
      <trkpt lat="43.116580" lon="2.951574">
        <ele>40.957669</ele>
        <time>2022-07-26T18:36:32.400Z</time>
      </trkpt>
      <trkpt lat="43.116997" lon="2.951790">
        <ele>40.844490</ele>
        <time>2022-07-26T18:36:43.582Z</time>
      </trkpt>
      <trkpt lat="43.117216" lon="2.951947">
        <ele>40.781740</ele>
        <time>2022-07-26T18:36:48.838Z</time>
      </trkpt>
      <trkpt lat="43.119673" lon="2.953573">
        <ele>38.286775</ele>
        <time>2022-07-26T18:37:40.214Z</time>
      </trkpt>
      <trkpt lat="43.119830" lon="2.953673">
        <ele>38.052354</ele>
        <time>2022-07-26T18:37:43.396Z</time>
      </trkpt>
      <trkpt lat="43.119879" lon="2.953705">
        <ele>37.977905</ele>
        <time>2022-07-26T18:37:44.379Z</time>
      </trkpt>
      <trkpt lat="43.120213" lon="2.953910">
        <ele>37.475951</ele>
        <time>2022-07-26T18:37:50.990Z</time>
      </trkpt>
      <trkpt lat="43.120434" lon="2.954048">
        <ele>37.142849</ele>
        <time>2022-07-26T18:37:55.395Z</time>
      </trkpt>
      <trkpt lat="43.120816" lon="2.954287">
        <ele>36.566886</ele>
        <time>2022-07-26T18:38:03.103Z</time>
      </trkpt>
      <trkpt lat="43.121714" lon="2.954855">
        <ele>35.689486</ele>
        <time>2022-07-26T18:38:21.873Z</time>
      </trkpt>
      <trkpt lat="43.122071" lon="2.955120">
        <ele>35.600634</ele>
        <time>2022-07-26T18:38:29.726Z</time>
      </trkpt>
      <trkpt lat="43.122332" lon="2.955340">
        <ele>35.533576</ele>
        <time>2022-07-26T18:38:36.059Z</time>
      </trkpt>
      <trkpt lat="43.126492" lon="2.959030">
        <ele>39.233257</ele>
        <time>2022-07-26T18:40:45.901Z</time>
      </trkpt>
      <trkpt lat="43.127250" lon="2.959754">
        <ele>39.661743</ele>
        <time>2022-07-26T18:41:08.342Z</time>
      </trkpt>
      <trkpt lat="43.127355" lon="2.959847">
        <ele>39.719722</ele>
        <time>2022-07-26T18:41:11.234Z</time>
      </trkpt>
      <trkpt lat="43.128218" lon="2.960607">
        <ele>38.534734</ele>
        <time>2022-07-26T18:41:30.751Z</time>
      </trkpt>
      <trkpt lat="43.129033" lon="2.961333">
        <ele>37.258882</ele>
        <time>2022-07-26T18:41:48.288Z</time>
      </trkpt>
      <trkpt lat="43.129263" lon="2.961538">
        <ele>36.809255</ele>
        <time>2022-07-26T18:41:53.036Z</time>
      </trkpt>
      <trkpt lat="43.130083" lon="2.962250">
        <ele>35.218433</ele>
        <time>2022-07-26T18:42:10.189Z</time>
      </trkpt>
      <trkpt lat="43.132649" lon="2.964586">
        <ele>32.075966</ele>
        <time>2022-07-26T18:43:10.806Z</time>
      </trkpt>
      <trkpt lat="43.136242" lon="2.967922">
        <ele>27.557053</ele>
        <time>2022-07-26T18:44:33.230Z</time>
      </trkpt>
      <trkpt lat="43.137033" lon="2.968909">
        <ele>27.125152</ele>
        <time>2022-07-26T18:44:55.953Z</time>
      </trkpt>
      <trkpt lat="43.138132" lon="2.970380">
        <ele>26.811556</ele>
        <time>2022-07-26T18:45:29.256Z</time>
      </trkpt>
      <trkpt lat="43.138213" lon="2.970491">
        <ele>26.800567</ele>
        <time>2022-07-26T18:45:31.609Z</time>
      </trkpt>
      <trkpt lat="43.139381" lon="2.971944">
        <ele>26.602968</ele>
        <time>2022-07-26T18:46:06.457Z</time>
      </trkpt>
      <trkpt lat="43.139482" lon="2.972070">
        <ele>26.577501</ele>
        <time>2022-07-26T18:46:09.682Z</time>
      </trkpt>
      <trkpt lat="43.140400" lon="2.972665">
        <ele>26.388146</ele>
        <time>2022-07-26T18:46:31.781Z</time>
      </trkpt>
      <trkpt lat="43.142109" lon="2.973745">
        <ele>24.922120</ele>
        <time>2022-07-26T18:47:08.824Z</time>
      </trkpt>
      <trkpt lat="43.144544" lon="2.975297">
        <ele>21.820556</ele>
        <time>2022-07-26T18:47:59.818Z</time>
      </trkpt>
      <trkpt lat="43.144735" lon="2.975458">
        <ele>21.540281</ele>
        <time>2022-07-26T18:48:04.047Z</time>
      </trkpt>
      <trkpt lat="43.144849" lon="2.975653">
        <ele>21.312400</ele>
        <time>2022-07-26T18:48:07.446Z</time>
      </trkpt>
      <trkpt lat="43.144905" lon="2.975806">
        <ele>21.156295</ele>
        <time>2022-07-26T18:48:09.784Z</time>
      </trkpt>
      <trkpt lat="43.145047" lon="2.975897">
        <ele>20.960361</ele>
        <time>2022-07-26T18:48:12.672Z</time>
      </trkpt>
      <trkpt lat="43.145207" lon="2.975821">
        <ele>20.748702</ele>
        <time>2022-07-26T18:48:15.830Z</time>
      </trkpt>
      <trkpt lat="43.145386" lon="2.975833">
        <ele>20.513929</ele>
        <time>2022-07-26T18:48:19.109Z</time>
      </trkpt>
      <trkpt lat="43.148507" lon="2.977616">
        <ele>16.153424</ele>
        <time>2022-07-26T18:49:21.689Z</time>
      </trkpt>
      <trkpt lat="43.148704" lon="2.977729">
        <ele>15.971969</ele>
        <time>2022-07-26T18:49:26.300Z</time>
      </trkpt>
      <trkpt lat="43.148773" lon="2.977768">
        <ele>15.958344</ele>
        <time>2022-07-26T18:49:27.860Z</time>
      </trkpt>
      <trkpt lat="43.149687" lon="2.978289">
        <ele>15.777642</ele>
        <time>2022-07-26T18:49:50.140Z</time>
      </trkpt>
      <trkpt lat="43.151457" lon="2.979286">
        <ele>14.906078</ele>
        <time>2022-07-26T18:50:31.120Z</time>
      </trkpt>
      <trkpt lat="43.155215" lon="2.980866">
        <ele>9.993450</ele>
        <time>2022-07-26T18:51:43.855Z</time>
      </trkpt>
      <trkpt lat="43.155882" lon="2.981158">
        <ele>9.543164</ele>
        <time>2022-07-26T18:51:57.484Z</time>
      </trkpt>
      <trkpt lat="43.156407" lon="2.981396">
        <ele>9.349565</ele>
        <time>2022-07-26T18:52:09.083Z</time>
      </trkpt>
      <trkpt lat="43.156628" lon="2.981619">
        <ele>9.253488</ele>
        <time>2022-07-26T18:52:15.208Z</time>
      </trkpt>
      <trkpt lat="43.156768" lon="2.981849">
        <ele>9.176982</ele>
        <time>2022-07-26T18:52:20.064Z</time>
      </trkpt>
      <trkpt lat="43.156978" lon="2.981863">
        <ele>9.103372</ele>
        <time>2022-07-26T18:52:24.923Z</time>
      </trkpt>
      <trkpt lat="43.157070" lon="2.981781">
        <ele>9.101645</ele>
        <time>2022-07-26T18:52:27.320Z</time>
      </trkpt>
      <trkpt lat="43.157189" lon="2.981710">
        <ele>9.147746</ele>
        <time>2022-07-26T18:52:30.521Z</time>
      </trkpt>
      <trkpt lat="43.157351" lon="2.981749">
        <ele>9.206172</ele>
        <time>2022-07-26T18:52:34.181Z</time>
      </trkpt>
      <trkpt lat="43.158866" lon="2.982349">
        <ele>9.765613</ele>
        <time>2022-07-26T18:53:11.939Z</time>
      </trkpt>
      <trkpt lat="43.160109" lon="2.982858">
        <ele>10.218926</ele>
        <time>2022-07-26T18:53:42.414Z</time>
      </trkpt>
      <trkpt lat="43.160760" lon="2.983108">
        <ele>10.585422</ele>
        <time>2022-07-26T18:53:58.540Z</time>
      </trkpt>
      <trkpt lat="43.161053" lon="2.983262">
        <ele>10.831646</ele>
        <time>2022-07-26T18:54:06.311Z</time>
      </trkpt>
      <trkpt lat="43.161366" lon="2.983425">
        <ele>11.094369</ele>
        <time>2022-07-26T18:54:14.786Z</time>
      </trkpt>
      <trkpt lat="43.162948" lon="2.984534">
        <ele>12.398638</ele>
        <time>2022-07-26T18:55:01.332Z</time>
      </trkpt>
      <trkpt lat="43.163076" lon="2.984805">
        <ele>12.560551</ele>
        <time>2022-07-26T18:55:07.264Z</time>
      </trkpt>
      <trkpt lat="43.163197" lon="2.984899">
        <ele>12.656172</ele>
        <time>2022-07-26T18:55:10.590Z</time>
      </trkpt>
      <trkpt lat="43.163607" lon="2.985221">
        <ele>12.981043</ele>
        <time>2022-07-26T18:55:25.121Z</time>
      </trkpt>
      <trkpt lat="43.163719" lon="2.985308">
        <ele>12.997546</ele>
        <time>2022-07-26T18:55:29.073Z</time>
      </trkpt>
      <trkpt lat="43.163823" lon="2.985158">
        <ele>12.996052</ele>
        <time>2022-07-26T18:55:33.464Z</time>
      </trkpt>
      <trkpt lat="43.164054" lon="2.985318">
        <ele>12.993490</ele>
        <time>2022-07-26T18:55:39.260Z</time>
      </trkpt>
      <trkpt lat="43.165962" lon="2.986687">
        <ele>13.042417</ele>
        <time>2022-07-26T18:56:26.370Z</time>
      </trkpt>
      <trkpt lat="43.166135" lon="2.986813">
        <ele>13.056334</ele>
        <time>2022-07-26T18:56:31.035Z</time>
      </trkpt>
      <trkpt lat="43.166483" lon="2.987221">
        <ele>13.088863</ele>
        <time>2022-07-26T18:56:41.806Z</time>
      </trkpt>
      <trkpt lat="43.166557" lon="2.987509">
        <ele>13.104685</ele>
        <time>2022-07-26T18:56:46.639Z</time>
      </trkpt>
      <trkpt lat="43.166528" lon="2.987710">
        <ele>13.117695</ele>
        <time>2022-07-26T18:56:50.094Z</time>
      </trkpt>
      <trkpt lat="43.166397" lon="2.987934">
        <ele>13.137840</ele>
        <time>2022-07-26T18:56:54.707Z</time>
      </trkpt>
      <trkpt lat="43.166193" lon="2.988027">
        <ele>13.158521</ele>
        <time>2022-07-26T18:56:59.657Z</time>
      </trkpt>
      <trkpt lat="43.166032" lon="2.987983">
        <ele>13.174314</ele>
        <time>2022-07-26T18:57:03.540Z</time>
      </trkpt>
      <trkpt lat="43.165892" lon="2.987842">
        <ele>13.191025</ele>
        <time>2022-07-26T18:57:07.584Z</time>
      </trkpt>
      <trkpt lat="43.165830" lon="2.987703">
        <ele>13.202457</ele>
        <time>2022-07-26T18:57:10.202Z</time>
      </trkpt>
      <trkpt lat="43.165805" lon="2.987536">
        <ele>13.214419</ele>
        <time>2022-07-26T18:57:13.155Z</time>
      </trkpt>
      <trkpt lat="43.165862" lon="2.987166">
        <ele>13.240953</ele>
        <time>2022-07-26T18:57:19.232Z</time>
      </trkpt>
      <trkpt lat="43.165963" lon="2.986965">
        <ele>13.258079</ele>
        <time>2022-07-26T18:57:23.367Z</time>
      </trkpt>
      <trkpt lat="43.166186" lon="2.986504">
        <ele>13.308281</ele>
        <time>2022-07-26T18:57:32.022Z</time>
      </trkpt>
      <trkpt lat="43.166314" lon="2.986271">
        <ele>13.343961</ele>
        <time>2022-07-26T18:57:36.687Z</time>
      </trkpt>
      <trkpt lat="43.167182" lon="2.984800">
        <ele>13.575401</ele>
        <time>2022-07-26T18:58:08.591Z</time>
      </trkpt>
      <trkpt lat="43.167476" lon="2.984294">
        <ele>13.904053</ele>
        <time>2022-07-26T18:58:19.844Z</time>
      </trkpt>
      <trkpt lat="43.167717" lon="2.983875">
        <ele>14.197673</ele>
        <time>2022-07-26T18:58:29.514Z</time>
      </trkpt>
      <trkpt lat="43.168334" lon="2.982797">
        <ele>14.965166</ele>
        <time>2022-07-26T18:58:55.005Z</time>
      </trkpt>
      <trkpt lat="43.168516" lon="2.982477">
        <ele>15.450131</ele>
        <time>2022-07-26T18:59:03.028Z</time>
      </trkpt>
      <trkpt lat="43.169135" lon="2.981391">
        <ele>17.097321</ele>
        <time>2022-07-26T18:59:32.206Z</time>
      </trkpt>
      <trkpt lat="43.170062" lon="2.979794">
        <ele>19.724986</ele>
        <time>2022-07-26T19:00:17.386Z</time>
      </trkpt>
      <trkpt lat="43.170558" lon="2.978986">
        <ele>21.131330</ele>
        <time>2022-07-26T19:00:40.076Z</time>
      </trkpt>
      <trkpt lat="43.171373" lon="2.977825">
        <ele>22.407504</ele>
        <time>2022-07-26T19:01:11.559Z</time>
      </trkpt>
      <trkpt lat="43.172830" lon="2.976117">
        <ele>23.913285</ele>
        <time>2022-07-26T19:02:00.158Z</time>
      </trkpt>
      <trkpt lat="43.173214" lon="2.975730">
        <ele>24.218399</ele>
        <time>2022-07-26T19:02:11.576Z</time>
      </trkpt>
      <trkpt lat="43.173716" lon="2.975276">
        <ele>24.380380</ele>
        <time>2022-07-26T19:02:25.146Z</time>
      </trkpt>
      <trkpt lat="43.173928" lon="2.975084">
        <ele>24.440170</ele>
        <time>2022-07-26T19:02:31.261Z</time>
      </trkpt>
      <trkpt lat="43.174491" lon="2.974607">
        <ele>24.595911</ele>
        <time>2022-07-26T19:02:46.296Z</time>
      </trkpt>
      <trkpt lat="43.174556" lon="2.974823">
        <ele>24.636013</ele>
        <time>2022-07-26T19:02:50.111Z</time>
      </trkpt>
      <trkpt lat="43.174555" lon="2.974880">
        <ele>24.645798</ele>
        <time>2022-07-26T19:02:50.933Z</time>
      </trkpt>
      <trkpt lat="43.174556" lon="2.974823">
        <ele>24.655583</ele>
        <time>2022-07-26T19:02:52.204Z</time>
      </trkpt>
      <trkpt lat="43.174491" lon="2.974607">
        <ele>24.747713</ele>
        <time>2022-07-26T19:02:56.683Z</time>
      </trkpt>
      <trkpt lat="43.174847" lon="2.974296">
        <ele>25.085733</ele>
        <time>2022-07-26T19:03:06.331Z</time>
      </trkpt>
      <trkpt lat="43.175129" lon="2.974049">
        <ele>25.353693</ele>
        <time>2022-07-26T19:03:14.468Z</time>
      </trkpt>
      <trkpt lat="43.176072" lon="2.973169">
        <ele>26.392838</ele>
        <time>2022-07-26T19:03:45.403Z</time>
      </trkpt>
      <trkpt lat="43.176472" lon="2.972735">
        <ele>27.137480</ele>
        <time>2022-07-26T19:04:00.032Z</time>
      </trkpt>
      <trkpt lat="43.176897" lon="2.972142">
        <ele>28.022649</ele>
        <time>2022-07-26T19:04:17.389Z</time>
      </trkpt>
      <trkpt lat="43.177317" lon="2.971297">
        <ele>28.782571</ele>
        <time>2022-07-26T19:04:38.633Z</time>
      </trkpt>
      <trkpt lat="43.177845" lon="2.969757">
        <ele>28.989488</ele>
        <time>2022-07-26T19:05:08.071Z</time>
      </trkpt>
      <trkpt lat="43.178119" lon="2.969109">
        <ele>28.562657</ele>
        <time>2022-07-26T19:05:18.158Z</time>
      </trkpt>
      <trkpt lat="43.178321" lon="2.968752">
        <ele>27.914666</ele>
        <time>2022-07-26T19:05:23.928Z</time>
      </trkpt>
      <trkpt lat="43.178710" lon="2.968287">
        <ele>26.899853</ele>
        <time>2022-07-26T19:05:32.701Z</time>
      </trkpt>
      <trkpt lat="43.179275" lon="2.967819">
        <ele>25.601812</ele>
        <time>2022-07-26T19:05:43.957Z</time>
      </trkpt>
      <trkpt lat="43.179901" lon="2.967544">
        <ele>25.511495</ele>
        <time>2022-07-26T19:05:55.764Z</time>
      </trkpt>
      <trkpt lat="43.180492" lon="2.967477">
        <ele>25.519773</ele>
        <time>2022-07-26T19:06:08.712Z</time>
      </trkpt>
      <trkpt lat="43.180796" lon="2.967460">
        <ele>25.524020</ele>
        <time>2022-07-26T19:06:17.093Z</time>
      </trkpt>
      <trkpt lat="43.181161" lon="2.967468">
        <ele>25.730057</ele>
        <time>2022-07-26T19:06:28.399Z</time>
      </trkpt>
      <trkpt lat="43.181268" lon="2.967469">
        <ele>26.035366</ele>
        <time>2022-07-26T19:06:31.881Z</time>
      </trkpt>
      <trkpt lat="43.181947" lon="2.967561">
        <ele>27.982178</ele>
        <time>2022-07-26T19:06:55.685Z</time>
      </trkpt>
      <trkpt lat="43.182334" lon="2.967688">
        <ele>29.117573</ele>
        <time>2022-07-26T19:07:10.072Z</time>
      </trkpt>
      <trkpt lat="43.182806" lon="2.967947">
        <ele>30.568127</ele>
        <time>2022-07-26T19:07:27.775Z</time>
      </trkpt>
      <trkpt lat="43.183277" lon="2.968343">
        <ele>31.138295</ele>
        <time>2022-07-26T19:07:45.340Z</time>
      </trkpt>
      <trkpt lat="43.183697" lon="2.968842">
        <ele>31.649032</ele>
        <time>2022-07-26T19:08:00.680Z</time>
      </trkpt>
      <trkpt lat="43.185608" lon="2.971409">
        <ele>30.447122</ele>
        <time>2022-07-26T19:08:53.679Z</time>
      </trkpt>
      <trkpt lat="43.185861" lon="2.971674">
        <ele>29.835493</ele>
        <time>2022-07-26T19:08:59.363Z</time>
      </trkpt>
      <trkpt lat="43.186206" lon="2.972147">
        <ele>28.898258</ele>
        <time>2022-07-26T19:09:07.939Z</time>
      </trkpt>
      <trkpt lat="43.186377" lon="2.972478">
        <ele>28.329979</ele>
        <time>2022-07-26T19:09:13.134Z</time>
      </trkpt>
      <trkpt lat="43.186409" lon="2.972674">
        <ele>28.048611</ele>
        <time>2022-07-26T19:09:15.705Z</time>
      </trkpt>
      <trkpt lat="43.186525" lon="2.972848">
        <ele>27.718332</ele>
        <time>2022-07-26T19:09:18.704Z</time>
      </trkpt>
      <trkpt lat="43.186652" lon="2.972907">
        <ele>27.460712</ele>
        <time>2022-07-26T19:09:20.984Z</time>
      </trkpt>
      <trkpt lat="43.186780" lon="2.972889">
        <ele>27.173014</ele>
        <time>2022-07-26T19:09:23.199Z</time>
      </trkpt>
      <trkpt lat="43.186950" lon="2.972885">
        <ele>26.665053</ele>
        <time>2022-07-26T19:09:26.052Z</time>
      </trkpt>
      <trkpt lat="43.187810" lon="2.973568">
        <ele>23.696075</ele>
        <time>2022-07-26T19:09:42.440Z</time>
      </trkpt>
      <trkpt lat="43.189455" lon="2.975104">
        <ele>17.488292</ele>
        <time>2022-07-26T19:10:14.627Z</time>
      </trkpt>
      <trkpt lat="43.189797" lon="2.975487">
        <ele>16.127120</ele>
        <time>2022-07-26T19:10:21.939Z</time>
      </trkpt>
      <trkpt lat="43.190243" lon="2.976100">
        <ele>14.841556</ele>
        <time>2022-07-26T19:10:32.597Z</time>
      </trkpt>
      <trkpt lat="43.192364" lon="2.979406">
        <ele>9.575276</ele>
        <time>2022-07-26T19:11:31.063Z</time>
      </trkpt>
      <trkpt lat="43.192671" lon="2.979973">
        <ele>9.126273</ele>
        <time>2022-07-26T19:11:41.343Z</time>
      </trkpt>
      <trkpt lat="43.192908" lon="2.980549">
        <ele>8.705792</ele>
        <time>2022-07-26T19:11:50.912Z</time>
      </trkpt>
      <trkpt lat="43.192915" lon="2.980843">
        <ele>8.518784</ele>
        <time>2022-07-26T19:11:55.194Z</time>
      </trkpt>
      <trkpt lat="43.193033" lon="2.981039">
        <ele>8.357185</ele>
        <time>2022-07-26T19:11:58.964Z</time>
      </trkpt>
      <trkpt lat="43.193230" lon="2.981107">
        <ele>8.206589</ele>
        <time>2022-07-26T19:12:03.208Z</time>
      </trkpt>
      <trkpt lat="43.193533" lon="2.981776">
        <ele>7.891392</ele>
        <time>2022-07-26T19:12:15.640Z</time>
      </trkpt>
      <trkpt lat="43.193671" lon="2.982391">
        <ele>7.633872</ele>
        <time>2022-07-26T19:12:25.200Z</time>
      </trkpt>
      <trkpt lat="43.193769" lon="2.983259">
        <ele>7.282354</ele>
        <time>2022-07-26T19:12:38.003Z</time>
      </trkpt>
      <trkpt lat="43.193807" lon="2.984674">
        <ele>6.972546</ele>
        <time>2022-07-26T19:12:59.557Z</time>
      </trkpt>
      <trkpt lat="43.193812" lon="2.984933">
        <ele>6.917401</ele>
        <time>2022-07-26T19:13:03.561Z</time>
      </trkpt>
      <trkpt lat="43.193966" lon="2.991955">
        <ele>6.303582</ele>
        <time>2022-07-26T19:14:55.574Z</time>
      </trkpt>
      <trkpt lat="43.193982" lon="2.993065">
        <ele>6.227738</ele>
        <time>2022-07-26T19:15:13.378Z</time>
      </trkpt>
      <trkpt lat="43.193886" lon="2.993282">
        <ele>6.211161</ele>
        <time>2022-07-26T19:15:17.522Z</time>
      </trkpt>
      <trkpt lat="43.193890" lon="2.993540">
        <ele>6.194838</ele>
        <time>2022-07-26T19:15:21.582Z</time>
      </trkpt>
      <trkpt lat="43.193945" lon="2.993664">
        <ele>6.185657</ele>
        <time>2022-07-26T19:15:23.988Z</time>
      </trkpt>
      <trkpt lat="43.194126" lon="2.993802">
        <ele>6.167690</ele>
        <time>2022-07-26T19:15:28.476Z</time>
      </trkpt>
      <trkpt lat="43.194643" lon="2.994777">
        <ele>6.091431</ele>
        <time>2022-07-26T19:15:47.477Z</time>
      </trkpt>
      <trkpt lat="43.196514" lon="2.998832">
        <ele>5.933167</ele>
        <time>2022-07-26T19:17:04.117Z</time>
      </trkpt>
      <trkpt lat="43.198962" lon="3.005103">
        <ele>8.628909</ele>
        <time>2022-07-26T19:19:09.852Z</time>
      </trkpt>
      <trkpt lat="43.199434" lon="3.006435">
        <ele>9.260213</ele>
        <time>2022-07-26T19:19:38.755Z</time>
      </trkpt>
      <trkpt lat="43.199738" lon="3.007587">
        <ele>9.627427</ele>
        <time>2022-07-26T19:20:00.632Z</time>
      </trkpt>
      <trkpt lat="43.199844" lon="3.008164">
        <ele>9.805777</ele>
        <time>2022-07-26T19:20:10.109Z</time>
      </trkpt>
      <trkpt lat="43.200180" lon="3.010870">
        <ele>8.333146</ele>
        <time>2022-07-26T19:20:49.244Z</time>
      </trkpt>
      <trkpt lat="43.200176" lon="3.011908">
        <ele>7.789685</ele>
        <time>2022-07-26T19:21:04.164Z</time>
      </trkpt>
      <trkpt lat="43.200102" lon="3.012024">
        <ele>7.708981</ele>
        <time>2022-07-26T19:21:06.410Z</time>
      </trkpt>
      <trkpt lat="43.200061" lon="3.012290">
        <ele>7.566635</ele>
        <time>2022-07-26T19:21:10.402Z</time>
      </trkpt>
      <trkpt lat="43.200153" lon="3.012543">
        <ele>7.418608</ele>
        <time>2022-07-26T19:21:14.577Z</time>
      </trkpt>
      <trkpt lat="43.200285" lon="3.012647">
        <ele>7.309279</ele>
        <time>2022-07-26T19:21:17.676Z</time>
      </trkpt>
      <trkpt lat="43.200366" lon="3.012867">
        <ele>7.180239</ele>
        <time>2022-07-26T19:21:21.367Z</time>
      </trkpt>
      <trkpt lat="43.200530" lon="3.013858">
        <ele>6.855503</ele>
        <time>2022-07-26T19:21:36.989Z</time>
      </trkpt>
      <trkpt lat="43.200735" lon="3.015800">
        <ele>6.232612</ele>
        <time>2022-07-26T19:22:06.440Z</time>
      </trkpt>
      <trkpt lat="43.200813" lon="3.016551">
        <ele>5.995822</ele>
        <time>2022-07-26T19:22:17.834Z</time>
      </trkpt>
      <trkpt lat="43.200854" lon="3.016921">
        <ele>5.879001</ele>
        <time>2022-07-26T19:22:23.424Z</time>
      </trkpt>
      <trkpt lat="43.200943" lon="3.017713">
        <ele>5.628861</ele>
        <time>2022-07-26T19:22:35.817Z</time>
      </trkpt>
      <trkpt lat="43.200919" lon="3.018694">
        <ele>5.624946</ele>
        <time>2022-07-26T19:22:50.988Z</time>
      </trkpt>
      <trkpt lat="43.200853" lon="3.018954">
        <ele>5.625924</ele>
        <time>2022-07-26T19:22:55.419Z</time>
      </trkpt>
      <trkpt lat="43.200755" lon="3.019047">
        <ele>5.626505</ele>
        <time>2022-07-26T19:22:58.130Z</time>
      </trkpt>
      <trkpt lat="43.200661" lon="3.019085">
        <ele>5.626983</ele>
        <time>2022-07-26T19:23:00.436Z</time>
      </trkpt>
      <trkpt lat="43.200536" lon="3.019239">
        <ele>5.627803</ele>
        <time>2022-07-26T19:23:04.288Z</time>
      </trkpt>
      <trkpt lat="43.200491" lon="3.019426">
        <ele>5.628503</ele>
        <time>2022-07-26T19:23:07.638Z</time>
      </trkpt>
      <trkpt lat="43.200515" lon="3.019626">
        <ele>5.629223</ele>
        <time>2022-07-26T19:23:11.083Z</time>
      </trkpt>
      <trkpt lat="43.200620" lon="3.019802">
        <ele>5.630031</ele>
        <time>2022-07-26T19:23:14.917Z</time>
      </trkpt>
      <trkpt lat="43.200779" lon="3.019876">
        <ele>5.646667</ele>
        <time>2022-07-26T19:23:18.900Z</time>
      </trkpt>
      <trkpt lat="43.200947" lon="3.019820">
        <ele>5.672229</ele>
        <time>2022-07-26T19:23:22.911Z</time>
      </trkpt>
      <trkpt lat="43.201793" lon="3.020001">
        <ele>5.798825</ele>
        <time>2022-07-26T19:23:42.738Z</time>
      </trkpt>
      <trkpt lat="43.202579" lon="3.020244">
        <ele>5.886230</ele>
        <time>2022-07-26T19:24:00.710Z</time>
      </trkpt>
      <trkpt lat="43.203000" lon="3.020415">
        <ele>5.856276</ele>
        <time>2022-07-26T19:24:10.368Z</time>
      </trkpt>
      <trkpt lat="43.203406" lon="3.020690">
        <ele>5.825386</ele>
        <time>2022-07-26T19:24:20.252Z</time>
      </trkpt>
      <trkpt lat="43.203736" lon="3.020996">
        <ele>5.798213</ele>
        <time>2022-07-26T19:24:28.892Z</time>
      </trkpt>
      <trkpt lat="43.204290" lon="3.021640">
        <ele>5.775609</ele>
        <time>2022-07-26T19:24:44.655Z</time>
      </trkpt>
      <trkpt lat="43.206877" lon="3.024719">
        <ele>5.838823</ele>
        <time>2022-07-26T19:26:01.461Z</time>
      </trkpt>
      <trkpt lat="43.209927" lon="3.028357">
        <ele>5.415747</ele>
        <time>2022-07-26T19:27:29.045Z</time>
      </trkpt>
      <trkpt lat="43.211223" lon="3.029917">
        <ele>5.610710</ele>
        <time>2022-07-26T19:28:08.351Z</time>
      </trkpt>
      <trkpt lat="43.212238" lon="3.031118">
        <ele>5.974028</ele>
        <time>2022-07-26T19:28:40.495Z</time>
      </trkpt>
      <trkpt lat="43.212900" lon="3.031901">
        <ele>5.966596</ele>
        <time>2022-07-26T19:29:00.171Z</time>
      </trkpt>
      <trkpt lat="43.213070" lon="3.032108">
        <ele>5.964664</ele>
        <time>2022-07-26T19:29:05.001Z</time>
      </trkpt>
      <trkpt lat="43.213336" lon="3.032425">
        <ele>5.961668</ele>
        <time>2022-07-26T19:29:12.627Z</time>
      </trkpt>
      <trkpt lat="43.214143" lon="3.033388">
        <ele>5.969208</ele>
        <time>2022-07-26T19:29:35.564Z</time>
      </trkpt>
      <trkpt lat="43.215353" lon="3.034832">
        <ele>6.064326</ele>
        <time>2022-07-26T19:30:12.484Z</time>
      </trkpt>
      <trkpt lat="43.216531" lon="3.036239">
        <ele>6.142841</ele>
        <time>2022-07-26T19:30:48.010Z</time>
      </trkpt>
      <trkpt lat="43.218265" lon="3.038317">
        <ele>5.934657</ele>
        <time>2022-07-26T19:31:36.661Z</time>
      </trkpt>
      <trkpt lat="43.221868" lon="3.042608">
        <ele>7.597808</ele>
        <time>2022-07-26T19:33:31.136Z</time>
      </trkpt>
      <trkpt lat="43.223204" lon="3.044184">
        <ele>7.753040</ele>
        <time>2022-07-26T19:34:11.396Z</time>
      </trkpt>
      <trkpt lat="43.223694" lon="3.044767">
        <ele>7.450613</ele>
        <time>2022-07-26T19:34:24.644Z</time>
      </trkpt>
      <trkpt lat="43.225010" lon="3.046337">
        <ele>6.962855</ele>
        <time>2022-07-26T19:34:59.725Z</time>
      </trkpt>
      <trkpt lat="43.225041" lon="3.046373">
        <ele>6.959822</ele>
        <time>2022-07-26T19:35:00.584Z</time>
      </trkpt>
      <trkpt lat="43.225349" lon="3.046738">
        <ele>6.929423</ele>
        <time>2022-07-26T19:35:09.436Z</time>
      </trkpt>
      <trkpt lat="43.227011" lon="3.048745">
        <ele>8.160827</ele>
        <time>2022-07-26T19:36:06.076Z</time>
      </trkpt>
      <trkpt lat="43.227955" lon="3.049858">
        <ele>8.552311</ele>
        <time>2022-07-26T19:36:35.574Z</time>
      </trkpt>
      <trkpt lat="43.228113" lon="3.050041">
        <ele>8.609047</ele>
        <time>2022-07-26T19:36:40.160Z</time>
      </trkpt>
      <trkpt lat="43.228389" lon="3.050363">
        <ele>8.708458</ele>
        <time>2022-07-26T19:36:48.314Z</time>
      </trkpt>
      <trkpt lat="43.228861" lon="3.050930">
        <ele>8.826026</ele>
        <time>2022-07-26T19:37:02.366Z</time>
      </trkpt>
      <trkpt lat="43.229021" lon="3.051124">
        <ele>8.862924</ele>
        <time>2022-07-26T19:37:07.185Z</time>
      </trkpt>
      <trkpt lat="43.229612" lon="3.051837">
        <ele>8.998915</ele>
        <time>2022-07-26T19:37:25.105Z</time>
      </trkpt>
      <trkpt lat="43.230501" lon="3.052905">
        <ele>9.302724</ele>
        <time>2022-07-26T19:37:53.240Z</time>
      </trkpt>
      <trkpt lat="43.230760" lon="3.053211">
        <ele>9.398781</ele>
        <time>2022-07-26T19:38:01.110Z</time>
      </trkpt>
      <trkpt lat="43.231057" lon="3.053562">
        <ele>9.508945</ele>
        <time>2022-07-26T19:38:10.020Z</time>
      </trkpt>
      <trkpt lat="43.231438" lon="3.054033">
        <ele>9.742847</ele>
        <time>2022-07-26T19:38:21.983Z</time>
      </trkpt>
      <trkpt lat="43.231471" lon="3.054073">
        <ele>9.765960</ele>
        <time>2022-07-26T19:38:23.026Z</time>
      </trkpt>
      <trkpt lat="43.231595" lon="3.054219">
        <ele>9.851729</ele>
        <time>2022-07-26T19:38:26.911Z</time>
      </trkpt>
      <trkpt lat="43.231635" lon="3.054266">
        <ele>9.879372</ele>
        <time>2022-07-26T19:38:28.191Z</time>
      </trkpt>
      <trkpt lat="43.231740" lon="3.054393">
        <ele>9.952845</ele>
        <time>2022-07-26T19:38:31.611Z</time>
      </trkpt>
      <trkpt lat="43.231965" lon="3.054663">
        <ele>10.109747</ele>
        <time>2022-07-26T19:38:39.032Z</time>
      </trkpt>
      <trkpt lat="43.232089" lon="3.054810">
        <ele>10.195765</ele>
        <time>2022-07-26T19:38:43.144Z</time>
      </trkpt>
      <trkpt lat="43.232195" lon="3.054937">
        <ele>10.269633</ele>
        <time>2022-07-26T19:38:46.753Z</time>
      </trkpt>
      <trkpt lat="43.232220" lon="3.054967">
        <ele>10.287066</ele>
        <time>2022-07-26T19:38:47.569Z</time>
      </trkpt>
      <trkpt lat="43.232365" lon="3.055141">
        <ele>10.388180</ele>
        <time>2022-07-26T19:38:52.379Z</time>
      </trkpt>
      <trkpt lat="43.232521" lon="3.055327">
        <ele>10.496397</ele>
        <time>2022-07-26T19:38:57.533Z</time>
      </trkpt>
      <trkpt lat="43.232776" lon="3.055635">
        <ele>10.657741</ele>
        <time>2022-07-26T19:39:05.929Z</time>
      </trkpt>
      <trkpt lat="43.232806" lon="3.055667">
        <ele>10.675787</ele>
        <time>2022-07-26T19:39:06.857Z</time>
      </trkpt>
      <trkpt lat="43.233052" lon="3.055943">
        <ele>10.826706</ele>
        <time>2022-07-26T19:39:14.780Z</time>
      </trkpt>
      <trkpt lat="43.233076" lon="3.055974">
        <ele>10.842360</ele>
        <time>2022-07-26T19:39:15.605Z</time>
      </trkpt>
      <trkpt lat="43.233244" lon="3.056190">
        <ele>10.951700</ele>
        <time>2022-07-26T19:39:21.483Z</time>
      </trkpt>
      <trkpt lat="43.233375" lon="3.056351">
        <ele>11.035223</ele>
        <time>2022-07-26T19:39:25.943Z</time>
      </trkpt>
      <trkpt lat="43.233403" lon="3.056389">
        <ele>11.053926</ele>
        <time>2022-07-26T19:39:26.939Z</time>
      </trkpt>
      <trkpt lat="43.233961" lon="3.057031">
        <ele>11.268396</ele>
        <time>2022-07-26T19:39:44.123Z</time>
      </trkpt>
      <trkpt lat="43.234075" lon="3.057102">
        <ele>11.176361</ele>
        <time>2022-07-26T19:39:46.809Z</time>
      </trkpt>
      <trkpt lat="43.234656" lon="3.057466">
        <ele>10.706830</ele>
        <time>2022-07-26T19:39:59.192Z</time>
      </trkpt>
      <trkpt lat="43.234773" lon="3.057482">
        <ele>10.620389</ele>
        <time>2022-07-26T19:40:01.321Z</time>
      </trkpt>
      <trkpt lat="43.235053" lon="3.057392">
        <ele>10.408970</ele>
        <time>2022-07-26T19:40:06.805Z</time>
      </trkpt>
      <trkpt lat="43.235183" lon="3.057336">
        <ele>10.308800</ele>
        <time>2022-07-26T19:40:09.469Z</time>
      </trkpt>
      <trkpt lat="43.236072" lon="3.057008">
        <ele>9.650565</ele>
        <time>2022-07-26T19:40:27.707Z</time>
      </trkpt>
      <trkpt lat="43.236190" lon="3.057031">
        <ele>9.567068</ele>
        <time>2022-07-26T19:40:29.985Z</time>
      </trkpt>
      <trkpt lat="43.236283" lon="3.057107">
        <ele>9.491242</ele>
        <time>2022-07-26T19:40:32.054Z</time>
      </trkpt>
      <trkpt lat="43.236508" lon="3.057411">
        <ele>9.270060</ele>
        <time>2022-07-26T19:40:38.264Z</time>
      </trkpt>
      <trkpt lat="43.236656" lon="3.057600">
        <ele>9.128441</ele>
        <time>2022-07-26T19:40:42.319Z</time>
      </trkpt>
      <trkpt lat="43.238313" lon="3.058997">
        <ele>7.903482</ele>
        <time>2022-07-26T19:41:22.610Z</time>
      </trkpt>
      <trkpt lat="43.238849" lon="3.059294">
        <ele>7.516192</ele>
        <time>2022-07-26T19:41:33.718Z</time>
      </trkpt>
      <trkpt lat="43.239451" lon="3.059484">
        <ele>7.029182</ele>
        <time>2022-07-26T19:41:45.749Z</time>
      </trkpt>
      <trkpt lat="43.240079" lon="3.059667">
        <ele>6.523024</ele>
        <time>2022-07-26T19:41:58.485Z</time>
      </trkpt>
      <trkpt lat="43.240790" lon="3.059964">
        <ele>6.137064</ele>
        <time>2022-07-26T19:42:13.590Z</time>
      </trkpt>
      <trkpt lat="43.241131" lon="3.060222">
        <ele>6.019729</ele>
        <time>2022-07-26T19:42:21.695Z</time>
      </trkpt>
      <trkpt lat="43.241527" lon="3.060679">
        <ele>5.863826</ele>
        <time>2022-07-26T19:42:32.806Z</time>
      </trkpt>
      <trkpt lat="43.242308" lon="3.062005">
        <ele>5.756203</ele>
        <time>2022-07-26T19:43:00.135Z</time>
      </trkpt>
      <trkpt lat="43.242759" lon="3.062587">
        <ele>5.786654</ele>
        <time>2022-07-26T19:43:13.959Z</time>
      </trkpt>
      <trkpt lat="43.245444" lon="3.064854">
        <ele>6.237143</ele>
        <time>2022-07-26T19:44:27.044Z</time>
      </trkpt>
      <trkpt lat="43.252170" lon="3.070352">
        <ele>5.370791</ele>
        <time>2022-07-26T19:47:16.929Z</time>
      </trkpt>
      <trkpt lat="43.252557" lon="3.070678">
        <ele>5.365813</ele>
        <time>2022-07-26T19:47:27.118Z</time>
      </trkpt>
      <trkpt lat="43.252616" lon="3.070726">
        <ele>5.371034</ele>
        <time>2022-07-26T19:47:28.629Z</time>
      </trkpt>
      <trkpt lat="43.253140" lon="3.071155">
        <ele>5.417479</ele>
        <time>2022-07-26T19:47:42.401Z</time>
      </trkpt>
      <trkpt lat="43.253875" lon="3.071757">
        <ele>5.482633</ele>
        <time>2022-07-26T19:48:01.820Z</time>
      </trkpt>
      <trkpt lat="43.260411" lon="3.077118">
        <ele>5.738317</ele>
        <time>2022-07-26T19:50:52.357Z</time>
      </trkpt>
      <trkpt lat="43.261008" lon="3.077522">
        <ele>5.661210</ele>
        <time>2022-07-26T19:51:06.960Z</time>
      </trkpt>
      <trkpt lat="43.261055" lon="3.077554">
        <ele>5.655132</ele>
        <time>2022-07-26T19:51:08.127Z</time>
      </trkpt>
      <trkpt lat="43.262009" lon="3.078189">
        <ele>5.500879</ele>
        <time>2022-07-26T19:51:30.842Z</time>
      </trkpt>
      <trkpt lat="43.265554" lon="3.080546">
        <ele>5.775402</ele>
        <time>2022-07-26T19:52:55.426Z</time>
      </trkpt>
      <trkpt lat="43.266093" lon="3.080880">
        <ele>6.547148</ele>
        <time>2022-07-26T19:53:12.441Z</time>
      </trkpt>
      <trkpt lat="43.266340" lon="3.080983">
        <ele>6.884041</ele>
        <time>2022-07-26T19:53:20.577Z</time>
      </trkpt>
      <trkpt lat="43.266655" lon="3.081057">
        <ele>7.436585</ele>
        <time>2022-07-26T19:53:31.342Z</time>
      </trkpt>
      <trkpt lat="43.267207" lon="3.081054">
        <ele>9.234104</ele>
        <time>2022-07-26T19:53:51.143Z</time>
      </trkpt>
      <trkpt lat="43.268265" lon="3.080760">
        <ele>12.749141</ele>
        <time>2022-07-26T19:54:30.615Z</time>
      </trkpt>
      <trkpt lat="43.268636" lon="3.080643">
        <ele>13.766258</ele>
        <time>2022-07-26T19:54:43.852Z</time>
      </trkpt>
      <trkpt lat="43.269355" lon="3.080421">
        <ele>15.586554</ele>
        <time>2022-07-26T19:55:07.272Z</time>
      </trkpt>
      <trkpt lat="43.269858" lon="3.080268">
        <ele>16.859097</ele>
        <time>2022-07-26T19:55:22.862Z</time>
      </trkpt>
      <trkpt lat="43.270179" lon="3.080055">
        <ele>17.831153</ele>
        <time>2022-07-26T19:55:33.599Z</time>
      </trkpt>
      <trkpt lat="43.270430" lon="3.079786">
        <ele>18.931122</ele>
        <time>2022-07-26T19:55:43.462Z</time>
      </trkpt>
      <trkpt lat="43.270671" lon="3.079381">
        <ele>20.246903</ele>
        <time>2022-07-26T19:55:56.228Z</time>
      </trkpt>
      <trkpt lat="43.271234" lon="3.078338">
        <ele>23.513035</ele>
        <time>2022-07-26T19:56:32.746Z</time>
      </trkpt>
      <trkpt lat="43.271639" lon="3.077926">
        <ele>25.191536</ele>
        <time>2022-07-26T19:56:53.951Z</time>
      </trkpt>
      <trkpt lat="43.272075" lon="3.077692">
        <ele>26.742449</ele>
        <time>2022-07-26T19:57:13.246Z</time>
      </trkpt>
      <trkpt lat="43.272476" lon="3.077624">
        <ele>28.081113</ele>
        <time>2022-07-26T19:57:27.729Z</time>
      </trkpt>
      <trkpt lat="43.273057" lon="3.077759">
        <ele>29.546820</ele>
        <time>2022-07-26T19:57:44.816Z</time>
      </trkpt>
      <trkpt lat="43.273203" lon="3.077791">
        <ele>29.355278</ele>
        <time>2022-07-26T19:57:48.447Z</time>
      </trkpt>
      <trkpt lat="43.273477" lon="3.078006">
        <ele>28.946454</ele>
        <time>2022-07-26T19:57:55.257Z</time>
      </trkpt>
      <trkpt lat="43.273520" lon="3.078039">
        <ele>28.882639</ele>
        <time>2022-07-26T19:57:56.152Z</time>
      </trkpt>
      <trkpt lat="43.273579" lon="3.078145">
        <ele>28.756783</ele>
        <time>2022-07-26T19:57:57.991Z</time>
      </trkpt>
      <trkpt lat="43.274244" lon="3.078720">
        <ele>27.738743</ele>
        <time>2022-07-26T19:58:11.414Z</time>
      </trkpt>
      <trkpt lat="43.274973" lon="3.079386">
        <ele>27.058541</ele>
        <time>2022-07-26T19:58:26.204Z</time>
      </trkpt>
      <trkpt lat="43.275557" lon="3.079997">
        <ele>26.684099</ele>
        <time>2022-07-26T19:58:40.736Z</time>
      </trkpt>
      <trkpt lat="43.275841" lon="3.080406">
        <ele>26.474217</ele>
        <time>2022-07-26T19:58:52.361Z</time>
      </trkpt>
      <trkpt lat="43.276187" lon="3.081120">
        <ele>28.297978</ele>
        <time>2022-07-26T19:59:12.934Z</time>
      </trkpt>
      <trkpt lat="43.276335" lon="3.081578">
        <ele>29.534084</ele>
        <time>2022-07-26T19:59:26.191Z</time>
      </trkpt>
      <trkpt lat="43.276499" lon="3.082440">
        <ele>31.731913</ele>
        <time>2022-07-26T19:59:51.484Z</time>
      </trkpt>
      <trkpt lat="43.276529" lon="3.083194">
        <ele>33.822377</ele>
        <time>2022-07-26T20:00:13.327Z</time>
      </trkpt>
      <trkpt lat="43.276419" lon="3.085956">
        <ele>40.846096</ele>
        <time>2022-07-26T20:01:31.162Z</time>
      </trkpt>
      <trkpt lat="43.276512" lon="3.087043">
        <ele>42.227662</ele>
        <time>2022-07-26T20:01:54.339Z</time>
      </trkpt>
      <trkpt lat="43.277073" lon="3.092248">
        <ele>40.068949</ele>
        <time>2022-07-26T20:03:09.209Z</time>
      </trkpt>
      <trkpt lat="43.277199" lon="3.092950">
        <ele>39.381269</ele>
        <time>2022-07-26T20:03:19.145Z</time>
      </trkpt>
      <trkpt lat="43.277378" lon="3.093572">
        <ele>38.609646</ele>
        <time>2022-07-26T20:03:28.226Z</time>
      </trkpt>
      <trkpt lat="43.277762" lon="3.094485">
        <ele>37.393196</ele>
        <time>2022-07-26T20:03:42.106Z</time>
      </trkpt>
      <trkpt lat="43.278231" lon="3.095429">
        <ele>35.716485</ele>
        <time>2022-07-26T20:03:56.641Z</time>
      </trkpt>
      <trkpt lat="43.278970" lon="3.096893">
        <ele>32.861252</ele>
        <time>2022-07-26T20:04:18.868Z</time>
      </trkpt>
      <trkpt lat="43.280179" lon="3.099295">
        <ele>28.376307</ele>
        <time>2022-07-26T20:04:56.116Z</time>
      </trkpt>
      <trkpt lat="43.281024" lon="3.100991">
        <ele>25.245166</ele>
        <time>2022-07-26T20:05:22.118Z</time>
      </trkpt>
      <trkpt lat="43.281130" lon="3.101191">
        <ele>24.929668</ele>
        <time>2022-07-26T20:05:25.240Z</time>
      </trkpt>
      <trkpt lat="43.281551" lon="3.102032">
        <ele>23.628030</ele>
        <time>2022-07-26T20:05:38.339Z</time>
      </trkpt>
      <trkpt lat="43.281968" lon="3.102735">
        <ele>22.471562</ele>
        <time>2022-07-26T20:05:50.482Z</time>
      </trkpt>
      <trkpt lat="43.282003" lon="3.102776">
        <ele>22.390981</ele>
        <time>2022-07-26T20:05:51.267Z</time>
      </trkpt>
      <trkpt lat="43.282568" lon="3.103446">
        <ele>21.519282</ele>
        <time>2022-07-26T20:06:05.371Z</time>
      </trkpt>
      <trkpt lat="43.284361" lon="3.104945">
        <ele>19.237129</ele>
        <time>2022-07-26T20:06:45.838Z</time>
      </trkpt>
      <trkpt lat="43.285443" lon="3.106513">
        <ele>17.850034</ele>
        <time>2022-07-26T20:07:15.843Z</time>
      </trkpt>
      <trkpt lat="43.285816" lon="3.107125">
        <ele>17.454187</ele>
        <time>2022-07-26T20:07:27.485Z</time>
      </trkpt>
      <trkpt lat="43.289342" lon="3.114988">
        <ele>17.332018</ele>
        <time>2022-07-26T20:09:56.994Z</time>
      </trkpt>
      <trkpt lat="43.289782" lon="3.115969">
        <ele>17.558327</ele>
        <time>2022-07-26T20:10:17.171Z</time>
      </trkpt>
      <trkpt lat="43.289871" lon="3.116168">
        <ele>17.639277</ele>
        <time>2022-07-26T20:10:21.408Z</time>
      </trkpt>
      <trkpt lat="43.290048" lon="3.116624">
        <ele>17.931378</ele>
        <time>2022-07-26T20:10:30.626Z</time>
      </trkpt>
      <trkpt lat="43.290861" lon="3.118450">
        <ele>19.329357</ele>
        <time>2022-07-26T20:11:10.539Z</time>
      </trkpt>
      <trkpt lat="43.291032" lon="3.118971">
        <ele>20.034476</ele>
        <time>2022-07-26T20:11:21.769Z</time>
      </trkpt>
      <trkpt lat="43.290995" lon="3.119178">
        <ele>20.297453</ele>
        <time>2022-07-26T20:11:25.951Z</time>
      </trkpt>
      <trkpt lat="43.291079" lon="3.119384">
        <ele>20.588774</ele>
        <time>2022-07-26T20:11:30.738Z</time>
      </trkpt>
      <trkpt lat="43.291261" lon="3.119444">
        <ele>20.906023</ele>
        <time>2022-07-26T20:11:36.290Z</time>
      </trkpt>
      <trkpt lat="43.291493" lon="3.119837">
        <ele>21.530311</ele>
        <time>2022-07-26T20:11:47.457Z</time>
      </trkpt>
      <trkpt lat="43.291788" lon="3.120424">
        <ele>22.803978</ele>
        <time>2022-07-26T20:12:04.633Z</time>
      </trkpt>
      <trkpt lat="43.291824" lon="3.120423">
        <ele>22.928322</ele>
        <time>2022-07-26T20:12:06.087Z</time>
      </trkpt>
      <trkpt lat="43.291901" lon="3.120817">
        <ele>23.953732</ele>
        <time>2022-07-26T20:12:16.026Z</time>
      </trkpt>
      <trkpt lat="43.293093" lon="3.125768">
        <ele>38.090812</ele>
        <time>2022-07-26T20:14:39.401Z</time>
      </trkpt>
      <trkpt lat="43.293342" lon="3.126859">
        <ele>41.215776</ele>
        <time>2022-07-26T20:15:10.930Z</time>
      </trkpt>
      <trkpt lat="43.293367" lon="3.126955">
        <ele>41.494441</ele>
        <time>2022-07-26T20:15:13.697Z</time>
      </trkpt>
      <trkpt lat="43.293415" lon="3.127145">
        <ele>42.037129</ele>
        <time>2022-07-26T20:15:18.955Z</time>
      </trkpt>
      <trkpt lat="43.293701" lon="3.128350">
        <ele>44.812045</ele>
        <time>2022-07-26T20:15:50.766Z</time>
      </trkpt>
      <trkpt lat="43.293863" lon="3.128865">
        <ele>46.040363</ele>
        <time>2022-07-26T20:16:04.916Z</time>
      </trkpt>
      <trkpt lat="43.293869" lon="3.129040">
        <ele>46.423926</ele>
        <time>2022-07-26T20:16:09.288Z</time>
      </trkpt>
      <trkpt lat="43.294061" lon="3.129823">
        <ele>48.212735</ele>
        <time>2022-07-26T20:16:29.084Z</time>
      </trkpt>
      <trkpt lat="43.294102" lon="3.129989">
        <ele>48.587027</ele>
        <time>2022-07-26T20:16:33.281Z</time>
      </trkpt>
      <trkpt lat="43.294464" lon="3.131366">
        <ele>51.713072</ele>
        <time>2022-07-26T20:17:09.711Z</time>
      </trkpt>
      <trkpt lat="43.294496" lon="3.131494">
        <ele>52.002047</ele>
        <time>2022-07-26T20:17:13.184Z</time>
      </trkpt>
      <trkpt lat="43.294494" lon="3.131633">
        <ele>52.298893</ele>
        <time>2022-07-26T20:17:16.657Z</time>
      </trkpt>
      <trkpt lat="43.294768" lon="3.132818">
        <ele>54.476598</ele>
        <time>2022-07-26T20:17:47.782Z</time>
      </trkpt>
      <trkpt lat="43.295097" lon="3.134225">
        <ele>56.912186</ele>
        <time>2022-07-26T20:18:20.148Z</time>
      </trkpt>
      <trkpt lat="43.295205" lon="3.134872">
        <ele>57.480097</ele>
        <time>2022-07-26T20:18:33.227Z</time>
      </trkpt>
      <trkpt lat="43.295274" lon="3.135531">
        <ele>58.049707</ele>
        <time>2022-07-26T20:18:45.706Z</time>
      </trkpt>
      <trkpt lat="43.295269" lon="3.136122">
        <ele>58.555369</ele>
        <time>2022-07-26T20:18:56.569Z</time>
      </trkpt>
      <trkpt lat="43.295030" lon="3.138246">
        <ele>60.623192</ele>
        <time>2022-07-26T20:19:39.083Z</time>
      </trkpt>
      <trkpt lat="43.295014" lon="3.138396">
        <ele>60.773780</ele>
        <time>2022-07-26T20:19:42.479Z</time>
      </trkpt>
      <trkpt lat="43.294968" lon="3.139166">
        <ele>61.563830</ele>
        <time>2022-07-26T20:19:58.427Z</time>
      </trkpt>
      <trkpt lat="43.294987" lon="3.139454">
        <ele>61.907656</ele>
        <time>2022-07-26T20:20:04.747Z</time>
      </trkpt>
      <trkpt lat="43.295047" lon="3.140390">
        <ele>63.024834</ele>
        <time>2022-07-26T20:20:24.921Z</time>
      </trkpt>
      <trkpt lat="43.295149" lon="3.140986">
        <ele>63.752782</ele>
        <time>2022-07-26T20:20:37.649Z</time>
      </trkpt>
      <trkpt lat="43.296368" lon="3.145219">
        <ele>67.854146</ele>
        <time>2022-07-26T20:22:08.618Z</time>
      </trkpt>
      <trkpt lat="43.296621" lon="3.146094">
        <ele>68.511567</ele>
        <time>2022-07-26T20:22:25.554Z</time>
      </trkpt>
      <trkpt lat="43.296709" lon="3.146569">
        <ele>68.545829</ele>
        <time>2022-07-26T20:22:34.351Z</time>
      </trkpt>
      <trkpt lat="43.296800" lon="3.146923">
        <ele>68.572071</ele>
        <time>2022-07-26T20:22:40.899Z</time>
      </trkpt>
      <trkpt lat="43.296998" lon="3.147379">
        <ele>68.609187</ele>
        <time>2022-07-26T20:22:49.980Z</time>
      </trkpt>
      <trkpt lat="43.297547" lon="3.148985">
        <ele>68.581377</ele>
        <time>2022-07-26T20:23:17.988Z</time>
      </trkpt>
      <trkpt lat="43.297860" lon="3.149699">
        <ele>68.467769</ele>
        <time>2022-07-26T20:23:30.929Z</time>
      </trkpt>
      <trkpt lat="43.298426" lon="3.150780">
        <ele>68.259634</ele>
        <time>2022-07-26T20:23:51.646Z</time>
      </trkpt>
      <trkpt lat="43.299251" lon="3.152039">
        <ele>67.923864</ele>
        <time>2022-07-26T20:24:17.410Z</time>
      </trkpt>
      <trkpt lat="43.299478" lon="3.152324">
        <ele>67.865205</ele>
        <time>2022-07-26T20:24:24.180Z</time>
      </trkpt>
      <trkpt lat="43.299898" lon="3.152817">
        <ele>67.967066</ele>
        <time>2022-07-26T20:24:36.749Z</time>
      </trkpt>
      <trkpt lat="43.301308" lon="3.154341">
        <ele>68.200588</ele>
        <time>2022-07-26T20:25:18.785Z</time>
      </trkpt>
      <trkpt lat="43.302807" lon="3.156336">
        <ele>68.043137</ele>
        <time>2022-07-26T20:26:04.285Z</time>
      </trkpt>
      <trkpt lat="43.303526" lon="3.157568">
        <ele>67.767922</ele>
        <time>2022-07-26T20:26:28.690Z</time>
      </trkpt>
      <trkpt lat="43.304335" lon="3.159326">
        <ele>67.223951</ele>
        <time>2022-07-26T20:27:00.402Z</time>
      </trkpt>
      <trkpt lat="43.304519" lon="3.159750">
        <ele>67.067550</ele>
        <time>2022-07-26T20:27:07.851Z</time>
      </trkpt>
      <trkpt lat="43.305064" lon="3.160939">
        <ele>66.611641</ele>
        <time>2022-07-26T20:27:28.063Z</time>
      </trkpt>
      <trkpt lat="43.305035" lon="3.161018">
        <ele>66.582934</ele>
        <time>2022-07-26T20:27:29.539Z</time>
      </trkpt>
      <trkpt lat="43.304898" lon="3.161097">
        <ele>66.516694</ele>
        <time>2022-07-26T20:27:32.991Z</time>
      </trkpt>
      <trkpt lat="43.305017" lon="3.161410">
        <ele>66.412210</ele>
        <time>2022-07-26T20:27:38.776Z</time>
      </trkpt>
      <trkpt lat="43.305464" lon="3.162209">
        <ele>66.857299</ele>
        <time>2022-07-26T20:27:57.168Z</time>
      </trkpt>
      <trkpt lat="43.305976" lon="3.163145">
        <ele>67.374425</ele>
        <time>2022-07-26T20:28:19.480Z</time>
      </trkpt>
      <trkpt lat="43.306334" lon="3.164057">
        <ele>67.865475</ele>
        <time>2022-07-26T20:28:40.283Z</time>
      </trkpt>
      <trkpt lat="43.306436" lon="3.163991">
        <ele>67.940740</ele>
        <time>2022-07-26T20:28:43.312Z</time>
      </trkpt>
      <trkpt lat="43.306745" lon="3.164672">
        <ele>68.330617</ele>
        <time>2022-07-26T20:28:58.336Z</time>
      </trkpt>
      <trkpt lat="43.307080" lon="3.165413">
        <ele>68.678139</ele>
        <time>2022-07-26T20:29:12.783Z</time>
      </trkpt>
      <trkpt lat="43.307371" lon="3.166073">
        <ele>68.539623</ele>
        <time>2022-07-26T20:29:25.069Z</time>
      </trkpt>
      <trkpt lat="43.308014" lon="3.167556">
        <ele>68.131403</ele>
        <time>2022-07-26T20:29:51.414Z</time>
      </trkpt>
      <trkpt lat="43.307992" lon="3.167777">
        <ele>67.935646</ele>
        <time>2022-07-26T20:29:54.707Z</time>
      </trkpt>
      <trkpt lat="43.308082" lon="3.167973">
        <ele>67.732252</ele>
        <time>2022-07-26T20:29:58.110Z</time>
      </trkpt>
      <trkpt lat="43.308158" lon="3.168026">
        <ele>67.629467</ele>
        <time>2022-07-26T20:29:59.810Z</time>
      </trkpt>
      <trkpt lat="43.308235" lon="3.168040">
        <ele>67.535793</ele>
        <time>2022-07-26T20:30:01.374Z</time>
      </trkpt>
      <trkpt lat="43.309206" lon="3.170108">
        <ele>64.667826</ele>
        <time>2022-07-26T20:30:34.137Z</time>
      </trkpt>
      <trkpt lat="43.310527" lon="3.172424">
        <ele>59.580543</ele>
        <time>2022-07-26T20:31:09.718Z</time>
      </trkpt>
      <trkpt lat="43.311208" lon="3.173462">
        <ele>57.542999</ele>
        <time>2022-07-26T20:31:27.493Z</time>
      </trkpt>
      <trkpt lat="43.311914" lon="3.174525">
        <ele>57.443583</ele>
        <time>2022-07-26T20:31:49.092Z</time>
      </trkpt>
      <trkpt lat="43.312077" lon="3.174842">
        <ele>57.416770</ele>
        <time>2022-07-26T20:31:55.974Z</time>
      </trkpt>
      <trkpt lat="43.313482" lon="3.178255">
        <ele>61.197024</ele>
        <time>2022-07-26T20:33:19.580Z</time>
      </trkpt>
      <trkpt lat="43.314236" lon="3.179578">
        <ele>62.213482</ele>
        <time>2022-07-26T20:33:51.162Z</time>
      </trkpt>
      <trkpt lat="43.316560" lon="3.183206">
        <ele>58.884112</ele>
        <time>2022-07-26T20:34:57.805Z</time>
      </trkpt>
      <trkpt lat="43.317113" lon="3.183985">
        <ele>58.566322</ele>
        <time>2022-07-26T20:35:14.226Z</time>
      </trkpt>
      <trkpt lat="43.317716" lon="3.184540">
        <ele>58.275078</ele>
        <time>2022-07-26T20:35:30.402Z</time>
      </trkpt>
      <trkpt lat="43.318892" lon="3.185208">
        <ele>56.825256</ele>
        <time>2022-07-26T20:35:57.111Z</time>
      </trkpt>
      <trkpt lat="43.319651" lon="3.185680">
        <ele>55.473809</ele>
        <time>2022-07-26T20:36:11.364Z</time>
      </trkpt>
      <trkpt lat="43.320030" lon="3.185982">
        <ele>53.718076</ele>
        <time>2022-07-26T20:36:18.333Z</time>
      </trkpt>
      <trkpt lat="43.320762" lon="3.186426">
        <ele>50.511439</ele>
        <time>2022-07-26T20:36:30.798Z</time>
      </trkpt>
      <trkpt lat="43.321152" lon="3.186653">
        <ele>48.814046</ele>
        <time>2022-07-26T20:36:37.225Z</time>
      </trkpt>
      <trkpt lat="43.321500" lon="3.186974">
        <ele>47.157659</ele>
        <time>2022-07-26T20:36:43.574Z</time>
      </trkpt>
      <trkpt lat="43.321910" lon="3.187517">
        <ele>44.910054</ele>
        <time>2022-07-26T20:36:52.293Z</time>
      </trkpt>
      <trkpt lat="43.322390" lon="3.188166">
        <ele>42.252091</ele>
        <time>2022-07-26T20:37:09.711Z</time>
      </trkpt>
      <trkpt lat="43.322869" lon="3.188816">
        <ele>40.599511</ele>
        <time>2022-07-26T20:37:27.126Z</time>
      </trkpt>
      <trkpt lat="43.323349" lon="3.189466">
        <ele>39.282209</ele>
        <time>2022-07-26T20:37:44.540Z</time>
      </trkpt>
      <trkpt lat="43.323429" lon="3.189479">
        <ele>39.124718</ele>
        <time>2022-07-26T20:37:45.951Z</time>
      </trkpt>
      <trkpt lat="43.323991" lon="3.189758">
        <ele>38.069215</ele>
        <time>2022-07-26T20:37:57.241Z</time>
      </trkpt>
      <trkpt lat="43.324754" lon="3.190344">
        <ele>38.076797</ele>
        <time>2022-07-26T20:38:15.595Z</time>
      </trkpt>
      <trkpt lat="43.326300" lon="3.191562">
        <ele>38.860317</ele>
        <time>2022-07-26T20:39:00.015Z</time>
      </trkpt>
      <trkpt lat="43.327808" lon="3.192776">
        <ele>39.969864</ele>
        <time>2022-07-26T20:39:46.328Z</time>
      </trkpt>
      <trkpt lat="43.328068" lon="3.192986">
        <ele>40.095430</ele>
        <time>2022-07-26T20:39:53.473Z</time>
      </trkpt>
      <trkpt lat="43.328849" lon="3.193428">
        <ele>39.895930</ele>
        <time>2022-07-26T20:40:11.875Z</time>
      </trkpt>
      <trkpt lat="43.329197" lon="3.193556">
        <ele>39.105313</ele>
        <time>2022-07-26T20:40:18.877Z</time>
      </trkpt>
      <trkpt lat="43.330368" lon="3.193865">
        <ele>36.488413</ele>
        <time>2022-07-26T20:40:38.609Z</time>
      </trkpt>
      <trkpt lat="43.330682" lon="3.193948">
        <ele>35.219702</ele>
        <time>2022-07-26T20:40:43.773Z</time>
      </trkpt>
      <trkpt lat="43.330722" lon="3.193956">
        <ele>35.050529</ele>
        <time>2022-07-26T20:40:44.399Z</time>
      </trkpt>
      <trkpt lat="43.331475" lon="3.194194">
        <ele>31.816802</ele>
        <time>2022-07-26T20:40:56.404Z</time>
      </trkpt>
      <trkpt lat="43.331980" lon="3.194443">
        <ele>29.571415</ele>
        <time>2022-07-26T20:41:04.612Z</time>
      </trkpt>
      <trkpt lat="43.332350" lon="3.194687">
        <ele>27.845145</ele>
        <time>2022-07-26T20:41:10.814Z</time>
      </trkpt>
      <trkpt lat="43.332884" lon="3.195201">
        <ele>25.093627</ele>
        <time>2022-07-26T20:41:20.924Z</time>
      </trkpt>
      <trkpt lat="43.333129" lon="3.195502">
        <ele>23.706741</ele>
        <time>2022-07-26T20:41:26.086Z</time>
      </trkpt>
      <trkpt lat="43.334585" lon="3.197721">
        <ele>15.674511</ele>
        <time>2022-07-26T20:42:00.344Z</time>
      </trkpt>
      <trkpt lat="43.334782" lon="3.198165">
        <ele>14.856875</ele>
        <time>2022-07-26T20:42:06.879Z</time>
      </trkpt>
      <trkpt lat="43.334814" lon="3.198450">
        <ele>14.710378</ele>
        <time>2022-07-26T20:42:10.687Z</time>
      </trkpt>
      <trkpt lat="43.334795" lon="3.198603">
        <ele>14.631528</ele>
        <time>2022-07-26T20:42:12.775Z</time>
      </trkpt>
      <trkpt lat="43.334882" lon="3.198837">
        <ele>14.498025</ele>
        <time>2022-07-26T20:42:16.481Z</time>
      </trkpt>
      <trkpt lat="43.335043" lon="3.198922">
        <ele>14.377572</ele>
        <time>2022-07-26T20:42:19.958Z</time>
      </trkpt>
      <trkpt lat="43.335208" lon="3.199035">
        <ele>14.248825</ele>
        <time>2022-07-26T20:42:23.870Z</time>
      </trkpt>
      <trkpt lat="43.335967" lon="3.200586">
        <ele>13.889737</ele>
        <time>2022-07-26T20:42:56.492Z</time>
      </trkpt>
      <trkpt lat="43.336682" lon="3.202225">
        <ele>14.226185</ele>
        <time>2022-07-26T20:43:28.681Z</time>
      </trkpt>
      <trkpt lat="43.336987" lon="3.202885">
        <ele>14.287671</ele>
        <time>2022-07-26T20:43:41.080Z</time>
      </trkpt>
      <trkpt lat="43.337150" lon="3.203197">
        <ele>14.317877</ele>
        <time>2022-07-26T20:43:47.371Z</time>
      </trkpt>
      <trkpt lat="43.337585" lon="3.204081">
        <ele>14.412864</ele>
        <time>2022-07-26T20:44:04.749Z</time>
      </trkpt>
      <trkpt lat="43.337728" lon="3.204273">
        <ele>14.507880</ele>
        <time>2022-07-26T20:44:09.650Z</time>
      </trkpt>
      <trkpt lat="43.337911" lon="3.204490">
        <ele>14.622759</ele>
        <time>2022-07-26T20:44:15.678Z</time>
      </trkpt>
      <trkpt lat="43.338238" lon="3.204933">
        <ele>14.840989</ele>
        <time>2022-07-26T20:44:27.616Z</time>
      </trkpt>
      <trkpt lat="43.338317" lon="3.205138">
        <ele>14.921202</ele>
        <time>2022-07-26T20:44:31.739Z</time>
      </trkpt>
      <trkpt lat="43.338331" lon="3.205308">
        <ele>14.980355</ele>
        <time>2022-07-26T20:44:34.704Z</time>
      </trkpt>
      <trkpt lat="43.338239" lon="3.205784">
        <ele>15.150644</ele>
        <time>2022-07-26T20:44:43.144Z</time>
      </trkpt>
      <trkpt lat="43.338135" lon="3.206259">
        <ele>15.203966</ele>
        <time>2022-07-26T20:44:51.515Z</time>
      </trkpt>
      <trkpt lat="43.338022" lon="3.206417">
        <ele>15.148535</ele>
        <time>2022-07-26T20:44:55.419Z</time>
      </trkpt>
      <trkpt lat="43.337581" lon="3.206508">
        <ele>14.995159</ele>
        <time>2022-07-26T20:45:05.502Z</time>
      </trkpt>
      <trkpt lat="43.337074" lon="3.206604">
        <ele>14.819135</ele>
        <time>2022-07-26T20:45:16.315Z</time>
      </trkpt>
      <trkpt lat="43.336600" lon="3.206683">
        <ele>14.654914</ele>
        <time>2022-07-26T20:45:25.618Z</time>
      </trkpt>
      <trkpt lat="43.336417" lon="3.206722">
        <ele>14.455026</ele>
        <time>2022-07-26T20:45:29.048Z</time>
      </trkpt>
      <trkpt lat="43.334792" lon="3.207072">
        <ele>12.127552</ele>
        <time>2022-07-26T20:45:58.958Z</time>
      </trkpt>
      <trkpt lat="43.334745" lon="3.207100">
        <ele>12.086063</ele>
        <time>2022-07-26T20:45:59.910Z</time>
      </trkpt>
      <trkpt lat="43.334484" lon="3.207256">
        <ele>12.042556</ele>
        <time>2022-07-26T20:46:05.320Z</time>
      </trkpt>
      <trkpt lat="43.334405" lon="3.207302">
        <ele>12.029441</ele>
        <time>2022-07-26T20:46:07.010Z</time>
      </trkpt>
      <trkpt lat="43.334152" lon="3.207572">
        <ele>11.980480</ele>
        <time>2022-07-26T20:46:13.418Z</time>
      </trkpt>
      <trkpt lat="43.334010" lon="3.207843">
        <ele>11.943342</ele>
        <time>2022-07-26T20:46:18.540Z</time>
      </trkpt>
      <trkpt lat="43.333714" lon="3.209136">
        <ele>11.949838</ele>
        <time>2022-07-26T20:46:42.687Z</time>
      </trkpt>
      <trkpt lat="43.333778" lon="3.209675">
        <ele>12.318405</ele>
        <time>2022-07-26T20:46:53.696Z</time>
      </trkpt>
      <trkpt lat="43.334004" lon="3.210257">
        <ele>12.763643</ele>
        <time>2022-07-26T20:47:06.779Z</time>
      </trkpt>
      <trkpt lat="43.334079" lon="3.210609">
        <ele>13.011176</ele>
        <time>2022-07-26T20:47:14.043Z</time>
      </trkpt>
      <trkpt lat="43.334064" lon="3.210775">
        <ele>13.124064</ele>
        <time>2022-07-26T20:47:17.000Z</time>
      </trkpt>
      <trkpt lat="43.334181" lon="3.210990">
        <ele>13.305273</ele>
        <time>2022-07-26T20:47:22.112Z</time>
      </trkpt>
      <trkpt lat="43.334296" lon="3.211019">
        <ele>13.413752</ele>
        <time>2022-07-26T20:47:24.810Z</time>
      </trkpt>
      <trkpt lat="43.334467" lon="3.211115">
        <ele>13.545065</ele>
        <time>2022-07-26T20:47:29.390Z</time>
      </trkpt>
      <trkpt lat="43.334668" lon="3.211386">
        <ele>13.703134</ele>
        <time>2022-07-26T20:47:35.824Z</time>
      </trkpt>
      <trkpt lat="43.335617" lon="3.212907">
        <ele>14.530774</ele>
        <time>2022-07-26T20:48:11.538Z</time>
      </trkpt>
      <trkpt lat="43.335888" lon="3.213385">
        <ele>14.860160</ele>
        <time>2022-07-26T20:48:22.530Z</time>
      </trkpt>
      <trkpt lat="43.336112" lon="3.213779">
        <ele>15.131948</ele>
        <time>2022-07-26T20:48:31.582Z</time>
      </trkpt>
      <trkpt lat="43.336140" lon="3.213956">
        <ele>15.230394</ele>
        <time>2022-07-26T20:48:35.083Z</time>
      </trkpt>
      <trkpt lat="43.336126" lon="3.214071">
        <ele>15.293764</ele>
        <time>2022-07-26T20:48:37.080Z</time>
      </trkpt>
      <trkpt lat="43.336176" lon="3.214216">
        <ele>15.380977</ele>
        <time>2022-07-26T20:48:40.069Z</time>
      </trkpt>
      <trkpt lat="43.336266" lon="3.214278">
        <ele>15.456197</ele>
        <time>2022-07-26T20:48:42.776Z</time>
      </trkpt>
      <trkpt lat="43.336250" lon="3.214644">
        <ele>15.655471</ele>
        <time>2022-07-26T20:48:49.611Z</time>
      </trkpt>
      <trkpt lat="43.336143" lon="3.215212">
        <ele>15.907967</ele>
        <time>2022-07-26T20:49:00.829Z</time>
      </trkpt>
      <trkpt lat="43.335633" lon="3.216524">
        <ele>16.324118</ele>
        <time>2022-07-26T20:49:26.585Z</time>
      </trkpt>
      <trkpt lat="43.335277" lon="3.218266">
        <ele>16.443124</ele>
        <time>2022-07-26T20:49:56.031Z</time>
      </trkpt>
      <trkpt lat="43.335167" lon="3.218876">
        <ele>16.392770</ele>
        <time>2022-07-26T20:50:06.229Z</time>
      </trkpt>
      <trkpt lat="43.334882" lon="3.221263">
        <ele>16.102160</ele>
        <time>2022-07-26T20:50:42.650Z</time>
      </trkpt>
      <trkpt lat="43.334834" lon="3.221663">
        <ele>16.045901</ele>
        <time>2022-07-26T20:50:49.071Z</time>
      </trkpt>
      <trkpt lat="43.334722" lon="3.221852">
        <ele>16.012070</ele>
        <time>2022-07-26T20:50:53.126Z</time>
      </trkpt>
      <trkpt lat="43.334639" lon="3.221970">
        <ele>15.989291</ele>
        <time>2022-07-26T20:50:55.998Z</time>
      </trkpt>
      <trkpt lat="43.334650" lon="3.222152">
        <ele>16.149951</ele>
        <time>2022-07-26T20:50:59.265Z</time>
      </trkpt>
      <trkpt lat="43.334678" lon="3.222201">
        <ele>16.208085</ele>
        <time>2022-07-26T20:51:00.325Z</time>
      </trkpt>
      <trkpt lat="43.334776" lon="3.222256">
        <ele>16.343854</ele>
        <time>2022-07-26T20:51:02.897Z</time>
      </trkpt>
      <trkpt lat="43.334970" lon="3.222293">
        <ele>16.595069</ele>
        <time>2022-07-26T20:51:08.059Z</time>
      </trkpt>
      <trkpt lat="43.335128" lon="3.222329">
        <ele>16.800490</ele>
        <time>2022-07-26T20:51:12.168Z</time>
      </trkpt>
      <trkpt lat="43.335815" lon="3.222526">
        <ele>17.700627</ele>
        <time>2022-07-26T20:51:32.521Z</time>
      </trkpt>
      <trkpt lat="43.335911" lon="3.222611">
        <ele>17.847085</ele>
        <time>2022-07-26T20:51:36.064Z</time>
      </trkpt>
      <trkpt lat="43.335974" lon="3.222714">
        <ele>17.972637</ele>
        <time>2022-07-26T20:51:39.040Z</time>
      </trkpt>
      <trkpt lat="43.335985" lon="3.222884">
        <ele>18.131859</ele>
        <time>2022-07-26T20:51:42.594Z</time>
      </trkpt>
      <trkpt lat="43.336062" lon="3.223002">
        <ele>18.279754</ele>
        <time>2022-07-26T20:51:46.202Z</time>
      </trkpt>
      <trkpt lat="43.336102" lon="3.223026">
        <ele>18.337483</ele>
        <time>2022-07-26T20:51:47.625Z</time>
      </trkpt>
      <trkpt lat="43.336185" lon="3.223163">
        <ele>18.510980</ele>
        <time>2022-07-26T20:51:51.701Z</time>
      </trkpt>
      <trkpt lat="43.336198" lon="3.223249">
        <ele>18.596451</ele>
        <time>2022-07-26T20:51:53.547Z</time>
      </trkpt>
      <trkpt lat="43.336169" lon="3.223531">
        <ele>18.873583</ele>
        <time>2022-07-26T20:51:59.916Z</time>
      </trkpt>
      <trkpt lat="43.336219" lon="3.224348">
        <ele>19.671381</ele>
        <time>2022-07-26T20:52:16.920Z</time>
      </trkpt>
      <trkpt lat="43.336256" lon="3.224956">
        <ele>20.265067</ele>
        <time>2022-07-26T20:52:28.868Z</time>
      </trkpt>
      <trkpt lat="43.336288" lon="3.225143">
        <ele>20.451997</ele>
        <time>2022-07-26T20:52:32.550Z</time>
      </trkpt>
      <trkpt lat="43.336288" lon="3.225165">
        <ele>20.473404</ele>
        <time>2022-07-26T20:52:32.955Z</time>
      </trkpt>
      <trkpt lat="43.336121" lon="3.225717">
        <ele>20.646310</ele>
        <time>2022-07-26T20:52:43.351Z</time>
      </trkpt>
      <trkpt lat="43.335602" lon="3.226900">
        <ele>20.437264</ele>
        <time>2022-07-26T20:53:04.501Z</time>
      </trkpt>
      <trkpt lat="43.335482" lon="3.227111">
        <ele>20.396735</ele>
        <time>2022-07-26T20:53:08.352Z</time>
      </trkpt>
      <trkpt lat="43.335120" lon="3.227743">
        <ele>20.126353</ele>
        <time>2022-07-26T20:53:20.238Z</time>
      </trkpt>
      <trkpt lat="43.335008" lon="3.227862">
        <ele>20.012941</ele>
        <time>2022-07-26T20:53:23.121Z</time>
      </trkpt>
      <trkpt lat="43.334971" lon="3.227865">
        <ele>19.983244</ele>
        <time>2022-07-26T20:53:23.876Z</time>
      </trkpt>
      <trkpt lat="43.334863" lon="3.228009">
        <ele>19.862701</ele>
        <time>2022-07-26T20:53:26.894Z</time>
      </trkpt>
      <trkpt lat="43.334864" lon="3.228099">
        <ele>19.810245</ele>
        <time>2022-07-26T20:53:28.223Z</time>
      </trkpt>
      <trkpt lat="43.334767" lon="3.228346">
        <ele>19.646658</ele>
        <time>2022-07-26T20:53:32.268Z</time>
      </trkpt>
      <trkpt lat="43.334206" lon="3.229311">
        <ele>18.926716</ele>
        <time>2022-07-26T20:53:49.719Z</time>
      </trkpt>
      <trkpt lat="43.333564" lon="3.231207">
        <ele>17.538485</ele>
        <time>2022-07-26T20:54:19.425Z</time>
      </trkpt>
      <trkpt lat="43.333542" lon="3.231647">
        <ele>17.244494</ele>
        <time>2022-07-26T20:54:25.592Z</time>
      </trkpt>
      <trkpt lat="43.333473" lon="3.231800">
        <ele>17.138562</ele>
        <time>2022-07-26T20:54:28.129Z</time>
      </trkpt>
      <trkpt lat="43.333288" lon="3.232090">
        <ele>16.913397</ele>
        <time>2022-07-26T20:54:33.590Z</time>
      </trkpt>
      <trkpt lat="43.332576" lon="3.234338">
        <ele>15.566225</ele>
        <time>2022-07-26T20:55:09.009Z</time>
      </trkpt>
      <trkpt lat="43.331947" lon="3.236287">
        <ele>14.723093</ele>
        <time>2022-07-26T20:55:40.487Z</time>
      </trkpt>
      <trkpt lat="43.331528" lon="3.237403">
        <ele>14.615882</ele>
        <time>2022-07-26T20:56:00.025Z</time>
      </trkpt>
      <trkpt lat="43.331463" lon="3.237716">
        <ele>14.588095</ele>
        <time>2022-07-26T20:56:05.372Z</time>
      </trkpt>
      <trkpt lat="43.331350" lon="3.237912">
        <ele>14.566745</ele>
        <time>2022-07-26T20:56:09.418Z</time>
      </trkpt>
      <trkpt lat="43.331286" lon="3.238104">
        <ele>14.548715</ele>
        <time>2022-07-26T20:56:13.002Z</time>
      </trkpt>
      <trkpt lat="43.331223" lon="3.238333">
        <ele>14.531173</ele>
        <time>2022-07-26T20:56:17.121Z</time>
      </trkpt>
      <trkpt lat="43.331092" lon="3.238676">
        <ele>14.644341</ele>
        <time>2022-07-26T20:56:23.779Z</time>
      </trkpt>
      <trkpt lat="43.330778" lon="3.239499">
        <ele>14.915820</ele>
        <time>2022-07-26T20:56:39.725Z</time>
      </trkpt>
      <trkpt lat="43.330463" lon="3.240142">
        <ele>15.142281</ele>
        <time>2022-07-26T20:56:53.437Z</time>
      </trkpt>
      <trkpt lat="43.330127" lon="3.240666">
        <ele>15.376866</ele>
        <time>2022-07-26T20:57:05.932Z</time>
      </trkpt>
      <trkpt lat="43.329184" lon="3.241887">
        <ele>16.063512</ele>
        <time>2022-07-26T20:57:37.197Z</time>
      </trkpt>
      <trkpt lat="43.328119" lon="3.243287">
        <ele>17.273808</ele>
        <time>2022-07-26T20:58:13.926Z</time>
      </trkpt>
      <trkpt lat="43.326954" lon="3.244925">
        <ele>19.043530</ele>
        <time>2022-07-26T20:58:59.887Z</time>
      </trkpt>
      <trkpt lat="43.326366" lon="3.245801">
        <ele>19.842540</ele>
        <time>2022-07-26T20:59:23.092Z</time>
      </trkpt>
      <trkpt lat="43.326083" lon="3.246116">
        <ele>19.744701</ele>
        <time>2022-07-26T20:59:31.570Z</time>
      </trkpt>
      <trkpt lat="43.325845" lon="3.246316">
        <ele>19.669751</ele>
        <time>2022-07-26T20:59:37.874Z</time>
      </trkpt>
      <trkpt lat="43.325676" lon="3.246401">
        <ele>19.621399</ele>
        <time>2022-07-26T20:59:41.686Z</time>
      </trkpt>
      <trkpt lat="43.325393" lon="3.246544">
        <ele>19.540386</ele>
        <time>2022-07-26T20:59:48.021Z</time>
      </trkpt>
      <trkpt lat="43.325011" lon="3.246633">
        <ele>19.436283</ele>
        <time>2022-07-26T20:59:55.662Z</time>
      </trkpt>
      <trkpt lat="43.324690" lon="3.246771">
        <ele>19.045058</ele>
        <time>2022-07-26T21:00:01.766Z</time>
      </trkpt>
      <trkpt lat="43.324433" lon="3.246974">
        <ele>18.505534</ele>
        <time>2022-07-26T21:00:06.994Z</time>
      </trkpt>
      <trkpt lat="43.324129" lon="3.247527">
        <ele>17.587710</ele>
        <time>2022-07-26T21:00:15.671Z</time>
      </trkpt>
      <trkpt lat="43.324011" lon="3.247890">
        <ele>17.061231</ele>
        <time>2022-07-26T21:00:20.713Z</time>
      </trkpt>
      <trkpt lat="43.323872" lon="3.248343">
        <ele>16.410205</ele>
        <time>2022-07-26T21:00:27.086Z</time>
      </trkpt>
      <trkpt lat="43.323731" lon="3.249037">
        <ele>15.724007</ele>
        <time>2022-07-26T21:00:36.744Z</time>
      </trkpt>
      <trkpt lat="43.323688" lon="3.249265">
        <ele>15.537209</ele>
        <time>2022-07-26T21:00:39.949Z</time>
      </trkpt>
      <trkpt lat="43.323623" lon="3.250004">
        <ele>14.946859</ele>
        <time>2022-07-26T21:00:50.037Z</time>
      </trkpt>
      <trkpt lat="43.323619" lon="3.251461">
        <ele>14.054635</ele>
        <time>2022-07-26T21:01:11.512Z</time>
      </trkpt>
      <trkpt lat="43.323775" lon="3.260529">
        <ele>12.218546</ele>
        <time>2022-07-26T21:03:31.244Z</time>
      </trkpt>
      <trkpt lat="43.323772" lon="3.261326">
        <ele>12.319252</ele>
        <time>2022-07-26T21:03:45.050Z</time>
      </trkpt>
      <trkpt lat="43.323678" lon="3.262532">
        <ele>12.693669</ele>
        <time>2022-07-26T21:04:06.412Z</time>
      </trkpt>
      <trkpt lat="43.323223" lon="3.264735">
        <ele>13.284618</ele>
        <time>2022-07-26T21:04:46.314Z</time>
      </trkpt>
      <trkpt lat="43.322508" lon="3.268026">
        <ele>13.545813</ele>
        <time>2022-07-26T21:05:43.600Z</time>
      </trkpt>
      <trkpt lat="43.321407" lon="3.272988">
        <ele>10.374803</ele>
        <time>2022-07-26T21:06:57.140Z</time>
      </trkpt>
      <trkpt lat="43.321297" lon="3.273478">
        <ele>10.128212</ele>
        <time>2022-07-26T21:07:04.481Z</time>
      </trkpt>
      <trkpt lat="43.321281" lon="3.273555">
        <ele>10.089704</ele>
        <time>2022-07-26T21:07:05.612Z</time>
      </trkpt>
      <trkpt lat="43.320653" lon="3.276717">
        <ele>8.598693</ele>
        <time>2022-07-26T21:07:54.165Z</time>
      </trkpt>
      <trkpt lat="43.320549" lon="3.277754">
        <ele>8.179527</ele>
        <time>2022-07-26T21:08:09.493Z</time>
      </trkpt>
      <trkpt lat="43.320555" lon="3.279154">
        <ele>7.800495</ele>
        <time>2022-07-26T21:08:30.680Z</time>
      </trkpt>
      <trkpt lat="43.320511" lon="3.279356">
        <ele>7.743408</ele>
        <time>2022-07-26T21:08:33.925Z</time>
      </trkpt>
      <trkpt lat="43.320450" lon="3.279451">
        <ele>7.709104</ele>
        <time>2022-07-26T21:08:35.837Z</time>
      </trkpt>
      <trkpt lat="43.320415" lon="3.279665">
        <ele>7.649721</ele>
        <time>2022-07-26T21:08:39.226Z</time>
      </trkpt>
      <trkpt lat="43.320439" lon="3.279776">
        <ele>7.618371</ele>
        <time>2022-07-26T21:08:41.037Z</time>
      </trkpt>
      <trkpt lat="43.320528" lon="3.279912">
        <ele>7.568847</ele>
        <time>2022-07-26T21:08:43.866Z</time>
      </trkpt>
      <trkpt lat="43.320565" lon="3.280143">
        <ele>7.531058</ele>
        <time>2022-07-26T21:08:47.582Z</time>
      </trkpt>
      <trkpt lat="43.320687" lon="3.281384">
        <ele>7.353818</ele>
        <time>2022-07-26T21:09:07.375Z</time>
      </trkpt>
      <trkpt lat="43.320756" lon="3.282899">
        <ele>7.133410</ele>
        <time>2022-07-26T21:09:30.917Z</time>
      </trkpt>
      <trkpt lat="43.320766" lon="3.283100">
        <ele>7.102658</ele>
        <time>2022-07-26T21:09:34.095Z</time>
      </trkpt>
      <trkpt lat="43.320808" lon="3.284300">
        <ele>6.919280</ele>
        <time>2022-07-26T21:09:52.795Z</time>
      </trkpt>
      <trkpt lat="43.320901" lon="3.287491">
        <ele>6.401389</ele>
        <time>2022-07-26T21:10:42.871Z</time>
      </trkpt>
      <trkpt lat="43.320873" lon="3.287644">
        <ele>6.369293</ele>
        <time>2022-07-26T21:10:45.209Z</time>
      </trkpt>
      <trkpt lat="43.320777" lon="3.287858">
        <ele>6.318146</ele>
        <time>2022-07-26T21:10:48.935Z</time>
      </trkpt>
      <trkpt lat="43.320820" lon="3.288041">
        <ele>6.279023</ele>
        <time>2022-07-26T21:10:51.797Z</time>
      </trkpt>
      <trkpt lat="43.320896" lon="3.288118">
        <ele>6.252622</ele>
        <time>2022-07-26T21:10:53.687Z</time>
      </trkpt>
      <trkpt lat="43.320943" lon="3.288261">
        <ele>6.220699</ele>
        <time>2022-07-26T21:10:55.966Z</time>
      </trkpt>
      <trkpt lat="43.321004" lon="3.288984">
        <ele>6.072627</ele>
        <time>2022-07-26T21:11:06.819Z</time>
      </trkpt>
      <trkpt lat="43.321054" lon="3.290598">
        <ele>6.090789</ele>
        <time>2022-07-26T21:11:33.984Z</time>
      </trkpt>
      <trkpt lat="43.321055" lon="3.290642">
        <ele>6.098571</ele>
        <time>2022-07-26T21:11:34.775Z</time>
      </trkpt>
      <trkpt lat="43.320988" lon="3.291384">
        <ele>6.230734</ele>
        <time>2022-07-26T21:11:47.571Z</time>
      </trkpt>
      <trkpt lat="43.320871" lon="3.291665">
        <ele>6.287963</ele>
        <time>2022-07-26T21:11:53.250Z</time>
      </trkpt>
      <trkpt lat="43.320563" lon="3.291770">
        <ele>6.365063</ele>
        <time>2022-07-26T21:12:00.404Z</time>
      </trkpt>
      <trkpt lat="43.320335" lon="3.292012">
        <ele>6.330179</ele>
        <time>2022-07-26T21:12:06.890Z</time>
      </trkpt>
      <trkpt lat="43.320115" lon="3.292459">
        <ele>6.279515</ele>
        <time>2022-07-26T21:12:16.026Z</time>
      </trkpt>
      <trkpt lat="43.320032" lon="3.292736">
        <ele>6.251392</ele>
        <time>2022-07-26T21:12:20.755Z</time>
      </trkpt>
      <trkpt lat="43.319996" lon="3.293028">
        <ele>6.223589</ele>
        <time>2022-07-26T21:12:25.516Z</time>
      </trkpt>
      <trkpt lat="43.320025" lon="3.293360">
        <ele>6.192197</ele>
        <time>2022-07-26T21:12:30.465Z</time>
      </trkpt>
      <trkpt lat="43.320144" lon="3.293672">
        <ele>6.159126</ele>
        <time>2022-07-26T21:12:35.668Z</time>
      </trkpt>
      <trkpt lat="43.320263" lon="3.294164">
        <ele>6.103450</ele>
        <time>2022-07-26T21:12:43.438Z</time>
      </trkpt>
      <trkpt lat="43.320243" lon="3.294553">
        <ele>6.056164</ele>
        <time>2022-07-26T21:12:49.443Z</time>
      </trkpt>
      <trkpt lat="43.319483" lon="3.297217">
        <ele>5.640944</ele>
        <time>2022-07-26T21:13:35.342Z</time>
      </trkpt>
      <trkpt lat="43.319360" lon="3.297649">
        <ele>5.554104</ele>
        <time>2022-07-26T21:13:42.400Z</time>
      </trkpt>
      <trkpt lat="43.318585" lon="3.300434">
        <ele>5.159699</ele>
        <time>2022-07-26T21:14:27.312Z</time>
      </trkpt>
      <trkpt lat="43.317739" lon="3.303538">
        <ele>6.811112</ele>
        <time>2022-07-26T21:15:29.235Z</time>
      </trkpt>
      <trkpt lat="43.317326" lon="3.305268">
        <ele>7.960603</ele>
        <time>2022-07-26T21:16:03.935Z</time>
      </trkpt>
      <trkpt lat="43.316305" lon="3.309746">
        <ele>9.806821</ele>
        <time>2022-07-26T21:17:26.558Z</time>
      </trkpt>
      <trkpt lat="43.316280" lon="3.309852">
        <ele>9.847578</ele>
        <time>2022-07-26T21:17:28.869Z</time>
      </trkpt>
      <trkpt lat="43.315861" lon="3.311000">
        <ele>10.177390</ele>
        <time>2022-07-26T21:17:51.283Z</time>
      </trkpt>
      <trkpt lat="43.315013" lon="3.312737">
        <ele>10.407279</ele>
        <time>2022-07-26T21:18:26.545Z</time>
      </trkpt>
      <trkpt lat="43.314854" lon="3.313144">
        <ele>10.314652</ele>
        <time>2022-07-26T21:18:33.744Z</time>
      </trkpt>
      <trkpt lat="43.314588" lon="3.314135">
        <ele>10.102855</ele>
        <time>2022-07-26T21:18:49.382Z</time>
      </trkpt>
      <trkpt lat="43.314464" lon="3.314785">
        <ele>10.076093</ele>
        <time>2022-07-26T21:18:59.347Z</time>
      </trkpt>
      <trkpt lat="43.314337" lon="3.315926">
        <ele>10.439594</ele>
        <time>2022-07-26T21:19:17.490Z</time>
      </trkpt>
      <trkpt lat="43.314220" lon="3.317064">
        <ele>10.870636</ele>
        <time>2022-07-26T21:19:39.253Z</time>
      </trkpt>
      <trkpt lat="43.314126" lon="3.318179">
        <ele>13.113902</ele>
        <time>2022-07-26T21:20:05.404Z</time>
      </trkpt>
      <trkpt lat="43.313747" lon="3.322116">
        <ele>21.509494</ele>
        <time>2022-07-26T21:21:48.828Z</time>
      </trkpt>
      <trkpt lat="43.313566" lon="3.324168">
        <ele>22.795551</ele>
        <time>2022-07-26T21:22:26.152Z</time>
      </trkpt>
      <trkpt lat="43.313508" lon="3.325265">
        <ele>22.487784</ele>
        <time>2022-07-26T21:22:42.038Z</time>
      </trkpt>
      <trkpt lat="43.313109" lon="3.329627">
        <ele>20.090319</ele>
        <time>2022-07-26T21:23:45.191Z</time>
      </trkpt>
      <trkpt lat="43.313146" lon="3.331219">
        <ele>19.184403</ele>
        <time>2022-07-26T21:24:08.023Z</time>
      </trkpt>
      <trkpt lat="43.313220" lon="3.333236">
        <ele>18.195420</ele>
        <time>2022-07-26T21:24:37.788Z</time>
      </trkpt>
      <trkpt lat="43.313318" lon="3.335597">
        <ele>16.868593</ele>
        <time>2022-07-26T21:25:12.459Z</time>
      </trkpt>
      <trkpt lat="43.313329" lon="3.335857">
        <ele>16.703548</ele>
        <time>2022-07-26T21:25:15.944Z</time>
      </trkpt>
      <trkpt lat="43.313334" lon="3.337122">
        <ele>15.820829</ele>
        <time>2022-07-26T21:25:33.578Z</time>
      </trkpt>
      <trkpt lat="43.313291" lon="3.337360">
        <ele>15.618641</ele>
        <time>2022-07-26T21:25:36.797Z</time>
      </trkpt>
      <trkpt lat="43.313221" lon="3.337462">
        <ele>15.503037</ele>
        <time>2022-07-26T21:25:38.822Z</time>
      </trkpt>
      <trkpt lat="43.313201" lon="3.337599">
        <ele>15.387829</ele>
        <time>2022-07-26T21:25:40.771Z</time>
      </trkpt>
      <trkpt lat="43.313306" lon="3.337812">
        <ele>15.175702</ele>
        <time>2022-07-26T21:25:44.169Z</time>
      </trkpt>
      <trkpt lat="43.313353" lon="3.338058">
        <ele>14.966001</ele>
        <time>2022-07-26T21:25:47.794Z</time>
      </trkpt>
      <trkpt lat="43.313456" lon="3.340292">
        <ele>13.453293</ele>
        <time>2022-07-26T21:26:19.077Z</time>
      </trkpt>
      <trkpt lat="43.313639" lon="3.345644">
        <ele>10.644029</ele>
        <time>2022-07-26T21:27:37.308Z</time>
      </trkpt>
      <trkpt lat="43.313673" lon="3.346229">
        <ele>10.374982</ele>
        <time>2022-07-26T21:27:45.912Z</time>
      </trkpt>
      <trkpt lat="43.313729" lon="3.347485">
        <ele>10.139684</ele>
        <time>2022-07-26T21:28:04.879Z</time>
      </trkpt>
      <trkpt lat="43.313768" lon="3.348690">
        <ele>9.992517</ele>
        <time>2022-07-26T21:28:24.142Z</time>
      </trkpt>
      <trkpt lat="43.313782" lon="3.349138">
        <ele>10.008755</ele>
        <time>2022-07-26T21:28:31.620Z</time>
      </trkpt>
      <trkpt lat="43.313964" lon="3.354761">
        <ele>11.424741</ele>
        <time>2022-07-26T21:30:09.177Z</time>
      </trkpt>
      <trkpt lat="43.314050" lon="3.356986">
        <ele>11.610990</ele>
        <time>2022-07-26T21:30:46.739Z</time>
      </trkpt>
      <trkpt lat="43.314099" lon="3.359971">
        <ele>10.643711</ele>
        <time>2022-07-26T21:31:31.219Z</time>
      </trkpt>
      <trkpt lat="43.314032" lon="3.360346">
        <ele>10.449276</ele>
        <time>2022-07-26T21:31:36.754Z</time>
      </trkpt>
      <trkpt lat="43.313978" lon="3.360436">
        <ele>10.390537</ele>
        <time>2022-07-26T21:31:38.355Z</time>
      </trkpt>
      <trkpt lat="43.313974" lon="3.360644">
        <ele>10.285764</ele>
        <time>2022-07-26T21:31:41.340Z</time>
      </trkpt>
      <trkpt lat="43.314016" lon="3.360719">
        <ele>10.238109</ele>
        <time>2022-07-26T21:31:42.733Z</time>
      </trkpt>
      <trkpt lat="43.314103" lon="3.360905">
        <ele>10.126768</ele>
        <time>2022-07-26T21:31:45.771Z</time>
      </trkpt>
      <trkpt lat="43.314125" lon="3.361072">
        <ele>10.041311</ele>
        <time>2022-07-26T21:31:48.220Z</time>
      </trkpt>
      <trkpt lat="43.314278" lon="3.364182">
        <ele>8.989951</ele>
        <time>2022-07-26T21:32:33.994Z</time>
      </trkpt>
      <trkpt lat="43.314532" lon="3.371511">
        <ele>11.792031</ele>
        <time>2022-07-26T21:34:44.317Z</time>
      </trkpt>
      <trkpt lat="43.314562" lon="3.372407">
        <ele>12.697497</ele>
        <time>2022-07-26T21:35:03.307Z</time>
      </trkpt>
      <trkpt lat="43.314605" lon="3.373403">
        <ele>13.704723</ele>
        <time>2022-07-26T21:35:24.137Z</time>
      </trkpt>
      <trkpt lat="43.314628" lon="3.374149">
        <ele>14.208848</ele>
        <time>2022-07-26T21:35:39.554Z</time>
      </trkpt>
      <trkpt lat="43.314627" lon="3.374411">
        <ele>14.366537</ele>
        <time>2022-07-26T21:35:44.717Z</time>
      </trkpt>
      <trkpt lat="43.314656" lon="3.376553">
        <ele>15.628185</ele>
        <time>2022-07-26T21:36:22.263Z</time>
      </trkpt>
      <trkpt lat="43.314699" lon="3.377835">
        <ele>16.335194</ele>
        <time>2022-07-26T21:36:44.941Z</time>
      </trkpt>
      <trkpt lat="43.314755" lon="3.379628">
        <ele>17.981354</ele>
        <time>2022-07-26T21:37:21.306Z</time>
      </trkpt>
      <trkpt lat="43.314802" lon="3.380762">
        <ele>19.256067</ele>
        <time>2022-07-26T21:37:46.047Z</time>
      </trkpt>
      <trkpt lat="43.314866" lon="3.381245">
        <ele>19.481908</ele>
        <time>2022-07-26T21:37:56.358Z</time>
      </trkpt>
      <trkpt lat="43.314859" lon="3.382560">
        <ele>19.558042</ele>
        <time>2022-07-26T21:38:20.258Z</time>
      </trkpt>
      <trkpt lat="43.314786" lon="3.383164">
        <ele>19.593489</ele>
        <time>2022-07-26T21:38:29.393Z</time>
      </trkpt>
      <trkpt lat="43.313337" lon="3.389616">
        <ele>8.162784</ele>
        <time>2022-07-26T21:39:51.782Z</time>
      </trkpt>
      <trkpt lat="43.311832" lon="3.396270">
        <ele>5.240440</ele>
        <time>2022-07-26T21:41:36.973Z</time>
      </trkpt>
      <trkpt lat="43.311383" lon="3.397837">
        <ele>5.184974</ele>
        <time>2022-07-26T21:42:04.611Z</time>
      </trkpt>
      <trkpt lat="43.311157" lon="3.398318">
        <ele>5.326707</ele>
        <time>2022-07-26T21:42:14.387Z</time>
      </trkpt>
      <trkpt lat="43.310561" lon="3.399253">
        <ele>5.634410</ele>
        <time>2022-07-26T21:42:35.980Z</time>
      </trkpt>
      <trkpt lat="43.310353" lon="3.399717">
        <ele>5.776479</ele>
        <time>2022-07-26T21:42:45.571Z</time>
      </trkpt>
      <trkpt lat="43.310271" lon="3.400390">
        <ele>5.967392</ele>
        <time>2022-07-26T21:42:57.616Z</time>
      </trkpt>
      <trkpt lat="43.310390" lon="3.401029">
        <ele>6.151933</ele>
        <time>2022-07-26T21:43:09.292Z</time>
      </trkpt>
      <trkpt lat="43.310561" lon="3.401348">
        <ele>6.262786</ele>
        <time>2022-07-26T21:43:16.046Z</time>
      </trkpt>
      <trkpt lat="43.310816" lon="3.401685">
        <ele>6.398812</ele>
        <time>2022-07-26T21:43:24.128Z</time>
      </trkpt>
      <trkpt lat="43.311208" lon="3.402105">
        <ele>6.379786</ele>
        <time>2022-07-26T21:43:35.337Z</time>
      </trkpt>
      <trkpt lat="43.311403" lon="3.402427">
        <ele>6.363154</ele>
        <time>2022-07-26T21:43:42.115Z</time>
      </trkpt>
      <trkpt lat="43.311443" lon="3.402512">
        <ele>6.359136</ele>
        <time>2022-07-26T21:43:43.726Z</time>
      </trkpt>
      <trkpt lat="43.311623" lon="3.403107">
        <ele>6.333554</ele>
        <time>2022-07-26T21:43:53.969Z</time>
      </trkpt>
      <trkpt lat="43.311807" lon="3.404305">
        <ele>6.286678</ele>
        <time>2022-07-26T21:44:13.083Z</time>
      </trkpt>
      <trkpt lat="43.312190" lon="3.406952">
        <ele>6.406980</ele>
        <time>2022-07-26T21:44:56.728Z</time>
      </trkpt>
      <trkpt lat="43.312227" lon="3.407129">
        <ele>6.450602</ele>
        <time>2022-07-26T21:44:59.901Z</time>
      </trkpt>
      <trkpt lat="43.312387" lon="3.407452">
        <ele>6.543158</ele>
        <time>2022-07-26T21:45:06.741Z</time>
      </trkpt>
      <trkpt lat="43.312368" lon="3.407648">
        <ele>6.589994</ele>
        <time>2022-07-26T21:45:10.189Z</time>
      </trkpt>
      <trkpt lat="43.312325" lon="3.407724">
        <ele>6.612798</ele>
        <time>2022-07-26T21:45:11.922Z</time>
      </trkpt>
      <trkpt lat="43.312329" lon="3.407851">
        <ele>6.642909</ele>
        <time>2022-07-26T21:45:14.140Z</time>
      </trkpt>
      <trkpt lat="43.312243" lon="3.408085">
        <ele>6.705005</ele>
        <time>2022-07-26T21:45:18.898Z</time>
      </trkpt>
      <trkpt lat="43.312289" lon="3.408109">
        <ele>6.721023</ele>
        <time>2022-07-26T21:45:20.455Z</time>
      </trkpt>
      <trkpt lat="43.312322" lon="3.408126">
        <ele>6.732496</ele>
        <time>2022-07-26T21:45:21.601Z</time>
      </trkpt>
      <trkpt lat="43.312434" lon="3.408928">
        <ele>7.001756</ele>
        <time>2022-07-26T21:45:40.245Z</time>
      </trkpt>
      <trkpt lat="43.313113" lon="3.413795">
        <ele>9.470553</ele>
        <time>2022-07-26T21:47:33.437Z</time>
      </trkpt>
      <trkpt lat="43.313029" lon="3.413970">
        <ele>9.737969</ele>
        <time>2022-07-26T21:47:38.968Z</time>
      </trkpt>
      <trkpt lat="43.313034" lon="3.414032">
        <ele>9.817537</ele>
        <time>2022-07-26T21:47:40.580Z</time>
      </trkpt>
      <trkpt lat="43.313106" lon="3.414019">
        <ele>9.944841</ele>
        <time>2022-07-26T21:47:43.226Z</time>
      </trkpt>
      <trkpt lat="43.313159" lon="3.414108">
        <ele>10.091538</ele>
        <time>2022-07-26T21:47:45.753Z</time>
      </trkpt>
      <trkpt lat="43.313203" lon="3.414114">
        <ele>10.169051</ele>
        <time>2022-07-26T21:47:47.069Z</time>
      </trkpt>
      <trkpt lat="43.313229" lon="3.414222">
        <ele>10.314154</ele>
        <time>2022-07-26T21:47:49.617Z</time>
      </trkpt>
      <trkpt lat="43.313299" lon="3.414503">
        <ele>10.693005</ele>
        <time>2022-07-26T21:47:56.148Z</time>
      </trkpt>
      <trkpt lat="43.313400" lon="3.415039">
        <ele>11.399248</ele>
        <time>2022-07-26T21:48:08.640Z</time>
      </trkpt>
      <trkpt lat="43.313426" lon="3.415178">
        <ele>11.582312</ele>
        <time>2022-07-26T21:48:12.010Z</time>
      </trkpt>
      <trkpt lat="43.313461" lon="3.415424">
        <ele>11.902037</ele>
        <time>2022-07-26T21:48:17.847Z</time>
      </trkpt>
      <trkpt lat="43.313502" lon="3.415708">
        <ele>12.282846</ele>
        <time>2022-07-26T21:48:24.824Z</time>
      </trkpt>
      <trkpt lat="43.313545" lon="3.416033">
        <ele>12.719015</ele>
        <time>2022-07-26T21:48:32.859Z</time>
      </trkpt>
      <trkpt lat="43.313671" lon="3.416912">
        <ele>13.901957</ele>
        <time>2022-07-26T21:48:53.080Z</time>
      </trkpt>
      <trkpt lat="43.313704" lon="3.417127">
        <ele>14.192091</ele>
        <time>2022-07-26T21:48:57.860Z</time>
      </trkpt>
      <trkpt lat="43.313728" lon="3.417299">
        <ele>14.423338</ele>
        <time>2022-07-26T21:49:01.437Z</time>
      </trkpt>
      <trkpt lat="43.313815" lon="3.417910">
        <ele>15.195446</ele>
        <time>2022-07-26T21:49:13.463Z</time>
      </trkpt>
      <trkpt lat="43.313840" lon="3.418060">
        <ele>15.123080</ele>
        <time>2022-07-26T21:49:16.163Z</time>
      </trkpt>
      <trkpt lat="43.313847" lon="3.418101">
        <ele>15.103275</ele>
        <time>2022-07-26T21:49:16.861Z</time>
      </trkpt>
      <trkpt lat="43.313865" lon="3.418472">
        <ele>14.928419</ele>
        <time>2022-07-26T21:49:23.055Z</time>
      </trkpt>
      <trkpt lat="43.313958" lon="3.418808">
        <ele>14.759364</ele>
        <time>2022-07-26T21:49:28.731Z</time>
      </trkpt>
      <trkpt lat="43.313939" lon="3.418864">
        <ele>14.730307</ele>
        <time>2022-07-26T21:49:29.629Z</time>
      </trkpt>
      <trkpt lat="43.313999" lon="3.418994">
        <ele>14.657910</ele>
        <time>2022-07-26T21:49:31.900Z</time>
      </trkpt>
      <trkpt lat="43.313977" lon="3.419756">
        <ele>14.299287</ele>
        <time>2022-07-26T21:49:42.584Z</time>
      </trkpt>
      <trkpt lat="43.313977" lon="3.419817">
        <ele>14.270601</ele>
        <time>2022-07-26T21:49:43.371Z</time>
      </trkpt>
      <trkpt lat="43.314000" lon="3.422198">
        <ele>11.433487</ele>
        <time>2022-07-26T21:50:13.919Z</time>
      </trkpt>
      <trkpt lat="43.314010" lon="3.422820">
        <ele>10.598246</ele>
        <time>2022-07-26T21:50:21.953Z</time>
      </trkpt>
      <trkpt lat="43.314033" lon="3.424525">
        <ele>8.845074</ele>
        <time>2022-07-26T21:50:44.500Z</time>
      </trkpt>
      <trkpt lat="43.314031" lon="3.424898">
        <ele>8.461591</ele>
        <time>2022-07-26T21:50:49.632Z</time>
      </trkpt>
      <trkpt lat="43.314043" lon="3.426367">
        <ele>7.694943</ele>
        <time>2022-07-26T21:51:11.097Z</time>
      </trkpt>
      <trkpt lat="43.314047" lon="3.426757">
        <ele>7.550811</ele>
        <time>2022-07-26T21:51:17.212Z</time>
      </trkpt>
      <trkpt lat="43.314061" lon="3.428067">
        <ele>7.079334</ele>
        <time>2022-07-26T21:51:37.087Z</time>
      </trkpt>
      <trkpt lat="43.314066" lon="3.428883">
        <ele>6.806688</ele>
        <time>2022-07-26T21:51:50.109Z</time>
      </trkpt>
      <trkpt lat="43.314074" lon="3.429536">
        <ele>6.588482</ele>
        <time>2022-07-26T21:52:00.034Z</time>
      </trkpt>
      <trkpt lat="43.314109" lon="3.431288">
        <ele>5.836008</ele>
        <time>2022-07-26T21:52:25.009Z</time>
      </trkpt>
      <trkpt lat="43.314119" lon="3.432173">
        <ele>5.406877</ele>
        <time>2022-07-26T21:52:38.032Z</time>
      </trkpt>
      <trkpt lat="43.314168" lon="3.436856">
        <ele>3.830575</ele>
        <time>2022-07-26T21:53:48.949Z</time>
      </trkpt>
      <trkpt lat="43.314173" lon="3.437154">
        <ele>3.729523</ele>
        <time>2022-07-26T21:53:53.398Z</time>
      </trkpt>
      <trkpt lat="43.314177" lon="3.437514">
        <ele>3.607465</ele>
        <time>2022-07-26T21:53:58.595Z</time>
      </trkpt>
      <trkpt lat="43.314207" lon="3.439771">
        <ele>2.835733</ele>
        <time>2022-07-26T21:54:31.977Z</time>
      </trkpt>
      <trkpt lat="43.314213" lon="3.440218">
        <ele>2.763673</ele>
        <time>2022-07-26T21:54:38.976Z</time>
      </trkpt>
      <trkpt lat="43.314220" lon="3.440836">
        <ele>2.884557</ele>
        <time>2022-07-26T21:54:49.074Z</time>
      </trkpt>
      <trkpt lat="43.314232" lon="3.441936">
        <ele>3.099721</ele>
        <time>2022-07-26T21:55:08.176Z</time>
      </trkpt>
      <trkpt lat="43.314247" lon="3.442969">
        <ele>3.280853</ele>
        <time>2022-07-26T21:55:26.585Z</time>
      </trkpt>
      <trkpt lat="43.314250" lon="3.443125">
        <ele>3.303769</ele>
        <time>2022-07-26T21:55:29.404Z</time>
      </trkpt>
      <trkpt lat="43.314299" lon="3.447796">
        <ele>3.561615</ele>
        <time>2022-07-26T21:56:45.901Z</time>
      </trkpt>
      <trkpt lat="43.314309" lon="3.448747">
        <ele>3.369504</ele>
        <time>2022-07-26T21:57:00.437Z</time>
      </trkpt>
      <trkpt lat="43.314311" lon="3.448910">
        <ele>3.336575</ele>
        <time>2022-07-26T21:57:02.980Z</time>
      </trkpt>
      <trkpt lat="43.314316" lon="3.449323">
        <ele>3.253142</ele>
        <time>2022-07-26T21:57:09.231Z</time>
      </trkpt>
      <trkpt lat="43.314330" lon="3.450543">
        <ele>3.090105</ele>
        <time>2022-07-26T21:57:27.558Z</time>
      </trkpt>
      <trkpt lat="43.314337" lon="3.451200">
        <ele>3.050513</ele>
        <time>2022-07-26T21:57:38.501Z</time>
      </trkpt>
      <trkpt lat="43.314352" lon="3.452454">
        <ele>2.974442</ele>
        <time>2022-07-26T21:57:59.029Z</time>
      </trkpt>
      <trkpt lat="43.314352" lon="3.452495">
        <ele>2.971237</ele>
        <time>2022-07-26T21:57:59.687Z</time>
      </trkpt>
      <trkpt lat="43.314354" lon="3.452675">
        <ele>2.957161</ele>
        <time>2022-07-26T21:58:02.461Z</time>
      </trkpt>
      <trkpt lat="43.314383" lon="3.455204">
        <ele>2.815895</ele>
        <time>2022-07-26T21:58:42.340Z</time>
      </trkpt>
      <trkpt lat="43.314413" lon="3.457866">
        <ele>3.125025</ele>
        <time>2022-07-26T21:59:27.020Z</time>
      </trkpt>
      <trkpt lat="43.314419" lon="3.458440">
        <ele>3.216049</ele>
        <time>2022-07-26T21:59:36.950Z</time>
      </trkpt>
      <trkpt lat="43.314426" lon="3.459052">
        <ele>3.313101</ele>
        <time>2022-07-26T21:59:47.556Z</time>
      </trkpt>
      <trkpt lat="43.314472" lon="3.462750">
        <ele>3.711750</ele>
        <time>2022-07-26T22:00:48.223Z</time>
      </trkpt>
      <trkpt lat="43.314473" lon="3.462875">
        <ele>3.752277</ele>
        <time>2022-07-26T22:00:50.290Z</time>
      </trkpt>
      <trkpt lat="43.314480" lon="3.463468">
        <ele>3.944552</ele>
        <time>2022-07-26T22:00:59.856Z</time>
      </trkpt>
      <trkpt lat="43.314469" lon="3.463663">
        <ele>4.007961</ele>
        <time>2022-07-26T22:01:03.116Z</time>
      </trkpt>
      <trkpt lat="43.314276" lon="3.464053">
        <ele>4.160872</ele>
        <time>2022-07-26T22:01:11.742Z</time>
      </trkpt>
      <trkpt lat="43.314204" lon="3.464081">
        <ele>4.194213</ele>
        <time>2022-07-26T22:01:13.699Z</time>
      </trkpt>
      <trkpt lat="43.314101" lon="3.464262">
        <ele>4.268709</ele>
        <time>2022-07-26T22:01:18.199Z</time>
      </trkpt>
      <trkpt lat="43.314143" lon="3.464494">
        <ele>4.346217</ele>
        <time>2022-07-26T22:01:22.524Z</time>
      </trkpt>
      <trkpt lat="43.314259" lon="3.464583">
        <ele>4.464586</ele>
        <time>2022-07-26T22:01:26.061Z</time>
      </trkpt>
      <trkpt lat="43.314415" lon="3.464907">
        <ele>4.810253</ele>
        <time>2022-07-26T22:01:33.120Z</time>
      </trkpt>
      <trkpt lat="43.314495" lon="3.465234">
        <ele>5.117194</ele>
        <time>2022-07-26T22:01:39.876Z</time>
      </trkpt>
      <trkpt lat="43.314507" lon="3.465800">
        <ele>5.620983</ele>
        <time>2022-07-26T22:01:51.724Z</time>
      </trkpt>
      <trkpt lat="43.314513" lon="3.466068">
        <ele>5.859538</ele>
        <time>2022-07-26T22:01:57.375Z</time>
      </trkpt>
      <trkpt lat="43.314508" lon="3.467013">
        <ele>6.707421</ele>
        <time>2022-07-26T22:02:16.360Z</time>
      </trkpt>
      <trkpt lat="43.314340" lon="3.467445">
        <ele>7.167086</ele>
        <time>2022-07-26T22:02:25.182Z</time>
      </trkpt>
      <trkpt lat="43.314433" lon="3.467546">
        <ele>7.319959</ele>
        <time>2022-07-26T22:02:28.299Z</time>
      </trkpt>
      <trkpt lat="43.314609" lon="3.467739">
        <ele>7.610351</ele>
        <time>2022-07-26T22:02:34.335Z</time>
      </trkpt>
      <trkpt lat="43.314966" lon="3.468123">
        <ele>8.195031</ele>
        <time>2022-07-26T22:02:47.511Z</time>
      </trkpt>
      <trkpt lat="43.315039" lon="3.468190">
        <ele>8.308245</ele>
        <time>2022-07-26T22:02:49.841Z</time>
      </trkpt>
      <trkpt lat="43.315123" lon="3.468268">
        <ele>8.438991</ele>
        <time>2022-07-26T22:02:52.629Z</time>
      </trkpt>
      <trkpt lat="43.315157" lon="3.468507">
        <ele>8.667515</ele>
        <time>2022-07-26T22:02:58.303Z</time>
      </trkpt>
      <trkpt lat="43.315161" lon="3.468735">
        <ele>8.881532</ele>
        <time>2022-07-26T22:03:02.633Z</time>
      </trkpt>
      <trkpt lat="43.315126" lon="3.468818">
        <ele>8.964067</ele>
        <time>2022-07-26T22:03:04.828Z</time>
      </trkpt>
      <trkpt lat="43.314805" lon="3.469633">
        <ele>9.753249</ele>
        <time>2022-07-26T22:03:23.514Z</time>
      </trkpt>
      <trkpt lat="43.314772" lon="3.469825">
        <ele>9.921249</ele>
        <time>2022-07-26T22:03:27.719Z</time>
      </trkpt>
      <trkpt lat="43.314776" lon="3.469882">
        <ele>9.970013</ele>
        <time>2022-07-26T22:03:28.740Z</time>
      </trkpt>
      <trkpt lat="43.315030" lon="3.470374">
        <ele>10.483731</ele>
        <time>2022-07-26T22:03:39.526Z</time>
      </trkpt>
      <trkpt lat="43.315183" lon="3.470679">
        <ele>10.799203</ele>
        <time>2022-07-26T22:03:46.931Z</time>
      </trkpt>
      <trkpt lat="43.315207" lon="3.470792">
        <ele>10.899445</ele>
        <time>2022-07-26T22:03:49.348Z</time>
      </trkpt>
      <trkpt lat="43.315148" lon="3.470991">
        <ele>11.034235</ele>
        <time>2022-07-26T22:03:53.550Z</time>
      </trkpt>
      <trkpt lat="43.315121" lon="3.471017">
        <ele>11.051369</ele>
        <time>2022-07-26T22:03:54.450Z</time>
      </trkpt>
      <trkpt lat="43.315114" lon="3.471330">
        <ele>11.169790</ele>
        <time>2022-07-26T22:04:00.322Z</time>
      </trkpt>
      <trkpt lat="43.314988" lon="3.471504">
        <ele>11.262624</ele>
        <time>2022-07-26T22:04:04.694Z</time>
      </trkpt>
      <trkpt lat="43.314969" lon="3.471521">
        <ele>11.274408</ele>
        <time>2022-07-26T22:04:05.270Z</time>
      </trkpt>
      <trkpt lat="43.314667" lon="3.471843">
        <ele>11.473065</ele>
        <time>2022-07-26T22:04:13.977Z</time>
      </trkpt>
      <trkpt lat="43.314393" lon="3.472019">
        <ele>11.630260</ele>
        <time>2022-07-26T22:04:20.892Z</time>
      </trkpt>
      <trkpt lat="43.314055" lon="3.472107">
        <ele>11.809058</ele>
        <time>2022-07-26T22:04:29.054Z</time>
      </trkpt>
      <trkpt lat="43.313823" lon="3.472164">
        <ele>11.932589</ele>
        <time>2022-07-26T22:04:34.742Z</time>
      </trkpt>
      <trkpt lat="43.313682" lon="3.472161">
        <ele>12.083176</ele>
        <time>2022-07-26T22:04:37.899Z</time>
      </trkpt>
      <trkpt lat="43.313535" lon="3.472118">
        <ele>12.243668</ele>
        <time>2022-07-26T22:04:41.732Z</time>
      </trkpt>
      <trkpt lat="43.313513" lon="3.472110">
        <ele>12.267970</ele>
        <time>2022-07-26T22:04:42.291Z</time>
      </trkpt>
      <trkpt lat="43.313419" lon="3.472208">
        <ele>12.393962</ele>
        <time>2022-07-26T22:04:45.161Z</time>
      </trkpt>
      <trkpt lat="43.313418" lon="3.472220">
        <ele>12.403347</ele>
        <time>2022-07-26T22:04:45.358Z</time>
      </trkpt>
      <trkpt lat="43.313305" lon="3.472476">
        <ele>12.635998</ele>
        <time>2022-07-26T22:04:51.258Z</time>
      </trkpt>
      <trkpt lat="43.312695" lon="3.473931">
        <ele>13.916634</ele>
        <time>2022-07-26T22:05:25.420Z</time>
      </trkpt>
      <trkpt lat="43.312515" lon="3.474377">
        <ele>14.206050</ele>
        <time>2022-07-26T22:05:34.974Z</time>
      </trkpt>
      <trkpt lat="43.312198" lon="3.475162">
        <ele>14.715520</ele>
        <time>2022-07-26T22:05:51.328Z</time>
      </trkpt>
      <trkpt lat="43.311880" lon="3.475951">
        <ele>15.227355</ele>
        <time>2022-07-26T22:06:07.685Z</time>
      </trkpt>
      <trkpt lat="43.311831" lon="3.476074">
        <ele>15.273003</ele>
        <time>2022-07-26T22:06:10.187Z</time>
      </trkpt>
      <trkpt lat="43.311509" lon="3.476843">
        <ele>15.453596</ele>
        <time>2022-07-26T22:06:25.283Z</time>
      </trkpt>
      <trkpt lat="43.311419" lon="3.477055">
        <ele>15.503555</ele>
        <time>2022-07-26T22:06:29.528Z</time>
      </trkpt>
      <trkpt lat="43.311273" lon="3.477204">
        <ele>15.554426</ele>
        <time>2022-07-26T22:06:33.782Z</time>
      </trkpt>
      <trkpt lat="43.311185" lon="3.478042">
        <ele>15.726764</ele>
        <time>2022-07-26T22:06:47.865Z</time>
      </trkpt>
      <trkpt lat="43.311113" lon="3.478202">
        <ele>15.759908</ele>
        <time>2022-07-26T22:06:50.868Z</time>
      </trkpt>
      <trkpt lat="43.311090" lon="3.478210">
        <ele>15.762211</ele>
        <time>2022-07-26T22:06:51.418Z</time>
      </trkpt>
      <trkpt lat="43.311046" lon="3.478296">
        <ele>15.769636</ele>
        <time>2022-07-26T22:06:53.090Z</time>
      </trkpt>
      <trkpt lat="43.311080" lon="3.478381">
        <ele>15.776487</ele>
        <time>2022-07-26T22:06:54.754Z</time>
      </trkpt>
      <trkpt lat="43.311107" lon="3.478560">
        <ele>15.789399</ele>
        <time>2022-07-26T22:06:57.690Z</time>
      </trkpt>
      <trkpt lat="43.311148" lon="3.478555">
        <ele>15.793394</ele>
        <time>2022-07-26T22:06:58.661Z</time>
      </trkpt>
      <trkpt lat="43.311179" lon="3.478617">
        <ele>15.798708</ele>
        <time>2022-07-26T22:06:59.928Z</time>
      </trkpt>
      <trkpt lat="43.311122" lon="3.479092">
        <ele>15.832710</ele>
        <time>2022-07-26T22:07:08.108Z</time>
      </trkpt>
      <trkpt lat="43.311008" lon="3.480010">
        <ele>15.898487</ele>
        <time>2022-07-26T22:07:23.439Z</time>
      </trkpt>
      <trkpt lat="43.311056" lon="3.480126">
        <ele>15.907912</ele>
        <time>2022-07-26T22:07:25.646Z</time>
      </trkpt>
      <trkpt lat="43.310977" lon="3.480241">
        <ele>15.919083</ele>
        <time>2022-07-26T22:07:28.413Z</time>
      </trkpt>
      <trkpt lat="43.310602" lon="3.483296">
        <ele>16.135261</ele>
        <time>2022-07-26T22:08:20.607Z</time>
      </trkpt>
      <trkpt lat="43.310581" lon="3.483468">
        <ele>16.073401</ele>
        <time>2022-07-26T22:08:23.376Z</time>
      </trkpt>
      <trkpt lat="43.310578" lon="3.483562">
        <ele>16.040028</ele>
        <time>2022-07-26T22:08:24.836Z</time>
      </trkpt>
      <trkpt lat="43.310442" lon="3.484332">
        <ele>15.758984</ele>
        <time>2022-07-26T22:08:36.899Z</time>
      </trkpt>
      <trkpt lat="43.309980" lon="3.485813">
        <ele>14.657188</ele>
        <time>2022-07-26T22:08:59.478Z</time>
      </trkpt>
      <trkpt lat="43.309999" lon="3.485901">
        <ele>14.549414</ele>
        <time>2022-07-26T22:09:00.792Z</time>
      </trkpt>
      <trkpt lat="43.309129" lon="3.488771">
        <ele>10.851042</ele>
        <time>2022-07-26T22:09:46.324Z</time>
      </trkpt>
      <trkpt lat="43.309176" lon="3.488940">
        <ele>10.632313</ele>
        <time>2022-07-26T22:09:49.100Z</time>
      </trkpt>
      <trkpt lat="43.309173" lon="3.488960">
        <ele>10.607625</ele>
        <time>2022-07-26T22:09:49.413Z</time>
      </trkpt>
      <trkpt lat="43.309010" lon="3.489127">
        <ele>10.269834</ele>
        <time>2022-07-26T22:09:53.529Z</time>
      </trkpt>
      <trkpt lat="43.308796" lon="3.489607">
        <ele>9.589267</ele>
        <time>2022-07-26T22:10:02.036Z</time>
      </trkpt>
      <trkpt lat="43.308707" lon="3.489943">
        <ele>9.339723</ele>
        <time>2022-07-26T22:10:07.356Z</time>
      </trkpt>
      <trkpt lat="43.308659" lon="3.489922">
        <ele>9.297427</ele>
        <time>2022-07-26T22:10:08.643Z</time>
      </trkpt>
      <trkpt lat="43.308550" lon="3.490373">
        <ele>9.007076</ele>
        <time>2022-07-26T22:10:15.087Z</time>
      </trkpt>
      <trkpt lat="43.308383" lon="3.490808">
        <ele>8.706581</ele>
        <time>2022-07-26T22:10:21.914Z</time>
      </trkpt>
      <trkpt lat="43.308144" lon="3.491326">
        <ele>8.331836</ele>
        <time>2022-07-26T22:10:30.924Z</time>
      </trkpt>
      <trkpt lat="43.307931" lon="3.491663">
        <ele>8.059111</ele>
        <time>2022-07-26T22:10:37.903Z</time>
      </trkpt>
      <trkpt lat="43.307780" lon="3.491738">
        <ele>8.089602</ele>
        <time>2022-07-26T22:10:41.577Z</time>
      </trkpt>
      <trkpt lat="43.307683" lon="3.491885">
        <ele>8.186358</ele>
        <time>2022-07-26T22:10:45.041Z</time>
      </trkpt>
      <trkpt lat="43.307653" lon="3.492123">
        <ele>8.304132</ele>
        <time>2022-07-26T22:10:49.023Z</time>
      </trkpt>
      <trkpt lat="43.307732" lon="3.492372">
        <ele>8.436578</ele>
        <time>2022-07-26T22:10:53.857Z</time>
      </trkpt>
      <trkpt lat="43.307865" lon="3.492487">
        <ele>8.541869</ele>
        <time>2022-07-26T22:10:57.526Z</time>
      </trkpt>
      <trkpt lat="43.307982" lon="3.492699">
        <ele>8.671603</ele>
        <time>2022-07-26T22:11:02.450Z</time>
      </trkpt>
      <trkpt lat="43.308010" lon="3.492884">
        <ele>8.763736</ele>
        <time>2022-07-26T22:11:05.817Z</time>
      </trkpt>
      <trkpt lat="43.307942" lon="3.493602">
        <ele>9.116774</ele>
        <time>2022-07-26T22:11:19.691Z</time>
      </trkpt>
      <trkpt lat="43.307831" lon="3.494316">
        <ele>9.798623</ele>
        <time>2022-07-26T22:11:34.492Z</time>
      </trkpt>
      <trkpt lat="43.307733" lon="3.494953">
        <ele>10.527657</ele>
        <time>2022-07-26T22:11:48.035Z</time>
      </trkpt>
      <trkpt lat="43.307775" lon="3.494962">
        <ele>10.593066</ele>
        <time>2022-07-26T22:11:49.517Z</time>
      </trkpt>
      <trkpt lat="43.307812" lon="3.494960">
        <ele>10.650044</ele>
        <time>2022-07-26T22:11:50.783Z</time>
      </trkpt>
      <trkpt lat="43.307859" lon="3.495201">
        <ele>10.929421</ele>
        <time>2022-07-26T22:11:56.062Z</time>
      </trkpt>
      <trkpt lat="43.307986" lon="3.495201">
        <ele>11.124845</ele>
        <time>2022-07-26T22:11:59.704Z</time>
      </trkpt>
      <trkpt lat="43.308011" lon="3.495261">
        <ele>11.202262</ele>
        <time>2022-07-26T22:12:01.066Z</time>
      </trkpt>
      <trkpt lat="43.307943" lon="3.495681">
        <ele>11.684046</ele>
        <time>2022-07-26T22:12:10.087Z</time>
      </trkpt>
      <trkpt lat="43.307763" lon="3.496095">
        <ele>12.287973</ele>
        <time>2022-07-26T22:12:20.399Z</time>
      </trkpt>
      <trkpt lat="43.307730" lon="3.496100">
        <ele>12.352959</ele>
        <time>2022-07-26T22:12:21.308Z</time>
      </trkpt>
      <trkpt lat="43.307754" lon="3.496221">
        <ele>12.531593</ele>
        <time>2022-07-26T22:12:24.023Z</time>
      </trkpt>
      <trkpt lat="43.307691" lon="3.498708">
        <ele>15.846636</ele>
        <time>2022-07-26T22:13:19.378Z</time>
      </trkpt>
      <trkpt lat="43.307638" lon="3.500510">
        <ele>17.374592</ele>
        <time>2022-07-26T22:13:55.228Z</time>
      </trkpt>
      <trkpt lat="43.307616" lon="3.501261">
        <ele>17.153760</ele>
        <time>2022-07-26T22:14:07.028Z</time>
      </trkpt>
      <trkpt lat="43.307599" lon="3.501431">
        <ele>16.993153</ele>
        <time>2022-07-26T22:14:09.506Z</time>
      </trkpt>
      <trkpt lat="43.307566" lon="3.501514">
        <ele>16.904630</ele>
        <time>2022-07-26T22:14:10.916Z</time>
      </trkpt>
      <trkpt lat="43.307595" lon="3.501602">
        <ele>16.814214</ele>
        <time>2022-07-26T22:14:12.281Z</time>
      </trkpt>
      <trkpt lat="43.307601" lon="3.501770">
        <ele>16.656786</ele>
        <time>2022-07-26T22:14:20.796Z</time>
      </trkpt>
      <trkpt lat="43.307481" lon="3.504408">
        <ele>13.144405</ele>
        <time>2022-07-26T22:16:34.526Z</time>
      </trkpt>
      <trkpt lat="43.307552" lon="3.506798">
        <ele>8.711650</ele>
        <time>2022-07-26T22:18:35.534Z</time>
      </trkpt>
      <trkpt lat="43.307731" lon="3.508482">
        <ele>5.745300</ele>
        <time>2022-07-26T22:20:01.585Z</time>
      </trkpt>
      <trkpt lat="43.307973" lon="3.509793">
        <ele>4.255047</ele>
        <time>2022-07-26T22:21:10.034Z</time>
      </trkpt>
      <trkpt lat="43.308201" lon="3.510908">
        <ele>3.292052</ele>
        <time>2022-07-26T22:22:08.591Z</time>
      </trkpt>
      <trkpt lat="43.308338" lon="3.511421">
        <ele>3.149096</ele>
        <time>2022-07-26T22:22:36.213Z</time>
      </trkpt>
      <trkpt lat="43.308520" lon="3.512103">
        <ele>2.959063</ele>
        <time>2022-07-26T22:23:12.940Z</time>
      </trkpt>
      <trkpt lat="43.308803" lon="3.513068">
        <ele>2.690651</ele>
        <time>2022-07-26T22:24:05.560Z</time>
      </trkpt>
      <trkpt lat="43.310481" lon="3.518404">
        <ele>1.095487</ele>
        <time>2022-07-26T22:28:59.528Z</time>
      </trkpt>
      <trkpt lat="43.310850" lon="3.519452">
        <ele>0.750420</ele>
        <time>2022-07-26T22:29:16.783Z</time>
      </trkpt>
      <trkpt lat="43.311569" lon="3.521720">
        <ele>0.272782</ele>
        <time>2022-07-26T22:29:55.074Z</time>
      </trkpt>
      <trkpt lat="43.314075" lon="3.529762">
        <ele>0.219815</ele>
        <time>2022-07-26T22:32:16.111Z</time>
      </trkpt>
      <trkpt lat="43.314036" lon="3.529791">
        <ele>0.230259</ele>
        <time>2022-07-26T22:32:17.180Z</time>
      </trkpt>
      <trkpt lat="43.314500" lon="3.531282">
        <ele>0.563717</ele>
        <time>2022-07-26T22:32:46.437Z</time>
      </trkpt>
      <trkpt lat="43.314757" lon="3.532125">
        <ele>0.878502</ele>
        <time>2022-07-26T22:33:03.340Z</time>
      </trkpt>
      <trkpt lat="43.315450" lon="3.534378">
        <ele>1.489588</ele>
        <time>2022-07-26T22:33:47.807Z</time>
      </trkpt>
      <trkpt lat="43.315526" lon="3.534748">
        <ele>1.548441</ele>
        <time>2022-07-26T22:33:54.368Z</time>
      </trkpt>
      <trkpt lat="43.315562" lon="3.534743">
        <ele>1.556054</ele>
        <time>2022-07-26T22:33:55.435Z</time>
      </trkpt>
      <trkpt lat="43.315561" lon="3.534901">
        <ele>1.580241</ele>
        <time>2022-07-26T22:33:57.973Z</time>
      </trkpt>
      <trkpt lat="43.315530" lon="3.535105">
        <ele>1.612143</ele>
        <time>2022-07-26T22:34:01.378Z</time>
      </trkpt>
      <trkpt lat="43.315648" lon="3.535282">
        <ele>1.648892</ele>
        <time>2022-07-26T22:34:05.207Z</time>
      </trkpt>
      <trkpt lat="43.315665" lon="3.535289">
        <ele>1.652626</ele>
        <time>2022-07-26T22:34:05.596Z</time>
      </trkpt>
      <trkpt lat="43.315908" lon="3.535709">
        <ele>1.650980</ele>
        <time>2022-07-26T22:34:14.126Z</time>
      </trkpt>
      <trkpt lat="43.318090" lon="3.542720">
        <ele>1.132254</ele>
        <time>2022-07-26T22:36:14.661Z</time>
      </trkpt>
      <trkpt lat="43.318567" lon="3.544307">
        <ele>1.543611</ele>
        <time>2022-07-26T22:36:44.672Z</time>
      </trkpt>
      <trkpt lat="43.318637" lon="3.544537">
        <ele>1.609316</ele>
        <time>2022-07-26T22:36:49.128Z</time>
      </trkpt>
      <trkpt lat="43.318937" lon="3.545724">
        <ele>2.088708</ele>
        <time>2022-07-26T22:37:11.561Z</time>
      </trkpt>
      <trkpt lat="43.318889" lon="3.545743">
        <ele>2.114901</ele>
        <time>2022-07-26T22:37:12.885Z</time>
      </trkpt>
      <trkpt lat="43.318917" lon="3.545859">
        <ele>2.161528</ele>
        <time>2022-07-26T22:37:15.726Z</time>
      </trkpt>
      <trkpt lat="43.318822" lon="3.546258">
        <ele>2.321692</ele>
        <time>2022-07-26T22:37:25.447Z</time>
      </trkpt>
      <trkpt lat="43.318844" lon="3.546293">
        <ele>2.339338</ele>
        <time>2022-07-26T22:37:26.339Z</time>
      </trkpt>
      <trkpt lat="43.318907" lon="3.546422">
        <ele>2.398611</ele>
        <time>2022-07-26T22:37:29.262Z</time>
      </trkpt>
      <trkpt lat="43.318935" lon="3.546494">
        <ele>2.429758</ele>
        <time>2022-07-26T22:37:30.801Z</time>
      </trkpt>
      <trkpt lat="43.319033" lon="3.546478">
        <ele>2.481507</ele>
        <time>2022-07-26T22:37:33.263Z</time>
      </trkpt>
      <trkpt lat="43.319170" lon="3.546577">
        <ele>2.544833</ele>
        <time>2022-07-26T22:37:36.998Z</time>
      </trkpt>
      <trkpt lat="43.319695" lon="3.548164">
        <ele>2.758231</ele>
        <time>2022-07-26T22:38:07.209Z</time>
      </trkpt>
      <trkpt lat="43.320148" lon="3.549653">
        <ele>2.589711</ele>
        <time>2022-07-26T22:38:34.134Z</time>
      </trkpt>
      <trkpt lat="43.320314" lon="3.550208">
        <ele>2.432879</ele>
        <time>2022-07-26T22:38:43.493Z</time>
      </trkpt>
      <trkpt lat="43.320819" lon="3.551847">
        <ele>2.004746</ele>
        <time>2022-07-26T22:39:11.045Z</time>
      </trkpt>
      <trkpt lat="43.320869" lon="3.551953">
        <ele>1.977163</ele>
        <time>2022-07-26T22:39:12.993Z</time>
      </trkpt>
      <trkpt lat="43.321018" lon="3.552434">
        <ele>1.863016</ele>
        <time>2022-07-26T22:39:21.252Z</time>
      </trkpt>
      <trkpt lat="43.321084" lon="3.552630">
        <ele>1.815859</ele>
        <time>2022-07-26T22:39:24.623Z</time>
      </trkpt>
      <trkpt lat="43.321653" lon="3.554241">
        <ele>1.934276</ele>
        <time>2022-07-26T22:39:54.167Z</time>
      </trkpt>
      <trkpt lat="43.322513" lon="3.555863">
        <ele>2.476074</ele>
        <time>2022-07-26T22:40:30.071Z</time>
      </trkpt>
      <trkpt lat="43.323177" lon="3.557065">
        <ele>2.886942</ele>
        <time>2022-07-26T22:40:55.616Z</time>
      </trkpt>
      <trkpt lat="43.324136" lon="3.558827">
        <ele>3.409540</ele>
        <time>2022-07-26T22:41:33.274Z</time>
      </trkpt>
      <trkpt lat="43.324437" lon="3.559401">
        <ele>3.561008</ele>
        <time>2022-07-26T22:41:45.547Z</time>
      </trkpt>
      <trkpt lat="43.324706" lon="3.559940">
        <ele>3.569981</ele>
        <time>2022-07-26T22:41:56.535Z</time>
      </trkpt>
      <trkpt lat="43.324745" lon="3.560163">
        <ele>3.573129</ele>
        <time>2022-07-26T22:42:00.537Z</time>
      </trkpt>
      <trkpt lat="43.324790" lon="3.560240">
        <ele>3.574485</ele>
        <time>2022-07-26T22:42:02.246Z</time>
      </trkpt>
      <trkpt lat="43.324945" lon="3.560322">
        <ele>3.577619</ele>
        <time>2022-07-26T22:42:05.947Z</time>
      </trkpt>
      <trkpt lat="43.325394" lon="3.561104">
        <ele>3.591295</ele>
        <time>2022-07-26T22:42:21.811Z</time>
      </trkpt>
      <trkpt lat="43.325972" lon="3.562180">
        <ele>3.223097</ele>
        <time>2022-07-26T22:42:41.970Z</time>
      </trkpt>
      <trkpt lat="43.326058" lon="3.562560">
        <ele>3.091699</ele>
        <time>2022-07-26T22:42:48.066Z</time>
      </trkpt>
      <trkpt lat="43.326128" lon="3.562579">
        <ele>3.059314</ele>
        <time>2022-07-26T22:42:49.497Z</time>
      </trkpt>
      <trkpt lat="43.326562" lon="3.563712">
        <ele>2.536758</ele>
        <time>2022-07-26T22:43:08.496Z</time>
      </trkpt>
      <trkpt lat="43.326985" lon="3.564803">
        <ele>1.840407</ele>
        <time>2022-07-26T22:43:26.197Z</time>
      </trkpt>
      <trkpt lat="43.327362" lon="3.565743">
        <ele>1.280076</ele>
        <time>2022-07-26T22:43:41.519Z</time>
      </trkpt>
      <trkpt lat="43.327789" lon="3.566614">
        <ele>0.863780</ele>
        <time>2022-07-26T22:43:56.569Z</time>
      </trkpt>
      <trkpt lat="43.327812" lon="3.566659">
        <ele>0.841982</ele>
        <time>2022-07-26T22:43:57.377Z</time>
      </trkpt>
      <trkpt lat="43.328303" lon="3.567563">
        <ele>0.405527</ele>
        <time>2022-07-26T22:44:14.512Z</time>
      </trkpt>
      <trkpt lat="43.329102" lon="3.568584">
        <ele>0.424001</ele>
        <time>2022-07-26T22:44:39.169Z</time>
      </trkpt>
      <trkpt lat="43.330542" lon="3.570299">
        <ele>0.541863</ele>
        <time>2022-07-26T22:45:22.120Z</time>
      </trkpt>
      <trkpt lat="43.332025" lon="3.572027">
        <ele>0.905862</ele>
        <time>2022-07-26T22:46:06.425Z</time>
      </trkpt>
      <trkpt lat="43.333414" lon="3.573691">
        <ele>1.579971</ele>
        <time>2022-07-26T22:46:50.632Z</time>
      </trkpt>
      <trkpt lat="43.333323" lon="3.573805">
        <ele>1.630218</ele>
        <time>2022-07-26T22:46:55.459Z</time>
      </trkpt>
      <trkpt lat="43.333440" lon="3.574100">
        <ele>1.729965</ele>
        <time>2022-07-26T22:47:01.789Z</time>
      </trkpt>
      <trkpt lat="43.334014" lon="3.574812">
        <ele>1.580697</ele>
        <time>2022-07-26T22:47:21.780Z</time>
      </trkpt>
      <trkpt lat="43.334588" lon="3.575524">
        <ele>1.415550</ele>
        <time>2022-07-26T22:47:41.772Z</time>
      </trkpt>
      <trkpt lat="43.335162" lon="3.576236">
        <ele>1.120438</ele>
        <time>2022-07-26T22:48:01.764Z</time>
      </trkpt>
      <trkpt lat="43.335736" lon="3.576948">
        <ele>0.752355</ele>
        <time>2022-07-26T22:48:21.755Z</time>
      </trkpt>
      <trkpt lat="43.336310" lon="3.577660">
        <ele>0.486112</ele>
        <time>2022-07-26T22:48:41.747Z</time>
      </trkpt>
      <trkpt lat="43.336330" lon="3.577730">
        <ele>0.483027</ele>
        <time>2022-07-26T22:48:43.163Z</time>
      </trkpt>
      <trkpt lat="43.336945" lon="3.578483">
        <ele>0.436574</ele>
        <time>2022-07-26T22:49:04.458Z</time>
      </trkpt>
      <trkpt lat="43.337560" lon="3.579236">
        <ele>0.400717</ele>
        <time>2022-07-26T22:49:25.753Z</time>
      </trkpt>
      <trkpt lat="43.338175" lon="3.579989">
        <ele>0.414140</ele>
        <time>2022-07-26T22:49:47.049Z</time>
      </trkpt>
      <trkpt lat="43.338790" lon="3.580742">
        <ele>0.427563</ele>
        <time>2022-07-26T22:50:08.344Z</time>
      </trkpt>
      <trkpt lat="43.339405" lon="3.581495">
        <ele>0.533506</ele>
        <time>2022-07-26T22:50:29.639Z</time>
      </trkpt>
      <trkpt lat="43.340020" lon="3.582248">
        <ele>0.640116</ele>
        <time>2022-07-26T22:50:50.934Z</time>
      </trkpt>
      <trkpt lat="43.340635" lon="3.583001">
        <ele>0.912161</ele>
        <time>2022-07-26T22:51:12.229Z</time>
      </trkpt>
      <trkpt lat="43.341250" lon="3.583754">
        <ele>1.223340</ele>
        <time>2022-07-26T22:51:33.524Z</time>
      </trkpt>
      <trkpt lat="43.341865" lon="3.584507">
        <ele>1.477866</ele>
        <time>2022-07-26T22:51:54.819Z</time>
      </trkpt>
      <trkpt lat="43.342480" lon="3.585260">
        <ele>1.698330</ele>
        <time>2022-07-26T22:52:16.114Z</time>
      </trkpt>
      <trkpt lat="43.342664" lon="3.584979">
        <ele>1.771951</ele>
        <time>2022-07-26T22:52:23.233Z</time>
      </trkpt>
      <trkpt lat="43.345784" lon="3.588851">
        <ele>0.719718</ele>
        <time>2022-07-26T22:53:52.199Z</time>
      </trkpt>
      <trkpt lat="43.346393" lon="3.589645">
        <ele>0.505730</ele>
        <time>2022-07-26T22:54:13.893Z</time>
      </trkpt>
      <trkpt lat="43.347002" lon="3.590439">
        <ele>0.386519</ele>
        <time>2022-07-26T22:54:35.587Z</time>
      </trkpt>
      <trkpt lat="43.347610" lon="3.591233">
        <ele>0.438112</ele>
        <time>2022-07-26T22:54:57.280Z</time>
      </trkpt>
      <trkpt lat="43.348219" lon="3.592026">
        <ele>0.488394</ele>
        <time>2022-07-26T22:55:18.973Z</time>
      </trkpt>
      <trkpt lat="43.348828" lon="3.592820">
        <ele>0.533787</ele>
        <time>2022-07-26T22:55:40.667Z</time>
      </trkpt>
      <trkpt lat="43.349437" lon="3.593614">
        <ele>0.573615</ele>
        <time>2022-07-26T22:56:02.360Z</time>
      </trkpt>
      <trkpt lat="43.350045" lon="3.594408">
        <ele>0.538159</ele>
        <time>2022-07-26T22:56:24.053Z</time>
      </trkpt>
      <trkpt lat="43.350654" lon="3.595202">
        <ele>0.502673</ele>
        <time>2022-07-26T22:56:45.746Z</time>
      </trkpt>
      <trkpt lat="43.351263" lon="3.595995">
        <ele>0.532709</ele>
        <time>2022-07-26T22:57:07.439Z</time>
      </trkpt>
      <trkpt lat="43.351871" lon="3.596789">
        <ele>0.568078</ele>
        <time>2022-07-26T22:57:29.131Z</time>
      </trkpt>
      <trkpt lat="43.352480" lon="3.597583">
        <ele>0.669038</ele>
        <time>2022-07-26T22:57:50.824Z</time>
      </trkpt>
      <trkpt lat="43.353089" lon="3.598377">
        <ele>0.788505</ele>
        <time>2022-07-26T22:58:12.517Z</time>
      </trkpt>
      <trkpt lat="43.353698" lon="3.599171">
        <ele>0.810552</ele>
        <time>2022-07-26T22:58:34.209Z</time>
      </trkpt>
      <trkpt lat="43.353420" lon="3.598850">
        <ele>0.796024</ele>
        <time>2022-07-26T22:58:43.583Z</time>
      </trkpt>
      <trkpt lat="43.354025" lon="3.599620">
        <ele>0.763033</ele>
        <time>2022-07-26T22:59:04.899Z</time>
      </trkpt>
      <trkpt lat="43.354630" lon="3.600390">
        <ele>0.584233</ele>
        <time>2022-07-26T22:59:26.216Z</time>
      </trkpt>
      <trkpt lat="43.354740" lon="3.600450">
        <ele>0.556402</ele>
        <time>2022-07-26T22:59:29.277Z</time>
      </trkpt>
      <trkpt lat="43.355240" lon="3.601070">
        <ele>0.398071</ele>
        <time>2022-07-26T22:59:46.686Z</time>
      </trkpt>
      <trkpt lat="43.355760" lon="3.601745">
        <ele>0.277707</ele>
        <time>2022-07-26T23:00:05.176Z</time>
      </trkpt>
      <trkpt lat="43.356280" lon="3.602420">
        <ele>0.184649</ele>
        <time>2022-07-26T23:00:23.667Z</time>
      </trkpt>
      <trkpt lat="43.356800" lon="3.603095">
        <ele>0.104775</ele>
        <time>2022-07-26T23:00:42.157Z</time>
      </trkpt>
      <trkpt lat="43.357320" lon="3.603770">
        <ele>0.120696</ele>
        <time>2022-07-26T23:01:00.647Z</time>
      </trkpt>
      <trkpt lat="43.357595" lon="3.603436">
        <ele>0.128865</ele>
        <time>2022-07-26T23:01:10.147Z</time>
      </trkpt>
      <trkpt lat="43.357704" lon="3.603605">
        <ele>0.132522</ele>
        <time>2022-07-26T23:01:13.796Z</time>
      </trkpt>
      <trkpt lat="43.357820" lon="3.603717">
        <ele>0.135678</ele>
        <time>2022-07-26T23:01:16.987Z</time>
      </trkpt>
      <trkpt lat="43.358093" lon="3.603773">
        <ele>0.141824</ele>
        <time>2022-07-26T23:01:23.153Z</time>
      </trkpt>
      <trkpt lat="43.358194" lon="3.603855">
        <ele>0.142830</ele>
        <time>2022-07-26T23:01:25.799Z</time>
      </trkpt>
      <trkpt lat="43.360098" lon="3.606933">
        <ele>0.147170</ele>
        <time>2022-07-26T23:02:30.862Z</time>
      </trkpt>
      <trkpt lat="43.359810" lon="3.607270">
        <ele>0.149059</ele>
        <time>2022-07-26T23:02:40.638Z</time>
      </trkpt>
      <trkpt lat="43.360110" lon="3.607735">
        <ele>0.167561</ele>
        <time>2022-07-26T23:02:52.326Z</time>
      </trkpt>
      <trkpt lat="43.360410" lon="3.608200">
        <ele>0.200392</ele>
        <time>2022-07-26T23:03:04.015Z</time>
      </trkpt>
      <trkpt lat="43.360945" lon="3.608935">
        <ele>0.255317</ele>
        <time>2022-07-26T23:03:23.569Z</time>
      </trkpt>
      <trkpt lat="43.361480" lon="3.609670">
        <ele>0.315087</ele>
        <time>2022-07-26T23:03:43.123Z</time>
      </trkpt>
      <trkpt lat="43.361550" lon="3.609700">
        <ele>0.321288</ele>
        <time>2022-07-26T23:03:45.018Z</time>
      </trkpt>
      <trkpt lat="43.362060" lon="3.610380">
        <ele>0.381361</ele>
        <time>2022-07-26T23:04:03.387Z</time>
      </trkpt>
      <trkpt lat="43.362560" lon="3.611080">
        <ele>0.433776</ele>
        <time>2022-07-26T23:04:21.836Z</time>
      </trkpt>
      <trkpt lat="43.363060" lon="3.611780">
        <ele>0.439886</ele>
        <time>2022-07-26T23:04:40.285Z</time>
      </trkpt>
      <trkpt lat="43.363652" lon="3.612630">
        <ele>0.447213</ele>
        <time>2022-07-26T23:05:02.414Z</time>
      </trkpt>
      <trkpt lat="43.364244" lon="3.613480">
        <ele>0.464790</ele>
        <time>2022-07-26T23:05:24.544Z</time>
      </trkpt>
      <trkpt lat="43.364836" lon="3.614330">
        <ele>0.484124</ele>
        <time>2022-07-26T23:05:46.673Z</time>
      </trkpt>
      <trkpt lat="43.365428" lon="3.615180">
        <ele>0.606413</ele>
        <time>2022-07-26T23:06:08.802Z</time>
      </trkpt>
      <trkpt lat="43.366020" lon="3.616030">
        <ele>0.762674</ele>
        <time>2022-07-26T23:06:30.931Z</time>
      </trkpt>
      <trkpt lat="43.366345" lon="3.616460">
        <ele>0.856448</ele>
        <time>2022-07-26T23:06:42.592Z</time>
      </trkpt>
      <trkpt lat="43.366670" lon="3.616890">
        <ele>0.972821</ele>
        <time>2022-07-26T23:06:54.254Z</time>
      </trkpt>
      <trkpt lat="43.366659" lon="3.616659">
        <ele>1.016252</ele>
        <time>2022-07-26T23:06:58.598Z</time>
      </trkpt>
      <trkpt lat="43.366757" lon="3.616536">
        <ele>1.050489</ele>
        <time>2022-07-26T23:07:03.785Z</time>
      </trkpt>
      <trkpt lat="43.367291" lon="3.617291">
        <ele>1.248112</ele>
        <time>2022-07-26T23:07:21.779Z</time>
      </trkpt>
      <trkpt lat="43.367813" lon="3.618003">
        <ele>1.183472</ele>
        <time>2022-07-26T23:07:38.403Z</time>
      </trkpt>
      <trkpt lat="43.367703" lon="3.618140">
        <ele>1.159447</ele>
        <time>2022-07-26T23:07:43.649Z</time>
      </trkpt>
      <trkpt lat="43.367813" lon="3.618003">
        <ele>1.135422</ele>
        <time>2022-07-26T23:07:49.225Z</time>
      </trkpt>
      <trkpt lat="43.368356" lon="3.618716">
        <ele>1.013881</ele>
        <time>2022-07-26T23:08:05.095Z</time>
      </trkpt>
      <trkpt lat="43.368474" lon="3.618850">
        <ele>0.987889</ele>
        <time>2022-07-26T23:08:08.181Z</time>
      </trkpt>
      <trkpt lat="43.369108" lon="3.619735">
        <ele>0.693845</ele>
        <time>2022-07-26T23:08:26.997Z</time>
      </trkpt>
      <trkpt lat="43.369613" lon="3.620480">
        <ele>0.452785</ele>
        <time>2022-07-26T23:08:42.663Z</time>
      </trkpt>
      <trkpt lat="43.369808" lon="3.620729">
        <ele>0.397870</ele>
        <time>2022-07-26T23:08:48.405Z</time>
      </trkpt>
      <trkpt lat="43.369658" lon="3.620924">
        <ele>0.385847</ele>
        <time>2022-07-26T23:08:55.880Z</time>
      </trkpt>
      <trkpt lat="43.369808" lon="3.620729">
        <ele>0.373824</ele>
        <time>2022-07-26T23:09:03.474Z</time>
      </trkpt>
      <trkpt lat="43.370899" lon="3.622275">
        <ele>0.299998</ele>
        <time>2022-07-26T23:09:38.254Z</time>
      </trkpt>
      <trkpt lat="43.372140" lon="3.624049">
        <ele>0.299063</ele>
        <time>2022-07-26T23:10:17.940Z</time>
      </trkpt>
      <trkpt lat="43.373376" lon="3.625847">
        <ele>0.280050</ele>
        <time>2022-07-26T23:10:58.141Z</time>
      </trkpt>
      <trkpt lat="43.374590" lon="3.627632">
        <ele>0.202128</ele>
        <time>2022-07-26T23:11:37.228Z</time>
      </trkpt>
      <trkpt lat="43.375132" lon="3.628341">
        <ele>0.189826</ele>
        <time>2022-07-26T23:11:53.629Z</time>
      </trkpt>
      <trkpt lat="43.375871" lon="3.629438">
        <ele>0.217698</ele>
        <time>2022-07-26T23:12:17.896Z</time>
      </trkpt>
      <trkpt lat="43.376847" lon="3.630987">
        <ele>0.416768</ele>
        <time>2022-07-26T23:12:51.917Z</time>
      </trkpt>
      <trkpt lat="43.377043" lon="3.631291">
        <ele>0.450558</ele>
        <time>2022-07-26T23:12:58.805Z</time>
      </trkpt>
      <trkpt lat="43.376943" lon="3.631410">
        <ele>0.465652</ele>
        <time>2022-07-26T23:13:03.903Z</time>
      </trkpt>
      <trkpt lat="43.377043" lon="3.631291">
        <ele>0.480746</ele>
        <time>2022-07-26T23:13:08.806Z</time>
      </trkpt>
      <trkpt lat="43.377457" lon="3.631944">
        <ele>0.552646</ele>
        <time>2022-07-26T23:13:23.010Z</time>
      </trkpt>
      <trkpt lat="43.377904" lon="3.632617">
        <ele>0.618646</ele>
        <time>2022-07-26T23:13:37.928Z</time>
      </trkpt>
      <trkpt lat="43.378210" lon="3.633079">
        <ele>0.582763</ele>
        <time>2022-07-26T23:13:48.373Z</time>
      </trkpt>
      <trkpt lat="43.378892" lon="3.634152">
        <ele>0.500933</ele>
        <time>2022-07-26T23:14:10.798Z</time>
      </trkpt>
      <trkpt lat="43.378958" lon="3.634259">
        <ele>0.492877</ele>
        <time>2022-07-26T23:14:12.977Z</time>
      </trkpt>
      <trkpt lat="43.379357" lon="3.634908">
        <ele>0.453426</ele>
        <time>2022-07-26T23:14:26.293Z</time>
      </trkpt>
      <trkpt lat="43.379814" lon="3.635628">
        <ele>0.412624</ele>
        <time>2022-07-26T23:14:41.922Z</time>
      </trkpt>
      <trkpt lat="43.380283" lon="3.636382">
        <ele>0.377111</ele>
        <time>2022-07-26T23:14:57.939Z</time>
      </trkpt>
      <trkpt lat="43.380763" lon="3.637153">
        <ele>0.397822</ele>
        <time>2022-07-26T23:15:14.014Z</time>
      </trkpt>
      <trkpt lat="43.380665" lon="3.637278">
        <ele>0.401572</ele>
        <time>2022-07-26T23:15:18.862Z</time>
      </trkpt>
      <trkpt lat="43.380763" lon="3.637153">
        <ele>0.405323</ele>
        <time>2022-07-26T23:15:24.012Z</time>
      </trkpt>
      <trkpt lat="43.381192" lon="3.637844">
        <ele>0.423863</ele>
        <time>2022-07-26T23:15:38.785Z</time>
      </trkpt>
      <trkpt lat="43.381708" lon="3.638673">
        <ele>0.536339</ele>
        <time>2022-07-26T23:15:56.772Z</time>
      </trkpt>
      <trkpt lat="43.382181" lon="3.639434">
        <ele>0.645588</ele>
        <time>2022-07-26T23:16:13.478Z</time>
      </trkpt>
      <trkpt lat="43.382647" lon="3.640183">
        <ele>0.702014</ele>
        <time>2022-07-26T23:16:30.161Z</time>
      </trkpt>
      <trkpt lat="43.383096" lon="3.640906">
        <ele>0.713917</ele>
        <time>2022-07-26T23:16:45.924Z</time>
      </trkpt>
      <trkpt lat="43.383564" lon="3.641658">
        <ele>0.726307</ele>
        <time>2022-07-26T23:17:01.592Z</time>
      </trkpt>
      <trkpt lat="43.383486" lon="3.641756">
        <ele>0.701219</ele>
        <time>2022-07-26T23:17:05.189Z</time>
      </trkpt>
      <trkpt lat="43.383564" lon="3.641658">
        <ele>0.675315</ele>
        <time>2022-07-26T23:17:09.059Z</time>
      </trkpt>
      <trkpt lat="43.384040" lon="3.642410">
        <ele>0.497575</ele>
        <time>2022-07-26T23:17:24.243Z</time>
      </trkpt>
      <trkpt lat="43.384505" lon="3.643163">
        <ele>0.321461</ele>
        <time>2022-07-26T23:17:39.578Z</time>
      </trkpt>
      <trkpt lat="43.384973" lon="3.643906">
        <ele>0.428162</ele>
        <time>2022-07-26T23:17:55.243Z</time>
      </trkpt>
      <trkpt lat="43.384887" lon="3.644009">
        <ele>0.456900</ele>
        <time>2022-07-26T23:17:59.475Z</time>
      </trkpt>
      <trkpt lat="43.384973" lon="3.643906">
        <ele>0.485638</ele>
        <time>2022-07-26T23:18:03.693Z</time>
      </trkpt>
      <trkpt lat="43.385451" lon="3.644676">
        <ele>0.671139</ele>
        <time>2022-07-26T23:18:21.548Z</time>
      </trkpt>
      <trkpt lat="43.385912" lon="3.645397">
        <ele>0.877590</ele>
        <time>2022-07-26T23:18:38.606Z</time>
      </trkpt>
      <trkpt lat="43.386382" lon="3.646150">
        <ele>1.110622</ele>
        <time>2022-07-26T23:18:55.632Z</time>
      </trkpt>
      <trkpt lat="43.386294" lon="3.646251">
        <ele>1.147641</ele>
        <time>2022-07-26T23:19:00.156Z</time>
      </trkpt>
      <trkpt lat="43.386382" lon="3.646150">
        <ele>1.184660</ele>
        <time>2022-07-26T23:19:04.434Z</time>
      </trkpt>
      <trkpt lat="43.386852" lon="3.646904">
        <ele>1.239598</ele>
        <time>2022-07-26T23:19:20.993Z</time>
      </trkpt>
      <trkpt lat="43.386763" lon="3.647018">
        <ele>1.207580</ele>
        <time>2022-07-26T23:19:25.523Z</time>
      </trkpt>
      <trkpt lat="43.386852" lon="3.646904">
        <ele>1.175563</ele>
        <time>2022-07-26T23:19:30.148Z</time>
      </trkpt>
      <trkpt lat="43.387272" lon="3.647503">
        <ele>1.016285</ele>
        <time>2022-07-26T23:19:42.766Z</time>
      </trkpt>
      <trkpt lat="43.387856" lon="3.648256">
        <ele>0.785242</ele>
        <time>2022-07-26T23:19:59.067Z</time>
      </trkpt>
      <trkpt lat="43.388297" lon="3.649066">
        <ele>0.494449</ele>
        <time>2022-07-26T23:20:13.941Z</time>
      </trkpt>
      <trkpt lat="43.388410" lon="3.648950">
        <ele>0.438711</ele>
        <time>2022-07-26T23:20:17.586Z</time>
      </trkpt>
      <trkpt lat="43.388450" lon="3.649120">
        <ele>0.387371</ele>
        <time>2022-07-26T23:20:20.944Z</time>
      </trkpt>
      <trkpt lat="43.388990" lon="3.649520">
        <ele>0.144909</ele>
        <time>2022-07-26T23:20:36.803Z</time>
      </trkpt>
      <trkpt lat="43.389660" lon="3.649890">
        <ele>0.041269</ele>
        <time>2022-07-26T23:20:55.471Z</time>
      </trkpt>
      <trkpt lat="43.389688" lon="3.649945">
        <ele>0.034708</ele>
        <time>2022-07-26T23:20:56.733Z</time>
      </trkpt>
      <trkpt lat="43.389677" lon="3.650016">
        <ele>0.027616</ele>
        <time>2022-07-26T23:20:57.866Z</time>
      </trkpt>
      <trkpt lat="43.389721" lon="3.650141">
        <ele>0.014047</ele>
        <time>2022-07-26T23:21:00.055Z</time>
      </trkpt>
      <trkpt lat="43.389858" lon="3.650158">
        <ele>-0.004445</ele>
        <time>2022-07-26T23:21:02.908Z</time>
      </trkpt>
      <trkpt lat="43.390427" lon="3.650655">
        <ele>-0.095046</ele>
        <time>2022-07-26T23:21:17.562Z</time>
      </trkpt>
      <trkpt lat="43.390515" lon="3.650742">
        <ele>-0.110061</ele>
        <time>2022-07-26T23:21:19.830Z</time>
      </trkpt>
      <trkpt lat="43.390799" lon="3.651024">
        <ele>-0.164836</ele>
        <time>2022-07-26T23:21:27.419Z</time>
      </trkpt>
      <trkpt lat="43.390907" lon="3.651108">
        <ele>-0.184240</ele>
        <time>2022-07-26T23:21:30.110Z</time>
      </trkpt>
      <trkpt lat="43.391270" lon="3.651369">
        <ele>-0.248297</ele>
        <time>2022-07-26T23:21:38.637Z</time>
      </trkpt>
      <trkpt lat="43.395784" lon="3.654549">
        <ele>-0.766031</ele>
        <time>2022-07-26T23:23:29.437Z</time>
      </trkpt>
      <trkpt lat="43.396175" lon="3.654824">
        <ele>-0.780794</ele>
        <time>2022-07-26T23:23:39.010Z</time>
      </trkpt>
      <trkpt lat="43.396301" lon="3.654950">
        <ele>-0.786031</ele>
        <time>2022-07-26T23:23:42.520Z</time>
      </trkpt>
      <trkpt lat="43.396789" lon="3.655438">
        <ele>-0.806313</ele>
        <time>2022-07-26T23:23:56.233Z</time>
      </trkpt>
      <trkpt lat="43.397096" lon="3.655576">
        <ele>-0.702020</ele>
        <time>2022-07-26T23:24:03.534Z</time>
      </trkpt>
      <trkpt lat="43.397546" lon="3.655670">
        <ele>-0.543641</ele>
        <time>2022-07-26T23:24:13.962Z</time>
      </trkpt>
      <trkpt lat="43.397827" lon="3.655871">
        <ele>-0.433444</ele>
        <time>2022-07-26T23:24:21.645Z</time>
      </trkpt>
      <trkpt lat="43.398423" lon="3.656645">
        <ele>-0.188269</ele>
        <time>2022-07-26T23:24:41.505Z</time>
      </trkpt>
      <trkpt lat="43.398489" lon="3.656788">
        <ele>-0.197547</ele>
        <time>2022-07-26T23:24:44.453Z</time>
      </trkpt>
      <trkpt lat="43.398759" lon="3.657300">
        <ele>-0.232191</ele>
        <time>2022-07-26T23:24:55.390Z</time>
      </trkpt>
      <trkpt lat="43.398540" lon="3.657695">
        <ele>-0.259400</ele>
        <time>2022-07-26T23:25:20.523Z</time>
      </trkpt>
      <trkpt lat="43.398759" lon="3.657300">
        <ele>-0.286609</ele>
        <time>2022-07-26T23:25:45.657Z</time>
      </trkpt>
      <trkpt lat="43.398794" lon="3.657366">
        <ele>-0.291084</ele>
        <time>2022-07-26T23:25:46.807Z</time>
      </trkpt>
      <trkpt lat="43.398855" lon="3.657480">
        <ele>-0.298837</ele>
        <time>2022-07-26T23:25:48.806Z</time>
      </trkpt>
      <trkpt lat="43.398897" lon="3.657563">
        <ele>-0.304376</ele>
        <time>2022-07-26T23:25:50.259Z</time>
      </trkpt>
      <trkpt lat="43.398940" lon="3.657647">
        <ele>-0.310003</ele>
        <time>2022-07-26T23:25:51.778Z</time>
      </trkpt>
      <trkpt lat="43.398723" lon="3.658043">
        <ele>-0.322161</ele>
        <time>2022-07-26T23:26:16.783Z</time>
      </trkpt>
      <trkpt lat="43.398940" lon="3.657647">
        <ele>-0.329396</ele>
        <time>2022-07-26T23:26:41.788Z</time>
      </trkpt>
      <trkpt lat="43.399140" lon="3.658040">
        <ele>-0.336395</ele>
        <time>2022-07-26T23:26:49.197Z</time>
      </trkpt>
      <trkpt lat="43.399225" lon="3.658197">
        <ele>-0.339251</ele>
        <time>2022-07-26T23:26:52.403Z</time>
      </trkpt>
      <trkpt lat="43.399297" lon="3.658351">
        <ele>-0.341922</ele>
        <time>2022-07-26T23:26:55.354Z</time>
      </trkpt>
      <trkpt lat="43.399565" lon="3.658756">
        <ele>-0.349913</ele>
        <time>2022-07-26T23:27:04.998Z</time>
      </trkpt>
      <trkpt lat="43.399783" lon="3.658792">
        <ele>-0.122414</ele>
        <time>2022-07-26T23:27:10.815Z</time>
      </trkpt>
      <trkpt lat="43.400394" lon="3.658836">
        <ele>1.767489</ele>
        <time>2022-07-26T23:27:28.048Z</time>
      </trkpt>
      <trkpt lat="43.400405" lon="3.658846">
        <ele>1.808210</ele>
        <time>2022-07-26T23:27:28.446Z</time>
      </trkpt>
      <trkpt lat="43.400760" lon="3.659183">
        <ele>3.140305</ele>
        <time>2022-07-26T23:27:43.250Z</time>
      </trkpt>
      <trkpt lat="43.401376" lon="3.660382">
        <ele>7.257295</ele>
        <time>2022-07-26T23:28:28.421Z</time>
      </trkpt>
      <trkpt lat="43.401388" lon="3.660461">
        <ele>7.559084</ele>
        <time>2022-07-26T23:28:31.432Z</time>
      </trkpt>
      <trkpt lat="43.401482" lon="3.661080">
        <ele>9.923706</ele>
        <time>2022-07-26T23:28:51.153Z</time>
      </trkpt>
      <trkpt lat="43.401436" lon="3.661243">
        <ele>10.577569</ele>
        <time>2022-07-26T23:28:56.387Z</time>
      </trkpt>
      <trkpt lat="43.401354" lon="3.661433">
        <ele>11.403918</ele>
        <time>2022-07-26T23:29:04.009Z</time>
      </trkpt>
      <trkpt lat="43.401264" lon="3.661539">
        <ele>12.013547</ele>
        <time>2022-07-26T23:29:08.636Z</time>
      </trkpt>
      <trkpt lat="43.401215" lon="3.661795">
        <ele>13.003463</ele>
        <time>2022-07-26T23:29:17.283Z</time>
      </trkpt>
      <trkpt lat="43.401279" lon="3.661994">
        <ele>13.817219</ele>
        <time>2022-07-26T23:29:23.728Z</time>
      </trkpt>
      <trkpt lat="43.401415" lon="3.662105">
        <ele>14.595942</ele>
        <time>2022-07-26T23:29:30.596Z</time>
      </trkpt>
      <trkpt lat="43.401555" lon="3.662098">
        <ele>15.169401</ele>
        <time>2022-07-26T23:29:36.956Z</time>
      </trkpt>
      <trkpt lat="43.401634" lon="3.662040">
        <ele>15.535913</ele>
        <time>2022-07-26T23:29:40.378Z</time>
      </trkpt>
      <trkpt lat="43.401993" lon="3.662135">
        <ele>17.032370</ele>
        <time>2022-07-26T23:29:55.457Z</time>
      </trkpt>
      <trkpt lat="43.402695" lon="3.662049">
        <ele>19.917319</ele>
        <time>2022-07-26T23:30:23.082Z</time>
      </trkpt>
      <trkpt lat="43.403177" lon="3.662237">
        <ele>21.916397</ele>
        <time>2022-07-26T23:30:40.054Z</time>
      </trkpt>
      <trkpt lat="43.403663" lon="3.662412">
        <ele>23.243297</ele>
        <time>2022-07-26T23:30:56.703Z</time>
      </trkpt>
      <trkpt lat="43.403941" lon="3.662502">
        <ele>23.997631</ele>
        <time>2022-07-26T23:31:06.066Z</time>
      </trkpt>
      <trkpt lat="43.404401" lon="3.662733">
        <ele>25.290993</ele>
        <time>2022-07-26T23:31:22.044Z</time>
      </trkpt>
      <trkpt lat="43.404821" lon="3.663037">
        <ele>26.544398</ele>
        <time>2022-07-26T23:31:37.321Z</time>
      </trkpt>
      <trkpt lat="43.405137" lon="3.663360">
        <ele>27.249415</ele>
        <time>2022-07-26T23:31:49.805Z</time>
      </trkpt>
      <trkpt lat="43.405410" lon="3.663658">
        <ele>27.865043</ele>
        <time>2022-07-26T23:32:00.602Z</time>
      </trkpt>
      <trkpt lat="43.405753" lon="3.664100">
        <ele>28.695221</ele>
        <time>2022-07-26T23:32:14.698Z</time>
      </trkpt>
      <trkpt lat="43.405958" lon="3.664372">
        <ele>29.198314</ele>
        <time>2022-07-26T23:32:22.403Z</time>
      </trkpt>
      <trkpt lat="43.406011" lon="3.664465">
        <ele>29.350039</ele>
        <time>2022-07-26T23:32:24.685Z</time>
      </trkpt>
      <trkpt lat="43.406125" lon="3.664666">
        <ele>29.677364</ele>
        <time>2022-07-26T23:32:29.449Z</time>
      </trkpt>
      <trkpt lat="43.406524" lon="3.665414">
        <ele>29.725951</ele>
        <time>2022-07-26T23:32:46.357Z</time>
      </trkpt>
      <trkpt lat="43.406641" lon="3.665699">
        <ele>29.716424</ele>
        <time>2022-07-26T23:32:52.012Z</time>
      </trkpt>
      <trkpt lat="43.406771" lon="3.666013">
        <ele>29.705906</ele>
        <time>2022-07-26T23:32:57.386Z</time>
      </trkpt>
      <trkpt lat="43.406851" lon="3.666193">
        <ele>29.699765</ele>
        <time>2022-07-26T23:33:00.464Z</time>
      </trkpt>
      <trkpt lat="43.406983" lon="3.666530">
        <ele>29.688622</ele>
        <time>2022-07-26T23:33:06.056Z</time>
      </trkpt>
      <trkpt lat="43.407346" lon="3.667432">
        <ele>29.174427</ele>
        <time>2022-07-26T23:33:20.540Z</time>
      </trkpt>
      <trkpt lat="43.407422" lon="3.667687">
        <ele>28.978016</ele>
        <time>2022-07-26T23:33:24.295Z</time>
      </trkpt>
      <trkpt lat="43.408072" lon="3.669855">
        <ele>27.204228</ele>
        <time>2022-07-26T23:33:57.215Z</time>
      </trkpt>
      <trkpt lat="43.408238" lon="3.670523">
        <ele>26.616371</ele>
        <time>2022-07-26T23:34:07.062Z</time>
      </trkpt>
      <trkpt lat="43.408346" lon="3.670810">
        <ele>26.347242</ele>
        <time>2022-07-26T23:34:11.491Z</time>
      </trkpt>
      <trkpt lat="43.408549" lon="3.671322">
        <ele>25.861564</ele>
        <time>2022-07-26T23:34:19.642Z</time>
      </trkpt>
      <trkpt lat="43.408903" lon="3.672074">
        <ele>24.741636</ele>
        <time>2022-07-26T23:34:31.401Z</time>
      </trkpt>
      <trkpt lat="43.409183" lon="3.672781">
        <ele>23.731546</ele>
        <time>2022-07-26T23:34:41.652Z</time>
      </trkpt>
      <trkpt lat="43.409222" lon="3.672889">
        <ele>23.580256</ele>
        <time>2022-07-26T23:34:43.186Z</time>
      </trkpt>
      <trkpt lat="43.409301" lon="3.673102">
        <ele>23.280261</ele>
        <time>2022-07-26T23:34:46.330Z</time>
      </trkpt>
      <trkpt lat="43.409328" lon="3.673174">
        <ele>23.178622</ele>
        <time>2022-07-26T23:34:47.397Z</time>
      </trkpt>
      <trkpt lat="43.409540" lon="3.673780">
        <ele>22.454446</ele>
        <time>2022-07-26T23:34:56.183Z</time>
      </trkpt>
      <trkpt lat="43.409848" lon="3.675039">
        <ele>21.270624</ele>
        <time>2022-07-26T23:35:13.659Z</time>
      </trkpt>
      <trkpt lat="43.409957" lon="3.675507">
        <ele>20.832674</ele>
        <time>2022-07-26T23:35:20.545Z</time>
      </trkpt>
      <trkpt lat="43.410157" lon="3.676343">
        <ele>20.670832</ele>
        <time>2022-07-26T23:35:34.757Z</time>
      </trkpt>
      <trkpt lat="43.410282" lon="3.676863">
        <ele>20.799017</ele>
        <time>2022-07-26T23:35:44.239Z</time>
      </trkpt>
      <trkpt lat="43.410354" lon="3.677130">
        <ele>20.865670</ele>
        <time>2022-07-26T23:35:49.252Z</time>
      </trkpt>
      <trkpt lat="43.410503" lon="3.677712">
        <ele>21.010086</ele>
        <time>2022-07-26T23:36:00.408Z</time>
      </trkpt>
      <trkpt lat="43.410724" lon="3.678260">
        <ele>21.043821</ele>
        <time>2022-07-26T23:36:11.899Z</time>
      </trkpt>
      <trkpt lat="43.411026" lon="3.679005">
        <ele>20.616586</ele>
        <time>2022-07-26T23:36:26.656Z</time>
      </trkpt>
      <trkpt lat="43.411067" lon="3.679117">
        <ele>20.553780</ele>
        <time>2022-07-26T23:36:28.605Z</time>
      </trkpt>
      <trkpt lat="43.411192" lon="3.679425">
        <ele>20.377102</ele>
        <time>2022-07-26T23:36:33.687Z</time>
      </trkpt>
      <trkpt lat="43.411649" lon="3.680614">
        <ele>18.991570</ele>
        <time>2022-07-26T23:36:51.184Z</time>
      </trkpt>
      <trkpt lat="43.411915" lon="3.681171">
        <ele>17.318330</ele>
        <time>2022-07-26T23:36:59.202Z</time>
      </trkpt>
      <trkpt lat="43.412095" lon="3.681528">
        <ele>16.227496</ele>
        <time>2022-07-26T23:37:04.265Z</time>
      </trkpt>
      <trkpt lat="43.412137" lon="3.681618">
        <ele>15.958981</ele>
        <time>2022-07-26T23:37:05.491Z</time>
      </trkpt>
      <trkpt lat="43.412479" lon="3.682367">
        <ele>13.738307</ele>
        <time>2022-07-26T23:37:15.346Z</time>
      </trkpt>
      <trkpt lat="43.412837" lon="3.683612">
        <ele>9.938928</ele>
        <time>2022-07-26T23:37:30.252Z</time>
      </trkpt>
      <trkpt lat="43.412883" lon="3.684004">
        <ele>8.809347</ele>
        <time>2022-07-26T23:37:34.770Z</time>
      </trkpt>
      <trkpt lat="43.412873" lon="3.684173">
        <ele>8.326999</ele>
        <time>2022-07-26T23:37:36.758Z</time>
      </trkpt>
      <trkpt lat="43.412850" lon="3.684369">
        <ele>7.762209</ele>
        <time>2022-07-26T23:37:39.059Z</time>
      </trkpt>
      <trkpt lat="43.412807" lon="3.684571">
        <ele>7.163413</ele>
        <time>2022-07-26T23:37:41.553Z</time>
      </trkpt>
      <trkpt lat="43.412451" lon="3.685719">
        <ele>5.680363</ele>
        <time>2022-07-26T23:37:57.228Z</time>
      </trkpt>
      <trkpt lat="43.412314" lon="3.686293">
        <ele>5.142532</ele>
        <time>2022-07-26T23:38:06.051Z</time>
      </trkpt>
      <trkpt lat="43.411896" lon="3.687883">
        <ele>4.293135</ele>
        <time>2022-07-26T23:38:33.346Z</time>
      </trkpt>
      <trkpt lat="43.411862" lon="3.688058">
        <ele>4.267337</ele>
        <time>2022-07-26T23:38:36.216Z</time>
      </trkpt>
      <trkpt lat="43.411845" lon="3.688232">
        <ele>4.242334</ele>
        <time>2022-07-26T23:38:38.938Z</time>
      </trkpt>
      <trkpt lat="43.411719" lon="3.688963">
        <ele>4.135341</ele>
        <time>2022-07-26T23:38:50.323Z</time>
      </trkpt>
      <trkpt lat="43.411650" lon="3.689881">
        <ele>3.982646</ele>
        <time>2022-07-26T23:39:04.417Z</time>
      </trkpt>
      <trkpt lat="43.411559" lon="3.691067">
        <ele>3.754101</ele>
        <time>2022-07-26T23:39:23.231Z</time>
      </trkpt>
      <trkpt lat="43.411494" lon="3.691756">
        <ele>3.620955</ele>
        <time>2022-07-26T23:39:33.744Z</time>
      </trkpt>
      <trkpt lat="43.411409" lon="3.691927">
        <ele>3.581724</ele>
        <time>2022-07-26T23:39:36.900Z</time>
      </trkpt>
      <trkpt lat="43.411348" lon="3.692008">
        <ele>3.560466</ele>
        <time>2022-07-26T23:39:38.667Z</time>
      </trkpt>
      <trkpt lat="43.411360" lon="3.692125">
        <ele>3.538936</ele>
        <time>2022-07-26T23:39:40.448Z</time>
      </trkpt>
      <trkpt lat="43.411436" lon="3.692178">
        <ele>3.517567</ele>
        <time>2022-07-26T23:39:42.341Z</time>
      </trkpt>
      <trkpt lat="43.411457" lon="3.692175">
        <ele>3.512272</ele>
        <time>2022-07-26T23:39:42.801Z</time>
      </trkpt>
      <trkpt lat="43.411476" lon="3.692166">
        <ele>3.507232</ele>
        <time>2022-07-26T23:39:43.250Z</time>
      </trkpt>
      <trkpt lat="43.411604" lon="3.692350">
        <ele>3.460813</ele>
        <time>2022-07-26T23:39:47.244Z</time>
      </trkpt>
      <trkpt lat="43.411904" lon="3.692955">
        <ele>3.327345</ele>
        <time>2022-07-26T23:39:59.210Z</time>
      </trkpt>
      <trkpt lat="43.411912" lon="3.692972">
        <ele>3.323654</ele>
        <time>2022-07-26T23:39:59.547Z</time>
      </trkpt>
      <trkpt lat="43.412107" lon="3.693347">
        <ele>3.239626</ele>
        <time>2022-07-26T23:40:06.867Z</time>
      </trkpt>
      <trkpt lat="43.412183" lon="3.693662">
        <ele>3.179148</ele>
        <time>2022-07-26T23:40:11.941Z</time>
      </trkpt>
      <trkpt lat="43.412021" lon="3.693840">
        <ele>3.106485</ele>
        <time>2022-07-26T23:40:16.000Z</time>
      </trkpt>
      <trkpt lat="43.411876" lon="3.693767">
        <ele>3.004406</ele>
        <time>2022-07-26T23:40:19.051Z</time>
      </trkpt>
      <trkpt lat="43.411851" lon="3.693555">
        <ele>2.901252</ele>
        <time>2022-07-26T23:40:22.122Z</time>
      </trkpt>
      <trkpt lat="43.411906" lon="3.693306">
        <ele>2.776254</ele>
        <time>2022-07-26T23:40:25.915Z</time>
      </trkpt>
      <trkpt lat="43.411973" lon="3.693232">
        <ele>2.719461</ele>
        <time>2022-07-26T23:40:27.639Z</time>
      </trkpt>
      <trkpt lat="43.412133" lon="3.693087">
        <ele>2.592810</ele>
        <time>2022-07-26T23:40:31.500Z</time>
      </trkpt>
      <trkpt lat="43.412410" lon="3.692956">
        <ele>2.399162</ele>
        <time>2022-07-26T23:40:37.491Z</time>
      </trkpt>
      <trkpt lat="43.412837" lon="3.692874">
        <ele>2.114113</ele>
        <time>2022-07-26T23:40:46.046Z</time>
      </trkpt>
      <trkpt lat="43.412958" lon="3.692957">
        <ele>2.024731</ele>
        <time>2022-07-26T23:40:48.827Z</time>
      </trkpt>
      <trkpt lat="43.413014" lon="3.692995">
        <ele>1.983453</ele>
        <time>2022-07-26T23:40:50.102Z</time>
      </trkpt>
      <trkpt lat="43.413179" lon="3.693217">
        <ele>1.824596</ele>
        <time>2022-07-26T23:40:54.655Z</time>
      </trkpt>
      <trkpt lat="43.413259" lon="3.693403">
        <ele>1.715304</ele>
        <time>2022-07-26T23:40:57.793Z</time>
      </trkpt>
      <trkpt lat="43.413364" lon="3.693927">
        <ele>1.440468</ele>
        <time>2022-07-26T23:41:05.489Z</time>
      </trkpt>
      <trkpt lat="43.413419" lon="3.694194">
        <ele>1.300146</ele>
        <time>2022-07-26T23:41:09.368Z</time>
      </trkpt>
      <trkpt lat="43.413432" lon="3.694255">
        <ele>1.268004</ele>
        <time>2022-07-26T23:41:10.310Z</time>
      </trkpt>
      <trkpt lat="43.413448" lon="3.694336">
        <ele>1.225563</ele>
        <time>2022-07-26T23:41:11.547Z</time>
      </trkpt>
      <trkpt lat="43.413494" lon="3.694566">
        <ele>1.104945</ele>
        <time>2022-07-26T23:41:14.868Z</time>
      </trkpt>
      <trkpt lat="43.413548" lon="3.694828">
        <ele>0.967246</ele>
        <time>2022-07-26T23:41:19.030Z</time>
      </trkpt>
      <trkpt lat="43.413864" lon="3.696406">
        <ele>0.585537</ele>
        <time>2022-07-26T23:41:43.803Z</time>
      </trkpt>
      <trkpt lat="43.414247" lon="3.698260">
        <ele>0.361095</ele>
        <time>2022-07-26T23:42:15.591Z</time>
      </trkpt>
      <trkpt lat="43.415194" lon="3.703005">
        <ele>-0.422831</ele>
        <time>2022-07-26T23:43:31.006Z</time>
      </trkpt>
      <trkpt lat="43.415335" lon="3.703481">
        <ele>-0.392506</ele>
        <time>2022-07-26T23:43:39.793Z</time>
      </trkpt>
      <trkpt lat="43.415402" lon="3.703546">
        <ele>-0.385850</ele>
        <time>2022-07-26T23:43:41.876Z</time>
      </trkpt>
      <trkpt lat="43.415418" lon="3.704089">
        <ele>-0.353791</ele>
        <time>2022-07-26T23:43:51.162Z</time>
      </trkpt>
      <trkpt lat="43.415676" lon="3.705003">
        <ele>-0.250486</ele>
        <time>2022-07-26T23:44:07.623Z</time>
      </trkpt>
      <trkpt lat="43.415887" lon="3.705505">
        <ele>-0.084800</ele>
        <time>2022-07-26T23:44:17.974Z</time>
      </trkpt>
      <trkpt lat="43.416251" lon="3.706372">
        <ele>0.201273</ele>
        <time>2022-07-26T23:44:34.898Z</time>
      </trkpt>
      <trkpt lat="43.416222" lon="3.706396">
        <ele>0.214580</ele>
        <time>2022-07-26T23:44:35.764Z</time>
      </trkpt>
      <trkpt lat="43.416098" lon="3.706497">
        <ele>0.271243</ele>
        <time>2022-07-26T23:44:39.239Z</time>
      </trkpt>
      <trkpt lat="43.416057" lon="3.706638">
        <ele>0.314630</ele>
        <time>2022-07-26T23:44:41.886Z</time>
      </trkpt>
      <trkpt lat="43.416081" lon="3.706749">
        <ele>0.347715</ele>
        <time>2022-07-26T23:44:44.147Z</time>
      </trkpt>
      <trkpt lat="43.416615" lon="3.707617">
        <ele>0.772771</ele>
        <time>2022-07-26T23:45:05.401Z</time>
      </trkpt>
      <trkpt lat="43.416857" lon="3.708363">
        <ele>1.091733</ele>
        <time>2022-07-26T23:45:20.781Z</time>
      </trkpt>
      <trkpt lat="43.416963" lon="3.708525">
        <ele>1.176854</ele>
        <time>2022-07-26T23:45:24.848Z</time>
      </trkpt>
      <trkpt lat="43.417859" lon="3.709299">
        <ele>1.421166</ele>
        <time>2022-07-26T23:45:50.498Z</time>
      </trkpt>
      <trkpt lat="43.418423" lon="3.709620">
        <ele>1.468642</ele>
        <time>2022-07-26T23:46:04.619Z</time>
      </trkpt>
      <trkpt lat="43.418576" lon="3.709788">
        <ele>1.483866</ele>
        <time>2022-07-26T23:46:09.052Z</time>
      </trkpt>
      <trkpt lat="43.418864" lon="3.710382">
        <ele>1.480945</ele>
        <time>2022-07-26T23:46:20.784Z</time>
      </trkpt>
      <trkpt lat="43.419151" lon="3.711857">
        <ele>1.359795</ele>
        <time>2022-07-26T23:46:45.705Z</time>
      </trkpt>
      <trkpt lat="43.419436" lon="3.713322">
        <ele>1.368064</ele>
        <time>2022-07-26T23:47:11.181Z</time>
      </trkpt>
      <trkpt lat="43.419506" lon="3.713679">
        <ele>1.392401</ele>
        <time>2022-07-26T23:47:17.535Z</time>
      </trkpt>
      <trkpt lat="43.419901" lon="3.715672">
        <ele>1.516175</ele>
        <time>2022-07-26T23:47:53.390Z</time>
      </trkpt>
      <trkpt lat="43.420485" lon="3.718625">
        <ele>1.657578</ele>
        <time>2022-07-26T23:48:45.204Z</time>
      </trkpt>
      <trkpt lat="43.420911" lon="3.720699">
        <ele>2.005357</ele>
        <time>2022-07-26T23:49:22.014Z</time>
      </trkpt>
      <trkpt lat="43.420944" lon="3.721000">
        <ele>2.089287</ele>
        <time>2022-07-26T23:49:27.977Z</time>
      </trkpt>
      <trkpt lat="43.420909" lon="3.721343">
        <ele>2.184785</ele>
        <time>2022-07-26T23:49:34.644Z</time>
      </trkpt>
      <trkpt lat="43.420892" lon="3.721532">
        <ele>2.237293</ele>
        <time>2022-07-26T23:49:38.142Z</time>
      </trkpt>
      <trkpt lat="43.420847" lon="3.722026">
        <ele>2.374563</ele>
        <time>2022-07-26T23:49:47.050Z</time>
      </trkpt>
      <trkpt lat="43.420915" lon="3.722360">
        <ele>2.469282</ele>
        <time>2022-07-26T23:49:53.295Z</time>
      </trkpt>
      <trkpt lat="43.420990" lon="3.722727">
        <ele>2.573298</ele>
        <time>2022-07-26T23:49:59.897Z</time>
      </trkpt>
      <trkpt lat="43.421000" lon="3.722790">
        <ele>2.590892</ele>
        <time>2022-07-26T23:50:01.102Z</time>
      </trkpt>
      <trkpt lat="43.421020" lon="3.722890">
        <ele>2.619190</ele>
        <time>2022-07-26T23:50:02.989Z</time>
      </trkpt>
      <trkpt lat="43.421133" lon="3.723459">
        <ele>2.780126</ele>
        <time>2022-07-26T23:50:13.159Z</time>
      </trkpt>
      <trkpt lat="43.421089" lon="3.723745">
        <ele>2.859886</ele>
        <time>2022-07-26T23:50:18.404Z</time>
      </trkpt>
      <trkpt lat="43.420963" lon="3.723993">
        <ele>2.942457</ele>
        <time>2022-07-26T23:50:23.973Z</time>
      </trkpt>
      <trkpt lat="43.419798" lon="3.724431">
        <ele>3.487281</ele>
        <time>2022-07-26T23:50:53.291Z</time>
      </trkpt>
      <trkpt lat="43.419522" lon="3.724521">
        <ele>3.622573</ele>
        <time>2022-07-26T23:50:59.845Z</time>
      </trkpt>
      <trkpt lat="43.418659" lon="3.724624">
        <ele>3.857720</ele>
        <time>2022-07-26T23:51:21.104Z</time>
      </trkpt>
      <trkpt lat="43.418202" lon="3.724593">
        <ele>3.751321</ele>
        <time>2022-07-26T23:51:31.914Z</time>
      </trkpt>
      <trkpt lat="43.418085" lon="3.724580">
        <ele>3.724025</ele>
        <time>2022-07-26T23:51:34.619Z</time>
      </trkpt>
      <trkpt lat="43.417836" lon="3.724596">
        <ele>3.666060</ele>
        <time>2022-07-26T23:51:40.005Z</time>
      </trkpt>
      <trkpt lat="43.417621" lon="3.724436">
        <ele>3.609228</ele>
        <time>2022-07-26T23:51:45.030Z</time>
      </trkpt>
      <trkpt lat="43.417489" lon="3.724207">
        <ele>3.559848</ele>
        <time>2022-07-26T23:51:49.180Z</time>
      </trkpt>
      <trkpt lat="43.417376" lon="3.724140">
        <ele>3.531238</ele>
        <time>2022-07-26T23:51:51.560Z</time>
      </trkpt>
      <trkpt lat="43.417160" lon="3.724147">
        <ele>3.407918</ele>
        <time>2022-07-26T23:51:55.641Z</time>
      </trkpt>
      <trkpt lat="43.417061" lon="3.724183">
        <ele>3.280656</ele>
        <time>2022-07-26T23:51:57.537Z</time>
      </trkpt>
      <trkpt lat="43.416767" lon="3.724295">
        <ele>2.901527</ele>
        <time>2022-07-26T23:52:03.218Z</time>
      </trkpt>
      <trkpt lat="43.416643" lon="3.724360">
        <ele>2.736620</ele>
        <time>2022-07-26T23:52:05.656Z</time>
      </trkpt>
      <trkpt lat="43.416467" lon="3.724605">
        <ele>2.425544</ele>
        <time>2022-07-26T23:52:10.399Z</time>
      </trkpt>
      <trkpt lat="43.416433" lon="3.724804">
        <ele>2.240989</ele>
        <time>2022-07-26T23:52:13.141Z</time>
      </trkpt>
      <trkpt lat="43.416471" lon="3.725106">
        <ele>1.964289</ele>
        <time>2022-07-26T23:52:17.346Z</time>
      </trkpt>
      <trkpt lat="43.416608" lon="3.725355">
        <ele>1.682291</ele>
        <time>2022-07-26T23:52:21.522Z</time>
      </trkpt>
      <trkpt lat="43.416692" lon="3.725415">
        <ele>1.564676</ele>
        <time>2022-07-26T23:52:23.294Z</time>
      </trkpt>
      <trkpt lat="43.416897" lon="3.725739">
        <ele>1.209264</ele>
        <time>2022-07-26T23:52:29.056Z</time>
      </trkpt>
      <trkpt lat="43.417029" lon="3.726120">
        <ele>0.972836</ele>
        <time>2022-07-26T23:52:34.853Z</time>
      </trkpt>
      <trkpt lat="43.417775" lon="3.727620">
        <ele>-0.045361</ele>
        <time>2022-07-26T23:53:01.373Z</time>
      </trkpt>
      <trkpt lat="43.418310" lon="3.729170">
        <ele>-0.382368</ele>
        <time>2022-07-26T23:53:28.079Z</time>
      </trkpt>
      <trkpt lat="43.420422" lon="3.735504">
        <ele>-1.124003</ele>
        <time>2022-07-26T23:55:17.012Z</time>
      </trkpt>
      <trkpt lat="43.421722" lon="3.739000">
        <ele>-0.301589</ele>
        <time>2022-07-26T23:56:25.221Z</time>
      </trkpt>
      <trkpt lat="43.423683" lon="3.745035">
        <ele>-0.127470</ele>
        <time>2022-07-26T23:58:12.313Z</time>
      </trkpt>
      <trkpt lat="43.423992" lon="3.745848">
        <ele>-0.088404</ele>
        <time>2022-07-26T23:58:26.817Z</time>
      </trkpt>
      <trkpt lat="43.424219" lon="3.746406">
        <ele>0.044582</ele>
        <time>2022-07-26T23:58:37.440Z</time>
      </trkpt>
      <trkpt lat="43.424507" lon="3.747074">
        <ele>0.206108</ele>
        <time>2022-07-26T23:58:50.573Z</time>
      </trkpt>
      <trkpt lat="43.424594" lon="3.747271">
        <ele>0.254048</ele>
        <time>2022-07-26T23:58:54.663Z</time>
      </trkpt>
      <trkpt lat="43.425138" lon="3.748476">
        <ele>0.807248</ele>
        <time>2022-07-26T23:59:19.878Z</time>
      </trkpt>
      <trkpt lat="43.425825" lon="3.749737">
        <ele>1.657332</ele>
        <time>2022-07-26T23:59:49.504Z</time>
      </trkpt>
      <trkpt lat="43.425968" lon="3.749958">
        <ele>1.782935</ele>
        <time>2022-07-26T23:59:55.063Z</time>
      </trkpt>
      <trkpt lat="43.426977" lon="3.751236">
        <ele>2.434001</ele>
        <time>2022-07-27T00:00:28.491Z</time>
      </trkpt>
      <trkpt lat="43.428118" lon="3.752465">
        <ele>2.546741</ele>
        <time>2022-07-27T00:01:00.911Z</time>
      </trkpt>
      <trkpt lat="43.429396" lon="3.753744">
        <ele>2.242465</ele>
        <time>2022-07-27T00:01:34.527Z</time>
      </trkpt>
      <trkpt lat="43.429610" lon="3.753930">
        <ele>2.164234</ele>
        <time>2022-07-27T00:01:39.829Z</time>
      </trkpt>
      <trkpt lat="43.430264" lon="3.754498">
        <ele>1.923615</ele>
        <time>2022-07-27T00:01:56.137Z</time>
      </trkpt>
      <trkpt lat="43.432272" lon="3.756028">
        <ele>1.218651</ele>
        <time>2022-07-27T00:02:44.669Z</time>
      </trkpt>
      <trkpt lat="43.433441" lon="3.756990">
        <ele>0.889410</ele>
        <time>2022-07-27T00:03:13.544Z</time>
      </trkpt>
      <trkpt lat="43.435454" lon="3.759005">
        <ele>0.896410</ele>
        <time>2022-07-27T00:04:08.792Z</time>
      </trkpt>
      <trkpt lat="43.435682" lon="3.759232">
        <ele>0.926337</ele>
        <time>2022-07-27T00:04:15.262Z</time>
      </trkpt>
      <trkpt lat="43.438253" lon="3.761821">
        <ele>1.110914</ele>
        <time>2022-07-27T00:05:28.056Z</time>
      </trkpt>
      <trkpt lat="43.439261" lon="3.762620">
        <ele>0.820148</ele>
        <time>2022-07-27T00:05:52.201Z</time>
      </trkpt>
      <trkpt lat="43.439417" lon="3.762708">
        <ele>0.731845</ele>
        <time>2022-07-27T00:05:55.533Z</time>
      </trkpt>
      <trkpt lat="43.440010" lon="3.763043">
        <ele>0.396110</ele>
        <time>2022-07-27T00:06:08.387Z</time>
      </trkpt>
      <trkpt lat="43.440954" lon="3.763430">
        <ele>-0.039351</ele>
        <time>2022-07-27T00:06:28.648Z</time>
      </trkpt>
      <trkpt lat="43.442008" lon="3.763669">
        <ele>0.034792</ele>
        <time>2022-07-27T00:06:52.329Z</time>
      </trkpt>
      <trkpt lat="43.443337" lon="3.763679">
        <ele>0.132258</ele>
        <time>2022-07-27T00:07:24.159Z</time>
      </trkpt>
      <trkpt lat="43.444451" lon="3.763476">
        <ele>0.178195</ele>
        <time>2022-07-27T00:07:49.013Z</time>
      </trkpt>
      <trkpt lat="43.445320" lon="3.763155">
        <ele>-0.360995</ele>
        <time>2022-07-27T00:08:07.258Z</time>
      </trkpt>
      <trkpt lat="43.446742" lon="3.762491">
        <ele>-1.119488</ele>
        <time>2022-07-27T00:08:36.835Z</time>
      </trkpt>
      <trkpt lat="43.447303" lon="3.762298">
        <ele>-1.342529</ele>
        <time>2022-07-27T00:08:48.971Z</time>
      </trkpt>
      <trkpt lat="43.447799" lon="3.762208">
        <ele>-1.535503</ele>
        <time>2022-07-27T00:08:59.923Z</time>
      </trkpt>
      <trkpt lat="43.448236" lon="3.762206">
        <ele>-1.351055</ele>
        <time>2022-07-27T00:09:10.203Z</time>
      </trkpt>
      <trkpt lat="43.449027" lon="3.762309">
        <ele>-0.916886</ele>
        <time>2022-07-27T00:09:29.914Z</time>
      </trkpt>
      <trkpt lat="43.449481" lon="3.762488">
        <ele>-0.658835</ele>
        <time>2022-07-27T00:09:41.881Z</time>
      </trkpt>
      <trkpt lat="43.450340" lon="3.763037">
        <ele>-0.379427</ele>
        <time>2022-07-27T00:10:05.643Z</time>
      </trkpt>
      <trkpt lat="43.454796" lon="3.767228">
        <ele>0.527015</ele>
        <time>2022-07-27T00:12:08.173Z</time>
      </trkpt>
      <trkpt lat="43.456535" lon="3.768269">
        <ele>0.436582</ele>
        <time>2022-07-27T00:12:49.856Z</time>
      </trkpt>
      <trkpt lat="43.457450" lon="3.768627">
        <ele>0.330454</ele>
        <time>2022-07-27T00:13:10.088Z</time>
      </trkpt>
      <trkpt lat="43.458092" lon="3.768790">
        <ele>0.426153</ele>
        <time>2022-07-27T00:13:24.313Z</time>
      </trkpt>
      <trkpt lat="43.458815" lon="3.768859">
        <ele>0.532396</ele>
        <time>2022-07-27T00:13:40.998Z</time>
      </trkpt>
      <trkpt lat="43.459643" lon="3.768825">
        <ele>0.950764</ele>
        <time>2022-07-27T00:14:01.491Z</time>
      </trkpt>
      <trkpt lat="43.460310" lon="3.768721">
        <ele>1.491425</ele>
        <time>2022-07-27T00:14:18.971Z</time>
      </trkpt>
      <trkpt lat="43.461502" lon="3.768317">
        <ele>2.237032</ele>
        <time>2022-07-27T00:14:50.447Z</time>
      </trkpt>
      <trkpt lat="43.462104" lon="3.768022">
        <ele>2.469674</ele>
        <time>2022-07-27T00:15:05.653Z</time>
      </trkpt>
      <trkpt lat="43.462441" lon="3.767831">
        <ele>2.602353</ele>
        <time>2022-07-27T00:15:14.014Z</time>
      </trkpt>
      <trkpt lat="43.464507" lon="3.766656">
        <ele>2.097045</ele>
        <time>2022-07-27T00:16:01.454Z</time>
      </trkpt>
      <trkpt lat="43.464875" lon="3.766558">
        <ele>1.874656</ele>
        <time>2022-07-27T00:16:09.202Z</time>
      </trkpt>
      <trkpt lat="43.465181" lon="3.766568">
        <ele>1.693044</ele>
        <time>2022-07-27T00:16:15.357Z</time>
      </trkpt>
      <trkpt lat="43.465710" lon="3.766790">
        <ele>1.364932</ele>
        <time>2022-07-27T00:16:26.246Z</time>
      </trkpt>
      <trkpt lat="43.465889" lon="3.767020">
        <ele>1.219708</ele>
        <time>2022-07-27T00:16:31.125Z</time>
      </trkpt>
      <trkpt lat="43.465982" lon="3.767192">
        <ele>1.136535</ele>
        <time>2022-07-27T00:16:34.279Z</time>
      </trkpt>
      <trkpt lat="43.466171" lon="3.767228">
        <ele>1.086690</ele>
        <time>2022-07-27T00:16:38.088Z</time>
      </trkpt>
      <trkpt lat="43.466285" lon="3.767118">
        <ele>1.050332</ele>
        <time>2022-07-27T00:16:40.891Z</time>
      </trkpt>
      <trkpt lat="43.466327" lon="3.766986">
        <ele>1.023004</ele>
        <time>2022-07-27T00:16:43.008Z</time>
      </trkpt>
      <trkpt lat="43.466429" lon="3.766753">
        <ele>0.971412</ele>
        <time>2022-07-27T00:16:47.040Z</time>
      </trkpt>
      <trkpt lat="43.466576" lon="3.766600">
        <ele>0.923284</ele>
        <time>2022-07-27T00:16:50.853Z</time>
      </trkpt>
      <trkpt lat="43.467016" lon="3.766290">
        <ele>0.794181</ele>
        <time>2022-07-27T00:17:01.568Z</time>
      </trkpt>
      <trkpt lat="43.467418" lon="3.766090">
        <ele>0.682524</ele>
        <time>2022-07-27T00:17:11.144Z</time>
      </trkpt>
      <trkpt lat="43.468114" lon="3.765992">
        <ele>0.913433</ele>
        <time>2022-07-27T00:17:27.652Z</time>
      </trkpt>
      <trkpt lat="43.468603" lon="3.766111">
        <ele>1.091898</ele>
        <time>2022-07-27T00:17:39.798Z</time>
      </trkpt>
      <trkpt lat="43.469139" lon="3.766427">
        <ele>1.301427</ele>
        <time>2022-07-27T00:17:53.840Z</time>
      </trkpt>
      <trkpt lat="43.470900" lon="3.767864">
        <ele>1.712111</ele>
        <time>2022-07-27T00:18:40.476Z</time>
      </trkpt>
      <trkpt lat="43.471230" lon="3.768138">
        <ele>1.904201</ele>
        <time>2022-07-27T00:18:49.381Z</time>
      </trkpt>
      <trkpt lat="43.473165" lon="3.769724">
        <ele>3.115434</ele>
        <time>2022-07-27T00:19:45.338Z</time>
      </trkpt>
      <trkpt lat="43.473707" lon="3.770048">
        <ele>3.460711</ele>
        <time>2022-07-27T00:19:59.956Z</time>
      </trkpt>
      <trkpt lat="43.474701" lon="3.770471">
        <ele>3.555144</ele>
        <time>2022-07-27T00:20:24.060Z</time>
      </trkpt>
      <trkpt lat="43.477522" lon="3.771663">
        <ele>3.269288</ele>
        <time>2022-07-27T00:21:26.753Z</time>
      </trkpt>
      <trkpt lat="43.480028" lon="3.772721">
        <ele>4.394007</ele>
        <time>2022-07-27T00:22:31.346Z</time>
      </trkpt>
      <trkpt lat="43.480404" lon="3.772847">
        <ele>4.553709</ele>
        <time>2022-07-27T00:22:40.477Z</time>
      </trkpt>
      <trkpt lat="43.481235" lon="3.772907">
        <ele>4.576993</ele>
        <time>2022-07-27T00:22:59.298Z</time>
      </trkpt>
      <trkpt lat="43.482077" lon="3.772850">
        <ele>4.340891</ele>
        <time>2022-07-27T00:23:17.102Z</time>
      </trkpt>
      <trkpt lat="43.486367" lon="3.772468">
        <ele>2.181031</ele>
        <time>2022-07-27T00:24:44.465Z</time>
      </trkpt>
      <trkpt lat="43.487599" lon="3.772365">
        <ele>2.078780</ele>
        <time>2022-07-27T00:25:11.625Z</time>
      </trkpt>
      <trkpt lat="43.488042" lon="3.772350">
        <ele>2.071059</ele>
        <time>2022-07-27T00:25:21.824Z</time>
      </trkpt>
      <trkpt lat="43.488437" lon="3.772433">
        <ele>2.171238</ele>
        <time>2022-07-27T00:25:31.043Z</time>
      </trkpt>
      <trkpt lat="43.489025" lon="3.772717">
        <ele>2.327452</ele>
        <time>2022-07-27T00:25:45.595Z</time>
      </trkpt>
      <trkpt lat="43.490269" lon="3.773542">
        <ele>2.738137</ele>
        <time>2022-07-27T00:26:17.700Z</time>
      </trkpt>
      <trkpt lat="43.491244" lon="3.774203">
        <ele>3.112024</ele>
        <time>2022-07-27T00:26:43.472Z</time>
      </trkpt>
      <trkpt lat="43.491513" lon="3.774375">
        <ele>3.279719</ele>
        <time>2022-07-27T00:26:50.650Z</time>
      </trkpt>
      <trkpt lat="43.492406" lon="3.774925">
        <ele>3.849107</ele>
        <time>2022-07-27T00:27:14.495Z</time>
      </trkpt>
      <trkpt lat="43.495006" lon="3.776613">
        <ele>6.292210</ele>
        <time>2022-07-27T00:28:27.899Z</time>
      </trkpt>
      <trkpt lat="43.495965" lon="3.777317">
        <ele>7.550928</ele>
        <time>2022-07-27T00:28:58.250Z</time>
      </trkpt>
      <trkpt lat="43.496410" lon="3.777836">
        <ele>7.903736</ele>
        <time>2022-07-27T00:29:14.027Z</time>
      </trkpt>
      <trkpt lat="43.496841" lon="3.778536">
        <ele>8.140165</ele>
        <time>2022-07-27T00:29:30.653Z</time>
      </trkpt>
      <trkpt lat="43.500329" lon="3.785262">
        <ele>5.851688</ele>
        <time>2022-07-27T00:31:33.354Z</time>
      </trkpt>
      <trkpt lat="43.500625" lon="3.785740">
        <ele>5.843464</ele>
        <time>2022-07-27T00:31:44.359Z</time>
      </trkpt>
      <trkpt lat="43.500767" lon="3.786019">
        <ele>5.874835</ele>
        <time>2022-07-27T00:31:50.051Z</time>
      </trkpt>
      <trkpt lat="43.500799" lon="3.786191">
        <ele>5.891180</ele>
        <time>2022-07-27T00:31:53.138Z</time>
      </trkpt>
      <trkpt lat="43.500792" lon="3.786269">
        <ele>5.898414</ele>
        <time>2022-07-27T00:31:54.351Z</time>
      </trkpt>
      <trkpt lat="43.500833" lon="3.786423">
        <ele>5.913513</ele>
        <time>2022-07-27T00:31:57.062Z</time>
      </trkpt>
      <trkpt lat="43.500905" lon="3.786487">
        <ele>5.924384</ele>
        <time>2022-07-27T00:31:59.040Z</time>
      </trkpt>
      <trkpt lat="43.500957" lon="3.786498">
        <ele>5.931060</ele>
        <time>2022-07-27T00:32:00.345Z</time>
      </trkpt>
      <trkpt lat="43.501395" lon="3.787278">
        <ele>6.021853</ele>
        <time>2022-07-27T00:32:16.799Z</time>
      </trkpt>
      <trkpt lat="43.501796" lon="3.788063">
        <ele>5.860323</ele>
        <time>2022-07-27T00:32:31.852Z</time>
      </trkpt>
      <trkpt lat="43.502316" lon="3.788897">
        <ele>5.645040</ele>
        <time>2022-07-27T00:32:48.345Z</time>
      </trkpt>
      <trkpt lat="43.502691" lon="3.789436">
        <ele>5.536444</ele>
        <time>2022-07-27T00:32:59.409Z</time>
      </trkpt>
      <trkpt lat="43.503342" lon="3.790169">
        <ele>5.494813</ele>
        <time>2022-07-27T00:33:17.735Z</time>
      </trkpt>
      <trkpt lat="43.503693" lon="3.790479">
        <ele>5.474168</ele>
        <time>2022-07-27T00:33:27.124Z</time>
      </trkpt>
      <trkpt lat="43.503966" lon="3.790719">
        <ele>5.458131</ele>
        <time>2022-07-27T00:33:34.544Z</time>
      </trkpt>
      <trkpt lat="43.504616" lon="3.791374">
        <ele>5.778261</ele>
        <time>2022-07-27T00:33:53.719Z</time>
      </trkpt>
      <trkpt lat="43.505015" lon="3.791857">
        <ele>6.004052</ele>
        <time>2022-07-27T00:34:06.720Z</time>
      </trkpt>
      <trkpt lat="43.505793" lon="3.792989">
        <ele>6.272170</ele>
        <time>2022-07-27T00:34:33.985Z</time>
      </trkpt>
      <trkpt lat="43.505919" lon="3.793189">
        <ele>6.288086</ele>
        <time>2022-07-27T00:34:38.487Z</time>
      </trkpt>
      <trkpt lat="43.511698" lon="3.802405">
        <ele>7.270819</ele>
        <time>2022-07-27T00:37:56.424Z</time>
      </trkpt>
      <trkpt lat="43.512661" lon="3.804012">
        <ele>8.461317</ele>
        <time>2022-07-27T00:38:35.280Z</time>
      </trkpt>
      <trkpt lat="43.512920" lon="3.804436">
        <ele>9.037841</ele>
        <time>2022-07-27T00:38:46.492Z</time>
      </trkpt>
      <trkpt lat="43.513112" lon="3.804716">
        <ele>9.438589</ele>
        <time>2022-07-27T00:38:54.330Z</time>
      </trkpt>
      <trkpt lat="43.513556" lon="3.805192">
        <ele>10.245084</ele>
        <time>2022-07-27T00:39:10.017Z</time>
      </trkpt>
      <trkpt lat="43.513905" lon="3.805552">
        <ele>11.397751</ele>
        <time>2022-07-27T00:39:22.483Z</time>
      </trkpt>
      <trkpt lat="43.514675" lon="3.806205">
        <ele>14.595480</ele>
        <time>2022-07-27T00:39:54.367Z</time>
      </trkpt>
      <trkpt lat="43.515153" lon="3.806530">
        <ele>16.480750</ele>
        <time>2022-07-27T00:40:16.103Z</time>
      </trkpt>
      <trkpt lat="43.516327" lon="3.807445">
        <ele>23.411616</ele>
        <time>2022-07-27T00:41:15.574Z</time>
      </trkpt>
      <trkpt lat="43.517377" lon="3.808344">
        <ele>29.120360</ele>
        <time>2022-07-27T00:42:08.668Z</time>
      </trkpt>
      <trkpt lat="43.517774" lon="3.808641">
        <ele>30.957299</ele>
        <time>2022-07-27T00:42:25.716Z</time>
      </trkpt>
      <trkpt lat="43.518013" lon="3.808735">
        <ele>31.968099</ele>
        <time>2022-07-27T00:42:34.905Z</time>
      </trkpt>
      <trkpt lat="43.518075" lon="3.808756">
        <ele>32.227754</ele>
        <time>2022-07-27T00:42:37.094Z</time>
      </trkpt>
      <trkpt lat="43.519002" lon="3.809080">
        <ele>35.003527</ele>
        <time>2022-07-27T00:43:09.491Z</time>
      </trkpt>
      <trkpt lat="43.519415" lon="3.809347">
        <ele>36.007297</ele>
        <time>2022-07-27T00:43:24.014Z</time>
      </trkpt>
      <trkpt lat="43.519890" lon="3.809805">
        <ele>37.282753</ele>
        <time>2022-07-27T00:43:41.252Z</time>
      </trkpt>
      <trkpt lat="43.520108" lon="3.810086">
        <ele>37.688957</ele>
        <time>2022-07-27T00:43:49.440Z</time>
      </trkpt>
      <trkpt lat="43.521150" lon="3.811663">
        <ele>38.160870</ele>
        <time>2022-07-27T00:44:25.225Z</time>
      </trkpt>
      <trkpt lat="43.522284" lon="3.813710">
        <ele>37.223173</ele>
        <time>2022-07-27T00:45:03.204Z</time>
      </trkpt>
      <trkpt lat="43.526446" lon="3.820022">
        <ele>32.491704</ele>
        <time>2022-07-27T00:47:04.015Z</time>
      </trkpt>
      <trkpt lat="43.527081" lon="3.820808">
        <ele>32.518605</ele>
        <time>2022-07-27T00:47:24.984Z</time>
      </trkpt>
      <trkpt lat="43.527918" lon="3.821570">
        <ele>33.016512</ele>
        <time>2022-07-27T00:47:51.126Z</time>
      </trkpt>
      <trkpt lat="43.528681" lon="3.822089">
        <ele>33.540726</ele>
        <time>2022-07-27T00:48:11.872Z</time>
      </trkpt>
      <trkpt lat="43.528799" lon="3.822148">
        <ele>33.618066</ele>
        <time>2022-07-27T00:48:14.860Z</time>
      </trkpt>
      <trkpt lat="43.528909" lon="3.822194">
        <ele>33.642945</ele>
        <time>2022-07-27T00:48:17.381Z</time>
      </trkpt>
      <trkpt lat="43.529575" lon="3.822478">
        <ele>33.717008</ele>
        <time>2022-07-27T00:48:33.059Z</time>
      </trkpt>
      <trkpt lat="43.530155" lon="3.822639">
        <ele>33.779864</ele>
        <time>2022-07-27T00:48:46.078Z</time>
      </trkpt>
      <trkpt lat="43.530633" lon="3.822702">
        <ele>33.860862</ele>
        <time>2022-07-27T00:48:56.761Z</time>
      </trkpt>
      <trkpt lat="43.531171" lon="3.822772">
        <ele>34.186640</ele>
        <time>2022-07-27T00:49:09.640Z</time>
      </trkpt>
      <trkpt lat="43.534201" lon="3.822909">
        <ele>36.027637</ele>
        <time>2022-07-27T00:50:26.531Z</time>
      </trkpt>
      <trkpt lat="43.543144" lon="3.823142">
        <ele>33.524117</ele>
        <time>2022-07-27T00:53:33.780Z</time>
      </trkpt>
      <trkpt lat="43.543982" lon="3.823177">
        <ele>34.880665</ele>
        <time>2022-07-27T00:53:58.888Z</time>
      </trkpt>
      <trkpt lat="43.544678" lon="3.823334">
        <ele>36.041357</ele>
        <time>2022-07-27T00:54:20.739Z</time>
      </trkpt>
      <trkpt lat="43.545602" lon="3.823708">
        <ele>36.680300</ele>
        <time>2022-07-27T00:54:47.732Z</time>
      </trkpt>
      <trkpt lat="43.546182" lon="3.824077">
        <ele>36.861478</ele>
        <time>2022-07-27T00:55:02.127Z</time>
      </trkpt>
      <trkpt lat="43.546695" lon="3.824532">
        <ele>36.828930</ele>
        <time>2022-07-27T00:55:13.903Z</time>
      </trkpt>
      <trkpt lat="43.547334" lon="3.825229">
        <ele>35.899878</ele>
        <time>2022-07-27T00:55:28.687Z</time>
      </trkpt>
      <trkpt lat="43.547747" lon="3.825815">
        <ele>35.224200</ele>
        <time>2022-07-27T00:55:39.939Z</time>
      </trkpt>
      <trkpt lat="43.548247" lon="3.826712">
        <ele>34.946150</ele>
        <time>2022-07-27T00:55:56.581Z</time>
      </trkpt>
      <trkpt lat="43.548679" lon="3.827748">
        <ele>34.952227</ele>
        <time>2022-07-27T00:56:16.423Z</time>
      </trkpt>
      <trkpt lat="43.550092" lon="3.831494">
        <ele>35.748328</ele>
        <time>2022-07-27T00:57:32.155Z</time>
      </trkpt>
      <trkpt lat="43.551901" lon="3.836303">
        <ele>31.470066</ele>
        <time>2022-07-27T00:58:45.720Z</time>
      </trkpt>
      <trkpt lat="43.552678" lon="3.838385">
        <ele>28.068502</ele>
        <time>2022-07-27T00:59:16.641Z</time>
      </trkpt>
      <trkpt lat="43.553633" lon="3.841101">
        <ele>21.062936</ele>
        <time>2022-07-27T00:59:51.743Z</time>
      </trkpt>
      <trkpt lat="43.554394" lon="3.843860">
        <ele>13.041734</ele>
        <time>2022-07-27T01:00:25.438Z</time>
      </trkpt>
      <trkpt lat="43.554623" lon="3.844691">
        <ele>11.334299</ele>
        <time>2022-07-27T01:00:35.964Z</time>
      </trkpt>
      <trkpt lat="43.554696" lon="3.844908">
        <ele>10.874837</ele>
        <time>2022-07-27T01:00:38.853Z</time>
      </trkpt>
      <trkpt lat="43.554850" lon="3.845333">
        <ele>9.962281</ele>
        <time>2022-07-27T01:00:44.663Z</time>
      </trkpt>
      <trkpt lat="43.555181" lon="3.846534">
        <ele>8.197630</ele>
        <time>2022-07-27T01:01:01.270Z</time>
      </trkpt>
      <trkpt lat="43.555427" lon="3.847413">
        <ele>7.734029</ele>
        <time>2022-07-27T01:01:14.314Z</time>
      </trkpt>
      <trkpt lat="43.555658" lon="3.848030">
        <ele>7.392347</ele>
        <time>2022-07-27T01:01:25.248Z</time>
      </trkpt>
      <trkpt lat="43.555912" lon="3.848366">
        <ele>7.331966</ele>
        <time>2022-07-27T01:01:33.874Z</time>
      </trkpt>
      <trkpt lat="43.556109" lon="3.848524">
        <ele>7.600751</ele>
        <time>2022-07-27T01:01:39.805Z</time>
      </trkpt>
      <trkpt lat="43.556532" lon="3.848702">
        <ele>8.122411</ele>
        <time>2022-07-27T01:01:51.694Z</time>
      </trkpt>
      <trkpt lat="43.557483" lon="3.848670">
        <ele>9.244553</ele>
        <time>2022-07-27T01:02:18.252Z</time>
      </trkpt>
      <trkpt lat="43.558315" lon="3.848723">
        <ele>10.275720</ele>
        <time>2022-07-27T01:02:41.791Z</time>
      </trkpt>
      <trkpt lat="43.559331" lon="3.848967">
        <ele>11.559015</ele>
        <time>2022-07-27T01:03:09.260Z</time>
      </trkpt>
      <trkpt lat="43.560307" lon="3.849249">
        <ele>12.682356</ele>
        <time>2022-07-27T01:03:35.216Z</time>
      </trkpt>
      <trkpt lat="43.560520" lon="3.849312">
        <ele>12.927347</ele>
        <time>2022-07-27T01:03:41.201Z</time>
      </trkpt>
      <trkpt lat="43.560678" lon="3.849361">
        <ele>13.109473</ele>
        <time>2022-07-27T01:03:45.596Z</time>
      </trkpt>
      <trkpt lat="43.561362" lon="3.849589">
        <ele>13.951002</ele>
        <time>2022-07-27T01:04:05.120Z</time>
      </trkpt>
      <trkpt lat="43.561788" lon="3.849717">
        <ele>14.523437</ele>
        <time>2022-07-27T01:04:17.100Z</time>
      </trkpt>
      <trkpt lat="43.562449" lon="3.849916">
        <ele>15.411730</ele>
        <time>2022-07-27T01:04:35.707Z</time>
      </trkpt>
      <trkpt lat="43.562911" lon="3.850053">
        <ele>16.013116</ele>
        <time>2022-07-27T01:04:48.763Z</time>
      </trkpt>
      <trkpt lat="43.563690" lon="3.850237">
        <ele>16.764943</ele>
        <time>2022-07-27T01:05:09.855Z</time>
      </trkpt>
      <trkpt lat="43.564764" lon="3.850198">
        <ele>17.734632</ele>
        <time>2022-07-27T01:05:37.261Z</time>
      </trkpt>
      <trkpt lat="43.565528" lon="3.850136">
        <ele>18.125308</ele>
        <time>2022-07-27T01:05:55.904Z</time>
      </trkpt>
      <trkpt lat="43.565625" lon="3.850129">
        <ele>18.174892</ele>
        <time>2022-07-27T01:05:58.275Z</time>
      </trkpt>
      <trkpt lat="43.566686" lon="3.850044">
        <ele>18.778962</ele>
        <time>2022-07-27T01:06:23.250Z</time>
      </trkpt>
      <trkpt lat="43.568411" lon="3.849932">
        <ele>20.209461</ele>
        <time>2022-07-27T01:07:07.225Z</time>
      </trkpt>
      <trkpt lat="43.569268" lon="3.849813">
        <ele>21.439514</ele>
        <time>2022-07-27T01:07:31.486Z</time>
      </trkpt>
      <trkpt lat="43.569945" lon="3.849909">
        <ele>22.411421</ele>
        <time>2022-07-27T01:07:51.158Z</time>
      </trkpt>
      <trkpt lat="43.570603" lon="3.849921">
        <ele>23.193417</ele>
        <time>2022-07-27T01:08:09.914Z</time>
      </trkpt>
      <trkpt lat="43.570998" lon="3.849839">
        <ele>23.654240</ele>
        <time>2022-07-27T01:08:20.594Z</time>
      </trkpt>
      <trkpt lat="43.571120" lon="3.849922">
        <ele>23.811157</ele>
        <time>2022-07-27T01:08:24.174Z</time>
      </trkpt>
      <trkpt lat="43.571418" lon="3.849911">
        <ele>24.155072</ele>
        <time>2022-07-27T01:08:31.799Z</time>
      </trkpt>
      <trkpt lat="43.571471" lon="3.849877">
        <ele>24.222498</ele>
        <time>2022-07-27T01:08:33.257Z</time>
      </trkpt>
      <trkpt lat="43.573335" lon="3.849296">
        <ele>25.936866</ele>
        <time>2022-07-27T01:09:22.209Z</time>
      </trkpt>
      <trkpt lat="43.573592" lon="3.849197">
        <ele>26.172163</ele>
        <time>2022-07-27T01:09:29.034Z</time>
      </trkpt>
      <trkpt lat="43.573886" lon="3.848967">
        <ele>26.530587</ele>
        <time>2022-07-27T01:09:37.431Z</time>
      </trkpt>
      <trkpt lat="43.574300" lon="3.848870">
        <ele>26.975964</ele>
        <time>2022-07-27T01:09:47.787Z</time>
      </trkpt>
      <trkpt lat="43.574395" lon="3.848855">
        <ele>27.077380</ele>
        <time>2022-07-27T01:09:50.183Z</time>
      </trkpt>
      <trkpt lat="43.574653" lon="3.848818">
        <ele>27.352492</ele>
        <time>2022-07-27T01:09:56.670Z</time>
      </trkpt>
      <trkpt lat="43.574656" lon="3.848879">
        <ele>27.399472</ele>
        <time>2022-07-27T01:09:59.733Z</time>
      </trkpt>
      <trkpt lat="43.574653" lon="3.848818">
        <ele>27.446452</ele>
        <time>2022-07-27T01:10:02.796Z</time>
      </trkpt>
      <trkpt lat="43.574854" lon="3.848792">
        <ele>27.660570</ele>
        <time>2022-07-27T01:10:08.253Z</time>
      </trkpt>
      <trkpt lat="43.575065" lon="3.848775">
        <ele>27.884741</ele>
        <time>2022-07-27T01:10:14.202Z</time>
      </trkpt>
      <trkpt lat="43.575169" lon="3.848782">
        <ele>27.995177</ele>
        <time>2022-07-27T01:10:17.257Z</time>
      </trkpt>
      <trkpt lat="43.575192" lon="3.848833">
        <ele>28.063440</ele>
        <time>2022-07-27T01:10:18.525Z</time>
      </trkpt>
      <trkpt lat="43.575226" lon="3.848871">
        <ele>28.197021</ele>
        <time>2022-07-27T01:10:19.802Z</time>
      </trkpt>
      <trkpt lat="43.575358" lon="3.848865">
        <ele>28.600291</ele>
        <time>2022-07-27T01:10:23.922Z</time>
      </trkpt>
      <trkpt lat="43.575404" lon="3.848793">
        <ele>28.812648</ele>
        <time>2022-07-27T01:10:26.202Z</time>
      </trkpt>
      <trkpt lat="43.575512" lon="3.848751">
        <ele>29.155255</ele>
        <time>2022-07-27T01:10:29.857Z</time>
      </trkpt>
      <trkpt lat="43.575643" lon="3.848666">
        <ele>29.597242</ele>
        <time>2022-07-27T01:10:34.689Z</time>
      </trkpt>
      <trkpt lat="43.575982" lon="3.848637">
        <ele>30.634336</ele>
        <time>2022-07-27T01:10:46.802Z</time>
      </trkpt>
      <trkpt lat="43.576637" lon="3.848547">
        <ele>32.644207</ele>
        <time>2022-07-27T01:11:12.339Z</time>
      </trkpt>
      <trkpt lat="43.577863" lon="3.848381">
        <ele>34.066095</ele>
        <time>2022-07-27T01:11:53.037Z</time>
      </trkpt>
      <trkpt lat="43.579065" lon="3.848277">
        <ele>33.182388</ele>
        <time>2022-07-27T01:12:14.905Z</time>
      </trkpt>
      <trkpt lat="43.580071" lon="3.848183">
        <ele>29.221005</ele>
        <time>2022-07-27T01:12:30.105Z</time>
      </trkpt>
      <trkpt lat="43.580284" lon="3.848169">
        <ele>28.383229</ele>
        <time>2022-07-27T01:12:33.360Z</time>
      </trkpt>
      <trkpt lat="43.580570" lon="3.848141">
        <ele>27.355766</ele>
        <time>2022-07-27T01:12:37.776Z</time>
      </trkpt>
      <trkpt lat="43.580832" lon="3.848116">
        <ele>26.758135</ele>
        <time>2022-07-27T01:12:41.930Z</time>
      </trkpt>
      <trkpt lat="43.581821" lon="3.848097">
        <ele>24.507342</ele>
        <time>2022-07-27T01:12:58.918Z</time>
      </trkpt>
      <trkpt lat="43.581907" lon="3.848104">
        <ele>24.311300</ele>
        <time>2022-07-27T01:13:00.524Z</time>
      </trkpt>
      <trkpt lat="43.582343" lon="3.848168">
        <ele>23.436180</ele>
        <time>2022-07-27T01:13:09.028Z</time>
      </trkpt>
      <trkpt lat="43.582530" lon="3.848202">
        <ele>23.622779</ele>
        <time>2022-07-27T01:13:13.051Z</time>
      </trkpt>
      <trkpt lat="43.583095" lon="3.848337">
        <ele>24.190050</ele>
        <time>2022-07-27T01:13:26.575Z</time>
      </trkpt>
      <trkpt lat="43.583303" lon="3.848387">
        <ele>24.398923</ele>
        <time>2022-07-27T01:13:32.418Z</time>
      </trkpt>
      <trkpt lat="43.583431" lon="3.848476">
        <ele>24.540710</ele>
        <time>2022-07-27T01:13:36.461Z</time>
      </trkpt>
      <trkpt lat="43.583556" lon="3.848665">
        <ele>24.724115</ele>
        <time>2022-07-27T01:13:42.160Z</time>
      </trkpt>
      <trkpt lat="43.583728" lon="3.848758">
        <ele>24.906862</ele>
        <time>2022-07-27T01:13:47.684Z</time>
      </trkpt>
      <trkpt lat="43.583899" lon="3.848878">
        <ele>25.096637</ele>
        <time>2022-07-27T01:13:53.817Z</time>
      </trkpt>
      <trkpt lat="43.584127" lon="3.849119">
        <ele>25.768596</ele>
        <time>2022-07-27T01:14:02.797Z</time>
      </trkpt>
      <trkpt lat="43.584751" lon="3.849853">
        <ele>28.134707</ele>
        <time>2022-07-27T01:14:29.601Z</time>
      </trkpt>
      <trkpt lat="43.585303" lon="3.851327">
        <ele>31.938535</ele>
        <time>2022-07-27T01:15:12.730Z</time>
      </trkpt>
      <trkpt lat="43.585620" lon="3.851761">
        <ele>33.576594</ele>
        <time>2022-07-27T01:15:29.302Z</time>
      </trkpt>
      <trkpt lat="43.586076" lon="3.852232">
        <ele>35.666142</ele>
        <time>2022-07-27T01:15:50.773Z</time>
      </trkpt>
      <trkpt lat="43.586621" lon="3.852796">
        <ele>38.011102</ele>
        <time>2022-07-27T01:16:16.184Z</time>
      </trkpt>
      <trkpt lat="43.586780" lon="3.852954">
        <ele>38.637277</ele>
        <time>2022-07-27T01:16:23.165Z</time>
      </trkpt>
      <trkpt lat="43.586837" lon="3.853013">
        <ele>38.864987</ele>
        <time>2022-07-27T01:16:25.767Z</time>
      </trkpt>
      <trkpt lat="43.587190" lon="3.853385">
        <ele>40.284431</ele>
        <time>2022-07-27T01:16:41.925Z</time>
      </trkpt>
      <trkpt lat="43.587577" lon="3.853792">
        <ele>41.839424</ele>
        <time>2022-07-27T01:16:58.981Z</time>
      </trkpt>
      <trkpt lat="43.587585" lon="3.853825">
        <ele>41.919990</ele>
        <time>2022-07-27T01:16:59.834Z</time>
      </trkpt>
      <trkpt lat="43.587821" lon="3.854183">
        <ele>42.840922</ele>
        <time>2022-07-27T01:17:11.142Z</time>
      </trkpt>
      <trkpt lat="43.587897" lon="3.854280">
        <ele>42.966821</ele>
        <time>2022-07-27T01:17:14.200Z</time>
      </trkpt>
      <trkpt lat="43.587979" lon="3.854376">
        <ele>43.097602</ele>
        <time>2022-07-27T01:17:17.452Z</time>
      </trkpt>
      <trkpt lat="43.588146" lon="3.854548">
        <ele>43.351042</ele>
        <time>2022-07-27T01:17:23.413Z</time>
      </trkpt>
      <trkpt lat="43.588371" lon="3.854779">
        <ele>43.692115</ele>
        <time>2022-07-27T01:17:31.042Z</time>
      </trkpt>
      <trkpt lat="43.588804" lon="3.855214">
        <ele>44.343506</ele>
        <time>2022-07-27T01:17:43.951Z</time>
      </trkpt>
      <trkpt lat="43.589418" lon="3.855835">
        <ele>45.297248</ele>
        <time>2022-07-27T01:18:03.007Z</time>
      </trkpt>
      <trkpt lat="43.589558" lon="3.856005">
        <ele>45.541459</ele>
        <time>2022-07-27T01:18:07.826Z</time>
      </trkpt>
      <trkpt lat="43.589580" lon="3.856045">
        <ele>45.589109</ele>
        <time>2022-07-27T01:18:08.833Z</time>
      </trkpt>
      <trkpt lat="43.589455" lon="3.856703">
        <ele>46.234477</ele>
        <time>2022-07-27T01:18:22.825Z</time>
      </trkpt>
      <trkpt lat="43.589514" lon="3.856753">
        <ele>46.325154</ele>
        <time>2022-07-27T01:18:24.722Z</time>
      </trkpt>
      <trkpt lat="43.589598" lon="3.856928">
        <ele>46.524328</ele>
        <time>2022-07-27T01:18:29.083Z</time>
      </trkpt>
      <trkpt lat="43.589610" lon="3.856985">
        <ele>46.580642</ele>
        <time>2022-07-27T01:18:30.495Z</time>
      </trkpt>
      <trkpt lat="43.589754" lon="3.856976">
        <ele>46.769452</ele>
        <time>2022-07-27T01:18:34.796Z</time>
      </trkpt>
      <trkpt lat="43.589994" lon="3.857155">
        <ele>47.126750</ele>
        <time>2022-07-27T01:18:43.096Z</time>
      </trkpt>
      <trkpt lat="43.590176" lon="3.857167">
        <ele>47.351929</ele>
        <time>2022-07-27T01:18:48.328Z</time>
      </trkpt>
      <trkpt lat="43.590350" lon="3.857092">
        <ele>47.559555</ele>
        <time>2022-07-27T01:18:53.909Z</time>
      </trkpt>
      <trkpt lat="43.590599" lon="3.857085">
        <ele>47.843232</ele>
        <time>2022-07-27T01:19:00.883Z</time>
      </trkpt>
      <trkpt lat="43.590752" lon="3.857156">
        <ele>48.027085</ele>
        <time>2022-07-27T01:19:05.434Z</time>
      </trkpt>
      <trkpt lat="43.590937" lon="3.857324">
        <ele>48.279300</ele>
        <time>2022-07-27T01:19:11.631Z</time>
      </trkpt>
      <trkpt lat="43.591011" lon="3.857397">
        <ele>48.382892</ele>
        <time>2022-07-27T01:19:14.217Z</time>
      </trkpt>
      <trkpt lat="43.591082" lon="3.857468">
        <ele>48.482747</ele>
        <time>2022-07-27T01:19:16.400Z</time>
      </trkpt>
      <trkpt lat="43.591192" lon="3.857575">
        <ele>48.636013</ele>
        <time>2022-07-27T01:19:20.011Z</time>
      </trkpt>
      <trkpt lat="43.591387" lon="3.857743">
        <ele>48.897819</ele>
        <time>2022-07-27T01:19:25.960Z</time>
      </trkpt>
      <trkpt lat="43.591423" lon="3.857751">
        <ele>48.939352</ele>
        <time>2022-07-27T01:19:26.787Z</time>
      </trkpt>
      <trkpt lat="43.591548" lon="3.857872">
        <ele>49.113237</ele>
        <time>2022-07-27T01:19:30.705Z</time>
      </trkpt>
      <trkpt lat="43.591933" lon="3.858279">
        <ele>48.957164</ele>
        <time>2022-07-27T01:19:42.072Z</time>
      </trkpt>
      <trkpt lat="43.592064" lon="3.858417">
        <ele>48.770140</ele>
        <time>2022-07-27T01:19:45.565Z</time>
      </trkpt>
      <trkpt lat="43.592221" lon="3.858583">
        <ele>48.545692</ele>
        <time>2022-07-27T01:19:49.478Z</time>
      </trkpt>
      <trkpt lat="43.592277" lon="3.858643">
        <ele>48.465237</ele>
        <time>2022-07-27T01:19:50.847Z</time>
      </trkpt>
      <trkpt lat="43.592758" lon="3.859164">
        <ele>47.771341</ele>
        <time>2022-07-27T01:20:02.034Z</time>
      </trkpt>
      <trkpt lat="43.593022" lon="3.859447">
        <ele>47.391986</ele>
        <time>2022-07-27T01:20:07.835Z</time>
      </trkpt>
      <trkpt lat="43.593376" lon="3.859834">
        <ele>46.133054</ele>
        <time>2022-07-27T01:20:15.589Z</time>
      </trkpt>
      <trkpt lat="43.593451" lon="3.859912">
        <ele>45.822364</ele>
        <time>2022-07-27T01:20:17.201Z</time>
      </trkpt>
      <trkpt lat="43.593586" lon="3.860054">
        <ele>45.260807</ele>
        <time>2022-07-27T01:20:20.083Z</time>
      </trkpt>
      <trkpt lat="43.593762" lon="3.860243">
        <ele>44.523041</ele>
        <time>2022-07-27T01:20:23.784Z</time>
      </trkpt>
      <trkpt lat="43.594172" lon="3.860694">
        <ele>42.788500</ele>
        <time>2022-07-27T01:20:32.131Z</time>
      </trkpt>
      <trkpt lat="43.594495" lon="3.861051">
        <ele>41.419482</ele>
        <time>2022-07-27T01:20:38.504Z</time>
      </trkpt>
      <trkpt lat="43.594962" lon="3.861566">
        <ele>39.131261</ele>
        <time>2022-07-27T01:20:47.689Z</time>
      </trkpt>
      <trkpt lat="43.595092" lon="3.861709">
        <ele>38.490222</ele>
        <time>2022-07-27T01:20:50.230Z</time>
      </trkpt>
      <trkpt lat="43.595246" lon="3.861878">
        <ele>37.731534</ele>
        <time>2022-07-27T01:20:53.276Z</time>
      </trkpt>
      <trkpt lat="43.595346" lon="3.861992">
        <ele>37.231390</ele>
        <time>2022-07-27T01:20:55.295Z</time>
      </trkpt>
      <trkpt lat="43.595751" lon="3.862418">
        <ele>35.267791</ele>
        <time>2022-07-27T01:21:03.371Z</time>
      </trkpt>
      <trkpt lat="43.595961" lon="3.862664">
        <ele>34.319092</ele>
        <time>2022-07-27T01:21:07.912Z</time>
      </trkpt>
      <trkpt lat="43.596785" lon="3.863551">
        <ele>32.901158</ele>
        <time>2022-07-27T01:21:26.671Z</time>
      </trkpt>
      <trkpt lat="43.596847" lon="3.863624">
        <ele>32.790580</ele>
        <time>2022-07-27T01:21:28.271Z</time>
      </trkpt>
      <trkpt lat="43.596894" lon="3.863678">
        <ele>32.707602</ele>
        <time>2022-07-27T01:21:29.483Z</time>
      </trkpt>
      <trkpt lat="43.597397" lon="3.864217">
        <ele>31.958616</ele>
        <time>2022-07-27T01:21:42.872Z</time>
      </trkpt>
      <trkpt lat="43.598215" lon="3.865091">
        <ele>32.234753</ele>
        <time>2022-07-27T01:22:06.698Z</time>
      </trkpt>
      <trkpt lat="43.598305" lon="3.865186">
        <ele>32.264998</ele>
        <time>2022-07-27T01:22:09.531Z</time>
      </trkpt>
      <trkpt lat="43.598613" lon="3.865530">
        <ele>32.370760</ele>
        <time>2022-07-27T01:22:19.402Z</time>
      </trkpt>
      <trkpt lat="43.598961" lon="3.865910">
        <ele>32.751382</ele>
        <time>2022-07-27T01:22:30.279Z</time>
      </trkpt>
      <trkpt lat="43.599020" lon="3.865979">
        <ele>32.850112</ele>
        <time>2022-07-27T01:22:32.146Z</time>
      </trkpt>
      <trkpt lat="43.599152" lon="3.866126">
        <ele>33.066654</ele>
        <time>2022-07-27T01:22:36.351Z</time>
      </trkpt>
      <trkpt lat="43.599768" lon="3.866801">
        <ele>34.070825</ele>
        <time>2022-07-27T01:22:56.626Z</time>
      </trkpt>
      <trkpt lat="43.600185" lon="3.867247">
        <ele>34.764169</ele>
        <time>2022-07-27T01:23:12.850Z</time>
      </trkpt>
      <trkpt lat="43.600255" lon="3.867323">
        <ele>34.959283</ele>
        <time>2022-07-27T01:23:15.950Z</time>
      </trkpt>
      <trkpt lat="43.600459" lon="3.867549">
        <ele>35.532356</ele>
        <time>2022-07-27T01:23:24.848Z</time>
      </trkpt>
      <trkpt lat="43.600483" lon="3.867576">
        <ele>35.600188</ele>
        <time>2022-07-27T01:23:25.921Z</time>
      </trkpt>
      <trkpt lat="43.600648" lon="3.867791">
        <ele>36.097282</ele>
        <time>2022-07-27T01:23:33.758Z</time>
      </trkpt>
      <trkpt lat="43.600687" lon="3.867835">
        <ele>36.207633</ele>
        <time>2022-07-27T01:23:35.403Z</time>
      </trkpt>
      <trkpt lat="43.600938" lon="3.868084">
        <ele>36.884828</ele>
        <time>2022-07-27T01:23:45.415Z</time>
      </trkpt>
      <trkpt lat="43.601157" lon="3.868307">
        <ele>37.481052</ele>
        <time>2022-07-27T01:23:53.613Z</time>
      </trkpt>
      <trkpt lat="43.601314" lon="3.868465">
        <ele>37.906729</ele>
        <time>2022-07-27T01:23:59.362Z</time>
      </trkpt>
      <trkpt lat="43.601500" lon="3.868709">
        <ele>38.468871</ele>
        <time>2022-07-27T01:24:06.755Z</time>
      </trkpt>
      <trkpt lat="43.601786" lon="3.869230">
        <ele>38.721662</ele>
        <time>2022-07-27T01:24:20.112Z</time>
      </trkpt>
      <trkpt lat="43.602024" lon="3.869653">
        <ele>38.785612</ele>
        <time>2022-07-27T01:24:30.563Z</time>
      </trkpt>
      <trkpt lat="43.602244" lon="3.870071">
        <ele>38.847301</ele>
        <time>2022-07-27T01:24:39.263Z</time>
      </trkpt>
      <trkpt lat="43.602265" lon="3.870107">
        <ele>38.852820</ele>
        <time>2022-07-27T01:24:39.919Z</time>
      </trkpt>
      <trkpt lat="43.602488" lon="3.870529">
        <ele>38.915186</ele>
        <time>2022-07-27T01:24:47.186Z</time>
      </trkpt>
      <trkpt lat="43.602512" lon="3.870574">
        <ele>38.921858</ele>
        <time>2022-07-27T01:24:47.912Z</time>
      </trkpt>
      <trkpt lat="43.602721" lon="3.870963">
        <ele>38.792750</ele>
        <time>2022-07-27T01:24:54.211Z</time>
      </trkpt>
      <trkpt lat="43.602749" lon="3.871015">
        <ele>38.743402</ele>
        <time>2022-07-27T01:24:55.047Z</time>
      </trkpt>
      <trkpt lat="43.602870" lon="3.871242">
        <ele>38.528751</ele>
        <time>2022-07-27T01:24:58.724Z</time>
      </trkpt>
      <trkpt lat="43.603279" lon="3.871980">
        <ele>37.821039</ele>
        <time>2022-07-27T01:25:11.372Z</time>
      </trkpt>
      <trkpt lat="43.603520" lon="3.872393">
        <ele>37.417120</ele>
        <time>2022-07-27T01:25:19.112Z</time>
      </trkpt>
      <trkpt lat="43.603683" lon="3.872659">
        <ele>37.151760</ele>
        <time>2022-07-27T01:25:24.188Z</time>
      </trkpt>
      <trkpt lat="43.603719" lon="3.872723">
        <ele>37.090046</ele>
        <time>2022-07-27T01:25:25.372Z</time>
      </trkpt>
      <trkpt lat="43.604155" lon="3.873364">
        <ele>37.021806</ele>
        <time>2022-07-27T01:25:38.528Z</time>
      </trkpt>
      <trkpt lat="43.604177" lon="3.873391">
        <ele>37.019830</ele>
        <time>2022-07-27T01:25:39.202Z</time>
      </trkpt>
      <trkpt lat="43.604206" lon="3.873428">
        <ele>37.017179</ele>
        <time>2022-07-27T01:25:40.046Z</time>
      </trkpt>
      <trkpt lat="43.604355" lon="3.873620">
        <ele>37.003495</ele>
        <time>2022-07-27T01:25:44.732Z</time>
      </trkpt>
      <trkpt lat="43.604425" lon="3.873716">
        <ele>36.996871</ele>
        <time>2022-07-27T01:25:47.123Z</time>
      </trkpt>
      <trkpt lat="43.604481" lon="3.873715">
        <ele>36.993111</ele>
        <time>2022-07-27T01:25:48.456Z</time>
      </trkpt>
      <trkpt lat="43.604878" lon="3.874201">
        <ele>36.957488</ele>
        <time>2022-07-27T01:26:00.432Z</time>
      </trkpt>
      <trkpt lat="43.605165" lon="3.874643">
        <ele>37.051892</ele>
        <time>2022-07-27T01:26:10.165Z</time>
      </trkpt>
      <trkpt lat="43.605228" lon="3.874722">
        <ele>37.098607</ele>
        <time>2022-07-27T01:26:12.209Z</time>
      </trkpt>
      <trkpt lat="43.605237" lon="3.874793">
        <ele>37.127259</ele>
        <time>2022-07-27T01:26:13.435Z</time>
      </trkpt>
      <trkpt lat="43.605270" lon="3.874966">
        <ele>37.198374</ele>
        <time>2022-07-27T01:26:16.424Z</time>
      </trkpt>
      <trkpt lat="43.605278" lon="3.875015">
        <ele>37.218341</ele>
        <time>2022-07-27T01:26:17.298Z</time>
      </trkpt>
      <trkpt lat="43.605289" lon="3.875176">
        <ele>37.282624</ele>
        <time>2022-07-27T01:26:20.165Z</time>
      </trkpt>
      <trkpt lat="43.605302" lon="3.875294">
        <ele>37.330069</ele>
        <time>2022-07-27T01:26:22.298Z</time>
      </trkpt>
      <trkpt lat="43.605198" lon="3.875732">
        <ele>37.513299</ele>
        <time>2022-07-27T01:26:30.581Z</time>
      </trkpt>
      <trkpt lat="43.605218" lon="3.875797">
        <ele>37.541373</ele>
        <time>2022-07-27T01:26:31.778Z</time>
      </trkpt>
      <trkpt lat="43.605405" lon="3.876148">
        <ele>37.714594</ele>
        <time>2022-07-27T01:26:39.664Z</time>
      </trkpt>
      <trkpt lat="43.605592" lon="3.876490">
        <ele>37.884946</ele>
        <time>2022-07-27T01:26:47.340Z</time>
      </trkpt>
      <trkpt lat="43.605735" lon="3.876691">
        <ele>38.082734</ele>
        <time>2022-07-27T01:26:52.560Z</time>
      </trkpt>
      <trkpt lat="43.605839" lon="3.876808">
        <ele>38.249932</ele>
        <time>2022-07-27T01:26:55.946Z</time>
      </trkpt>
      <trkpt lat="43.606094" lon="3.877084">
        <ele>38.653760</ele>
        <time>2022-07-27T01:27:04.434Z</time>
      </trkpt>
      <trkpt lat="43.606155" lon="3.877151">
        <ele>38.750908</ele>
        <time>2022-07-27T01:27:06.452Z</time>
      </trkpt>
      <trkpt lat="43.606216" lon="3.877249">
        <ele>38.867545</ele>
        <time>2022-07-27T01:27:09.031Z</time>
      </trkpt>
      <trkpt lat="43.606256" lon="3.877339">
        <ele>38.962855</ele>
        <time>2022-07-27T01:27:11.223Z</time>
      </trkpt>
      <trkpt lat="43.606288" lon="3.877405">
        <ele>39.034543</ele>
        <time>2022-07-27T01:27:12.839Z</time>
      </trkpt>
      <trkpt lat="43.606329" lon="3.877505">
        <ele>39.138262</ele>
        <time>2022-07-27T01:27:15.190Z</time>
      </trkpt>
      <trkpt lat="43.606378" lon="3.877706">
        <ele>39.329678</ele>
        <time>2022-07-27T01:27:19.752Z</time>
      </trkpt>
      <trkpt lat="43.606565" lon="3.877908">
        <ele>39.625595</ele>
        <time>2022-07-27T01:27:26.841Z</time>
      </trkpt>
      <trkpt lat="43.606971" lon="3.878326">
        <ele>40.163920</ele>
        <time>2022-07-27T01:27:41.568Z</time>
      </trkpt>
      <trkpt lat="43.607222" lon="3.878580">
        <ele>40.130201</ele>
        <time>2022-07-27T01:27:49.711Z</time>
      </trkpt>
      <trkpt lat="43.607249" lon="3.878589">
        <ele>40.127191</ele>
        <time>2022-07-27T01:27:50.423Z</time>
      </trkpt>
      <trkpt lat="43.607841" lon="3.879144">
        <ele>40.049656</ele>
        <time>2022-07-27T01:28:07.025Z</time>
      </trkpt>
      <trkpt lat="43.607876" lon="3.879176">
        <ele>40.045107</ele>
        <time>2022-07-27T01:28:07.926Z</time>
      </trkpt>
      <trkpt lat="43.607056" lon="3.879550">
        <ele>39.425069</ele>
        <time>2022-07-27T01:28:30.255Z</time>
      </trkpt>
      <trkpt lat="43.606236" lon="3.879924">
        <ele>37.354021</ele>
        <time>2022-07-27T01:28:52.590Z</time>
      </trkpt>
      <trkpt lat="43.605417" lon="3.880299">
        <ele>35.432040</ele>
        <time>2022-07-27T01:29:14.925Z</time>
      </trkpt>
      <trkpt lat="43.604597" lon="3.880673">
        <ele>34.167993</ele>
        <time>2022-07-27T01:29:37.256Z</time>
      </trkpt>
      <trkpt lat="43.603777" lon="3.881047">
        <ele>33.131327</ele>
        <time>2022-07-27T01:29:59.585Z</time>
      </trkpt>
      <trkpt lat="43.602957" lon="3.881421">
        <ele>34.146567</ele>
        <time>2022-07-27T01:30:21.913Z</time>
      </trkpt>
      <trkpt lat="43.602137" lon="3.881796">
        <ele>35.171814</ele>
        <time>2022-07-27T01:30:44.245Z</time>
      </trkpt>
      <trkpt lat="43.601318" lon="3.882170">
        <ele>36.751013</ele>
        <time>2022-07-27T01:31:06.579Z</time>
      </trkpt>
      <trkpt lat="43.600498" lon="3.882544">
        <ele>38.331951</ele>
        <time>2022-07-27T01:31:28.909Z</time>
      </trkpt>
      <trkpt lat="43.599678" lon="3.882919">
        <ele>38.047905</ele>
        <time>2022-07-27T01:31:51.238Z</time>
      </trkpt>
      <trkpt lat="43.599799" lon="3.883484">
        <ele>37.841782</ele>
        <time>2022-07-27T01:31:59.945Z</time>
      </trkpt>
      <trkpt lat="43.599948" lon="3.884223">
        <ele>37.573415</ele>
        <time>2022-07-27T01:32:10.380Z</time>
      </trkpt>
      <trkpt lat="43.599463" lon="3.884469">
        <ele>36.274301</ele>
        <time>2022-07-27T01:32:20.244Z</time>
      </trkpt>
      <trkpt lat="43.598964" lon="3.884750">
        <ele>34.897201</ele>
        <time>2022-07-27T01:32:29.941Z</time>
      </trkpt>
      <trkpt lat="43.599115" lon="3.885265">
        <ele>33.869003</ele>
        <time>2022-07-27T01:32:36.897Z</time>
      </trkpt>
      <trkpt lat="43.599036" lon="3.885311">
        <ele>33.649913</ele>
        <time>2022-07-27T01:32:38.295Z</time>
      </trkpt>
      <trkpt lat="43.598749" lon="3.885475">
        <ele>32.800729</ele>
        <time>2022-07-27T01:32:43.312Z</time>
      </trkpt>
      <trkpt lat="43.597990" lon="3.886002">
        <ele>29.591888</ele>
        <time>2022-07-27T01:32:56.646Z</time>
      </trkpt>
      <trkpt lat="43.597785" lon="3.886153">
        <ele>28.714305</ele>
        <time>2022-07-27T01:33:00.325Z</time>
      </trkpt>
      <trkpt lat="43.597643" lon="3.886325">
        <ele>28.000844</ele>
        <time>2022-07-27T01:33:03.272Z</time>
      </trkpt>
      <trkpt lat="43.597223" lon="3.886689">
        <ele>26.145522</ele>
        <time>2022-07-27T01:33:11.068Z</time>
      </trkpt>
      <trkpt lat="43.597130" lon="3.886768">
        <ele>25.876672</ele>
        <time>2022-07-27T01:33:12.805Z</time>
      </trkpt>
      <trkpt lat="43.596992" lon="3.886879">
        <ele>25.483435</ele>
        <time>2022-07-27T01:33:15.379Z</time>
      </trkpt>
      <trkpt lat="43.596944" lon="3.886919">
        <ele>25.345392</ele>
        <time>2022-07-27T01:33:16.293Z</time>
      </trkpt>
      <trkpt lat="43.596764" lon="3.887066">
        <ele>24.830473</ele>
        <time>2022-07-27T01:33:19.731Z</time>
      </trkpt>
      <trkpt lat="43.596661" lon="3.887150">
        <ele>24.535931</ele>
        <time>2022-07-27T01:33:21.740Z</time>
      </trkpt>
      <trkpt lat="43.596434" lon="3.887344">
        <ele>23.878605</ele>
        <time>2022-07-27T01:33:26.304Z</time>
      </trkpt>
      <trkpt lat="43.596267" lon="3.887477">
        <ele>23.403917</ele>
        <time>2022-07-27T01:33:29.700Z</time>
      </trkpt>
      <trkpt lat="43.595610" lon="3.887944">
        <ele>21.633153</ele>
        <time>2022-07-27T01:33:43.057Z</time>
      </trkpt>
      <trkpt lat="43.595574" lon="3.887967">
        <ele>21.564239</ele>
        <time>2022-07-27T01:33:43.766Z</time>
      </trkpt>
      <trkpt lat="43.595278" lon="3.888173">
        <ele>20.988364</ele>
        <time>2022-07-27T01:33:49.775Z</time>
      </trkpt>
      <trkpt lat="43.595184" lon="3.888239">
        <ele>20.805154</ele>
        <time>2022-07-27T01:33:51.672Z</time>
      </trkpt>
      <trkpt lat="43.595156" lon="3.888259">
        <ele>20.750386</ele>
        <time>2022-07-27T01:33:52.232Z</time>
      </trkpt>
      <trkpt lat="43.595004" lon="3.888365">
        <ele>20.454544</ele>
        <time>2022-07-27T01:33:55.272Z</time>
      </trkpt>
      <trkpt lat="43.594943" lon="3.888409">
        <ele>20.334978</ele>
        <time>2022-07-27T01:33:56.519Z</time>
      </trkpt>
      <trkpt lat="43.594888" lon="3.888448">
        <ele>20.227561</ele>
        <time>2022-07-27T01:33:57.649Z</time>
      </trkpt>
      <trkpt lat="43.594859" lon="3.888468">
        <ele>20.171244</ele>
        <time>2022-07-27T01:33:58.226Z</time>
      </trkpt>
      <trkpt lat="43.594629" lon="3.888629">
        <ele>19.723244</ele>
        <time>2022-07-27T01:34:02.857Z</time>
      </trkpt>
      <trkpt lat="43.594525" lon="3.888697">
        <ele>19.523328</ele>
        <time>2022-07-27T01:34:04.941Z</time>
      </trkpt>
      <trkpt lat="43.594143" lon="3.888954">
        <ele>18.785081</ele>
        <time>2022-07-27T01:34:12.529Z</time>
      </trkpt>
      <trkpt lat="43.593670" lon="3.889256">
        <ele>17.856091</ele>
        <time>2022-07-27T01:34:21.834Z</time>
      </trkpt>
      <trkpt lat="43.593579" lon="3.889311">
        <ele>17.678039</ele>
        <time>2022-07-27T01:34:23.626Z</time>
      </trkpt>
      <trkpt lat="43.593526" lon="3.889342">
        <ele>17.574869</ele>
        <time>2022-07-27T01:34:24.641Z</time>
      </trkpt>
      <trkpt lat="43.593457" lon="3.889383">
        <ele>17.440226</ele>
        <time>2022-07-27T01:34:25.973Z</time>
      </trkpt>
      <trkpt lat="43.593285" lon="3.889453">
        <ele>17.118818</ele>
        <time>2022-07-27T01:34:29.145Z</time>
      </trkpt>
      <trkpt lat="43.593083" lon="3.889578">
        <ele>16.722051</ele>
        <time>2022-07-27T01:34:32.987Z</time>
      </trkpt>
      <trkpt lat="43.593063" lon="3.889591">
        <ele>16.682429</ele>
        <time>2022-07-27T01:34:33.378Z</time>
      </trkpt>
      <trkpt lat="43.592970" lon="3.889636">
        <ele>16.505795</ele>
        <time>2022-07-27T01:34:35.089Z</time>
      </trkpt>
      <trkpt lat="43.592703" lon="3.889761">
        <ele>16.000459</ele>
        <time>2022-07-27T01:34:40.043Z</time>
      </trkpt>
      <trkpt lat="43.591976" lon="3.890349">
        <ele>14.937013</ele>
        <time>2022-07-27T01:35:01.849Z</time>
      </trkpt>
      <trkpt lat="43.591248" lon="3.890937">
        <ele>14.166737</ele>
        <time>2022-07-27T01:35:23.654Z</time>
      </trkpt>
      <trkpt lat="43.590520" lon="3.891526">
        <ele>13.583135</ele>
        <time>2022-07-27T01:35:45.459Z</time>
      </trkpt>
      <trkpt lat="43.589793" lon="3.892114">
        <ele>13.210805</ele>
        <time>2022-07-27T01:36:07.264Z</time>
      </trkpt>
      <trkpt lat="43.589065" lon="3.892702">
        <ele>12.805618</ele>
        <time>2022-07-27T01:36:29.068Z</time>
      </trkpt>
      <trkpt lat="43.588337" lon="3.893290">
        <ele>12.336489</ele>
        <time>2022-07-27T01:36:50.874Z</time>
      </trkpt>
      <trkpt lat="43.588335" lon="3.893297">
        <ele>12.333457</ele>
        <time>2022-07-27T01:36:50.996Z</time>
      </trkpt>
      <trkpt lat="43.588564" lon="3.894193">
        <ele>11.957438</ele>
        <time>2022-07-27T01:37:05.010Z</time>
      </trkpt>
      <trkpt lat="43.589523" lon="3.895627">
        <ele>11.596390</ele>
        <time>2022-07-27T01:37:34.731Z</time>
      </trkpt>
      <trkpt lat="43.590103" lon="3.896316">
        <ele>11.565403</ele>
        <time>2022-07-27T01:37:52.107Z</time>
      </trkpt>
      <trkpt lat="43.590438" lon="3.896857">
        <ele>11.644244</ele>
        <time>2022-07-27T01:38:04.367Z</time>
      </trkpt>
      <trkpt lat="43.590466" lon="3.896906">
        <ele>11.651158</ele>
        <time>2022-07-27T01:38:05.400Z</time>
      </trkpt>
      <trkpt lat="43.590528" lon="3.897008">
        <ele>11.665908</ele>
        <time>2022-07-27T01:38:07.664Z</time>
      </trkpt>
      <trkpt lat="43.591213" lon="3.898256">
        <ele>11.549722</ele>
        <time>2022-07-27T01:38:33.783Z</time>
      </trkpt>
      <trkpt lat="43.591334" lon="3.898509">
        <ele>11.422433</ele>
        <time>2022-07-27T01:38:38.272Z</time>
      </trkpt>
      <trkpt lat="43.591350" lon="3.898678">
        <ele>11.350876</ele>
        <time>2022-07-27T01:38:40.741Z</time>
      </trkpt>
      <trkpt lat="43.591445" lon="3.898757">
        <ele>11.286590</ele>
        <time>2022-07-27T01:38:43.148Z</time>
      </trkpt>
      <trkpt lat="43.591350" lon="3.898678">
        <ele>11.222304</ele>
        <time>2022-07-27T01:38:45.507Z</time>
      </trkpt>
      <trkpt lat="43.591046" lon="3.898709">
        <ele>11.045604</ele>
        <time>2022-07-27T01:38:51.869Z</time>
      </trkpt>
      <trkpt lat="43.590735" lon="3.898841">
        <ele>10.856999</ele>
        <time>2022-07-27T01:38:58.512Z</time>
      </trkpt>
      <trkpt lat="43.590371" lon="3.899009">
        <ele>10.591664</ele>
        <time>2022-07-27T01:39:06.077Z</time>
      </trkpt>
      <trkpt lat="43.590178" lon="3.899145">
        <ele>10.413152</ele>
        <time>2022-07-27T01:39:10.017Z</time>
      </trkpt>
      <trkpt lat="43.590090" lon="3.899374">
        <ele>10.258467</ele>
        <time>2022-07-27T01:39:13.728Z</time>
      </trkpt>
      <trkpt lat="43.590124" lon="3.899607">
        <ele>10.116644</ele>
        <time>2022-07-27T01:39:16.831Z</time>
      </trkpt>
      <trkpt lat="43.590430" lon="3.900374">
        <ele>9.594141</ele>
        <time>2022-07-27T01:39:29.350Z</time>
      </trkpt>
      <trkpt lat="43.590418" lon="3.900494">
        <ele>9.521859</ele>
        <time>2022-07-27T01:39:30.922Z</time>
      </trkpt>
      <trkpt lat="43.590315" lon="3.900581">
        <ele>9.422384</ele>
        <time>2022-07-27T01:39:33.607Z</time>
      </trkpt>
      <trkpt lat="43.588759" lon="3.900633">
        <ele>9.205037</ele>
        <time>2022-07-27T01:40:08.988Z</time>
      </trkpt>
      <trkpt lat="43.588489" lon="3.900551">
        <ele>9.194931</ele>
        <time>2022-07-27T01:40:15.345Z</time>
      </trkpt>
      <trkpt lat="43.588292" lon="3.900630">
        <ele>9.163623</ele>
        <time>2022-07-27T01:40:20.091Z</time>
      </trkpt>
      <trkpt lat="43.587956" lon="3.901028">
        <ele>8.851411</ele>
        <time>2022-07-27T01:40:29.711Z</time>
      </trkpt>
      <trkpt lat="43.587811" lon="3.901077">
        <ele>8.746136</ele>
        <time>2022-07-27T01:40:32.846Z</time>
      </trkpt>
      <trkpt lat="43.587362" lon="3.900910">
        <ele>8.418205</ele>
        <time>2022-07-27T01:40:42.441Z</time>
      </trkpt>
      <trkpt lat="43.587128" lon="3.900864">
        <ele>8.251519</ele>
        <time>2022-07-27T01:40:47.100Z</time>
      </trkpt>
      <trkpt lat="43.586770" lon="3.900946">
        <ele>7.995601</ele>
        <time>2022-07-27T01:40:54.335Z</time>
      </trkpt>
      <trkpt lat="43.586124" lon="3.901257">
        <ele>7.747149</ele>
        <time>2022-07-27T01:41:08.260Z</time>
      </trkpt>
      <trkpt lat="43.585786" lon="3.901444">
        <ele>7.637948</ele>
        <time>2022-07-27T01:41:16.064Z</time>
      </trkpt>
      <trkpt lat="43.585493" lon="3.901627">
        <ele>7.541505</ele>
        <time>2022-07-27T01:41:23.543Z</time>
      </trkpt>
      <trkpt lat="43.585194" lon="3.901828">
        <ele>7.441770</ele>
        <time>2022-07-27T01:41:31.613Z</time>
      </trkpt>
      <trkpt lat="43.583580" lon="3.902826">
        <ele>8.025152</ele>
        <time>2022-07-27T01:42:16.939Z</time>
      </trkpt>
      <trkpt lat="43.583129" lon="3.899023">
        <ele>7.456786</ele>
        <time>2022-07-27T01:43:18.598Z</time>
      </trkpt>
      <trkpt lat="43.583029" lon="3.898787">
        <ele>7.389069</ele>
        <time>2022-07-27T01:43:22.927Z</time>
      </trkpt>
      <trkpt lat="43.582546" lon="3.898068">
        <ele>7.146202</ele>
        <time>2022-07-27T01:43:38.226Z</time>
      </trkpt>
      <trkpt lat="43.581737" lon="3.898372">
        <ele>6.992037</ele>
        <time>2022-07-27T01:43:56.322Z</time>
      </trkpt>
      <trkpt lat="43.581466" lon="3.898600">
        <ele>6.942935</ele>
        <time>2022-07-27T01:44:03.387Z</time>
      </trkpt>
      <trkpt lat="43.581279" lon="3.898830">
        <ele>6.904185</ele>
        <time>2022-07-27T01:44:08.901Z</time>
      </trkpt>
      <trkpt lat="43.581331" lon="3.899168">
        <ele>6.865458</ele>
        <time>2022-07-27T01:44:14.391Z</time>
      </trkpt>
      <trkpt lat="43.581236" lon="3.899395">
        <ele>6.836076</ele>
        <time>2022-07-27T01:44:18.485Z</time>
      </trkpt>
      <trkpt lat="43.581093" lon="3.899406">
        <ele>6.833386</ele>
        <time>2022-07-27T01:44:21.525Z</time>
      </trkpt>
      <trkpt lat="43.581038" lon="3.899358">
        <ele>6.844269</ele>
        <time>2022-07-27T01:44:22.871Z</time>
      </trkpt>
      <trkpt lat="43.580899" lon="3.899348">
        <ele>6.867549</ele>
        <time>2022-07-27T01:44:25.831Z</time>
      </trkpt>
      <trkpt lat="43.580865" lon="3.899368">
        <ele>6.873730</ele>
        <time>2022-07-27T01:44:26.630Z</time>
      </trkpt>
      <trkpt lat="43.580765" lon="3.899542">
        <ele>6.900641</ele>
        <time>2022-07-27T01:44:30.029Z</time>
      </trkpt>
      <trkpt lat="43.580758" lon="3.899622">
        <ele>6.910404</ele>
        <time>2022-07-27T01:44:31.303Z</time>
      </trkpt>
      <trkpt lat="43.580796" lon="3.899777">
        <ele>6.930230</ele>
        <time>2022-07-27T01:44:34.013Z</time>
      </trkpt>
      <trkpt lat="43.580899" lon="3.899879">
        <ele>6.951432</ele>
        <time>2022-07-27T01:44:36.840Z</time>
      </trkpt>
      <trkpt lat="43.581082" lon="3.899834">
        <ele>6.982521</ele>
        <time>2022-07-27T01:44:41.230Z</time>
      </trkpt>
      <trkpt lat="43.581159" lon="3.899643">
        <ele>7.009005</ele>
        <time>2022-07-27T01:44:45.012Z</time>
      </trkpt>
      <trkpt lat="43.581158" lon="3.899569">
        <ele>7.017972</ele>
        <time>2022-07-27T01:44:46.310Z</time>
      </trkpt>
      <trkpt lat="43.581148" lon="3.899519">
        <ele>7.024257</ele>
        <time>2022-07-27T01:44:47.214Z</time>
      </trkpt>
      <trkpt lat="43.581093" lon="3.899406">
        <ele>7.040751</ele>
        <time>2022-07-27T01:44:49.654Z</time>
      </trkpt>
      <trkpt lat="43.581038" lon="3.899358">
        <ele>7.051635</ele>
        <time>2022-07-27T01:44:51.268Z</time>
      </trkpt>
      <trkpt lat="43.580977" lon="3.899177">
        <ele>7.075822</ele>
        <time>2022-07-27T01:44:54.679Z</time>
      </trkpt>
      <trkpt lat="43.581004" lon="3.898709">
        <ele>7.123577</ele>
        <time>2022-07-27T01:45:03.022Z</time>
      </trkpt>
      <trkpt lat="43.581011" lon="3.898559">
        <ele>7.122460</ele>
        <time>2022-07-27T01:45:05.650Z</time>
      </trkpt>
      <trkpt lat="43.581034" lon="3.898006">
        <ele>7.118344</ele>
        <time>2022-07-27T01:45:14.425Z</time>
      </trkpt>
      <trkpt lat="43.581040" lon="3.897886">
        <ele>7.117451</ele>
        <time>2022-07-27T01:45:16.377Z</time>
      </trkpt>
      <trkpt lat="43.581140" lon="3.897501">
        <ele>7.114412</ele>
        <time>2022-07-27T01:45:22.819Z</time>
      </trkpt>
      <trkpt lat="43.581309" lon="3.897379">
        <ele>7.112456</ele>
        <time>2022-07-27T01:45:27.152Z</time>
      </trkpt>
      <trkpt lat="43.581403" lon="3.897390">
        <ele>7.111488</ele>
        <time>2022-07-27T01:45:29.265Z</time>
      </trkpt>
      <trkpt lat="43.581539" lon="3.897290">
        <ele>7.109908</ele>
        <time>2022-07-27T01:45:32.613Z</time>
      </trkpt>
      <trkpt lat="43.581583" lon="3.897189">
        <ele>7.109032</ele>
        <time>2022-07-27T01:45:34.573Z</time>
      </trkpt>
      <trkpt lat="43.581586" lon="3.896998">
        <ele>7.107613</ele>
        <time>2022-07-27T01:45:37.636Z</time>
      </trkpt>
      <trkpt lat="43.581528" lon="3.896866">
        <ele>7.106466</ele>
        <time>2022-07-27T01:45:39.989Z</time>
      </trkpt>
      <trkpt lat="43.581375" lon="3.896780">
        <ele>7.066304</ele>
        <time>2022-07-27T01:45:43.703Z</time>
      </trkpt>
      <trkpt lat="43.581256" lon="3.896828">
        <ele>7.009749</ele>
        <time>2022-07-27T01:45:46.204Z</time>
      </trkpt>
      <trkpt lat="43.581186" lon="3.896925">
        <ele>6.964503</ele>
        <time>2022-07-27T01:45:48.296Z</time>
      </trkpt>
      <trkpt lat="43.581014" lon="3.896980">
        <ele>6.883963</ele>
        <time>2022-07-27T01:45:51.973Z</time>
      </trkpt>
      <trkpt lat="43.580883" lon="3.896979">
        <ele>6.824202</ele>
        <time>2022-07-27T01:45:54.491Z</time>
      </trkpt>
      <trkpt lat="43.580770" lon="3.897074">
        <ele>6.763847</ele>
        <time>2022-07-27T01:45:57.301Z</time>
      </trkpt>
      <trkpt lat="43.580392" lon="3.897848">
        <ele>6.455375</ele>
        <time>2022-07-27T01:46:10.637Z</time>
      </trkpt>
      <trkpt lat="43.580223" lon="3.897941">
        <ele>6.372381</ele>
        <time>2022-07-27T01:46:14.319Z</time>
      </trkpt>
      <trkpt lat="43.579997" lon="3.897931">
        <ele>6.287947</ele>
        <time>2022-07-27T01:46:19.158Z</time>
      </trkpt>
      <trkpt lat="43.577770" lon="3.897471">
        <ele>6.620319</ele>
        <time>2022-07-27T01:47:10.685Z</time>
      </trkpt>
      <trkpt lat="43.576247" lon="3.897070">
        <ele>7.133045</ele>
        <time>2022-07-27T01:47:48.225Z</time>
      </trkpt>
      <trkpt lat="43.575664" lon="3.896834">
        <ele>7.131866</ele>
        <time>2022-07-27T01:48:02.118Z</time>
      </trkpt>
      <trkpt lat="43.575097" lon="3.896469">
        <ele>7.130651</ele>
        <time>2022-07-27T01:48:15.760Z</time>
      </trkpt>
      <trkpt lat="43.574580" lon="3.895954">
        <ele>6.982636</ele>
        <time>2022-07-27T01:48:29.054Z</time>
      </trkpt>
      <trkpt lat="43.573488" lon="3.894674">
        <ele>6.305835</ele>
        <time>2022-07-27T01:48:58.971Z</time>
      </trkpt>
      <trkpt lat="43.572780" lon="3.894177">
        <ele>5.511527</ele>
        <time>2022-07-27T01:49:14.153Z</time>
      </trkpt>
      <trkpt lat="43.572883" lon="3.893558">
        <ele>5.033662</ele>
        <time>2022-07-27T01:49:22.549Z</time>
      </trkpt>
      <trkpt lat="43.572884" lon="3.893104">
        <ele>4.692068</ele>
        <time>2022-07-27T01:49:28.761Z</time>
      </trkpt>
      <trkpt lat="43.572907" lon="3.892966">
        <ele>4.585524</ele>
        <time>2022-07-27T01:49:30.627Z</time>
      </trkpt>
      <trkpt lat="43.572909" lon="3.892896">
        <ele>4.532814</ele>
        <time>2022-07-27T01:49:31.559Z</time>
      </trkpt>
      <trkpt lat="43.572933" lon="3.892885">
        <ele>4.506552</ele>
        <time>2022-07-27T01:49:32.204Z</time>
      </trkpt>
      <trkpt lat="43.572745" lon="3.892443">
        <ele>4.441639</ele>
        <time>2022-07-27T01:49:40.077Z</time>
      </trkpt>
      <trkpt lat="43.572698" lon="3.892392">
        <ele>4.447872</ele>
        <time>2022-07-27T01:49:41.688Z</time>
      </trkpt>
      <trkpt lat="43.572625" lon="3.892419">
        <ele>4.455751</ele>
        <time>2022-07-27T01:49:43.463Z</time>
      </trkpt>
      <trkpt lat="43.572535" lon="3.892431">
        <ele>4.465178</ele>
        <time>2022-07-27T01:49:45.324Z</time>
      </trkpt>
      <trkpt lat="43.572503" lon="3.892418">
        <ele>4.468655</ele>
        <time>2022-07-27T01:49:45.960Z</time>
      </trkpt>
      <trkpt lat="43.572442" lon="3.892439">
        <ele>4.475210</ele>
        <time>2022-07-27T01:49:47.188Z</time>
      </trkpt>
      <trkpt lat="43.572318" lon="3.892676">
        <ele>4.497291</ele>
        <time>2022-07-27T01:49:52.636Z</time>
      </trkpt>
      <trkpt lat="43.572225" lon="3.892655">
        <ele>4.507115</ele>
        <time>2022-07-27T01:49:54.519Z</time>
      </trkpt>
      <trkpt lat="43.572215" lon="3.892730">
        <ele>4.512875</ele>
        <time>2022-07-27T01:49:55.633Z</time>
      </trkpt>
      <trkpt lat="43.572495" lon="3.893344">
        <ele>4.567675</ele>
        <time>2022-07-27T01:50:09.326Z</time>
      </trkpt>
      <trkpt lat="43.572468" lon="3.893665">
        <ele>4.592084</ele>
        <time>2022-07-27T01:50:15.018Z</time>
      </trkpt>
      <trkpt lat="43.572316" lon="3.894320">
        <ele>4.955979</ele>
        <time>2022-07-27T01:50:29.138Z</time>
      </trkpt>
      <trkpt lat="43.572056" lon="3.894907">
        <ele>5.375230</ele>
        <time>2022-07-27T01:50:43.306Z</time>
      </trkpt>
      <trkpt lat="43.571909" lon="3.895106">
        <ele>5.548411</ele>
        <time>2022-07-27T01:50:49.182Z</time>
      </trkpt>
      <trkpt lat="43.571904" lon="3.895194">
        <ele>5.602200</ele>
        <time>2022-07-27T01:50:50.789Z</time>
      </trkpt>
      <trkpt lat="43.571631" lon="3.895723">
        <ele>5.997976</ele>
        <time>2022-07-27T01:51:02.609Z</time>
      </trkpt>
      <trkpt lat="43.571618" lon="3.895893">
        <ele>6.102145</ele>
        <time>2022-07-27T01:51:05.521Z</time>
      </trkpt>
      <trkpt lat="43.571598" lon="3.895931">
        <ele>6.112437</ele>
        <time>2022-07-27T01:51:06.307Z</time>
      </trkpt>
      <trkpt lat="43.571314" lon="3.896557">
        <ele>6.105809</ele>
        <time>2022-07-27T01:51:18.271Z</time>
      </trkpt>
      <trkpt lat="43.572043" lon="3.896101">
        <ele>6.095896</ele>
        <time>2022-07-27T01:51:38.971Z</time>
      </trkpt>
      <trkpt lat="43.571368" lon="3.895954">
        <ele>5.983045</ele>
        <time>2022-07-27T01:51:53.868Z</time>
      </trkpt>
      <trkpt lat="43.570710" lon="3.895797">
        <ele>5.686355</ele>
        <time>2022-07-27T01:52:07.601Z</time>
      </trkpt>
      <trkpt lat="43.570227" lon="3.895686">
        <ele>5.468800</ele>
        <time>2022-07-27T01:52:17.503Z</time>
      </trkpt>
      <trkpt lat="43.569639" lon="3.895579">
        <ele>5.194836</ele>
        <time>2022-07-27T01:52:29.635Z</time>
      </trkpt>
      <trkpt lat="43.569540" lon="3.895619">
        <ele>5.143434</ele>
        <time>2022-07-27T01:52:31.645Z</time>
      </trkpt>
      <trkpt lat="43.567456" lon="3.895111">
        <ele>4.187780</ele>
        <time>2022-07-27T01:53:15.205Z</time>
      </trkpt>
      <trkpt lat="43.564089" lon="3.894289">
        <ele>3.162890</ele>
        <time>2022-07-27T01:54:28.111Z</time>
      </trkpt>
      <trkpt lat="43.563497" lon="3.894158">
        <ele>2.973505</ele>
        <time>2022-07-27T01:54:40.391Z</time>
      </trkpt>
      <trkpt lat="43.561699" lon="3.893914">
        <ele>2.801873</ele>
        <time>2022-07-27T01:55:19.195Z</time>
      </trkpt>
      <trkpt lat="43.558512" lon="3.893014">
        <ele>3.452056</ele>
        <time>2022-07-27T01:56:37.550Z</time>
      </trkpt>
      <trkpt lat="43.557343" lon="3.892764">
        <ele>3.042506</ele>
        <time>2022-07-27T01:57:00.925Z</time>
      </trkpt>
      <trkpt lat="43.556850" lon="3.892737">
        <ele>2.590750</ele>
        <time>2022-07-27T01:57:10.426Z</time>
      </trkpt>
      <trkpt lat="43.556530" lon="3.892736">
        <ele>2.297751</ele>
        <time>2022-07-27T01:57:16.583Z</time>
      </trkpt>
      <trkpt lat="43.556295" lon="3.892736">
        <ele>2.082580</ele>
        <time>2022-07-27T01:57:21.067Z</time>
      </trkpt>
      <trkpt lat="43.556175" lon="3.892668">
        <ele>1.963802</ele>
        <time>2022-07-27T01:57:23.565Z</time>
      </trkpt>
      <trkpt lat="43.555541" lon="3.892662">
        <ele>1.437286</ele>
        <time>2022-07-27T01:57:35.862Z</time>
      </trkpt>
      <trkpt lat="43.555115" lon="3.892681">
        <ele>1.283242</ele>
        <time>2022-07-27T01:57:44.658Z</time>
      </trkpt>
      <trkpt lat="43.554946" lon="3.892663">
        <ele>1.221981</ele>
        <time>2022-07-27T01:57:48.205Z</time>
      </trkpt>
      <trkpt lat="43.554858" lon="3.892575">
        <ele>1.182702</ele>
        <time>2022-07-27T01:57:50.446Z</time>
      </trkpt>
      <trkpt lat="43.554868" lon="3.892519">
        <ele>1.167596</ele>
        <time>2022-07-27T01:57:51.366Z</time>
      </trkpt>
      <trkpt lat="43.554866" lon="3.892462">
        <ele>1.152649</ele>
        <time>2022-07-27T01:57:52.274Z</time>
      </trkpt>
      <trkpt lat="43.554823" lon="3.892357">
        <ele>1.121060</ele>
        <time>2022-07-27T01:57:54.160Z</time>
      </trkpt>
      <trkpt lat="43.554737" lon="3.892305">
        <ele>1.087125</ele>
        <time>2022-07-27T01:57:56.139Z</time>
      </trkpt>
      <trkpt lat="43.554645" lon="3.892339">
        <ele>1.052702</ele>
        <time>2022-07-27T01:57:58.116Z</time>
      </trkpt>
      <trkpt lat="43.554592" lon="3.892434">
        <ele>1.021301</ele>
        <time>2022-07-27T01:58:00.025Z</time>
      </trkpt>
      <trkpt lat="43.554589" lon="3.892554">
        <ele>0.989851</ele>
        <time>2022-07-27T01:58:01.948Z</time>
      </trkpt>
      <trkpt lat="43.554460" lon="3.892745">
        <ele>0.921466</ele>
        <time>2022-07-27T01:58:05.922Z</time>
      </trkpt>
      <trkpt lat="43.553367" lon="3.893064">
        <ele>0.909341</ele>
        <time>2022-07-27T01:58:30.992Z</time>
      </trkpt>
      <trkpt lat="43.553243" lon="3.893160">
        <ele>0.923994</ele>
        <time>2022-07-27T01:58:34.536Z</time>
      </trkpt>
      <trkpt lat="43.551785" lon="3.893266">
        <ele>1.034458</ele>
        <time>2022-07-27T01:59:07.754Z</time>
      </trkpt>
      <trkpt lat="43.551257" lon="3.893304">
        <ele>1.056244</ele>
        <time>2022-07-27T01:59:19.456Z</time>
      </trkpt>
      <trkpt lat="43.550744" lon="3.893412">
        <ele>1.077628</ele>
        <time>2022-07-27T01:59:30.874Z</time>
      </trkpt>
      <trkpt lat="43.550682" lon="3.893425">
        <ele>1.080212</ele>
        <time>2022-07-27T01:59:32.261Z</time>
      </trkpt>
      <trkpt lat="43.542824" lon="3.896499">
        <ele>0.584272</ele>
        <time>2022-07-27T02:02:31.618Z</time>
      </trkpt>
      <trkpt lat="43.541943" lon="3.896823">
        <ele>0.603259</ele>
        <time>2022-07-27T02:02:52.240Z</time>
      </trkpt>
      <trkpt lat="43.541202" lon="3.897107">
        <ele>0.676277</ele>
        <time>2022-07-27T02:03:09.791Z</time>
      </trkpt>
      <trkpt lat="43.541022" lon="3.897149">
        <ele>0.693610</ele>
        <time>2022-07-27T02:03:13.901Z</time>
      </trkpt>
      <trkpt lat="43.540822" lon="3.897186">
        <ele>0.712769</ele>
        <time>2022-07-27T02:03:18.346Z</time>
      </trkpt>
      <trkpt lat="43.540399" lon="3.897257">
        <ele>0.753227</ele>
        <time>2022-07-27T02:03:28.014Z</time>
      </trkpt>
      <trkpt lat="43.540491" lon="3.897588">
        <ele>0.761323</ele>
        <time>2022-07-27T02:03:33.735Z</time>
      </trkpt>
      <trkpt lat="43.540507" lon="3.897649">
        <ele>0.756514</ele>
        <time>2022-07-27T02:03:34.858Z</time>
      </trkpt>
      <trkpt lat="43.540174" lon="3.898363">
        <ele>0.693573</ele>
        <time>2022-07-27T02:03:49.195Z</time>
      </trkpt>
      <trkpt lat="43.539721" lon="3.898351">
        <ele>0.647237</ele>
        <time>2022-07-27T02:03:59.119Z</time>
      </trkpt>
      <trkpt lat="43.539676" lon="3.898281">
        <ele>0.640301</ele>
        <time>2022-07-27T02:04:00.596Z</time>
      </trkpt>
      <trkpt lat="43.539560" lon="3.898161">
        <ele>0.625473</ele>
        <time>2022-07-27T02:04:03.556Z</time>
      </trkpt>
      <trkpt lat="43.539478" lon="3.898113">
        <ele>0.616363</ele>
        <time>2022-07-27T02:04:05.336Z</time>
      </trkpt>
      <trkpt lat="43.539375" lon="3.898373">
        <ele>0.594397</ele>
        <time>2022-07-27T02:04:09.712Z</time>
      </trkpt>
      <trkpt lat="43.539067" lon="3.898800">
        <ele>0.462460</ele>
        <time>2022-07-27T02:04:18.657Z</time>
      </trkpt>
      <trkpt lat="43.539014" lon="3.898863">
        <ele>0.438002</ele>
        <time>2022-07-27T02:04:20.095Z</time>
      </trkpt>
      <trkpt lat="43.538625" lon="3.899358">
        <ele>0.252992</ele>
        <time>2022-07-27T02:04:31.255Z</time>
      </trkpt>
      <trkpt lat="43.538300" lon="3.900037">
        <ele>0.046794</ele>
        <time>2022-07-27T02:04:43.685Z</time>
      </trkpt>
      <trkpt lat="43.538106" lon="3.900334">
        <ele>-0.040572</ele>
        <time>2022-07-27T02:04:49.725Z</time>
      </trkpt>
      <trkpt lat="43.538199" lon="3.900352">
        <ele>-0.033819</ele>
        <time>2022-07-27T02:04:51.685Z</time>
      </trkpt>
      <trkpt lat="43.534839" lon="3.905476">
        <ele>0.361529</ele>
        <time>2022-07-27T02:06:45.197Z</time>
      </trkpt>
      <trkpt lat="43.534496" lon="3.906202">
        <ele>0.378531</ele>
        <time>2022-07-27T02:06:59.237Z</time>
      </trkpt>
      <trkpt lat="43.534358" lon="3.906823">
        <ele>0.368733</ele>
        <time>2022-07-27T02:07:09.648Z</time>
      </trkpt>
      <trkpt lat="43.534342" lon="3.907503">
        <ele>0.358469</ele>
        <time>2022-07-27T02:07:20.450Z</time>
      </trkpt>
      <trkpt lat="43.534750" lon="3.911205">
        <ele>0.619198</ele>
        <time>2022-07-27T02:08:21.396Z</time>
      </trkpt>
      <trkpt lat="43.534782" lon="3.912731">
        <ele>0.941861</ele>
        <time>2022-07-27T02:08:48.108Z</time>
      </trkpt>
      <trkpt lat="43.534721" lon="3.913514">
        <ele>1.037872</ele>
        <time>2022-07-27T02:09:01.322Z</time>
      </trkpt>
      <trkpt lat="43.534532" lon="3.914083">
        <ele>1.072876</ele>
        <time>2022-07-27T02:09:12.031Z</time>
      </trkpt>
      <trkpt lat="43.534310" lon="3.914442">
        <ele>1.099267</ele>
        <time>2022-07-27T02:09:20.063Z</time>
      </trkpt>
      <trkpt lat="43.534460" lon="3.914561">
        <ele>1.112616</ele>
        <time>2022-07-27T02:09:24.100Z</time>
      </trkpt>
      <trkpt lat="43.534476" lon="3.914843">
        <ele>1.128436</ele>
        <time>2022-07-27T02:09:28.808Z</time>
      </trkpt>
      <trkpt lat="43.534246" lon="3.915665">
        <ele>1.193805</ele>
        <time>2022-07-27T02:09:42.597Z</time>
      </trkpt>
      <trkpt lat="43.534072" lon="3.916153">
        <ele>1.242739</ele>
        <time>2022-07-27T02:09:51.264Z</time>
      </trkpt>
      <trkpt lat="43.533971" lon="3.916438">
        <ele>1.271283</ele>
        <time>2022-07-27T02:09:56.502Z</time>
      </trkpt>
      <trkpt lat="43.533640" lon="3.917193">
        <ele>1.350674</ele>
        <time>2022-07-27T02:10:11.773Z</time>
      </trkpt>
      <trkpt lat="43.533177" lon="3.918051">
        <ele>1.345044</ele>
        <time>2022-07-27T02:10:29.787Z</time>
      </trkpt>
      <trkpt lat="43.532783" lon="3.918674">
        <ele>1.314745</ele>
        <time>2022-07-27T02:10:42.852Z</time>
      </trkpt>
      <trkpt lat="43.532726" lon="3.918685">
        <ele>1.311835</ele>
        <time>2022-07-27T02:10:44.152Z</time>
      </trkpt>
      <trkpt lat="43.532397" lon="3.919021">
        <ele>1.291141</ele>
        <time>2022-07-27T02:10:52.824Z</time>
      </trkpt>
      <trkpt lat="43.532276" lon="3.919420">
        <ele>1.247599</ele>
        <time>2022-07-27T02:10:59.592Z</time>
      </trkpt>
      <trkpt lat="43.531201" lon="3.921013">
        <ele>0.902134</ele>
        <time>2022-07-27T02:11:32.796Z</time>
      </trkpt>
      <trkpt lat="43.530242" lon="3.922415">
        <ele>1.517766</ele>
        <time>2022-07-27T02:12:06.630Z</time>
      </trkpt>
      <trkpt lat="43.530020" lon="3.922531">
        <ele>1.628935</ele>
        <time>2022-07-27T02:12:12.832Z</time>
      </trkpt>
      <trkpt lat="43.529592" lon="3.923362">
        <ele>1.853558</ele>
        <time>2022-07-27T02:12:31.946Z</time>
      </trkpt>
      <trkpt lat="43.529867" lon="3.923496">
        <ele>1.921860</ele>
        <time>2022-07-27T02:12:38.976Z</time>
      </trkpt>
      <trkpt lat="43.529967" lon="3.923468">
        <ele>1.945757</ele>
        <time>2022-07-27T02:12:41.376Z</time>
      </trkpt>
      <trkpt lat="43.530179" lon="3.923211">
        <ele>2.011854</ele>
        <time>2022-07-27T02:12:47.892Z</time>
      </trkpt>
      <trkpt lat="43.530207" lon="3.922866">
        <ele>2.070797</ele>
        <time>2022-07-27T02:12:53.319Z</time>
      </trkpt>
      <trkpt lat="43.530189" lon="3.922779">
        <ele>2.086158</ele>
        <time>2022-07-27T02:12:54.686Z</time>
      </trkpt>
      <trkpt lat="43.530736" lon="3.923517">
        <ele>1.955441</ele>
        <time>2022-07-27T02:13:14.470Z</time>
      </trkpt>
      <trkpt lat="43.531283" lon="3.924255">
        <ele>1.639141</ele>
        <time>2022-07-27T02:13:34.255Z</time>
      </trkpt>
      <trkpt lat="43.531830" lon="3.924992">
        <ele>1.307249</ele>
        <time>2022-07-27T02:13:54.039Z</time>
      </trkpt>
      <trkpt lat="43.532377" lon="3.925730">
        <ele>0.933307</ele>
        <time>2022-07-27T02:14:13.824Z</time>
      </trkpt>
      <trkpt lat="43.532924" lon="3.926468">
        <ele>0.559366</ele>
        <time>2022-07-27T02:14:33.608Z</time>
      </trkpt>
      <trkpt lat="43.533000" lon="3.926480">
        <ele>0.526798</ele>
        <time>2022-07-27T02:14:35.151Z</time>
      </trkpt>
      <trkpt lat="43.533233" lon="3.926660">
        <ele>0.467905</ele>
        <time>2022-07-27T02:14:40.827Z</time>
      </trkpt>
      <trkpt lat="43.533479" lon="3.926963">
        <ele>0.395174</ele>
        <time>2022-07-27T02:14:47.792Z</time>
      </trkpt>
      <trkpt lat="43.533787" lon="3.927349">
        <ele>0.303403</ele>
        <time>2022-07-27T02:14:56.690Z</time>
      </trkpt>
      <trkpt lat="43.534391" lon="3.928310">
        <ele>0.112860</ele>
        <time>2022-07-27T02:15:16.821Z</time>
      </trkpt>
      <trkpt lat="43.534981" lon="3.929643">
        <ele>-0.042974</ele>
        <time>2022-07-27T02:15:41.703Z</time>
      </trkpt>
      <trkpt lat="43.535228" lon="3.930414">
        <ele>-0.149368</ele>
        <time>2022-07-27T02:15:54.549Z</time>
      </trkpt>
      <trkpt lat="43.535408" lon="3.931178">
        <ele>-0.360576</ele>
        <time>2022-07-27T02:16:06.621Z</time>
      </trkpt>
      <trkpt lat="43.535595" lon="3.932459">
        <ele>-0.704127</ele>
        <time>2022-07-27T02:16:26.346Z</time>
      </trkpt>
      <trkpt lat="43.535628" lon="3.934013">
        <ele>-0.756339</ele>
        <time>2022-07-27T02:16:50.947Z</time>
      </trkpt>
      <trkpt lat="43.535461" lon="3.935551">
        <ele>-0.560824</ele>
        <time>2022-07-27T02:17:16.483Z</time>
      </trkpt>
      <trkpt lat="43.535117" lon="3.936977">
        <ele>0.152727</ele>
        <time>2022-07-27T02:17:44.174Z</time>
      </trkpt>
      <trkpt lat="43.534859" lon="3.937892">
        <ele>0.523798</ele>
        <time>2022-07-27T02:18:02.444Z</time>
      </trkpt>
      <trkpt lat="43.534699" lon="3.938051">
        <ele>0.587968</ele>
        <time>2022-07-27T02:18:07.420Z</time>
      </trkpt>
      <trkpt lat="43.534554" lon="3.938142">
        <ele>0.639806</ele>
        <time>2022-07-27T02:18:11.238Z</time>
      </trkpt>
      <trkpt lat="43.534499" lon="3.938311">
        <ele>0.683507</ele>
        <time>2022-07-27T02:18:14.571Z</time>
      </trkpt>
      <trkpt lat="43.534574" lon="3.938561">
        <ele>0.747335</ele>
        <time>2022-07-27T02:18:19.228Z</time>
      </trkpt>
      <trkpt lat="43.534645" lon="3.938613">
        <ele>0.773494</ele>
        <time>2022-07-27T02:18:21.133Z</time>
      </trkpt>
      <trkpt lat="43.534724" lon="3.938820">
        <ele>0.828680</ele>
        <time>2022-07-27T02:18:25.135Z</time>
      </trkpt>
      <trkpt lat="43.534719" lon="3.939461">
        <ele>0.979905</ele>
        <time>2022-07-27T02:18:35.559Z</time>
      </trkpt>
      <trkpt lat="43.534688" lon="3.940322">
        <ele>0.689208</ele>
        <time>2022-07-27T02:18:48.494Z</time>
      </trkpt>
      <trkpt lat="43.534713" lon="3.941082">
        <ele>0.341067</ele>
        <time>2022-07-27T02:18:59.235Z</time>
      </trkpt>
      <trkpt lat="43.534827" lon="3.942233">
        <ele>-0.157864</ele>
        <time>2022-07-27T02:19:15.933Z</time>
      </trkpt>
      <trkpt lat="43.535152" lon="3.943847">
        <ele>-0.568686</ele>
        <time>2022-07-27T02:19:41.546Z</time>
      </trkpt>
      <trkpt lat="43.535637" lon="3.945261">
        <ele>-0.768579</ele>
        <time>2022-07-27T02:20:06.311Z</time>
      </trkpt>
      <trkpt lat="43.537159" lon="3.948904">
        <ele>-0.875478</ele>
        <time>2022-07-27T02:21:13.446Z</time>
      </trkpt>
      <trkpt lat="43.537425" lon="3.949561">
        <ele>-0.815986</ele>
        <time>2022-07-27T02:21:25.636Z</time>
      </trkpt>
      <trkpt lat="43.538712" lon="3.952893">
        <ele>-0.366737</ele>
        <time>2022-07-27T02:22:28.502Z</time>
      </trkpt>
      <trkpt lat="43.539580" lon="3.954913">
        <ele>-0.024755</ele>
        <time>2022-07-27T02:23:08.434Z</time>
      </trkpt>
      <trkpt lat="43.541771" lon="3.960364">
        <ele>-0.296704</ele>
        <time>2022-07-27T02:24:47.312Z</time>
      </trkpt>
      <trkpt lat="43.541836" lon="3.960554">
        <ele>-0.309742</ele>
        <time>2022-07-27T02:24:50.654Z</time>
      </trkpt>
      <trkpt lat="43.542740" lon="3.963173">
        <ele>-0.458414</ele>
        <time>2022-07-27T02:25:36.753Z</time>
      </trkpt>
      <trkpt lat="43.543558" lon="3.965889">
        <ele>-0.235845</ele>
        <time>2022-07-27T02:26:24.079Z</time>
      </trkpt>
      <trkpt lat="43.543741" lon="3.966541">
        <ele>-0.056415</ele>
        <time>2022-07-27T02:26:36.777Z</time>
      </trkpt>
      <trkpt lat="43.544083" lon="3.967882">
        <ele>0.868083</ele>
        <time>2022-07-27T02:27:03.638Z</time>
      </trkpt>
      <trkpt lat="43.544080" lon="3.968150">
        <ele>1.042392</ele>
        <time>2022-07-27T02:27:08.879Z</time>
      </trkpt>
      <trkpt lat="43.543987" lon="3.968345">
        <ele>1.194195</ele>
        <time>2022-07-27T02:27:13.212Z</time>
      </trkpt>
      <trkpt lat="43.544050" lon="3.968601">
        <ele>1.370012</ele>
        <time>2022-07-27T02:27:18.535Z</time>
      </trkpt>
      <trkpt lat="43.544242" lon="3.968670">
        <ele>1.510708</ele>
        <time>2022-07-27T02:27:23.702Z</time>
      </trkpt>
      <trkpt lat="43.544391" lon="3.968835">
        <ele>1.616764</ele>
        <time>2022-07-27T02:27:28.841Z</time>
      </trkpt>
      <trkpt lat="43.544428" lon="3.968901">
        <ele>1.650335</ele>
        <time>2022-07-27T02:27:30.391Z</time>
      </trkpt>
      <trkpt lat="43.544974" lon="3.969881">
        <ele>2.147655</ele>
        <time>2022-07-27T02:27:52.114Z</time>
      </trkpt>
      <trkpt lat="43.545423" lon="3.970501">
        <ele>2.507770</ele>
        <time>2022-07-27T02:28:06.582Z</time>
      </trkpt>
      <trkpt lat="43.545429" lon="3.970736">
        <ele>2.616083</ele>
        <time>2022-07-27T02:28:10.841Z</time>
      </trkpt>
      <trkpt lat="43.545588" lon="3.970919">
        <ele>2.747668</ele>
        <time>2022-07-27T02:28:15.899Z</time>
      </trkpt>
      <trkpt lat="43.545792" lon="3.971269">
        <ele>2.954542</ele>
        <time>2022-07-27T02:28:23.989Z</time>
      </trkpt>
      <trkpt lat="43.546118" lon="3.971337">
        <ele>3.164064</ele>
        <time>2022-07-27T02:28:32.263Z</time>
      </trkpt>
      <trkpt lat="43.546275" lon="3.971337">
        <ele>3.263836</ele>
        <time>2022-07-27T02:28:36.117Z</time>
      </trkpt>
      <trkpt lat="43.546681" lon="3.971588">
        <ele>3.546561</ele>
        <time>2022-07-27T02:28:47.252Z</time>
      </trkpt>
      <trkpt lat="43.546739" lon="3.971645">
        <ele>3.591910</ele>
        <time>2022-07-27T02:28:49.059Z</time>
      </trkpt>
      <trkpt lat="43.547213" lon="3.972212">
        <ele>4.150103</ele>
        <time>2022-07-27T02:29:05.486Z</time>
      </trkpt>
      <trkpt lat="43.547666" lon="3.972901">
        <ele>4.750016</ele>
        <time>2022-07-27T02:29:23.883Z</time>
      </trkpt>
      <trkpt lat="43.547911" lon="3.973465">
        <ele>5.174062</ele>
        <time>2022-07-27T02:29:35.879Z</time>
      </trkpt>
      <trkpt lat="43.548124" lon="3.974359">
        <ele>5.119106</ele>
        <time>2022-07-27T02:29:51.886Z</time>
      </trkpt>
      <trkpt lat="43.548521" lon="3.975892">
        <ele>4.961490</ele>
        <time>2022-07-27T02:30:16.561Z</time>
      </trkpt>
      <trkpt lat="43.548913" lon="3.977741">
        <ele>3.910309</ele>
        <time>2022-07-27T02:30:43.684Z</time>
      </trkpt>
      <trkpt lat="43.548978" lon="3.978280">
        <ele>3.635847</ele>
        <time>2022-07-27T02:30:51.693Z</time>
      </trkpt>
      <trkpt lat="43.548896" lon="3.978696">
        <ele>3.601056</ele>
        <time>2022-07-27T02:31:00.328Z</time>
      </trkpt>
      <trkpt lat="43.548915" lon="3.979248">
        <ele>3.556458</ele>
        <time>2022-07-27T02:31:11.751Z</time>
      </trkpt>
      <trkpt lat="43.548824" lon="3.979592">
        <ele>3.526905</ele>
        <time>2022-07-27T02:31:17.721Z</time>
      </trkpt>
      <trkpt lat="43.548883" lon="3.979890">
        <ele>3.501975</ele>
        <time>2022-07-27T02:31:22.992Z</time>
      </trkpt>
      <trkpt lat="43.548756" lon="3.979828">
        <ele>3.486975</ele>
        <time>2022-07-27T02:31:25.915Z</time>
      </trkpt>
      <trkpt lat="43.548227" lon="3.979550">
        <ele>3.431316</ele>
        <time>2022-07-27T02:31:38.836Z</time>
      </trkpt>
      <trkpt lat="43.548145" lon="3.979506">
        <ele>3.426107</ele>
        <time>2022-07-27T02:31:40.743Z</time>
      </trkpt>
      <trkpt lat="43.548111" lon="3.979615">
        <ele>3.421015</ele>
        <time>2022-07-27T02:31:42.593Z</time>
      </trkpt>
      <trkpt lat="43.548077" lon="3.979725">
        <ele>3.415884</ele>
        <time>2022-07-27T02:31:44.573Z</time>
      </trkpt>
      <trkpt lat="43.548056" lon="3.979746">
        <ele>3.414349</ele>
        <time>2022-07-27T02:31:45.203Z</time>
      </trkpt>
      <trkpt lat="43.547686" lon="3.979941">
        <ele>3.390900</ele>
        <time>2022-07-27T02:31:54.426Z</time>
      </trkpt>
      <trkpt lat="43.547576" lon="3.980205">
        <ele>3.377833</ele>
        <time>2022-07-27T02:31:59.395Z</time>
      </trkpt>
      <trkpt lat="43.547772" lon="3.980817">
        <ele>3.349122</ele>
        <time>2022-07-27T02:32:10.398Z</time>
      </trkpt>
      <trkpt lat="43.547723" lon="3.981002">
        <ele>3.340670</ele>
        <time>2022-07-27T02:32:13.608Z</time>
      </trkpt>
      <trkpt lat="43.547553" lon="3.981610">
        <ele>3.316723</ele>
        <time>2022-07-27T02:32:24.232Z</time>
      </trkpt>
      <trkpt lat="43.547380" lon="3.981705">
        <ele>3.307860</ele>
        <time>2022-07-27T02:32:28.420Z</time>
      </trkpt>
      <trkpt lat="43.547333" lon="3.981739">
        <ele>3.305334</ele>
        <time>2022-07-27T02:32:29.584Z</time>
      </trkpt>
      <trkpt lat="43.547559" lon="3.982435">
        <ele>3.279021</ele>
        <time>2022-07-27T02:32:41.658Z</time>
      </trkpt>
      <trkpt lat="43.547666" lon="3.982375">
        <ele>3.273523</ele>
        <time>2022-07-27T02:32:44.351Z</time>
      </trkpt>
      <trkpt lat="43.547854" lon="3.982944">
        <ele>3.251948</ele>
        <time>2022-07-27T02:32:55.115Z</time>
      </trkpt>
      <trkpt lat="43.547989" lon="3.983267">
        <ele>3.238903</ele>
        <time>2022-07-27T02:33:01.565Z</time>
      </trkpt>
      <trkpt lat="43.548509" lon="3.983916">
        <ele>3.204814</ele>
        <time>2022-07-27T02:33:17.972Z</time>
      </trkpt>
      <trkpt lat="43.548696" lon="3.984266">
        <ele>3.189493</ele>
        <time>2022-07-27T02:33:25.204Z</time>
      </trkpt>
      <trkpt lat="43.548898" lon="3.984644">
        <ele>3.172945</ele>
        <time>2022-07-27T02:33:32.912Z</time>
      </trkpt>
      <trkpt lat="43.549574" lon="3.986818">
        <ele>2.856871</ele>
        <time>2022-07-27T02:34:11.214Z</time>
      </trkpt>
      <trkpt lat="43.549763" lon="3.987563">
        <ele>2.779437</ele>
        <time>2022-07-27T02:34:23.885Z</time>
      </trkpt>
      <trkpt lat="43.549759" lon="3.987644">
        <ele>2.778172</ele>
        <time>2022-07-27T02:34:25.212Z</time>
      </trkpt>
      <trkpt lat="43.549824" lon="3.987643">
        <ele>2.776775</ele>
        <time>2022-07-27T02:34:26.655Z</time>
      </trkpt>
      <trkpt lat="43.550002" lon="3.987528">
        <ele>2.772550</ele>
        <time>2022-07-27T02:34:30.817Z</time>
      </trkpt>
      <trkpt lat="43.550069" lon="3.987704">
        <ele>2.769454</ele>
        <time>2022-07-27T02:34:33.952Z</time>
      </trkpt>
      <trkpt lat="43.550726" lon="3.989877">
        <ele>3.039496</ele>
        <time>2022-07-27T02:35:12.738Z</time>
      </trkpt>
      <trkpt lat="43.550778" lon="3.990247">
        <ele>3.173977</ele>
        <time>2022-07-27T02:35:19.341Z</time>
      </trkpt>
      <trkpt lat="43.550671" lon="3.990490">
        <ele>3.275431</ele>
        <time>2022-07-27T02:35:24.346Z</time>
      </trkpt>
      <trkpt lat="43.550023" lon="3.990891">
        <ele>3.625072</ele>
        <time>2022-07-27T02:35:42.278Z</time>
      </trkpt>
      <trkpt lat="43.549285" lon="3.990719">
        <ele>4.094570</ele>
        <time>2022-07-27T02:36:01.639Z</time>
      </trkpt>
      <trkpt lat="43.548547" lon="3.990547">
        <ele>4.565751</ele>
        <time>2022-07-27T02:36:21.001Z</time>
      </trkpt>
      <trkpt lat="43.548791" lon="3.991488">
        <ele>4.801468</ele>
        <time>2022-07-27T02:36:38.721Z</time>
      </trkpt>
      <trkpt lat="43.548868" lon="3.991773">
        <ele>4.821903</ele>
        <time>2022-07-27T02:36:44.047Z</time>
      </trkpt>
      <trkpt lat="43.549042" lon="3.992424">
        <ele>4.868520</ele>
        <time>2022-07-27T02:36:55.688Z</time>
      </trkpt>
      <trkpt lat="43.549411" lon="3.993776">
        <ele>4.713108</ele>
        <time>2022-07-27T02:37:33.138Z</time>
      </trkpt>
      <trkpt lat="43.549555" lon="3.994311">
        <ele>4.478171</ele>
        <time>2022-07-27T02:37:47.706Z</time>
      </trkpt>
      <trkpt lat="43.549226" lon="3.994484">
        <ele>4.278193</ele>
        <time>2022-07-27T02:37:55.249Z</time>
      </trkpt>
      <trkpt lat="43.549448" lon="3.995313">
        <ele>3.914373</ele>
        <time>2022-07-27T02:38:07.997Z</time>
      </trkpt>
      <trkpt lat="43.549427" lon="3.995456">
        <ele>3.818110</ele>
        <time>2022-07-27T02:38:09.990Z</time>
      </trkpt>
      <trkpt lat="43.549514" lon="3.995520">
        <ele>3.724741</ele>
        <time>2022-07-27T02:38:11.985Z</time>
      </trkpt>
      <trkpt lat="43.549504" lon="3.995735">
        <ele>3.576868</ele>
        <time>2022-07-27T02:38:14.895Z</time>
      </trkpt>
      <trkpt lat="43.549936" lon="3.997329">
        <ele>2.408810</ele>
        <time>2022-07-27T02:38:38.421Z</time>
      </trkpt>
      <trkpt lat="43.550448" lon="3.999205">
        <ele>2.023287</ele>
        <time>2022-07-27T02:39:08.724Z</time>
      </trkpt>
      <trkpt lat="43.550909" lon="4.000868">
        <ele>2.401554</ele>
        <time>2022-07-27T02:39:40.152Z</time>
      </trkpt>
      <trkpt lat="43.550932" lon="4.000954">
        <ele>2.443499</ele>
        <time>2022-07-27T02:39:41.805Z</time>
      </trkpt>
      <trkpt lat="43.551000" lon="4.001209">
        <ele>2.567826</ele>
        <time>2022-07-27T02:39:46.964Z</time>
      </trkpt>
      <trkpt lat="43.551027" lon="4.001307">
        <ele>2.615798</ele>
        <time>2022-07-27T02:39:48.986Z</time>
      </trkpt>
      <trkpt lat="43.551468" lon="4.002963">
        <ele>3.001910</ele>
        <time>2022-07-27T02:40:20.949Z</time>
      </trkpt>
      <trkpt lat="43.551981" lon="4.004860">
        <ele>2.645979</ele>
        <time>2022-07-27T02:40:51.246Z</time>
      </trkpt>
      <trkpt lat="43.552422" lon="4.006489">
        <ele>1.567906</ele>
        <time>2022-07-27T02:41:15.331Z</time>
      </trkpt>
      <trkpt lat="43.552571" lon="4.007037">
        <ele>1.291637</ele>
        <time>2022-07-27T02:41:23.723Z</time>
      </trkpt>
      <trkpt lat="43.552773" lon="4.007782">
        <ele>1.279889</ele>
        <time>2022-07-27T02:41:35.548Z</time>
      </trkpt>
      <trkpt lat="43.552892" lon="4.007601">
        <ele>1.276279</ele>
        <time>2022-07-27T02:41:39.521Z</time>
      </trkpt>
      <trkpt lat="43.552949" lon="4.007616">
        <ele>1.275097</ele>
        <time>2022-07-27T02:41:40.779Z</time>
      </trkpt>
      <trkpt lat="43.552925" lon="4.007714">
        <ele>1.273569</ele>
        <time>2022-07-27T02:41:42.395Z</time>
      </trkpt>
      <trkpt lat="43.552895" lon="4.007978">
        <ele>1.269622</ele>
        <time>2022-07-27T02:41:47.095Z</time>
      </trkpt>
      <trkpt lat="43.552975" lon="4.008219">
        <ele>1.265707</ele>
        <time>2022-07-27T02:41:51.595Z</time>
      </trkpt>
      <trkpt lat="43.553127" lon="4.008205">
        <ele>1.262602</ele>
        <time>2022-07-27T02:41:55.943Z</time>
      </trkpt>
      <trkpt lat="43.553213" lon="4.008123">
        <ele>1.260472</ele>
        <time>2022-07-27T02:41:58.765Z</time>
      </trkpt>
      <trkpt lat="43.553304" lon="4.007912">
        <ele>1.260782</ele>
        <time>2022-07-27T02:42:03.833Z</time>
      </trkpt>
      <trkpt lat="43.553512" lon="4.009035">
        <ele>1.513726</ele>
        <time>2022-07-27T02:42:25.557Z</time>
      </trkpt>
      <trkpt lat="43.553720" lon="4.010158">
        <ele>1.766668</ele>
        <time>2022-07-27T02:42:47.281Z</time>
      </trkpt>
      <trkpt lat="43.553928" lon="4.011281">
        <ele>1.600420</ele>
        <time>2022-07-27T02:43:09.006Z</time>
      </trkpt>
      <trkpt lat="43.554136" lon="4.012404">
        <ele>1.373419</ele>
        <time>2022-07-27T02:43:30.730Z</time>
      </trkpt>
      <trkpt lat="43.554344" lon="4.013528">
        <ele>1.540197</ele>
        <time>2022-07-27T02:43:52.454Z</time>
      </trkpt>
      <trkpt lat="43.554552" lon="4.014651">
        <ele>1.850614</ele>
        <time>2022-07-27T02:44:14.178Z</time>
      </trkpt>
      <trkpt lat="43.554760" lon="4.015774">
        <ele>2.071463</ele>
        <time>2022-07-27T02:44:35.902Z</time>
      </trkpt>
      <trkpt lat="43.554968" lon="4.016897">
        <ele>2.230555</ele>
        <time>2022-07-27T02:44:57.626Z</time>
      </trkpt>
      <trkpt lat="43.555176" lon="4.018020">
        <ele>2.394882</ele>
        <time>2022-07-27T02:45:19.349Z</time>
      </trkpt>
      <trkpt lat="43.555384" lon="4.019143">
        <ele>2.565591</ele>
        <time>2022-07-27T02:45:41.073Z</time>
      </trkpt>
      <trkpt lat="43.555592" lon="4.020266">
        <ele>2.687407</ele>
        <time>2022-07-27T02:46:02.797Z</time>
      </trkpt>
      <trkpt lat="43.555801" lon="4.021389">
        <ele>2.700123</ele>
        <time>2022-07-27T02:46:24.520Z</time>
      </trkpt>
      <trkpt lat="43.556009" lon="4.022512">
        <ele>2.661704</ele>
        <time>2022-07-27T02:46:46.244Z</time>
      </trkpt>
      <trkpt lat="43.556217" lon="4.023635">
        <ele>2.370999</ele>
        <time>2022-07-27T02:47:07.967Z</time>
      </trkpt>
      <trkpt lat="43.556425" lon="4.024758">
        <ele>2.088392</ele>
        <time>2022-07-27T02:47:29.690Z</time>
      </trkpt>
      <trkpt lat="43.556502" lon="4.025974">
        <ele>2.094967</ele>
        <time>2022-07-27T02:47:52.553Z</time>
      </trkpt>
      <trkpt lat="43.556580" lon="4.027189">
        <ele>2.101537</ele>
        <time>2022-07-27T02:48:15.416Z</time>
      </trkpt>
      <trkpt lat="43.556657" lon="4.028404">
        <ele>2.147553</ele>
        <time>2022-07-27T02:48:38.279Z</time>
      </trkpt>
      <trkpt lat="43.556735" lon="4.029619">
        <ele>2.193897</ele>
        <time>2022-07-27T02:49:01.142Z</time>
      </trkpt>
      <trkpt lat="43.556812" lon="4.030835">
        <ele>2.215309</ele>
        <time>2022-07-27T02:49:24.004Z</time>
      </trkpt>
      <trkpt lat="43.556890" lon="4.032050">
        <ele>2.235585</ele>
        <time>2022-07-27T02:49:46.867Z</time>
      </trkpt>
      <trkpt lat="43.556967" lon="4.033265">
        <ele>2.369223</ele>
        <time>2022-07-27T02:50:09.730Z</time>
      </trkpt>
      <trkpt lat="43.557045" lon="4.034481">
        <ele>2.512461</ele>
        <time>2022-07-27T02:50:32.593Z</time>
      </trkpt>
      <trkpt lat="43.557122" lon="4.035696">
        <ele>2.480733</ele>
        <time>2022-07-27T02:50:55.455Z</time>
      </trkpt>
      <trkpt lat="43.557199" lon="4.036911">
        <ele>2.427137</ele>
        <time>2022-07-27T02:51:18.318Z</time>
      </trkpt>
      <trkpt lat="43.557277" lon="4.038127">
        <ele>2.415952</ele>
        <time>2022-07-27T02:51:41.180Z</time>
      </trkpt>
      <trkpt lat="43.557354" lon="4.039342">
        <ele>2.412032</ele>
        <time>2022-07-27T02:52:04.043Z</time>
      </trkpt>
      <trkpt lat="43.557432" lon="4.040557">
        <ele>2.176162</ele>
        <time>2022-07-27T02:52:26.906Z</time>
      </trkpt>
      <trkpt lat="43.557509" lon="4.041772">
        <ele>1.889324</ele>
        <time>2022-07-27T02:52:49.768Z</time>
      </trkpt>
      <trkpt lat="43.557587" lon="4.042988">
        <ele>1.595253</ele>
        <time>2022-07-27T02:53:12.631Z</time>
      </trkpt>
      <trkpt lat="43.557664" lon="4.044203">
        <ele>1.299544</ele>
        <time>2022-07-27T02:53:35.493Z</time>
      </trkpt>
      <trkpt lat="43.557742" lon="4.045418">
        <ele>1.467553</ele>
        <time>2022-07-27T02:53:58.356Z</time>
      </trkpt>
      <trkpt lat="43.557819" lon="4.046634">
        <ele>1.789740</ele>
        <time>2022-07-27T02:54:21.219Z</time>
      </trkpt>
      <trkpt lat="43.557897" lon="4.047849">
        <ele>1.934876</ele>
        <time>2022-07-27T02:54:44.081Z</time>
      </trkpt>
      <trkpt lat="43.557974" lon="4.049064">
        <ele>2.010101</ele>
        <time>2022-07-27T02:55:06.943Z</time>
      </trkpt>
      <trkpt lat="43.558052" lon="4.050280">
        <ele>1.791705</ele>
        <time>2022-07-27T02:55:29.806Z</time>
      </trkpt>
      <trkpt lat="43.558129" lon="4.051495">
        <ele>1.436701</ele>
        <time>2022-07-27T02:55:52.669Z</time>
      </trkpt>
      <trkpt lat="43.558207" lon="4.052710">
        <ele>1.321843</ele>
        <time>2022-07-27T02:56:15.531Z</time>
      </trkpt>
      <trkpt lat="43.558284" lon="4.053926">
        <ele>1.337669</ele>
        <time>2022-07-27T02:56:38.393Z</time>
      </trkpt>
      <trkpt lat="43.558298" lon="4.054820">
        <ele>1.487856</ele>
        <time>2022-07-27T02:56:53.403Z</time>
      </trkpt>
      <trkpt lat="43.558316" lon="4.055787">
        <ele>1.817476</ele>
        <time>2022-07-27T02:57:10.376Z</time>
      </trkpt>
      <trkpt lat="43.558325" lon="4.056258">
        <ele>1.978027</ele>
        <time>2022-07-27T02:57:19.117Z</time>
      </trkpt>
      <trkpt lat="43.558329" lon="4.056539">
        <ele>2.073798</ele>
        <time>2022-07-27T02:57:23.978Z</time>
      </trkpt>
      <trkpt lat="43.558682" lon="4.057294">
        <ele>2.350925</ele>
        <time>2022-07-27T02:57:40.807Z</time>
      </trkpt>
      <trkpt lat="43.559035" lon="4.058048">
        <ele>2.610157</ele>
        <time>2022-07-27T02:57:57.635Z</time>
      </trkpt>
      <trkpt lat="43.559239" lon="4.057929">
        <ele>2.698417</ele>
        <time>2022-07-27T02:58:02.647Z</time>
      </trkpt>
      <trkpt lat="43.559738" lon="4.057873">
        <ele>2.897928</ele>
        <time>2022-07-27T02:58:14.733Z</time>
      </trkpt>
      <trkpt lat="43.560304" lon="4.057892">
        <ele>3.133801</ele>
        <time>2022-07-27T02:58:27.900Z</time>
      </trkpt>
      <trkpt lat="43.560713" lon="4.057989">
        <ele>3.306984</ele>
        <time>2022-07-27T02:58:37.452Z</time>
      </trkpt>
      <trkpt lat="43.561187" lon="4.058271">
        <ele>3.522389</ele>
        <time>2022-07-27T02:58:49.963Z</time>
      </trkpt>
      <trkpt lat="43.561780" lon="4.058903">
        <ele>3.962444</ele>
        <time>2022-07-27T02:59:08.651Z</time>
      </trkpt>
      <trkpt lat="43.562058" lon="4.059362">
        <ele>4.272684</ele>
        <time>2022-07-27T02:59:19.946Z</time>
      </trkpt>
      <trkpt lat="43.562256" lon="4.060108">
        <ele>4.684700</ele>
        <time>2022-07-27T02:59:34.379Z</time>
      </trkpt>
      <trkpt lat="43.562180" lon="4.061326">
        <ele>5.267285</ele>
        <time>2022-07-27T02:59:57.279Z</time>
      </trkpt>
      <trkpt lat="43.562103" lon="4.062543">
        <ele>5.813857</ele>
        <time>2022-07-27T03:00:20.180Z</time>
      </trkpt>
      <trkpt lat="43.562026" lon="4.063761">
        <ele>6.222591</ele>
        <time>2022-07-27T03:00:43.080Z</time>
      </trkpt>
      <trkpt lat="43.561950" lon="4.064978">
        <ele>6.522258</ele>
        <time>2022-07-27T03:01:05.981Z</time>
      </trkpt>
      <trkpt lat="43.561873" lon="4.066196">
        <ele>6.645299</ele>
        <time>2022-07-27T03:01:28.881Z</time>
      </trkpt>
      <trkpt lat="43.561796" lon="4.067413">
        <ele>6.610599</ele>
        <time>2022-07-27T03:01:51.781Z</time>
      </trkpt>
      <trkpt lat="43.561719" lon="4.068631">
        <ele>6.438640</ele>
        <time>2022-07-27T03:02:14.681Z</time>
      </trkpt>
      <trkpt lat="43.561643" lon="4.069848">
        <ele>6.128405</ele>
        <time>2022-07-27T03:02:37.582Z</time>
      </trkpt>
      <trkpt lat="43.561566" lon="4.071066">
        <ele>5.690468</ele>
        <time>2022-07-27T03:03:00.482Z</time>
      </trkpt>
      <trkpt lat="43.561489" lon="4.072283">
        <ele>5.107289</ele>
        <time>2022-07-27T03:03:23.383Z</time>
      </trkpt>
      <trkpt lat="43.561413" lon="4.073501">
        <ele>4.706761</ele>
        <time>2022-07-27T03:03:46.284Z</time>
      </trkpt>
      <trkpt lat="43.561336" lon="4.074718">
        <ele>4.543682</ele>
        <time>2022-07-27T03:04:09.184Z</time>
      </trkpt>
      <trkpt lat="43.561259" lon="4.075936">
        <ele>4.836633</ele>
        <time>2022-07-27T03:04:32.085Z</time>
      </trkpt>
      <trkpt lat="43.561183" lon="4.077153">
        <ele>5.800418</ele>
        <time>2022-07-27T03:04:54.987Z</time>
      </trkpt>
      <trkpt lat="43.561213" lon="4.077274">
        <ele>5.901322</ele>
        <time>2022-07-27T03:04:57.637Z</time>
      </trkpt>
      <trkpt lat="43.561236" lon="4.077364">
        <ele>5.976619</ele>
        <time>2022-07-27T03:04:59.562Z</time>
      </trkpt>
      <trkpt lat="43.561397" lon="4.077764">
        <ele>6.337641</ele>
        <time>2022-07-27T03:05:09.037Z</time>
      </trkpt>
      <trkpt lat="43.561849" lon="4.078840">
        <ele>6.899091</ele>
        <time>2022-07-27T03:05:32.881Z</time>
      </trkpt>
      <trkpt lat="43.562103" lon="4.079447">
        <ele>7.198098</ele>
        <time>2022-07-27T03:05:44.971Z</time>
      </trkpt>
      <trkpt lat="43.562199" lon="4.079671">
        <ele>7.309113</ele>
        <time>2022-07-27T03:05:49.221Z</time>
      </trkpt>
      <trkpt lat="43.562297" lon="4.079904">
        <ele>7.424036</ele>
        <time>2022-07-27T03:05:53.525Z</time>
      </trkpt>
      <trkpt lat="43.562454" lon="4.080273">
        <ele>7.376589</ele>
        <time>2022-07-27T03:06:00.207Z</time>
      </trkpt>
      <trkpt lat="43.562512" lon="4.080412">
        <ele>7.334837</ele>
        <time>2022-07-27T03:06:02.579Z</time>
      </trkpt>
      <trkpt lat="43.562540" lon="4.080480">
        <ele>7.314479</ele>
        <time>2022-07-27T03:06:03.756Z</time>
      </trkpt>
      <trkpt lat="43.562578" lon="4.080552">
        <ele>7.291293</ele>
        <time>2022-07-27T03:06:05.078Z</time>
      </trkpt>
      <trkpt lat="43.562680" lon="4.080477">
        <ele>7.249776</ele>
        <time>2022-07-27T03:06:07.396Z</time>
      </trkpt>
      <trkpt lat="43.562794" lon="4.080392">
        <ele>7.203230</ele>
        <time>2022-07-27T03:06:09.892Z</time>
      </trkpt>
      <trkpt lat="43.563224" lon="4.080159">
        <ele>7.037285</ele>
        <time>2022-07-27T03:06:18.995Z</time>
      </trkpt>
      <trkpt lat="43.563507" lon="4.080002">
        <ele>6.927718</ele>
        <time>2022-07-27T03:06:25.506Z</time>
      </trkpt>
      <trkpt lat="43.563687" lon="4.079968">
        <ele>6.862456</ele>
        <time>2022-07-27T03:06:29.443Z</time>
      </trkpt>
      <trkpt lat="43.564411" lon="4.080112">
        <ele>6.826703</ele>
        <time>2022-07-27T03:06:46.433Z</time>
      </trkpt>
      <trkpt lat="43.564272" lon="4.080360">
        <ele>6.830099</ele>
        <time>2022-07-27T03:06:51.603Z</time>
      </trkpt>
      <trkpt lat="43.564114" lon="4.080718">
        <ele>6.834640</ele>
        <time>2022-07-27T03:06:58.277Z</time>
      </trkpt>
      <trkpt lat="43.563925" lon="4.081380">
        <ele>6.842348</ele>
        <time>2022-07-27T03:07:09.150Z</time>
      </trkpt>
      <trkpt lat="43.563828" lon="4.082214">
        <ele>6.864567</ele>
        <time>2022-07-27T03:07:23.511Z</time>
      </trkpt>
      <trkpt lat="43.563762" lon="4.083205">
        <ele>6.895545</ele>
        <time>2022-07-27T03:07:39.822Z</time>
      </trkpt>
      <trkpt lat="43.563689" lon="4.084102">
        <ele>6.929321</ele>
        <time>2022-07-27T03:07:53.794Z</time>
      </trkpt>
      <trkpt lat="43.563623" lon="4.085098">
        <ele>7.055842</ele>
        <time>2022-07-27T03:08:10.418Z</time>
      </trkpt>
      <trkpt lat="43.563565" lon="4.085896">
        <ele>7.157296</ele>
        <time>2022-07-27T03:08:24.413Z</time>
      </trkpt>
      <trkpt lat="43.563557" lon="4.086009">
        <ele>7.171659</ele>
        <time>2022-07-27T03:08:26.404Z</time>
      </trkpt>
      <trkpt lat="43.563548" lon="4.086137">
        <ele>7.187927</ele>
        <time>2022-07-27T03:08:28.584Z</time>
      </trkpt>
      <trkpt lat="43.563524" lon="4.086540">
        <ele>7.234485</ele>
        <time>2022-07-27T03:08:35.136Z</time>
      </trkpt>
      <trkpt lat="43.563400" lon="4.088224">
        <ele>7.149331</ele>
        <time>2022-07-27T03:09:02.153Z</time>
      </trkpt>
      <trkpt lat="43.563280" lon="4.090049">
        <ele>6.642586</ele>
        <time>2022-07-27T03:09:30.796Z</time>
      </trkpt>
      <trkpt lat="43.563189" lon="4.091208">
        <ele>6.131823</ele>
        <time>2022-07-27T03:09:47.287Z</time>
      </trkpt>
      <trkpt lat="43.563168" lon="4.091491">
        <ele>5.999599</ele>
        <time>2022-07-27T03:09:51.192Z</time>
      </trkpt>
      <trkpt lat="43.563120" lon="4.092144">
        <ele>5.577458</ele>
        <time>2022-07-27T03:10:00.373Z</time>
      </trkpt>
      <trkpt lat="43.563163" lon="4.092149">
        <ele>5.539156</ele>
        <time>2022-07-27T03:10:01.919Z</time>
      </trkpt>
      <trkpt lat="43.563109" lon="4.092827">
        <ele>5.100466</ele>
        <time>2022-07-27T03:10:11.691Z</time>
      </trkpt>
      <trkpt lat="43.563057" lon="4.093006">
        <ele>4.976432</ele>
        <time>2022-07-27T03:10:14.299Z</time>
      </trkpt>
      <trkpt lat="43.562930" lon="4.094320">
        <ele>4.392071</ele>
        <time>2022-07-27T03:10:33.172Z</time>
      </trkpt>
      <trkpt lat="43.562781" lon="4.094849">
        <ele>4.350091</ele>
        <time>2022-07-27T03:10:41.504Z</time>
      </trkpt>
      <trkpt lat="43.562581" lon="4.095185">
        <ele>4.317929</ele>
        <time>2022-07-27T03:10:48.662Z</time>
      </trkpt>
      <trkpt lat="43.562449" lon="4.095340">
        <ele>4.300237</ele>
        <time>2022-07-27T03:10:52.864Z</time>
      </trkpt>
      <trkpt lat="43.562310" lon="4.095505">
        <ele>4.281522</ele>
        <time>2022-07-27T03:10:57.336Z</time>
      </trkpt>
      <trkpt lat="43.562010" lon="4.095752">
        <ele>4.245863</ele>
        <time>2022-07-27T03:11:05.752Z</time>
      </trkpt>
      <trkpt lat="43.561606" lon="4.096068">
        <ele>4.298650</ele>
        <time>2022-07-27T03:11:16.826Z</time>
      </trkpt>
      <trkpt lat="43.561463" lon="4.096182">
        <ele>4.319434</ele>
        <time>2022-07-27T03:11:20.555Z</time>
      </trkpt>
      <trkpt lat="43.561509" lon="4.096315">
        <ele>4.332873</ele>
        <time>2022-07-27T03:11:23.054Z</time>
      </trkpt>
      <trkpt lat="43.561586" lon="4.096483">
        <ele>4.351001</ele>
        <time>2022-07-27T03:11:26.371Z</time>
      </trkpt>
      <trkpt lat="43.561486" lon="4.096564">
        <ele>4.365593</ele>
        <time>2022-07-27T03:11:30.625Z</time>
      </trkpt>
      <trkpt lat="43.561453" lon="4.096733">
        <ele>4.381555</ele>
        <time>2022-07-27T03:11:35.448Z</time>
      </trkpt>
      <trkpt lat="43.560926" lon="4.097131">
        <ele>4.457159</ele>
        <time>2022-07-27T03:11:57.660Z</time>
      </trkpt>
      <trkpt lat="43.560137" lon="4.097801">
        <ele>4.337981</ele>
        <time>2022-07-27T03:12:31.371Z</time>
      </trkpt>
      <trkpt lat="43.559398" lon="4.098310">
        <ele>4.206423</ele>
        <time>2022-07-27T03:12:54.595Z</time>
      </trkpt>
      <trkpt lat="43.558361" lon="4.099069">
        <ele>4.083980</ele>
        <time>2022-07-27T03:13:29.548Z</time>
      </trkpt>
      <trkpt lat="43.557202" lon="4.099997">
        <ele>3.674277</ele>
        <time>2022-07-27T03:14:07.485Z</time>
      </trkpt>
      <trkpt lat="43.557069" lon="4.099948">
        <ele>3.593198</ele>
        <time>2022-07-27T03:14:11.230Z</time>
      </trkpt>
      <trkpt lat="43.556708" lon="4.100370">
        <ele>3.314536</ele>
        <time>2022-07-27T03:14:21.696Z</time>
      </trkpt>
      <trkpt lat="43.556679" lon="4.100346">
        <ele>3.294619</ele>
        <time>2022-07-27T03:14:22.633Z</time>
      </trkpt>
      <trkpt lat="43.556662" lon="4.100333">
        <ele>3.283172</ele>
        <time>2022-07-27T03:14:23.995Z</time>
      </trkpt>
      <trkpt lat="43.556623" lon="4.100301">
        <ele>3.256447</ele>
        <time>2022-07-27T03:14:27.160Z</time>
      </trkpt>
      <trkpt lat="43.556599" lon="4.100368">
        <ele>3.224547</ele>
        <time>2022-07-27T03:14:28.217Z</time>
      </trkpt>
      <trkpt lat="43.556552" lon="4.100569">
        <ele>3.134398</ele>
        <time>2022-07-27T03:14:31.217Z</time>
      </trkpt>
      <trkpt lat="43.556484" lon="4.100789">
        <ele>3.032310</ele>
        <time>2022-07-27T03:14:34.639Z</time>
      </trkpt>
      <trkpt lat="43.556062" lon="4.102118">
        <ele>2.283044</ele>
        <time>2022-07-27T03:14:55.314Z</time>
      </trkpt>
      <trkpt lat="43.555733" lon="4.103295">
        <ele>1.628984</ele>
        <time>2022-07-27T03:15:13.588Z</time>
      </trkpt>
      <trkpt lat="43.555623" lon="4.103689">
        <ele>1.566568</ele>
        <time>2022-07-27T03:15:19.962Z</time>
      </trkpt>
      <trkpt lat="43.555342" lon="4.105108">
        <ele>1.349112</ele>
        <time>2022-07-27T03:15:43.224Z</time>
      </trkpt>
      <trkpt lat="43.555062" lon="4.106535">
        <ele>1.334389</ele>
        <time>2022-07-27T03:16:06.788Z</time>
      </trkpt>
      <trkpt lat="43.554858" lon="4.107589">
        <ele>1.412721</ele>
        <time>2022-07-27T03:16:24.856Z</time>
      </trkpt>
      <trkpt lat="43.554704" lon="4.108077">
        <ele>1.449476</ele>
        <time>2022-07-27T03:16:33.931Z</time>
      </trkpt>
      <trkpt lat="43.554673" lon="4.108061">
        <ele>1.451792</ele>
        <time>2022-07-27T03:16:34.730Z</time>
      </trkpt>
      <trkpt lat="43.554588" lon="4.108205">
        <ele>1.461211</ele>
        <time>2022-07-27T03:16:37.752Z</time>
      </trkpt>
      <trkpt lat="43.554428" lon="4.108264">
        <ele>1.472801</ele>
        <time>2022-07-27T03:16:41.643Z</time>
      </trkpt>
      <trkpt lat="43.554395" lon="4.108350">
        <ele>1.477737</ele>
        <time>2022-07-27T03:16:43.215Z</time>
      </trkpt>
      <trkpt lat="43.554364" lon="4.108432">
        <ele>1.482428</ele>
        <time>2022-07-27T03:16:44.639Z</time>
      </trkpt>
      <trkpt lat="43.554396" lon="4.108456">
        <ele>1.484976</ele>
        <time>2022-07-27T03:16:45.428Z</time>
      </trkpt>
      <trkpt lat="43.554409" lon="4.108700">
        <ele>1.497385</ele>
        <time>2022-07-27T03:16:49.408Z</time>
      </trkpt>
      <trkpt lat="43.554375" lon="4.108823">
        <ele>1.504062</ele>
        <time>2022-07-27T03:16:51.500Z</time>
      </trkpt>
      <trkpt lat="43.554404" lon="4.108856">
        <ele>1.506692</ele>
        <time>2022-07-27T03:16:52.308Z</time>
      </trkpt>
      <trkpt lat="43.554495" lon="4.108960">
        <ele>1.514962</ele>
        <time>2022-07-27T03:16:54.870Z</time>
      </trkpt>
      <trkpt lat="43.554525" lon="4.108994">
        <ele>1.517678</ele>
        <time>2022-07-27T03:16:55.731Z</time>
      </trkpt>
      <trkpt lat="43.554495" lon="4.108960">
        <ele>1.520395</ele>
        <time>2022-07-27T03:16:56.605Z</time>
      </trkpt>
      <trkpt lat="43.554404" lon="4.108856">
        <ele>1.528664</ele>
        <time>2022-07-27T03:16:59.223Z</time>
      </trkpt>
      <trkpt lat="43.554195" lon="4.109373">
        <ele>1.558689</ele>
        <time>2022-07-27T03:17:08.701Z</time>
      </trkpt>
      <trkpt lat="43.553865" lon="4.110029">
        <ele>1.712930</ele>
        <time>2022-07-27T03:17:21.976Z</time>
      </trkpt>
      <trkpt lat="43.553363" lon="4.111295">
        <ele>2.090417</ele>
        <time>2022-07-27T03:17:46.710Z</time>
      </trkpt>
      <trkpt lat="43.552181" lon="4.114813">
        <ele>3.717371</ele>
        <time>2022-07-27T03:18:55.646Z</time>
      </trkpt>
      <trkpt lat="43.551745" lon="4.116111">
        <ele>4.492053</ele>
        <time>2022-07-27T03:19:21.745Z</time>
      </trkpt>
      <trkpt lat="43.551444" lon="4.117017">
        <ele>5.024975</ele>
        <time>2022-07-27T03:19:41.832Z</time>
      </trkpt>
      <trkpt lat="43.551395" lon="4.117043">
        <ele>5.063617</ele>
        <time>2022-07-27T03:19:43.252Z</time>
      </trkpt>
      <trkpt lat="43.551259" lon="4.117399">
        <ele>5.278300</ele>
        <time>2022-07-27T03:19:50.956Z</time>
      </trkpt>
      <trkpt lat="43.551232" lon="4.117383">
        <ele>5.299929</ele>
        <time>2022-07-27T03:19:51.589Z</time>
      </trkpt>
      <trkpt lat="43.551144" lon="4.117525">
        <ele>5.399599</ele>
        <time>2022-07-27T03:19:55.285Z</time>
      </trkpt>
      <trkpt lat="43.550835" lon="4.117667">
        <ele>5.639326</ele>
        <time>2022-07-27T03:20:02.716Z</time>
      </trkpt>
      <trkpt lat="43.550808" lon="4.117732">
        <ele>5.679293</ele>
        <time>2022-07-27T03:20:04.212Z</time>
      </trkpt>
      <trkpt lat="43.550789" lon="4.117813">
        <ele>5.724711</ele>
        <time>2022-07-27T03:20:05.580Z</time>
      </trkpt>
      <trkpt lat="43.550877" lon="4.118422">
        <ele>5.751314</ele>
        <time>2022-07-27T03:20:15.393Z</time>
      </trkpt>
      <trkpt lat="43.550919" lon="4.118441">
        <ele>5.720446</ele>
        <time>2022-07-27T03:20:16.249Z</time>
      </trkpt>
      <trkpt lat="43.550717" lon="4.119299">
        <ele>5.263827</ele>
        <time>2022-07-27T03:20:30.638Z</time>
      </trkpt>
      <trkpt lat="43.550568" lon="4.119795">
        <ele>4.992063</ele>
        <time>2022-07-27T03:20:38.080Z</time>
      </trkpt>
      <trkpt lat="43.550455" lon="4.120250">
        <ele>4.748616</ele>
        <time>2022-07-27T03:20:44.448Z</time>
      </trkpt>
      <trkpt lat="43.550388" lon="4.121017">
        <ele>4.206626</ele>
        <time>2022-07-27T03:20:54.644Z</time>
      </trkpt>
      <trkpt lat="43.550508" lon="4.121942">
        <ele>3.479887</ele>
        <time>2022-07-27T03:21:07.297Z</time>
      </trkpt>
      <trkpt lat="43.550698" lon="4.122777">
        <ele>2.803046</ele>
        <time>2022-07-27T03:21:19.812Z</time>
      </trkpt>
      <trkpt lat="43.550901" lon="4.123916">
        <ele>2.718571</ele>
        <time>2022-07-27T03:21:38.325Z</time>
      </trkpt>
      <trkpt lat="43.550944" lon="4.124101">
        <ele>2.717538</ele>
        <time>2022-07-27T03:21:41.702Z</time>
      </trkpt>
      <trkpt lat="43.550989" lon="4.124262">
        <ele>2.716620</ele>
        <time>2022-07-27T03:21:44.664Z</time>
      </trkpt>
      <trkpt lat="43.551554" lon="4.125775">
        <ele>2.688357</ele>
        <time>2022-07-27T03:22:13.001Z</time>
      </trkpt>
      <trkpt lat="43.551937" lon="4.126591">
        <ele>2.654809</ele>
        <time>2022-07-27T03:22:28.536Z</time>
      </trkpt>
      <trkpt lat="43.552369" lon="4.127414">
        <ele>2.604192</ele>
        <time>2022-07-27T03:22:44.274Z</time>
      </trkpt>
      <trkpt lat="43.553057" lon="4.128565">
        <ele>2.411967</ele>
        <time>2022-07-27T03:23:07.323Z</time>
      </trkpt>
      <trkpt lat="43.553230" lon="4.129060">
        <ele>2.341163</ele>
        <time>2022-07-27T03:23:16.106Z</time>
      </trkpt>
      <trkpt lat="43.553318" lon="4.129480">
        <ele>2.290799</ele>
        <time>2022-07-27T03:23:23.221Z</time>
      </trkpt>
      <trkpt lat="43.553339" lon="4.130351">
        <ele>2.210644</ele>
        <time>2022-07-27T03:23:37.208Z</time>
      </trkpt>
      <trkpt lat="43.553218" lon="4.130984">
        <ele>2.150432</ele>
        <time>2022-07-27T03:23:47.369Z</time>
      </trkpt>
      <trkpt lat="43.553076" lon="4.131375">
        <ele>2.110207</ele>
        <time>2022-07-27T03:23:54.093Z</time>
      </trkpt>
      <trkpt lat="43.552889" lon="4.131728">
        <ele>2.088940</ele>
        <time>2022-07-27T03:24:00.925Z</time>
      </trkpt>
      <trkpt lat="43.552644" lon="4.132049">
        <ele>2.155501</ele>
        <time>2022-07-27T03:24:08.297Z</time>
      </trkpt>
      <trkpt lat="43.552434" lon="4.132217">
        <ele>2.203323</ele>
        <time>2022-07-27T03:24:13.655Z</time>
      </trkpt>
      <trkpt lat="43.552116" lon="4.132471">
        <ele>2.275712</ele>
        <time>2022-07-27T03:24:21.954Z</time>
      </trkpt>
      <trkpt lat="43.549462" lon="4.133531">
        <ele>3.179723</ele>
        <time>2022-07-27T03:25:29.181Z</time>
      </trkpt>
      <trkpt lat="43.549652" lon="4.134691">
        <ele>2.785361</ele>
        <time>2022-07-27T03:25:51.467Z</time>
      </trkpt>
      <trkpt lat="43.549843" lon="4.135850">
        <ele>2.368184</ele>
        <time>2022-07-27T03:26:13.753Z</time>
      </trkpt>
      <trkpt lat="43.550033" lon="4.137010">
        <ele>1.769043</ele>
        <time>2022-07-27T03:26:36.039Z</time>
      </trkpt>
      <trkpt lat="43.550224" lon="4.138170">
        <ele>1.185641</ele>
        <time>2022-07-27T03:26:58.325Z</time>
      </trkpt>
      <trkpt lat="43.550414" lon="4.139329">
        <ele>1.197381</ele>
        <time>2022-07-27T03:27:20.611Z</time>
      </trkpt>
      <trkpt lat="43.550435" lon="4.139390">
        <ele>1.198049</ele>
        <time>2022-07-27T03:27:21.703Z</time>
      </trkpt>
      <trkpt lat="43.550485" lon="4.139640">
        <ele>1.200611</ele>
        <time>2022-07-27T03:27:25.995Z</time>
      </trkpt>
      <trkpt lat="43.550448" lon="4.139902">
        <ele>1.203248</ele>
        <time>2022-07-27T03:27:30.426Z</time>
      </trkpt>
      <trkpt lat="43.550503" lon="4.140086">
        <ele>1.205214</ele>
        <time>2022-07-27T03:27:33.746Z</time>
      </trkpt>
      <trkpt lat="43.550595" lon="4.140202">
        <ele>1.206913</ele>
        <time>2022-07-27T03:27:36.625Z</time>
      </trkpt>
      <trkpt lat="43.550767" lon="4.140264">
        <ele>1.209337</ele>
        <time>2022-07-27T03:27:40.711Z</time>
      </trkpt>
      <trkpt lat="43.550916" lon="4.140311">
        <ele>1.222598</ele>
        <time>2022-07-27T03:27:44.327Z</time>
      </trkpt>
      <trkpt lat="43.551111" lon="4.140467">
        <ele>1.247603</ele>
        <time>2022-07-27T03:27:49.487Z</time>
      </trkpt>
      <trkpt lat="43.551503" lon="4.141121">
        <ele>1.315836</ele>
        <time>2022-07-27T03:28:03.788Z</time>
      </trkpt>
      <trkpt lat="43.557283" lon="4.150388">
        <ele>1.564826</ele>
        <time>2022-07-27T03:31:21.039Z</time>
      </trkpt>
      <trkpt lat="43.558537" lon="4.152395">
        <ele>1.835708</ele>
        <time>2022-07-27T03:32:04.923Z</time>
      </trkpt>
      <trkpt lat="43.558873" lon="4.152811">
        <ele>1.923292</ele>
        <time>2022-07-27T03:32:15.348Z</time>
      </trkpt>
      <trkpt lat="43.559030" lon="4.152570">
        <ele>1.968856</ele>
        <time>2022-07-27T03:32:21.417Z</time>
      </trkpt>
      <trkpt lat="43.559650" lon="4.152470">
        <ele>2.054174</ele>
        <time>2022-07-27T03:32:37.560Z</time>
      </trkpt>
      <trkpt lat="43.560270" lon="4.152370">
        <ele>2.126339</ele>
        <time>2022-07-27T03:32:53.702Z</time>
      </trkpt>
      <trkpt lat="43.560620" lon="4.152750">
        <ele>2.177824</ele>
        <time>2022-07-27T03:33:05.218Z</time>
      </trkpt>
      <trkpt lat="43.560640" lon="4.153540">
        <ele>2.122018</ele>
        <time>2022-07-27T03:33:20.030Z</time>
      </trkpt>
      <trkpt lat="43.560608" lon="4.153407">
        <ele>2.092481</ele>
        <time>2022-07-27T03:33:22.653Z</time>
      </trkpt>
      <trkpt lat="43.560795" lon="4.153155">
        <ele>2.016456</ele>
        <time>2022-07-27T03:33:30.313Z</time>
      </trkpt>
      <trkpt lat="43.560911" lon="4.153147">
        <ele>1.982674</ele>
        <time>2022-07-27T03:33:32.784Z</time>
      </trkpt>
      <trkpt lat="43.560985" lon="4.153206">
        <ele>1.957816</ele>
        <time>2022-07-27T03:33:34.597Z</time>
      </trkpt>
      <trkpt lat="43.561048" lon="4.153395">
        <ele>1.913967</ele>
        <time>2022-07-27T03:33:37.707Z</time>
      </trkpt>
      <trkpt lat="43.561072" lon="4.154260">
        <ele>1.731515</ele>
        <time>2022-07-27T03:33:50.593Z</time>
      </trkpt>
      <trkpt lat="43.561297" lon="4.155311">
        <ele>1.345152</ele>
        <time>2022-07-27T03:34:06.665Z</time>
      </trkpt>
      <trkpt lat="43.561322" lon="4.155416">
        <ele>1.302361</ele>
        <time>2022-07-27T03:34:08.254Z</time>
      </trkpt>
      <trkpt lat="43.561907" lon="4.157236">
        <ele>0.615532</ele>
        <time>2022-07-27T03:34:37.726Z</time>
      </trkpt>
      <trkpt lat="43.562576" lon="4.158589">
        <ele>0.256550</ele>
        <time>2022-07-27T03:35:02.985Z</time>
      </trkpt>
      <trkpt lat="43.562418" lon="4.158739">
        <ele>0.198547</ele>
        <time>2022-07-27T03:35:07.117Z</time>
      </trkpt>
      <trkpt lat="43.562281" lon="4.158873">
        <ele>0.176179</ele>
        <time>2022-07-27T03:35:10.800Z</time>
      </trkpt>
      <trkpt lat="43.564850" lon="4.162801">
        <ele>0.092881</ele>
        <time>2022-07-27T03:36:35.932Z</time>
      </trkpt>
      <trkpt lat="43.568509" lon="4.168438">
        <ele>0.139937</ele>
        <time>2022-07-27T03:38:37.603Z</time>
      </trkpt>
      <trkpt lat="43.571938" lon="4.173969">
        <ele>1.558240</ele>
        <time>2022-07-27T03:40:41.013Z</time>
      </trkpt>
      <trkpt lat="43.572089" lon="4.174328">
        <ele>1.613945</ele>
        <time>2022-07-27T03:40:48.084Z</time>
      </trkpt>
      <trkpt lat="43.572061" lon="4.174425">
        <ele>1.627957</ele>
        <time>2022-07-27T03:40:49.856Z</time>
      </trkpt>
      <trkpt lat="43.572111" lon="4.174775">
        <ele>1.675829</ele>
        <time>2022-07-27T03:40:55.653Z</time>
      </trkpt>
      <trkpt lat="43.572344" lon="4.174945">
        <ele>1.724644</ele>
        <time>2022-07-27T03:41:01.610Z</time>
      </trkpt>
      <trkpt lat="43.572446" lon="4.174926">
        <ele>1.743708</ele>
        <time>2022-07-27T03:41:03.858Z</time>
      </trkpt>
      <trkpt lat="43.572540" lon="4.174858">
        <ele>1.763365</ele>
        <time>2022-07-27T03:41:06.296Z</time>
      </trkpt>
      <trkpt lat="43.572637" lon="4.174680">
        <ele>1.793254</ele>
        <time>2022-07-27T03:41:10.092Z</time>
      </trkpt>
      <trkpt lat="43.572646" lon="4.174412">
        <ele>1.829256</ele>
        <time>2022-07-27T03:41:14.586Z</time>
      </trkpt>
      <trkpt lat="43.572499" lon="4.174160">
        <ele>1.852857</ele>
        <time>2022-07-27T03:41:20.018Z</time>
      </trkpt>
      <trkpt lat="43.572299" lon="4.174117">
        <ele>1.871458</ele>
        <time>2022-07-27T03:41:24.764Z</time>
      </trkpt>
      <trkpt lat="43.572089" lon="4.174328">
        <ele>1.895329</ele>
        <time>2022-07-27T03:41:30.872Z</time>
      </trkpt>
      <trkpt lat="43.572061" lon="4.174425">
        <ele>1.902281</ele>
        <time>2022-07-27T03:41:32.615Z</time>
      </trkpt>
      <trkpt lat="43.572111" lon="4.174775">
        <ele>1.926033</ele>
        <time>2022-07-27T03:41:38.557Z</time>
      </trkpt>
      <trkpt lat="43.572344" lon="4.174945">
        <ele>1.950252</ele>
        <time>2022-07-27T03:41:44.404Z</time>
      </trkpt>
      <trkpt lat="43.572446" lon="4.174926">
        <ele>1.959711</ele>
        <time>2022-07-27T03:41:46.610Z</time>
      </trkpt>
      <trkpt lat="43.572677" lon="4.175158">
        <ele>1.985964</ele>
        <time>2022-07-27T03:41:52.687Z</time>
      </trkpt>
      <trkpt lat="43.575492" lon="4.179714">
        <ele>1.416817</ele>
        <time>2022-07-27T03:43:27.412Z</time>
      </trkpt>
      <trkpt lat="43.576414" lon="4.181504">
        <ele>1.082263</ele>
        <time>2022-07-27T03:44:00.841Z</time>
      </trkpt>
      <trkpt lat="43.576524" lon="4.181716">
        <ele>1.062479</ele>
        <time>2022-07-27T03:44:04.804Z</time>
      </trkpt>
      <trkpt lat="43.576842" lon="4.182469">
        <ele>0.996354</ele>
        <time>2022-07-27T03:44:18.639Z</time>
      </trkpt>
      <trkpt lat="43.577204" lon="4.183472">
        <ele>0.986094</ele>
        <time>2022-07-27T03:44:36.850Z</time>
      </trkpt>
      <trkpt lat="43.578144" lon="4.186099">
        <ele>1.432197</ele>
        <time>2022-07-27T03:45:26.291Z</time>
      </trkpt>
      <trkpt lat="43.578246" lon="4.186556">
        <ele>1.493549</ele>
        <time>2022-07-27T03:45:34.346Z</time>
      </trkpt>
      <trkpt lat="43.578350" lon="4.186410">
        <ele>1.519818</ele>
        <time>2022-07-27T03:45:38.175Z</time>
      </trkpt>
      <trkpt lat="43.578700" lon="4.186710">
        <ele>1.592780</ele>
        <time>2022-07-27T03:45:48.829Z</time>
      </trkpt>
      <trkpt lat="43.578480" lon="4.187240">
        <ele>1.633993</ele>
        <time>2022-07-27T03:46:00.272Z</time>
      </trkpt>
      <trkpt lat="43.577720" lon="4.187300">
        <ele>1.495499</ele>
        <time>2022-07-27T03:46:19.957Z</time>
      </trkpt>
      <trkpt lat="43.577828" lon="4.187379">
        <ele>1.473262</ele>
        <time>2022-07-27T03:46:23.117Z</time>
      </trkpt>
      <trkpt lat="43.577860" lon="4.187509">
        <ele>1.455167</ele>
        <time>2022-07-27T03:46:25.197Z</time>
      </trkpt>
      <trkpt lat="43.577770" lon="4.187683">
        <ele>1.426988</ele>
        <time>2022-07-27T03:46:28.668Z</time>
      </trkpt>
      <trkpt lat="43.577536" lon="4.188470">
        <ele>1.318315</ele>
        <time>2022-07-27T03:46:42.413Z</time>
      </trkpt>
      <trkpt lat="43.577294" lon="4.188674">
        <ele>1.283317</ele>
        <time>2022-07-27T03:46:48.698Z</time>
      </trkpt>
      <trkpt lat="43.576444" lon="4.189071">
        <ele>1.172561</ele>
        <time>2022-07-27T03:47:11.903Z</time>
      </trkpt>
      <trkpt lat="43.575594" lon="4.189468">
        <ele>1.090446</ele>
        <time>2022-07-27T03:47:35.107Z</time>
      </trkpt>
      <trkpt lat="43.574744" lon="4.189864">
        <ele>1.055614</ele>
        <time>2022-07-27T03:47:58.311Z</time>
      </trkpt>
      <trkpt lat="43.573894" lon="4.190261">
        <ele>0.992507</ele>
        <time>2022-07-27T03:48:21.515Z</time>
      </trkpt>
      <trkpt lat="43.573044" lon="4.190658">
        <ele>0.881807</ele>
        <time>2022-07-27T03:48:44.720Z</time>
      </trkpt>
      <trkpt lat="43.572038" lon="4.191676">
        <ele>0.834321</ele>
        <time>2022-07-27T03:49:12.897Z</time>
      </trkpt>
      <trkpt lat="43.573044" lon="4.190658">
        <ele>0.885319</ele>
        <time>2022-07-27T03:49:42.495Z</time>
      </trkpt>
      <trkpt lat="43.573894" lon="4.190261">
        <ele>0.983232</ele>
        <time>2022-07-27T03:50:05.699Z</time>
      </trkpt>
      <trkpt lat="43.574744" lon="4.189864">
        <ele>1.067606</ele>
        <time>2022-07-27T03:50:28.904Z</time>
      </trkpt>
      <trkpt lat="43.575594" lon="4.189468">
        <ele>1.068520</ele>
        <time>2022-07-27T03:50:52.108Z</time>
      </trkpt>
      <trkpt lat="43.576444" lon="4.189071">
        <ele>1.093650</ele>
        <time>2022-07-27T03:51:15.312Z</time>
      </trkpt>
      <trkpt lat="43.577294" lon="4.188674">
        <ele>1.274048</ele>
        <time>2022-07-27T03:51:38.516Z</time>
      </trkpt>
      <trkpt lat="43.577536" lon="4.188470">
        <ele>1.331053</ele>
        <time>2022-07-27T03:51:45.425Z</time>
      </trkpt>
      <trkpt lat="43.577770" lon="4.187683">
        <ele>1.411343</ele>
        <time>2022-07-27T03:52:00.793Z</time>
      </trkpt>
      <trkpt lat="43.577860" lon="4.187509">
        <ele>1.386012</ele>
        <time>2022-07-27T03:52:04.624Z</time>
      </trkpt>
      <trkpt lat="43.578246" lon="4.186556">
        <ele>1.256649</ele>
        <time>2022-07-27T03:52:25.074Z</time>
      </trkpt>
      <trkpt lat="43.578173" lon="4.186760">
        <ele>1.229691</ele>
        <time>2022-07-27T03:52:28.462Z</time>
      </trkpt>
      <trkpt lat="43.578172" lon="4.186914">
        <ele>1.211444</ele>
        <time>2022-07-27T03:52:30.845Z</time>
      </trkpt>
      <trkpt lat="43.578233" lon="4.187103">
        <ele>1.186929</ele>
        <time>2022-07-27T03:52:34.004Z</time>
      </trkpt>
      <trkpt lat="43.578327" lon="4.187211">
        <ele>1.166927</ele>
        <time>2022-07-27T03:52:36.458Z</time>
      </trkpt>
      <trkpt lat="43.578505" lon="4.187261">
        <ele>1.137218</ele>
        <time>2022-07-27T03:52:40.328Z</time>
      </trkpt>
      <trkpt lat="43.578652" lon="4.187516">
        <ele>1.041119</ele>
        <time>2022-07-27T03:52:45.081Z</time>
      </trkpt>
      <trkpt lat="43.578899" lon="4.188363">
        <ele>0.769837</ele>
        <time>2022-07-27T03:52:58.572Z</time>
      </trkpt>
      <trkpt lat="43.579156" lon="4.189475">
        <ele>0.423039</ele>
        <time>2022-07-27T03:53:16.047Z</time>
      </trkpt>
      <trkpt lat="43.579212" lon="4.189714">
        <ele>0.418728</ele>
        <time>2022-07-27T03:53:20.110Z</time>
      </trkpt>
      <trkpt lat="43.579321" lon="4.190416">
        <ele>0.501660</ele>
        <time>2022-07-27T03:53:31.905Z</time>
      </trkpt>
      <trkpt lat="43.579747" lon="4.195340">
        <ele>1.387769</ele>
        <time>2022-07-27T03:54:56.536Z</time>
      </trkpt>
      <trkpt lat="43.579770" lon="4.195628">
        <ele>1.423052</ele>
        <time>2022-07-27T03:55:01.232Z</time>
      </trkpt>
      <trkpt lat="43.579917" lon="4.197356">
        <ele>1.709424</ele>
        <time>2022-07-27T03:55:29.512Z</time>
      </trkpt>
      <trkpt lat="43.579994" lon="4.198235">
        <ele>1.971240</ele>
        <time>2022-07-27T03:55:44.326Z</time>
      </trkpt>
      <trkpt lat="43.580072" lon="4.199096">
        <ele>2.227821</ele>
        <time>2022-07-27T03:55:59.877Z</time>
      </trkpt>
      <trkpt lat="43.580108" lon="4.199867">
        <ele>2.499842</ele>
        <time>2022-07-27T03:56:14.402Z</time>
      </trkpt>
      <trkpt lat="43.580058" lon="4.200389">
        <ele>2.704226</ele>
        <time>2022-07-27T03:56:23.995Z</time>
      </trkpt>
      <trkpt lat="43.579927" lon="4.200896">
        <ele>2.913168</ele>
        <time>2022-07-27T03:56:33.529Z</time>
      </trkpt>
      <trkpt lat="43.579784" lon="4.201240">
        <ele>3.067119</ele>
        <time>2022-07-27T03:56:40.351Z</time>
      </trkpt>
      <trkpt lat="43.579616" lon="4.201407">
        <ele>3.178050</ele>
        <time>2022-07-27T03:56:45.426Z</time>
      </trkpt>
      <trkpt lat="43.579468" lon="4.201452">
        <ele>3.259253</ele>
        <time>2022-07-27T03:56:48.848Z</time>
      </trkpt>
      <trkpt lat="43.579311" lon="4.201714">
        <ele>3.189654</ele>
        <time>2022-07-27T03:56:54.606Z</time>
      </trkpt>
      <trkpt lat="43.579302" lon="4.201888">
        <ele>3.133850</ele>
        <time>2022-07-27T03:56:57.375Z</time>
      </trkpt>
      <trkpt lat="43.579409" lon="4.202153">
        <ele>3.036798</ele>
        <time>2022-07-27T03:57:02.043Z</time>
      </trkpt>
      <trkpt lat="43.579475" lon="4.202211">
        <ele>3.002248</ele>
        <time>2022-07-27T03:57:03.616Z</time>
      </trkpt>
      <trkpt lat="43.579554" lon="4.202518">
        <ele>2.898026</ele>
        <time>2022-07-27T03:57:08.388Z</time>
      </trkpt>
      <trkpt lat="43.579620" lon="4.203150">
        <ele>2.693760</ele>
        <time>2022-07-27T03:57:17.611Z</time>
      </trkpt>
      <trkpt lat="43.579634" lon="4.203228">
        <ele>2.668054</ele>
        <time>2022-07-27T03:57:18.744Z</time>
      </trkpt>
      <trkpt lat="43.579800" lon="4.203810">
        <ele>2.474532</ele>
        <time>2022-07-27T03:57:27.609Z</time>
      </trkpt>
      <trkpt lat="43.579986" lon="4.204147">
        <ele>2.387146</ele>
        <time>2022-07-27T03:57:33.837Z</time>
      </trkpt>
      <trkpt lat="43.580024" lon="4.204204">
        <ele>2.371168</ele>
        <time>2022-07-27T03:57:34.985Z</time>
      </trkpt>
      <trkpt lat="43.580242" lon="4.204504">
        <ele>2.283522</ele>
        <time>2022-07-27T03:57:41.360Z</time>
      </trkpt>
      <trkpt lat="43.581167" lon="4.205735">
        <ele>2.032353</ele>
        <time>2022-07-27T03:58:09.283Z</time>
      </trkpt>
      <trkpt lat="43.581980" lon="4.206820">
        <ele>2.362166</ele>
        <time>2022-07-27T03:58:36.199Z</time>
      </trkpt>
      <trkpt lat="43.582569" lon="4.207436">
        <ele>2.651945</ele>
        <time>2022-07-27T03:58:53.605Z</time>
      </trkpt>
      <trkpt lat="43.583506" lon="4.208201">
        <ele>3.268807</ele>
        <time>2022-07-27T03:59:20.013Z</time>
      </trkpt>
      <trkpt lat="43.584361" lon="4.208687">
        <ele>3.604866</ele>
        <time>2022-07-27T03:59:44.009Z</time>
      </trkpt>
      <trkpt lat="43.585071" lon="4.209083">
        <ele>3.741898</ele>
        <time>2022-07-27T04:00:01.396Z</time>
      </trkpt>
      <trkpt lat="43.585346" lon="4.209344">
        <ele>3.801616</ele>
        <time>2022-07-27T04:00:08.480Z</time>
      </trkpt>
      <trkpt lat="43.585465" lon="4.209700">
        <ele>3.780425</ele>
        <time>2022-07-27T04:00:14.503Z</time>
      </trkpt>
      <trkpt lat="43.585472" lon="4.209937">
        <ele>3.633039</ele>
        <time>2022-07-27T04:00:17.898Z</time>
      </trkpt>
      <trkpt lat="43.585569" lon="4.210075">
        <ele>3.513555</ele>
        <time>2022-07-27T04:00:21.023Z</time>
      </trkpt>
      <trkpt lat="43.585657" lon="4.210108">
        <ele>3.435331</ele>
        <time>2022-07-27T04:00:22.798Z</time>
      </trkpt>
      <trkpt lat="43.585859" lon="4.210395">
        <ele>3.186678</ele>
        <time>2022-07-27T04:00:28.553Z</time>
      </trkpt>
      <trkpt lat="43.586142" lon="4.211032">
        <ele>2.722353</ele>
        <time>2022-07-27T04:00:38.533Z</time>
      </trkpt>
      <trkpt lat="43.587105" lon="4.212448">
        <ele>1.995858</ele>
        <time>2022-07-27T04:01:06.207Z</time>
      </trkpt>
      <trkpt lat="43.587464" lon="4.213122">
        <ele>1.795518</ele>
        <time>2022-07-27T04:01:20.120Z</time>
      </trkpt>
      <trkpt lat="43.587623" lon="4.213663">
        <ele>1.736808</ele>
        <time>2022-07-27T04:01:30.070Z</time>
      </trkpt>
      <trkpt lat="43.587731" lon="4.214283">
        <ele>1.849083</ele>
        <time>2022-07-27T04:01:40.792Z</time>
      </trkpt>
      <trkpt lat="43.587730" lon="4.215190">
        <ele>2.008777</ele>
        <time>2022-07-27T04:01:56.381Z</time>
      </trkpt>
      <trkpt lat="43.587646" lon="4.215810">
        <ele>2.119832</ele>
        <time>2022-07-27T04:02:07.029Z</time>
      </trkpt>
      <trkpt lat="43.587573" lon="4.216224">
        <ele>2.127785</ele>
        <time>2022-07-27T04:02:13.990Z</time>
      </trkpt>
      <trkpt lat="43.587422" lon="4.217251">
        <ele>2.088086</ele>
        <time>2022-07-27T04:02:30.482Z</time>
      </trkpt>
      <trkpt lat="43.587388" lon="4.218106">
        <ele>2.055647</ele>
        <time>2022-07-27T04:02:43.814Z</time>
      </trkpt>
      <trkpt lat="43.587405" lon="4.218495">
        <ele>2.032908</ele>
        <time>2022-07-27T04:02:50.253Z</time>
      </trkpt>
      <trkpt lat="43.587444" lon="4.219258">
        <ele>1.954815</ele>
        <time>2022-07-27T04:03:02.518Z</time>
      </trkpt>
      <trkpt lat="43.587427" lon="4.220007">
        <ele>1.878307</ele>
        <time>2022-07-27T04:03:14.265Z</time>
      </trkpt>
      <trkpt lat="43.587406" lon="4.220437">
        <ele>1.834306</ele>
        <time>2022-07-27T04:03:21.012Z</time>
      </trkpt>
      <trkpt lat="43.587398" lon="4.220610">
        <ele>1.816607</ele>
        <time>2022-07-27T04:03:23.664Z</time>
      </trkpt>
      <trkpt lat="43.587386" lon="4.220909">
        <ele>1.768349</ele>
        <time>2022-07-27T04:03:28.334Z</time>
      </trkpt>
      <trkpt lat="43.587341" lon="4.221985">
        <ele>1.335543</ele>
        <time>2022-07-27T04:03:44.678Z</time>
      </trkpt>
      <trkpt lat="43.587278" lon="4.223476">
        <ele>0.743916</ele>
        <time>2022-07-27T04:04:06.248Z</time>
      </trkpt>
      <trkpt lat="43.587201" lon="4.224130">
        <ele>0.514436</ele>
        <time>2022-07-27T04:04:15.745Z</time>
      </trkpt>
      <trkpt lat="43.587048" lon="4.224625">
        <ele>0.328040</ele>
        <time>2022-07-27T04:04:23.492Z</time>
      </trkpt>
      <trkpt lat="43.586272" lon="4.226237">
        <ele>0.018507</ele>
        <time>2022-07-27T04:04:53.772Z</time>
      </trkpt>
      <trkpt lat="43.585920" lon="4.227141">
        <ele>0.125787</ele>
        <time>2022-07-27T04:05:10.720Z</time>
      </trkpt>
      <trkpt lat="43.585324" lon="4.229660">
        <ele>1.098654</ele>
        <time>2022-07-27T04:05:57.829Z</time>
      </trkpt>
      <trkpt lat="43.584428" lon="4.232340">
        <ele>2.590826</ele>
        <time>2022-07-27T04:06:52.545Z</time>
      </trkpt>
      <trkpt lat="43.583739" lon="4.234196">
        <ele>2.697293</ele>
        <time>2022-07-27T04:07:25.782Z</time>
      </trkpt>
      <trkpt lat="43.583436" lon="4.235389">
        <ele>2.856873</ele>
        <time>2022-07-27T04:07:45.869Z</time>
      </trkpt>
      <trkpt lat="43.583354" lon="4.236629">
        <ele>3.063312</ele>
        <time>2022-07-27T04:08:07.517Z</time>
      </trkpt>
      <trkpt lat="43.583321" lon="4.237579">
        <ele>3.014210</ele>
        <time>2022-07-27T04:08:23.633Z</time>
      </trkpt>
      <trkpt lat="43.583271" lon="4.239117">
        <ele>2.699757</ele>
        <time>2022-07-27T04:08:47.388Z</time>
      </trkpt>
      <trkpt lat="43.583225" lon="4.240285">
        <ele>2.193675</ele>
        <time>2022-07-27T04:09:03.570Z</time>
      </trkpt>
      <trkpt lat="43.583169" lon="4.241673">
        <ele>1.436647</ele>
        <time>2022-07-27T04:09:23.175Z</time>
      </trkpt>
      <trkpt lat="43.583015" lon="4.243925">
        <ele>1.423817</ele>
        <time>2022-07-27T04:10:00.202Z</time>
      </trkpt>
      <trkpt lat="43.583011" lon="4.243983">
        <ele>1.428432</ele>
        <time>2022-07-27T04:10:01.250Z</time>
      </trkpt>
      <trkpt lat="43.582876" lon="4.246001">
        <ele>1.697149</ele>
        <time>2022-07-27T04:10:36.250Z</time>
      </trkpt>
      <trkpt lat="43.582870" lon="4.246101">
        <ele>1.712074</ele>
        <time>2022-07-27T04:10:37.935Z</time>
      </trkpt>
      <trkpt lat="43.582851" lon="4.246382">
        <ele>1.754051</ele>
        <time>2022-07-27T04:10:42.575Z</time>
      </trkpt>
      <trkpt lat="43.582788" lon="4.247233">
        <ele>1.768537</ele>
        <time>2022-07-27T04:10:56.110Z</time>
      </trkpt>
      <trkpt lat="43.582678" lon="4.248701">
        <ele>1.452986</ele>
        <time>2022-07-27T04:11:18.359Z</time>
      </trkpt>
      <trkpt lat="43.582290" lon="4.251249">
        <ele>1.081031</ele>
        <time>2022-07-27T04:11:58.813Z</time>
      </trkpt>
      <trkpt lat="43.582061" lon="4.252299">
        <ele>1.086745</ele>
        <time>2022-07-27T04:12:16.376Z</time>
      </trkpt>
      <trkpt lat="43.581780" lon="4.252954">
        <ele>1.193430</ele>
        <time>2022-07-27T04:12:28.759Z</time>
      </trkpt>
      <trkpt lat="43.581322" lon="4.254046">
        <ele>1.376794</ele>
        <time>2022-07-27T04:12:50.456Z</time>
      </trkpt>
      <trkpt lat="43.581219" lon="4.254499">
        <ele>1.493972</ele>
        <time>2022-07-27T04:12:58.639Z</time>
      </trkpt>
      <trkpt lat="43.581104" lon="4.255427">
        <ele>1.726329</ele>
        <time>2022-07-27T04:13:14.863Z</time>
      </trkpt>
      <trkpt lat="43.580870" lon="4.257688">
        <ele>2.084575</ele>
        <time>2022-07-27T04:13:53.529Z</time>
      </trkpt>
      <trkpt lat="43.580852" lon="4.258195">
        <ele>2.128285</ele>
        <time>2022-07-27T04:14:01.644Z</time>
      </trkpt>
      <trkpt lat="43.580905" lon="4.258985">
        <ele>2.182620</ele>
        <time>2022-07-27T04:14:14.316Z</time>
      </trkpt>
      <trkpt lat="43.581336" lon="4.261170">
        <ele>2.049511</ele>
        <time>2022-07-27T04:14:50.211Z</time>
      </trkpt>
      <trkpt lat="43.581406" lon="4.262232">
        <ele>1.924734</ele>
        <time>2022-07-27T04:15:06.932Z</time>
      </trkpt>
      <trkpt lat="43.581331" lon="4.263147">
        <ele>1.810067</ele>
        <time>2022-07-27T04:15:21.408Z</time>
      </trkpt>
      <trkpt lat="43.580521" lon="4.268575">
        <ele>1.209504</ele>
        <time>2022-07-27T04:16:48.317Z</time>
      </trkpt>
      <trkpt lat="43.580450" lon="4.268876">
        <ele>1.175222</ele>
        <time>2022-07-27T04:16:53.291Z</time>
      </trkpt>
      <trkpt lat="43.580383" lon="4.269500">
        <ele>1.106533</ele>
        <time>2022-07-27T04:17:03.208Z</time>
      </trkpt>
      <trkpt lat="43.580367" lon="4.269585">
        <ele>1.096970</ele>
        <time>2022-07-27T04:17:04.582Z</time>
      </trkpt>
      <trkpt lat="43.580356" lon="4.269657">
        <ele>1.088957</ele>
        <time>2022-07-27T04:17:05.732Z</time>
      </trkpt>
      <trkpt lat="43.580342" lon="4.269756">
        <ele>1.077974</ele>
        <time>2022-07-27T04:17:07.317Z</time>
      </trkpt>
      <trkpt lat="43.580293" lon="4.269854">
        <ele>1.065007</ele>
        <time>2022-07-27T04:17:09.168Z</time>
      </trkpt>
      <trkpt lat="43.580266" lon="4.270245">
        <ele>1.022239</ele>
        <time>2022-07-27T04:17:15.317Z</time>
      </trkpt>
      <trkpt lat="43.579931" lon="4.272443">
        <ele>0.878627</ele>
        <time>2022-07-27T04:17:50.870Z</time>
      </trkpt>
      <trkpt lat="43.579768" lon="4.273510">
        <ele>0.844736</ele>
        <time>2022-07-27T04:18:08.426Z</time>
      </trkpt>
      <trkpt lat="43.579551" lon="4.275006">
        <ele>1.042569</ele>
        <time>2022-07-27T04:18:33.661Z</time>
      </trkpt>
      <trkpt lat="43.579395" lon="4.276049">
        <ele>1.182076</ele>
        <time>2022-07-27T04:18:51.468Z</time>
      </trkpt>
      <trkpt lat="43.579081" lon="4.278155">
        <ele>1.480021</ele>
        <time>2022-07-27T04:19:27.473Z</time>
      </trkpt>
      <trkpt lat="43.578432" lon="4.282528">
        <ele>1.804649</ele>
        <time>2022-07-27T04:20:40.863Z</time>
      </trkpt>
      <trkpt lat="43.578103" lon="4.284772">
        <ele>1.632550</ele>
        <time>2022-07-27T04:21:16.868Z</time>
      </trkpt>
      <trkpt lat="43.577895" lon="4.286209">
        <ele>1.434371</ele>
        <time>2022-07-27T04:21:39.464Z</time>
      </trkpt>
      <trkpt lat="43.577770" lon="4.287073">
        <ele>1.298332</ele>
        <time>2022-07-27T04:21:53.339Z</time>
      </trkpt>
      <trkpt lat="43.577501" lon="4.288931">
        <ele>1.066752</ele>
        <time>2022-07-27T04:22:22.854Z</time>
      </trkpt>
      <trkpt lat="43.577089" lon="4.290989">
        <ele>0.913539</ele>
        <time>2022-07-27T04:22:56.756Z</time>
      </trkpt>
      <trkpt lat="43.576774" lon="4.292114">
        <ele>0.876921</ele>
        <time>2022-07-27T04:23:19.346Z</time>
      </trkpt>
      <trkpt lat="43.576460" lon="4.293239">
        <ele>0.878122</ele>
        <time>2022-07-27T04:23:41.936Z</time>
      </trkpt>
      <trkpt lat="43.576145" lon="4.294363">
        <ele>0.938402</ele>
        <time>2022-07-27T04:24:04.525Z</time>
      </trkpt>
      <trkpt lat="43.575830" lon="4.295488">
        <ele>1.033229</ele>
        <time>2022-07-27T04:24:27.115Z</time>
      </trkpt>
      <trkpt lat="43.575515" lon="4.296613">
        <ele>1.197883</ele>
        <time>2022-07-27T04:24:49.705Z</time>
      </trkpt>
      <trkpt lat="43.575200" lon="4.297738">
        <ele>1.313719</ele>
        <time>2022-07-27T04:25:12.296Z</time>
      </trkpt>
      <trkpt lat="43.574885" lon="4.298862">
        <ele>1.299058</ele>
        <time>2022-07-27T04:25:34.886Z</time>
      </trkpt>
      <trkpt lat="43.574570" lon="4.299987">
        <ele>1.261862</ele>
        <time>2022-07-27T04:25:57.476Z</time>
      </trkpt>
      <trkpt lat="43.574255" lon="4.301112">
        <ele>1.141450</ele>
        <time>2022-07-27T04:26:20.067Z</time>
      </trkpt>
      <trkpt lat="43.573940" lon="4.302237">
        <ele>1.055277</ele>
        <time>2022-07-27T04:26:42.657Z</time>
      </trkpt>
      <trkpt lat="43.573625" lon="4.303361">
        <ele>1.156281</ele>
        <time>2022-07-27T04:27:05.248Z</time>
      </trkpt>
      <trkpt lat="43.573310" lon="4.304486">
        <ele>1.228738</ele>
        <time>2022-07-27T04:27:27.839Z</time>
      </trkpt>
      <trkpt lat="43.572995" lon="4.305611">
        <ele>1.029793</ele>
        <time>2022-07-27T04:27:50.430Z</time>
      </trkpt>
      <trkpt lat="43.572680" lon="4.306735">
        <ele>0.832256</ele>
        <time>2022-07-27T04:28:13.021Z</time>
      </trkpt>
      <trkpt lat="43.572365" lon="4.307860">
        <ele>0.667947</ele>
        <time>2022-07-27T04:28:35.612Z</time>
      </trkpt>
      <trkpt lat="43.572080" lon="4.309005">
        <ele>0.503011</ele>
        <time>2022-07-27T04:28:58.287Z</time>
      </trkpt>
      <trkpt lat="43.571795" lon="4.310149">
        <ele>0.500000</ele>
        <time>2022-07-27T04:29:20.961Z</time>
      </trkpt>
      <trkpt lat="43.571510" lon="4.311294">
        <ele>0.499999</ele>
        <time>2022-07-27T04:29:43.636Z</time>
      </trkpt>
      <trkpt lat="43.571226" lon="4.312439">
        <ele>0.514061</ele>
        <time>2022-07-27T04:30:06.311Z</time>
      </trkpt>
      <trkpt lat="43.570941" lon="4.313583">
        <ele>0.529170</ele>
        <time>2022-07-27T04:30:28.986Z</time>
      </trkpt>
      <trkpt lat="43.570656" lon="4.314728">
        <ele>0.495744</ele>
        <time>2022-07-27T04:30:51.661Z</time>
      </trkpt>
      <trkpt lat="43.570371" lon="4.315872">
        <ele>0.455653</ele>
        <time>2022-07-27T04:31:14.336Z</time>
      </trkpt>
      <trkpt lat="43.570086" lon="4.317017">
        <ele>0.387214</ele>
        <time>2022-07-27T04:31:37.011Z</time>
      </trkpt>
      <trkpt lat="43.569801" lon="4.318161">
        <ele>0.312929</ele>
        <time>2022-07-27T04:31:59.687Z</time>
      </trkpt>
      <trkpt lat="43.569516" lon="4.319306">
        <ele>0.557867</ele>
        <time>2022-07-27T04:32:22.362Z</time>
      </trkpt>
      <trkpt lat="43.569231" lon="4.320451">
        <ele>0.894855</ele>
        <time>2022-07-27T04:32:45.038Z</time>
      </trkpt>
      <trkpt lat="43.568946" lon="4.321595">
        <ele>1.019139</ele>
        <time>2022-07-27T04:33:07.714Z</time>
      </trkpt>
      <trkpt lat="43.568661" lon="4.322740">
        <ele>1.063091</ele>
        <time>2022-07-27T04:33:30.390Z</time>
      </trkpt>
      <trkpt lat="43.568376" lon="4.323884">
        <ele>0.782269</ele>
        <time>2022-07-27T04:33:53.066Z</time>
      </trkpt>
      <trkpt lat="43.568091" lon="4.325029">
        <ele>0.344221</ele>
        <time>2022-07-27T04:34:15.742Z</time>
      </trkpt>
      <trkpt lat="43.567806" lon="4.326173">
        <ele>0.161929</ele>
        <time>2022-07-27T04:34:38.418Z</time>
      </trkpt>
      <trkpt lat="43.567521" lon="4.327318">
        <ele>0.134168</ele>
        <time>2022-07-27T04:35:01.094Z</time>
      </trkpt>
      <trkpt lat="43.567607" lon="4.327412">
        <ele>0.130696</ele>
        <time>2022-07-27T04:35:03.785Z</time>
      </trkpt>
      <trkpt lat="43.568223" lon="4.327758">
        <ele>0.182517</ele>
        <time>2022-07-27T04:35:18.958Z</time>
      </trkpt>
      <trkpt lat="43.568594" lon="4.327966">
        <ele>0.242899</ele>
        <time>2022-07-27T04:35:28.187Z</time>
      </trkpt>
      <trkpt lat="43.569706" lon="4.328588">
        <ele>0.427560</ele>
        <time>2022-07-27T04:35:55.599Z</time>
      </trkpt>
      <trkpt lat="43.571454" lon="4.329565">
        <ele>0.850834</ele>
        <time>2022-07-27T04:36:38.389Z</time>
      </trkpt>
      <trkpt lat="43.572566" lon="4.330189">
        <ele>1.486558</ele>
        <time>2022-07-27T04:37:08.179Z</time>
      </trkpt>
      <trkpt lat="43.574897" lon="4.331495">
        <ele>2.808746</ele>
        <time>2022-07-27T04:38:11.574Z</time>
      </trkpt>
      <trkpt lat="43.575583" lon="4.331880">
        <ele>2.616620</ele>
        <time>2022-07-27T04:38:27.006Z</time>
      </trkpt>
      <trkpt lat="43.577024" lon="4.332680">
        <ele>1.793124</ele>
        <time>2022-07-27T04:38:57.471Z</time>
      </trkpt>
      <trkpt lat="43.577565" lon="4.332980">
        <ele>1.370105</ele>
        <time>2022-07-27T04:39:08.836Z</time>
      </trkpt>
      <trkpt lat="43.580299" lon="4.334496">
        <ele>0.851254</ele>
        <time>2022-07-27T04:40:12.740Z</time>
      </trkpt>
      <trkpt lat="43.581696" lon="4.335271">
        <ele>0.967086</ele>
        <time>2022-07-27T04:40:47.411Z</time>
      </trkpt>
      <trkpt lat="43.582038" lon="4.335462">
        <ele>1.016418</ele>
        <time>2022-07-27T04:40:55.862Z</time>
      </trkpt>
      <trkpt lat="43.582531" lon="4.335740">
        <ele>1.087628</ele>
        <time>2022-07-27T04:41:07.975Z</time>
      </trkpt>
      <trkpt lat="43.582912" lon="4.335950">
        <ele>1.131948</ele>
        <time>2022-07-27T04:41:17.367Z</time>
      </trkpt>
      <trkpt lat="43.583163" lon="4.336187">
        <ele>1.113589</ele>
        <time>2022-07-27T04:41:24.046Z</time>
      </trkpt>
      <trkpt lat="43.583246" lon="4.336623">
        <ele>1.093873</ele>
        <time>2022-07-27T04:41:30.990Z</time>
      </trkpt>
      <trkpt lat="43.583340" lon="4.337432">
        <ele>1.058040</ele>
        <time>2022-07-27T04:41:43.837Z</time>
      </trkpt>
      <trkpt lat="43.583447" lon="4.337931">
        <ele>1.035281</ele>
        <time>2022-07-27T04:41:52.211Z</time>
      </trkpt>
      <trkpt lat="43.583640" lon="4.338793">
        <ele>1.046073</ele>
        <time>2022-07-27T04:42:06.875Z</time>
      </trkpt>
      <trkpt lat="43.583658" lon="4.338875">
        <ele>1.048437</ele>
        <time>2022-07-27T04:42:08.336Z</time>
      </trkpt>
      <trkpt lat="43.583755" lon="4.339312">
        <ele>1.061049</ele>
        <time>2022-07-27T04:42:15.705Z</time>
      </trkpt>
      <trkpt lat="43.583884" lon="4.339990">
        <ele>1.080393</ele>
        <time>2022-07-27T04:42:26.845Z</time>
      </trkpt>
      <trkpt lat="43.583897" lon="4.340307">
        <ele>1.089154</ele>
        <time>2022-07-27T04:42:31.807Z</time>
      </trkpt>
      <trkpt lat="43.583560" lon="4.346654">
        <ele>1.930687</ele>
        <time>2022-07-27T04:44:19.419Z</time>
      </trkpt>
      <trkpt lat="43.583513" lon="4.347355">
        <ele>1.902990</ele>
        <time>2022-07-27T04:44:30.142Z</time>
      </trkpt>
      <trkpt lat="43.583571" lon="4.347477">
        <ele>1.897248</ele>
        <time>2022-07-27T04:44:32.365Z</time>
      </trkpt>
      <trkpt lat="43.583646" lon="4.347503">
        <ele>1.893048</ele>
        <time>2022-07-27T04:44:33.885Z</time>
      </trkpt>
      <trkpt lat="43.584189" lon="4.347277">
        <ele>1.820547</ele>
        <time>2022-07-27T04:44:45.576Z</time>
      </trkpt>
      <trkpt lat="43.599009" lon="4.339786">
        <ele>-0.951311</ele>
        <time>2022-07-27T04:50:26.089Z</time>
      </trkpt>
      <trkpt lat="43.599673" lon="4.339453">
        <ele>-0.713083</ele>
        <time>2022-07-27T04:50:42.761Z</time>
      </trkpt>
      <trkpt lat="43.599741" lon="4.339419">
        <ele>-0.684225</ele>
        <time>2022-07-27T04:50:44.514Z</time>
      </trkpt>
      <trkpt lat="43.599811" lon="4.339384">
        <ele>-0.654519</ele>
        <time>2022-07-27T04:50:46.312Z</time>
      </trkpt>
      <trkpt lat="43.604599" lon="4.336931">
        <ele>1.473892</ele>
        <time>2022-07-27T04:52:48.816Z</time>
      </trkpt>
      <trkpt lat="43.604802" lon="4.336794">
        <ele>1.562800</ele>
        <time>2022-07-27T04:52:54.517Z</time>
      </trkpt>
      <trkpt lat="43.605275" lon="4.336450">
        <ele>1.773155</ele>
        <time>2022-07-27T04:53:07.459Z</time>
      </trkpt>
      <trkpt lat="43.605330" lon="4.336606">
        <ele>1.822593</ele>
        <time>2022-07-27T04:53:10.479Z</time>
      </trkpt>
      <trkpt lat="43.605384" lon="4.336820">
        <ele>1.887165</ele>
        <time>2022-07-27T04:53:14.357Z</time>
      </trkpt>
      <trkpt lat="43.605421" lon="4.337213">
        <ele>1.991636</ele>
        <time>2022-07-27T04:53:21.059Z</time>
      </trkpt>
      <trkpt lat="43.605313" lon="4.337717">
        <ele>1.904110</ele>
        <time>2022-07-27T04:53:29.741Z</time>
      </trkpt>
      <trkpt lat="43.605195" lon="4.339439">
        <ele>1.616072</ele>
        <time>2022-07-27T04:53:56.183Z</time>
      </trkpt>
      <trkpt lat="43.604960" lon="4.340915">
        <ele>1.159640</ele>
        <time>2022-07-27T04:54:18.234Z</time>
      </trkpt>
      <trkpt lat="43.604762" lon="4.343067">
        <ele>0.690418</ele>
        <time>2022-07-27T04:54:51.155Z</time>
      </trkpt>
      <trkpt lat="43.604760" lon="4.344798">
        <ele>0.613883</ele>
        <time>2022-07-27T04:55:19.293Z</time>
      </trkpt>
      <trkpt lat="43.604603" lon="4.347535">
        <ele>1.188943</ele>
        <time>2022-07-27T04:56:06.662Z</time>
      </trkpt>
      <trkpt lat="43.604436" lon="4.349211">
        <ele>1.369001</ele>
        <time>2022-07-27T04:56:34.548Z</time>
      </trkpt>
      <trkpt lat="43.604837" lon="4.355283">
        <ele>0.705376</ele>
        <time>2022-07-27T04:58:08.959Z</time>
      </trkpt>
      <trkpt lat="43.605224" lon="4.357790">
        <ele>0.839132</ele>
        <time>2022-07-27T04:58:52.192Z</time>
      </trkpt>
      <trkpt lat="43.605241" lon="4.357975">
        <ele>0.843491</ele>
        <time>2022-07-27T04:58:55.329Z</time>
      </trkpt>
      <trkpt lat="43.605233" lon="4.358077">
        <ele>0.845889</ele>
        <time>2022-07-27T04:58:56.982Z</time>
      </trkpt>
      <trkpt lat="43.605215" lon="4.358189">
        <ele>0.848570</ele>
        <time>2022-07-27T04:58:58.831Z</time>
      </trkpt>
      <trkpt lat="43.604739" lon="4.359994">
        <ele>0.811878</ele>
        <time>2022-07-27T04:59:29.043Z</time>
      </trkpt>
      <trkpt lat="43.604739" lon="4.360643">
        <ele>0.756720</ele>
        <time>2022-07-27T04:59:39.102Z</time>
      </trkpt>
      <trkpt lat="43.604876" lon="4.361411">
        <ele>0.689497</ele>
        <time>2022-07-27T04:59:51.573Z</time>
      </trkpt>
      <trkpt lat="43.604925" lon="4.367095">
        <ele>0.983725</ele>
        <time>2022-07-27T05:01:25.111Z</time>
      </trkpt>
      <trkpt lat="43.604917" lon="4.367281">
        <ele>0.961200</ele>
        <time>2022-07-27T05:01:28.046Z</time>
      </trkpt>
      <trkpt lat="43.604810" lon="4.369325">
        <ele>0.711615</ele>
        <time>2022-07-27T05:01:59.597Z</time>
      </trkpt>
      <trkpt lat="43.604820" lon="4.369855">
        <ele>0.642012</ele>
        <time>2022-07-27T05:02:07.661Z</time>
      </trkpt>
      <trkpt lat="43.604890" lon="4.370804">
        <ele>0.516780</ele>
        <time>2022-07-27T05:02:22.346Z</time>
      </trkpt>
      <trkpt lat="43.605133" lon="4.372573">
        <ele>0.463230</ele>
        <time>2022-07-27T05:02:51.162Z</time>
      </trkpt>
      <trkpt lat="43.605676" lon="4.376600">
        <ele>0.735971</ele>
        <time>2022-07-27T05:03:58.984Z</time>
      </trkpt>
      <trkpt lat="43.605582" lon="4.378984">
        <ele>0.588603</ele>
        <time>2022-07-27T05:04:36.607Z</time>
      </trkpt>
      <trkpt lat="43.605568" lon="4.380642">
        <ele>0.427104</ele>
        <time>2022-07-27T05:05:02.579Z</time>
      </trkpt>
      <trkpt lat="43.605546" lon="4.381937">
        <ele>0.311914</ele>
        <time>2022-07-27T05:05:23.132Z</time>
      </trkpt>
      <trkpt lat="43.605558" lon="4.382285">
        <ele>0.285958</ele>
        <time>2022-07-27T05:05:28.636Z</time>
      </trkpt>
      <trkpt lat="43.605664" lon="4.382728">
        <ele>0.251199</ele>
        <time>2022-07-27T05:05:36.000Z</time>
      </trkpt>
      <trkpt lat="43.606457" lon="4.385084">
        <ele>0.070753</ele>
        <time>2022-07-27T05:06:16.959Z</time>
      </trkpt>
      <trkpt lat="43.607605" lon="4.387259">
        <ele>0.197088</ele>
        <time>2022-07-27T05:07:00.336Z</time>
      </trkpt>
      <trkpt lat="43.607836" lon="4.387697">
        <ele>0.262958</ele>
        <time>2022-07-27T05:07:09.798Z</time>
      </trkpt>
      <trkpt lat="43.608499" lon="4.389011">
        <ele>0.628686</ele>
        <time>2022-07-27T05:07:37.603Z</time>
      </trkpt>
      <trkpt lat="43.608634" lon="4.389166">
        <ele>0.690674</ele>
        <time>2022-07-27T05:07:41.837Z</time>
      </trkpt>
      <trkpt lat="43.608774" lon="4.389252">
        <ele>0.744776</ele>
        <time>2022-07-27T05:07:45.417Z</time>
      </trkpt>
      <trkpt lat="43.609196" lon="4.389908">
        <ele>0.922972</ele>
        <time>2022-07-27T05:08:00.071Z</time>
      </trkpt>
      <trkpt lat="43.609491" lon="4.390358">
        <ele>0.850296</ele>
        <time>2022-07-27T05:08:09.830Z</time>
      </trkpt>
      <trkpt lat="43.609576" lon="4.390576">
        <ele>0.820653</ele>
        <time>2022-07-27T05:08:13.749Z</time>
      </trkpt>
      <trkpt lat="43.610616" lon="4.394061">
        <ele>0.151842</ele>
        <time>2022-07-27T05:09:11.491Z</time>
      </trkpt>
      <trkpt lat="43.611120" lon="4.395801">
        <ele>-0.083868</ele>
        <time>2022-07-27T05:09:40.914Z</time>
      </trkpt>
      <trkpt lat="43.611610" lon="4.399966">
        <ele>-0.373922</ele>
        <time>2022-07-27T05:10:47.301Z</time>
      </trkpt>
      <trkpt lat="43.613131" lon="4.413293">
        <ele>0.327758</ele>
        <time>2022-07-27T05:14:27.353Z</time>
      </trkpt>
      <trkpt lat="43.613216" lon="4.413415">
        <ele>0.347498</ele>
        <time>2022-07-27T05:14:30.192Z</time>
      </trkpt>
      <trkpt lat="43.613983" lon="4.413947">
        <ele>0.611932</ele>
        <time>2022-07-27T05:14:50.440Z</time>
      </trkpt>
      <trkpt lat="43.614283" lon="4.414256">
        <ele>0.749412</ele>
        <time>2022-07-27T05:14:59.408Z</time>
      </trkpt>
      <trkpt lat="43.616839" lon="4.415853">
        <ele>1.738802</ele>
        <time>2022-07-27T05:16:06.501Z</time>
      </trkpt>
      <trkpt lat="43.618410" lon="4.416955">
        <ele>1.682274</ele>
        <time>2022-07-27T05:16:45.101Z</time>
      </trkpt>
      <trkpt lat="43.618904" lon="4.417462">
        <ele>1.569584</ele>
        <time>2022-07-27T05:16:58.227Z</time>
      </trkpt>
      <trkpt lat="43.619102" lon="4.417599">
        <ele>1.529034</ele>
        <time>2022-07-27T05:17:02.996Z</time>
      </trkpt>
      <trkpt lat="43.619833" lon="4.417895">
        <ele>1.389550</ele>
        <time>2022-07-27T05:17:19.331Z</time>
      </trkpt>
      <trkpt lat="43.620049" lon="4.418052">
        <ele>1.345764</ele>
        <time>2022-07-27T05:17:24.569Z</time>
      </trkpt>
      <trkpt lat="43.621375" lon="4.419259">
        <ele>1.062141</ele>
        <time>2022-07-27T05:17:58.540Z</time>
      </trkpt>
      <trkpt lat="43.622326" lon="4.420303">
        <ele>1.268143</ele>
        <time>2022-07-27T05:18:26.152Z</time>
      </trkpt>
      <trkpt lat="43.622833" lon="4.421111">
        <ele>1.449524</ele>
        <time>2022-07-27T05:18:44.627Z</time>
      </trkpt>
      <trkpt lat="43.623198" lon="4.421531">
        <ele>1.657501</ele>
        <time>2022-07-27T05:18:56.124Z</time>
      </trkpt>
      <trkpt lat="43.623964" lon="4.421994">
        <ele>2.023560</ele>
        <time>2022-07-27T05:19:16.244Z</time>
      </trkpt>
      <trkpt lat="43.624149" lon="4.422217">
        <ele>2.131053</ele>
        <time>2022-07-27T05:19:22.172Z</time>
      </trkpt>
      <trkpt lat="43.624764" lon="4.424461">
        <ele>2.531627</ele>
        <time>2022-07-27T05:20:02.186Z</time>
      </trkpt>
      <trkpt lat="43.624900" lon="4.424744">
        <ele>2.583778</ele>
        <time>2022-07-27T05:20:07.887Z</time>
      </trkpt>
      <trkpt lat="43.625730" lon="4.425156">
        <ele>2.761166</ele>
        <time>2022-07-27T05:20:28.341Z</time>
      </trkpt>
      <trkpt lat="43.628956" lon="4.425967">
        <ele>3.124313</ele>
        <time>2022-07-27T05:21:43.256Z</time>
      </trkpt>
      <trkpt lat="43.629056" lon="4.425919">
        <ele>3.113823</ele>
        <time>2022-07-27T05:21:45.512Z</time>
      </trkpt>
      <trkpt lat="43.629289" lon="4.425618">
        <ele>3.082213</ele>
        <time>2022-07-27T05:21:52.406Z</time>
      </trkpt>
      <trkpt lat="43.629459" lon="4.425491">
        <ele>3.063063</ele>
        <time>2022-07-27T05:21:56.651Z</time>
      </trkpt>
      <trkpt lat="43.629683" lon="4.425557">
        <ele>3.040367</ele>
        <time>2022-07-27T05:22:01.420Z</time>
      </trkpt>
      <trkpt lat="43.632236" lon="4.427325">
        <ele>2.340268</ele>
        <time>2022-07-27T05:23:01.725Z</time>
      </trkpt>
      <trkpt lat="43.634518" lon="4.429312">
        <ele>2.169084</ele>
        <time>2022-07-27T05:24:01.530Z</time>
      </trkpt>
      <trkpt lat="43.636003" lon="4.430495">
        <ele>2.032333</ele>
        <time>2022-07-27T05:24:39.184Z</time>
      </trkpt>
      <trkpt lat="43.636538" lon="4.430825">
        <ele>2.015532</ele>
        <time>2022-07-27T05:24:52.073Z</time>
      </trkpt>
      <trkpt lat="43.637591" lon="4.431252">
        <ele>2.013600</ele>
        <time>2022-07-27T05:25:16.478Z</time>
      </trkpt>
      <trkpt lat="43.640564" lon="4.432461">
        <ele>2.111900</ele>
        <time>2022-07-27T05:26:25.939Z</time>
      </trkpt>
      <trkpt lat="43.641234" lon="4.432670">
        <ele>2.142294</ele>
        <time>2022-07-27T05:26:41.179Z</time>
      </trkpt>
      <trkpt lat="43.641526" lon="4.432626">
        <ele>2.204276</ele>
        <time>2022-07-27T05:26:47.766Z</time>
      </trkpt>
      <trkpt lat="43.642077" lon="4.432314">
        <ele>2.397275</ele>
        <time>2022-07-27T05:27:01.563Z</time>
      </trkpt>
      <trkpt lat="43.642164" lon="4.432256">
        <ele>2.428582</ele>
        <time>2022-07-27T05:27:03.883Z</time>
      </trkpt>
      <trkpt lat="43.642296" lon="4.432166">
        <ele>2.476290</ele>
        <time>2022-07-27T05:27:07.441Z</time>
      </trkpt>
      <trkpt lat="43.643595" lon="4.431301">
        <ele>3.103883</ele>
        <time>2022-07-27T05:27:41.824Z</time>
      </trkpt>
      <trkpt lat="43.643963" lon="4.431049">
        <ele>3.337075</ele>
        <time>2022-07-27T05:27:52.144Z</time>
      </trkpt>
      <trkpt lat="43.644625" lon="4.430617">
        <ele>3.752874</ele>
        <time>2022-07-27T05:28:10.324Z</time>
      </trkpt>
      <trkpt lat="43.644889" lon="4.430550">
        <ele>3.924137</ele>
        <time>2022-07-27T05:28:17.077Z</time>
      </trkpt>
      <trkpt lat="43.645231" lon="4.430612">
        <ele>4.144220</ele>
        <time>2022-07-27T05:28:25.708Z</time>
      </trkpt>
      <trkpt lat="43.645625" lon="4.430867">
        <ele>4.421817</ele>
        <time>2022-07-27T05:28:36.803Z</time>
      </trkpt>
      <trkpt lat="43.645817" lon="4.431127">
        <ele>4.593335</ele>
        <time>2022-07-27T05:28:43.521Z</time>
      </trkpt>
      <trkpt lat="43.646079" lon="4.431799">
        <ele>4.922357</ele>
        <time>2022-07-27T05:28:57.077Z</time>
      </trkpt>
      <trkpt lat="43.647215" lon="4.435001">
        <ele>5.175258</ele>
        <time>2022-07-27T05:29:57.125Z</time>
      </trkpt>
      <trkpt lat="43.647447" lon="4.435410">
        <ele>5.046551</ele>
        <time>2022-07-27T05:30:04.705Z</time>
      </trkpt>
      <trkpt lat="43.647800" lon="4.435737">
        <ele>4.901102</ele>
        <time>2022-07-27T05:30:12.922Z</time>
      </trkpt>
      <trkpt lat="43.649104" lon="4.436486">
        <ele>3.460511</ele>
        <time>2022-07-27T05:30:39.520Z</time>
      </trkpt>
      <trkpt lat="43.651040" lon="4.437871">
        <ele>1.680057</ele>
        <time>2022-07-27T05:31:22.400Z</time>
      </trkpt>
      <trkpt lat="43.652066" lon="4.438276">
        <ele>1.433215</ele>
        <time>2022-07-27T05:31:45.319Z</time>
      </trkpt>
      <trkpt lat="43.656600" lon="4.440337">
        <ele>1.386497</ele>
        <time>2022-07-27T05:33:31.653Z</time>
      </trkpt>
      <trkpt lat="43.657230" lon="4.440548">
        <ele>1.507594</ele>
        <time>2022-07-27T05:33:46.603Z</time>
      </trkpt>
      <trkpt lat="43.658200" lon="4.440652">
        <ele>1.673303</ele>
        <time>2022-07-27T05:34:09.203Z</time>
      </trkpt>
      <trkpt lat="43.658789" lon="4.440784">
        <ele>1.703856</ele>
        <time>2022-07-27T05:34:22.945Z</time>
      </trkpt>
      <trkpt lat="43.661368" lon="4.441715">
        <ele>1.568284</ele>
        <time>2022-07-27T05:35:21.588Z</time>
      </trkpt>
      <trkpt lat="43.661455" lon="4.441748">
        <ele>1.557387</ele>
        <time>2022-07-27T05:35:23.459Z</time>
      </trkpt>
      <trkpt lat="43.662557" lon="4.442117">
        <ele>1.332982</ele>
        <time>2022-07-27T05:35:47.326Z</time>
      </trkpt>
      <trkpt lat="43.663204" lon="4.442143">
        <ele>1.198605</ele>
        <time>2022-07-27T05:36:01.316Z</time>
      </trkpt>
      <trkpt lat="43.663530" lon="4.442084">
        <ele>1.204758</ele>
        <time>2022-07-27T05:36:08.636Z</time>
      </trkpt>
      <trkpt lat="43.664780" lon="4.441572">
        <ele>1.459316</ele>
        <time>2022-07-27T05:36:38.938Z</time>
      </trkpt>
      <trkpt lat="43.666357" lon="4.440932">
        <ele>1.659841</ele>
        <time>2022-07-27T05:37:16.544Z</time>
      </trkpt>
      <trkpt lat="43.666729" lon="4.440863">
        <ele>1.699238</ele>
        <time>2022-07-27T05:37:24.895Z</time>
      </trkpt>
      <trkpt lat="43.668533" lon="4.441008">
        <ele>1.849327</ele>
        <time>2022-07-27T05:38:05.449Z</time>
      </trkpt>
      <trkpt lat="43.668701" lon="4.441031">
        <ele>1.888759</ele>
        <time>2022-07-27T05:38:09.327Z</time>
      </trkpt>
      <trkpt lat="43.668980" lon="4.440949">
        <ele>1.995827</ele>
        <time>2022-07-27T05:38:15.958Z</time>
      </trkpt>
      <trkpt lat="43.669228" lon="4.440772">
        <ele>2.100592</ele>
        <time>2022-07-27T05:38:22.509Z</time>
      </trkpt>
      <trkpt lat="43.669689" lon="4.440084">
        <ele>2.355230</ele>
        <time>2022-07-27T05:38:38.634Z</time>
      </trkpt>
      <trkpt lat="43.670179" lon="4.439169">
        <ele>2.664461</ele>
        <time>2022-07-27T05:38:58.811Z</time>
      </trkpt>
      <trkpt lat="43.670488" lon="4.438833">
        <ele>2.812157</ele>
        <time>2022-07-27T05:39:08.285Z</time>
      </trkpt>
      <trkpt lat="43.670919" lon="4.438514">
        <ele>2.995827</ele>
        <time>2022-07-27T05:39:19.951Z</time>
      </trkpt>
      <trkpt lat="43.671062" lon="4.438487">
        <ele>3.050051</ele>
        <time>2022-07-27T05:39:23.315Z</time>
      </trkpt>
      <trkpt lat="43.671254" lon="4.438539">
        <ele>3.123556</ele>
        <time>2022-07-27T05:39:27.877Z</time>
      </trkpt>
      <trkpt lat="43.671275" lon="4.438316">
        <ele>3.184667</ele>
        <time>2022-07-27T05:39:31.554Z</time>
      </trkpt>
      <trkpt lat="43.671382" lon="4.437494">
        <ele>3.302194</ele>
        <time>2022-07-27T05:39:45.502Z</time>
      </trkpt>
      <trkpt lat="43.671499" lon="4.437300">
        <ele>3.334142</ele>
        <time>2022-07-27T05:39:49.816Z</time>
      </trkpt>
      <trkpt lat="43.671596" lon="4.437232">
        <ele>3.353159</ele>
        <time>2022-07-27T05:39:52.385Z</time>
      </trkpt>
      <trkpt lat="43.671702" lon="4.437174">
        <ele>3.373094</ele>
        <time>2022-07-27T05:39:55.179Z</time>
      </trkpt>
      <trkpt lat="43.671769" lon="4.437154">
        <ele>3.385079</ele>
        <time>2022-07-27T05:39:56.807Z</time>
      </trkpt>
      <trkpt lat="43.672092" lon="4.436593">
        <ele>3.475769</ele>
        <time>2022-07-27T05:40:08.407Z</time>
      </trkpt>
      <trkpt lat="43.672179" lon="4.436416">
        <ele>3.502836</ele>
        <time>2022-07-27T05:40:11.888Z</time>
      </trkpt>
      <trkpt lat="43.672195" lon="4.436382">
        <ele>3.507966</ele>
        <time>2022-07-27T05:40:12.553Z</time>
      </trkpt>
      <trkpt lat="43.672520" lon="4.435720">
        <ele>3.771326</ele>
        <time>2022-07-27T05:40:25.313Z</time>
      </trkpt>
      <trkpt lat="43.672626" lon="4.435509">
        <ele>3.863877</ele>
        <time>2022-07-27T05:40:29.667Z</time>
      </trkpt>
      <trkpt lat="43.672676" lon="4.435494">
        <ele>3.889360</ele>
        <time>2022-07-27T05:40:30.792Z</time>
      </trkpt>
      <trkpt lat="43.672991" lon="4.434854">
        <ele>4.168243</ele>
        <time>2022-07-27T05:40:45.544Z</time>
      </trkpt>
      <trkpt lat="43.673091" lon="4.434651">
        <ele>4.256725</ele>
        <time>2022-07-27T05:40:50.275Z</time>
      </trkpt>
      <trkpt lat="43.673127" lon="4.434579">
        <ele>4.288258</ele>
        <time>2022-07-27T05:40:52.028Z</time>
      </trkpt>
      <trkpt lat="43.673196" lon="4.434439">
        <ele>4.349289</ele>
        <time>2022-07-27T05:40:55.459Z</time>
      </trkpt>
      <trkpt lat="43.673231" lon="4.434367">
        <ele>4.380541</ele>
        <time>2022-07-27T05:40:57.114Z</time>
      </trkpt>
      <trkpt lat="43.673502" lon="4.433818">
        <ele>4.899284</ele>
        <time>2022-07-27T05:41:09.326Z</time>
      </trkpt>
      <trkpt lat="43.673484" lon="4.433727">
        <ele>4.980099</ele>
        <time>2022-07-27T05:41:11.134Z</time>
      </trkpt>
      <trkpt lat="43.673566" lon="4.433564">
        <ele>5.150182</ele>
        <time>2022-07-27T05:41:14.849Z</time>
      </trkpt>
      <trkpt lat="43.673611" lon="4.433470">
        <ele>5.246744</ele>
        <time>2022-07-27T05:41:16.885Z</time>
      </trkpt>
      <trkpt lat="43.673919" lon="4.432837">
        <ele>5.900266</ele>
        <time>2022-07-27T05:41:31.868Z</time>
      </trkpt>
      <trkpt lat="43.674058" lon="4.432513">
        <ele>6.222961</ele>
        <time>2022-07-27T05:41:39.684Z</time>
      </trkpt>
      <trkpt lat="43.674250" lon="4.432323">
        <ele>6.502601</ele>
        <time>2022-07-27T05:41:46.540Z</time>
      </trkpt>
      <trkpt lat="43.674386" lon="4.432189">
        <ele>6.761675</ele>
        <time>2022-07-27T05:41:51.353Z</time>
      </trkpt>
      <trkpt lat="43.675101" lon="4.431465">
        <ele>8.232087</ele>
        <time>2022-07-27T05:42:17.233Z</time>
      </trkpt>
      <trkpt lat="43.675312" lon="4.431252">
        <ele>8.665547</ele>
        <time>2022-07-27T05:42:24.387Z</time>
      </trkpt>
      <trkpt lat="43.675351" lon="4.431218">
        <ele>8.742043</ele>
        <time>2022-07-27T05:42:25.688Z</time>
      </trkpt>
      <trkpt lat="43.675746" lon="4.430806">
        <ele>9.556717</ele>
        <time>2022-07-27T05:42:39.587Z</time>
      </trkpt>
      <trkpt lat="43.675860" lon="4.431600">
        <ele>10.333573</ele>
        <time>2022-07-27T05:43:01.775Z</time>
      </trkpt>
      <trkpt lat="43.675920" lon="4.431510">
        <ele>10.451038</ele>
        <time>2022-07-27T05:43:04.070Z</time>
      </trkpt>
      <trkpt lat="43.675840" lon="4.430910">
        <ele>11.036549</ele>
        <time>2022-07-27T05:43:15.483Z</time>
      </trkpt>
      <trkpt lat="43.675920" lon="4.431510">
        <ele>11.622060</ele>
        <time>2022-07-27T05:43:26.896Z</time>
      </trkpt>
      <trkpt lat="43.676120" lon="4.431420">
        <ele>11.901139</ele>
        <time>2022-07-27T05:43:32.335Z</time>
      </trkpt>
      <trkpt lat="43.676270" lon="4.432480">
        <ele>11.009863</ele>
        <time>2022-07-27T05:43:52.536Z</time>
      </trkpt>
      <trkpt lat="43.676201" lon="4.432577">
        <ele>10.893502</ele>
        <time>2022-07-27T05:43:55.081Z</time>
      </trkpt>
      <trkpt lat="43.675595" lon="4.432367">
        <ele>10.154736</ele>
        <time>2022-07-27T05:44:07.232Z</time>
      </trkpt>
      <trkpt lat="43.675195" lon="4.432491">
        <ele>9.598170</ele>
        <time>2022-07-27T05:44:14.593Z</time>
      </trkpt>
      <trkpt lat="43.675252" lon="4.432761">
        <ele>9.215315</ele>
        <time>2022-07-27T05:44:18.186Z</time>
      </trkpt>
      <trkpt lat="43.675425" lon="4.433434">
        <ele>8.243102</ele>
        <time>2022-07-27T05:44:27.199Z</time>
      </trkpt>
      <trkpt lat="43.675464" lon="4.433594">
        <ele>8.013278</ele>
        <time>2022-07-27T05:44:29.394Z</time>
      </trkpt>
      <trkpt lat="43.675449" lon="4.433807">
        <ele>7.721976</ele>
        <time>2022-07-27T05:44:32.186Z</time>
      </trkpt>
      <trkpt lat="43.675573" lon="4.433925">
        <ele>7.438677</ele>
        <time>2022-07-27T05:44:34.858Z</time>
      </trkpt>
      <trkpt lat="43.676826" lon="4.435103">
        <ele>5.725238</ele>
        <time>2022-07-27T05:45:04.838Z</time>
      </trkpt>
      <trkpt lat="43.676960" lon="4.435223">
        <ele>5.612750</ele>
        <time>2022-07-27T05:45:08.157Z</time>
      </trkpt>
      <trkpt lat="43.678015" lon="4.436275">
        <ele>4.768231</ele>
        <time>2022-07-27T05:45:34.664Z</time>
      </trkpt>
      <trkpt lat="43.678303" lon="4.436555">
        <ele>4.560484</ele>
        <time>2022-07-27T05:45:41.741Z</time>
      </trkpt>
      <trkpt lat="43.678775" lon="4.437014">
        <ele>4.219981</ele>
        <time>2022-07-27T05:45:53.323Z</time>
      </trkpt>
      <trkpt lat="43.680166" lon="4.438059">
        <ele>3.497887</ele>
        <time>2022-07-27T05:46:25.683Z</time>
      </trkpt>
      <trkpt lat="43.681638" lon="4.439183">
        <ele>3.107981</ele>
        <time>2022-07-27T05:47:02.455Z</time>
      </trkpt>
      <trkpt lat="43.682765" lon="4.440074">
        <ele>2.925305</ele>
        <time>2022-07-27T05:47:29.994Z</time>
      </trkpt>
      <trkpt lat="43.683601" lon="4.441179">
        <ele>2.810448</ele>
        <time>2022-07-27T05:47:55.216Z</time>
      </trkpt>
      <trkpt lat="43.684922" lon="4.442685">
        <ele>3.273581</ele>
        <time>2022-07-27T05:48:35.689Z</time>
      </trkpt>
      <trkpt lat="43.685647" lon="4.443319">
        <ele>3.362734</ele>
        <time>2022-07-27T05:48:55.941Z</time>
      </trkpt>
      <trkpt lat="43.686328" lon="4.443979">
        <ele>3.448460</ele>
        <time>2022-07-27T05:49:14.149Z</time>
      </trkpt>
      <trkpt lat="43.686517" lon="4.443989">
        <ele>3.465441</ele>
        <time>2022-07-27T05:49:18.438Z</time>
      </trkpt>
      <trkpt lat="43.686642" lon="4.444224">
        <ele>3.480164</ele>
        <time>2022-07-27T05:49:22.921Z</time>
      </trkpt>
      <trkpt lat="43.686871" lon="4.444484">
        <ele>3.500843</ele>
        <time>2022-07-27T05:49:29.434Z</time>
      </trkpt>
      <trkpt lat="43.686924" lon="4.444533">
        <ele>3.505292</ele>
        <time>2022-07-27T05:49:30.801Z</time>
      </trkpt>
      <trkpt lat="43.687086" lon="4.444683">
        <ele>3.518899</ele>
        <time>2022-07-27T05:49:35.155Z</time>
      </trkpt>
      <trkpt lat="43.691841" lon="4.447960">
        <ele>3.876857</ele>
        <time>2022-07-27T05:51:35.763Z</time>
      </trkpt>
      <trkpt lat="43.692428" lon="4.448215">
        <ele>3.847664</ele>
        <time>2022-07-27T05:51:49.095Z</time>
      </trkpt>
      <trkpt lat="43.693570" lon="4.448457">
        <ele>3.795791</ele>
        <time>2022-07-27T05:52:14.032Z</time>
      </trkpt>
      <trkpt lat="43.695723" lon="4.448736">
        <ele>4.020903</ele>
        <time>2022-07-27T05:53:02.391Z</time>
      </trkpt>
      <trkpt lat="43.697878" lon="4.449034">
        <ele>5.161491</ele>
        <time>2022-07-27T05:53:55.276Z</time>
      </trkpt>
      <trkpt lat="43.698550" lon="4.449259">
        <ele>5.829149</ele>
        <time>2022-07-27T05:54:13.438Z</time>
      </trkpt>
      <trkpt lat="43.698921" lon="4.449451">
        <ele>6.326759</ele>
        <time>2022-07-27T05:54:23.978Z</time>
      </trkpt>
      <trkpt lat="43.700637" lon="4.450343">
        <ele>8.670498</ele>
        <time>2022-07-27T05:55:15.511Z</time>
      </trkpt>
      <trkpt lat="43.701253" lon="4.450676">
        <ele>9.535782</ele>
        <time>2022-07-27T05:55:33.929Z</time>
      </trkpt>
      <trkpt lat="43.702930" lon="4.451602">
        <ele>11.028030</ele>
        <time>2022-07-27T05:56:20.916Z</time>
      </trkpt>
      <trkpt lat="43.705515" lon="4.453013">
        <ele>11.314911</ele>
        <time>2022-07-27T05:57:21.363Z</time>
      </trkpt>
      <trkpt lat="43.709694" lon="4.455199">
        <ele>12.461696</ele>
        <time>2022-07-27T05:59:06.183Z</time>
      </trkpt>
      <trkpt lat="43.712238" lon="4.456543">
        <ele>13.194002</ele>
        <time>2022-07-27T06:00:11.929Z</time>
      </trkpt>
      <trkpt lat="43.715333" lon="4.458258">
        <ele>10.861326</ele>
        <time>2022-07-27T06:01:18.404Z</time>
      </trkpt>
      <trkpt lat="43.715707" lon="4.458467">
        <ele>10.177114</ele>
        <time>2022-07-27T06:01:25.684Z</time>
      </trkpt>
      <trkpt lat="43.715930" lon="4.458578">
        <ele>9.775103</ele>
        <time>2022-07-27T06:01:29.858Z</time>
      </trkpt>
      <trkpt lat="43.716282" lon="4.458780">
        <ele>9.128681</ele>
        <time>2022-07-27T06:01:36.445Z</time>
      </trkpt>
      <trkpt lat="43.716489" lon="4.458904">
        <ele>8.746048</ele>
        <time>2022-07-27T06:01:40.282Z</time>
      </trkpt>
      <trkpt lat="43.716864" lon="4.459114">
        <ele>8.177942</ele>
        <time>2022-07-27T06:01:47.289Z</time>
      </trkpt>
      <trkpt lat="43.717282" lon="4.459347">
        <ele>7.654735</ele>
        <time>2022-07-27T06:01:55.254Z</time>
      </trkpt>
      <trkpt lat="43.717405" lon="4.459417">
        <ele>7.500323</ele>
        <time>2022-07-27T06:01:57.667Z</time>
      </trkpt>
      <trkpt lat="43.717920" lon="4.459712">
        <ele>6.853187</ele>
        <time>2022-07-27T06:02:08.197Z</time>
      </trkpt>
      <trkpt lat="43.717985" lon="4.459748">
        <ele>6.771900</ele>
        <time>2022-07-27T06:02:09.645Z</time>
      </trkpt>
      <trkpt lat="43.718499" lon="4.460038">
        <ele>6.614867</ele>
        <time>2022-07-27T06:02:21.520Z</time>
      </trkpt>
      <trkpt lat="43.722523" lon="4.462322">
        <ele>12.808250</ele>
        <time>2022-07-27T06:04:26.549Z</time>
      </trkpt>
      <trkpt lat="43.722891" lon="4.462472">
        <ele>13.347446</ele>
        <time>2022-07-27T06:04:37.380Z</time>
      </trkpt>
      <trkpt lat="43.723821" lon="4.462582">
        <ele>14.034226</ele>
        <time>2022-07-27T06:05:02.196Z</time>
      </trkpt>
      <trkpt lat="43.725217" lon="4.462938">
        <ele>13.994652</ele>
        <time>2022-07-27T06:05:32.757Z</time>
      </trkpt>
      <trkpt lat="43.727256" lon="4.464032">
        <ele>11.690583</ele>
        <time>2022-07-27T06:06:13.111Z</time>
      </trkpt>
      <trkpt lat="43.727274" lon="4.464240">
        <ele>11.622040</ele>
        <time>2022-07-27T06:06:16.103Z</time>
      </trkpt>
      <trkpt lat="43.727399" lon="4.464358">
        <ele>11.553527</ele>
        <time>2022-07-27T06:06:19.149Z</time>
      </trkpt>
      <trkpt lat="43.727549" lon="4.464302">
        <ele>11.483182</ele>
        <time>2022-07-27T06:06:22.382Z</time>
      </trkpt>
      <trkpt lat="43.727614" lon="4.464106">
        <ele>11.412622</ele>
        <time>2022-07-27T06:06:25.666Z</time>
      </trkpt>
      <trkpt lat="43.729159" lon="4.464114">
        <ele>11.201825</ele>
        <time>2022-07-27T06:07:01.533Z</time>
      </trkpt>
      <trkpt lat="43.729717" lon="4.464209">
        <ele>11.279093</ele>
        <time>2022-07-27T06:07:14.709Z</time>
      </trkpt>
      <trkpt lat="43.732363" lon="4.464936">
        <ele>11.303513</ele>
        <time>2022-07-27T06:08:13.428Z</time>
      </trkpt>
      <trkpt lat="43.732889" lon="4.465123">
        <ele>11.453202</ele>
        <time>2022-07-27T06:08:25.904Z</time>
      </trkpt>
      <trkpt lat="43.734186" lon="4.466158">
        <ele>12.252226</ele>
        <time>2022-07-27T06:09:03.030Z</time>
      </trkpt>
      <trkpt lat="43.734872" lon="4.466728">
        <ele>12.894951</ele>
        <time>2022-07-27T06:09:23.602Z</time>
      </trkpt>
      <trkpt lat="43.736221" lon="4.467867">
        <ele>14.276604</ele>
        <time>2022-07-27T06:10:05.376Z</time>
      </trkpt>
      <trkpt lat="43.737444" lon="4.468920">
        <ele>14.747923</ele>
        <time>2022-07-27T06:10:40.189Z</time>
      </trkpt>
      <trkpt lat="43.738098" lon="4.469783">
        <ele>14.714847</ele>
        <time>2022-07-27T06:10:59.374Z</time>
      </trkpt>
      <trkpt lat="43.738142" lon="4.469877">
        <ele>14.622926</ele>
        <time>2022-07-27T06:11:00.973Z</time>
      </trkpt>
      <trkpt lat="43.738318" lon="4.470257">
        <ele>14.252484</ele>
        <time>2022-07-27T06:11:07.254Z</time>
      </trkpt>
      <trkpt lat="43.738509" lon="4.470828">
        <ele>13.736081</ele>
        <time>2022-07-27T06:11:15.663Z</time>
      </trkpt>
      <trkpt lat="43.739082" lon="4.473648">
        <ele>11.358431</ele>
        <time>2022-07-27T06:11:55.186Z</time>
      </trkpt>
      <trkpt lat="43.740069" lon="4.478693">
        <ele>8.516493</ele>
        <time>2022-07-27T06:13:10.871Z</time>
      </trkpt>
      <trkpt lat="43.740105" lon="4.478882">
        <ele>8.420905</ele>
        <time>2022-07-27T06:13:13.650Z</time>
      </trkpt>
      <trkpt lat="43.740760" lon="4.482306">
        <ele>7.018135</ele>
        <time>2022-07-27T06:14:05.360Z</time>
      </trkpt>
      <trkpt lat="43.741721" lon="4.487462">
        <ele>6.129548</ele>
        <time>2022-07-27T06:15:29.483Z</time>
      </trkpt>
      <trkpt lat="43.741748" lon="4.487605">
        <ele>6.070485</ele>
        <time>2022-07-27T06:15:31.629Z</time>
      </trkpt>
      <trkpt lat="43.741762" lon="4.487679">
        <ele>6.039917</ele>
        <time>2022-07-27T06:15:32.724Z</time>
      </trkpt>
      <trkpt lat="43.742429" lon="4.491276">
        <ele>3.823861</ele>
        <time>2022-07-27T06:16:24.835Z</time>
      </trkpt>
      <trkpt lat="43.742606" lon="4.492534">
        <ele>2.985869</ele>
        <time>2022-07-27T06:16:42.904Z</time>
      </trkpt>
      <trkpt lat="43.742590" lon="4.493430">
        <ele>2.399845</ele>
        <time>2022-07-27T06:16:55.487Z</time>
      </trkpt>
      <trkpt lat="43.742511" lon="4.494100">
        <ele>2.041998</ele>
        <time>2022-07-27T06:17:04.951Z</time>
      </trkpt>
      <trkpt lat="43.742057" lon="4.496042">
        <ele>1.153032</ele>
        <time>2022-07-27T06:17:34.494Z</time>
      </trkpt>
      <trkpt lat="43.741042" lon="4.499945">
        <ele>1.971682</ele>
        <time>2022-07-27T06:18:45.840Z</time>
      </trkpt>
      <trkpt lat="43.740871" lon="4.501207">
        <ele>2.204008</ele>
        <time>2022-07-27T06:19:07.580Z</time>
      </trkpt>
      <trkpt lat="43.740897" lon="4.501971">
        <ele>2.229242</ele>
        <time>2022-07-27T06:19:20.044Z</time>
      </trkpt>
      <trkpt lat="43.740973" lon="4.502536">
        <ele>2.248204</ele>
        <time>2022-07-27T06:19:29.178Z</time>
      </trkpt>
      <trkpt lat="43.741441" lon="4.504695">
        <ele>2.229295</ele>
        <time>2022-07-27T06:20:04.732Z</time>
      </trkpt>
      <trkpt lat="43.742775" lon="4.510794">
        <ele>2.214982</ele>
        <time>2022-07-27T06:21:47.189Z</time>
      </trkpt>
      <trkpt lat="43.743221" lon="4.513383">
        <ele>2.221577</ele>
        <time>2022-07-27T06:22:30.249Z</time>
      </trkpt>
      <trkpt lat="43.743923" lon="4.516708">
        <ele>1.936681</ele>
        <time>2022-07-27T06:23:24.456Z</time>
      </trkpt>
      <trkpt lat="43.744128" lon="4.517428">
        <ele>1.865604</ele>
        <time>2022-07-27T06:23:36.645Z</time>
      </trkpt>
      <trkpt lat="43.744432" lon="4.518190">
        <ele>2.015060</ele>
        <time>2022-07-27T06:23:50.710Z</time>
      </trkpt>
      <trkpt lat="43.745484" lon="4.519923">
        <ele>2.492331</ele>
        <time>2022-07-27T06:24:30.085Z</time>
      </trkpt>
      <trkpt lat="43.745543" lon="4.520095">
        <ele>2.517184</ele>
        <time>2022-07-27T06:24:33.486Z</time>
      </trkpt>
      <trkpt lat="43.745597" lon="4.520193">
        <ele>2.533271</ele>
        <time>2022-07-27T06:24:35.576Z</time>
      </trkpt>
      <trkpt lat="43.745588" lon="4.520390">
        <ele>2.559036</ele>
        <time>2022-07-27T06:24:39.009Z</time>
      </trkpt>
      <trkpt lat="43.745655" lon="4.520488">
        <ele>2.576648</ele>
        <time>2022-07-27T06:24:41.359Z</time>
      </trkpt>
      <trkpt lat="43.745798" lon="4.520489">
        <ele>2.602485</ele>
        <time>2022-07-27T06:24:44.584Z</time>
      </trkpt>
      <trkpt lat="43.745984" lon="4.520701">
        <ele>2.646017</ele>
        <time>2022-07-27T06:24:50.108Z</time>
      </trkpt>
      <trkpt lat="43.746207" lon="4.521056">
        <ele>2.707421</ele>
        <time>2022-07-27T06:24:57.480Z</time>
      </trkpt>
      <trkpt lat="43.746622" lon="4.521901">
        <ele>2.664144</ele>
        <time>2022-07-27T06:25:13.383Z</time>
      </trkpt>
      <trkpt lat="43.746747" lon="4.522221">
        <ele>2.614410</ele>
        <time>2022-07-27T06:25:18.943Z</time>
      </trkpt>
      <trkpt lat="43.746921" lon="4.522817">
        <ele>2.526525</ele>
        <time>2022-07-27T06:25:28.737Z</time>
      </trkpt>
      <trkpt lat="43.747381" lon="4.524467">
        <ele>2.461056</ele>
        <time>2022-07-27T06:25:56.512Z</time>
      </trkpt>
      <trkpt lat="43.747703" lon="4.525371">
        <ele>2.511041</ele>
        <time>2022-07-27T06:26:13.491Z</time>
      </trkpt>
      <trkpt lat="43.747993" lon="4.525932">
        <ele>2.541603</ele>
        <time>2022-07-27T06:26:24.973Z</time>
      </trkpt>
      <trkpt lat="43.749548" lon="4.528305">
        <ele>2.669285</ele>
        <time>2022-07-27T06:27:16.354Z</time>
      </trkpt>
      <trkpt lat="43.750282" lon="4.529105">
        <ele>2.769193</ele>
        <time>2022-07-27T06:27:37.761Z</time>
      </trkpt>
      <trkpt lat="43.750532" lon="4.529263">
        <ele>2.800094</ele>
        <time>2022-07-27T06:27:44.162Z</time>
      </trkpt>
      <trkpt lat="43.750913" lon="4.529505">
        <ele>2.861744</ele>
        <time>2022-07-27T06:27:53.848Z</time>
      </trkpt>
      <trkpt lat="43.751240" lon="4.529615">
        <ele>2.911234</ele>
        <time>2022-07-27T06:28:01.617Z</time>
      </trkpt>
      <trkpt lat="43.751798" lon="4.529675">
        <ele>2.993546</ele>
        <time>2022-07-27T06:28:14.448Z</time>
      </trkpt>
      <trkpt lat="43.752585" lon="4.529513">
        <ele>2.972263</ele>
        <time>2022-07-27T06:28:32.133Z</time>
      </trkpt>
      <trkpt lat="43.753617" lon="4.529014">
        <ele>2.701127</ele>
        <time>2022-07-27T06:28:55.207Z</time>
      </trkpt>
      <trkpt lat="43.754985" lon="4.528180">
        <ele>2.393448</ele>
        <time>2022-07-27T06:29:26.848Z</time>
      </trkpt>
      <trkpt lat="43.755464" lon="4.527880">
        <ele>2.292155</ele>
        <time>2022-07-27T06:29:38.338Z</time>
      </trkpt>
      <trkpt lat="43.755991" lon="4.527551">
        <ele>2.229782</ele>
        <time>2022-07-27T06:29:51.355Z</time>
      </trkpt>
      <trkpt lat="43.757449" lon="4.526638">
        <ele>2.093890</ele>
        <time>2022-07-27T06:30:26.381Z</time>
      </trkpt>
      <trkpt lat="43.758635" lon="4.525902">
        <ele>1.965518</ele>
        <time>2022-07-27T06:30:54.235Z</time>
      </trkpt>
      <trkpt lat="43.760142" lon="4.525069">
        <ele>2.554344</ele>
        <time>2022-07-27T06:31:32.383Z</time>
      </trkpt>
      <trkpt lat="43.760748" lon="4.524912">
        <ele>2.877627</ele>
        <time>2022-07-27T06:31:48.234Z</time>
      </trkpt>
      <trkpt lat="43.761186" lon="4.524934">
        <ele>3.183855</ele>
        <time>2022-07-27T06:31:59.516Z</time>
      </trkpt>
      <trkpt lat="43.761835" lon="4.525110">
        <ele>3.645922</ele>
        <time>2022-07-27T06:32:16.231Z</time>
      </trkpt>
      <trkpt lat="43.762453" lon="4.525487">
        <ele>4.015969</ele>
        <time>2022-07-27T06:32:32.776Z</time>
      </trkpt>
      <trkpt lat="43.763117" lon="4.526122">
        <ele>4.078589</ele>
        <time>2022-07-27T06:32:51.742Z</time>
      </trkpt>
      <trkpt lat="43.764715" lon="4.528338">
        <ele>3.709505</ele>
        <time>2022-07-27T06:33:39.539Z</time>
      </trkpt>
      <trkpt lat="43.766436" lon="4.530813">
        <ele>3.169938</ele>
        <time>2022-07-27T06:34:32.122Z</time>
      </trkpt>
      <trkpt lat="43.767113" lon="4.531589">
        <ele>3.289039</ele>
        <time>2022-07-27T06:34:52.061Z</time>
      </trkpt>
      <trkpt lat="43.767759" lon="4.532213">
        <ele>3.488877</ele>
        <time>2022-07-27T06:35:10.930Z</time>
      </trkpt>
      <trkpt lat="43.768200" lon="4.532501">
        <ele>3.799476</ele>
        <time>2022-07-27T06:35:23.094Z</time>
      </trkpt>
      <trkpt lat="43.769999" lon="4.533459">
        <ele>4.938309</ele>
        <time>2022-07-27T06:36:11.330Z</time>
      </trkpt>
      <trkpt lat="43.770550" lon="4.533856">
        <ele>5.265065</ele>
        <time>2022-07-27T06:36:26.099Z</time>
      </trkpt>
      <trkpt lat="43.771259" lon="4.534715">
        <ele>5.640233</ele>
        <time>2022-07-27T06:36:48.432Z</time>
      </trkpt>
      <trkpt lat="43.772480" lon="4.536601">
        <ele>5.986201</ele>
        <time>2022-07-27T06:37:31.021Z</time>
      </trkpt>
      <trkpt lat="43.773061" lon="4.537282">
        <ele>5.934785</ele>
        <time>2022-07-27T06:37:47.764Z</time>
      </trkpt>
      <trkpt lat="43.775019" lon="4.539350">
        <ele>5.210290</ele>
        <time>2022-07-27T06:38:38.938Z</time>
      </trkpt>
      <trkpt lat="43.776170" lon="4.541486">
        <ele>5.008139</ele>
        <time>2022-07-27T06:39:21.567Z</time>
      </trkpt>
      <trkpt lat="43.776822" lon="4.542468">
        <ele>4.944372</ele>
        <time>2022-07-27T06:39:43.160Z</time>
      </trkpt>
      <trkpt lat="43.777488" lon="4.543389">
        <ele>4.678684</ele>
        <time>2022-07-27T06:40:03.244Z</time>
      </trkpt>
      <trkpt lat="43.777823" lon="4.543983">
        <ele>4.399314</ele>
        <time>2022-07-27T06:40:14.343Z</time>
      </trkpt>
      <trkpt lat="43.778613" lon="4.545536">
        <ele>3.795749</ele>
        <time>2022-07-27T06:40:41.836Z</time>
      </trkpt>
      <trkpt lat="43.778994" lon="4.546870">
        <ele>3.446113</ele>
        <time>2022-07-27T06:41:03.950Z</time>
      </trkpt>
      <trkpt lat="43.779680" lon="4.548656">
        <ele>3.188173</ele>
        <time>2022-07-27T06:41:35.995Z</time>
      </trkpt>
      <trkpt lat="43.780275" lon="4.550031">
        <ele>3.017150</ele>
        <time>2022-07-27T06:42:00.982Z</time>
      </trkpt>
      <trkpt lat="43.781009" lon="4.551475">
        <ele>2.858128</ele>
        <time>2022-07-27T06:42:28.270Z</time>
      </trkpt>
      <trkpt lat="43.781234" lon="4.552062">
        <ele>2.900604</ele>
        <time>2022-07-27T06:42:39.143Z</time>
      </trkpt>
      <trkpt lat="43.781377" lon="4.552821">
        <ele>2.950738</ele>
        <time>2022-07-27T06:42:52.234Z</time>
      </trkpt>
      <trkpt lat="43.781574" lon="4.555292">
        <ele>3.061773</ele>
        <time>2022-07-27T06:43:33.303Z</time>
      </trkpt>
      <trkpt lat="43.781658" lon="4.555765">
        <ele>3.078238</ele>
        <time>2022-07-27T06:43:40.875Z</time>
      </trkpt>
      <trkpt lat="43.782099" lon="4.557227">
        <ele>3.015954</ele>
        <time>2022-07-27T06:44:05.370Z</time>
      </trkpt>
      <trkpt lat="43.782184" lon="4.557587">
        <ele>2.991240</ele>
        <time>2022-07-27T06:44:11.283Z</time>
      </trkpt>
      <trkpt lat="43.782263" lon="4.558280">
        <ele>2.945462</ele>
        <time>2022-07-27T06:44:22.690Z</time>
      </trkpt>
      <trkpt lat="43.782364" lon="4.559201">
        <ele>3.018499</ele>
        <time>2022-07-27T06:44:37.976Z</time>
      </trkpt>
      <trkpt lat="43.782597" lon="4.560385">
        <ele>3.176380</ele>
        <time>2022-07-27T06:44:58.519Z</time>
      </trkpt>
      <trkpt lat="43.782818" lon="4.561266">
        <ele>3.278117</ele>
        <time>2022-07-27T06:45:14.123Z</time>
      </trkpt>
      <trkpt lat="43.783907" lon="4.565446">
        <ele>3.629412</ele>
        <time>2022-07-27T06:46:26.502Z</time>
      </trkpt>
      <trkpt lat="43.784305" lon="4.566708">
        <ele>3.804213</ele>
        <time>2022-07-27T06:46:49.539Z</time>
      </trkpt>
      <trkpt lat="43.784919" lon="4.568660">
        <ele>4.032771</ele>
        <time>2022-07-27T06:47:24.747Z</time>
      </trkpt>
      <trkpt lat="43.785356" lon="4.570293">
        <ele>4.148890</ele>
        <time>2022-07-27T06:47:52.809Z</time>
      </trkpt>
      <trkpt lat="43.785661" lon="4.571501">
        <ele>4.248803</ele>
        <time>2022-07-27T06:48:13.968Z</time>
      </trkpt>
      <trkpt lat="43.786051" lon="4.572759">
        <ele>4.300432</ele>
        <time>2022-07-27T06:48:36.397Z</time>
      </trkpt>
      <trkpt lat="43.786769" lon="4.574476">
        <ele>4.003190</ele>
        <time>2022-07-27T06:49:07.296Z</time>
      </trkpt>
      <trkpt lat="43.787248" lon="4.575675">
        <ele>3.715805</ele>
        <time>2022-07-27T06:49:27.550Z</time>
      </trkpt>
      <trkpt lat="43.787283" lon="4.575766">
        <ele>3.692702</ele>
        <time>2022-07-27T06:49:29.123Z</time>
      </trkpt>
      <trkpt lat="43.788428" lon="4.578653">
        <ele>3.212567</ele>
        <time>2022-07-27T06:50:20.119Z</time>
      </trkpt>
      <trkpt lat="43.788537" lon="4.578904">
        <ele>3.184500</ele>
        <time>2022-07-27T06:50:24.820Z</time>
      </trkpt>
      <trkpt lat="43.788845" lon="4.579612">
        <ele>3.227544</ele>
        <time>2022-07-27T06:50:38.470Z</time>
      </trkpt>
      <trkpt lat="43.789262" lon="4.580367">
        <ele>3.318256</ele>
        <time>2022-07-27T06:50:54.386Z</time>
      </trkpt>
      <trkpt lat="43.789763" lon="4.580905">
        <ele>3.402048</ele>
        <time>2022-07-27T06:51:09.020Z</time>
      </trkpt>
      <trkpt lat="43.790401" lon="4.581428">
        <ele>3.388959</ele>
        <time>2022-07-27T06:51:25.427Z</time>
      </trkpt>
      <trkpt lat="43.791354" lon="4.582248">
        <ele>3.364894</ele>
        <time>2022-07-27T06:51:50.075Z</time>
      </trkpt>
      <trkpt lat="43.791697" lon="4.582729">
        <ele>3.351393</ele>
        <time>2022-07-27T06:52:00.706Z</time>
      </trkpt>
      <trkpt lat="43.792079" lon="4.583550">
        <ele>3.331888</ele>
        <time>2022-07-27T06:52:16.255Z</time>
      </trkpt>
      <trkpt lat="43.792353" lon="4.584279">
        <ele>3.318028</ele>
        <time>2022-07-27T06:52:29.677Z</time>
      </trkpt>
      <trkpt lat="43.792830" lon="4.585896">
        <ele>3.374161</ele>
        <time>2022-07-27T06:52:57.896Z</time>
      </trkpt>
      <trkpt lat="43.793213" lon="4.587786">
        <ele>3.496265</ele>
        <time>2022-07-27T06:53:29.348Z</time>
      </trkpt>
      <trkpt lat="43.793462" lon="4.588633">
        <ele>3.568251</ele>
        <time>2022-07-27T06:53:44.530Z</time>
      </trkpt>
      <trkpt lat="43.794094" lon="4.590620">
        <ele>3.897222</ele>
        <time>2022-07-27T06:54:21.570Z</time>
      </trkpt>
      <trkpt lat="43.794962" lon="4.594382">
        <ele>4.136801</ele>
        <time>2022-07-27T06:55:25.418Z</time>
      </trkpt>
      <trkpt lat="43.795062" lon="4.595165">
        <ele>4.193164</ele>
        <time>2022-07-27T06:55:38.056Z</time>
      </trkpt>
      <trkpt lat="43.795160" lon="4.598062">
        <ele>4.749503</ele>
        <time>2022-07-27T06:56:26.687Z</time>
      </trkpt>
      <trkpt lat="43.795214" lon="4.599712">
        <ele>5.329390</ele>
        <time>2022-07-27T06:56:56.415Z</time>
      </trkpt>
      <trkpt lat="43.795298" lon="4.600939">
        <ele>5.813400</ele>
        <time>2022-07-27T06:57:18.207Z</time>
      </trkpt>
      <trkpt lat="43.795381" lon="4.601530">
        <ele>5.901899</ele>
        <time>2022-07-27T06:57:28.254Z</time>
      </trkpt>
      <trkpt lat="43.795557" lon="4.602307">
        <ele>5.995840</ele>
        <time>2022-07-27T06:57:41.797Z</time>
      </trkpt>
      <trkpt lat="43.795907" lon="4.603339">
        <ele>6.127373</ele>
        <time>2022-07-27T06:58:00.503Z</time>
      </trkpt>
      <trkpt lat="43.796386" lon="4.604565">
        <ele>5.855932</ele>
        <time>2022-07-27T06:58:22.070Z</time>
      </trkpt>
      <trkpt lat="43.796524" lon="4.604858">
        <ele>5.787512</ele>
        <time>2022-07-27T06:58:27.275Z</time>
      </trkpt>
      <trkpt lat="43.797193" lon="4.606367">
        <ele>5.277908</ele>
        <time>2022-07-27T06:58:53.710Z</time>
      </trkpt>
      <trkpt lat="43.797474" lon="4.607076">
        <ele>4.990140</ele>
        <time>2022-07-27T06:59:05.463Z</time>
      </trkpt>
      <trkpt lat="43.797595" lon="4.607389">
        <ele>4.863818</ele>
        <time>2022-07-27T06:59:10.739Z</time>
      </trkpt>
      <trkpt lat="43.797710" lon="4.607634">
        <ele>4.759844</ele>
        <time>2022-07-27T06:59:15.087Z</time>
      </trkpt>
      <trkpt lat="43.798229" lon="4.608564">
        <ele>4.730917</ele>
        <time>2022-07-27T06:59:33.133Z</time>
      </trkpt>
      <trkpt lat="43.798355" lon="4.608790">
        <ele>4.725244</ele>
        <time>2022-07-27T06:59:37.984Z</time>
      </trkpt>
      <trkpt lat="43.798960" lon="4.609666">
        <ele>4.739053</ele>
        <time>2022-07-27T06:59:58.087Z</time>
      </trkpt>
      <trkpt lat="43.799187" lon="4.609971">
        <ele>4.830963</ele>
        <time>2022-07-27T07:00:05.368Z</time>
      </trkpt>
      <trkpt lat="43.799363" lon="4.610245">
        <ele>4.907911</ele>
        <time>2022-07-27T07:00:11.492Z</time>
      </trkpt>
      <trkpt lat="43.800026" lon="4.611501">
        <ele>5.231838</ele>
        <time>2022-07-27T07:00:38.260Z</time>
      </trkpt>
      <trkpt lat="43.800488" lon="4.612154">
        <ele>5.356009</ele>
        <time>2022-07-27T07:00:53.452Z</time>
      </trkpt>
      <trkpt lat="43.801050" lon="4.613303">
        <ele>5.544488</ele>
        <time>2022-07-27T07:01:16.397Z</time>
      </trkpt>
      <trkpt lat="43.801456" lon="4.614577">
        <ele>5.817073</ele>
        <time>2022-07-27T07:01:38.957Z</time>
      </trkpt>
      <trkpt lat="43.801743" lon="4.615358">
        <ele>5.995221</ele>
        <time>2022-07-27T07:01:53.002Z</time>
      </trkpt>
      <trkpt lat="43.802530" lon="4.617189">
        <ele>7.695939</ele>
        <time>2022-07-27T07:02:34.578Z</time>
      </trkpt>
      <trkpt lat="43.802739" lon="4.617575">
        <ele>8.143055</ele>
        <time>2022-07-27T07:02:44.846Z</time>
      </trkpt>
      <trkpt lat="43.803137" lon="4.617939">
        <ele>8.701675</ele>
        <time>2022-07-27T07:02:58.736Z</time>
      </trkpt>
      <trkpt lat="43.804341" lon="4.618445">
        <ele>10.085352</ele>
        <time>2022-07-27T07:03:33.164Z</time>
      </trkpt>
      <trkpt lat="43.804548" lon="4.618581">
        <ele>10.337297</ele>
        <time>2022-07-27T07:03:38.174Z</time>
      </trkpt>
      <trkpt lat="43.804760" lon="4.618819">
        <ele>10.340252</ele>
        <time>2022-07-27T07:03:44.400Z</time>
      </trkpt>
      <trkpt lat="43.805230" lon="4.619480">
        <ele>10.289504</ele>
        <time>2022-07-27T07:03:58.694Z</time>
      </trkpt>
      <trkpt lat="43.805317" lon="4.619602">
        <ele>10.280124</ele>
        <time>2022-07-27T07:04:01.191Z</time>
      </trkpt>
      <trkpt lat="43.805521" lon="4.619889">
        <ele>10.258093</ele>
        <time>2022-07-27T07:04:07.170Z</time>
      </trkpt>
      <trkpt lat="43.806377" lon="4.621114">
        <ele>10.433240</ele>
        <time>2022-07-27T07:04:34.828Z</time>
      </trkpt>
      <trkpt lat="43.806902" lon="4.622138">
        <ele>10.680997</ele>
        <time>2022-07-27T07:04:56.379Z</time>
      </trkpt>
      <trkpt lat="43.807421" lon="4.622892">
        <ele>10.919228</ele>
        <time>2022-07-27T07:05:14.952Z</time>
      </trkpt>
      <trkpt lat="43.807855" lon="4.623112">
        <ele>11.069578</ele>
        <time>2022-07-27T07:05:26.010Z</time>
      </trkpt>
      <trkpt lat="43.808096" lon="4.623170">
        <ele>11.149159</ele>
        <time>2022-07-27T07:05:32.035Z</time>
      </trkpt>
      <trkpt lat="43.808428" lon="4.623313">
        <ele>11.262271</ele>
        <time>2022-07-27T07:05:39.907Z</time>
      </trkpt>
      <trkpt lat="43.808519" lon="4.623467">
        <ele>11.290771</ele>
        <time>2022-07-27T07:05:43.102Z</time>
      </trkpt>
      <trkpt lat="43.808536" lon="4.623663">
        <ele>11.244629</ele>
        <time>2022-07-27T07:05:46.332Z</time>
      </trkpt>
      <trkpt lat="43.807856" lon="4.626836">
        <ele>10.326283</ele>
        <time>2022-07-27T07:06:35.990Z</time>
      </trkpt>
      <trkpt lat="43.807808" lon="4.627275">
        <ele>10.161545</ele>
        <time>2022-07-27T07:06:42.521Z</time>
      </trkpt>
      <trkpt lat="43.807819" lon="4.627721">
        <ele>9.995972</ele>
        <time>2022-07-27T07:06:49.177Z</time>
      </trkpt>
      <trkpt lat="43.807833" lon="4.627938">
        <ele>9.915139</ele>
        <time>2022-07-27T07:06:52.284Z</time>
      </trkpt>
      <trkpt lat="43.807909" lon="4.629707">
        <ele>9.351914</ele>
        <time>2022-07-27T07:07:18.356Z</time>
      </trkpt>
      <trkpt lat="43.807917" lon="4.630174">
        <ele>9.209142</ele>
        <time>2022-07-27T07:07:25.591Z</time>
      </trkpt>
      <trkpt lat="43.808059" lon="4.631088">
        <ele>8.893254</ele>
        <time>2022-07-27T07:07:39.996Z</time>
      </trkpt>
      <trkpt lat="43.807953" lon="4.632356">
        <ele>8.393687</ele>
        <time>2022-07-27T07:07:58.693Z</time>
      </trkpt>
      <trkpt lat="43.807235" lon="4.635535">
        <ele>6.939835</ele>
        <time>2022-07-27T07:08:46.731Z</time>
      </trkpt>
      <trkpt lat="43.807154" lon="4.636426">
        <ele>7.052784</ele>
        <time>2022-07-27T07:09:01.097Z</time>
      </trkpt>
      <trkpt lat="43.807113" lon="4.637065">
        <ele>7.144360</ele>
        <time>2022-07-27T07:09:11.878Z</time>
      </trkpt>
      <trkpt lat="43.807058" lon="4.637924">
        <ele>7.267462</ele>
        <time>2022-07-27T07:09:27.298Z</time>
      </trkpt>
      <trkpt lat="43.807045" lon="4.638095">
        <ele>7.292737</ele>
        <time>2022-07-27T07:09:30.262Z</time>
      </trkpt>
      <trkpt lat="43.806821" lon="4.639178">
        <ele>7.468251</ele>
        <time>2022-07-27T07:09:51.284Z</time>
      </trkpt>
      <trkpt lat="43.806596" lon="4.640260">
        <ele>7.643675</ele>
        <time>2022-07-27T07:10:12.305Z</time>
      </trkpt>
      <trkpt lat="43.806372" lon="4.641343">
        <ele>7.563343</ele>
        <time>2022-07-27T07:10:33.326Z</time>
      </trkpt>
      <trkpt lat="43.806148" lon="4.642426">
        <ele>7.433151</ele>
        <time>2022-07-27T07:10:54.347Z</time>
      </trkpt>
      <trkpt lat="43.805924" lon="4.643508">
        <ele>7.541226</ele>
        <time>2022-07-27T07:11:15.368Z</time>
      </trkpt>
      <trkpt lat="43.805699" lon="4.644591">
        <ele>7.792881</ele>
        <time>2022-07-27T07:11:36.390Z</time>
      </trkpt>
      <trkpt lat="43.805475" lon="4.645674">
        <ele>7.990663</ele>
        <time>2022-07-27T07:11:57.412Z</time>
      </trkpt>
      <trkpt lat="43.805251" lon="4.646757">
        <ele>8.111669</ele>
        <time>2022-07-27T07:12:18.433Z</time>
      </trkpt>
      <trkpt lat="43.805326" lon="4.646858">
        <ele>8.127234</ele>
        <time>2022-07-27T07:12:20.697Z</time>
      </trkpt>
      <trkpt lat="43.805281" lon="4.647276">
        <ele>8.172627</ele>
        <time>2022-07-27T07:12:27.197Z</time>
      </trkpt>
      <trkpt lat="43.805107" lon="4.648340">
        <ele>8.327949</ele>
        <time>2022-07-27T07:12:46.262Z</time>
      </trkpt>
      <trkpt lat="43.805061" lon="4.648704">
        <ele>8.386260</ele>
        <time>2022-07-27T07:12:52.422Z</time>
      </trkpt>
      <trkpt lat="43.804952" lon="4.648707">
        <ele>8.410097</ele>
        <time>2022-07-27T07:12:55.012Z</time>
      </trkpt>
      <trkpt lat="43.804740" lon="4.648656">
        <ele>8.457142</ele>
        <time>2022-07-27T07:12:59.787Z</time>
      </trkpt>
      <trkpt lat="43.804619" lon="4.648618">
        <ele>8.484269</ele>
        <time>2022-07-27T07:13:02.561Z</time>
      </trkpt>
      <trkpt lat="43.804544" lon="4.648495">
        <ele>8.509678</ele>
        <time>2022-07-27T07:13:05.113Z</time>
      </trkpt>
      <trkpt lat="43.804568" lon="4.648166">
        <ele>8.561858</ele>
        <time>2022-07-27T07:13:10.544Z</time>
      </trkpt>
      <trkpt lat="43.804756" lon="4.646885">
        <ele>8.530797</ele>
        <time>2022-07-27T07:13:32.509Z</time>
      </trkpt>
      <trkpt lat="43.804884" lon="4.646681">
        <ele>8.512603</ele>
        <time>2022-07-27T07:13:36.760Z</time>
      </trkpt>
      <trkpt lat="43.804974" lon="4.647308">
        <ele>8.469575</ele>
        <time>2022-07-27T07:13:46.588Z</time>
      </trkpt>
      <trkpt lat="43.804757" lon="4.648204">
        <ele>8.423574</ele>
        <time>2022-07-27T07:14:00.544Z</time>
      </trkpt>
      <trkpt lat="43.804685" lon="4.648556">
        <ele>8.414407</ele>
        <time>2022-07-27T07:14:05.986Z</time>
      </trkpt>
      <trkpt lat="43.804666" lon="4.648710">
        <ele>8.410492</ele>
        <time>2022-07-27T07:14:08.356Z</time>
      </trkpt>
      <trkpt lat="43.804657" lon="4.648939">
        <ele>8.404746</ele>
        <time>2022-07-27T07:14:11.827Z</time>
      </trkpt>
      <trkpt lat="43.804656" lon="4.648953">
        <ele>8.404393</ele>
        <time>2022-07-27T07:14:12.031Z</time>
      </trkpt>
      <trkpt lat="43.804698" lon="4.653776">
        <ele>9.408677</ele>
        <time>2022-07-27T07:15:33.435Z</time>
      </trkpt>
      <trkpt lat="43.804703" lon="4.654380">
        <ele>9.715742</ele>
        <time>2022-07-27T07:15:44.291Z</time>
      </trkpt>
      <trkpt lat="43.804704" lon="4.654388">
        <ele>9.719869</ele>
        <time>2022-07-27T07:15:44.454Z</time>
      </trkpt>
      <trkpt lat="43.804780" lon="4.654545">
        <ele>9.815972</ele>
        <time>2022-07-27T07:15:48.293Z</time>
      </trkpt>
      <trkpt lat="43.805071" lon="4.654734">
        <ele>10.042346</ele>
        <time>2022-07-27T07:15:56.773Z</time>
      </trkpt>
      <trkpt lat="43.805710" lon="4.654708">
        <ele>10.790731</ele>
        <time>2022-07-27T07:16:14.293Z</time>
      </trkpt>
      <trkpt lat="43.805844" lon="4.654798">
        <ele>10.988626</ele>
        <time>2022-07-27T07:16:18.746Z</time>
      </trkpt>
      <trkpt lat="43.805889" lon="4.655002">
        <ele>11.193215</ele>
        <time>2022-07-27T07:16:22.913Z</time>
      </trkpt>
      <trkpt lat="43.805863" lon="4.655165">
        <ele>11.353319</ele>
        <time>2022-07-27T07:16:26.510Z</time>
      </trkpt>
      <trkpt lat="43.805819" lon="4.655237">
        <ele>11.443804</ele>
        <time>2022-07-27T07:16:28.531Z</time>
      </trkpt>
      <trkpt lat="43.805836" lon="4.655373">
        <ele>11.576182</ele>
        <time>2022-07-27T07:16:31.267Z</time>
      </trkpt>
      <trkpt lat="43.805951" lon="4.655410">
        <ele>11.733076</ele>
        <time>2022-07-27T07:16:34.443Z</time>
      </trkpt>
      <trkpt lat="43.806071" lon="4.655461">
        <ele>11.899882</ele>
        <time>2022-07-27T07:16:37.887Z</time>
      </trkpt>
      <trkpt lat="43.806158" lon="4.655454">
        <ele>12.015695</ele>
        <time>2022-07-27T07:16:40.222Z</time>
      </trkpt>
      <trkpt lat="43.806474" lon="4.655575">
        <ele>12.451381</ele>
        <time>2022-07-27T07:16:49.099Z</time>
      </trkpt>
      <trkpt lat="43.806694" lon="4.655646">
        <ele>12.686397</ele>
        <time>2022-07-27T07:16:55.216Z</time>
      </trkpt>
      <trkpt lat="43.806846" lon="4.655695">
        <ele>12.827797</ele>
        <time>2022-07-27T07:16:59.424Z</time>
      </trkpt>
      <trkpt lat="43.807012" lon="4.655927">
        <ele>13.041422</ele>
        <time>2022-07-27T07:17:05.865Z</time>
      </trkpt>
      <trkpt lat="43.807012" lon="4.655936">
        <ele>13.047307</ele>
        <time>2022-07-27T07:17:06.034Z</time>
      </trkpt>
      <trkpt lat="43.806918" lon="4.656269">
        <ele>13.281115</ele>
        <time>2022-07-27T07:17:12.865Z</time>
      </trkpt>
      <trkpt lat="43.806550" lon="4.657408">
        <ele>14.097125</ele>
        <time>2022-07-27T07:17:36.020Z</time>
      </trkpt>
      <trkpt lat="43.806522" lon="4.657521">
        <ele>14.175249</ele>
        <time>2022-07-27T07:17:38.072Z</time>
      </trkpt>
      <trkpt lat="43.806427" lon="4.658032">
        <ele>14.167957</ele>
        <time>2022-07-27T07:17:46.905Z</time>
      </trkpt>
      <trkpt lat="43.806392" lon="4.658653">
        <ele>14.157913</ele>
        <time>2022-07-27T07:17:56.919Z</time>
      </trkpt>
      <trkpt lat="43.806463" lon="4.659240">
        <ele>14.148316</ele>
        <time>2022-07-27T07:18:06.076Z</time>
      </trkpt>
      <trkpt lat="43.806650" lon="4.659736">
        <ele>14.139292</ele>
        <time>2022-07-27T07:18:14.650Z</time>
      </trkpt>
      <trkpt lat="43.807080" lon="4.660412">
        <ele>13.735066</ele>
        <time>2022-07-27T07:18:28.453Z</time>
      </trkpt>
      <trkpt lat="43.807216" lon="4.660615">
        <ele>13.579075</ele>
        <time>2022-07-27T07:18:32.473Z</time>
      </trkpt>
      <trkpt lat="43.807528" lon="4.661068">
        <ele>13.226424</ele>
        <time>2022-07-27T07:18:41.241Z</time>
      </trkpt>
      <trkpt lat="43.808011" lon="4.661577">
        <ele>12.752890</ele>
        <time>2022-07-27T07:18:52.671Z</time>
      </trkpt>
      <trkpt lat="43.808139" lon="4.662032">
        <ele>12.457803</ele>
        <time>2022-07-27T07:18:59.403Z</time>
      </trkpt>
      <trkpt lat="43.808039" lon="4.662424">
        <ele>12.205214</ele>
        <time>2022-07-27T07:19:05.304Z</time>
      </trkpt>
      <trkpt lat="43.808048" lon="4.662528">
        <ele>12.141579</ele>
        <time>2022-07-27T07:19:06.713Z</time>
      </trkpt>
      <trkpt lat="43.807994" lon="4.662591">
        <ele>12.082153</ele>
        <time>2022-07-27T07:19:08.110Z</time>
      </trkpt>
      <trkpt lat="43.807748" lon="4.662899">
        <ele>11.803048</ele>
        <time>2022-07-27T07:19:14.680Z</time>
      </trkpt>
      <trkpt lat="43.807501" lon="4.663124">
        <ele>11.554209</ele>
        <time>2022-07-27T07:19:20.602Z</time>
      </trkpt>
      <trkpt lat="43.807313" lon="4.663166">
        <ele>11.393900</ele>
        <time>2022-07-27T07:19:24.395Z</time>
      </trkpt>
      <trkpt lat="43.807186" lon="4.663185">
        <ele>11.286366</ele>
        <time>2022-07-27T07:19:27.035Z</time>
      </trkpt>
      <trkpt lat="43.807058" lon="4.663189">
        <ele>11.208307</ele>
        <time>2022-07-27T07:19:29.531Z</time>
      </trkpt>
      <trkpt lat="43.806884" lon="4.663160">
        <ele>11.170654</ele>
        <time>2022-07-27T07:19:33.077Z</time>
      </trkpt>
      <trkpt lat="43.806854" lon="4.663149">
        <ele>11.163987</ele>
        <time>2022-07-27T07:19:33.705Z</time>
      </trkpt>
      <trkpt lat="43.806796" lon="4.663116">
        <ele>11.150517</ele>
        <time>2022-07-27T07:19:34.941Z</time>
      </trkpt>
      <trkpt lat="43.806690" lon="4.663027">
        <ele>11.123889</ele>
        <time>2022-07-27T07:19:37.463Z</time>
      </trkpt>
      <trkpt lat="43.806746" lon="4.663253">
        <ele>11.086840</ele>
        <time>2022-07-27T07:19:41.105Z</time>
      </trkpt>
      <trkpt lat="43.806791" lon="4.663434">
        <ele>11.057158</ele>
        <time>2022-07-27T07:19:44.083Z</time>
      </trkpt>
      <trkpt lat="43.806807" lon="4.663620">
        <ele>11.028115</ele>
        <time>2022-07-27T07:19:47.073Z</time>
      </trkpt>
      <trkpt lat="43.806698" lon="4.664117">
        <ele>10.947576</ele>
        <time>2022-07-27T07:19:55.647Z</time>
      </trkpt>
      <trkpt lat="43.806597" lon="4.664904">
        <ele>10.820737</ele>
        <time>2022-07-27T07:20:08.708Z</time>
      </trkpt>
      <trkpt lat="43.806450" lon="4.665854">
        <ele>10.618210</ele>
        <time>2022-07-27T07:20:23.548Z</time>
      </trkpt>
      <trkpt lat="43.806478" lon="4.666469">
        <ele>10.489760</ele>
        <time>2022-07-27T07:20:32.966Z</time>
      </trkpt>
      <trkpt lat="43.806490" lon="4.666639">
        <ele>10.454155</ele>
        <time>2022-07-27T07:20:35.516Z</time>
      </trkpt>
      <trkpt lat="43.806499" lon="4.666755">
        <ele>10.429835</ele>
        <time>2022-07-27T07:20:37.277Z</time>
      </trkpt>
      <trkpt lat="43.806508" lon="4.666878">
        <ele>10.404065</ele>
        <time>2022-07-27T07:20:39.234Z</time>
      </trkpt>
      <trkpt lat="43.806480" lon="4.667785">
        <ele>10.125845</ele>
        <time>2022-07-27T07:20:52.658Z</time>
      </trkpt>
      <trkpt lat="43.805941" lon="4.667635">
        <ele>9.822459</ele>
        <time>2022-07-27T07:21:03.734Z</time>
      </trkpt>
      <trkpt lat="43.805840" lon="4.667678">
        <ele>9.764151</ele>
        <time>2022-07-27T07:21:05.727Z</time>
      </trkpt>
      <trkpt lat="43.805751" lon="4.667946">
        <ele>9.646658</ele>
        <time>2022-07-27T07:21:10.101Z</time>
      </trkpt>
      <trkpt lat="43.805840" lon="4.667678">
        <ele>9.529165</ele>
        <time>2022-07-27T07:21:14.301Z</time>
      </trkpt>
      <trkpt lat="43.805941" lon="4.667635">
        <ele>9.470857</ele>
        <time>2022-07-27T07:21:16.612Z</time>
      </trkpt>
      <trkpt lat="43.806480" lon="4.667785">
        <ele>9.181991</ele>
        <time>2022-07-27T07:21:28.196Z</time>
      </trkpt>
      <trkpt lat="43.806455" lon="4.668244">
        <ele>9.016125</ele>
        <time>2022-07-27T07:21:35.102Z</time>
      </trkpt>
      <trkpt lat="43.806444" lon="4.669154">
        <ele>8.688170</ele>
        <time>2022-07-27T07:21:48.368Z</time>
      </trkpt>
      <trkpt lat="43.806476" lon="4.669473">
        <ele>8.572117</ele>
        <time>2022-07-27T07:21:53.122Z</time>
      </trkpt>
      <trkpt lat="43.806578" lon="4.670141">
        <ele>8.370486</ele>
        <time>2022-07-27T07:22:03.176Z</time>
      </trkpt>
      <trkpt lat="43.806635" lon="4.670477">
        <ele>8.303749</ele>
        <time>2022-07-27T07:22:08.445Z</time>
      </trkpt>
      <trkpt lat="43.806718" lon="4.670962">
        <ele>8.207374</ele>
        <time>2022-07-27T07:22:16.116Z</time>
      </trkpt>
      <trkpt lat="43.806852" lon="4.671754">
        <ele>8.050089</ele>
        <time>2022-07-27T07:22:28.631Z</time>
      </trkpt>
      <trkpt lat="43.806864" lon="4.671832">
        <ele>8.034669</ele>
        <time>2022-07-27T07:22:29.852Z</time>
      </trkpt>
      <trkpt lat="43.806878" lon="4.671911">
        <ele>8.018940</ele>
        <time>2022-07-27T07:22:31.083Z</time>
      </trkpt>
      <trkpt lat="43.806898" lon="4.672029">
        <ele>7.995504</ele>
        <time>2022-07-27T07:22:32.955Z</time>
      </trkpt>
      <trkpt lat="43.807039" lon="4.672919">
        <ele>7.918067</ele>
        <time>2022-07-27T07:22:47.451Z</time>
      </trkpt>
      <trkpt lat="43.807031" lon="4.673158">
        <ele>7.909655</ele>
        <time>2022-07-27T07:22:51.287Z</time>
      </trkpt>
      <trkpt lat="43.806978" lon="4.673242">
        <ele>7.905732</ele>
        <time>2022-07-27T07:22:53.080Z</time>
      </trkpt>
      <trkpt lat="43.806999" lon="4.673323">
        <ele>7.902706</ele>
        <time>2022-07-27T07:22:54.457Z</time>
      </trkpt>
      <trkpt lat="43.807077" lon="4.673344">
        <ele>7.898835</ele>
        <time>2022-07-27T07:22:56.211Z</time>
      </trkpt>
      <trkpt lat="43.808017" lon="4.675794">
        <ele>7.732353</ele>
        <time>2022-07-27T07:23:40.642Z</time>
      </trkpt>
      <trkpt lat="43.808218" lon="4.676460">
        <ele>7.672742</ele>
        <time>2022-07-27T07:23:51.881Z</time>
      </trkpt>
      <trkpt lat="43.808905" lon="4.678838">
        <ele>7.362576</ele>
        <time>2022-07-27T07:24:31.366Z</time>
      </trkpt>
      <trkpt lat="43.809381" lon="4.680081">
        <ele>7.313140</ele>
        <time>2022-07-27T07:24:53.933Z</time>
      </trkpt>
      <trkpt lat="43.809582" lon="4.680823">
        <ele>7.300775</ele>
        <time>2022-07-27T07:25:06.797Z</time>
      </trkpt>
      <trkpt lat="43.809664" lon="4.681127">
        <ele>7.295712</ele>
        <time>2022-07-27T07:25:12.124Z</time>
      </trkpt>
      <trkpt lat="43.810337" lon="4.683290">
        <ele>6.987531</ele>
        <time>2022-07-27T07:25:48.506Z</time>
      </trkpt>
      <trkpt lat="43.810443" lon="4.683694">
        <ele>6.937722</ele>
        <time>2022-07-27T07:25:55.136Z</time>
      </trkpt>
      <trkpt lat="43.810479" lon="4.684316">
        <ele>6.941481</ele>
        <time>2022-07-27T07:26:04.905Z</time>
      </trkpt>
      <trkpt lat="43.810604" lon="4.685538">
        <ele>6.948916</ele>
        <time>2022-07-27T07:26:24.584Z</time>
      </trkpt>
      <trkpt lat="43.810706" lon="4.686090">
        <ele>6.953691</ele>
        <time>2022-07-27T07:26:34.135Z</time>
      </trkpt>
      <trkpt lat="43.811085" lon="4.686881">
        <ele>7.060873</ele>
        <time>2022-07-27T07:26:50.374Z</time>
      </trkpt>
      <trkpt lat="43.811467" lon="4.687737">
        <ele>7.174486</ele>
        <time>2022-07-27T07:27:06.863Z</time>
      </trkpt>
      <trkpt lat="43.811706" lon="4.688450">
        <ele>7.215025</ele>
        <time>2022-07-27T07:27:19.526Z</time>
      </trkpt>
      <trkpt lat="43.811835" lon="4.688583">
        <ele>7.199208</ele>
        <time>2022-07-27T07:27:25.443Z</time>
      </trkpt>
      <trkpt lat="43.811706" lon="4.688450">
        <ele>7.183391</ele>
        <time>2022-07-27T07:27:31.432Z</time>
      </trkpt>
      <trkpt lat="43.811763" lon="4.688888">
        <ele>7.151797</ele>
        <time>2022-07-27T07:27:38.500Z</time>
      </trkpt>
      <trkpt lat="43.811750" lon="4.689325">
        <ele>7.120748</ele>
        <time>2022-07-27T07:27:45.429Z</time>
      </trkpt>
      <trkpt lat="43.811646" lon="4.689767">
        <ele>7.087746</ele>
        <time>2022-07-27T07:27:52.843Z</time>
      </trkpt>
      <trkpt lat="43.811267" lon="4.690718">
        <ele>6.937805</ele>
        <time>2022-07-27T07:28:09.370Z</time>
      </trkpt>
      <trkpt lat="43.811248" lon="4.690987">
        <ele>6.888292</ele>
        <time>2022-07-27T07:28:13.524Z</time>
      </trkpt>
      <trkpt lat="43.811317" lon="4.691329">
        <ele>6.823239</ele>
        <time>2022-07-27T07:28:18.974Z</time>
      </trkpt>
      <trkpt lat="43.811341" lon="4.691564">
        <ele>6.779760</ele>
        <time>2022-07-27T07:28:22.679Z</time>
      </trkpt>
      <trkpt lat="43.811396" lon="4.692030">
        <ele>6.693260</ele>
        <time>2022-07-27T07:28:29.905Z</time>
      </trkpt>
      <trkpt lat="43.811604" lon="4.693000">
        <ele>6.542527</ele>
        <time>2022-07-27T07:28:45.433Z</time>
      </trkpt>
      <trkpt lat="43.811449" lon="4.694094">
        <ele>6.415009</ele>
        <time>2022-07-27T07:29:02.454Z</time>
      </trkpt>
      <trkpt lat="43.811464" lon="4.695334">
        <ele>6.354526</ele>
        <time>2022-07-27T07:29:22.335Z</time>
      </trkpt>
      <trkpt lat="43.811651" lon="4.696861">
        <ele>6.521753</ele>
        <time>2022-07-27T07:29:47.751Z</time>
      </trkpt>
      <trkpt lat="43.812059" lon="4.698523">
        <ele>6.792854</ele>
        <time>2022-07-27T07:30:18.017Z</time>
      </trkpt>
      <trkpt lat="43.812089" lon="4.700278">
        <ele>6.980220</ele>
        <time>2022-07-27T07:30:47.030Z</time>
      </trkpt>
      <trkpt lat="43.812141" lon="4.700576">
        <ele>6.948488</ele>
        <time>2022-07-27T07:30:51.763Z</time>
      </trkpt>
      <trkpt lat="43.812230" lon="4.700774">
        <ele>6.924344</ele>
        <time>2022-07-27T07:30:55.431Z</time>
      </trkpt>
      <trkpt lat="43.812274" lon="4.700834">
        <ele>6.915490</ele>
        <time>2022-07-27T07:30:56.738Z</time>
      </trkpt>
      <trkpt lat="43.812325" lon="4.700920">
        <ele>6.903969</ele>
        <time>2022-07-27T07:30:58.459Z</time>
      </trkpt>
      <trkpt lat="43.813161" lon="4.702087">
        <ele>6.726339</ele>
        <time>2022-07-27T07:31:23.511Z</time>
      </trkpt>
      <trkpt lat="43.813854" lon="4.704067">
        <ele>6.453903</ele>
        <time>2022-07-27T07:31:57.958Z</time>
      </trkpt>
      <trkpt lat="43.814850" lon="4.707201">
        <ele>6.555829</ele>
        <time>2022-07-27T07:32:53.064Z</time>
      </trkpt>
      <trkpt lat="43.814929" lon="4.708560">
        <ele>6.673219</ele>
        <time>2022-07-27T07:33:15.671Z</time>
      </trkpt>
      <trkpt lat="43.815044" lon="4.710454">
        <ele>7.080267</ele>
        <time>2022-07-27T07:33:47.869Z</time>
      </trkpt>
      <trkpt lat="43.815323" lon="4.711158">
        <ele>7.253229</ele>
        <time>2022-07-27T07:34:01.599Z</time>
      </trkpt>
      <trkpt lat="43.815643" lon="4.711631">
        <ele>7.292208</ele>
        <time>2022-07-27T07:34:12.464Z</time>
      </trkpt>
      <trkpt lat="43.815994" lon="4.711983">
        <ele>7.328304</ele>
        <time>2022-07-27T07:34:22.220Z</time>
      </trkpt>
      <trkpt lat="43.816143" lon="4.712241">
        <ele>7.348170</ele>
        <time>2022-07-27T07:34:27.451Z</time>
      </trkpt>
      <trkpt lat="43.816196" lon="4.712554">
        <ele>7.367497</ele>
        <time>2022-07-27T07:34:32.504Z</time>
      </trkpt>
      <trkpt lat="43.816210" lon="4.713345">
        <ele>7.422984</ele>
        <time>2022-07-27T07:34:45.141Z</time>
      </trkpt>
      <trkpt lat="43.817123" lon="4.713652">
        <ele>7.542408</ele>
        <time>2022-07-27T07:35:06.324Z</time>
      </trkpt>
      <trkpt lat="43.817188" lon="4.713809">
        <ele>7.559010</ele>
        <time>2022-07-27T07:35:09.412Z</time>
      </trkpt>
      <trkpt lat="43.817201" lon="4.714111">
        <ele>7.586759</ele>
        <time>2022-07-27T07:35:14.384Z</time>
      </trkpt>
      <trkpt lat="43.817248" lon="4.717732">
        <ele>8.248828</ele>
        <time>2022-07-27T07:36:16.244Z</time>
      </trkpt>
      <trkpt lat="43.817587" lon="4.720839">
        <ele>8.377051</ele>
        <time>2022-07-27T07:37:06.063Z</time>
      </trkpt>
      <trkpt lat="43.817609" lon="4.722376">
        <ele>8.491113</ele>
        <time>2022-07-27T07:37:31.281Z</time>
      </trkpt>
      <trkpt lat="43.817763" lon="4.726451">
        <ele>9.411727</ele>
        <time>2022-07-27T07:38:41.147Z</time>
      </trkpt>
      <trkpt lat="43.817807" lon="4.727043">
        <ele>9.523681</ele>
        <time>2022-07-27T07:38:51.091Z</time>
      </trkpt>
      <trkpt lat="43.817883" lon="4.728385">
        <ele>9.312236</ele>
        <time>2022-07-27T07:39:12.503Z</time>
      </trkpt>
      <trkpt lat="43.817833" lon="4.728873">
        <ele>9.234814</ele>
        <time>2022-07-27T07:39:19.907Z</time>
      </trkpt>
      <trkpt lat="43.817637" lon="4.729728">
        <ele>9.075264</ele>
        <time>2022-07-27T07:39:32.968Z</time>
      </trkpt>
      <trkpt lat="43.817741" lon="4.729823">
        <ele>9.037425</ele>
        <time>2022-07-27T07:39:35.466Z</time>
      </trkpt>
      <trkpt lat="43.817582" lon="4.730517">
        <ele>8.877818</ele>
        <time>2022-07-27T07:39:46.192Z</time>
      </trkpt>
      <trkpt lat="43.817273" lon="4.731459">
        <ele>8.650998</ele>
        <time>2022-07-27T07:40:02.086Z</time>
      </trkpt>
      <trkpt lat="43.817232" lon="4.731614">
        <ele>8.614811</ele>
        <time>2022-07-27T07:40:04.741Z</time>
      </trkpt>
      <trkpt lat="43.817235" lon="4.731658">
        <ele>8.605124</ele>
        <time>2022-07-27T07:40:05.457Z</time>
      </trkpt>
      <trkpt lat="43.818113" lon="4.732955">
        <ele>8.924166</ele>
        <time>2022-07-27T07:40:35.539Z</time>
      </trkpt>
      <trkpt lat="43.818210" lon="4.733214">
        <ele>8.979738</ele>
        <time>2022-07-27T07:40:40.645Z</time>
      </trkpt>
      <trkpt lat="43.818255" lon="4.733498">
        <ele>9.035110</ele>
        <time>2022-07-27T07:40:45.743Z</time>
      </trkpt>
      <trkpt lat="43.818257" lon="4.733731">
        <ele>9.075516</ele>
        <time>2022-07-27T07:40:49.837Z</time>
      </trkpt>
      <trkpt lat="43.818023" lon="4.734489">
        <ele>9.171160</ele>
        <time>2022-07-27T07:41:03.880Z</time>
      </trkpt>
      <trkpt lat="43.817923" lon="4.735766">
        <ele>9.320171</ele>
        <time>2022-07-27T07:41:24.851Z</time>
      </trkpt>
      <trkpt lat="43.817934" lon="4.736253">
        <ele>9.353413</ele>
        <time>2022-07-27T07:41:32.553Z</time>
      </trkpt>
      <trkpt lat="43.818046" lon="4.737001">
        <ele>9.328572</ele>
        <time>2022-07-27T07:41:44.579Z</time>
      </trkpt>
      <trkpt lat="43.818060" lon="4.737448">
        <ele>9.314023</ele>
        <time>2022-07-27T07:41:51.627Z</time>
      </trkpt>
      <trkpt lat="43.817836" lon="4.738772">
        <ele>9.274336</ele>
        <time>2022-07-27T07:42:13.252Z</time>
      </trkpt>
      <trkpt lat="43.817540" lon="4.739571">
        <ele>9.262444</ele>
        <time>2022-07-27T07:42:27.514Z</time>
      </trkpt>
      <trkpt lat="43.817582" lon="4.740569">
        <ele>9.249207</ele>
        <time>2022-07-27T07:42:43.350Z</time>
      </trkpt>
      <trkpt lat="43.817514" lon="4.740901">
        <ele>9.244637</ele>
        <time>2022-07-27T07:42:48.870Z</time>
      </trkpt>
      <trkpt lat="43.816061" lon="4.742946">
        <ele>9.739093</ele>
        <time>2022-07-27T07:43:36.462Z</time>
      </trkpt>
      <trkpt lat="43.815879" lon="4.743316">
        <ele>9.911732</ele>
        <time>2022-07-27T07:43:44.435Z</time>
      </trkpt>
      <trkpt lat="43.815415" lon="4.744589">
        <ele>10.461577</ele>
        <time>2022-07-27T07:44:10.218Z</time>
      </trkpt>
      <trkpt lat="43.815334" lon="4.745633">
        <ele>10.618899</ele>
        <time>2022-07-27T07:44:28.693Z</time>
      </trkpt>
      <trkpt lat="43.815353" lon="4.746368">
        <ele>10.673219</ele>
        <time>2022-07-27T07:44:40.747Z</time>
      </trkpt>
      <trkpt lat="43.815588" lon="4.748251">
        <ele>10.557696</ele>
        <time>2022-07-27T07:45:10.120Z</time>
      </trkpt>
      <trkpt lat="43.815900" lon="4.749700">
        <ele>10.259915</ele>
        <time>2022-07-27T07:45:33.133Z</time>
      </trkpt>
      <trkpt lat="43.816241" lon="4.750943">
        <ele>10.134826</ele>
        <time>2022-07-27T07:45:53.922Z</time>
      </trkpt>
      <trkpt lat="43.816470" lon="4.752065">
        <ele>10.028167</ele>
        <time>2022-07-27T07:46:12.361Z</time>
      </trkpt>
      <trkpt lat="43.816881" lon="4.753267">
        <ele>9.967558</ele>
        <time>2022-07-27T07:46:33.548Z</time>
      </trkpt>
      <trkpt lat="43.817105" lon="4.753714">
        <ele>9.943327</ele>
        <time>2022-07-27T07:46:42.154Z</time>
      </trkpt>
      <trkpt lat="43.817322" lon="4.754035">
        <ele>9.923743</ele>
        <time>2022-07-27T07:46:49.136Z</time>
      </trkpt>
      <trkpt lat="43.817504" lon="4.754213">
        <ele>9.904060</ele>
        <time>2022-07-27T07:46:54.081Z</time>
      </trkpt>
      <trkpt lat="43.817643" lon="4.754422">
        <ele>9.874635</ele>
        <time>2022-07-27T07:46:58.543Z</time>
      </trkpt>
      <trkpt lat="43.817638" lon="4.755233">
        <ele>9.790673</ele>
        <time>2022-07-27T07:47:11.274Z</time>
      </trkpt>
      <trkpt lat="43.817442" lon="4.757929">
        <ele>9.659088</ele>
        <time>2022-07-27T07:47:53.653Z</time>
      </trkpt>
      <trkpt lat="43.817258" lon="4.757631">
        <ele>9.659829</ele>
        <time>2022-07-27T07:47:59.994Z</time>
      </trkpt>
      <trkpt lat="43.817442" lon="4.757929">
        <ele>9.660571</ele>
        <time>2022-07-27T07:48:06.448Z</time>
      </trkpt>
      <trkpt lat="43.818804" lon="4.760484">
        <ele>10.055891</ele>
        <time>2022-07-27T07:48:59.500Z</time>
      </trkpt>
      <trkpt lat="43.819056" lon="4.760810">
        <ele>10.076078</ele>
        <time>2022-07-27T07:49:07.331Z</time>
      </trkpt>
      <trkpt lat="43.820632" lon="4.762789">
        <ele>10.160692</ele>
        <time>2022-07-27T07:49:54.434Z</time>
      </trkpt>
      <trkpt lat="43.821428" lon="4.764128">
        <ele>10.230708</ele>
        <time>2022-07-27T07:50:22.820Z</time>
      </trkpt>
      <trkpt lat="43.822096" lon="4.765303">
        <ele>10.379332</ele>
        <time>2022-07-27T07:50:47.464Z</time>
      </trkpt>
      <trkpt lat="43.822394" lon="4.765709">
        <ele>10.428826</ele>
        <time>2022-07-27T07:50:56.911Z</time>
      </trkpt>
      <trkpt lat="43.822513" lon="4.765823">
        <ele>10.437618</ele>
        <time>2022-07-27T07:51:00.189Z</time>
      </trkpt>
      <trkpt lat="43.823647" lon="4.766428">
        <ele>10.511469</ele>
        <time>2022-07-27T07:51:27.531Z</time>
      </trkpt>
      <trkpt lat="43.824762" lon="4.767435">
        <ele>10.636986</ele>
        <time>2022-07-27T07:51:57.500Z</time>
      </trkpt>
      <trkpt lat="43.826862" lon="4.769656">
        <ele>11.011485</ele>
        <time>2022-07-27T07:52:57.669Z</time>
      </trkpt>
      <trkpt lat="43.827406" lon="4.770883">
        <ele>11.247138</ele>
        <time>2022-07-27T07:53:21.462Z</time>
      </trkpt>
      <trkpt lat="43.827919" lon="4.772652">
        <ele>11.587054</ele>
        <time>2022-07-27T07:53:54.001Z</time>
      </trkpt>
      <trkpt lat="43.828488" lon="4.773763">
        <ele>11.851841</ele>
        <time>2022-07-27T07:54:17.063Z</time>
      </trkpt>
      <trkpt lat="43.828633" lon="4.774065">
        <ele>11.896719</ele>
        <time>2022-07-27T07:54:23.077Z</time>
      </trkpt>
      <trkpt lat="43.829315" lon="4.776225">
        <ele>11.930703</ele>
        <time>2022-07-27T07:55:00.522Z</time>
      </trkpt>
      <trkpt lat="43.829966" lon="4.777860">
        <ele>12.161854</ele>
        <time>2022-07-27T07:55:30.840Z</time>
      </trkpt>
      <trkpt lat="43.830475" lon="4.778575">
        <ele>12.417490</ele>
        <time>2022-07-27T07:55:48.386Z</time>
      </trkpt>
      <trkpt lat="43.830710" lon="4.779031">
        <ele>12.677725</ele>
        <time>2022-07-27T07:55:58.326Z</time>
      </trkpt>
      <trkpt lat="43.830791" lon="4.779196">
        <ele>12.770404</ele>
        <time>2022-07-27T07:56:01.885Z</time>
      </trkpt>
      <trkpt lat="43.831008" lon="4.779703">
        <ele>13.044157</ele>
        <time>2022-07-27T07:56:12.467Z</time>
      </trkpt>
      <trkpt lat="43.831314" lon="4.780221">
        <ele>13.355058</ele>
        <time>2022-07-27T07:56:25.172Z</time>
      </trkpt>
      <trkpt lat="43.831575" lon="4.780677">
        <ele>13.679591</ele>
        <time>2022-07-27T07:56:36.379Z</time>
      </trkpt>
      <trkpt lat="43.831748" lon="4.781084">
        <ele>13.950883</ele>
        <time>2022-07-27T07:56:45.562Z</time>
      </trkpt>
      <trkpt lat="43.831790" lon="4.781050">
        <ele>13.989603</ele>
        <time>2022-07-27T07:56:46.813Z</time>
      </trkpt>
      <trkpt lat="43.831830" lon="4.781610">
        <ele>14.312774</ele>
        <time>2022-07-27T07:56:57.311Z</time>
      </trkpt>
      <trkpt lat="43.832520" lon="4.781380">
        <ele>14.862364</ele>
        <time>2022-07-27T07:57:15.663Z</time>
      </trkpt>
      <trkpt lat="43.833210" lon="4.781150">
        <ele>15.252127</ele>
        <time>2022-07-27T07:57:34.015Z</time>
      </trkpt>
      <trkpt lat="43.833000" lon="4.780500">
        <ele>15.534295</ele>
        <time>2022-07-27T07:57:47.299Z</time>
      </trkpt>
      <trkpt lat="43.833540" lon="4.780390">
        <ele>15.822817</ele>
        <time>2022-07-27T07:58:01.412Z</time>
      </trkpt>
      <trkpt lat="43.833436" lon="4.780501">
        <ele>15.849985</ele>
        <time>2022-07-27T07:58:04.806Z</time>
      </trkpt>
      <trkpt lat="43.833218" lon="4.780542">
        <ele>15.895523</ele>
        <time>2022-07-27T07:58:10.119Z</time>
      </trkpt>
      <trkpt lat="43.833276" lon="4.781195">
        <ele>15.993762</ele>
        <time>2022-07-27T07:58:21.434Z</time>
      </trkpt>
      <trkpt lat="43.833269" lon="4.781268">
        <ele>16.004758</ele>
        <time>2022-07-27T07:58:22.750Z</time>
      </trkpt>
      <trkpt lat="43.833225" lon="4.781282">
        <ele>16.014102</ele>
        <time>2022-07-27T07:58:23.807Z</time>
      </trkpt>
      <trkpt lat="43.833055" lon="4.781339">
        <ele>16.050305</ele>
        <time>2022-07-27T07:58:27.733Z</time>
      </trkpt>
      <trkpt lat="43.833120" lon="4.781971">
        <ele>16.145627</ele>
        <time>2022-07-27T07:58:38.897Z</time>
      </trkpt>
      <trkpt lat="43.833051" lon="4.781980">
        <ele>16.159972</ele>
        <time>2022-07-27T07:58:40.579Z</time>
      </trkpt>
      <trkpt lat="43.833086" lon="4.782360">
        <ele>16.154174</ele>
        <time>2022-07-27T07:58:46.789Z</time>
      </trkpt>
      <trkpt lat="43.833291" lon="4.782295">
        <ele>16.102654</ele>
        <time>2022-07-27T07:58:51.408Z</time>
      </trkpt>
      <trkpt lat="43.833355" lon="4.782704">
        <ele>16.028693</ele>
        <time>2022-07-27T07:58:58.167Z</time>
      </trkpt>
      <trkpt lat="43.833401" lon="4.782866">
        <ele>15.997926</ele>
        <time>2022-07-27T07:59:00.832Z</time>
      </trkpt>
      <trkpt lat="43.833355" lon="4.782704">
        <ele>15.967158</ele>
        <time>2022-07-27T07:59:03.764Z</time>
      </trkpt>
      <trkpt lat="43.833057" lon="4.782830">
        <ele>15.890831</ele>
        <time>2022-07-27T07:59:10.649Z</time>
      </trkpt>
      <trkpt lat="43.833066" lon="4.782874">
        <ele>15.882749</ele>
        <time>2022-07-27T07:59:11.419Z</time>
      </trkpt>
      <trkpt lat="43.833166" lon="4.783390">
        <ele>15.788325</ele>
        <time>2022-07-27T07:59:19.851Z</time>
      </trkpt>
      <trkpt lat="43.833413" lon="4.784083">
        <ele>15.447214</ele>
        <time>2022-07-27T07:59:31.265Z</time>
      </trkpt>
      <trkpt lat="43.833565" lon="4.784362">
        <ele>15.253736</ele>
        <time>2022-07-27T07:59:36.340Z</time>
      </trkpt>
      <trkpt lat="43.834124" lon="4.785385">
        <ele>14.543548</ele>
        <time>2022-07-27T07:59:54.339Z</time>
      </trkpt>
      <trkpt lat="43.834363" lon="4.785821">
        <ele>14.298987</ele>
        <time>2022-07-27T08:00:02.182Z</time>
      </trkpt>
      <trkpt lat="43.834401" lon="4.786093">
        <ele>14.216062</ele>
        <time>2022-07-27T08:00:06.162Z</time>
      </trkpt>
      <trkpt lat="43.834386" lon="4.786128">
        <ele>14.203877</ele>
        <time>2022-07-27T08:00:06.773Z</time>
      </trkpt>
      <trkpt lat="43.834376" lon="4.786270">
        <ele>14.161173</ele>
        <time>2022-07-27T08:00:08.845Z</time>
      </trkpt>
      <trkpt lat="43.834430" lon="4.786398">
        <ele>14.116790</ele>
        <time>2022-07-27T08:00:10.944Z</time>
      </trkpt>
      <trkpt lat="43.834520" lon="4.786454">
        <ele>14.075857</ele>
        <time>2022-07-27T08:00:12.913Z</time>
      </trkpt>
      <trkpt lat="43.834666" lon="4.786670">
        <ele>13.987259</ele>
        <time>2022-07-27T08:00:17.201Z</time>
      </trkpt>
      <trkpt lat="43.835408" lon="4.789609">
        <ele>13.616751</ele>
        <time>2022-07-27T08:01:06.387Z</time>
      </trkpt>
      <trkpt lat="43.835627" lon="4.790242">
        <ele>13.633554</ele>
        <time>2022-07-27T08:01:18.111Z</time>
      </trkpt>
      <trkpt lat="43.836468" lon="4.791318">
        <ele>13.922861</ele>
        <time>2022-07-27T08:01:44.720Z</time>
      </trkpt>
      <trkpt lat="43.836818" lon="4.791637">
        <ele>14.028749</ele>
        <time>2022-07-27T08:01:54.541Z</time>
      </trkpt>
      <trkpt lat="43.837132" lon="4.792219">
        <ele>14.147887</ele>
        <time>2022-07-27T08:02:06.993Z</time>
      </trkpt>
      <trkpt lat="43.837894" lon="4.793798">
        <ele>14.443534</ele>
        <time>2022-07-27T08:02:38.486Z</time>
      </trkpt>
      <trkpt lat="43.838356" lon="4.794861">
        <ele>14.531019</ele>
        <time>2022-07-27T08:02:58.308Z</time>
      </trkpt>
      <trkpt lat="43.838673" lon="4.796177">
        <ele>14.624147</ele>
        <time>2022-07-27T08:03:20.994Z</time>
      </trkpt>
      <trkpt lat="43.839024" lon="4.796830">
        <ele>14.770050</ele>
        <time>2022-07-27T08:03:34.531Z</time>
      </trkpt>
      <trkpt lat="43.839053" lon="4.796884">
        <ele>14.782112</ele>
        <time>2022-07-27T08:03:35.668Z</time>
      </trkpt>
      <trkpt lat="43.839152" lon="4.797068">
        <ele>14.823238</ele>
        <time>2022-07-27T08:03:39.639Z</time>
      </trkpt>
      <trkpt lat="43.839332" lon="4.797641">
        <ele>14.935209</ele>
        <time>2022-07-27T08:03:50.380Z</time>
      </trkpt>
      <trkpt lat="43.839482" lon="4.798675">
        <ele>15.060995</ele>
        <time>2022-07-27T08:04:08.288Z</time>
      </trkpt>
      <trkpt lat="43.839580" lon="4.799509">
        <ele>15.055102</ele>
        <time>2022-07-27T08:04:21.741Z</time>
      </trkpt>
      <trkpt lat="43.839724" lon="4.799882">
        <ele>15.052152</ele>
        <time>2022-07-27T08:04:28.335Z</time>
      </trkpt>
      <trkpt lat="43.840039" lon="4.801318">
        <ele>15.038183</ele>
        <time>2022-07-27T08:04:51.957Z</time>
      </trkpt>
      <trkpt lat="43.840306" lon="4.802965">
        <ele>15.016794</ele>
        <time>2022-07-27T08:05:18.851Z</time>
      </trkpt>
      <trkpt lat="43.840769" lon="4.804011">
        <ele>15.227197</ele>
        <time>2022-07-27T08:05:39.470Z</time>
      </trkpt>
      <trkpt lat="43.841943" lon="4.806138">
        <ele>15.748910</ele>
        <time>2022-07-27T08:06:24.716Z</time>
      </trkpt>
      <trkpt lat="43.843001" lon="4.807726">
        <ele>16.155899</ele>
        <time>2022-07-27T08:07:00.926Z</time>
      </trkpt>
      <trkpt lat="43.843370" lon="4.808150">
        <ele>16.286775</ele>
        <time>2022-07-27T08:07:12.068Z</time>
      </trkpt>
      <trkpt lat="43.844494" lon="4.809645">
        <ele>16.681406</ele>
        <time>2022-07-27T08:07:48.362Z</time>
      </trkpt>
      <trkpt lat="43.845330" lon="4.810330">
        <ele>16.912344</ele>
        <time>2022-07-27T08:08:10.869Z</time>
      </trkpt>
      <trkpt lat="43.846450" lon="4.812484">
        <ele>17.330751</ele>
        <time>2022-07-27T08:08:55.277Z</time>
      </trkpt>
      <trkpt lat="43.846643" lon="4.812774">
        <ele>17.353538</ele>
        <time>2022-07-27T08:09:01.693Z</time>
      </trkpt>
      <trkpt lat="43.846804" lon="4.812911">
        <ele>17.368663</ele>
        <time>2022-07-27T08:09:05.975Z</time>
      </trkpt>
      <trkpt lat="43.846954" lon="4.813270">
        <ele>17.392622</ele>
        <time>2022-07-27T08:09:12.693Z</time>
      </trkpt>
      <trkpt lat="43.847541" lon="4.815074">
        <ele>17.515941</ele>
        <time>2022-07-27T08:09:44.875Z</time>
      </trkpt>
      <trkpt lat="43.847080" lon="4.818840">
        <ele>17.733855</ele>
        <time>2022-07-27T08:10:47.356Z</time>
      </trkpt>
      <trkpt lat="43.847020" lon="4.819140">
        <ele>17.748573</ele>
        <time>2022-07-27T08:10:52.328Z</time>
      </trkpt>
      <trkpt lat="43.846700" lon="4.820020">
        <ele>17.740393</ele>
        <time>2022-07-27T08:11:07.662Z</time>
      </trkpt>
      <trkpt lat="43.846550" lon="4.820610">
        <ele>17.732669</ele>
        <time>2022-07-27T08:11:17.508Z</time>
      </trkpt>
      <trkpt lat="43.846371" lon="4.821905">
        <ele>17.820358</ele>
        <time>2022-07-27T08:11:39.041Z</time>
      </trkpt>
      <trkpt lat="43.845960" lon="4.824020">
        <ele>18.394221</ele>
        <time>2022-07-27T08:12:17.167Z</time>
      </trkpt>
      <trkpt lat="43.845810" lon="4.825457">
        <ele>18.417253</ele>
        <time>2022-07-27T08:12:40.951Z</time>
      </trkpt>
      <trkpt lat="43.845768" lon="4.825696">
        <ele>18.421155</ele>
        <time>2022-07-27T08:12:44.735Z</time>
      </trkpt>
      <trkpt lat="43.845734" lon="4.825893">
        <ele>18.424368</ele>
        <time>2022-07-27T08:12:47.876Z</time>
      </trkpt>
      <trkpt lat="43.845526" lon="4.826540">
        <ele>18.425383</ele>
        <time>2022-07-27T08:12:58.660Z</time>
      </trkpt>
      <trkpt lat="43.845290" lon="4.827840">
        <ele>18.370638</ele>
        <time>2022-07-27T08:13:19.451Z</time>
      </trkpt>
      <trkpt lat="43.845070" lon="4.828410">
        <ele>18.344237</ele>
        <time>2022-07-27T08:13:30.118Z</time>
      </trkpt>
      <trkpt lat="43.843860" lon="4.829275">
        <ele>18.274181</ele>
        <time>2022-07-27T08:14:01.492Z</time>
      </trkpt>
      <trkpt lat="43.843780" lon="4.829340">
        <ele>18.269510</ele>
        <time>2022-07-27T08:14:03.465Z</time>
      </trkpt>
      <trkpt lat="43.842020" lon="4.832420">
        <ele>17.462577</ele>
        <time>2022-07-27T08:15:02.244Z</time>
      </trkpt>
      <trkpt lat="43.841916" lon="4.832689">
        <ele>17.445722</ele>
        <time>2022-07-27T08:15:06.906Z</time>
      </trkpt>
      <trkpt lat="43.841620" lon="4.833460">
        <ele>17.397488</ele>
        <time>2022-07-27T08:15:20.741Z</time>
      </trkpt>
      <trkpt lat="43.841405" lon="4.834518">
        <ele>17.558141</ele>
        <time>2022-07-27T08:15:39.066Z</time>
      </trkpt>
      <trkpt lat="43.841340" lon="4.834837">
        <ele>17.716465</ele>
        <time>2022-07-27T08:15:44.807Z</time>
      </trkpt>
      <trkpt lat="43.841120" lon="4.835920">
        <ele>18.253855</ele>
        <time>2022-07-27T08:16:04.831Z</time>
      </trkpt>
      <trkpt lat="43.840846" lon="4.836874">
        <ele>19.066398</ele>
        <time>2022-07-27T08:16:24.539Z</time>
      </trkpt>
      <trkpt lat="43.840765" lon="4.837028">
        <ele>19.308958</ele>
        <time>2022-07-27T08:16:28.352Z</time>
      </trkpt>
      <trkpt lat="43.840697" lon="4.837052">
        <ele>19.432765</ele>
        <time>2022-07-27T08:16:30.327Z</time>
      </trkpt>
      <trkpt lat="43.840623" lon="4.837202">
        <ele>19.664041</ele>
        <time>2022-07-27T08:16:34.055Z</time>
      </trkpt>
      <trkpt lat="43.840677" lon="4.837384">
        <ele>19.914490</ele>
        <time>2022-07-27T08:16:38.106Z</time>
      </trkpt>
      <trkpt lat="43.840705" lon="4.837778">
        <ele>20.418331</ele>
        <time>2022-07-27T08:16:46.432Z</time>
      </trkpt>
      <trkpt lat="43.840702" lon="4.838477">
        <ele>21.307910</ele>
        <time>2022-07-27T08:17:01.734Z</time>
      </trkpt>
      <trkpt lat="43.840786" lon="4.839193">
        <ele>22.475594</ele>
        <time>2022-07-27T08:17:18.805Z</time>
      </trkpt>
      <trkpt lat="43.840805" lon="4.839395">
        <ele>22.859936</ele>
        <time>2022-07-27T08:17:23.648Z</time>
      </trkpt>
      <trkpt lat="43.840809" lon="4.840353">
        <ele>24.667433</ele>
        <time>2022-07-27T08:17:46.809Z</time>
      </trkpt>
      <trkpt lat="43.840788" lon="4.840525">
        <ele>24.996563</ele>
        <time>2022-07-27T08:17:51.039Z</time>
      </trkpt>
      <trkpt lat="43.840738" lon="4.840733">
        <ele>25.410220</ele>
        <time>2022-07-27T08:17:56.241Z</time>
      </trkpt>
      <trkpt lat="43.840612" lon="4.841108">
        <ele>26.190741</ele>
        <time>2022-07-27T08:18:06.018Z</time>
      </trkpt>
      <trkpt lat="43.840653" lon="4.841514">
        <ele>26.884484</ele>
        <time>2022-07-27T08:18:15.475Z</time>
      </trkpt>
      <trkpt lat="43.840756" lon="4.841946">
        <ele>27.614964</ele>
        <time>2022-07-27T08:18:25.831Z</time>
      </trkpt>
      <trkpt lat="43.840783" lon="4.842015">
        <ele>27.740995</ele>
        <time>2022-07-27T08:18:27.621Z</time>
      </trkpt>
      <trkpt lat="43.840791" lon="4.842037">
        <ele>27.780550</ele>
        <time>2022-07-27T08:18:28.215Z</time>
      </trkpt>
      <trkpt lat="43.840863" lon="4.842223">
        <ele>28.119458</ele>
        <time>2022-07-27T08:18:32.848Z</time>
      </trkpt>
      <trkpt lat="43.840786" lon="4.842611">
        <ele>28.765532</ele>
        <time>2022-07-27T08:18:42.034Z</time>
      </trkpt>
      <trkpt lat="43.840714" lon="4.843768">
        <ele>30.627389</ele>
        <time>2022-07-27T08:19:07.526Z</time>
      </trkpt>
      <trkpt lat="43.840682" lon="4.844177">
        <ele>31.279219</ele>
        <time>2022-07-27T08:19:16.514Z</time>
      </trkpt>
      <trkpt lat="43.840560" lon="4.846270">
        <ele>34.593462</ele>
        <time>2022-07-27T08:20:03.692Z</time>
      </trkpt>
      <trkpt lat="43.840609" lon="4.846719">
        <ele>35.271617</ele>
        <time>2022-07-27T08:20:14.109Z</time>
      </trkpt>
      <trkpt lat="43.840939" lon="4.848691">
        <ele>38.251196</ele>
        <time>2022-07-27T08:20:58.422Z</time>
      </trkpt>
      <trkpt lat="43.840956" lon="4.848801">
        <ele>38.379995</ele>
        <time>2022-07-27T08:21:00.856Z</time>
      </trkpt>
      <trkpt lat="43.840977" lon="4.848883">
        <ele>38.479620</ele>
        <time>2022-07-27T08:21:02.672Z</time>
      </trkpt>
      <trkpt lat="43.841599" lon="4.852452">
        <ele>43.032542</ele>
        <time>2022-07-27T08:22:17.720Z</time>
      </trkpt>
      <trkpt lat="43.842312" lon="4.857511">
        <ele>51.555028</ele>
        <time>2022-07-27T08:24:17.232Z</time>
      </trkpt>
      <trkpt lat="43.842415" lon="4.858099">
        <ele>52.521701</ele>
        <time>2022-07-27T08:24:30.138Z</time>
      </trkpt>
      <trkpt lat="43.842621" lon="4.858895">
        <ele>53.872194</ele>
        <time>2022-07-27T08:24:47.628Z</time>
      </trkpt>
      <trkpt lat="43.842662" lon="4.859054">
        <ele>54.141804</ele>
        <time>2022-07-27T08:24:50.954Z</time>
      </trkpt>
      <trkpt lat="43.842872" lon="4.859913">
        <ele>55.590000</ele>
        <time>2022-07-27T08:25:09.849Z</time>
      </trkpt>
      <trkpt lat="43.842911" lon="4.860281">
        <ele>56.183886</ele>
        <time>2022-07-27T08:25:19.102Z</time>
      </trkpt>
      <trkpt lat="43.842895" lon="4.861038">
        <ele>57.903407</ele>
        <time>2022-07-27T08:25:38.555Z</time>
      </trkpt>
      <trkpt lat="43.842793" lon="4.861451">
        <ele>59.259599</ele>
        <time>2022-07-27T08:25:50.452Z</time>
      </trkpt>
      <trkpt lat="43.842458" lon="4.862122">
        <ele>61.794878</ele>
        <time>2022-07-27T08:26:14.306Z</time>
      </trkpt>
      <trkpt lat="43.842404" lon="4.862218">
        <ele>62.173098</ele>
        <time>2022-07-27T08:26:17.742Z</time>
      </trkpt>
      <trkpt lat="43.842314" lon="4.862381">
        <ele>62.810840</ele>
        <time>2022-07-27T08:26:23.948Z</time>
      </trkpt>
      <trkpt lat="43.841550" lon="4.863660">
        <ele>67.782426</ele>
        <time>2022-07-27T08:27:14.497Z</time>
      </trkpt>
      <trkpt lat="43.841290" lon="4.864220">
        <ele>69.736225</ele>
        <time>2022-07-27T08:27:32.615Z</time>
      </trkpt>
      <trkpt lat="43.840470" lon="4.866800">
        <ele>76.250320</ele>
        <time>2022-07-27T08:28:41.537Z</time>
      </trkpt>
      <trkpt lat="43.840300" lon="4.867580">
        <ele>77.943788</ele>
        <time>2022-07-27T08:29:01.100Z</time>
      </trkpt>
      <trkpt lat="43.840365" lon="4.868910">
        <ele>80.701564</ele>
        <time>2022-07-27T08:29:33.578Z</time>
      </trkpt>
      <trkpt lat="43.840290" lon="4.870010">
        <ele>83.053903</ele>
        <time>2022-07-27T08:30:00.315Z</time>
      </trkpt>
      <trkpt lat="43.840320" lon="4.870510">
        <ele>84.189636</ele>
        <time>2022-07-27T08:30:12.925Z</time>
      </trkpt>
      <trkpt lat="43.840740" lon="4.871850">
        <ele>87.496938</ele>
        <time>2022-07-27T08:30:50.533Z</time>
      </trkpt>
      <trkpt lat="43.840825" lon="4.872472">
        <ele>88.583281</ele>
        <time>2022-07-27T08:31:06.460Z</time>
      </trkpt>
      <trkpt lat="43.840980" lon="4.873948">
        <ele>90.793931</ele>
        <time>2022-07-27T08:31:41.086Z</time>
      </trkpt>
      <trkpt lat="43.841372" lon="4.878096">
        <ele>91.508487</ele>
        <time>2022-07-27T08:32:50.534Z</time>
      </trkpt>
      <trkpt lat="43.841377" lon="4.878177">
        <ele>91.463523</ele>
        <time>2022-07-27T08:32:51.650Z</time>
      </trkpt>
      <trkpt lat="43.841571" lon="4.880042">
        <ele>89.967105</ele>
        <time>2022-07-27T08:33:16.471Z</time>
      </trkpt>
      <trkpt lat="43.841780" lon="4.881140">
        <ele>88.483561</ele>
        <time>2022-07-27T08:33:31.068Z</time>
      </trkpt>
      <trkpt lat="43.841729" lon="4.881670">
        <ele>87.785032</ele>
        <time>2022-07-27T08:33:37.901Z</time>
      </trkpt>
      <trkpt lat="43.841594" lon="4.882141">
        <ele>87.074797</ele>
        <time>2022-07-27T08:33:44.265Z</time>
      </trkpt>
      <trkpt lat="43.841341" lon="4.882391">
        <ele>86.439689</ele>
        <time>2022-07-27T08:33:49.627Z</time>
      </trkpt>
      <trkpt lat="43.840860" lon="4.882570">
        <ele>85.421602</ele>
        <time>2022-07-27T08:33:58.387Z</time>
      </trkpt>
      <trkpt lat="43.840770" lon="4.882660">
        <ele>85.194757</ele>
        <time>2022-07-27T08:34:00.366Z</time>
      </trkpt>
      <trkpt lat="43.840580" lon="4.883070">
        <ele>84.476209</ele>
        <time>2022-07-27T08:34:06.641Z</time>
      </trkpt>
      <trkpt lat="43.840361" lon="4.883926">
        <ele>83.018090</ele>
        <time>2022-07-27T08:34:18.036Z</time>
      </trkpt>
      <trkpt lat="43.840199" lon="4.884250">
        <ele>82.335593</ele>
        <time>2022-07-27T08:34:22.811Z</time>
      </trkpt>
      <trkpt lat="43.840049" lon="4.884409">
        <ele>81.882397</ele>
        <time>2022-07-27T08:34:25.979Z</time>
      </trkpt>
      <trkpt lat="43.839480" lon="4.884650">
        <ele>80.454385</ele>
        <time>2022-07-27T08:34:36.029Z</time>
      </trkpt>
      <trkpt lat="43.839360" lon="4.884900">
        <ele>79.934506</ele>
        <time>2022-07-27T08:34:39.670Z</time>
      </trkpt>
      <trkpt lat="43.839360" lon="4.885140">
        <ele>79.519015</ele>
        <time>2022-07-27T08:34:42.678Z</time>
      </trkpt>
      <trkpt lat="43.839553" lon="4.885643">
        <ele>78.635031</ele>
        <time>2022-07-27T08:34:49.875Z</time>
      </trkpt>
      <trkpt lat="43.840161" lon="4.886710">
        <ele>76.529276</ele>
        <time>2022-07-27T08:35:06.985Z</time>
      </trkpt>
      <trkpt lat="43.840409" lon="4.886978">
        <ele>75.854186</ele>
        <time>2022-07-27T08:35:12.494Z</time>
      </trkpt>
      <trkpt lat="43.840844" lon="4.887203">
        <ele>74.698703</ele>
        <time>2022-07-27T08:35:20.585Z</time>
      </trkpt>
      <trkpt lat="43.841558" lon="4.887321">
        <ele>72.842470</ele>
        <time>2022-07-27T08:35:32.926Z</time>
      </trkpt>
      <trkpt lat="43.841812" lon="4.887443">
        <ele>72.148539</ele>
        <time>2022-07-27T08:35:37.474Z</time>
      </trkpt>
      <trkpt lat="43.842192" lon="4.887743">
        <ele>71.019690</ele>
        <time>2022-07-27T08:35:44.659Z</time>
      </trkpt>
      <trkpt lat="43.842474" lon="4.888165">
        <ele>69.425920</ele>
        <time>2022-07-27T08:35:51.327Z</time>
      </trkpt>
      <trkpt lat="43.842737" lon="4.888685">
        <ele>67.654601</ele>
        <time>2022-07-27T08:35:58.588Z</time>
      </trkpt>
      <trkpt lat="43.843047" lon="4.889474">
        <ele>65.148773</ele>
        <time>2022-07-27T08:36:08.742Z</time>
      </trkpt>
      <trkpt lat="43.843384" lon="4.891305">
        <ele>59.085039</ele>
        <time>2022-07-27T08:36:29.658Z</time>
      </trkpt>
      <trkpt lat="43.843415" lon="4.891517">
        <ele>58.366801</ele>
        <time>2022-07-27T08:36:32.017Z</time>
      </trkpt>
      <trkpt lat="43.843494" lon="4.892459">
        <ele>55.295783</ele>
        <time>2022-07-27T08:36:42.382Z</time>
      </trkpt>
      <trkpt lat="43.843354" lon="4.894985">
        <ele>48.445687</ele>
        <time>2022-07-27T08:37:11.067Z</time>
      </trkpt>
      <trkpt lat="43.843308" lon="4.895894">
        <ele>47.462239</ele>
        <time>2022-07-27T08:37:22.538Z</time>
      </trkpt>
      <trkpt lat="43.843297" lon="4.896090">
        <ele>47.250067</ele>
        <time>2022-07-27T08:37:25.141Z</time>
      </trkpt>
      <trkpt lat="43.843208" lon="4.897689">
        <ele>46.019198</ele>
        <time>2022-07-27T08:37:49.612Z</time>
      </trkpt>
      <trkpt lat="43.843180" lon="4.898186">
        <ele>46.072668</ele>
        <time>2022-07-27T08:37:58.053Z</time>
      </trkpt>
      <trkpt lat="43.843173" lon="4.898322">
        <ele>46.087293</ele>
        <time>2022-07-27T08:38:00.411Z</time>
      </trkpt>
      <trkpt lat="43.843114" lon="4.899370">
        <ele>46.200043</ele>
        <time>2022-07-27T08:38:17.931Z</time>
      </trkpt>
      <trkpt lat="43.843111" lon="4.899433">
        <ele>46.206815</ele>
        <time>2022-07-27T08:38:18.999Z</time>
      </trkpt>
      <trkpt lat="43.843105" lon="4.899530">
        <ele>46.217258</ele>
        <time>2022-07-27T08:38:20.650Z</time>
      </trkpt>
      <trkpt lat="43.842999" lon="4.901363">
        <ele>46.708342</ele>
        <time>2022-07-27T08:38:51.740Z</time>
      </trkpt>
      <trkpt lat="43.842713" lon="4.906265">
        <ele>48.481142</ele>
        <time>2022-07-27T08:40:18.714Z</time>
      </trkpt>
      <trkpt lat="43.842706" lon="4.906391">
        <ele>48.522802</ele>
        <time>2022-07-27T08:40:20.955Z</time>
      </trkpt>
      <trkpt lat="43.842326" lon="4.907282">
        <ele>48.792942</ele>
        <time>2022-07-27T08:40:38.783Z</time>
      </trkpt>
      <trkpt lat="43.841727" lon="4.908480">
        <ele>48.782436</ele>
        <time>2022-07-27T08:41:02.486Z</time>
      </trkpt>
      <trkpt lat="43.841680" lon="4.908760">
        <ele>48.780364</ele>
        <time>2022-07-27T08:41:06.884Z</time>
      </trkpt>
      <trkpt lat="43.841688" lon="4.909058">
        <ele>48.778215</ele>
        <time>2022-07-27T08:41:11.374Z</time>
      </trkpt>
      <trkpt lat="43.841861" lon="4.909879">
        <ele>48.592764</ele>
        <time>2022-07-27T08:41:24.033Z</time>
      </trkpt>
      <trkpt lat="43.842208" lon="4.911511">
        <ele>48.085301</ele>
        <time>2022-07-27T08:41:49.389Z</time>
      </trkpt>
      <trkpt lat="43.842549" lon="4.913124">
        <ele>48.080782</ele>
        <time>2022-07-27T08:42:15.600Z</time>
      </trkpt>
      <trkpt lat="43.842543" lon="4.913615">
        <ele>48.096474</ele>
        <time>2022-07-27T08:42:23.866Z</time>
      </trkpt>
      <trkpt lat="43.842463" lon="4.913906">
        <ele>48.106425</ele>
        <time>2022-07-27T08:42:29.244Z</time>
      </trkpt>
      <trkpt lat="43.842312" lon="4.914227">
        <ele>48.188372</ele>
        <time>2022-07-27T08:42:35.988Z</time>
      </trkpt>
      <trkpt lat="43.841961" lon="4.914717">
        <ele>48.455455</ele>
        <time>2022-07-27T08:42:48.128Z</time>
      </trkpt>
      <trkpt lat="43.841383" lon="4.915201">
        <ele>48.817522</ele>
        <time>2022-07-27T08:43:04.806Z</time>
      </trkpt>
      <trkpt lat="43.841360" lon="4.915216">
        <ele>48.831151</ele>
        <time>2022-07-27T08:43:05.433Z</time>
      </trkpt>
      <trkpt lat="43.841116" lon="4.915436">
        <ele>48.987218</ele>
        <time>2022-07-27T08:43:12.617Z</time>
      </trkpt>
      <trkpt lat="43.840720" lon="4.916348">
        <ele>49.376828</ele>
        <time>2022-07-27T08:43:31.140Z</time>
      </trkpt>
      <trkpt lat="43.840591" lon="4.916658">
        <ele>49.505752</ele>
        <time>2022-07-27T08:43:37.499Z</time>
      </trkpt>
      <trkpt lat="43.840506" lon="4.916877">
        <ele>49.595339</ele>
        <time>2022-07-27T08:43:41.915Z</time>
      </trkpt>
      <trkpt lat="43.840242" lon="4.917531">
        <ele>49.865316</ele>
        <time>2022-07-27T08:43:55.241Z</time>
      </trkpt>
      <trkpt lat="43.840099" lon="4.917603">
        <ele>49.941300</ele>
        <time>2022-07-27T08:43:58.834Z</time>
      </trkpt>
      <trkpt lat="43.840076" lon="4.917602">
        <ele>49.952792</ele>
        <time>2022-07-27T08:43:59.395Z</time>
      </trkpt>
      <trkpt lat="43.840016" lon="4.917706">
        <ele>49.966552</ele>
        <time>2022-07-27T08:44:01.678Z</time>
      </trkpt>
      <trkpt lat="43.840020" lon="4.917733">
        <ele>49.963223</ele>
        <time>2022-07-27T08:44:02.162Z</time>
      </trkpt>
      <trkpt lat="43.840030" lon="4.917757">
        <ele>49.959874</ele>
        <time>2022-07-27T08:44:02.650Z</time>
      </trkpt>
      <trkpt lat="43.840077" lon="4.917987">
        <ele>49.930995</ele>
        <time>2022-07-27T08:44:06.583Z</time>
      </trkpt>
      <trkpt lat="43.840199" lon="4.918783">
        <ele>49.832685</ele>
        <time>2022-07-27T08:44:19.357Z</time>
      </trkpt>
      <trkpt lat="43.840159" lon="4.919385">
        <ele>49.759652</ele>
        <time>2022-07-27T08:44:28.282Z</time>
      </trkpt>
      <trkpt lat="43.840084" lon="4.919695">
        <ele>49.720151</ele>
        <time>2022-07-27T08:44:33.222Z</time>
      </trkpt>
      <trkpt lat="43.840041" lon="4.919692">
        <ele>49.712940</ele>
        <time>2022-07-27T08:44:34.191Z</time>
      </trkpt>
      <trkpt lat="43.840029" lon="4.919780">
        <ele>49.702120</ele>
        <time>2022-07-27T08:44:35.513Z</time>
      </trkpt>
      <trkpt lat="43.839831" lon="4.919977">
        <ele>49.653907</ele>
        <time>2022-07-27T08:44:40.788Z</time>
      </trkpt>
      <trkpt lat="43.839747" lon="4.920375">
        <ele>49.574382</ele>
        <time>2022-07-27T08:44:47.143Z</time>
      </trkpt>
      <trkpt lat="43.839603" lon="4.920768">
        <ele>49.489849</ele>
        <time>2022-07-27T08:44:53.751Z</time>
      </trkpt>
      <trkpt lat="43.839374" lon="4.920925">
        <ele>49.421926</ele>
        <time>2022-07-27T08:44:59.032Z</time>
      </trkpt>
      <trkpt lat="43.839366" lon="4.920931">
        <ele>49.419508</ele>
        <time>2022-07-27T08:44:59.184Z</time>
      </trkpt>
      <trkpt lat="43.839053" lon="4.921065">
        <ele>49.332412</ele>
        <time>2022-07-27T08:45:06.008Z</time>
      </trkpt>
      <trkpt lat="43.838740" lon="4.921233">
        <ele>49.243174</ele>
        <time>2022-07-27T08:45:13.131Z</time>
      </trkpt>
      <trkpt lat="43.838444" lon="4.921351">
        <ele>49.237470</ele>
        <time>2022-07-27T08:45:20.166Z</time>
      </trkpt>
      <trkpt lat="43.838415" lon="4.921357">
        <ele>49.246946</ele>
        <time>2022-07-27T08:45:21.003Z</time>
      </trkpt>
      <trkpt lat="43.838444" lon="4.921351">
        <ele>49.256421</ele>
        <time>2022-07-27T08:45:21.620Z</time>
      </trkpt>
      <trkpt lat="43.838740" lon="4.921233">
        <ele>49.355951</ele>
        <time>2022-07-27T08:45:29.170Z</time>
      </trkpt>
      <trkpt lat="43.838184" lon="4.922479">
        <ele>49.697467</ele>
        <time>2022-07-27T08:45:54.691Z</time>
      </trkpt>
      <trkpt lat="43.837925" lon="4.923287">
        <ele>49.939446</ele>
        <time>2022-07-27T08:46:09.932Z</time>
      </trkpt>
      <trkpt lat="43.837811" lon="4.923992">
        <ele>50.155566</ele>
        <time>2022-07-27T08:46:22.549Z</time>
      </trkpt>
      <trkpt lat="43.837726" lon="4.925834">
        <ele>50.620671</ele>
        <time>2022-07-27T08:46:54.032Z</time>
      </trkpt>
      <trkpt lat="43.837605" lon="4.926489">
        <ele>50.727721</ele>
        <time>2022-07-27T08:47:05.257Z</time>
      </trkpt>
      <trkpt lat="43.837437" lon="4.927428">
        <ele>50.880893</ele>
        <time>2022-07-27T08:47:21.146Z</time>
      </trkpt>
      <trkpt lat="43.837189" lon="4.928381">
        <ele>51.022115</ele>
        <time>2022-07-27T08:47:37.767Z</time>
      </trkpt>
      <trkpt lat="43.837124" lon="4.928883">
        <ele>51.090341</ele>
        <time>2022-07-27T08:47:46.103Z</time>
      </trkpt>
      <trkpt lat="43.837128" lon="4.929418">
        <ele>51.161912</ele>
        <time>2022-07-27T08:47:55.063Z</time>
      </trkpt>
      <trkpt lat="43.837070" lon="4.929751">
        <ele>51.207738</ele>
        <time>2022-07-27T08:48:00.917Z</time>
      </trkpt>
      <trkpt lat="43.836727" lon="4.930602">
        <ele>51.352133</ele>
        <time>2022-07-27T08:48:17.417Z</time>
      </trkpt>
      <trkpt lat="43.836441" lon="4.931567">
        <ele>51.514148</ele>
        <time>2022-07-27T08:48:34.763Z</time>
      </trkpt>
      <trkpt lat="43.836349" lon="4.932188">
        <ele>51.612598</ele>
        <time>2022-07-27T08:48:45.139Z</time>
      </trkpt>
      <trkpt lat="43.836417" lon="4.933256">
        <ele>51.771574</ele>
        <time>2022-07-27T08:49:03.097Z</time>
      </trkpt>
      <trkpt lat="43.836368" lon="4.934173">
        <ele>51.906732</ele>
        <time>2022-07-27T08:49:18.354Z</time>
      </trkpt>
      <trkpt lat="43.836391" lon="4.934806">
        <ele>51.999895</ele>
        <time>2022-07-27T08:49:28.850Z</time>
      </trkpt>
      <trkpt lat="43.836220" lon="4.936152">
        <ele>52.221607</ele>
        <time>2022-07-27T08:49:51.445Z</time>
      </trkpt>
      <trkpt lat="43.836287" lon="4.937629">
        <ele>52.506209</ele>
        <time>2022-07-27T08:50:16.402Z</time>
      </trkpt>
      <trkpt lat="43.836267" lon="4.937983">
        <ele>52.612906</ele>
        <time>2022-07-27T08:50:22.246Z</time>
      </trkpt>
      <trkpt lat="43.836274" lon="4.938643">
        <ele>52.811247</ele>
        <time>2022-07-27T08:50:33.319Z</time>
      </trkpt>
      <trkpt lat="43.836320" lon="4.939728">
        <ele>53.137835</ele>
        <time>2022-07-27T08:50:52.655Z</time>
      </trkpt>
      <trkpt lat="43.836358" lon="4.940482">
        <ele>53.605055</ele>
        <time>2022-07-27T08:51:06.382Z</time>
      </trkpt>
      <trkpt lat="43.836392" lon="4.941202">
        <ele>54.075493</ele>
        <time>2022-07-27T08:51:19.583Z</time>
      </trkpt>
      <trkpt lat="43.836512" lon="4.942781">
        <ele>55.101088</ele>
        <time>2022-07-27T08:51:50.181Z</time>
      </trkpt>
      <trkpt lat="43.836553" lon="4.942894">
        <ele>55.181125</ele>
        <time>2022-07-27T08:51:52.694Z</time>
      </trkpt>
      <trkpt lat="43.836335" lon="4.943156">
        <ele>55.434214</ele>
        <time>2022-07-27T08:52:00.205Z</time>
      </trkpt>
      <trkpt lat="43.835735" lon="4.943882">
        <ele>56.132825</ele>
        <time>2022-07-27T08:52:20.616Z</time>
      </trkpt>
      <trkpt lat="43.835449" lon="4.944230">
        <ele>56.391099</ele>
        <time>2022-07-27T08:52:30.170Z</time>
      </trkpt>
      <trkpt lat="43.835347" lon="4.944338">
        <ele>56.421411</ele>
        <time>2022-07-27T08:52:33.313Z</time>
      </trkpt>
      <trkpt lat="43.832841" lon="4.947319">
        <ele>57.003193</ele>
        <time>2022-07-27T08:53:48.391Z</time>
      </trkpt>
      <trkpt lat="43.831724" lon="4.948685">
        <ele>57.120490</ele>
        <time>2022-07-27T08:54:22.084Z</time>
      </trkpt>
      <trkpt lat="43.831262" lon="4.949698">
        <ele>57.148665</ele>
        <time>2022-07-27T08:54:44.442Z</time>
      </trkpt>
      <trkpt lat="43.830800" lon="4.950711">
        <ele>57.149540</ele>
        <time>2022-07-27T08:55:06.800Z</time>
      </trkpt>
      <trkpt lat="43.830338" lon="4.951724">
        <ele>57.189091</ele>
        <time>2022-07-27T08:55:29.158Z</time>
      </trkpt>
      <trkpt lat="43.829876" lon="4.952738">
        <ele>57.266551</ele>
        <time>2022-07-27T08:55:51.516Z</time>
      </trkpt>
      <trkpt lat="43.829414" lon="4.953751">
        <ele>57.384324</ele>
        <time>2022-07-27T08:56:13.875Z</time>
      </trkpt>
      <trkpt lat="43.828952" lon="4.954764">
        <ele>57.556560</ele>
        <time>2022-07-27T08:56:36.233Z</time>
      </trkpt>
      <trkpt lat="43.828490" lon="4.955777">
        <ele>57.823193</ele>
        <time>2022-07-27T08:56:58.592Z</time>
      </trkpt>
      <trkpt lat="43.828028" lon="4.956790">
        <ele>58.268796</ele>
        <time>2022-07-27T08:57:20.951Z</time>
      </trkpt>
      <trkpt lat="43.827566" lon="4.957803">
        <ele>58.739085</ele>
        <time>2022-07-27T08:57:43.311Z</time>
      </trkpt>
      <trkpt lat="43.827104" lon="4.958817">
        <ele>59.278235</ele>
        <time>2022-07-27T08:58:05.670Z</time>
      </trkpt>
      <trkpt lat="43.826643" lon="4.959830">
        <ele>59.753641</ele>
        <time>2022-07-27T08:58:28.030Z</time>
      </trkpt>
      <trkpt lat="43.826181" lon="4.960843">
        <ele>59.951178</ele>
        <time>2022-07-27T08:58:50.389Z</time>
      </trkpt>
      <trkpt lat="43.825719" lon="4.961856">
        <ele>60.152665</ele>
        <time>2022-07-27T08:59:12.749Z</time>
      </trkpt>
      <trkpt lat="43.825257" lon="4.962869">
        <ele>60.388020</ele>
        <time>2022-07-27T08:59:35.108Z</time>
      </trkpt>
      <trkpt lat="43.824795" lon="4.963882">
        <ele>60.627028</ele>
        <time>2022-07-27T08:59:57.468Z</time>
      </trkpt>
      <trkpt lat="43.824333" lon="4.964896">
        <ele>61.013909</ele>
        <time>2022-07-27T09:00:19.828Z</time>
      </trkpt>
      <trkpt lat="43.823871" lon="4.965909">
        <ele>61.400520</ele>
        <time>2022-07-27T09:00:42.188Z</time>
      </trkpt>
      <trkpt lat="43.823409" lon="4.966922">
        <ele>61.717850</ele>
        <time>2022-07-27T09:01:04.548Z</time>
      </trkpt>
      <trkpt lat="43.822947" lon="4.967935">
        <ele>62.031116</ele>
        <time>2022-07-27T09:01:26.909Z</time>
      </trkpt>
      <trkpt lat="43.822397" lon="4.968912">
        <ele>62.227492</ele>
        <time>2022-07-27T09:01:50.048Z</time>
      </trkpt>
      <trkpt lat="43.821846" lon="4.969890">
        <ele>62.404845</ele>
        <time>2022-07-27T09:02:13.188Z</time>
      </trkpt>
      <trkpt lat="43.821295" lon="4.970867">
        <ele>62.790210</ele>
        <time>2022-07-27T09:02:36.327Z</time>
      </trkpt>
      <trkpt lat="43.820744" lon="4.971845">
        <ele>63.210141</ele>
        <time>2022-07-27T09:02:59.467Z</time>
      </trkpt>
      <trkpt lat="43.820193" lon="4.972822">
        <ele>63.782132</ele>
        <time>2022-07-27T09:03:22.608Z</time>
      </trkpt>
      <trkpt lat="43.819643" lon="4.973800">
        <ele>64.381221</ele>
        <time>2022-07-27T09:03:45.748Z</time>
      </trkpt>
      <trkpt lat="43.819092" lon="4.974777">
        <ele>64.688506</ele>
        <time>2022-07-27T09:04:08.889Z</time>
      </trkpt>
      <trkpt lat="43.818541" lon="4.975755">
        <ele>64.939739</ele>
        <time>2022-07-27T09:04:32.029Z</time>
      </trkpt>
      <trkpt lat="43.817990" lon="4.976732">
        <ele>65.003206</ele>
        <time>2022-07-27T09:04:55.170Z</time>
      </trkpt>
      <trkpt lat="43.817439" lon="4.977709">
        <ele>65.027934</ele>
        <time>2022-07-27T09:05:18.310Z</time>
      </trkpt>
      <trkpt lat="43.816889" lon="4.978687">
        <ele>64.963297</ele>
        <time>2022-07-27T09:05:41.451Z</time>
      </trkpt>
      <trkpt lat="43.816338" lon="4.979664">
        <ele>64.878851</ele>
        <time>2022-07-27T09:06:04.592Z</time>
      </trkpt>
      <trkpt lat="43.815787" lon="4.980642">
        <ele>64.835794</ele>
        <time>2022-07-27T09:06:27.733Z</time>
      </trkpt>
      <trkpt lat="43.815236" lon="4.981619">
        <ele>64.802578</ele>
        <time>2022-07-27T09:06:50.874Z</time>
      </trkpt>
      <trkpt lat="43.814685" lon="4.982597">
        <ele>65.093468</ele>
        <time>2022-07-27T09:07:14.015Z</time>
      </trkpt>
      <trkpt lat="43.814135" lon="4.983574">
        <ele>65.465463</ele>
        <time>2022-07-27T09:07:37.157Z</time>
      </trkpt>
      <trkpt lat="43.813584" lon="4.984552">
        <ele>65.661786</ele>
        <time>2022-07-27T09:08:00.299Z</time>
      </trkpt>
      <trkpt lat="43.813033" lon="4.985529">
        <ele>65.810808</ele>
        <time>2022-07-27T09:08:23.440Z</time>
      </trkpt>
      <trkpt lat="43.812482" lon="4.986506">
        <ele>66.195376</ele>
        <time>2022-07-27T09:08:46.582Z</time>
      </trkpt>
      <trkpt lat="43.811931" lon="4.987484">
        <ele>66.647056</ele>
        <time>2022-07-27T09:09:09.724Z</time>
      </trkpt>
      <trkpt lat="43.811381" lon="4.988461">
        <ele>67.332343</ele>
        <time>2022-07-27T09:09:32.867Z</time>
      </trkpt>
      <trkpt lat="43.810830" lon="4.989439">
        <ele>68.088848</ele>
        <time>2022-07-27T09:09:56.010Z</time>
      </trkpt>
      <trkpt lat="43.810279" lon="4.990416">
        <ele>68.524569</ele>
        <time>2022-07-27T09:10:19.153Z</time>
      </trkpt>
      <trkpt lat="43.809728" lon="4.991394">
        <ele>68.858991</ele>
        <time>2022-07-27T09:10:42.295Z</time>
      </trkpt>
      <trkpt lat="43.809177" lon="4.992371">
        <ele>69.226020</ele>
        <time>2022-07-27T09:11:05.438Z</time>
      </trkpt>
      <trkpt lat="43.808627" lon="4.993349">
        <ele>69.603976</ele>
        <time>2022-07-27T09:11:28.581Z</time>
      </trkpt>
      <trkpt lat="43.808076" lon="4.994326">
        <ele>69.966378</ele>
        <time>2022-07-27T09:11:51.724Z</time>
      </trkpt>
      <trkpt lat="43.807525" lon="4.995303">
        <ele>70.323303</ele>
        <time>2022-07-27T09:12:14.867Z</time>
      </trkpt>
      <trkpt lat="43.807463" lon="4.995410">
        <ele>70.362803</ele>
        <time>2022-07-27T09:12:17.135Z</time>
      </trkpt>
      <trkpt lat="43.807828" lon="4.996085">
        <ele>70.545965</ele>
        <time>2022-07-27T09:12:31.446Z</time>
      </trkpt>
      <trkpt lat="43.807978" lon="4.996351">
        <ele>70.611955</ele>
        <time>2022-07-27T09:12:37.252Z</time>
      </trkpt>
      <trkpt lat="43.808097" lon="4.996558">
        <ele>70.663689</ele>
        <time>2022-07-27T09:12:41.708Z</time>
      </trkpt>
      <trkpt lat="43.808338" lon="4.996986">
        <ele>70.769809</ele>
        <time>2022-07-27T09:12:50.823Z</time>
      </trkpt>
      <trkpt lat="43.808474" lon="4.997221">
        <ele>70.828694</ele>
        <time>2022-07-27T09:12:55.904Z</time>
      </trkpt>
      <trkpt lat="43.808586" lon="4.997414">
        <ele>70.877106</ele>
        <time>2022-07-27T09:13:00.058Z</time>
      </trkpt>
      <trkpt lat="43.808660" lon="4.997543">
        <ele>70.909022</ele>
        <time>2022-07-27T09:13:02.812Z</time>
      </trkpt>
      <trkpt lat="43.808911" lon="4.997977">
        <ele>71.003946</ele>
        <time>2022-07-27T09:13:12.007Z</time>
      </trkpt>
      <trkpt lat="43.808997" lon="4.998127">
        <ele>71.036643</ele>
        <time>2022-07-27T09:13:15.181Z</time>
      </trkpt>
      <trkpt lat="43.809061" lon="4.998236">
        <ele>71.060626</ele>
        <time>2022-07-27T09:13:17.486Z</time>
      </trkpt>
      <trkpt lat="43.809206" lon="4.998485">
        <ele>71.115234</ele>
        <time>2022-07-27T09:13:22.813Z</time>
      </trkpt>
      <trkpt lat="43.809342" lon="4.998720">
        <ele>71.166646</ele>
        <time>2022-07-27T09:13:27.842Z</time>
      </trkpt>
      <trkpt lat="43.809370" lon="4.998768">
        <ele>71.177180</ele>
        <time>2022-07-27T09:13:28.886Z</time>
      </trkpt>
      <trkpt lat="43.809661" lon="4.999281">
        <ele>71.288545</ele>
        <time>2022-07-27T09:13:39.742Z</time>
      </trkpt>
      <trkpt lat="43.809761" lon="4.999458">
        <ele>71.326910</ele>
        <time>2022-07-27T09:13:43.402Z</time>
      </trkpt>
      <trkpt lat="43.810066" lon="4.999987">
        <ele>71.492717</ele>
        <time>2022-07-27T09:13:54.853Z</time>
      </trkpt>
      <trkpt lat="43.810151" lon="5.000141">
        <ele>71.540905</ele>
        <time>2022-07-27T09:13:58.259Z</time>
      </trkpt>
      <trkpt lat="43.810371" lon="5.000536">
        <ele>71.664920</ele>
        <time>2022-07-27T09:14:07.136Z</time>
      </trkpt>
      <trkpt lat="43.810649" lon="5.001033">
        <ele>71.821210</ele>
        <time>2022-07-27T09:14:17.986Z</time>
      </trkpt>
      <trkpt lat="43.811001" lon="5.001673">
        <ele>71.983855</ele>
        <time>2022-07-27T09:14:31.489Z</time>
      </trkpt>
      <trkpt lat="43.811194" lon="5.002018">
        <ele>72.033922</ele>
        <time>2022-07-27T09:14:38.674Z</time>
      </trkpt>
      <trkpt lat="43.811402" lon="5.002396">
        <ele>72.088443</ele>
        <time>2022-07-27T09:14:46.429Z</time>
      </trkpt>
      <trkpt lat="43.811808" lon="5.003161">
        <ele>72.197358</ele>
        <time>2022-07-27T09:15:02.216Z</time>
      </trkpt>
      <trkpt lat="43.811837" lon="5.003248">
        <ele>72.208349</ele>
        <time>2022-07-27T09:15:03.841Z</time>
      </trkpt>
      <trkpt lat="43.812510" lon="5.004535">
        <ele>72.406993</ele>
        <time>2022-07-27T09:15:29.245Z</time>
      </trkpt>
      <trkpt lat="43.812635" lon="5.004666">
        <ele>72.434565</ele>
        <time>2022-07-27T09:15:32.933Z</time>
      </trkpt>
      <trkpt lat="43.812646" lon="5.004683">
        <ele>72.437464</ele>
        <time>2022-07-27T09:15:33.309Z</time>
      </trkpt>
      <trkpt lat="43.812942" lon="5.005205">
        <ele>72.521748</ele>
        <time>2022-07-27T09:15:44.711Z</time>
      </trkpt>
      <trkpt lat="43.813629" lon="5.006461">
        <ele>72.778438</ele>
        <time>2022-07-27T09:16:11.696Z</time>
      </trkpt>
      <trkpt lat="43.814167" lon="5.007437">
        <ele>72.961454</ele>
        <time>2022-07-27T09:16:32.210Z</time>
      </trkpt>
      <trkpt lat="43.814363" lon="5.007887">
        <ele>72.812351</ele>
        <time>2022-07-27T09:16:40.315Z</time>
      </trkpt>
      <trkpt lat="43.814492" lon="5.008157">
        <ele>72.720493</ele>
        <time>2022-07-27T09:16:45.237Z</time>
      </trkpt>
      <trkpt lat="43.815443" lon="5.009871">
        <ele>72.175120</ele>
        <time>2022-07-27T09:17:16.810Z</time>
      </trkpt>
      <trkpt lat="43.817255" lon="5.013039">
        <ele>71.766392</ele>
        <time>2022-07-27T09:18:20.464Z</time>
      </trkpt>
      <trkpt lat="43.817476" lon="5.013356">
        <ele>71.750547</ele>
        <time>2022-07-27T09:18:27.804Z</time>
      </trkpt>
      <trkpt lat="43.817636" lon="5.013685">
        <ele>71.750266</ele>
        <time>2022-07-27T09:18:34.225Z</time>
      </trkpt>
      <trkpt lat="43.817677" lon="5.013804">
        <ele>71.750173</ele>
        <time>2022-07-27T09:18:36.362Z</time>
      </trkpt>
      <trkpt lat="43.817763" lon="5.013859">
        <ele>71.750080</ele>
        <time>2022-07-27T09:18:38.544Z</time>
      </trkpt>
      <trkpt lat="43.817929" lon="5.014226">
        <ele>71.749774</ele>
        <time>2022-07-27T09:18:45.542Z</time>
      </trkpt>
      <trkpt lat="43.818307" lon="5.015136">
        <ele>71.749031</ele>
        <time>2022-07-27T09:19:02.578Z</time>
      </trkpt>
      <trkpt lat="43.818347" lon="5.015503">
        <ele>71.729128</ele>
        <time>2022-07-27T09:19:08.400Z</time>
      </trkpt>
      <trkpt lat="43.818248" lon="5.015743">
        <ele>71.671583</ele>
        <time>2022-07-27T09:19:12.760Z</time>
      </trkpt>
      <trkpt lat="43.818355" lon="5.015980">
        <ele>71.613389</ele>
        <time>2022-07-27T09:19:17.009Z</time>
      </trkpt>
      <trkpt lat="43.818449" lon="5.016009">
        <ele>71.585607</ele>
        <time>2022-07-27T09:19:19.007Z</time>
      </trkpt>
      <trkpt lat="43.818775" lon="5.016394">
        <ele>71.462046</ele>
        <time>2022-07-27T09:19:27.720Z</time>
      </trkpt>
      <trkpt lat="43.819777" lon="5.018597">
        <ele>71.121953</ele>
        <time>2022-07-27T09:20:07.865Z</time>
      </trkpt>
      <trkpt lat="43.820716" lon="5.020278">
        <ele>71.003554</ele>
        <time>2022-07-27T09:20:42.330Z</time>
      </trkpt>
      <trkpt lat="43.821210" lon="5.021186">
        <ele>70.957334</ele>
        <time>2022-07-27T09:21:00.279Z</time>
      </trkpt>
      <trkpt lat="43.821262" lon="5.021405">
        <ele>70.947963</ele>
        <time>2022-07-27T09:21:03.726Z</time>
      </trkpt>
      <trkpt lat="43.821244" lon="5.021717">
        <ele>70.937011</ele>
        <time>2022-07-27T09:21:08.568Z</time>
      </trkpt>
      <trkpt lat="43.821357" lon="5.021914">
        <ele>70.928218</ele>
        <time>2022-07-27T09:21:12.532Z</time>
      </trkpt>
      <trkpt lat="43.821454" lon="5.021968">
        <ele>70.923156</ele>
        <time>2022-07-27T09:21:14.842Z</time>
      </trkpt>
      <trkpt lat="43.821670" lon="5.021903">
        <ele>70.912453</ele>
        <time>2022-07-27T09:21:19.515Z</time>
      </trkpt>
      <trkpt lat="43.821761" lon="5.021750">
        <ele>70.905525</ele>
        <time>2022-07-27T09:21:22.693Z</time>
      </trkpt>
      <trkpt lat="43.821782" lon="5.021517">
        <ele>70.897321</ele>
        <time>2022-07-27T09:21:26.356Z</time>
      </trkpt>
      <trkpt lat="43.821658" lon="5.021262">
        <ele>70.886578</ele>
        <time>2022-07-27T09:21:31.332Z</time>
      </trkpt>
      <trkpt lat="43.821452" lon="5.021209">
        <ele>70.876432</ele>
        <time>2022-07-27T09:21:36.042Z</time>
      </trkpt>
      <trkpt lat="43.821262" lon="5.021405">
        <ele>70.864962</ele>
        <time>2022-07-27T09:21:41.499Z</time>
      </trkpt>
      <trkpt lat="43.821244" lon="5.021717">
        <ele>70.909001</ele>
        <time>2022-07-27T09:21:46.600Z</time>
      </trkpt>
      <trkpt lat="43.821357" lon="5.021914">
        <ele>70.972146</ele>
        <time>2022-07-27T09:21:50.630Z</time>
      </trkpt>
      <trkpt lat="43.821454" lon="5.021968">
        <ele>71.008497</ele>
        <time>2022-07-27T09:21:52.953Z</time>
      </trkpt>
      <trkpt lat="43.821559" lon="5.022131">
        <ele>71.063323</ele>
        <time>2022-07-27T09:21:56.528Z</time>
      </trkpt>
      <trkpt lat="43.821746" lon="5.023047">
        <ele>71.302172</ele>
        <time>2022-07-27T09:22:13.071Z</time>
      </trkpt>
      <trkpt lat="43.822231" lon="5.025285">
        <ele>72.223329</ele>
        <time>2022-07-27T09:22:54.117Z</time>
      </trkpt>
      <trkpt lat="43.822340" lon="5.025753">
        <ele>72.449433</ele>
        <time>2022-07-27T09:23:03.124Z</time>
      </trkpt>
      <trkpt lat="43.822595" lon="5.027073">
        <ele>73.034616</ele>
        <time>2022-07-27T09:23:28.318Z</time>
      </trkpt>
      <trkpt lat="43.822907" lon="5.028483">
        <ele>73.647078</ele>
        <time>2022-07-27T09:23:54.692Z</time>
      </trkpt>
      <trkpt lat="43.823190" lon="5.028710">
        <ele>73.523822</ele>
        <time>2022-07-27T09:24:03.135Z</time>
      </trkpt>
      <trkpt lat="43.824065" lon="5.028565">
        <ele>73.088446</ele>
        <time>2022-07-27T09:24:25.923Z</time>
      </trkpt>
      <trkpt lat="43.824940" lon="5.028420">
        <ele>72.520936</ele>
        <time>2022-07-27T09:24:48.711Z</time>
      </trkpt>
      <trkpt lat="43.825640" lon="5.028860">
        <ele>71.742921</ele>
        <time>2022-07-27T09:25:08.588Z</time>
      </trkpt>
      <trkpt lat="43.825628" lon="5.028758">
        <ele>71.667449</ele>
        <time>2022-07-27T09:25:10.527Z</time>
      </trkpt>
      <trkpt lat="43.825798" lon="5.029114">
        <ele>71.355681</ele>
        <time>2022-07-27T09:25:20.725Z</time>
      </trkpt>
      <trkpt lat="43.827626" lon="5.032351">
        <ele>70.232757</ele>
        <time>2022-07-27T09:27:05.061Z</time>
      </trkpt>
      <trkpt lat="43.827730" lon="5.032522">
        <ele>70.282505</ele>
        <time>2022-07-27T09:27:11.360Z</time>
      </trkpt>
      <trkpt lat="43.827719" lon="5.032720">
        <ele>70.326677</ele>
        <time>2022-07-27T09:27:16.989Z</time>
      </trkpt>
      <trkpt lat="43.827686" lon="5.033286">
        <ele>70.452982</ele>
        <time>2022-07-27T09:27:33.325Z</time>
      </trkpt>
      <trkpt lat="43.827783" lon="5.033611">
        <ele>70.531213</ele>
        <time>2022-07-27T09:27:44.158Z</time>
      </trkpt>
      <trkpt lat="43.827723" lon="5.033688">
        <ele>70.578504</ele>
        <time>2022-07-27T09:27:47.616Z</time>
      </trkpt>
      <trkpt lat="43.827042" lon="5.034376">
        <ele>71.562620</ele>
        <time>2022-07-27T09:28:09.405Z</time>
      </trkpt>
      <trkpt lat="43.826361" lon="5.035063">
        <ele>72.546244</ele>
        <time>2022-07-27T09:28:31.193Z</time>
      </trkpt>
      <trkpt lat="43.825680" lon="5.035750">
        <ele>72.901635</ele>
        <time>2022-07-27T09:28:52.981Z</time>
      </trkpt>
      <trkpt lat="43.825235" lon="5.035977">
        <ele>73.060446</ele>
        <time>2022-07-27T09:29:04.097Z</time>
      </trkpt>
      <trkpt lat="43.824597" lon="5.036213">
        <ele>73.225901</ele>
        <time>2022-07-27T09:29:18.053Z</time>
      </trkpt>
      <trkpt lat="43.824173" lon="5.036360">
        <ele>73.102157</ele>
        <time>2022-07-27T09:29:27.168Z</time>
      </trkpt>
      <trkpt lat="43.823589" lon="5.036495">
        <ele>72.934527</ele>
        <time>2022-07-27T09:29:39.703Z</time>
      </trkpt>
      <trkpt lat="43.822453" lon="5.036442">
        <ele>72.776177</ele>
        <time>2022-07-27T09:30:03.758Z</time>
      </trkpt>
      <trkpt lat="43.821587" lon="5.036674">
        <ele>72.841767</ele>
        <time>2022-07-27T09:30:23.890Z</time>
      </trkpt>
      <trkpt lat="43.821129" lon="5.036934">
        <ele>72.887618</ele>
        <time>2022-07-27T09:30:35.670Z</time>
      </trkpt>
      <trkpt lat="43.821065" lon="5.036975">
        <ele>72.910793</ele>
        <time>2022-07-27T09:30:37.302Z</time>
      </trkpt>
      <trkpt lat="43.818947" lon="5.038520">
        <ele>73.704221</ele>
        <time>2022-07-27T09:31:33.864Z</time>
      </trkpt>
      <trkpt lat="43.818761" lon="5.038672">
        <ele>73.777259</ele>
        <time>2022-07-27T09:31:38.880Z</time>
      </trkpt>
      <trkpt lat="43.818361" lon="5.039101">
        <ele>73.948343</ele>
        <time>2022-07-27T09:31:50.682Z</time>
      </trkpt>
      <trkpt lat="43.818078" lon="5.039244">
        <ele>74.050234</ele>
        <time>2022-07-27T09:31:57.831Z</time>
      </trkpt>
      <trkpt lat="43.817924" lon="5.039410">
        <ele>74.118213</ele>
        <time>2022-07-27T09:32:02.468Z</time>
      </trkpt>
      <trkpt lat="43.817798" lon="5.039936">
        <ele>74.260087</ele>
        <time>2022-07-27T09:32:12.219Z</time>
      </trkpt>
      <trkpt lat="43.817567" lon="5.042135">
        <ele>74.648128</ele>
        <time>2022-07-27T09:32:50.315Z</time>
      </trkpt>
      <trkpt lat="43.817329" lon="5.043773">
        <ele>74.404974</ele>
        <time>2022-07-27T09:33:15.625Z</time>
      </trkpt>
      <trkpt lat="43.817217" lon="5.043922">
        <ele>74.373662</ele>
        <time>2022-07-27T09:33:18.772Z</time>
      </trkpt>
      <trkpt lat="43.817214" lon="5.044067">
        <ele>74.352553</ele>
        <time>2022-07-27T09:33:20.867Z</time>
      </trkpt>
      <trkpt lat="43.817268" lon="5.044181">
        <ele>74.354616</ele>
        <time>2022-07-27T09:33:22.803Z</time>
      </trkpt>
      <trkpt lat="43.817247" lon="5.045116">
        <ele>74.382386</ele>
        <time>2022-07-27T09:33:36.734Z</time>
      </trkpt>
      <trkpt lat="43.817286" lon="5.045729">
        <ele>74.400654</ele>
        <time>2022-07-27T09:33:47.043Z</time>
      </trkpt>
      <trkpt lat="43.817459" lon="5.046748">
        <ele>74.498429</ele>
        <time>2022-07-27T09:34:05.403Z</time>
      </trkpt>
      <trkpt lat="43.817638" lon="5.047705">
        <ele>74.814531</ele>
        <time>2022-07-27T09:34:23.093Z</time>
      </trkpt>
      <trkpt lat="43.817929" lon="5.049271">
        <ele>75.248552</ele>
        <time>2022-07-27T09:34:51.079Z</time>
      </trkpt>
      <trkpt lat="43.818089" lon="5.050012">
        <ele>75.308597</ele>
        <time>2022-07-27T09:35:03.041Z</time>
      </trkpt>
      <trkpt lat="43.818267" lon="5.050440">
        <ele>75.346947</ele>
        <time>2022-07-27T09:35:10.588Z</time>
      </trkpt>
      <trkpt lat="43.818917" lon="5.051413">
        <ele>75.508414</ele>
        <time>2022-07-27T09:35:32.995Z</time>
      </trkpt>
      <trkpt lat="43.819087" lon="5.051743">
        <ele>75.593389</ele>
        <time>2022-07-27T09:35:39.930Z</time>
      </trkpt>
      <trkpt lat="43.819066" lon="5.052058">
        <ele>75.659685</ele>
        <time>2022-07-27T09:35:45.572Z</time>
      </trkpt>
      <trkpt lat="43.819020" lon="5.052110">
        <ele>75.676926</ele>
        <time>2022-07-27T09:35:46.826Z</time>
      </trkpt>
      <trkpt lat="43.818944" lon="5.052354">
        <ele>75.732622</ele>
        <time>2022-07-27T09:35:51.288Z</time>
      </trkpt>
      <trkpt lat="43.818983" lon="5.052559">
        <ele>75.777052</ele>
        <time>2022-07-27T09:35:54.887Z</time>
      </trkpt>
      <trkpt lat="43.819177" lon="5.052733">
        <ele>75.844170</ele>
        <time>2022-07-27T09:36:00.309Z</time>
      </trkpt>
      <trkpt lat="43.819243" lon="5.052733">
        <ele>75.863339</ele>
        <time>2022-07-27T09:36:01.957Z</time>
      </trkpt>
      <trkpt lat="43.819572" lon="5.052952">
        <ele>75.923076</ele>
        <time>2022-07-27T09:36:10.531Z</time>
      </trkpt>
      <trkpt lat="43.819727" lon="5.053020">
        <ele>75.900898</ele>
        <time>2022-07-27T09:36:14.058Z</time>
      </trkpt>
      <trkpt lat="43.820470" lon="5.053036">
        <ele>75.799530</ele>
        <time>2022-07-27T09:36:30.941Z</time>
      </trkpt>
      <trkpt lat="43.821059" lon="5.053127">
        <ele>75.718684</ele>
        <time>2022-07-27T09:36:43.160Z</time>
      </trkpt>
      <trkpt lat="43.821365" lon="5.053268">
        <ele>75.633963</ele>
        <time>2022-07-27T09:36:49.538Z</time>
      </trkpt>
      <trkpt lat="43.821968" lon="5.053712">
        <ele>75.327767</ele>
        <time>2022-07-27T09:37:03.653Z</time>
      </trkpt>
      <trkpt lat="43.822559" lon="5.054252">
        <ele>75.010334</ele>
        <time>2022-07-27T09:37:18.422Z</time>
      </trkpt>
      <trkpt lat="43.822597" lon="5.054286">
        <ele>74.990052</ele>
        <time>2022-07-27T09:37:19.333Z</time>
      </trkpt>
      <trkpt lat="43.822936" lon="5.054678">
        <ele>74.813287</ele>
        <time>2022-07-27T09:37:28.609Z</time>
      </trkpt>
      <trkpt lat="43.825008" lon="5.057593">
        <ele>73.960284</ele>
        <time>2022-07-27T09:38:30.570Z</time>
      </trkpt>
      <trkpt lat="43.825254" lon="5.058154">
        <ele>73.876262</ele>
        <time>2022-07-27T09:38:41.239Z</time>
      </trkpt>
      <trkpt lat="43.825366" lon="5.058707">
        <ele>74.010744</ele>
        <time>2022-07-27T09:38:50.720Z</time>
      </trkpt>
      <trkpt lat="43.825384" lon="5.059018">
        <ele>74.083794</ele>
        <time>2022-07-27T09:38:55.907Z</time>
      </trkpt>
      <trkpt lat="43.825322" lon="5.059252">
        <ele>74.142160</ele>
        <time>2022-07-27T09:39:00.123Z</time>
      </trkpt>
      <trkpt lat="43.825355" lon="5.059438">
        <ele>74.187006</ele>
        <time>2022-07-27T09:39:03.352Z</time>
      </trkpt>
      <trkpt lat="43.825451" lon="5.059577">
        <ele>74.232060</ele>
        <time>2022-07-27T09:39:06.684Z</time>
      </trkpt>
      <trkpt lat="43.825629" lon="5.059630">
        <ele>74.291144</ele>
        <time>2022-07-27T09:39:11.139Z</time>
      </trkpt>
      <trkpt lat="43.825799" lon="5.059501">
        <ele>74.354041</ele>
        <time>2022-07-27T09:39:15.889Z</time>
      </trkpt>
      <trkpt lat="43.825860" lon="5.059320">
        <ele>74.400815</ele>
        <time>2022-07-27T09:39:19.462Z</time>
      </trkpt>
      <trkpt lat="43.825905" lon="5.059235">
        <ele>74.425500</ele>
        <time>2022-07-27T09:39:21.311Z</time>
      </trkpt>
      <trkpt lat="43.826042" lon="5.059003">
        <ele>74.512082</ele>
        <time>2022-07-27T09:39:26.703Z</time>
      </trkpt>
      <trkpt lat="43.826444" lon="5.058601">
        <ele>74.727840</ele>
        <time>2022-07-27T09:39:38.876Z</time>
      </trkpt>
      <trkpt lat="43.826601" lon="5.058478">
        <ele>74.806335</ele>
        <time>2022-07-27T09:39:43.291Z</time>
      </trkpt>
      <trkpt lat="43.827578" lon="5.057796">
        <ele>75.252007</ele>
        <time>2022-07-27T09:40:08.984Z</time>
      </trkpt>
      <trkpt lat="43.828051" lon="5.057503">
        <ele>75.345224</ele>
        <time>2022-07-27T09:40:21.070Z</time>
      </trkpt>
      <trkpt lat="43.828319" lon="5.057451">
        <ele>75.393915</ele>
        <time>2022-07-27T09:40:27.328Z</time>
      </trkpt>
      <trkpt lat="43.828429" lon="5.057475">
        <ele>75.413950</ele>
        <time>2022-07-27T09:40:29.891Z</time>
      </trkpt>
      <trkpt lat="43.828450" lon="5.057504">
        <ele>75.419284</ele>
        <time>2022-07-27T09:40:30.572Z</time>
      </trkpt>
      <trkpt lat="43.828620" lon="5.057534">
        <ele>75.450118</ele>
        <time>2022-07-27T09:40:34.521Z</time>
      </trkpt>
      <trkpt lat="43.828709" lon="5.057327">
        <ele>75.481397</ele>
        <time>2022-07-27T09:40:38.470Z</time>
      </trkpt>
      <trkpt lat="43.828766" lon="5.057164">
        <ele>75.504910</ele>
        <time>2022-07-27T09:40:41.443Z</time>
      </trkpt>
      <trkpt lat="43.829996" lon="5.055633">
        <ele>75.515066</ele>
        <time>2022-07-27T09:41:17.968Z</time>
      </trkpt>
      <trkpt lat="43.830193" lon="5.055439">
        <ele>75.508216</ele>
        <time>2022-07-27T09:41:23.339Z</time>
      </trkpt>
      <trkpt lat="43.830314" lon="5.055307">
        <ele>75.503851</ele>
        <time>2022-07-27T09:41:26.731Z</time>
      </trkpt>
      <trkpt lat="43.830857" lon="5.054789">
        <ele>75.472871</ele>
        <time>2022-07-27T09:41:41.416Z</time>
      </trkpt>
      <trkpt lat="43.830827" lon="5.054720">
        <ele>75.470100</ele>
        <time>2022-07-27T09:41:42.731Z</time>
      </trkpt>
      <trkpt lat="43.830777" lon="5.054640">
        <ele>75.466458</ele>
        <time>2022-07-27T09:41:44.491Z</time>
      </trkpt>
      <trkpt lat="43.830116" lon="5.054481">
        <ele>75.434461</ele>
        <time>2022-07-27T09:41:59.540Z</time>
      </trkpt>
      <trkpt lat="43.830247" lon="5.054342">
        <ele>75.426593</ele>
        <time>2022-07-27T09:42:03.285Z</time>
      </trkpt>
      <trkpt lat="43.830449" lon="5.053950">
        <ele>75.422060</ele>
        <time>2022-07-27T09:42:11.348Z</time>
      </trkpt>
      <trkpt lat="43.830545" lon="5.052862">
        <ele>75.445902</ele>
        <time>2022-07-27T09:42:30.399Z</time>
      </trkpt>
      <trkpt lat="43.830441" lon="5.052751">
        <ele>75.449860</ele>
        <time>2022-07-27T09:42:33.697Z</time>
      </trkpt>
      <trkpt lat="43.830373" lon="5.052521">
        <ele>75.455267</ele>
        <time>2022-07-27T09:42:37.891Z</time>
      </trkpt>
      <trkpt lat="43.830451" lon="5.051943">
        <ele>75.468057</ele>
        <time>2022-07-27T09:42:47.440Z</time>
      </trkpt>
      <trkpt lat="43.830210" lon="5.051880">
        <ele>75.446160</ele>
        <time>2022-07-27T09:42:53.791Z</time>
      </trkpt>
      <trkpt lat="43.830820" lon="5.051840">
        <ele>75.323474</ele>
        <time>2022-07-27T09:43:09.582Z</time>
      </trkpt>
      <trkpt lat="43.830860" lon="5.050690">
        <ele>75.156615</ele>
        <time>2022-07-27T09:43:31.059Z</time>
      </trkpt>
      <trkpt lat="43.830160" lon="5.050420">
        <ele>75.062101</ele>
        <time>2022-07-27T09:43:49.848Z</time>
      </trkpt>
      <trkpt lat="43.830257" lon="5.050387">
        <ele>75.052399</ele>
        <time>2022-07-27T09:43:52.434Z</time>
      </trkpt>
      <trkpt lat="43.830087" lon="5.050614">
        <ele>75.029468</ele>
        <time>2022-07-27T09:43:57.839Z</time>
      </trkpt>
      <trkpt lat="43.829916" lon="5.050709">
        <ele>75.011572</ele>
        <time>2022-07-27T09:44:01.975Z</time>
      </trkpt>
      <trkpt lat="43.829770" lon="5.050929">
        <ele>74.990623</ele>
        <time>2022-07-27T09:44:06.816Z</time>
      </trkpt>
      <trkpt lat="43.829721" lon="5.051179">
        <ele>74.972468</ele>
        <time>2022-07-27T09:44:11.006Z</time>
      </trkpt>
      <trkpt lat="43.829744" lon="5.051434">
        <ele>74.954458</ele>
        <time>2022-07-27T09:44:15.237Z</time>
      </trkpt>
      <trkpt lat="43.829789" lon="5.051558">
        <ele>74.944731</ele>
        <time>2022-07-27T09:44:17.508Z</time>
      </trkpt>
      <trkpt lat="43.829744" lon="5.051434">
        <ele>74.935766</ele>
        <time>2022-07-27T09:44:19.813Z</time>
      </trkpt>
      <trkpt lat="43.829721" lon="5.051179">
        <ele>74.942728</ele>
        <time>2022-07-27T09:44:24.068Z</time>
      </trkpt>
      <trkpt lat="43.829770" lon="5.050929">
        <ele>74.949746</ele>
        <time>2022-07-27T09:44:28.441Z</time>
      </trkpt>
      <trkpt lat="43.829916" lon="5.050709">
        <ele>74.957844</ele>
        <time>2022-07-27T09:44:33.639Z</time>
      </trkpt>
      <trkpt lat="43.830087" lon="5.050614">
        <ele>74.964762</ele>
        <time>2022-07-27T09:44:37.969Z</time>
      </trkpt>
      <trkpt lat="43.830257" lon="5.050387">
        <ele>74.973626</ele>
        <time>2022-07-27T09:44:43.584Z</time>
      </trkpt>
      <trkpt lat="43.830377" lon="5.050421">
        <ele>74.978225</ele>
        <time>2022-07-27T09:44:46.384Z</time>
      </trkpt>
      <trkpt lat="43.830937" lon="5.050542">
        <ele>74.999508</ele>
        <time>2022-07-27T09:44:59.446Z</time>
      </trkpt>
      <trkpt lat="43.831043" lon="5.050676">
        <ele>75.012700</ele>
        <time>2022-07-27T09:45:02.790Z</time>
      </trkpt>
      <trkpt lat="43.830958" lon="5.051598">
        <ele>75.147102</ele>
        <time>2022-07-27T09:45:18.506Z</time>
      </trkpt>
      <trkpt lat="43.830667" lon="5.051544">
        <ele>75.205951</ele>
        <time>2022-07-27T09:45:25.800Z</time>
      </trkpt>
      <trkpt lat="43.830563" lon="5.051563">
        <ele>75.226977</ele>
        <time>2022-07-27T09:45:28.390Z</time>
      </trkpt>
      <trkpt lat="43.830489" lon="5.051665">
        <ele>75.247895</ele>
        <time>2022-07-27T09:45:31.051Z</time>
      </trkpt>
      <trkpt lat="43.830451" lon="5.051943">
        <ele>75.288808</ele>
        <time>2022-07-27T09:45:36.101Z</time>
      </trkpt>
      <trkpt lat="43.830373" lon="5.052521">
        <ele>75.361993</ele>
        <time>2022-07-27T09:45:46.495Z</time>
      </trkpt>
      <trkpt lat="43.830441" lon="5.052751">
        <ele>75.356267</ele>
        <time>2022-07-27T09:45:50.719Z</time>
      </trkpt>
      <trkpt lat="43.830545" lon="5.052862">
        <ele>75.352075</ele>
        <time>2022-07-27T09:45:53.673Z</time>
      </trkpt>
      <trkpt lat="43.830449" lon="5.053950">
        <ele>75.326824</ele>
        <time>2022-07-27T09:46:11.543Z</time>
      </trkpt>
      <trkpt lat="43.830247" lon="5.054342">
        <ele>75.315727</ele>
        <time>2022-07-27T09:46:19.388Z</time>
      </trkpt>
      <trkpt lat="43.830116" lon="5.054481">
        <ele>75.310459</ele>
        <time>2022-07-27T09:46:23.177Z</time>
      </trkpt>
      <trkpt lat="43.830777" lon="5.054640">
        <ele>75.373142</ele>
        <time>2022-07-27T09:46:38.936Z</time>
      </trkpt>
      <trkpt lat="43.830827" lon="5.054720">
        <ele>75.382663</ele>
        <time>2022-07-27T09:46:40.721Z</time>
      </trkpt>
      <trkpt lat="43.830857" lon="5.054789">
        <ele>75.389910</ele>
        <time>2022-07-27T09:46:42.083Z</time>
      </trkpt>
      <trkpt lat="43.831585" lon="5.054165">
        <ele>75.496639</ele>
        <time>2022-07-27T09:47:01.383Z</time>
      </trkpt>
      <trkpt lat="43.831922" lon="5.053876">
        <ele>75.561820</ele>
        <time>2022-07-27T09:47:10.801Z</time>
      </trkpt>
      <trkpt lat="43.832203" lon="5.053610">
        <ele>75.647166</ele>
        <time>2022-07-27T09:47:18.863Z</time>
      </trkpt>
      <trkpt lat="43.832380" lon="5.053266">
        <ele>75.723619</ele>
        <time>2022-07-27T09:47:25.916Z</time>
      </trkpt>
      <trkpt lat="43.832454" lon="5.052865">
        <ele>75.798510</ele>
        <time>2022-07-27T09:47:32.828Z</time>
      </trkpt>
      <trkpt lat="43.832403" lon="5.052523">
        <ele>75.861698</ele>
        <time>2022-07-27T09:47:38.598Z</time>
      </trkpt>
      <trkpt lat="43.832422" lon="5.052305">
        <ele>75.901429</ele>
        <time>2022-07-27T09:47:42.306Z</time>
      </trkpt>
      <trkpt lat="43.832492" lon="5.052219">
        <ele>75.924890</ele>
        <time>2022-07-27T09:47:44.472Z</time>
      </trkpt>
      <trkpt lat="43.832539" lon="5.052008">
        <ele>75.964846</ele>
        <time>2022-07-27T09:47:48.201Z</time>
      </trkpt>
      <trkpt lat="43.832521" lon="5.051900">
        <ele>75.980488</ele>
        <time>2022-07-27T09:47:50.007Z</time>
      </trkpt>
      <trkpt lat="43.832364" lon="5.051707">
        <ele>75.962710</ele>
        <time>2022-07-27T09:47:54.883Z</time>
      </trkpt>
      <trkpt lat="43.832279" lon="5.051697">
        <ele>75.955483</ele>
        <time>2022-07-27T09:47:56.967Z</time>
      </trkpt>
      <trkpt lat="43.832112" lon="5.051830">
        <ele>75.939165</ele>
        <time>2022-07-27T09:48:01.358Z</time>
      </trkpt>
      <trkpt lat="43.832067" lon="5.052001">
        <ele>75.928041</ele>
        <time>2022-07-27T09:48:04.417Z</time>
      </trkpt>
      <trkpt lat="43.832095" lon="5.052178">
        <ele>75.916966</ele>
        <time>2022-07-27T09:48:07.411Z</time>
      </trkpt>
      <trkpt lat="43.832188" lon="5.052309">
        <ele>75.905733</ele>
        <time>2022-07-27T09:48:10.269Z</time>
      </trkpt>
      <trkpt lat="43.832264" lon="5.052346">
        <ele>75.898908</ele>
        <time>2022-07-27T09:48:12.077Z</time>
      </trkpt>
      <trkpt lat="43.832422" lon="5.052305">
        <ele>75.885290</ele>
        <time>2022-07-27T09:48:15.616Z</time>
      </trkpt>
      <trkpt lat="43.832492" lon="5.052219">
        <ele>75.877365</ele>
        <time>2022-07-27T09:48:17.539Z</time>
      </trkpt>
      <trkpt lat="43.832539" lon="5.052008">
        <ele>75.863869</ele>
        <time>2022-07-27T09:48:20.955Z</time>
      </trkpt>
      <trkpt lat="43.832521" lon="5.051900">
        <ele>75.857095</ele>
        <time>2022-07-27T09:48:22.614Z</time>
      </trkpt>
      <trkpt lat="43.832564" lon="5.051781">
        <ele>75.848960</ele>
        <time>2022-07-27T09:48:24.527Z</time>
      </trkpt>
      <trkpt lat="43.832605" lon="5.051715">
        <ele>75.843637</ele>
        <time>2022-07-27T09:48:25.805Z</time>
      </trkpt>
      <trkpt lat="43.832812" lon="5.051622">
        <ele>75.805083</ele>
        <time>2022-07-27T09:48:30.380Z</time>
      </trkpt>
      <trkpt lat="43.833731" lon="5.051333">
        <ele>75.325202</ele>
        <time>2022-07-27T09:48:49.937Z</time>
      </trkpt>
      <trkpt lat="43.834805" lon="5.050874">
        <ele>74.791840</ele>
        <time>2022-07-27T09:49:12.602Z</time>
      </trkpt>
      <trkpt lat="43.835023" lon="5.050807">
        <ele>74.705751</ele>
        <time>2022-07-27T09:49:17.167Z</time>
      </trkpt>
      <trkpt lat="43.835254" lon="5.050723">
        <ele>74.613677</ele>
        <time>2022-07-27T09:49:22.126Z</time>
      </trkpt>
      <trkpt lat="43.835470" lon="5.050642">
        <ele>74.527406</ele>
        <time>2022-07-27T09:49:26.842Z</time>
      </trkpt>
      <trkpt lat="43.836046" lon="5.050406">
        <ele>74.295837</ele>
        <time>2022-07-27T09:49:39.559Z</time>
      </trkpt>
      <trkpt lat="43.836411" lon="5.050251">
        <ele>74.158914</ele>
        <time>2022-07-27T09:49:47.722Z</time>
      </trkpt>
      <trkpt lat="43.836548" lon="5.050193">
        <ele>74.111645</ele>
        <time>2022-07-27T09:49:50.817Z</time>
      </trkpt>
      <trkpt lat="43.836576" lon="5.050181">
        <ele>74.101974</ele>
        <time>2022-07-27T09:49:51.434Z</time>
      </trkpt>
      <trkpt lat="43.836605" lon="5.050168">
        <ele>74.091916</ele>
        <time>2022-07-27T09:49:52.092Z</time>
      </trkpt>
      <trkpt lat="43.836708" lon="5.050119">
        <ele>74.055983</ele>
        <time>2022-07-27T09:49:54.390Z</time>
      </trkpt>
      <trkpt lat="43.837178" lon="5.049845">
        <ele>73.887735</ele>
        <time>2022-07-27T09:50:05.170Z</time>
      </trkpt>
      <trkpt lat="43.837935" lon="5.049254">
        <ele>73.617080</ele>
        <time>2022-07-27T09:50:23.192Z</time>
      </trkpt>
      <trkpt lat="43.838335" lon="5.048907">
        <ele>73.560247</ele>
        <time>2022-07-27T09:50:33.164Z</time>
      </trkpt>
      <trkpt lat="43.838654" lon="5.048742">
        <ele>73.519237</ele>
        <time>2022-07-27T09:50:40.723Z</time>
      </trkpt>
      <trkpt lat="43.838669" lon="5.048735">
        <ele>73.517330</ele>
        <time>2022-07-27T09:50:41.069Z</time>
      </trkpt>
      <trkpt lat="43.838776" lon="5.048681">
        <ele>73.503615</ele>
        <time>2022-07-27T09:50:43.555Z</time>
      </trkpt>
      <trkpt lat="43.838800" lon="5.048868">
        <ele>73.487114</ele>
        <time>2022-07-27T09:50:46.614Z</time>
      </trkpt>
      <trkpt lat="43.838831" lon="5.049121">
        <ele>73.464819</ele>
        <time>2022-07-27T09:50:50.759Z</time>
      </trkpt>
      <trkpt lat="43.838912" lon="5.049764">
        <ele>73.412336</ele>
        <time>2022-07-27T09:51:01.129Z</time>
      </trkpt>
      <trkpt lat="43.838955" lon="5.050088">
        <ele>73.462206</ele>
        <time>2022-07-27T09:51:06.486Z</time>
      </trkpt>
      <trkpt lat="43.839016" lon="5.050549">
        <ele>73.533155</ele>
        <time>2022-07-27T09:51:14.086Z</time>
      </trkpt>
      <trkpt lat="43.839168" lon="5.051687">
        <ele>73.708352</ele>
        <time>2022-07-27T09:51:33.768Z</time>
      </trkpt>
      <trkpt lat="43.839246" lon="5.052274">
        <ele>73.803701</ele>
        <time>2022-07-27T09:51:43.908Z</time>
      </trkpt>
      <trkpt lat="43.839371" lon="5.053211">
        <ele>74.010232</ele>
        <time>2022-07-27T09:51:59.678Z</time>
      </trkpt>
      <trkpt lat="43.839393" lon="5.053462">
        <ele>74.065034</ele>
        <time>2022-07-27T09:52:03.887Z</time>
      </trkpt>
      <trkpt lat="43.839397" lon="5.053618">
        <ele>74.098867</ele>
        <time>2022-07-27T09:52:06.613Z</time>
      </trkpt>
      <trkpt lat="43.839380" lon="5.053756">
        <ele>74.129211</ele>
        <time>2022-07-27T09:52:09.021Z</time>
      </trkpt>
      <trkpt lat="43.839429" lon="5.053834">
        <ele>74.151630</ele>
        <time>2022-07-27T09:52:10.774Z</time>
      </trkpt>
      <trkpt lat="43.839438" lon="5.053969">
        <ele>74.181014</ele>
        <time>2022-07-27T09:52:13.056Z</time>
      </trkpt>
      <trkpt lat="43.839472" lon="5.054427">
        <ele>74.280806</ele>
        <time>2022-07-27T09:52:20.968Z</time>
      </trkpt>
      <trkpt lat="43.839554" lon="5.055255">
        <ele>74.411242</ele>
        <time>2022-07-27T09:52:35.130Z</time>
      </trkpt>
      <trkpt lat="43.839609" lon="5.055740">
        <ele>74.477486</ele>
        <time>2022-07-27T09:52:43.146Z</time>
      </trkpt>
      <trkpt lat="43.839680" lon="5.056328">
        <ele>74.557926</ele>
        <time>2022-07-27T09:52:52.919Z</time>
      </trkpt>
      <trkpt lat="43.839742" lon="5.056837">
        <ele>74.627576</ele>
        <time>2022-07-27T09:53:01.608Z</time>
      </trkpt>
      <trkpt lat="43.839814" lon="5.057412">
        <ele>74.704406</ele>
        <time>2022-07-27T09:53:11.258Z</time>
      </trkpt>
      <trkpt lat="43.839843" lon="5.057637">
        <ele>74.733848</ele>
        <time>2022-07-27T09:53:14.968Z</time>
      </trkpt>
      <trkpt lat="43.839929" lon="5.058366">
        <ele>74.829001</ele>
        <time>2022-07-27T09:53:26.692Z</time>
      </trkpt>
      <trkpt lat="43.840042" lon="5.059479">
        <ele>74.973784</ele>
        <time>2022-07-27T09:53:45.344Z</time>
      </trkpt>
      <trkpt lat="43.840048" lon="5.059539">
        <ele>74.981586</ele>
        <time>2022-07-27T09:53:46.407Z</time>
      </trkpt>
      <trkpt lat="43.840117" lon="5.060181">
        <ele>75.146449</ele>
        <time>2022-07-27T09:53:57.914Z</time>
      </trkpt>
      <trkpt lat="43.840149" lon="5.060599">
        <ele>75.255658</ele>
        <time>2022-07-27T09:54:05.180Z</time>
      </trkpt>
      <trkpt lat="43.840203" lon="5.061033">
        <ele>75.370080</ele>
        <time>2022-07-27T09:54:12.538Z</time>
      </trkpt>
      <trkpt lat="43.840281" lon="5.061568">
        <ele>75.511888</ele>
        <time>2022-07-27T09:54:21.705Z</time>
      </trkpt>
      <trkpt lat="43.840292" lon="5.061642">
        <ele>75.531518</ele>
        <time>2022-07-27T09:54:22.989Z</time>
      </trkpt>
      <trkpt lat="43.840329" lon="5.061870">
        <ele>75.592234</ele>
        <time>2022-07-27T09:54:27.018Z</time>
      </trkpt>
      <trkpt lat="43.840463" lon="5.062453">
        <ele>75.716197</ele>
        <time>2022-07-27T09:54:37.552Z</time>
      </trkpt>
      <trkpt lat="43.840561" lon="5.062867">
        <ele>75.795824</ele>
        <time>2022-07-27T09:54:45.052Z</time>
      </trkpt>
      <trkpt lat="43.840697" lon="5.063357">
        <ele>75.891769</ele>
        <time>2022-07-27T09:54:53.866Z</time>
      </trkpt>
      <trkpt lat="43.840702" lon="5.063376">
        <ele>75.895465</ele>
        <time>2022-07-27T09:54:54.195Z</time>
      </trkpt>
      <trkpt lat="43.840794" lon="5.063747">
        <ele>75.967158</ele>
        <time>2022-07-27T09:55:00.677Z</time>
      </trkpt>
      <trkpt lat="43.840818" lon="5.063843">
        <ele>75.985725</ele>
        <time>2022-07-27T09:55:02.292Z</time>
      </trkpt>
      <trkpt lat="43.840942" lon="5.064301">
        <ele>76.075123</ele>
        <time>2022-07-27T09:55:10.200Z</time>
      </trkpt>
      <trkpt lat="43.841230" lon="5.065378">
        <ele>76.355304</ele>
        <time>2022-07-27T09:55:29.633Z</time>
      </trkpt>
      <trkpt lat="43.841264" lon="5.065595">
        <ele>76.410424</ele>
        <time>2022-07-27T09:55:33.473Z</time>
      </trkpt>
      <trkpt lat="43.841419" lon="5.066489">
        <ele>76.638652</ele>
        <time>2022-07-27T09:55:49.103Z</time>
      </trkpt>
      <trkpt lat="43.841465" lon="5.066733">
        <ele>76.701251</ele>
        <time>2022-07-27T09:55:53.418Z</time>
      </trkpt>
      <trkpt lat="43.841539" lon="5.067119">
        <ele>76.879146</ele>
        <time>2022-07-27T09:56:00.473Z</time>
      </trkpt>
      <trkpt lat="43.841793" lon="5.068364">
        <ele>77.473713</ele>
        <time>2022-07-27T09:56:23.865Z</time>
      </trkpt>
      <trkpt lat="43.841949" lon="5.069174">
        <ele>77.856894</ele>
        <time>2022-07-27T09:56:38.710Z</time>
      </trkpt>
      <trkpt lat="43.842168" lon="5.069942">
        <ele>78.082200</ele>
        <time>2022-07-27T09:56:53.822Z</time>
      </trkpt>
      <trkpt lat="43.842272" lon="5.070292">
        <ele>78.185472</ele>
        <time>2022-07-27T09:57:00.449Z</time>
      </trkpt>
      <trkpt lat="43.842491" lon="5.071027">
        <ele>78.402430</ele>
        <time>2022-07-27T09:57:13.916Z</time>
      </trkpt>
      <trkpt lat="43.842549" lon="5.071226">
        <ele>78.460985</ele>
        <time>2022-07-27T09:57:17.354Z</time>
      </trkpt>
      <trkpt lat="43.842579" lon="5.071361">
        <ele>78.499524</ele>
        <time>2022-07-27T09:57:19.654Z</time>
      </trkpt>
      <trkpt lat="43.842668" lon="5.071749">
        <ele>78.510994</ele>
        <time>2022-07-27T09:57:26.055Z</time>
      </trkpt>
      <trkpt lat="43.842965" lon="5.073239">
        <ele>78.382891</ele>
        <time>2022-07-27T09:57:49.932Z</time>
      </trkpt>
      <trkpt lat="43.842990" lon="5.073456">
        <ele>78.364681</ele>
        <time>2022-07-27T09:57:53.403Z</time>
      </trkpt>
      <trkpt lat="43.843057" lon="5.074691">
        <ele>78.663749</ele>
        <time>2022-07-27T09:58:13.172Z</time>
      </trkpt>
      <trkpt lat="43.843097" lon="5.075554">
        <ele>79.031628</ele>
        <time>2022-07-27T09:58:28.295Z</time>
      </trkpt>
      <trkpt lat="43.843311" lon="5.077714">
        <ele>80.916705</ele>
        <time>2022-07-27T09:59:11.484Z</time>
      </trkpt>
      <trkpt lat="43.843442" lon="5.078469">
        <ele>81.801322</ele>
        <time>2022-07-27T09:59:28.178Z</time>
      </trkpt>
      <trkpt lat="43.843500" lon="5.078799">
        <ele>82.188250</ele>
        <time>2022-07-27T09:59:35.514Z</time>
      </trkpt>
      <trkpt lat="43.843545" lon="5.079041">
        <ele>82.509424</ele>
        <time>2022-07-27T09:59:40.927Z</time>
      </trkpt>
      <trkpt lat="43.843562" lon="5.079123">
        <ele>82.621173</ele>
        <time>2022-07-27T09:59:42.795Z</time>
      </trkpt>
      <trkpt lat="43.843590" lon="5.079254">
        <ele>82.800126</ele>
        <time>2022-07-27T09:59:45.740Z</time>
      </trkpt>
      <trkpt lat="43.843624" lon="5.079689">
        <ele>83.373205</ele>
        <time>2022-07-27T09:59:55.302Z</time>
      </trkpt>
      <trkpt lat="43.843567" lon="5.079812">
        <ele>83.564693</ele>
        <time>2022-07-27T09:59:58.442Z</time>
      </trkpt>
      <trkpt lat="43.843610" lon="5.079971">
        <ele>83.787102</ele>
        <time>2022-07-27T10:00:02.196Z</time>
      </trkpt>
      <trkpt lat="43.843673" lon="5.080012">
        <ele>83.913486</ele>
        <time>2022-07-27T10:00:04.314Z</time>
      </trkpt>
      <trkpt lat="43.843731" lon="5.080153">
        <ele>84.126085</ele>
        <time>2022-07-27T10:00:07.890Z</time>
      </trkpt>
      <trkpt lat="43.843784" lon="5.080261">
        <ele>84.297177</ele>
        <time>2022-07-27T10:00:10.656Z</time>
      </trkpt>
      <trkpt lat="43.843883" lon="5.080726">
        <ele>84.932191</ele>
        <time>2022-07-27T10:00:20.876Z</time>
      </trkpt>
      <trkpt lat="43.844071" lon="5.081559">
        <ele>85.841736</ele>
        <time>2022-07-27T10:00:38.660Z</time>
      </trkpt>
      <trkpt lat="43.844139" lon="5.081855">
        <ele>86.084631</ele>
        <time>2022-07-27T10:00:44.689Z</time>
      </trkpt>
      <trkpt lat="43.844183" lon="5.082048">
        <ele>86.242894</ele>
        <time>2022-07-27T10:00:48.672Z</time>
      </trkpt>
      <trkpt lat="43.844193" lon="5.082097">
        <ele>86.282711</ele>
        <time>2022-07-27T10:00:49.637Z</time>
      </trkpt>
      <trkpt lat="43.844251" lon="5.082369">
        <ele>86.504483</ele>
        <time>2022-07-27T10:00:54.940Z</time>
      </trkpt>
      <trkpt lat="43.844267" lon="5.082445">
        <ele>86.566386</ele>
        <time>2022-07-27T10:00:56.452Z</time>
      </trkpt>
      <trkpt lat="43.844336" lon="5.082768">
        <ele>86.829780</ele>
        <time>2022-07-27T10:01:02.644Z</time>
      </trkpt>
      <trkpt lat="43.844441" lon="5.083259">
        <ele>87.230204</ele>
        <time>2022-07-27T10:01:11.965Z</time>
      </trkpt>
      <trkpt lat="43.844495" lon="5.083498">
        <ele>87.426028</ele>
        <time>2022-07-27T10:01:16.554Z</time>
      </trkpt>
      <trkpt lat="43.844504" lon="5.083538">
        <ele>87.458784</ele>
        <time>2022-07-27T10:01:17.308Z</time>
      </trkpt>
      <trkpt lat="43.844515" lon="5.083585">
        <ele>87.497402</ele>
        <time>2022-07-27T10:01:18.229Z</time>
      </trkpt>
      <trkpt lat="43.844541" lon="5.083699">
        <ele>87.590846</ele>
        <time>2022-07-27T10:01:20.438Z</time>
      </trkpt>
      <trkpt lat="43.844577" lon="5.083857">
        <ele>87.720344</ele>
        <time>2022-07-27T10:01:23.572Z</time>
      </trkpt>
      <trkpt lat="43.844612" lon="5.084007">
        <ele>87.843557</ele>
        <time>2022-07-27T10:01:26.536Z</time>
      </trkpt>
      <trkpt lat="43.844622" lon="5.084044">
        <ele>87.874438</ele>
        <time>2022-07-27T10:01:27.283Z</time>
      </trkpt>
      <trkpt lat="43.844709" lon="5.084361">
        <ele>88.139516</ele>
        <time>2022-07-27T10:01:33.845Z</time>
      </trkpt>
      <trkpt lat="43.844794" lon="5.084688">
        <ele>88.411170</ele>
        <time>2022-07-27T10:01:40.669Z</time>
      </trkpt>
      <trkpt lat="43.844939" lon="5.085242">
        <ele>88.871768</ele>
        <time>2022-07-27T10:01:52.276Z</time>
      </trkpt>
      <trkpt lat="43.844984" lon="5.085412">
        <ele>89.013295</ele>
        <time>2022-07-27T10:01:55.649Z</time>
      </trkpt>
      <trkpt lat="43.845014" lon="5.085618">
        <ele>89.177539</ele>
        <time>2022-07-27T10:01:59.664Z</time>
      </trkpt>
      <trkpt lat="43.845107" lon="5.086251">
        <ele>89.738469</ele>
        <time>2022-07-27T10:02:11.915Z</time>
      </trkpt>
      <trkpt lat="43.845100" lon="5.086510">
        <ele>89.980487</ele>
        <time>2022-07-27T10:02:16.952Z</time>
      </trkpt>
      <trkpt lat="43.845068" lon="5.086557">
        <ele>90.040841</ele>
        <time>2022-07-27T10:02:18.244Z</time>
      </trkpt>
      <trkpt lat="43.845051" lon="5.086738">
        <ele>90.211282</ele>
        <time>2022-07-27T10:02:21.832Z</time>
      </trkpt>
      <trkpt lat="43.845111" lon="5.086843">
        <ele>90.336373</ele>
        <time>2022-07-27T10:02:24.412Z</time>
      </trkpt>
      <trkpt lat="43.845272" lon="5.086840">
        <ele>90.544843</ele>
        <time>2022-07-27T10:02:28.983Z</time>
      </trkpt>
      <trkpt lat="43.845309" lon="5.086790">
        <ele>90.611736</ele>
        <time>2022-07-27T10:02:30.409Z</time>
      </trkpt>
      <trkpt lat="43.845431" lon="5.086717">
        <ele>90.783773</ele>
        <time>2022-07-27T10:02:34.143Z</time>
      </trkpt>
      <trkpt lat="43.845334" lon="5.086637">
        <ele>90.929899</ele>
        <time>2022-07-27T10:02:37.495Z</time>
      </trkpt>
      <trkpt lat="43.845254" lon="5.086489">
        <ele>91.102605</ele>
        <time>2022-07-27T10:02:41.277Z</time>
      </trkpt>
      <trkpt lat="43.845100" lon="5.086510">
        <ele>91.302955</ele>
        <time>2022-07-27T10:02:45.512Z</time>
      </trkpt>
      <trkpt lat="43.845068" lon="5.086557">
        <ele>91.363309</ele>
        <time>2022-07-27T10:02:46.796Z</time>
      </trkpt>
      <trkpt lat="43.845051" lon="5.086738">
        <ele>91.533750</ele>
        <time>2022-07-27T10:02:50.451Z</time>
      </trkpt>
      <trkpt lat="43.845111" lon="5.086843">
        <ele>91.658841</ele>
        <time>2022-07-27T10:02:53.078Z</time>
      </trkpt>
      <trkpt lat="43.845143" lon="5.087229">
        <ele>92.099805</ele>
        <time>2022-07-27T10:03:00.756Z</time>
      </trkpt>
      <trkpt lat="43.845101" lon="5.088281">
        <ele>93.341427</ele>
        <time>2022-07-27T10:03:22.293Z</time>
      </trkpt>
      <trkpt lat="43.845082" lon="5.088413">
        <ele>93.500049</ele>
        <time>2022-07-27T10:03:25.187Z</time>
      </trkpt>
      <trkpt lat="43.845059" lon="5.088576">
        <ele>93.695778</ele>
        <time>2022-07-27T10:03:28.771Z</time>
      </trkpt>
      <trkpt lat="43.844975" lon="5.089163">
        <ele>94.401011</ele>
        <time>2022-07-27T10:03:41.559Z</time>
      </trkpt>
      <trkpt lat="43.844857" lon="5.089945">
        <ele>95.395904</ele>
        <time>2022-07-27T10:03:58.454Z</time>
      </trkpt>
      <trkpt lat="43.844758" lon="5.090610">
        <ele>96.258906</ele>
        <time>2022-07-27T10:04:12.821Z</time>
      </trkpt>
      <trkpt lat="43.844714" lon="5.090933">
        <ele>96.676683</ele>
        <time>2022-07-27T10:04:19.911Z</time>
      </trkpt>
      <trkpt lat="43.844649" lon="5.091516">
        <ele>97.426451</ele>
        <time>2022-07-27T10:04:32.235Z</time>
      </trkpt>
      <trkpt lat="43.844566" lon="5.092751">
        <ele>99.244067</ele>
        <time>2022-07-27T10:04:58.397Z</time>
      </trkpt>
      <trkpt lat="43.844587" lon="5.093513">
        <ele>100.412867</ele>
        <time>2022-07-27T10:05:14.893Z</time>
      </trkpt>
      <trkpt lat="43.844652" lon="5.093959">
        <ele>101.110286</ele>
        <time>2022-07-27T10:05:25.088Z</time>
      </trkpt>
      <trkpt lat="43.844689" lon="5.094131">
        <ele>101.385393</ele>
        <time>2022-07-27T10:05:29.187Z</time>
      </trkpt>
      <trkpt lat="43.845488" lon="5.096552">
        <ele>106.821021</ele>
        <time>2022-07-27T10:06:35.801Z</time>
      </trkpt>
      <trkpt lat="43.845577" lon="5.096823">
        <ele>107.075387</ele>
        <time>2022-07-27T10:06:43.183Z</time>
      </trkpt>
      <trkpt lat="43.845838" lon="5.098227">
        <ele>108.271317</ele>
        <time>2022-07-27T10:07:11.508Z</time>
      </trkpt>
      <trkpt lat="43.845972" lon="5.099071">
        <ele>108.880568</ele>
        <time>2022-07-27T10:07:25.548Z</time>
      </trkpt>
      <trkpt lat="43.846408" lon="5.101856">
        <ele>109.389622</ele>
        <time>2022-07-27T10:08:08.734Z</time>
      </trkpt>
      <trkpt lat="43.846526" lon="5.102597">
        <ele>110.638072</ele>
        <time>2022-07-27T10:08:25.111Z</time>
      </trkpt>
      <trkpt lat="43.846530" lon="5.102817">
        <ele>111.000129</ele>
        <time>2022-07-27T10:08:30.302Z</time>
      </trkpt>
      <trkpt lat="43.846534" lon="5.102995">
        <ele>111.293114</ele>
        <time>2022-07-27T10:08:34.700Z</time>
      </trkpt>
      <trkpt lat="43.846520" lon="5.103041">
        <ele>111.375256</ele>
        <time>2022-07-27T10:08:35.988Z</time>
      </trkpt>
      <trkpt lat="43.846531" lon="5.103124">
        <ele>111.514093</ele>
        <time>2022-07-27T10:08:38.176Z</time>
      </trkpt>
      <trkpt lat="43.846573" lon="5.103170">
        <ele>111.636186</ele>
        <time>2022-07-27T10:08:40.063Z</time>
      </trkpt>
      <trkpt lat="43.846606" lon="5.103304">
        <ele>111.869140</ele>
        <time>2022-07-27T10:08:43.785Z</time>
      </trkpt>
      <trkpt lat="43.846658" lon="5.103477">
        <ele>112.177487</ele>
        <time>2022-07-27T10:08:48.907Z</time>
      </trkpt>
      <trkpt lat="43.846669" lon="5.103542">
        <ele>112.287329</ele>
        <time>2022-07-27T10:08:50.768Z</time>
      </trkpt>
      <trkpt lat="43.846752" lon="5.104011">
        <ele>113.306158</ele>
        <time>2022-07-27T10:09:04.687Z</time>
      </trkpt>
      <trkpt lat="43.846832" lon="5.104461">
        <ele>114.547512</ele>
        <time>2022-07-27T10:09:18.293Z</time>
      </trkpt>
      <trkpt lat="43.846991" lon="5.105345">
        <ele>116.987727</ele>
        <time>2022-07-27T10:09:43.665Z</time>
      </trkpt>
      <trkpt lat="43.847115" lon="5.105966">
        <ele>118.713574</ele>
        <time>2022-07-27T10:10:00.424Z</time>
      </trkpt>
      <trkpt lat="43.847198" lon="5.106358">
        <ele>119.559909</ele>
        <time>2022-07-27T10:10:10.295Z</time>
      </trkpt>
      <trkpt lat="43.847260" lon="5.106636">
        <ele>119.860320</ele>
        <time>2022-07-27T10:10:16.865Z</time>
      </trkpt>
      <trkpt lat="43.847328" lon="5.106904">
        <ele>120.153621</ele>
        <time>2022-07-27T10:10:23.158Z</time>
      </trkpt>
      <trkpt lat="43.847415" lon="5.107347">
        <ele>120.627618</ele>
        <time>2022-07-27T10:10:32.371Z</time>
      </trkpt>
      <trkpt lat="43.847381" lon="5.107468">
        <ele>120.761682</ele>
        <time>2022-07-27T10:10:34.972Z</time>
      </trkpt>
      <trkpt lat="43.847467" lon="5.107496">
        <ele>120.888139</ele>
        <time>2022-07-27T10:10:37.023Z</time>
      </trkpt>
      <trkpt lat="43.847533" lon="5.107735">
        <ele>121.152347</ele>
        <time>2022-07-27T10:10:41.702Z</time>
      </trkpt>
      <trkpt lat="43.847734" lon="5.108580">
        <ele>122.075897</ele>
        <time>2022-07-27T10:10:56.858Z</time>
      </trkpt>
      <trkpt lat="43.847901" lon="5.109268">
        <ele>122.865908</ele>
        <time>2022-07-27T10:11:10.697Z</time>
      </trkpt>
      <trkpt lat="43.847922" lon="5.109355">
        <ele>122.965750</ele>
        <time>2022-07-27T10:11:12.379Z</time>
      </trkpt>
      <trkpt lat="43.848047" lon="5.109871">
        <ele>123.558136</ele>
        <time>2022-07-27T10:11:23.868Z</time>
      </trkpt>
      <trkpt lat="43.848211" lon="5.110575">
        <ele>124.363262</ele>
        <time>2022-07-27T10:11:40.464Z</time>
      </trkpt>
      <trkpt lat="43.848314" lon="5.110995">
        <ele>124.769453</ele>
        <time>2022-07-27T10:11:50.383Z</time>
      </trkpt>
      <trkpt lat="43.848436" lon="5.111477">
        <ele>125.046495</ele>
        <time>2022-07-27T10:12:01.279Z</time>
      </trkpt>
      <trkpt lat="43.848504" lon="5.111998">
        <ele>125.333645</ele>
        <time>2022-07-27T10:12:11.864Z</time>
      </trkpt>
      <trkpt lat="43.848629" lon="5.112835">
        <ele>125.797215</ele>
        <time>2022-07-27T10:12:27.021Z</time>
      </trkpt>
      <trkpt lat="43.848903" lon="5.114679">
        <ele>124.347407</ele>
        <time>2022-07-27T10:12:52.782Z</time>
      </trkpt>
      <trkpt lat="43.848922" lon="5.114828">
        <ele>124.166922</ele>
        <time>2022-07-27T10:12:54.668Z</time>
      </trkpt>
      <trkpt lat="43.848987" lon="5.115349">
        <ele>123.536238</ele>
        <time>2022-07-27T10:13:01.070Z</time>
      </trkpt>
      <trkpt lat="43.849015" lon="5.115532">
        <ele>123.313096</ele>
        <time>2022-07-27T10:13:03.338Z</time>
      </trkpt>
      <trkpt lat="43.849076" lon="5.115897">
        <ele>122.794026</ele>
        <time>2022-07-27T10:13:07.896Z</time>
      </trkpt>
      <trkpt lat="43.849120" lon="5.116169">
        <ele>122.344405</ele>
        <time>2022-07-27T10:13:11.281Z</time>
      </trkpt>
      <trkpt lat="43.849486" lon="5.118628">
        <ele>118.733606</ele>
        <time>2022-07-27T10:13:42.688Z</time>
      </trkpt>
      <trkpt lat="43.849506" lon="5.118761">
        <ele>118.642114</ele>
        <time>2022-07-27T10:13:44.489Z</time>
      </trkpt>
      <trkpt lat="43.849653" lon="5.119818">
        <ele>117.917190</ele>
        <time>2022-07-27T10:13:59.622Z</time>
      </trkpt>
      <trkpt lat="43.849702" lon="5.120210">
        <ele>117.649271</ele>
        <time>2022-07-27T10:14:05.636Z</time>
      </trkpt>
      <trkpt lat="43.849720" lon="5.120365">
        <ele>117.543546</ele>
        <time>2022-07-27T10:14:08.068Z</time>
      </trkpt>
      <trkpt lat="43.849784" lon="5.121020">
        <ele>117.661546</ele>
        <time>2022-07-27T10:14:19.005Z</time>
      </trkpt>
      <trkpt lat="43.849788" lon="5.121106">
        <ele>117.724433</ele>
        <time>2022-07-27T10:14:20.519Z</time>
      </trkpt>
      <trkpt lat="43.849726" lon="5.121481">
        <ele>118.005180</ele>
        <time>2022-07-27T10:14:27.404Z</time>
      </trkpt>
      <trkpt lat="43.849708" lon="5.121532">
        <ele>118.046614</ele>
        <time>2022-07-27T10:14:28.443Z</time>
      </trkpt>
      <trkpt lat="43.849580" lon="5.121692">
        <ele>118.220993</ele>
        <time>2022-07-27T10:14:32.875Z</time>
      </trkpt>
      <trkpt lat="43.849418" lon="5.121802">
        <ele>118.403516</ele>
        <time>2022-07-27T10:14:37.865Z</time>
      </trkpt>
      <trkpt lat="43.849028" lon="5.122225">
        <ele>118.904533</ele>
        <time>2022-07-27T10:14:52.132Z</time>
      </trkpt>
      <trkpt lat="43.848412" lon="5.122858">
        <ele>120.285164</ele>
        <time>2022-07-27T10:15:15.499Z</time>
      </trkpt>
      <trkpt lat="43.846450" lon="5.124835">
        <ele>125.854406</ele>
        <time>2022-07-27T10:16:35.571Z</time>
      </trkpt>
      <trkpt lat="43.845726" lon="5.125780">
        <ele>127.953719</ele>
        <time>2022-07-27T10:17:07.604Z</time>
      </trkpt>
      <trkpt lat="43.845696" lon="5.125826">
        <ele>128.025090</ele>
        <time>2022-07-27T10:17:09.022Z</time>
      </trkpt>
      <trkpt lat="43.845312" lon="5.126529">
        <ele>129.039941</ele>
        <time>2022-07-27T10:17:27.550Z</time>
      </trkpt>
      <trkpt lat="43.844658" lon="5.127524">
        <ele>130.535271</ele>
        <time>2022-07-27T10:17:55.278Z</time>
      </trkpt>
      <trkpt lat="43.844586" lon="5.127616">
        <ele>130.658778</ele>
        <time>2022-07-27T10:17:57.995Z</time>
      </trkpt>
      <trkpt lat="43.843736" lon="5.128815">
        <ele>132.188312</ele>
        <time>2022-07-27T10:18:30.902Z</time>
      </trkpt>
      <trkpt lat="43.842785" lon="5.130087">
        <ele>134.838780</ele>
        <time>2022-07-27T10:19:11.664Z</time>
      </trkpt>
      <trkpt lat="43.842597" lon="5.130410">
        <ele>135.512493</ele>
        <time>2022-07-27T10:19:21.372Z</time>
      </trkpt>
      <trkpt lat="43.841616" lon="5.131658">
        <ele>139.723900</ele>
        <time>2022-07-27T10:20:08.124Z</time>
      </trkpt>
      <trkpt lat="43.840875" lon="5.132406">
        <ele>143.134133</ele>
        <time>2022-07-27T10:20:45.587Z</time>
      </trkpt>
      <trkpt lat="43.840784" lon="5.132396">
        <ele>143.478929</ele>
        <time>2022-07-27T10:20:49.346Z</time>
      </trkpt>
      <trkpt lat="43.840447" lon="5.132583">
        <ele>144.881782</ele>
        <time>2022-07-27T10:21:03.994Z</time>
      </trkpt>
      <trkpt lat="43.840014" lon="5.132908">
        <ele>146.784700</ele>
        <time>2022-07-27T10:21:23.430Z</time>
      </trkpt>
      <trkpt lat="43.839743" lon="5.133102">
        <ele>147.963415</ele>
        <time>2022-07-27T10:21:34.982Z</time>
      </trkpt>
      <trkpt lat="43.839541" lon="5.133424">
        <ele>149.153006</ele>
        <time>2022-07-27T10:21:46.723Z</time>
      </trkpt>
      <trkpt lat="43.839123" lon="5.134194">
        <ele>151.207090</ele>
        <time>2022-07-27T10:22:14.186Z</time>
      </trkpt>
      <trkpt lat="43.838686" lon="5.134872">
        <ele>152.706142</ele>
        <time>2022-07-27T10:22:37.145Z</time>
      </trkpt>
      <trkpt lat="43.838388" lon="5.135453">
        <ele>153.881503</ele>
        <time>2022-07-27T10:22:52.945Z</time>
      </trkpt>
      <trkpt lat="43.837803" lon="5.136186">
        <ele>154.265386</ele>
        <time>2022-07-27T10:23:15.325Z</time>
      </trkpt>
      <trkpt lat="43.837651" lon="5.136309">
        <ele>154.222191</ele>
        <time>2022-07-27T10:23:20.327Z</time>
      </trkpt>
      <trkpt lat="43.837803" lon="5.136186">
        <ele>154.178996</ele>
        <time>2022-07-27T10:23:24.179Z</time>
      </trkpt>
      <trkpt lat="43.838388" lon="5.135453">
        <ele>153.985471</ele>
        <time>2022-07-27T10:23:41.412Z</time>
      </trkpt>
      <trkpt lat="43.838686" lon="5.134872">
        <ele>152.880899</ele>
        <time>2022-07-27T10:23:52.039Z</time>
      </trkpt>
      <trkpt lat="43.839123" lon="5.134194">
        <ele>151.179331</ele>
        <time>2022-07-27T10:24:04.588Z</time>
      </trkpt>
      <trkpt lat="43.839541" lon="5.133424">
        <ele>149.375866</ele>
        <time>2022-07-27T10:24:17.083Z</time>
      </trkpt>
      <trkpt lat="43.839743" lon="5.133102">
        <ele>148.745779</ele>
        <time>2022-07-27T10:24:22.737Z</time>
      </trkpt>
      <trkpt lat="43.840014" lon="5.132908">
        <ele>148.140288</ele>
        <time>2022-07-27T10:24:27.996Z</time>
      </trkpt>
      <trkpt lat="43.840447" lon="5.132583">
        <ele>147.162782</ele>
        <time>2022-07-27T10:24:36.938Z</time>
      </trkpt>
      <trkpt lat="43.840784" lon="5.132396">
        <ele>146.442153</ele>
        <time>2022-07-27T10:24:44.076Z</time>
      </trkpt>
      <trkpt lat="43.840875" lon="5.132406">
        <ele>146.260928</ele>
        <time>2022-07-27T10:24:45.987Z</time>
      </trkpt>
      <trkpt lat="43.840857" lon="5.132747">
        <ele>145.771343</ele>
        <time>2022-07-27T10:24:50.955Z</time>
      </trkpt>
      <trkpt lat="43.840998" lon="5.133109">
        <ele>145.708279</ele>
        <time>2022-07-27T10:24:57.284Z</time>
      </trkpt>
      <trkpt lat="43.841033" lon="5.133183">
        <ele>145.704571</ele>
        <time>2022-07-27T10:24:58.736Z</time>
      </trkpt>
      <trkpt lat="43.841254" lon="5.133521">
        <ele>145.685456</ele>
        <time>2022-07-27T10:25:07.316Z</time>
      </trkpt>
      <trkpt lat="43.841697" lon="5.133906">
        <ele>145.655083</ele>
        <time>2022-07-27T10:25:21.189Z</time>
      </trkpt>
      <trkpt lat="43.841730" lon="5.133929">
        <ele>145.652938</ele>
        <time>2022-07-27T10:25:22.049Z</time>
      </trkpt>
      <trkpt lat="43.841766" lon="5.133952">
        <ele>145.650635</ele>
        <time>2022-07-27T10:25:22.981Z</time>
      </trkpt>
      <trkpt lat="43.841858" lon="5.134046">
        <ele>145.643996</ele>
        <time>2022-07-27T10:25:25.437Z</time>
      </trkpt>
      <trkpt lat="43.841725" lon="5.134212">
        <ele>145.633600</ele>
        <time>2022-07-27T10:25:29.425Z</time>
      </trkpt>
      <trkpt lat="43.841449" lon="5.134769">
        <ele>145.123711</ele>
        <time>2022-07-27T10:25:40.137Z</time>
      </trkpt>
      <trkpt lat="43.841357" lon="5.135003">
        <ele>144.738147</ele>
        <time>2022-07-27T10:25:43.929Z</time>
      </trkpt>
      <trkpt lat="43.841391" lon="5.135246">
        <ele>144.380039</ele>
        <time>2022-07-27T10:25:47.276Z</time>
      </trkpt>
      <trkpt lat="43.841402" lon="5.135328">
        <ele>144.259373</ele>
        <time>2022-07-27T10:25:48.344Z</time>
      </trkpt>
      <trkpt lat="43.841553" lon="5.136333">
        <ele>142.774202</ele>
        <time>2022-07-27T10:26:01.489Z</time>
      </trkpt>
      <trkpt lat="43.841363" lon="5.135940">
        <ele>142.089725</ele>
        <time>2022-07-27T10:26:11.680Z</time>
      </trkpt>
      <trkpt lat="43.841553" lon="5.136333">
        <ele>141.570517</ele>
        <time>2022-07-27T10:26:21.705Z</time>
      </trkpt>
      <trkpt lat="43.841556" lon="5.136340">
        <ele>141.561946</ele>
        <time>2022-07-27T10:26:21.813Z</time>
      </trkpt>
      <trkpt lat="43.841987" lon="5.137102">
        <ele>140.542667</ele>
        <time>2022-07-27T10:26:34.757Z</time>
      </trkpt>
      <trkpt lat="43.842109" lon="5.137291">
        <ele>140.275694</ele>
        <time>2022-07-27T10:26:38.718Z</time>
      </trkpt>
      <trkpt lat="43.842806" lon="5.138304">
        <ele>139.418496</ele>
        <time>2022-07-27T10:27:00.813Z</time>
      </trkpt>
      <trkpt lat="43.842982" lon="5.138611">
        <ele>139.440729</ele>
        <time>2022-07-27T10:27:07.466Z</time>
      </trkpt>
      <trkpt lat="43.843508" lon="5.139245">
        <ele>139.495513</ele>
        <time>2022-07-27T10:27:24.255Z</time>
      </trkpt>
      <trkpt lat="43.843527" lon="5.139271">
        <ele>139.497612</ele>
        <time>2022-07-27T10:27:24.916Z</time>
      </trkpt>
      <trkpt lat="43.844021" lon="5.139945">
        <ele>139.387617</ele>
        <time>2022-07-27T10:27:42.197Z</time>
      </trkpt>
      <trkpt lat="43.844288" lon="5.140268">
        <ele>139.222320</ele>
        <time>2022-07-27T10:27:50.574Z</time>
      </trkpt>
      <trkpt lat="43.845121" lon="5.141230">
        <ele>138.716601</ele>
        <time>2022-07-27T10:28:13.171Z</time>
      </trkpt>
      <trkpt lat="43.845163" lon="5.141277">
        <ele>138.691424</ele>
        <time>2022-07-27T10:28:14.230Z</time>
      </trkpt>
      <trkpt lat="43.845165" lon="5.141349">
        <ele>138.617541</ele>
        <time>2022-07-27T10:28:15.179Z</time>
      </trkpt>
      <trkpt lat="43.845227" lon="5.141346">
        <ele>138.523720</ele>
        <time>2022-07-27T10:28:16.310Z</time>
      </trkpt>
      <trkpt lat="43.845362" lon="5.141628">
        <ele>138.154550</ele>
        <time>2022-07-27T10:28:20.702Z</time>
      </trkpt>
      <trkpt lat="43.845472" lon="5.142254">
        <ele>137.451799</ele>
        <time>2022-07-27T10:28:29.002Z</time>
      </trkpt>
      <trkpt lat="43.845486" lon="5.142903">
        <ele>136.743620</ele>
        <time>2022-07-27T10:28:37.311Z</time>
      </trkpt>
      <trkpt lat="43.845484" lon="5.142957">
        <ele>136.684644</ele>
        <time>2022-07-27T10:28:38.024Z</time>
      </trkpt>
      <trkpt lat="43.845450" lon="5.143816">
        <ele>135.899393</ele>
        <time>2022-07-27T10:28:49.231Z</time>
      </trkpt>
      <trkpt lat="43.845306" lon="5.146343">
        <ele>135.138905</ele>
        <time>2022-07-27T10:29:28.074Z</time>
      </trkpt>
      <trkpt lat="43.844842" lon="5.148314">
        <ele>135.322639</ele>
        <time>2022-07-27T10:30:02.685Z</time>
      </trkpt>
      <trkpt lat="43.844715" lon="5.149102">
        <ele>135.152907</ele>
        <time>2022-07-27T10:30:16.225Z</time>
      </trkpt>
      <trkpt lat="43.844526" lon="5.149798">
        <ele>134.934962</ele>
        <time>2022-07-27T10:30:27.820Z</time>
      </trkpt>
      <trkpt lat="43.844356" lon="5.150884">
        <ele>134.609294</ele>
        <time>2022-07-27T10:30:43.735Z</time>
      </trkpt>
      <trkpt lat="43.845667" lon="5.152126">
        <ele>132.056395</ele>
        <time>2022-07-27T10:31:12.698Z</time>
      </trkpt>
      <trkpt lat="43.847186" lon="5.153295">
        <ele>128.233409</ele>
        <time>2022-07-27T10:31:42.591Z</time>
      </trkpt>
      <trkpt lat="43.847439" lon="5.153490">
        <ele>127.572510</ele>
        <time>2022-07-27T10:31:47.534Z</time>
      </trkpt>
      <trkpt lat="43.847586" lon="5.153479">
        <ele>127.239138</ele>
        <time>2022-07-27T10:31:50.051Z</time>
      </trkpt>
      <trkpt lat="43.848910" lon="5.152961">
        <ele>124.123819</ele>
        <time>2022-07-27T10:32:13.490Z</time>
      </trkpt>
      <trkpt lat="43.850232" lon="5.152612">
        <ele>121.844403</ele>
        <time>2022-07-27T10:32:37.802Z</time>
      </trkpt>
      <trkpt lat="43.850850" lon="5.152435">
        <ele>120.863168</ele>
        <time>2022-07-27T10:32:49.592Z</time>
      </trkpt>
      <trkpt lat="43.850910" lon="5.154015">
        <ele>119.800469</ele>
        <time>2022-07-27T10:33:11.208Z</time>
      </trkpt>
      <trkpt lat="43.851336" lon="5.157120">
        <ele>118.772596</ele>
        <time>2022-07-27T10:33:58.343Z</time>
      </trkpt>
      <trkpt lat="43.851355" lon="5.158755">
        <ele>119.552211</ele>
        <time>2022-07-27T10:34:27.632Z</time>
      </trkpt>
      <trkpt lat="43.851532" lon="5.159549">
        <ele>120.103355</ele>
        <time>2022-07-27T10:34:43.892Z</time>
      </trkpt>
      <trkpt lat="43.851633" lon="5.159909">
        <ele>120.359528</ele>
        <time>2022-07-27T10:34:51.453Z</time>
      </trkpt>
      <trkpt lat="43.851927" lon="5.160895">
        <ele>121.752836</ele>
        <time>2022-07-27T10:35:13.659Z</time>
      </trkpt>
      <trkpt lat="43.852312" lon="5.161556">
        <ele>122.865050</ele>
        <time>2022-07-27T10:35:31.543Z</time>
      </trkpt>
      <trkpt lat="43.852344" lon="5.161602">
        <ele>122.948713</ele>
        <time>2022-07-27T10:35:32.887Z</time>
      </trkpt>
      <trkpt lat="43.852715" lon="5.162201">
        <ele>123.983095</ele>
        <time>2022-07-27T10:35:51.280Z</time>
      </trkpt>
      <trkpt lat="43.852879" lon="5.162640">
        <ele>124.631732</ele>
        <time>2022-07-27T10:36:02.448Z</time>
      </trkpt>
      <trkpt lat="43.853110" lon="5.163561">
        <ele>125.911021</ele>
        <time>2022-07-27T10:36:23.462Z</time>
      </trkpt>
      <trkpt lat="43.853147" lon="5.163744">
        <ele>126.160362</ele>
        <time>2022-07-27T10:36:27.351Z</time>
      </trkpt>
      <trkpt lat="43.853141" lon="5.164212">
        <ele>126.774442</ele>
        <time>2022-07-27T10:36:36.615Z</time>
      </trkpt>
      <trkpt lat="43.853040" lon="5.165433">
        <ele>127.762664</ele>
        <time>2022-07-27T10:36:59.841Z</time>
      </trkpt>
      <trkpt lat="43.852935" lon="5.166596">
        <ele>128.654811</ele>
        <time>2022-07-27T10:37:21.403Z</time>
      </trkpt>
      <trkpt lat="43.852917" lon="5.166724">
        <ele>128.754075</ele>
        <time>2022-07-27T10:37:23.908Z</time>
      </trkpt>
      <trkpt lat="43.852734" lon="5.167697">
        <ele>129.916864</ele>
        <time>2022-07-27T10:37:44.421Z</time>
      </trkpt>
      <trkpt lat="43.852148" lon="5.169424">
        <ele>132.229069</ele>
        <time>2022-07-27T10:38:24.989Z</time>
      </trkpt>
      <trkpt lat="43.851999" lon="5.170027">
        <ele>133.084898</ele>
        <time>2022-07-27T10:38:39.049Z</time>
      </trkpt>
      <trkpt lat="43.851898" lon="5.170744">
        <ele>134.065777</ele>
        <time>2022-07-27T10:38:55.068Z</time>
      </trkpt>
      <trkpt lat="43.851467" lon="5.172313">
        <ele>136.048147</ele>
        <time>2022-07-27T10:39:29.925Z</time>
      </trkpt>
      <trkpt lat="43.850973" lon="5.174038">
        <ele>137.830243</ele>
        <time>2022-07-27T10:40:07.261Z</time>
      </trkpt>
      <trkpt lat="43.850705" lon="5.175490">
        <ele>138.539723</ele>
        <time>2022-07-27T10:40:33.877Z</time>
      </trkpt>
      <trkpt lat="43.850652" lon="5.176109">
        <ele>138.834795</ele>
        <time>2022-07-27T10:40:44.105Z</time>
      </trkpt>
      <trkpt lat="43.850632" lon="5.177436">
        <ele>139.323690</ele>
        <time>2022-07-27T10:41:07.292Z</time>
      </trkpt>
      <trkpt lat="43.850597" lon="5.177798">
        <ele>139.455234</ele>
        <time>2022-07-27T10:41:14.146Z</time>
      </trkpt>
      <trkpt lat="43.850599" lon="5.177943">
        <ele>139.507467</ele>
        <time>2022-07-27T10:41:16.751Z</time>
      </trkpt>
      <trkpt lat="43.850638" lon="5.178842">
        <ele>139.719940</ele>
        <time>2022-07-27T10:41:32.655Z</time>
      </trkpt>
      <trkpt lat="43.850652" lon="5.179844">
        <ele>139.323813</ele>
        <time>2022-07-27T10:41:48.931Z</time>
      </trkpt>
      <trkpt lat="43.850626" lon="5.181476">
        <ele>138.461907</ele>
        <time>2022-07-27T10:42:11.435Z</time>
      </trkpt>
      <trkpt lat="43.850515" lon="5.182371">
        <ele>137.421054</ele>
        <time>2022-07-27T10:42:22.856Z</time>
      </trkpt>
      <trkpt lat="43.850262" lon="5.183342">
        <ele>136.237739</ele>
        <time>2022-07-27T10:42:36.097Z</time>
      </trkpt>
      <trkpt lat="43.849999" lon="5.183956">
        <ele>135.958351</ele>
        <time>2022-07-27T10:42:45.955Z</time>
      </trkpt>
      <trkpt lat="43.849726" lon="5.184429">
        <ele>135.991158</ele>
        <time>2022-07-27T10:42:55.710Z</time>
      </trkpt>
      <trkpt lat="43.848518" lon="5.185833">
        <ele>136.533898</ele>
        <time>2022-07-27T10:43:34.913Z</time>
      </trkpt>
      <trkpt lat="43.848176" lon="5.186593">
        <ele>137.091651</ele>
        <time>2022-07-27T10:43:51.509Z</time>
      </trkpt>
      <trkpt lat="43.848020" lon="5.187222">
        <ele>137.505792</ele>
        <time>2022-07-27T10:44:03.626Z</time>
      </trkpt>
      <trkpt lat="43.847481" lon="5.190105">
        <ele>140.637813</ele>
        <time>2022-07-27T10:45:02.069Z</time>
      </trkpt>
      <trkpt lat="43.847470" lon="5.190160">
        <ele>140.762366</ele>
        <time>2022-07-27T10:45:03.339Z</time>
      </trkpt>
      <trkpt lat="43.847173" lon="5.191752">
        <ele>144.350863</ele>
        <time>2022-07-27T10:45:44.936Z</time>
      </trkpt>
      <trkpt lat="43.846402" lon="5.193986">
        <ele>150.350529</ele>
        <time>2022-07-27T10:46:53.751Z</time>
      </trkpt>
      <trkpt lat="43.845816" lon="5.195639">
        <ele>152.387312</ele>
        <time>2022-07-27T10:47:32.191Z</time>
      </trkpt>
      <trkpt lat="43.845246" lon="5.197200">
        <ele>153.057459</ele>
        <time>2022-07-27T10:47:58.428Z</time>
      </trkpt>
      <trkpt lat="43.844905" lon="5.197844">
        <ele>153.057516</ele>
        <time>2022-07-27T10:48:10.232Z</time>
      </trkpt>
      <trkpt lat="43.844861" lon="5.197917">
        <ele>153.057523</ele>
        <time>2022-07-27T10:48:11.652Z</time>
      </trkpt>
      <trkpt lat="43.844171" lon="5.198830">
        <ele>153.370524</ele>
        <time>2022-07-27T10:48:34.806Z</time>
      </trkpt>
      <trkpt lat="43.843394" lon="5.199607">
        <ele>154.719473</ele>
        <time>2022-07-27T10:49:02.036Z</time>
      </trkpt>
      <trkpt lat="43.842662" lon="5.200247">
        <ele>156.170031</ele>
        <time>2022-07-27T10:49:27.335Z</time>
      </trkpt>
      <trkpt lat="43.841658" lon="5.200968">
        <ele>158.824314</ele>
        <time>2022-07-27T10:50:00.850Z</time>
      </trkpt>
      <trkpt lat="43.841518" lon="5.201074">
        <ele>159.198777</ele>
        <time>2022-07-27T10:50:06.797Z</time>
      </trkpt>
      <trkpt lat="43.841413" lon="5.201141">
        <ele>159.470118</ele>
        <time>2022-07-27T10:50:10.391Z</time>
      </trkpt>
      <trkpt lat="43.841129" lon="5.201249">
        <ele>160.631150</ele>
        <time>2022-07-27T10:50:21.456Z</time>
      </trkpt>
      <trkpt lat="43.840421" lon="5.201335">
        <ele>164.545871</ele>
        <time>2022-07-27T10:50:49.730Z</time>
      </trkpt>
      <trkpt lat="43.840367" lon="5.201360">
        <ele>164.859457</ele>
        <time>2022-07-27T10:50:52.005Z</time>
      </trkpt>
      <trkpt lat="43.840306" lon="5.201406">
        <ele>165.241941</ele>
        <time>2022-07-27T10:50:54.852Z</time>
      </trkpt>
      <trkpt lat="43.840211" lon="5.201334">
        <ele>165.838298</ele>
        <time>2022-07-27T10:51:00.802Z</time>
      </trkpt>
      <trkpt lat="43.839372" lon="5.201371">
        <ele>170.942179</ele>
        <time>2022-07-27T10:51:41.861Z</time>
      </trkpt>
      <trkpt lat="43.839070" lon="5.201557">
        <ele>173.940056</ele>
        <time>2022-07-27T10:52:00.625Z</time>
      </trkpt>
      <trkpt lat="43.836404" lon="5.203294">
        <ele>201.860445</ele>
        <time>2022-07-27T10:55:04.286Z</time>
      </trkpt>
      <trkpt lat="43.836060" lon="5.203484">
        <ele>205.262230</ele>
        <time>2022-07-27T10:55:27.820Z</time>
      </trkpt>
      <trkpt lat="43.836323" lon="5.203015">
        <ele>208.926268</ele>
        <time>2022-07-27T10:55:54.652Z</time>
      </trkpt>
      <trkpt lat="43.836336" lon="5.202945">
        <ele>209.372097</ele>
        <time>2022-07-27T10:55:57.927Z</time>
      </trkpt>
      <trkpt lat="43.836291" lon="5.202939">
        <ele>209.758656</ele>
        <time>2022-07-27T10:56:00.668Z</time>
      </trkpt>
      <trkpt lat="43.835034" lon="5.204009">
        <ele>221.190848</ele>
        <time>2022-07-27T10:57:21.104Z</time>
      </trkpt>
      <trkpt lat="43.833981" lon="5.204981">
        <ele>228.140998</ele>
        <time>2022-07-27T10:58:16.885Z</time>
      </trkpt>
      <trkpt lat="43.833242" lon="5.205783">
        <ele>230.579969</ele>
        <time>2022-07-27T10:58:49.551Z</time>
      </trkpt>
      <trkpt lat="43.833078" lon="5.206049">
        <ele>231.099812</ele>
        <time>2022-07-27T10:58:56.608Z</time>
      </trkpt>
      <trkpt lat="43.833016" lon="5.206036">
        <ele>231.228951</ele>
        <time>2022-07-27T10:58:58.553Z</time>
      </trkpt>
      <trkpt lat="43.832739" lon="5.206322">
        <ele>231.940263</ele>
        <time>2022-07-27T10:59:07.777Z</time>
      </trkpt>
      <trkpt lat="43.832470" lon="5.206436">
        <ele>232.519566</ele>
        <time>2022-07-27T10:59:14.707Z</time>
      </trkpt>
      <trkpt lat="43.832428" lon="5.206437">
        <ele>232.606076</ele>
        <time>2022-07-27T10:59:16.087Z</time>
      </trkpt>
      <trkpt lat="43.832442" lon="5.206560">
        <ele>232.618731</ele>
        <time>2022-07-27T10:59:18.347Z</time>
      </trkpt>
      <trkpt lat="43.832378" lon="5.206947">
        <ele>232.462217</ele>
        <time>2022-07-27T10:59:25.871Z</time>
      </trkpt>
      <trkpt lat="43.832261" lon="5.207256">
        <ele>232.324648</ele>
        <time>2022-07-27T10:59:32.030Z</time>
      </trkpt>
      <trkpt lat="43.831997" lon="5.207443">
        <ele>232.162639</ele>
        <time>2022-07-27T10:59:38.888Z</time>
      </trkpt>
      <trkpt lat="43.831767" lon="5.207597">
        <ele>232.023058</ele>
        <time>2022-07-27T10:59:43.838Z</time>
      </trkpt>
      <trkpt lat="43.831636" lon="5.207765">
        <ele>231.925536</ele>
        <time>2022-07-27T10:59:47.037Z</time>
      </trkpt>
      <trkpt lat="43.831600" lon="5.207823">
        <ele>231.895373</ele>
        <time>2022-07-27T10:59:48.081Z</time>
      </trkpt>
      <trkpt lat="43.831190" lon="5.208633">
        <ele>230.588862</ele>
        <time>2022-07-27T11:00:00.491Z</time>
      </trkpt>
      <trkpt lat="43.831065" lon="5.208896">
        <ele>229.782046</ele>
        <time>2022-07-27T11:00:04.463Z</time>
      </trkpt>
      <trkpt lat="43.831035" lon="5.209115">
        <ele>229.211004</ele>
        <time>2022-07-27T11:00:07.162Z</time>
      </trkpt>
      <trkpt lat="43.831525" lon="5.210105">
        <ele>226.135368</ele>
        <time>2022-07-27T11:00:21.057Z</time>
      </trkpt>
      <trkpt lat="43.831687" lon="5.210950">
        <ele>222.589524</ele>
        <time>2022-07-27T11:00:30.313Z</time>
      </trkpt>
      <trkpt lat="43.831765" lon="5.211696">
        <ele>218.843082</ele>
        <time>2022-07-27T11:00:37.998Z</time>
      </trkpt>
      <trkpt lat="43.831753" lon="5.211957">
        <ele>217.543253</ele>
        <time>2022-07-27T11:00:40.636Z</time>
      </trkpt>
      <trkpt lat="43.831218" lon="5.214834">
        <ele>204.262228</ele>
        <time>2022-07-27T11:01:11.225Z</time>
      </trkpt>
      <trkpt lat="43.831241" lon="5.215023">
        <ele>203.449488</ele>
        <time>2022-07-27T11:01:13.435Z</time>
      </trkpt>
      <trkpt lat="43.831203" lon="5.215112">
        <ele>203.010954</ele>
        <time>2022-07-27T11:01:14.770Z</time>
      </trkpt>
      <trkpt lat="43.831132" lon="5.215278">
        <ele>202.325487</ele>
        <time>2022-07-27T11:01:17.192Z</time>
      </trkpt>
      <trkpt lat="43.831098" lon="5.215359">
        <ele>202.342157</ele>
        <time>2022-07-27T11:01:18.358Z</time>
      </trkpt>
      <trkpt lat="43.831043" lon="5.215489">
        <ele>202.368964</ele>
        <time>2022-07-27T11:01:20.325Z</time>
      </trkpt>
      <trkpt lat="43.830780" lon="5.216100">
        <ele>202.495524</ele>
        <time>2022-07-27T11:01:31.346Z</time>
      </trkpt>
      <trkpt lat="43.830390" lon="5.217602">
        <ele>202.770014</ele>
        <time>2022-07-27T11:02:05.846Z</time>
      </trkpt>
      <trkpt lat="43.830043" lon="5.220129">
        <ele>202.816952</ele>
        <time>2022-07-27T11:02:46.370Z</time>
      </trkpt>
      <trkpt lat="43.829726" lon="5.221543">
        <ele>201.714138</ele>
        <time>2022-07-27T11:03:06.783Z</time>
      </trkpt>
      <trkpt lat="43.829047" lon="5.224085">
        <ele>200.274445</ele>
        <time>2022-07-27T11:03:43.253Z</time>
      </trkpt>
      <trkpt lat="43.828510" lon="5.226080">
        <ele>202.321473</ele>
        <time>2022-07-27T11:04:24.851Z</time>
      </trkpt>
      <trkpt lat="43.828331" lon="5.226519">
        <ele>203.100026</ele>
        <time>2022-07-27T11:04:38.103Z</time>
      </trkpt>
      <trkpt lat="43.827311" lon="5.228279">
        <ele>208.206276</ele>
        <time>2022-07-27T11:05:39.004Z</time>
      </trkpt>
      <trkpt lat="43.825768" lon="5.230588">
        <ele>214.585601</ele>
        <time>2022-07-27T11:06:54.204Z</time>
      </trkpt>
      <trkpt lat="43.825590" lon="5.231128">
        <ele>215.496727</ele>
        <time>2022-07-27T11:07:07.096Z</time>
      </trkpt>
      <trkpt lat="43.825402" lon="5.232240">
        <ele>217.195808</ele>
        <time>2022-07-27T11:07:31.252Z</time>
      </trkpt>
      <trkpt lat="43.825287" lon="5.232963">
        <ele>218.297212</ele>
        <time>2022-07-27T11:07:48.004Z</time>
      </trkpt>
      <trkpt lat="43.825165" lon="5.233704">
        <ele>219.786878</ele>
        <time>2022-07-27T11:08:04.572Z</time>
      </trkpt>
      <trkpt lat="43.825030" lon="5.234530">
        <ele>221.497137</ele>
        <time>2022-07-27T11:08:24.745Z</time>
      </trkpt>
      <trkpt lat="43.824940" lon="5.234817">
        <ele>222.129076</ele>
        <time>2022-07-27T11:08:32.504Z</time>
      </trkpt>
      <trkpt lat="43.824797" lon="5.235008">
        <ele>222.684927</ele>
        <time>2022-07-27T11:08:39.235Z</time>
      </trkpt>
      <trkpt lat="43.824386" lon="5.235220">
        <ele>224.183504</ele>
        <time>2022-07-27T11:08:55.082Z</time>
      </trkpt>
      <trkpt lat="43.824171" lon="5.235479">
        <ele>225.456459</ele>
        <time>2022-07-27T11:09:06.079Z</time>
      </trkpt>
      <trkpt lat="43.822711" lon="5.237959">
        <ele>235.883009</ele>
        <time>2022-07-27T11:10:41.780Z</time>
      </trkpt>
      <trkpt lat="43.822613" lon="5.238130">
        <ele>236.604641</ele>
        <time>2022-07-27T11:10:48.306Z</time>
      </trkpt>
      <trkpt lat="43.822551" lon="5.238239">
        <ele>237.063299</ele>
        <time>2022-07-27T11:10:52.457Z</time>
      </trkpt>
      <trkpt lat="43.821751" lon="5.241730">
        <ele>248.168310</ele>
        <time>2022-07-27T11:12:35.714Z</time>
      </trkpt>
      <trkpt lat="43.821600" lon="5.241995">
        <ele>249.042415</ele>
        <time>2022-07-27T11:12:44.788Z</time>
      </trkpt>
      <trkpt lat="43.820852" lon="5.242940">
        <ele>252.673679</ele>
        <time>2022-07-27T11:13:20.624Z</time>
      </trkpt>
      <trkpt lat="43.820714" lon="5.243225">
        <ele>253.562173</ele>
        <time>2022-07-27T11:13:29.466Z</time>
      </trkpt>
      <trkpt lat="43.820608" lon="5.243907">
        <ele>255.536992</ele>
        <time>2022-07-27T11:13:47.736Z</time>
      </trkpt>
      <trkpt lat="43.820726" lon="5.244451">
        <ele>257.154996</ele>
        <time>2022-07-27T11:14:02.935Z</time>
      </trkpt>
      <trkpt lat="43.820935" lon="5.244979">
        <ele>258.870374</ele>
        <time>2022-07-27T11:14:19.571Z</time>
      </trkpt>
      <trkpt lat="43.820989" lon="5.245302">
        <ele>259.814757</ele>
        <time>2022-07-27T11:14:29.042Z</time>
      </trkpt>
      <trkpt lat="43.820910" lon="5.247322">
        <ele>266.265553</ele>
        <time>2022-07-27T11:15:29.031Z</time>
      </trkpt>
      <trkpt lat="43.820658" lon="5.248360">
        <ele>269.686694</ele>
        <time>2022-07-27T11:16:00.374Z</time>
      </trkpt>
      <trkpt lat="43.820075" lon="5.249553">
        <ele>273.637658</ele>
        <time>2022-07-27T11:16:39.742Z</time>
      </trkpt>
      <trkpt lat="43.819960" lon="5.249889">
        <ele>274.657393</ele>
        <time>2022-07-27T11:16:49.517Z</time>
      </trkpt>
      <trkpt lat="43.819964" lon="5.250892">
        <ele>277.210348</ele>
        <time>2022-07-27T11:17:14.932Z</time>
      </trkpt>
      <trkpt lat="43.819856" lon="5.251903">
        <ele>279.680684</ele>
        <time>2022-07-27T11:17:40.434Z</time>
      </trkpt>
      <trkpt lat="43.819956" lon="5.252652">
        <ele>281.521833</ele>
        <time>2022-07-27T11:18:00.170Z</time>
      </trkpt>
      <trkpt lat="43.819908" lon="5.253027">
        <ele>282.687429</ele>
        <time>2022-07-27T11:18:10.413Z</time>
      </trkpt>
      <trkpt lat="43.819782" lon="5.253387">
        <ele>284.005805</ele>
        <time>2022-07-27T11:18:21.259Z</time>
      </trkpt>
      <trkpt lat="43.819260" lon="5.254358">
        <ele>287.995637</ele>
        <time>2022-07-27T11:18:56.856Z</time>
      </trkpt>
      <trkpt lat="43.818736" lon="5.255690">
        <ele>293.379629</ele>
        <time>2022-07-27T11:19:45.632Z</time>
      </trkpt>
      <trkpt lat="43.818649" lon="5.256076">
        <ele>294.882423</ele>
        <time>2022-07-27T11:19:58.388Z</time>
      </trkpt>
      <trkpt lat="43.818642" lon="5.256461">
        <ele>296.313601</ele>
        <time>2022-07-27T11:20:10.756Z</time>
      </trkpt>
      <trkpt lat="43.818641" lon="5.256553">
        <ele>296.655527</ele>
        <time>2022-07-27T11:20:13.348Z</time>
      </trkpt>
      <trkpt lat="43.818615" lon="5.257358">
        <ele>299.538976</ele>
        <time>2022-07-27T11:20:37.951Z</time>
      </trkpt>
      <trkpt lat="43.817891" lon="5.260218">
        <ele>307.192224</ele>
        <time>2022-07-27T11:21:57.543Z</time>
      </trkpt>
      <trkpt lat="43.817845" lon="5.260534">
        <ele>307.802365</ele>
        <time>2022-07-27T11:22:04.714Z</time>
      </trkpt>
      <trkpt lat="43.817913" lon="5.260877">
        <ele>308.475617</ele>
        <time>2022-07-27T11:22:13.309Z</time>
      </trkpt>
      <trkpt lat="43.818148" lon="5.261337">
        <ele>309.542386</ele>
        <time>2022-07-27T11:22:26.089Z</time>
      </trkpt>
      <trkpt lat="43.818573" lon="5.261726">
        <ele>310.916563</ele>
        <time>2022-07-27T11:22:41.107Z</time>
      </trkpt>
      <trkpt lat="43.818625" lon="5.261831">
        <ele>311.205327</ele>
        <time>2022-07-27T11:22:44.032Z</time>
      </trkpt>
      <trkpt lat="43.818686" lon="5.262092">
        <ele>311.827396</ele>
        <time>2022-07-27T11:22:49.736Z</time>
      </trkpt>
      <trkpt lat="43.818686" lon="5.262453">
        <ele>312.645935</ele>
        <time>2022-07-27T11:22:58.438Z</time>
      </trkpt>
      <trkpt lat="43.818661" lon="5.263282">
        <ele>314.527269</ele>
        <time>2022-07-27T11:23:19.238Z</time>
      </trkpt>
      <trkpt lat="43.818567" lon="5.263601">
        <ele>315.308572</ele>
        <time>2022-07-27T11:23:28.571Z</time>
      </trkpt>
      <trkpt lat="43.818371" lon="5.263845">
        <ele>316.136496</ele>
        <time>2022-07-27T11:23:39.447Z</time>
      </trkpt>
      <trkpt lat="43.817448" lon="5.264656">
        <ele>320.678232</ele>
        <time>2022-07-27T11:24:21.599Z</time>
      </trkpt>
      <trkpt lat="43.817228" lon="5.264913">
        <ele>321.892129</ele>
        <time>2022-07-27T11:24:32.906Z</time>
      </trkpt>
      <trkpt lat="43.817150" lon="5.265082">
        <ele>322.502835</ele>
        <time>2022-07-27T11:24:38.396Z</time>
      </trkpt>
      <trkpt lat="43.816964" lon="5.266395">
        <ele>326.440252</ele>
        <time>2022-07-27T11:25:17.736Z</time>
      </trkpt>
      <trkpt lat="43.817102" lon="5.267326">
        <ele>329.185206</ele>
        <time>2022-07-27T11:25:43.308Z</time>
      </trkpt>
      <trkpt lat="43.817171" lon="5.268026">
        <ele>331.224080</ele>
        <time>2022-07-27T11:26:02.042Z</time>
      </trkpt>
      <trkpt lat="43.817045" lon="5.268969">
        <ele>333.950855</ele>
        <time>2022-07-27T11:26:27.449Z</time>
      </trkpt>
      <trkpt lat="43.817056" lon="5.269150">
        <ele>334.467307</ele>
        <time>2022-07-27T11:26:32.472Z</time>
      </trkpt>
      <trkpt lat="43.817200" lon="5.269631">
        <ele>335.947955</ele>
        <time>2022-07-27T11:26:47.590Z</time>
      </trkpt>
      <trkpt lat="43.817220" lon="5.269950">
        <ele>336.858370</ele>
        <time>2022-07-27T11:26:56.740Z</time>
      </trkpt>
      <trkpt lat="43.817048" lon="5.270443">
        <ele>338.404663</ele>
        <time>2022-07-27T11:27:11.299Z</time>
      </trkpt>
      <trkpt lat="43.816047" lon="5.272690">
        <ele>345.034647</ele>
        <time>2022-07-27T11:28:23.227Z</time>
      </trkpt>
      <trkpt lat="43.815797" lon="5.273172">
        <ele>345.328138</ele>
        <time>2022-07-27T11:28:36.936Z</time>
      </trkpt>
      <trkpt lat="43.815392" lon="5.273657">
        <ele>345.694900</ele>
        <time>2022-07-27T11:28:51.918Z</time>
      </trkpt>
      <trkpt lat="43.815259" lon="5.273977">
        <ele>345.877487</ele>
        <time>2022-07-27T11:28:57.712Z</time>
      </trkpt>
      <trkpt lat="43.815091" lon="5.275776">
        <ele>342.492082</ele>
        <time>2022-07-27T11:29:19.368Z</time>
      </trkpt>
      <trkpt lat="43.815023" lon="5.276442">
        <ele>340.511556</ele>
        <time>2022-07-27T11:29:26.683Z</time>
      </trkpt>
      <trkpt lat="43.815028" lon="5.276842">
        <ele>339.333605</ele>
        <time>2022-07-27T11:29:31.020Z</time>
      </trkpt>
      <trkpt lat="43.815310" lon="5.277881">
        <ele>334.942576</ele>
        <time>2022-07-27T11:29:42.697Z</time>
      </trkpt>
      <trkpt lat="43.815401" lon="5.279068">
        <ele>329.995398</ele>
        <time>2022-07-27T11:29:55.178Z</time>
      </trkpt>
      <trkpt lat="43.815140" lon="5.280139">
        <ele>326.422353</ele>
        <time>2022-07-27T11:30:08.020Z</time>
      </trkpt>
      <trkpt lat="43.814902" lon="5.280869">
        <ele>324.264021</ele>
        <time>2022-07-27T11:30:17.493Z</time>
      </trkpt>
      <trkpt lat="43.814659" lon="5.281234">
        <ele>322.925939</ele>
        <time>2022-07-27T11:30:23.154Z</time>
      </trkpt>
      <trkpt lat="43.814402" lon="5.281539">
        <ele>321.631909</ele>
        <time>2022-07-27T11:30:28.663Z</time>
      </trkpt>
      <trkpt lat="43.814343" lon="5.281754">
        <ele>320.839419</ele>
        <time>2022-07-27T11:30:31.229Z</time>
      </trkpt>
      <trkpt lat="43.814354" lon="5.281878">
        <ele>320.408990</ele>
        <time>2022-07-27T11:30:33.666Z</time>
      </trkpt>
      <trkpt lat="43.814557" lon="5.282539">
        <ele>317.933993</ele>
        <time>2022-07-27T11:30:41.515Z</time>
      </trkpt>
      <trkpt lat="43.814949" lon="5.282941">
        <ele>315.605645</ele>
        <time>2022-07-27T11:30:49.144Z</time>
      </trkpt>
      <trkpt lat="43.815129" lon="5.283263">
        <ele>314.202329</ele>
        <time>2022-07-27T11:30:53.512Z</time>
      </trkpt>
      <trkpt lat="43.815202" lon="5.283599">
        <ele>312.946863</ele>
        <time>2022-07-27T11:30:57.155Z</time>
      </trkpt>
      <trkpt lat="43.815211" lon="5.284386">
        <ele>309.575144</ele>
        <time>2022-07-27T11:31:05.167Z</time>
      </trkpt>
      <trkpt lat="43.815183" lon="5.286253">
        <ele>301.897115</ele>
        <time>2022-07-27T11:31:25.187Z</time>
      </trkpt>
      <trkpt lat="43.814923" lon="5.286956">
        <ele>299.681386</ele>
        <time>2022-07-27T11:31:34.121Z</time>
      </trkpt>
      <trkpt lat="43.814873" lon="5.287488">
        <ele>298.176595</ele>
        <time>2022-07-27T11:31:40.166Z</time>
      </trkpt>
      <trkpt lat="43.814896" lon="5.287798">
        <ele>297.302503</ele>
        <time>2022-07-27T11:31:43.668Z</time>
      </trkpt>
      <trkpt lat="43.815000" lon="5.288035">
        <ele>296.524480</ele>
        <time>2022-07-27T11:31:46.932Z</time>
      </trkpt>
      <trkpt lat="43.815163" lon="5.288211">
        <ele>295.721272</ele>
        <time>2022-07-27T11:31:50.370Z</time>
      </trkpt>
      <trkpt lat="43.816102" lon="5.288856">
        <ele>293.903062</ele>
        <time>2022-07-27T11:32:08.687Z</time>
      </trkpt>
      <trkpt lat="43.816358" lon="5.289024">
        <ele>293.444126</ele>
        <time>2022-07-27T11:32:13.941Z</time>
      </trkpt>
      <trkpt lat="43.816620" lon="5.289113">
        <ele>293.007056</ele>
        <time>2022-07-27T11:32:19.045Z</time>
      </trkpt>
      <trkpt lat="43.816905" lon="5.289055">
        <ele>292.645021</ele>
        <time>2022-07-27T11:32:24.633Z</time>
      </trkpt>
      <trkpt lat="43.816977" lon="5.289040">
        <ele>292.730749</ele>
        <time>2022-07-27T11:32:26.268Z</time>
      </trkpt>
      <trkpt lat="43.817509" lon="5.288656">
        <ele>293.437003</ele>
        <time>2022-07-27T11:32:40.989Z</time>
      </trkpt>
      <trkpt lat="43.817633" lon="5.288633">
        <ele>293.584306</ele>
        <time>2022-07-27T11:32:44.812Z</time>
      </trkpt>
      <trkpt lat="43.818067" lon="5.288775">
        <ele>294.109356</ele>
        <time>2022-07-27T11:32:57.839Z</time>
      </trkpt>
      <trkpt lat="43.818226" lon="5.288972">
        <ele>294.360470</ele>
        <time>2022-07-27T11:33:04.229Z</time>
      </trkpt>
      <trkpt lat="43.818581" lon="5.289921">
        <ele>295.233828</ele>
        <time>2022-07-27T11:33:28.773Z</time>
      </trkpt>
      <trkpt lat="43.819012" lon="5.290688">
        <ele>296.007489</ele>
        <time>2022-07-27T11:33:48.498Z</time>
      </trkpt>
      <trkpt lat="43.819760" lon="5.291561">
        <ele>296.040711</ele>
        <time>2022-07-27T11:34:10.217Z</time>
      </trkpt>
      <trkpt lat="43.819917" lon="5.291502">
        <ele>295.731090</ele>
        <time>2022-07-27T11:34:13.062Z</time>
      </trkpt>
      <trkpt lat="43.820249" lon="5.291626">
        <ele>295.076624</ele>
        <time>2022-07-27T11:34:19.344Z</time>
      </trkpt>
      <trkpt lat="43.820483" lon="5.291631">
        <ele>294.631180</ele>
        <time>2022-07-27T11:34:23.483Z</time>
      </trkpt>
      <trkpt lat="43.820639" lon="5.291507">
        <ele>294.288886</ele>
        <time>2022-07-27T11:34:26.457Z</time>
      </trkpt>
      <trkpt lat="43.820717" lon="5.291311">
        <ele>293.981489</ele>
        <time>2022-07-27T11:34:29.145Z</time>
      </trkpt>
      <trkpt lat="43.820898" lon="5.291488">
        <ele>293.559856</ele>
        <time>2022-07-27T11:34:32.867Z</time>
      </trkpt>
      <trkpt lat="43.821210" lon="5.292210">
        <ele>291.906146</ele>
        <time>2022-07-27T11:34:43.138Z</time>
      </trkpt>
      <trkpt lat="43.821507" lon="5.292717">
        <ele>290.498872</ele>
        <time>2022-07-27T11:34:51.341Z</time>
      </trkpt>
      <trkpt lat="43.821630" lon="5.293012">
        <ele>289.764675</ele>
        <time>2022-07-27T11:34:55.519Z</time>
      </trkpt>
      <trkpt lat="43.821760" lon="5.293570">
        <ele>288.501134</ele>
        <time>2022-07-27T11:35:03.113Z</time>
      </trkpt>
      <trkpt lat="43.822590" lon="5.294720">
        <ele>285.165082</ele>
        <time>2022-07-27T11:35:23.534Z</time>
      </trkpt>
      <trkpt lat="43.822913" lon="5.295251">
        <ele>283.755390</ele>
        <time>2022-07-27T11:35:32.063Z</time>
      </trkpt>
      <trkpt lat="43.823517" lon="5.295825">
        <ele>283.109745</ele>
        <time>2022-07-27T11:35:44.866Z</time>
      </trkpt>
      <trkpt lat="43.823910" lon="5.295991">
        <ele>283.373147</ele>
        <time>2022-07-27T11:35:54.030Z</time>
      </trkpt>
      <trkpt lat="43.824503" lon="5.296101">
        <ele>283.756722</ele>
        <time>2022-07-27T11:36:11.100Z</time>
      </trkpt>
      <trkpt lat="43.824859" lon="5.296330">
        <ele>284.080906</ele>
        <time>2022-07-27T11:36:24.829Z</time>
      </trkpt>
      <trkpt lat="43.825081" lon="5.296574">
        <ele>285.912137</ele>
        <time>2022-07-27T11:36:36.953Z</time>
      </trkpt>
      <trkpt lat="43.825166" lon="5.296761">
        <ele>286.942764</ele>
        <time>2022-07-27T11:36:43.797Z</time>
      </trkpt>
      <trkpt lat="43.825420" lon="5.297980">
        <ele>292.859327</ele>
        <time>2022-07-27T11:37:33.373Z</time>
      </trkpt>
      <trkpt lat="43.825790" lon="5.299440">
        <ele>300.253004</ele>
        <time>2022-07-27T11:38:31.306Z</time>
      </trkpt>
      <trkpt lat="43.825780" lon="5.299890">
        <ele>302.436272</ele>
        <time>2022-07-27T11:38:47.639Z</time>
      </trkpt>
      <trkpt lat="43.825720" lon="5.300220">
        <ele>304.086615</ele>
        <time>2022-07-27T11:38:59.946Z</time>
      </trkpt>
      <trkpt lat="43.825400" lon="5.300780">
        <ele>307.550941</ele>
        <time>2022-07-27T11:39:25.422Z</time>
      </trkpt>
      <trkpt lat="43.825318" lon="5.300991">
        <ele>308.429662</ele>
        <time>2022-07-27T11:39:33.347Z</time>
      </trkpt>
      <trkpt lat="43.825280" lon="5.301090">
        <ele>308.818902</ele>
        <time>2022-07-27T11:39:37.278Z</time>
      </trkpt>
      <trkpt lat="43.824994" lon="5.302599">
        <ele>314.234434</ele>
        <time>2022-07-27T11:40:26.883Z</time>
      </trkpt>
      <trkpt lat="43.824832" lon="5.303170">
        <ele>316.364152</ele>
        <time>2022-07-27T11:40:44.456Z</time>
      </trkpt>
      <trkpt lat="43.824755" lon="5.303677">
        <ele>315.817009</ele>
        <time>2022-07-27T11:40:56.396Z</time>
      </trkpt>
      <trkpt lat="43.824762" lon="5.303868">
        <ele>315.612571</ele>
        <time>2022-07-27T11:41:00.090Z</time>
      </trkpt>
      <trkpt lat="43.824865" lon="5.304037">
        <ele>315.376080</ele>
        <time>2022-07-27T11:41:03.821Z</time>
      </trkpt>
      <trkpt lat="43.824685" lon="5.304234">
        <ele>315.036259</ele>
        <time>2022-07-27T11:41:08.251Z</time>
      </trkpt>
      <trkpt lat="43.824865" lon="5.304037">
        <ele>314.696438</ele>
        <time>2022-07-27T11:41:12.118Z</time>
      </trkpt>
      <trkpt lat="43.825237" lon="5.303687">
        <ele>314.030263</ele>
        <time>2022-07-27T11:41:19.209Z</time>
      </trkpt>
      <trkpt lat="43.825942" lon="5.303027">
        <ele>309.155729</ele>
        <time>2022-07-27T11:41:31.658Z</time>
      </trkpt>
      <trkpt lat="43.826050" lon="5.302898">
        <ele>308.127572</ele>
        <time>2022-07-27T11:41:33.654Z</time>
      </trkpt>
      <trkpt lat="43.826558" lon="5.302162">
        <ele>302.828016</ele>
        <time>2022-07-27T11:41:43.924Z</time>
      </trkpt>
      <trkpt lat="43.826992" lon="5.301383">
        <ele>297.560670</ele>
        <time>2022-07-27T11:41:53.871Z</time>
      </trkpt>
      <trkpt lat="43.827224" lon="5.300928">
        <ele>294.521464</ele>
        <time>2022-07-27T11:41:59.570Z</time>
      </trkpt>
      <trkpt lat="43.827758" lon="5.300061">
        <ele>288.303182</ele>
        <time>2022-07-27T11:42:11.324Z</time>
      </trkpt>
      <trkpt lat="43.828514" lon="5.298987">
        <ele>279.689667</ele>
        <time>2022-07-27T11:42:26.540Z</time>
      </trkpt>
      <trkpt lat="43.829018" lon="5.298261">
        <ele>273.858144</ele>
        <time>2022-07-27T11:42:36.665Z</time>
      </trkpt>
      <trkpt lat="43.829183" lon="5.298150">
        <ele>272.386585</ele>
        <time>2022-07-27T11:42:39.237Z</time>
      </trkpt>
      <trkpt lat="43.829563" lon="5.297974">
        <ele>269.170955</ele>
        <time>2022-07-27T11:42:44.851Z</time>
      </trkpt>
      <trkpt lat="43.829916" lon="5.297775">
        <ele>266.112437</ele>
        <time>2022-07-27T11:42:50.163Z</time>
      </trkpt>
      <trkpt lat="43.830438" lon="5.297345">
        <ele>261.238926</ele>
        <time>2022-07-27T11:42:58.645Z</time>
      </trkpt>
      <trkpt lat="43.831987" lon="5.295579">
        <ele>245.602047</ele>
        <time>2022-07-27T11:43:27.039Z</time>
      </trkpt>
      <trkpt lat="43.832232" lon="5.295370">
        <ele>243.245949</ele>
        <time>2022-07-27T11:43:31.057Z</time>
      </trkpt>
      <trkpt lat="43.832419" lon="5.295300">
        <ele>241.546200</ele>
        <time>2022-07-27T11:43:33.752Z</time>
      </trkpt>
      <trkpt lat="43.832891" lon="5.295212">
        <ele>237.366985</ele>
        <time>2022-07-27T11:43:40.333Z</time>
      </trkpt>
      <trkpt lat="43.832955" lon="5.295200">
        <ele>236.800254</ele>
        <time>2022-07-27T11:43:41.220Z</time>
      </trkpt>
      <trkpt lat="43.834274" lon="5.294973">
        <ele>225.646666</ele>
        <time>2022-07-27T11:43:59.545Z</time>
      </trkpt>
      <trkpt lat="43.834652" lon="5.294800">
        <ele>222.674752</ele>
        <time>2022-07-27T11:44:05.074Z</time>
      </trkpt>
      <trkpt lat="43.834760" lon="5.294699">
        <ele>221.702126</ele>
        <time>2022-07-27T11:44:06.903Z</time>
      </trkpt>
      <trkpt lat="43.837145" lon="5.292421">
        <ele>203.145447</ele>
        <time>2022-07-27T11:44:49.131Z</time>
      </trkpt>
      <trkpt lat="43.838105" lon="5.291660">
        <ele>198.116161</ele>
        <time>2022-07-27T11:45:05.966Z</time>
      </trkpt>
      <trkpt lat="43.838279" lon="5.291528">
        <ele>197.214105</ele>
        <time>2022-07-27T11:45:09.049Z</time>
      </trkpt>
      <trkpt lat="43.846683" lon="5.284930">
        <ele>172.811268</ele>
        <time>2022-07-27T11:47:53.354Z</time>
      </trkpt>
      <trkpt lat="43.846789" lon="5.284843">
        <ele>172.564170</ele>
        <time>2022-07-27T11:47:55.546Z</time>
      </trkpt>
      <trkpt lat="43.846917" lon="5.284747">
        <ele>172.272244</ele>
        <time>2022-07-27T11:47:58.136Z</time>
      </trkpt>
      <trkpt lat="43.846989" lon="5.284690">
        <ele>172.105927</ele>
        <time>2022-07-27T11:47:59.615Z</time>
      </trkpt>
      <trkpt lat="43.849104" lon="5.283035">
        <ele>167.440352</ele>
        <time>2022-07-27T11:48:42.888Z</time>
      </trkpt>
      <trkpt lat="43.849665" lon="5.282595">
        <ele>166.278650</ele>
        <time>2022-07-27T11:48:54.227Z</time>
      </trkpt>
      <trkpt lat="43.850513" lon="5.281926">
        <ele>164.623929</ele>
        <time>2022-07-27T11:49:11.646Z</time>
      </trkpt>
      <trkpt lat="43.850749" lon="5.281645">
        <ele>164.096353</ele>
        <time>2022-07-27T11:49:17.287Z</time>
      </trkpt>
      <trkpt lat="43.851115" lon="5.280952">
        <ele>163.278833</ele>
        <time>2022-07-27T11:49:28.960Z</time>
      </trkpt>
      <trkpt lat="43.852187" lon="5.278901">
        <ele>161.674448</ele>
        <time>2022-07-27T11:50:04.603Z</time>
      </trkpt>
      <trkpt lat="43.852600" lon="5.278115">
        <ele>161.334527</ele>
        <time>2022-07-27T11:50:19.109Z</time>
      </trkpt>
      <trkpt lat="43.852923" lon="5.277438">
        <ele>161.050797</ele>
        <time>2022-07-27T11:50:31.561Z</time>
      </trkpt>
      <trkpt lat="43.853317" lon="5.276444">
        <ele>160.801616</ele>
        <time>2022-07-27T11:50:48.814Z</time>
      </trkpt>
      <trkpt lat="43.853752" lon="5.275368">
        <ele>160.570243</ele>
        <time>2022-07-27T11:51:07.432Z</time>
      </trkpt>
      <trkpt lat="43.853973" lon="5.274863">
        <ele>160.443123</ele>
        <time>2022-07-27T11:51:17.020Z</time>
      </trkpt>
      <trkpt lat="43.854274" lon="5.274196">
        <ele>160.241882</ele>
        <time>2022-07-27T11:51:29.990Z</time>
      </trkpt>
      <trkpt lat="43.854333" lon="5.274032">
        <ele>160.195008</ele>
        <time>2022-07-27T11:51:32.816Z</time>
      </trkpt>
      <trkpt lat="43.854472" lon="5.273628">
        <ele>160.080524</ele>
        <time>2022-07-27T11:51:39.605Z</time>
      </trkpt>
      <trkpt lat="43.854735" lon="5.272809">
        <ele>159.794406</ele>
        <time>2022-07-27T11:51:52.518Z</time>
      </trkpt>
      <trkpt lat="43.855023" lon="5.272037">
        <ele>158.739828</ele>
        <time>2022-07-27T11:52:04.539Z</time>
      </trkpt>
      <trkpt lat="43.856110" lon="5.269234">
        <ele>154.922546</ele>
        <time>2022-07-27T11:52:44.343Z</time>
      </trkpt>
      <trkpt lat="43.856356" lon="5.268776">
        <ele>154.245243</ele>
        <time>2022-07-27T11:52:52.218Z</time>
      </trkpt>
      <trkpt lat="43.856710" lon="5.268264">
        <ele>153.986656</ele>
        <time>2022-07-27T11:53:02.703Z</time>
      </trkpt>
      <trkpt lat="43.857026" lon="5.267809">
        <ele>154.150985</ele>
        <time>2022-07-27T11:53:12.950Z</time>
      </trkpt>
      <trkpt lat="43.857534" lon="5.267091">
        <ele>154.412649</ele>
        <time>2022-07-27T11:53:30.810Z</time>
      </trkpt>
      <trkpt lat="43.857981" lon="5.266708">
        <ele>154.708423</ele>
        <time>2022-07-27T11:53:45.156Z</time>
      </trkpt>
      <trkpt lat="43.858395" lon="5.266598">
        <ele>155.086436</ele>
        <time>2022-07-27T11:53:57.290Z</time>
      </trkpt>
      <trkpt lat="43.858684" lon="5.266651">
        <ele>155.347857</ele>
        <time>2022-07-27T11:54:04.799Z</time>
      </trkpt>
      <trkpt lat="43.858992" lon="5.266589">
        <ele>155.626956</ele>
        <time>2022-07-27T11:54:12.244Z</time>
      </trkpt>
      <trkpt lat="43.859135" lon="5.266643">
        <ele>155.759862</ele>
        <time>2022-07-27T11:54:15.797Z</time>
      </trkpt>
      <trkpt lat="43.859271" lon="5.266585">
        <ele>155.887458</ele>
        <time>2022-07-27T11:54:19.251Z</time>
      </trkpt>
      <trkpt lat="43.859360" lon="5.266456">
        <ele>156.002903</ele>
        <time>2022-07-27T11:54:22.494Z</time>
      </trkpt>
      <trkpt lat="43.859391" lon="5.266298">
        <ele>156.108782</ele>
        <time>2022-07-27T11:54:25.371Z</time>
      </trkpt>
      <trkpt lat="43.859357" lon="5.266118">
        <ele>156.187537</ele>
        <time>2022-07-27T11:54:28.697Z</time>
      </trkpt>
      <trkpt lat="43.859351" lon="5.266085">
        <ele>156.198837</ele>
        <time>2022-07-27T11:54:29.421Z</time>
      </trkpt>
      <trkpt lat="43.859268" lon="5.265970">
        <ele>156.252862</ele>
        <time>2022-07-27T11:54:32.402Z</time>
      </trkpt>
      <trkpt lat="43.859122" lon="5.265915">
        <ele>156.322530</ele>
        <time>2022-07-27T11:54:36.298Z</time>
      </trkpt>
      <trkpt lat="43.858978" lon="5.265981">
        <ele>156.392367</ele>
        <time>2022-07-27T11:54:40.114Z</time>
      </trkpt>
      <trkpt lat="43.858879" lon="5.266167">
        <ele>156.469129</ele>
        <time>2022-07-27T11:54:44.386Z</time>
      </trkpt>
      <trkpt lat="43.858866" lon="5.266265">
        <ele>156.502214</ele>
        <time>2022-07-27T11:54:46.210Z</time>
      </trkpt>
      <trkpt lat="43.858893" lon="5.266439">
        <ele>156.561311</ele>
        <time>2022-07-27T11:54:49.460Z</time>
      </trkpt>
      <trkpt lat="43.858992" lon="5.266589">
        <ele>156.628830</ele>
        <time>2022-07-27T11:54:53.059Z</time>
      </trkpt>
      <trkpt lat="43.859135" lon="5.266643">
        <ele>156.697077</ele>
        <time>2022-07-27T11:54:56.740Z</time>
      </trkpt>
      <trkpt lat="43.859262" lon="5.266781">
        <ele>156.771371</ele>
        <time>2022-07-27T11:55:00.464Z</time>
      </trkpt>
      <trkpt lat="43.859540" lon="5.267290">
        <ele>156.986961</ele>
        <time>2022-07-27T11:55:10.395Z</time>
      </trkpt>
      <trkpt lat="43.859932" lon="5.268327">
        <ele>157.496928</ele>
        <time>2022-07-27T11:55:29.955Z</time>
      </trkpt>
      <trkpt lat="43.860459" lon="5.270275">
        <ele>158.987817</ele>
        <time>2022-07-27T11:56:09.226Z</time>
      </trkpt>
      <trkpt lat="43.860996" lon="5.272629">
        <ele>161.667191</ele>
        <time>2022-07-27T11:57:02.612Z</time>
      </trkpt>
      <trkpt lat="43.861345" lon="5.274211">
        <ele>163.134860</ele>
        <time>2022-07-27T11:57:34.778Z</time>
      </trkpt>
      <trkpt lat="43.861444" lon="5.275095">
        <ele>162.778451</ele>
        <time>2022-07-27T11:57:48.770Z</time>
      </trkpt>
      <trkpt lat="43.861569" lon="5.276387">
        <ele>162.107428</ele>
        <time>2022-07-27T11:58:06.504Z</time>
      </trkpt>
      <trkpt lat="43.861712" lon="5.277799">
        <ele>161.401961</ele>
        <time>2022-07-27T11:58:25.651Z</time>
      </trkpt>
      <trkpt lat="43.861764" lon="5.278339">
        <ele>161.136240</ele>
        <time>2022-07-27T11:58:33.283Z</time>
      </trkpt>
      <trkpt lat="43.862269" lon="5.283354">
        <ele>161.631133</ele>
        <time>2022-07-27T11:59:58.451Z</time>
      </trkpt>
      <trkpt lat="43.862382" lon="5.284500">
        <ele>161.979156</ele>
        <time>2022-07-27T12:00:19.206Z</time>
      </trkpt>
      <trkpt lat="43.862533" lon="5.285995">
        <ele>162.525670</ele>
        <time>2022-07-27T12:00:45.818Z</time>
      </trkpt>
      <trkpt lat="43.862586" lon="5.286518">
        <ele>162.716870</ele>
        <time>2022-07-27T12:00:54.821Z</time>
      </trkpt>
      <trkpt lat="43.862637" lon="5.287031">
        <ele>162.827959</ele>
        <time>2022-07-27T12:01:03.485Z</time>
      </trkpt>
      <trkpt lat="43.862839" lon="5.289118">
        <ele>163.187740</ele>
        <time>2022-07-27T12:01:38.134Z</time>
      </trkpt>
      <trkpt lat="43.863026" lon="5.290986">
        <ele>163.983530</ele>
        <time>2022-07-27T12:02:11.129Z</time>
      </trkpt>
      <trkpt lat="43.863084" lon="5.291720">
        <ele>164.321865</ele>
        <time>2022-07-27T12:02:24.960Z</time>
      </trkpt>
      <trkpt lat="43.863174" lon="5.292391">
        <ele>164.742014</ele>
        <time>2022-07-27T12:02:37.838Z</time>
      </trkpt>
      <trkpt lat="43.863161" lon="5.292522">
        <ele>164.823417</ele>
        <time>2022-07-27T12:02:40.307Z</time>
      </trkpt>
      <trkpt lat="43.863166" lon="5.292576">
        <ele>164.856932</ele>
        <time>2022-07-27T12:02:41.322Z</time>
      </trkpt>
      <trkpt lat="43.863296" lon="5.293710">
        <ele>165.563782</ele>
        <time>2022-07-27T12:03:02.673Z</time>
      </trkpt>
      <trkpt lat="43.863390" lon="5.294610">
        <ele>166.062781</ele>
        <time>2022-07-27T12:03:19.242Z</time>
      </trkpt>
      <trkpt lat="43.863636" lon="5.296957">
        <ele>167.184127</ele>
        <time>2022-07-27T12:04:01.848Z</time>
      </trkpt>
      <trkpt lat="43.864229" lon="5.300310">
        <ele>168.390845</ele>
        <time>2022-07-27T12:05:01.119Z</time>
      </trkpt>
      <trkpt lat="43.864680" lon="5.302865">
        <ele>169.939081</ele>
        <time>2022-07-27T12:05:49.291Z</time>
      </trkpt>
      <trkpt lat="43.864932" lon="5.304413">
        <ele>171.424633</ele>
        <time>2022-07-27T12:06:20.634Z</time>
      </trkpt>
      <trkpt lat="43.864942" lon="5.304710">
        <ele>171.797793</ele>
        <time>2022-07-27T12:06:26.782Z</time>
      </trkpt>
      <trkpt lat="43.864873" lon="5.304908">
        <ele>172.073802</ele>
        <time>2022-07-27T12:06:31.310Z</time>
      </trkpt>
      <trkpt lat="43.864953" lon="5.305137">
        <ele>172.393173</ele>
        <time>2022-07-27T12:06:36.650Z</time>
      </trkpt>
      <trkpt lat="43.865016" lon="5.305180">
        <ele>172.515402</ele>
        <time>2022-07-27T12:06:38.659Z</time>
      </trkpt>
      <trkpt lat="43.865139" lon="5.305576">
        <ele>173.056566</ele>
        <time>2022-07-27T12:06:47.825Z</time>
      </trkpt>
      <trkpt lat="43.865218" lon="5.305934">
        <ele>173.526451</ele>
        <time>2022-07-27T12:06:55.963Z</time>
      </trkpt>
      <trkpt lat="43.865557" lon="5.307932">
        <ele>177.224657</ele>
        <time>2022-07-27T12:07:43.934Z</time>
      </trkpt>
      <trkpt lat="43.865886" lon="5.309745">
        <ele>181.108225</ele>
        <time>2022-07-27T12:08:29.035Z</time>
      </trkpt>
      <trkpt lat="43.866416" lon="5.312887">
        <ele>188.832296</ele>
        <time>2022-07-27T12:09:51.283Z</time>
      </trkpt>
      <trkpt lat="43.866438" lon="5.313276">
        <ele>189.817029</ele>
        <time>2022-07-27T12:10:01.933Z</time>
      </trkpt>
      <trkpt lat="43.866297" lon="5.315516">
        <ele>196.591278</ele>
        <time>2022-07-27T12:11:06.608Z</time>
      </trkpt>
      <trkpt lat="43.866310" lon="5.316193">
        <ele>198.451216</ele>
        <time>2022-07-27T12:11:25.438Z</time>
      </trkpt>
      <trkpt lat="43.866450" lon="5.317017">
        <ele>200.457858</ele>
        <time>2022-07-27T12:11:48.099Z</time>
      </trkpt>
      <trkpt lat="43.866700" lon="5.317753">
        <ele>202.386332</ele>
        <time>2022-07-27T12:12:08.443Z</time>
      </trkpt>
      <trkpt lat="43.866978" lon="5.318270">
        <ele>203.798306</ele>
        <time>2022-07-27T12:12:23.503Z</time>
      </trkpt>
      <trkpt lat="43.867535" lon="5.318948">
        <ele>205.135045</ele>
        <time>2022-07-27T12:12:45.958Z</time>
      </trkpt>
      <trkpt lat="43.868243" lon="5.319591">
        <ele>206.661536</ele>
        <time>2022-07-27T12:13:10.487Z</time>
      </trkpt>
      <trkpt lat="43.868457" lon="5.319789">
        <ele>206.993028</ele>
        <time>2022-07-27T12:13:17.246Z</time>
      </trkpt>
      <trkpt lat="43.868581" lon="5.319901">
        <ele>207.102585</ele>
        <time>2022-07-27T12:13:21.196Z</time>
      </trkpt>
      <trkpt lat="43.869702" lon="5.320920">
        <ele>208.094915</ele>
        <time>2022-07-27T12:13:54.743Z</time>
      </trkpt>
      <trkpt lat="43.870314" lon="5.321636">
        <ele>208.291061</ele>
        <time>2022-07-27T12:14:12.986Z</time>
      </trkpt>
      <trkpt lat="43.870638" lon="5.321968">
        <ele>208.329447</ele>
        <time>2022-07-27T12:14:22.397Z</time>
      </trkpt>
      <trkpt lat="43.870615" lon="5.322006">
        <ele>208.332856</ele>
        <time>2022-07-27T12:14:23.169Z</time>
      </trkpt>
      <trkpt lat="43.870707" lon="5.322137">
        <ele>208.345420</ele>
        <time>2022-07-27T12:14:26.073Z</time>
      </trkpt>
      <trkpt lat="43.871606" lon="5.323425">
        <ele>208.578069</ele>
        <time>2022-07-27T12:14:54.800Z</time>
      </trkpt>
      <trkpt lat="43.872250" lon="5.324566">
        <ele>208.846062</ele>
        <time>2022-07-27T12:15:19.380Z</time>
      </trkpt>
      <trkpt lat="43.874977" lon="5.329439">
        <ele>211.781779</ele>
        <time>2022-07-27T12:17:13.123Z</time>
      </trkpt>
      <trkpt lat="43.875233" lon="5.329909">
        <ele>211.798229</ele>
        <time>2022-07-27T12:17:22.312Z</time>
      </trkpt>
      <trkpt lat="43.875470" lon="5.330343">
        <ele>211.813433</ele>
        <time>2022-07-27T12:17:30.319Z</time>
      </trkpt>
      <trkpt lat="43.876844" lon="5.332856">
        <ele>209.518495</ele>
        <time>2022-07-27T12:18:12.941Z</time>
      </trkpt>
      <trkpt lat="43.877047" lon="5.333225">
        <ele>209.330667</ele>
        <time>2022-07-27T12:18:19.433Z</time>
      </trkpt>
      <trkpt lat="43.877710" lon="5.334435">
        <ele>208.715662</ele>
        <time>2022-07-27T12:18:42.065Z</time>
      </trkpt>
      <trkpt lat="43.878266" lon="5.335473">
        <ele>208.892134</ele>
        <time>2022-07-27T12:19:05.166Z</time>
      </trkpt>
      <trkpt lat="43.878767" lon="5.336406">
        <ele>209.126714</ele>
        <time>2022-07-27T12:19:24.807Z</time>
      </trkpt>
      <trkpt lat="43.879191" lon="5.337403">
        <ele>208.566367</ele>
        <time>2022-07-27T12:19:42.651Z</time>
      </trkpt>
      <trkpt lat="43.879424" lon="5.338308">
        <ele>207.981728</ele>
        <time>2022-07-27T12:19:56.106Z</time>
      </trkpt>
      <trkpt lat="43.879532" lon="5.339058">
        <ele>207.469794</ele>
        <time>2022-07-27T12:20:05.985Z</time>
      </trkpt>
      <trkpt lat="43.879579" lon="5.339852">
        <ele>206.808533</ele>
        <time>2022-07-27T12:20:16.114Z</time>
      </trkpt>
      <trkpt lat="43.879575" lon="5.341298">
        <ele>205.608303</ele>
        <time>2022-07-27T12:20:36.626Z</time>
      </trkpt>
      <trkpt lat="43.879574" lon="5.341686">
        <ele>205.626560</ele>
        <time>2022-07-27T12:20:42.403Z</time>
      </trkpt>
      <trkpt lat="43.879617" lon="5.342712">
        <ele>205.785037</ele>
        <time>2022-07-27T12:20:58.587Z</time>
      </trkpt>
      <trkpt lat="43.879806" lon="5.343864">
        <ele>206.019829</ele>
        <time>2022-07-27T12:21:19.749Z</time>
      </trkpt>
      <trkpt lat="43.882688" lon="5.352450">
        <ele>216.347348</ele>
        <time>2022-07-27T12:24:31.782Z</time>
      </trkpt>
      <trkpt lat="43.882904" lon="5.353095">
        <ele>217.188484</ele>
        <time>2022-07-27T12:24:49.600Z</time>
      </trkpt>
      <trkpt lat="43.883276" lon="5.354699">
        <ele>218.882608</ele>
        <time>2022-07-27T12:25:26.971Z</time>
      </trkpt>
      <trkpt lat="43.883906" lon="5.358247">
        <ele>217.008280</ele>
        <time>2022-07-27T12:26:17.248Z</time>
      </trkpt>
      <trkpt lat="43.884125" lon="5.359014">
        <ele>216.153540</ele>
        <time>2022-07-27T12:26:27.865Z</time>
      </trkpt>
      <trkpt lat="43.884502" lon="5.359835">
        <ele>215.144975</ele>
        <time>2022-07-27T12:26:40.926Z</time>
      </trkpt>
      <trkpt lat="43.884551" lon="5.360060">
        <ele>214.992841</ele>
        <time>2022-07-27T12:26:44.039Z</time>
      </trkpt>
      <trkpt lat="43.884540" lon="5.360112">
        <ele>214.970486</ele>
        <time>2022-07-27T12:26:44.787Z</time>
      </trkpt>
      <trkpt lat="43.884594" lon="5.360415">
        <ele>214.841731</ele>
        <time>2022-07-27T12:26:48.950Z</time>
      </trkpt>
      <trkpt lat="43.884645" lon="5.360481">
        <ele>214.801816</ele>
        <time>2022-07-27T12:26:50.240Z</time>
      </trkpt>
      <trkpt lat="43.884831" lon="5.360539">
        <ele>214.692705</ele>
        <time>2022-07-27T12:26:53.906Z</time>
      </trkpt>
      <trkpt lat="43.884949" lon="5.360467">
        <ele>214.618926</ele>
        <time>2022-07-27T12:26:56.317Z</time>
      </trkpt>
      <trkpt lat="43.885013" lon="5.360367">
        <ele>214.563759</ele>
        <time>2022-07-27T12:26:58.156Z</time>
      </trkpt>
      <trkpt lat="43.885047" lon="5.360175">
        <ele>214.482202</ele>
        <time>2022-07-27T12:27:01.056Z</time>
      </trkpt>
      <trkpt lat="43.885002" lon="5.359986">
        <ele>214.400095</ele>
        <time>2022-07-27T12:27:03.861Z</time>
      </trkpt>
      <trkpt lat="43.884902" lon="5.359867">
        <ele>214.324693</ele>
        <time>2022-07-27T12:27:06.611Z</time>
      </trkpt>
      <trkpt lat="43.884773" lon="5.359833">
        <ele>214.249541</ele>
        <time>2022-07-27T12:27:09.455Z</time>
      </trkpt>
      <trkpt lat="43.884728" lon="5.359842">
        <ele>214.223519</ele>
        <time>2022-07-27T12:27:10.366Z</time>
      </trkpt>
      <trkpt lat="43.884621" lon="5.359921">
        <ele>214.154147</ele>
        <time>2022-07-27T12:27:13.103Z</time>
      </trkpt>
      <trkpt lat="43.884551" lon="5.360060">
        <ele>214.084198</ele>
        <time>2022-07-27T12:27:16.149Z</time>
      </trkpt>
      <trkpt lat="43.884540" lon="5.360112">
        <ele>214.061843</ele>
        <time>2022-07-27T12:27:17.123Z</time>
      </trkpt>
      <trkpt lat="43.884594" lon="5.360415">
        <ele>214.090269</ele>
        <time>2022-07-27T12:27:22.826Z</time>
      </trkpt>
      <trkpt lat="43.884645" lon="5.360481">
        <ele>214.119473</ele>
        <time>2022-07-27T12:27:24.814Z</time>
      </trkpt>
      <trkpt lat="43.884744" lon="5.360852">
        <ele>214.238871</ele>
        <time>2022-07-27T12:27:32.432Z</time>
      </trkpt>
      <trkpt lat="43.884829" lon="5.361709">
        <ele>214.499956</ele>
        <time>2022-07-27T12:27:47.846Z</time>
      </trkpt>
      <trkpt lat="43.884986" lon="5.362748">
        <ele>214.707506</ele>
        <time>2022-07-27T12:28:05.888Z</time>
      </trkpt>
      <trkpt lat="43.885883" lon="5.365162">
        <ele>213.371645</ele>
        <time>2022-07-27T12:28:44.473Z</time>
      </trkpt>
      <trkpt lat="43.886181" lon="5.366091">
        <ele>212.822848</ele>
        <time>2022-07-27T12:28:58.313Z</time>
      </trkpt>
      <trkpt lat="43.886212" lon="5.366367">
        <ele>212.672094</ele>
        <time>2022-07-27T12:29:02.332Z</time>
      </trkpt>
      <trkpt lat="43.886190" lon="5.366427">
        <ele>212.635762</ele>
        <time>2022-07-27T12:29:03.282Z</time>
      </trkpt>
      <trkpt lat="43.886189" lon="5.366675">
        <ele>212.501916</ele>
        <time>2022-07-27T12:29:06.983Z</time>
      </trkpt>
      <trkpt lat="43.886234" lon="5.366785">
        <ele>212.433652</ele>
        <time>2022-07-27T12:29:08.964Z</time>
      </trkpt>
      <trkpt lat="43.886316" lon="5.366876">
        <ele>212.355023</ele>
        <time>2022-07-27T12:29:11.130Z</time>
      </trkpt>
      <trkpt lat="43.886362" lon="5.367010">
        <ele>212.274919</ele>
        <time>2022-07-27T12:29:13.393Z</time>
      </trkpt>
      <trkpt lat="43.886386" lon="5.368351">
        <ele>211.901946</ele>
        <time>2022-07-27T12:29:34.151Z</time>
      </trkpt>
      <trkpt lat="43.886382" lon="5.368389">
        <ele>211.892075</ele>
        <time>2022-07-27T12:29:34.731Z</time>
      </trkpt>
      <trkpt lat="43.886331" lon="5.368731">
        <ele>211.802301</ele>
        <time>2022-07-27T12:29:39.961Z</time>
      </trkpt>
      <trkpt lat="43.886159" lon="5.369314">
        <ele>211.640370</ele>
        <time>2022-07-27T12:29:49.227Z</time>
      </trkpt>
      <trkpt lat="43.885946" lon="5.369895">
        <ele>211.507741</ele>
        <time>2022-07-27T12:29:58.968Z</time>
      </trkpt>
      <trkpt lat="43.885767" lon="5.370557">
        <ele>211.385415</ele>
        <time>2022-07-27T12:30:09.994Z</time>
      </trkpt>
      <trkpt lat="43.885711" lon="5.371352">
        <ele>211.247219</ele>
        <time>2022-07-27T12:30:22.195Z</time>
      </trkpt>
      <trkpt lat="43.885710" lon="5.372399">
        <ele>211.117752</ele>
        <time>2022-07-27T12:30:38.541Z</time>
      </trkpt>
      <trkpt lat="43.885712" lon="5.372653">
        <ele>211.101565</ele>
        <time>2022-07-27T12:30:42.887Z</time>
      </trkpt>
      <trkpt lat="43.885703" lon="5.372966">
        <ele>211.081604</ele>
        <time>2022-07-27T12:30:48.116Z</time>
      </trkpt>
      <trkpt lat="43.885662" lon="5.373290">
        <ele>211.060641</ele>
        <time>2022-07-27T12:30:53.511Z</time>
      </trkpt>
      <trkpt lat="43.885626" lon="5.373502">
        <ele>211.046762</ele>
        <time>2022-07-27T12:30:57.103Z</time>
      </trkpt>
      <trkpt lat="43.885494" lon="5.374176">
        <ele>211.002254</ele>
        <time>2022-07-27T12:31:08.017Z</time>
      </trkpt>
      <trkpt lat="43.885414" lon="5.374601">
        <ele>210.971389</ele>
        <time>2022-07-27T12:31:14.595Z</time>
      </trkpt>
      <trkpt lat="43.885366" lon="5.374853">
        <ele>210.951507</ele>
        <time>2022-07-27T12:31:18.395Z</time>
      </trkpt>
      <trkpt lat="43.885313" lon="5.375132">
        <ele>210.929499</ele>
        <time>2022-07-27T12:31:22.565Z</time>
      </trkpt>
      <trkpt lat="43.885285" lon="5.375303">
        <ele>210.916123</ele>
        <time>2022-07-27T12:31:25.103Z</time>
      </trkpt>
      <trkpt lat="43.885273" lon="5.375370">
        <ele>210.910857</ele>
        <time>2022-07-27T12:31:26.101Z</time>
      </trkpt>
      <trkpt lat="43.885222" lon="5.375682">
        <ele>210.886454</ele>
        <time>2022-07-27T12:31:30.840Z</time>
      </trkpt>
      <trkpt lat="43.885175" lon="5.376011">
        <ele>210.860870</ele>
        <time>2022-07-27T12:31:35.905Z</time>
      </trkpt>
      <trkpt lat="43.885165" lon="5.376082">
        <ele>210.855352</ele>
        <time>2022-07-27T12:31:36.984Z</time>
      </trkpt>
      <trkpt lat="43.885064" lon="5.376808">
        <ele>210.798952</ele>
        <time>2022-07-27T12:31:49.127Z</time>
      </trkpt>
      <trkpt lat="43.884977" lon="5.377414">
        <ele>211.871151</ele>
        <time>2022-07-27T12:32:01.259Z</time>
      </trkpt>
      <trkpt lat="43.884866" lon="5.377819">
        <ele>212.630700</ele>
        <time>2022-07-27T12:32:10.923Z</time>
      </trkpt>
      <trkpt lat="43.884774" lon="5.378052">
        <ele>213.096419</ele>
        <time>2022-07-27T12:32:17.272Z</time>
      </trkpt>
      <trkpt lat="43.884708" lon="5.378171">
        <ele>213.359636</ele>
        <time>2022-07-27T12:32:20.904Z</time>
      </trkpt>
      <trkpt lat="43.884600" lon="5.378367">
        <ele>213.792127</ele>
        <time>2022-07-27T12:32:27.047Z</time>
      </trkpt>
      <trkpt lat="43.884473" lon="5.378588">
        <ele>214.287603</ele>
        <time>2022-07-27T12:32:34.243Z</time>
      </trkpt>
      <trkpt lat="43.884334" lon="5.378832">
        <ele>214.832804</ele>
        <time>2022-07-27T12:32:42.399Z</time>
      </trkpt>
      <trkpt lat="43.884288" lon="5.378927">
        <ele>215.033430</ele>
        <time>2022-07-27T12:32:45.376Z</time>
      </trkpt>
      <trkpt lat="43.884088" lon="5.379284">
        <ele>216.260209</ele>
        <time>2022-07-27T12:32:57.571Z</time>
      </trkpt>
      <trkpt lat="43.883921" lon="5.379603">
        <ele>217.410923</ele>
        <time>2022-07-27T12:33:08.436Z</time>
      </trkpt>
      <trkpt lat="43.883327" lon="5.380662">
        <ele>221.327415</ele>
        <time>2022-07-27T12:33:46.722Z</time>
      </trkpt>
      <trkpt lat="43.883230" lon="5.380837">
        <ele>221.971748</ele>
        <time>2022-07-27T12:33:53.031Z</time>
      </trkpt>
      <trkpt lat="43.883062" lon="5.381145">
        <ele>222.992930</ele>
        <time>2022-07-27T12:34:03.563Z</time>
      </trkpt>
      <trkpt lat="43.882922" lon="5.381330">
        <ele>223.646469</ele>
        <time>2022-07-27T12:34:10.598Z</time>
      </trkpt>
      <trkpt lat="43.882853" lon="5.381410">
        <ele>223.950427</ele>
        <time>2022-07-27T12:34:14.029Z</time>
      </trkpt>
      <trkpt lat="43.882731" lon="5.381462">
        <ele>224.381844</ele>
        <time>2022-07-27T12:34:18.976Z</time>
      </trkpt>
      <trkpt lat="43.882700" lon="5.381532">
        <ele>224.582012</ele>
        <time>2022-07-27T12:34:21.115Z</time>
      </trkpt>
      <trkpt lat="43.882703" lon="5.381669">
        <ele>224.915950</ele>
        <time>2022-07-27T12:34:24.562Z</time>
      </trkpt>
      <trkpt lat="43.882635" lon="5.381924">
        <ele>225.578386</ele>
        <time>2022-07-27T12:34:31.863Z</time>
      </trkpt>
      <trkpt lat="43.882621" lon="5.381951">
        <ele>225.659422</ele>
        <time>2022-07-27T12:34:32.729Z</time>
      </trkpt>
      <trkpt lat="43.882554" lon="5.382071">
        <ele>226.029248</ele>
        <time>2022-07-27T12:34:36.348Z</time>
      </trkpt>
      <trkpt lat="43.882442" lon="5.382282">
        <ele>226.667690</ele>
        <time>2022-07-27T12:34:43.161Z</time>
      </trkpt>
      <trkpt lat="43.882340" lon="5.382471">
        <ele>227.242947</ele>
        <time>2022-07-27T12:34:49.006Z</time>
      </trkpt>
      <trkpt lat="43.882207" lon="5.382710">
        <ele>227.978605</ele>
        <time>2022-07-27T12:34:56.634Z</time>
      </trkpt>
      <trkpt lat="43.882065" lon="5.382967">
        <ele>228.644233</ele>
        <time>2022-07-27T12:35:04.316Z</time>
      </trkpt>
      <trkpt lat="43.881982" lon="5.383112">
        <ele>228.854507</ele>
        <time>2022-07-27T12:35:08.879Z</time>
      </trkpt>
      <trkpt lat="43.881854" lon="5.383346">
        <ele>229.188103</ele>
        <time>2022-07-27T12:35:15.381Z</time>
      </trkpt>
      <trkpt lat="43.881740" lon="5.383550">
        <ele>229.481241</ele>
        <time>2022-07-27T12:35:21.173Z</time>
      </trkpt>
      <trkpt lat="43.881588" lon="5.383779">
        <ele>229.834770</ele>
        <time>2022-07-27T12:35:27.846Z</time>
      </trkpt>
      <trkpt lat="43.881566" lon="5.383808">
        <ele>229.882583</ele>
        <time>2022-07-27T12:35:28.821Z</time>
      </trkpt>
      <trkpt lat="43.881431" lon="5.383951">
        <ele>230.150189</ele>
        <time>2022-07-27T12:35:33.842Z</time>
      </trkpt>
      <trkpt lat="43.880995" lon="5.384315">
        <ele>230.951916</ele>
        <time>2022-07-27T12:35:47.292Z</time>
      </trkpt>
      <trkpt lat="43.880942" lon="5.384364">
        <ele>231.052263</ele>
        <time>2022-07-27T12:35:48.963Z</time>
      </trkpt>
      <trkpt lat="43.880846" lon="5.384418">
        <ele>231.215475</ele>
        <time>2022-07-27T12:35:51.560Z</time>
      </trkpt>
      <trkpt lat="43.880708" lon="5.384538">
        <ele>231.317276</ele>
        <time>2022-07-27T12:35:55.226Z</time>
      </trkpt>
      <trkpt lat="43.880499" lon="5.384711">
        <ele>231.116816</ele>
        <time>2022-07-27T12:36:00.684Z</time>
      </trkpt>
      <trkpt lat="43.880256" lon="5.384903">
        <ele>230.886480</ele>
        <time>2022-07-27T12:36:06.503Z</time>
      </trkpt>
      <trkpt lat="43.879517" lon="5.385483">
        <ele>230.187133</ele>
        <time>2022-07-27T12:36:22.860Z</time>
      </trkpt>
      <trkpt lat="43.879506" lon="5.385490">
        <ele>230.177165</ele>
        <time>2022-07-27T12:36:23.082Z</time>
      </trkpt>
      <trkpt lat="43.879415" lon="5.385540">
        <ele>230.096546</ele>
        <time>2022-07-27T12:36:24.879Z</time>
      </trkpt>
      <trkpt lat="43.879312" lon="5.385631">
        <ele>229.995965</ele>
        <time>2022-07-27T12:36:27.213Z</time>
      </trkpt>
      <trkpt lat="43.879256" lon="5.385681">
        <ele>229.941113</ele>
        <time>2022-07-27T12:36:28.441Z</time>
      </trkpt>
      <trkpt lat="43.878948" lon="5.385930">
        <ele>229.158746</ele>
        <time>2022-07-27T12:36:34.797Z</time>
      </trkpt>
      <trkpt lat="43.878733" lon="5.386139">
        <ele>228.504773</ele>
        <time>2022-07-27T12:36:39.155Z</time>
      </trkpt>
      <trkpt lat="43.878621" lon="5.386336">
        <ele>228.054254</ele>
        <time>2022-07-27T12:36:42.199Z</time>
      </trkpt>
      <trkpt lat="43.878467" lon="5.386610">
        <ele>227.430374</ele>
        <time>2022-07-27T12:36:46.312Z</time>
      </trkpt>
      <trkpt lat="43.878360" lon="5.387033">
        <ele>226.625424</ele>
        <time>2022-07-27T12:36:51.573Z</time>
      </trkpt>
      <trkpt lat="43.878346" lon="5.387157">
        <ele>226.400054</ele>
        <time>2022-07-27T12:36:53.083Z</time>
      </trkpt>
      <trkpt lat="43.878337" lon="5.387325">
        <ele>226.097561</ele>
        <time>2022-07-27T12:36:55.072Z</time>
      </trkpt>
      <trkpt lat="43.878327" lon="5.387497">
        <ele>225.787715</ele>
        <time>2022-07-27T12:36:57.141Z</time>
      </trkpt>
      <trkpt lat="43.878321" lon="5.387606">
        <ele>225.591424</ele>
        <time>2022-07-27T12:36:58.517Z</time>
      </trkpt>
      <trkpt lat="43.878263" lon="5.387983">
        <ele>225.184203</ele>
        <time>2022-07-27T12:37:03.252Z</time>
      </trkpt>
      <trkpt lat="43.878030" lon="5.388786">
        <ele>224.499866</ele>
        <time>2022-07-27T12:37:14.463Z</time>
      </trkpt>
      <trkpt lat="43.877935" lon="5.389106">
        <ele>224.226264</ele>
        <time>2022-07-27T12:37:19.113Z</time>
      </trkpt>
      <trkpt lat="43.877238" lon="5.391412">
        <ele>224.026653</ele>
        <time>2022-07-27T12:38:00.294Z</time>
      </trkpt>
      <trkpt lat="43.877118" lon="5.391869">
        <ele>224.218226</ele>
        <time>2022-07-27T12:38:09.799Z</time>
      </trkpt>
      <trkpt lat="43.877091" lon="5.391967">
        <ele>224.259550</ele>
        <time>2022-07-27T12:38:11.708Z</time>
      </trkpt>
      <trkpt lat="43.877042" lon="5.392151">
        <ele>224.336811</ele>
        <time>2022-07-27T12:38:15.355Z</time>
      </trkpt>
      <trkpt lat="43.877018" lon="5.392241">
        <ele>224.374608</ele>
        <time>2022-07-27T12:38:17.201Z</time>
      </trkpt>
      <trkpt lat="43.876864" lon="5.392645">
        <ele>224.778770</ele>
        <time>2022-07-27T12:38:25.934Z</time>
      </trkpt>
      <trkpt lat="43.876626" lon="5.393058">
        <ele>225.329942</ele>
        <time>2022-07-27T12:38:36.595Z</time>
      </trkpt>
      <trkpt lat="43.876605" lon="5.393099">
        <ele>225.382370</ele>
        <time>2022-07-27T12:38:37.655Z</time>
      </trkpt>
      <trkpt lat="43.876548" lon="5.393270">
        <ele>225.578755</ele>
        <time>2022-07-27T12:38:41.436Z</time>
      </trkpt>
      <trkpt lat="43.876551" lon="5.393339">
        <ele>225.650811</ele>
        <time>2022-07-27T12:38:42.831Z</time>
      </trkpt>
      <trkpt lat="43.876578" lon="5.393496">
        <ele>225.819060</ele>
        <time>2022-07-27T12:38:46.223Z</time>
      </trkpt>
      <trkpt lat="43.876676" lon="5.393727">
        <ele>226.098461</ele>
        <time>2022-07-27T12:38:51.811Z</time>
      </trkpt>
      <trkpt lat="43.876707" lon="5.393780">
        <ele>226.169608</ele>
        <time>2022-07-27T12:38:53.249Z</time>
      </trkpt>
      <trkpt lat="43.876762" lon="5.393861">
        <ele>226.285603</ele>
        <time>2022-07-27T12:38:55.657Z</time>
      </trkpt>
      <trkpt lat="43.876950" lon="5.394135">
        <ele>226.679921</ele>
        <time>2022-07-27T12:39:03.447Z</time>
      </trkpt>
      <trkpt lat="43.876987" lon="5.394209">
        <ele>226.773798</ele>
        <time>2022-07-27T12:39:05.306Z</time>
      </trkpt>
      <trkpt lat="43.877018" lon="5.394280">
        <ele>226.860326</ele>
        <time>2022-07-27T12:39:07.082Z</time>
      </trkpt>
      <trkpt lat="43.877162" lon="5.394612">
        <ele>227.218587</ele>
        <time>2022-07-27T12:39:14.861Z</time>
      </trkpt>
      <trkpt lat="43.877288" lon="5.395086">
        <ele>227.647017</ele>
        <time>2022-07-27T12:39:24.921Z</time>
      </trkpt>
      <trkpt lat="43.877309" lon="5.395234">
        <ele>227.774934</ele>
        <time>2022-07-27T12:39:27.984Z</time>
      </trkpt>
      <trkpt lat="43.877331" lon="5.395686">
        <ele>228.159118</ele>
        <time>2022-07-27T12:39:37.086Z</time>
      </trkpt>
      <trkpt lat="43.877309" lon="5.395234">
        <ele>228.543302</ele>
        <time>2022-07-27T12:39:46.704Z</time>
      </trkpt>
      <trkpt lat="43.877331" lon="5.395686">
        <ele>228.927486</ele>
        <time>2022-07-27T12:39:55.447Z</time>
      </trkpt>
      <trkpt lat="43.877344" lon="5.395938">
        <ele>229.131301</ele>
        <time>2022-07-27T12:39:59.811Z</time>
      </trkpt>
      <trkpt lat="43.877287" lon="5.396574">
        <ele>228.760033</ele>
        <time>2022-07-27T12:40:09.664Z</time>
      </trkpt>
      <trkpt lat="43.877151" lon="5.397235">
        <ele>228.361826</ele>
        <time>2022-07-27T12:40:19.384Z</time>
      </trkpt>
      <trkpt lat="43.877100" lon="5.397470">
        <ele>228.219655</ele>
        <time>2022-07-27T12:40:22.748Z</time>
      </trkpt>
      <trkpt lat="43.876928" lon="5.398296">
        <ele>227.721590</ele>
        <time>2022-07-27T12:40:34.294Z</time>
      </trkpt>
      <trkpt lat="43.876889" lon="5.398475">
        <ele>227.599534</ele>
        <time>2022-07-27T12:40:36.700Z</time>
      </trkpt>
      <trkpt lat="43.876745" lon="5.399153">
        <ele>227.116867</ele>
        <time>2022-07-27T12:40:45.702Z</time>
      </trkpt>
      <trkpt lat="43.876678" lon="5.399381">
        <ele>226.948732</ele>
        <time>2022-07-27T12:40:48.762Z</time>
      </trkpt>
      <trkpt lat="43.876652" lon="5.399433">
        <ele>226.905516</ele>
        <time>2022-07-27T12:40:49.565Z</time>
      </trkpt>
      <trkpt lat="43.876301" lon="5.399867">
        <ele>226.460094</ele>
        <time>2022-07-27T12:40:58.576Z</time>
      </trkpt>
      <trkpt lat="43.876247" lon="5.399906">
        <ele>226.402420</ele>
        <time>2022-07-27T12:40:59.785Z</time>
      </trkpt>
      <trkpt lat="43.876047" lon="5.400038">
        <ele>226.192603</ele>
        <time>2022-07-27T12:41:04.714Z</time>
      </trkpt>
      <trkpt lat="43.875842" lon="5.400151">
        <ele>225.990276</ele>
        <time>2022-07-27T12:41:09.835Z</time>
      </trkpt>
      <trkpt lat="43.875716" lon="5.400183">
        <ele>226.192145</ele>
        <time>2022-07-27T12:41:13.226Z</time>
      </trkpt>
      <trkpt lat="43.875685" lon="5.400193">
        <ele>226.242303</ele>
        <time>2022-07-27T12:41:14.068Z</time>
      </trkpt>
      <trkpt lat="43.875619" lon="5.400214">
        <ele>226.349016</ele>
        <time>2022-07-27T12:41:15.878Z</time>
      </trkpt>
      <trkpt lat="43.875286" lon="5.400484">
        <ele>226.956869</ele>
        <time>2022-07-27T12:41:26.553Z</time>
      </trkpt>
      <trkpt lat="43.875177" lon="5.400505">
        <ele>227.130296</ele>
        <time>2022-07-27T12:41:29.656Z</time>
      </trkpt>
      <trkpt lat="43.875094" lon="5.400433">
        <ele>227.284567</ele>
        <time>2022-07-27T12:41:32.554Z</time>
      </trkpt>
      <trkpt lat="43.874960" lon="5.400496">
        <ele>227.507543</ele>
        <time>2022-07-27T12:41:36.648Z</time>
      </trkpt>
      <trkpt lat="43.874934" lon="5.400685">
        <ele>227.726127</ele>
        <time>2022-07-27T12:41:40.678Z</time>
      </trkpt>
      <trkpt lat="43.874901" lon="5.400769">
        <ele>227.834804</ele>
        <time>2022-07-27T12:41:42.790Z</time>
      </trkpt>
      <trkpt lat="43.874880" lon="5.400843">
        <ele>227.925150</ele>
        <time>2022-07-27T12:41:44.477Z</time>
      </trkpt>
      <trkpt lat="43.874844" lon="5.400952">
        <ele>228.061356</ele>
        <time>2022-07-27T12:41:47.070Z</time>
      </trkpt>
      <trkpt lat="43.874794" lon="5.401110">
        <ele>228.257383</ele>
        <time>2022-07-27T12:41:50.787Z</time>
      </trkpt>
      <trkpt lat="43.874788" lon="5.401122">
        <ele>228.273974</ele>
        <time>2022-07-27T12:41:51.106Z</time>
      </trkpt>
      <trkpt lat="43.874756" lon="5.401213">
        <ele>228.388997</ele>
        <time>2022-07-27T12:41:53.396Z</time>
      </trkpt>
      <trkpt lat="43.874736" lon="5.401294">
        <ele>228.486264</ele>
        <time>2022-07-27T12:41:55.332Z</time>
      </trkpt>
      <trkpt lat="43.874719" lon="5.401379">
        <ele>228.586474</ele>
        <time>2022-07-27T12:41:57.365Z</time>
      </trkpt>
      <trkpt lat="43.874713" lon="5.401458">
        <ele>228.676718</ele>
        <time>2022-07-27T12:41:59.161Z</time>
      </trkpt>
      <trkpt lat="43.874713" lon="5.401508">
        <ele>228.733519</ele>
        <time>2022-07-27T12:42:00.294Z</time>
      </trkpt>
      <trkpt lat="43.874714" lon="5.401552">
        <ele>228.783530</ele>
        <time>2022-07-27T12:42:01.303Z</time>
      </trkpt>
      <trkpt lat="43.874717" lon="5.401594">
        <ele>228.837098</ele>
        <time>2022-07-27T12:42:02.239Z</time>
      </trkpt>
      <trkpt lat="43.874723" lon="5.401643">
        <ele>228.922986</ele>
        <time>2022-07-27T12:42:03.406Z</time>
      </trkpt>
      <trkpt lat="43.874752" lon="5.401782">
        <ele>229.173046</ele>
        <time>2022-07-27T12:42:06.817Z</time>
      </trkpt>
      <trkpt lat="43.874768" lon="5.401852">
        <ele>229.299947</ele>
        <time>2022-07-27T12:42:08.562Z</time>
      </trkpt>
      <trkpt lat="43.874875" lon="5.402246">
        <ele>230.027521</ele>
        <time>2022-07-27T12:42:18.462Z</time>
      </trkpt>
      <trkpt lat="43.874953" lon="5.402502">
        <ele>230.507800</ele>
        <time>2022-07-27T12:42:24.923Z</time>
      </trkpt>
      <trkpt lat="43.875130" lon="5.402901">
        <ele>231.317397</ele>
        <time>2022-07-27T12:42:35.681Z</time>
      </trkpt>
      <trkpt lat="43.875198" lon="5.403048">
        <ele>231.619227</ele>
        <time>2022-07-27T12:42:39.568Z</time>
      </trkpt>
      <trkpt lat="43.876055" lon="5.404670">
        <ele>234.566678</ele>
        <time>2022-07-27T12:43:25.654Z</time>
      </trkpt>
      <trkpt lat="43.876703" lon="5.405863">
        <ele>236.371223</ele>
        <time>2022-07-27T12:43:55.082Z</time>
      </trkpt>
      <trkpt lat="43.876848" lon="5.406288">
        <ele>236.675860</ele>
        <time>2022-07-27T12:44:03.881Z</time>
      </trkpt>
      <trkpt lat="43.876876" lon="5.406417">
        <ele>236.763144</ele>
        <time>2022-07-27T12:44:06.121Z</time>
      </trkpt>
      <trkpt lat="43.877041" lon="5.406742">
        <ele>237.020690</ele>
        <time>2022-07-27T12:44:13.969Z</time>
      </trkpt>
      <trkpt lat="43.877140" lon="5.406810">
        <ele>237.119981</ele>
        <time>2022-07-27T12:44:16.535Z</time>
      </trkpt>
      <trkpt lat="43.877136" lon="5.407624">
        <ele>237.647370</ele>
        <time>2022-07-27T12:44:32.247Z</time>
      </trkpt>
      <trkpt lat="43.877371" lon="5.409384">
        <ele>239.279490</ele>
        <time>2022-07-27T12:45:07.145Z</time>
      </trkpt>
      <trkpt lat="43.877796" lon="5.412335">
        <ele>243.066559</ele>
        <time>2022-07-27T12:46:13.377Z</time>
      </trkpt>
      <trkpt lat="43.877935" lon="5.414202">
        <ele>245.866586</ele>
        <time>2022-07-27T12:46:57.161Z</time>
      </trkpt>
      <trkpt lat="43.877992" lon="5.415018">
        <ele>247.118020</ele>
        <time>2022-07-27T12:47:16.293Z</time>
      </trkpt>
      <trkpt lat="43.877996" lon="5.415084">
        <ele>247.219122</ele>
        <time>2022-07-27T12:47:17.913Z</time>
      </trkpt>
      <trkpt lat="43.878209" lon="5.417847">
        <ele>250.259883</ele>
        <time>2022-07-27T12:48:15.991Z</time>
      </trkpt>
      <trkpt lat="43.878420" lon="5.420101">
        <ele>252.064327</ele>
        <time>2022-07-27T12:48:59.552Z</time>
      </trkpt>
      <trkpt lat="43.878307" lon="5.420128">
        <ele>252.190063</ele>
        <time>2022-07-27T12:49:03.267Z</time>
      </trkpt>
      <trkpt lat="43.878519" lon="5.421663">
        <ele>254.755711</ele>
        <time>2022-07-27T12:49:35.529Z</time>
      </trkpt>
      <trkpt lat="43.878538" lon="5.422159">
        <ele>255.598432</ele>
        <time>2022-07-27T12:49:48.687Z</time>
      </trkpt>
      <trkpt lat="43.878454" lon="5.422795">
        <ele>256.715404</ele>
        <time>2022-07-27T12:50:05.265Z</time>
      </trkpt>
      <trkpt lat="43.878315" lon="5.423508">
        <ele>258.095642</ele>
        <time>2022-07-27T12:50:25.015Z</time>
      </trkpt>
      <trkpt lat="43.878248" lon="5.424135">
        <ele>259.280110</ele>
        <time>2022-07-27T12:50:40.882Z</time>
      </trkpt>
      <trkpt lat="43.878252" lon="5.425624">
        <ele>260.836228</ele>
        <time>2022-07-27T12:51:12.318Z</time>
      </trkpt>
      <trkpt lat="43.878317" lon="5.426073">
        <ele>260.527072</ele>
        <time>2022-07-27T12:51:19.006Z</time>
      </trkpt>
      <trkpt lat="43.878433" lon="5.426428">
        <ele>260.263951</ele>
        <time>2022-07-27T12:51:24.115Z</time>
      </trkpt>
      <trkpt lat="43.878921" lon="5.427506">
        <ele>259.449454</ele>
        <time>2022-07-27T12:51:39.890Z</time>
      </trkpt>
      <trkpt lat="43.879121" lon="5.428356">
        <ele>259.218670</ele>
        <time>2022-07-27T12:51:51.118Z</time>
      </trkpt>
      <trkpt lat="43.879121" lon="5.428390">
        <ele>259.209895</ele>
        <time>2022-07-27T12:51:51.717Z</time>
      </trkpt>
      <trkpt lat="43.879121" lon="5.429771">
        <ele>258.853450</ele>
        <time>2022-07-27T12:52:16.059Z</time>
      </trkpt>
      <trkpt lat="43.879096" lon="5.430389">
        <ele>259.521358</ele>
        <time>2022-07-27T12:52:29.662Z</time>
      </trkpt>
      <trkpt lat="43.879133" lon="5.430724">
        <ele>259.953051</ele>
        <time>2022-07-27T12:52:37.523Z</time>
      </trkpt>
      <trkpt lat="43.879640" lon="5.433181">
        <ele>262.042767</ele>
        <time>2022-07-27T12:53:31.826Z</time>
      </trkpt>
      <trkpt lat="43.879527" lon="5.434769">
        <ele>262.056917</ele>
        <time>2022-07-27T12:53:54.206Z</time>
      </trkpt>
      <trkpt lat="43.879630" lon="5.436685">
        <ele>260.256470</ele>
        <time>2022-07-27T12:54:19.421Z</time>
      </trkpt>
      <trkpt lat="43.879679" lon="5.437027">
        <ele>259.929717</ele>
        <time>2022-07-27T12:54:24.176Z</time>
      </trkpt>
      <trkpt lat="43.880009" lon="5.438129">
        <ele>259.479388</ele>
        <time>2022-07-27T12:54:41.511Z</time>
      </trkpt>
      <trkpt lat="43.880004" lon="5.438189">
        <ele>259.462813</ele>
        <time>2022-07-27T12:54:42.687Z</time>
      </trkpt>
      <trkpt lat="43.879914" lon="5.439269">
        <ele>259.164461</ele>
        <time>2022-07-27T12:55:00.144Z</time>
      </trkpt>
      <trkpt lat="43.879943" lon="5.440180">
        <ele>258.893659</ele>
        <time>2022-07-27T12:55:13.956Z</time>
      </trkpt>
      <trkpt lat="43.879891" lon="5.442099">
        <ele>258.297654</ele>
        <time>2022-07-27T12:55:42.079Z</time>
      </trkpt>
      <trkpt lat="43.879854" lon="5.442560">
        <ele>258.377111</ele>
        <time>2022-07-27T12:55:49.172Z</time>
      </trkpt>
      <trkpt lat="43.879783" lon="5.442836">
        <ele>258.428219</ele>
        <time>2022-07-27T12:55:53.719Z</time>
      </trkpt>
      <trkpt lat="43.879757" lon="5.442934">
        <ele>258.446431</ele>
        <time>2022-07-27T12:55:55.351Z</time>
      </trkpt>
      <trkpt lat="43.879172" lon="5.444166">
        <ele>258.703723</ele>
        <time>2022-07-27T12:56:20.905Z</time>
      </trkpt>
      <trkpt lat="43.878892" lon="5.444759">
        <ele>259.142136</ele>
        <time>2022-07-27T12:56:34.098Z</time>
      </trkpt>
      <trkpt lat="43.878839" lon="5.444879">
        <ele>259.247636</ele>
        <time>2022-07-27T12:56:36.865Z</time>
      </trkpt>
      <trkpt lat="43.878571" lon="5.445393">
        <ele>259.723189</ele>
        <time>2022-07-27T12:56:49.328Z</time>
      </trkpt>
      <trkpt lat="43.878535" lon="5.445536">
        <ele>259.836738</ele>
        <time>2022-07-27T12:56:52.102Z</time>
      </trkpt>
      <trkpt lat="43.878443" lon="5.445628">
        <ele>259.954682</ele>
        <time>2022-07-27T12:56:55.179Z</time>
      </trkpt>
      <trkpt lat="43.878005" lon="5.446058">
        <ele>260.512718</ele>
        <time>2022-07-27T12:57:09.470Z</time>
      </trkpt>
      <trkpt lat="43.877159" lon="5.446440">
        <ele>261.385043</ele>
        <time>2022-07-27T12:57:33.213Z</time>
      </trkpt>
      <trkpt lat="43.876686" lon="5.446809">
        <ele>261.913644</ele>
        <time>2022-07-27T12:57:47.600Z</time>
      </trkpt>
      <trkpt lat="43.874732" lon="5.447842">
        <ele>263.383125</ele>
        <time>2022-07-27T12:58:39.453Z</time>
      </trkpt>
      <trkpt lat="43.873550" lon="5.448296">
        <ele>263.809024</ele>
        <time>2022-07-27T12:59:09.572Z</time>
      </trkpt>
      <trkpt lat="43.873048" lon="5.448571">
        <ele>263.973699</ele>
        <time>2022-07-27T12:59:21.898Z</time>
      </trkpt>
      <trkpt lat="43.872797" lon="5.448804">
        <ele>263.989760</ele>
        <time>2022-07-27T12:59:28.271Z</time>
      </trkpt>
      <trkpt lat="43.872464" lon="5.449113">
        <ele>263.833275</ele>
        <time>2022-07-27T12:59:36.386Z</time>
      </trkpt>
      <trkpt lat="43.871971" lon="5.449996">
        <ele>263.518796</ele>
        <time>2022-07-27T12:59:52.905Z</time>
      </trkpt>
      <trkpt lat="43.872081" lon="5.449936">
        <ele>263.472629</ele>
        <time>2022-07-27T12:59:56.834Z</time>
      </trkpt>
      <trkpt lat="43.872268" lon="5.449680">
        <ele>263.370009</ele>
        <time>2022-07-27T13:00:06.656Z</time>
      </trkpt>
      <trkpt lat="43.872378" lon="5.449756">
        <ele>263.338288</ele>
        <time>2022-07-27T13:00:10.762Z</time>
      </trkpt>
      <trkpt lat="43.871846" lon="5.450430">
        <ele>263.634467</ele>
        <time>2022-07-27T13:00:26.889Z</time>
      </trkpt>
      <trkpt lat="43.870953" lon="5.451901">
        <ele>264.290086</ele>
        <time>2022-07-27T13:01:02.123Z</time>
      </trkpt>
      <trkpt lat="43.870950" lon="5.452096">
        <ele>264.384575</ele>
        <time>2022-07-27T13:01:05.837Z</time>
      </trkpt>
      <trkpt lat="43.870608" lon="5.452492">
        <ele>264.683946</ele>
        <time>2022-07-27T13:01:17.664Z</time>
      </trkpt>
      <trkpt lat="43.870262" lon="5.452794">
        <ele>264.958659</ele>
        <time>2022-07-27T13:01:28.059Z</time>
      </trkpt>
      <trkpt lat="43.869718" lon="5.453453">
        <ele>265.260138</ele>
        <time>2022-07-27T13:01:45.078Z</time>
      </trkpt>
      <trkpt lat="43.869439" lon="5.453921">
        <ele>265.228439</ele>
        <time>2022-07-27T13:01:55.420Z</time>
      </trkpt>
      <trkpt lat="43.869177" lon="5.454429">
        <ele>265.195835</ele>
        <time>2022-07-27T13:02:06.166Z</time>
      </trkpt>
      <trkpt lat="43.868839" lon="5.455339">
        <ele>265.089928</ele>
        <time>2022-07-27T13:02:22.247Z</time>
      </trkpt>
      <trkpt lat="43.868767" lon="5.455466">
        <ele>264.999411</ele>
        <time>2022-07-27T13:02:25.010Z</time>
      </trkpt>
      <trkpt lat="43.868289" lon="5.455846">
        <ele>264.571263</ele>
        <time>2022-07-27T13:02:36.085Z</time>
      </trkpt>
      <trkpt lat="43.868085" lon="5.456077">
        <ele>264.366612</ele>
        <time>2022-07-27T13:02:41.484Z</time>
      </trkpt>
      <trkpt lat="43.867497" lon="5.457052">
        <ele>263.670551</ele>
        <time>2022-07-27T13:03:00.553Z</time>
      </trkpt>
      <trkpt lat="43.867086" lon="5.457802">
        <ele>263.231727</ele>
        <time>2022-07-27T13:03:14.254Z</time>
      </trkpt>
      <trkpt lat="43.866877" lon="5.458292">
        <ele>262.966525</ele>
        <time>2022-07-27T13:03:22.722Z</time>
      </trkpt>
      <trkpt lat="43.866747" lon="5.458861">
        <ele>262.688487</ele>
        <time>2022-07-27T13:03:32.009Z</time>
      </trkpt>
      <trkpt lat="43.866807" lon="5.459191">
        <ele>262.618925</ele>
        <time>2022-07-27T13:03:37.670Z</time>
      </trkpt>
      <trkpt lat="43.866847" lon="5.459363">
        <ele>262.663983</ele>
        <time>2022-07-27T13:03:40.722Z</time>
      </trkpt>
      <trkpt lat="43.866879" lon="5.459903">
        <ele>262.799066</ele>
        <time>2022-07-27T13:03:49.943Z</time>
      </trkpt>
      <trkpt lat="43.866357" lon="5.460661">
        <ele>263.060407</ele>
        <time>2022-07-27T13:04:08.543Z</time>
      </trkpt>
      <trkpt lat="43.866147" lon="5.460833">
        <ele>263.144743</ele>
        <time>2022-07-27T13:04:14.919Z</time>
      </trkpt>
      <trkpt lat="43.865799" lon="5.461396">
        <ele>263.666361</ele>
        <time>2022-07-27T13:04:28.591Z</time>
      </trkpt>
      <trkpt lat="43.865693" lon="5.461570">
        <ele>263.882877</ele>
        <time>2022-07-27T13:04:32.977Z</time>
      </trkpt>
      <trkpt lat="43.863471" lon="5.464610">
        <ele>268.489163</ele>
        <time>2022-07-27T13:06:01.288Z</time>
      </trkpt>
      <trkpt lat="43.863544" lon="5.464711">
        <ele>268.679912</ele>
        <time>2022-07-27T13:06:04.679Z</time>
      </trkpt>
      <trkpt lat="43.861917" lon="5.467079">
        <ele>272.388463</ele>
        <time>2022-07-27T13:07:17.195Z</time>
      </trkpt>
      <trkpt lat="43.861545" lon="5.467859">
        <ele>273.002932</ele>
        <time>2022-07-27T13:07:33.941Z</time>
      </trkpt>
      <trkpt lat="43.860222" lon="5.470753">
        <ele>274.328114</ele>
        <time>2022-07-27T13:08:31.660Z</time>
      </trkpt>
      <trkpt lat="43.859251" lon="5.473088">
        <ele>278.540445</ele>
        <time>2022-07-27T13:09:37.545Z</time>
      </trkpt>
      <trkpt lat="43.859101" lon="5.473955">
        <ele>280.001056</ele>
        <time>2022-07-27T13:09:59.424Z</time>
      </trkpt>
      <trkpt lat="43.858823" lon="5.474308">
        <ele>280.857400</ele>
        <time>2022-07-27T13:10:11.361Z</time>
      </trkpt>
      <trkpt lat="43.858654" lon="5.474402">
        <ele>281.271087</ele>
        <time>2022-07-27T13:10:16.743Z</time>
      </trkpt>
      <trkpt lat="43.858445" lon="5.474721">
        <ele>281.924113</ele>
        <time>2022-07-27T13:10:25.697Z</time>
      </trkpt>
      <trkpt lat="43.857907" lon="5.475307">
        <ele>283.128720</ele>
        <time>2022-07-27T13:10:44.405Z</time>
      </trkpt>
      <trkpt lat="43.856688" lon="5.476164">
        <ele>285.832340</ele>
        <time>2022-07-27T13:11:25.222Z</time>
      </trkpt>
      <trkpt lat="43.855989" lon="5.476646">
        <ele>287.858387</ele>
        <time>2022-07-27T13:11:51.629Z</time>
      </trkpt>
      <trkpt lat="43.855310" lon="5.477111">
        <ele>289.848553</ele>
        <time>2022-07-27T13:12:16.596Z</time>
      </trkpt>
      <trkpt lat="43.854961" lon="5.477262">
        <ele>290.892403</ele>
        <time>2022-07-27T13:12:28.559Z</time>
      </trkpt>
      <trkpt lat="43.853811" lon="5.477385">
        <ele>294.185678</ele>
        <time>2022-07-27T13:13:08.221Z</time>
      </trkpt>
      <trkpt lat="43.853428" lon="5.477550">
        <ele>295.100837</ele>
        <time>2022-07-27T13:13:21.241Z</time>
      </trkpt>
      <trkpt lat="43.853177" lon="5.477846">
        <ele>295.691904</ele>
        <time>2022-07-27T13:13:32.056Z</time>
      </trkpt>
      <trkpt lat="43.853097" lon="5.478014">
        <ele>295.952339</ele>
        <time>2022-07-27T13:13:37.054Z</time>
      </trkpt>
      <trkpt lat="43.853024" lon="5.478201">
        <ele>296.227416</ele>
        <time>2022-07-27T13:13:41.908Z</time>
      </trkpt>
      <trkpt lat="43.852896" lon="5.479007">
        <ele>297.295055</ele>
        <time>2022-07-27T13:13:59.617Z</time>
      </trkpt>
      <trkpt lat="43.852663" lon="5.479501">
        <ele>297.827081</ele>
        <time>2022-07-27T13:14:10.469Z</time>
      </trkpt>
      <trkpt lat="43.852231" lon="5.479784">
        <ele>297.028884</ele>
        <time>2022-07-27T13:14:20.085Z</time>
      </trkpt>
      <trkpt lat="43.850990" lon="5.480292">
        <ele>294.880982</ele>
        <time>2022-07-27T13:14:42.043Z</time>
      </trkpt>
      <trkpt lat="43.850822" lon="5.480446">
        <ele>294.614220</ele>
        <time>2022-07-27T13:14:45.347Z</time>
      </trkpt>
      <trkpt lat="43.850680" lon="5.480704">
        <ele>294.304191</ele>
        <time>2022-07-27T13:14:49.264Z</time>
      </trkpt>
      <trkpt lat="43.850618" lon="5.480947">
        <ele>294.057968</ele>
        <time>2022-07-27T13:14:52.450Z</time>
      </trkpt>
      <trkpt lat="43.850615" lon="5.481255">
        <ele>293.763727</ele>
        <time>2022-07-27T13:14:56.363Z</time>
      </trkpt>
      <trkpt lat="43.850828" lon="5.482255">
        <ele>292.767693</ele>
        <time>2022-07-27T13:15:11.161Z</time>
      </trkpt>
      <trkpt lat="43.851456" lon="5.483252">
        <ele>293.772493</ele>
        <time>2022-07-27T13:15:36.288Z</time>
      </trkpt>
      <trkpt lat="43.851641" lon="5.483733">
        <ele>294.379148</ele>
        <time>2022-07-27T13:15:48.066Z</time>
      </trkpt>
      <trkpt lat="43.851768" lon="5.484746">
        <ele>295.580530</ele>
        <time>2022-07-27T13:16:11.621Z</time>
      </trkpt>
      <trkpt lat="43.851830" lon="5.485882">
        <ele>297.217368</ele>
        <time>2022-07-27T13:16:38.309Z</time>
      </trkpt>
      <trkpt lat="43.851768" lon="5.487311">
        <ele>298.884545</ele>
        <time>2022-07-27T13:17:08.170Z</time>
      </trkpt>
      <trkpt lat="43.851637" lon="5.488019">
        <ele>298.809380</ele>
        <time>2022-07-27T13:17:20.410Z</time>
      </trkpt>
      <trkpt lat="43.851621" lon="5.488107">
        <ele>298.800047</ele>
        <time>2022-07-27T13:17:21.821Z</time>
      </trkpt>
      <trkpt lat="43.851213" lon="5.488975">
        <ele>298.693500</ele>
        <time>2022-07-27T13:17:36.685Z</time>
      </trkpt>
      <trkpt lat="43.850639" lon="5.489882">
        <ele>298.332369</ele>
        <time>2022-07-27T13:17:53.234Z</time>
      </trkpt>
      <trkpt lat="43.850526" lon="5.490189">
        <ele>298.197707</ele>
        <time>2022-07-27T13:17:58.073Z</time>
      </trkpt>
      <trkpt lat="43.850407" lon="5.490762">
        <ele>297.964742</ele>
        <time>2022-07-27T13:18:06.734Z</time>
      </trkpt>
      <trkpt lat="43.850370" lon="5.491108">
        <ele>297.828084</ele>
        <time>2022-07-27T13:18:12.106Z</time>
      </trkpt>
      <trkpt lat="43.850385" lon="5.491545">
        <ele>297.706037</ele>
        <time>2022-07-27T13:18:19.386Z</time>
      </trkpt>
      <trkpt lat="43.850627" lon="5.493023">
        <ele>298.400889</ele>
        <time>2022-07-27T13:18:47.249Z</time>
      </trkpt>
      <trkpt lat="43.850585" lon="5.493575">
        <ele>298.655364</ele>
        <time>2022-07-27T13:18:57.504Z</time>
      </trkpt>
      <trkpt lat="43.850543" lon="5.493854">
        <ele>298.786032</ele>
        <time>2022-07-27T13:19:02.553Z</time>
      </trkpt>
      <trkpt lat="43.850542" lon="5.494643">
        <ele>298.918106</ele>
        <time>2022-07-27T13:19:16.453Z</time>
      </trkpt>
      <trkpt lat="43.850557" lon="5.494962">
        <ele>298.960991</ele>
        <time>2022-07-27T13:19:21.871Z</time>
      </trkpt>
      <trkpt lat="43.850752" lon="5.498418">
        <ele>299.253670</ele>
        <time>2022-07-27T13:20:17.132Z</time>
      </trkpt>
      <trkpt lat="43.850723" lon="5.499068">
        <ele>299.329678</ele>
        <time>2022-07-27T13:20:28.110Z</time>
      </trkpt>
      <trkpt lat="43.850710" lon="5.499271">
        <ele>299.397438</ele>
        <time>2022-07-27T13:20:31.624Z</time>
      </trkpt>
      <trkpt lat="43.850677" lon="5.499750">
        <ele>299.557423</ele>
        <time>2022-07-27T13:20:39.897Z</time>
      </trkpt>
      <trkpt lat="43.850654" lon="5.500121">
        <ele>299.681229</ele>
        <time>2022-07-27T13:20:46.324Z</time>
      </trkpt>
      <trkpt lat="43.850595" lon="5.501150">
        <ele>300.024436</ele>
        <time>2022-07-27T13:21:04.484Z</time>
      </trkpt>
      <trkpt lat="43.850499" lon="5.502845">
        <ele>300.561378</ele>
        <time>2022-07-27T13:21:34.593Z</time>
      </trkpt>
      <trkpt lat="43.850688" lon="5.504602">
        <ele>301.256562</ele>
        <time>2022-07-27T13:22:04.275Z</time>
      </trkpt>
      <trkpt lat="43.850716" lon="5.504829">
        <ele>301.372238</ele>
        <time>2022-07-27T13:22:08.179Z</time>
      </trkpt>
      <trkpt lat="43.850744" lon="5.505074">
        <ele>301.496835</ele>
        <time>2022-07-27T13:22:12.697Z</time>
      </trkpt>
      <trkpt lat="43.850841" lon="5.505835">
        <ele>301.885004</ele>
        <time>2022-07-27T13:22:26.930Z</time>
      </trkpt>
      <trkpt lat="43.851017" lon="5.506363">
        <ele>302.216511</ele>
        <time>2022-07-27T13:22:38.127Z</time>
      </trkpt>
      <trkpt lat="43.852340" lon="5.508853">
        <ele>305.095019</ele>
        <time>2022-07-27T13:23:41.323Z</time>
      </trkpt>
      <trkpt lat="43.852412" lon="5.508987">
        <ele>305.188507</ele>
        <time>2022-07-27T13:23:44.279Z</time>
      </trkpt>
      <trkpt lat="43.853197" lon="5.510398">
        <ele>306.211584</ele>
        <time>2022-07-27T13:24:15.202Z</time>
      </trkpt>
      <trkpt lat="43.853445" lon="5.511123">
        <ele>306.824367</ele>
        <time>2022-07-27T13:24:28.518Z</time>
      </trkpt>
      <trkpt lat="43.853595" lon="5.512041">
        <ele>307.543172</ele>
        <time>2022-07-27T13:24:46.060Z</time>
      </trkpt>
      <trkpt lat="43.853626" lon="5.513900">
        <ele>310.071581</ele>
        <time>2022-07-27T13:25:28.417Z</time>
      </trkpt>
      <trkpt lat="43.853647" lon="5.515202">
        <ele>312.194399</ele>
        <time>2022-07-27T13:25:58.701Z</time>
      </trkpt>
      <trkpt lat="43.853568" lon="5.515775">
        <ele>312.654176</ele>
        <time>2022-07-27T13:26:11.494Z</time>
      </trkpt>
      <trkpt lat="43.853310" lon="5.516521">
        <ele>313.306243</ele>
        <time>2022-07-27T13:26:28.208Z</time>
      </trkpt>
      <trkpt lat="43.852695" lon="5.517546">
        <ele>314.074231</ele>
        <time>2022-07-27T13:26:50.098Z</time>
      </trkpt>
      <trkpt lat="43.852635" lon="5.517790">
        <ele>314.029837</ele>
        <time>2022-07-27T13:26:54.000Z</time>
      </trkpt>
      <trkpt lat="43.852487" lon="5.518397">
        <ele>313.919495</ele>
        <time>2022-07-27T13:27:03.618Z</time>
      </trkpt>
      <trkpt lat="43.852460" lon="5.518514">
        <ele>313.898340</ele>
        <time>2022-07-27T13:27:05.356Z</time>
      </trkpt>
      <trkpt lat="43.852311" lon="5.519205">
        <ele>313.774139</ele>
        <time>2022-07-27T13:27:16.243Z</time>
      </trkpt>
      <trkpt lat="43.852233" lon="5.519557">
        <ele>313.710725</ele>
        <time>2022-07-27T13:27:21.843Z</time>
      </trkpt>
      <trkpt lat="43.852218" lon="5.519629">
        <ele>313.697819</ele>
        <time>2022-07-27T13:27:23.021Z</time>
      </trkpt>
      <trkpt lat="43.852209" lon="5.519670">
        <ele>313.710950</ele>
        <time>2022-07-27T13:27:23.681Z</time>
      </trkpt>
      <trkpt lat="43.852030" lon="5.520483">
        <ele>314.164653</ele>
        <time>2022-07-27T13:27:37.406Z</time>
      </trkpt>
      <trkpt lat="43.851973" lon="5.520730">
        <ele>314.303072</ele>
        <time>2022-07-27T13:27:42.282Z</time>
      </trkpt>
      <trkpt lat="43.851644" lon="5.522273">
        <ele>315.188477</ele>
        <time>2022-07-27T13:28:13.768Z</time>
      </trkpt>
      <trkpt lat="43.851623" lon="5.522744">
        <ele>315.489908</ele>
        <time>2022-07-27T13:28:23.655Z</time>
      </trkpt>
      <trkpt lat="43.851741" lon="5.524061">
        <ele>316.337625</ele>
        <time>2022-07-27T13:28:48.641Z</time>
      </trkpt>
      <trkpt lat="43.851699" lon="5.524582">
        <ele>316.584702</ele>
        <time>2022-07-27T13:28:57.713Z</time>
      </trkpt>
      <trkpt lat="43.851437" lon="5.526072">
        <ele>315.929846</ele>
        <time>2022-07-27T13:29:20.464Z</time>
      </trkpt>
      <trkpt lat="43.851419" lon="5.526723">
        <ele>315.651670</ele>
        <time>2022-07-27T13:29:29.243Z</time>
      </trkpt>
      <trkpt lat="43.851453" lon="5.527047">
        <ele>315.500916</ele>
        <time>2022-07-27T13:29:33.554Z</time>
      </trkpt>
      <trkpt lat="43.851958" lon="5.529165">
        <ele>314.305907</ele>
        <time>2022-07-27T13:30:05.197Z</time>
      </trkpt>
      <trkpt lat="43.851985" lon="5.529950">
        <ele>314.422173</ele>
        <time>2022-07-27T13:30:17.944Z</time>
      </trkpt>
      <trkpt lat="43.851917" lon="5.531505">
        <ele>314.930627</ele>
        <time>2022-07-27T13:30:45.313Z</time>
      </trkpt>
      <trkpt lat="43.851758" lon="5.532244">
        <ele>315.408523</ele>
        <time>2022-07-27T13:31:00.338Z</time>
      </trkpt>
      <trkpt lat="43.851726" lon="5.532654">
        <ele>315.746759</ele>
        <time>2022-07-27T13:31:08.525Z</time>
      </trkpt>
      <trkpt lat="43.851776" lon="5.536187">
        <ele>318.566647</ele>
        <time>2022-07-27T13:32:17.298Z</time>
      </trkpt>
      <trkpt lat="43.851832" lon="5.536745">
        <ele>319.005605</ele>
        <time>2022-07-27T13:32:27.740Z</time>
      </trkpt>
      <trkpt lat="43.851973" lon="5.537385">
        <ele>319.362176</ele>
        <time>2022-07-27T13:32:39.831Z</time>
      </trkpt>
      <trkpt lat="43.852652" lon="5.539815">
        <ele>320.821438</ele>
        <time>2022-07-27T13:33:26.661Z</time>
      </trkpt>
      <trkpt lat="43.853464" lon="5.541747">
        <ele>322.193034</ele>
        <time>2022-07-27T13:34:09.006Z</time>
      </trkpt>
      <trkpt lat="43.853637" lon="5.542409">
        <ele>322.547911</ele>
        <time>2022-07-27T13:34:22.059Z</time>
      </trkpt>
      <trkpt lat="43.853692" lon="5.542804">
        <ele>322.750665</ele>
        <time>2022-07-27T13:34:29.259Z</time>
      </trkpt>
      <trkpt lat="43.853803" lon="5.544611">
        <ele>323.532963</ele>
        <time>2022-07-27T13:35:00.754Z</time>
      </trkpt>
      <trkpt lat="43.854110" lon="5.546214">
        <ele>324.127046</ele>
        <time>2022-07-27T13:35:29.888Z</time>
      </trkpt>
      <trkpt lat="43.854378" lon="5.547183">
        <ele>324.430894</ele>
        <time>2022-07-27T13:35:47.571Z</time>
      </trkpt>
      <trkpt lat="43.855036" lon="5.548980">
        <ele>325.181096</ele>
        <time>2022-07-27T13:36:22.204Z</time>
      </trkpt>
      <trkpt lat="43.855783" lon="5.551944">
        <ele>327.153903</ele>
        <time>2022-07-27T13:37:20.437Z</time>
      </trkpt>
      <trkpt lat="43.855917" lon="5.552240">
        <ele>327.418010</ele>
        <time>2022-07-27T13:37:27.180Z</time>
      </trkpt>
      <trkpt lat="43.856443" lon="5.553102">
        <ele>328.295647</ele>
        <time>2022-07-27T13:37:49.298Z</time>
      </trkpt>
      <trkpt lat="43.856978" lon="5.554036">
        <ele>329.300249</ele>
        <time>2022-07-27T13:38:12.936Z</time>
      </trkpt>
      <trkpt lat="43.857539" lon="5.555639">
        <ele>330.249876</ele>
        <time>2022-07-27T13:38:47.062Z</time>
      </trkpt>
      <trkpt lat="43.857945" lon="5.556868">
        <ele>330.409855</ele>
        <time>2022-07-27T13:39:08.339Z</time>
      </trkpt>
      <trkpt lat="43.857968" lon="5.557048">
        <ele>330.431488</ele>
        <time>2022-07-27T13:39:11.041Z</time>
      </trkpt>
      <trkpt lat="43.858042" lon="5.557331">
        <ele>330.432450</ele>
        <time>2022-07-27T13:39:15.405Z</time>
      </trkpt>
      <trkpt lat="43.858035" lon="5.557454">
        <ele>330.405317</ele>
        <time>2022-07-27T13:39:17.197Z</time>
      </trkpt>
      <trkpt lat="43.858044" lon="5.557544">
        <ele>330.385337</ele>
        <time>2022-07-27T13:39:18.496Z</time>
      </trkpt>
      <trkpt lat="43.858079" lon="5.558593">
        <ele>330.154409</ele>
        <time>2022-07-27T13:39:33.496Z</time>
      </trkpt>
      <trkpt lat="43.857965" lon="5.559356">
        <ele>329.983057</ele>
        <time>2022-07-27T13:39:45.015Z</time>
      </trkpt>
      <trkpt lat="43.857880" lon="5.560498">
        <ele>331.079892</ele>
        <time>2022-07-27T13:40:06.384Z</time>
      </trkpt>
      <trkpt lat="43.857759" lon="5.560887">
        <ele>331.701562</ele>
        <time>2022-07-27T13:40:15.468Z</time>
      </trkpt>
      <trkpt lat="43.857555" lon="5.561217">
        <ele>332.339408</ele>
        <time>2022-07-27T13:40:25.430Z</time>
      </trkpt>
      <trkpt lat="43.857350" lon="5.561518">
        <ele>332.946977</ele>
        <time>2022-07-27T13:40:35.749Z</time>
      </trkpt>
      <trkpt lat="43.857183" lon="5.561764">
        <ele>333.442773</ele>
        <time>2022-07-27T13:40:43.733Z</time>
      </trkpt>
      <trkpt lat="43.856552" lon="5.562636">
        <ele>337.725454</ele>
        <time>2022-07-27T13:41:17.643Z</time>
      </trkpt>
      <trkpt lat="43.856378" lon="5.562504">
        <ele>338.719362</ele>
        <time>2022-07-27T13:41:25.581Z</time>
      </trkpt>
      <trkpt lat="43.856409" lon="5.562696">
        <ele>339.430347</ele>
        <time>2022-07-27T13:41:34.157Z</time>
      </trkpt>
      <trkpt lat="43.855896" lon="5.563440">
        <ele>343.316847</ele>
        <time>2022-07-27T13:42:09.560Z</time>
      </trkpt>
      <trkpt lat="43.855736" lon="5.563714">
        <ele>344.963614</ele>
        <time>2022-07-27T13:42:20.794Z</time>
      </trkpt>
      <trkpt lat="43.855720" lon="5.563827">
        <ele>345.501479</ele>
        <time>2022-07-27T13:42:26.237Z</time>
      </trkpt>
      <trkpt lat="43.855814" lon="5.563800">
        <ele>346.123265</ele>
        <time>2022-07-27T13:42:29.231Z</time>
      </trkpt>
      <trkpt lat="43.855795" lon="5.564037">
        <ele>347.237033</ele>
        <time>2022-07-27T13:42:37.698Z</time>
      </trkpt>
      <trkpt lat="43.855858" lon="5.564300">
        <ele>348.531424</ele>
        <time>2022-07-27T13:42:47.293Z</time>
      </trkpt>
      <trkpt lat="43.856039" lon="5.564532">
        <ele>350.127877</ele>
        <time>2022-07-27T13:43:00.365Z</time>
      </trkpt>
      <trkpt lat="43.856274" lon="5.564652">
        <ele>351.749943</ele>
        <time>2022-07-27T13:43:12.038Z</time>
      </trkpt>
      <trkpt lat="43.857099" lon="5.564879">
        <ele>356.521564</ele>
        <time>2022-07-27T13:43:54.374Z</time>
      </trkpt>
      <trkpt lat="43.857554" lon="5.565152">
        <ele>359.000817</ele>
        <time>2022-07-27T13:44:14.603Z</time>
      </trkpt>
      <trkpt lat="43.858035" lon="5.565648">
        <ele>361.998344</ele>
        <time>2022-07-27T13:44:38.066Z</time>
      </trkpt>
      <trkpt lat="43.858526" lon="5.566421">
        <ele>364.801787</ele>
        <time>2022-07-27T13:45:05.902Z</time>
      </trkpt>
      <trkpt lat="43.858737" lon="5.566983">
        <ele>366.249569</ele>
        <time>2022-07-27T13:45:21.608Z</time>
      </trkpt>
      <trkpt lat="43.858835" lon="5.567457">
        <ele>367.376269</ele>
        <time>2022-07-27T13:45:33.601Z</time>
      </trkpt>
      <trkpt lat="43.858831" lon="5.567984">
        <ele>368.580492</ele>
        <time>2022-07-27T13:45:46.348Z</time>
      </trkpt>
      <trkpt lat="43.858670" lon="5.569591">
        <ele>371.688154</ele>
        <time>2022-07-27T13:46:24.476Z</time>
      </trkpt>
      <trkpt lat="43.858700" lon="5.570131">
        <ele>372.705028</ele>
        <time>2022-07-27T13:46:37.208Z</time>
      </trkpt>
      <trkpt lat="43.858845" lon="5.570594">
        <ele>373.650522</ele>
        <time>2022-07-27T13:46:49.144Z</time>
      </trkpt>
      <trkpt lat="43.859140" lon="5.571197">
        <ele>374.948491</ele>
        <time>2022-07-27T13:47:06.205Z</time>
      </trkpt>
      <trkpt lat="43.859669" lon="5.571830">
        <ele>376.674476</ele>
        <time>2022-07-27T13:47:28.644Z</time>
      </trkpt>
      <trkpt lat="43.859934" lon="5.572234">
        <ele>377.647299</ele>
        <time>2022-07-27T13:47:41.061Z</time>
      </trkpt>
      <trkpt lat="43.860306" lon="5.573368">
        <ele>379.522162</ele>
        <time>2022-07-27T13:48:09.473Z</time>
      </trkpt>
      <trkpt lat="43.860349" lon="5.575068">
        <ele>381.935001</ele>
        <time>2022-07-27T13:48:45.606Z</time>
      </trkpt>
      <trkpt lat="43.860121" lon="5.576699">
        <ele>384.021400</ele>
        <time>2022-07-27T13:49:19.198Z</time>
      </trkpt>
      <trkpt lat="43.860285" lon="5.578074">
        <ele>386.865378</ele>
        <time>2022-07-27T13:49:50.576Z</time>
      </trkpt>
      <trkpt lat="43.860288" lon="5.578301">
        <ele>387.466572</ele>
        <time>2022-07-27T13:49:56.315Z</time>
      </trkpt>
      <trkpt lat="43.860290" lon="5.578445">
        <ele>387.847953</ele>
        <time>2022-07-27T13:50:00.101Z</time>
      </trkpt>
      <trkpt lat="43.860213" lon="5.579219">
        <ele>389.916911</ele>
        <time>2022-07-27T13:50:21.888Z</time>
      </trkpt>
      <trkpt lat="43.860193" lon="5.579991">
        <ele>392.002482</ele>
        <time>2022-07-27T13:50:45.866Z</time>
      </trkpt>
      <trkpt lat="43.860036" lon="5.580921">
        <ele>394.708610</ele>
        <time>2022-07-27T13:51:16.043Z</time>
      </trkpt>
      <trkpt lat="43.860016" lon="5.582294">
        <ele>398.442404</ele>
        <time>2022-07-27T13:51:51.889Z</time>
      </trkpt>
      <trkpt lat="43.859721" lon="5.583460">
        <ele>398.056000</ele>
        <time>2022-07-27T13:52:13.195Z</time>
      </trkpt>
      <trkpt lat="43.859696" lon="5.584747">
        <ele>397.588048</ele>
        <time>2022-07-27T13:52:29.378Z</time>
      </trkpt>
      <trkpt lat="43.859541" lon="5.585110">
        <ele>397.105069</ele>
        <time>2022-07-27T13:52:34.469Z</time>
      </trkpt>
      <trkpt lat="43.858685" lon="5.586062">
        <ele>395.362923</ele>
        <time>2022-07-27T13:52:53.736Z</time>
      </trkpt>
      <trkpt lat="43.858205" lon="5.586439">
        <ele>395.000212</ele>
        <time>2022-07-27T13:53:05.366Z</time>
      </trkpt>
      <trkpt lat="43.857959" lon="5.586831">
        <ele>395.316342</ele>
        <time>2022-07-27T13:53:15.269Z</time>
      </trkpt>
      <trkpt lat="43.857563" lon="5.587708">
        <ele>395.945823</ele>
        <time>2022-07-27T13:53:36.438Z</time>
      </trkpt>
      <trkpt lat="43.857085" lon="5.588086">
        <ele>396.245298</ele>
        <time>2022-07-27T13:53:51.421Z</time>
      </trkpt>
      <trkpt lat="43.857007" lon="5.588089">
        <ele>396.157165</ele>
        <time>2022-07-27T13:53:53.268Z</time>
      </trkpt>
      <trkpt lat="43.856962" lon="5.588074">
        <ele>396.104892</ele>
        <time>2022-07-27T13:53:54.337Z</time>
      </trkpt>
      <trkpt lat="43.856944" lon="5.588095">
        <ele>396.078324</ele>
        <time>2022-07-27T13:53:54.870Z</time>
      </trkpt>
      <trkpt lat="43.856938" lon="5.588128">
        <ele>396.050607</ele>
        <time>2022-07-27T13:53:55.390Z</time>
      </trkpt>
      <trkpt lat="43.856904" lon="5.588197">
        <ele>395.982543</ele>
        <time>2022-07-27T13:53:56.840Z</time>
      </trkpt>
      <trkpt lat="43.856721" lon="5.588444">
        <ele>395.694119</ele>
        <time>2022-07-27T13:54:02.786Z</time>
      </trkpt>
      <trkpt lat="43.856736" lon="5.588602">
        <ele>395.564328</ele>
        <time>2022-07-27T13:54:05.228Z</time>
      </trkpt>
      <trkpt lat="43.856721" lon="5.588444">
        <ele>395.434538</ele>
        <time>2022-07-27T13:54:07.889Z</time>
      </trkpt>
      <trkpt lat="43.856566" lon="5.588930">
        <ele>395.001736</ele>
        <time>2022-07-27T13:54:15.316Z</time>
      </trkpt>
      <trkpt lat="43.856485" lon="5.589183">
        <ele>394.776287</ele>
        <time>2022-07-27T13:54:18.771Z</time>
      </trkpt>
      <trkpt lat="43.856376" lon="5.589513">
        <ele>394.480669</ele>
        <time>2022-07-27T13:54:23.120Z</time>
      </trkpt>
      <trkpt lat="43.856214" lon="5.589991">
        <ele>393.329301</ele>
        <time>2022-07-27T13:54:29.122Z</time>
      </trkpt>
      <trkpt lat="43.856203" lon="5.590030">
        <ele>393.199699</ele>
        <time>2022-07-27T13:54:29.586Z</time>
      </trkpt>
      <trkpt lat="43.856143" lon="5.590287">
        <ele>392.363685</ele>
        <time>2022-07-27T13:54:32.614Z</time>
      </trkpt>
      <trkpt lat="43.856165" lon="5.590718">
        <ele>391.026485</ele>
        <time>2022-07-27T13:54:37.401Z</time>
      </trkpt>
      <trkpt lat="43.856216" lon="5.591262">
        <ele>389.328741</ele>
        <time>2022-07-27T13:54:43.471Z</time>
      </trkpt>
      <trkpt lat="43.856245" lon="5.591400">
        <ele>388.883891</ele>
        <time>2022-07-27T13:54:45.050Z</time>
      </trkpt>
      <trkpt lat="43.856288" lon="5.591606">
        <ele>388.220187</ele>
        <time>2022-07-27T13:54:47.459Z</time>
      </trkpt>
      <trkpt lat="43.856559" lon="5.592230">
        <ele>385.844093</ele>
        <time>2022-07-27T13:54:55.528Z</time>
      </trkpt>
      <trkpt lat="43.856588" lon="5.592294">
        <ele>385.564435</ele>
        <time>2022-07-27T13:54:56.367Z</time>
      </trkpt>
      <trkpt lat="43.856706" lon="5.592561">
        <ele>384.405813</ele>
        <time>2022-07-27T13:54:59.790Z</time>
      </trkpt>
      <trkpt lat="43.856944" lon="5.593100">
        <ele>382.067437</ele>
        <time>2022-07-27T13:55:06.587Z</time>
      </trkpt>
      <trkpt lat="43.857091" lon="5.593439">
        <ele>380.603893</ele>
        <time>2022-07-27T13:55:10.879Z</time>
      </trkpt>
      <trkpt lat="43.857382" lon="5.594046">
        <ele>377.907089</ele>
        <time>2022-07-27T13:55:18.670Z</time>
      </trkpt>
      <trkpt lat="43.857439" lon="5.594301">
        <ele>377.100349</ele>
        <time>2022-07-27T13:55:21.560Z</time>
      </trkpt>
      <trkpt lat="43.857476" lon="5.594468">
        <ele>376.719601</ele>
        <time>2022-07-27T13:55:23.439Z</time>
      </trkpt>
      <trkpt lat="43.857516" lon="5.595142">
        <ele>375.245742</ele>
        <time>2022-07-27T13:55:30.901Z</time>
      </trkpt>
      <trkpt lat="43.857565" lon="5.596150">
        <ele>373.043957</ele>
        <time>2022-07-27T13:55:42.889Z</time>
      </trkpt>
      <trkpt lat="43.857577" lon="5.596374">
        <ele>372.554434</ele>
        <time>2022-07-27T13:55:45.810Z</time>
      </trkpt>
      <trkpt lat="43.857654" lon="5.598083">
        <ele>372.978111</ele>
        <time>2022-07-27T13:56:16.525Z</time>
      </trkpt>
      <trkpt lat="43.857654" lon="5.598165">
        <ele>373.038889</ele>
        <time>2022-07-27T13:56:18.256Z</time>
      </trkpt>
      <trkpt lat="43.857633" lon="5.598341">
        <ele>373.171112</ele>
        <time>2022-07-27T13:56:22.337Z</time>
      </trkpt>
      <trkpt lat="43.857619" lon="5.598472">
        <ele>373.269269</ele>
        <time>2022-07-27T13:56:25.558Z</time>
      </trkpt>
      <trkpt lat="43.857585" lon="5.598523">
        <ele>373.320750</ele>
        <time>2022-07-27T13:56:27.262Z</time>
      </trkpt>
      <trkpt lat="43.857582" lon="5.598607">
        <ele>373.383087</ele>
        <time>2022-07-27T13:56:29.227Z</time>
      </trkpt>
      <trkpt lat="43.857607" lon="5.598659">
        <ele>373.429410</ele>
        <time>2022-07-27T13:56:30.621Z</time>
      </trkpt>
      <trkpt lat="43.857607" lon="5.598770">
        <ele>373.511682</ele>
        <time>2022-07-27T13:56:33.153Z</time>
      </trkpt>
      <trkpt lat="43.857611" lon="5.598922">
        <ele>373.624418</ele>
        <time>2022-07-27T13:56:36.662Z</time>
      </trkpt>
      <trkpt lat="43.857554" lon="5.599477">
        <ele>374.007261</ele>
        <time>2022-07-27T13:56:48.870Z</time>
      </trkpt>
      <trkpt lat="43.857171" lon="5.603011">
        <ele>375.871357</ele>
        <time>2022-07-27T13:57:52.168Z</time>
      </trkpt>
      <trkpt lat="43.857159" lon="5.603102">
        <ele>375.901924</ele>
        <time>2022-07-27T13:57:53.741Z</time>
      </trkpt>
      <trkpt lat="43.857142" lon="5.603237">
        <ele>375.947205</ele>
        <time>2022-07-27T13:57:56.090Z</time>
      </trkpt>
      <trkpt lat="43.856867" lon="5.605720">
        <ele>376.543379</ele>
        <time>2022-07-27T13:58:38.227Z</time>
      </trkpt>
      <trkpt lat="43.856755" lon="5.607323">
        <ele>376.809524</ele>
        <time>2022-07-27T13:59:05.611Z</time>
      </trkpt>
      <trkpt lat="43.856735" lon="5.608287">
        <ele>376.943166</ele>
        <time>2022-07-27T13:59:21.486Z</time>
      </trkpt>
      <trkpt lat="43.856733" lon="5.608357">
        <ele>376.952874</ele>
        <time>2022-07-27T13:59:22.725Z</time>
      </trkpt>
      <trkpt lat="43.857264" lon="5.610820">
        <ele>377.342327</ele>
        <time>2022-07-27T14:00:03.638Z</time>
      </trkpt>
      <trkpt lat="43.857844" lon="5.613181">
        <ele>379.075120</ele>
        <time>2022-07-27T14:00:49.959Z</time>
      </trkpt>
      <trkpt lat="43.857900" lon="5.613415">
        <ele>379.286650</ele>
        <time>2022-07-27T14:00:55.139Z</time>
      </trkpt>
      <trkpt lat="43.858024" lon="5.613931">
        <ele>379.961692</ele>
        <time>2022-07-27T14:01:07.185Z</time>
      </trkpt>
      <trkpt lat="43.858565" lon="5.615921">
        <ele>383.893961</ele>
        <time>2022-07-27T14:01:57.447Z</time>
      </trkpt>
      <trkpt lat="43.858754" lon="5.616812">
        <ele>385.839001</ele>
        <time>2022-07-27T14:02:21.005Z</time>
      </trkpt>
      <trkpt lat="43.858784" lon="5.616971">
        <ele>386.191425</ele>
        <time>2022-07-27T14:02:25.285Z</time>
      </trkpt>
      <trkpt lat="43.859406" lon="5.620432">
        <ele>392.938149</ele>
        <time>2022-07-27T14:03:51.921Z</time>
      </trkpt>
      <trkpt lat="43.859696" lon="5.621673">
        <ele>394.158111</ele>
        <time>2022-07-27T14:04:15.569Z</time>
      </trkpt>
      <trkpt lat="43.859880" lon="5.622853">
        <ele>394.741544</ele>
        <time>2022-07-27T14:04:35.260Z</time>
      </trkpt>
      <trkpt lat="43.860043" lon="5.624115">
        <ele>395.852460</ele>
        <time>2022-07-27T14:05:00.274Z</time>
      </trkpt>
      <trkpt lat="43.860161" lon="5.625515">
        <ele>397.385495</ele>
        <time>2022-07-27T14:05:30.780Z</time>
      </trkpt>
      <trkpt lat="43.860173" lon="5.625822">
        <ele>397.680952</ele>
        <time>2022-07-27T14:05:37.374Z</time>
      </trkpt>
      <trkpt lat="43.860168" lon="5.626372">
        <ele>397.674791</ele>
        <time>2022-07-27T14:05:48.918Z</time>
      </trkpt>
      <trkpt lat="43.859252" lon="5.631667">
        <ele>396.275505</ele>
        <time>2022-07-27T14:07:07.403Z</time>
      </trkpt>
      <trkpt lat="43.859144" lon="5.632468">
        <ele>396.162722</ele>
        <time>2022-07-27T14:07:20.216Z</time>
      </trkpt>
      <trkpt lat="43.859149" lon="5.632894">
        <ele>396.103755</ele>
        <time>2022-07-27T14:07:27.178Z</time>
      </trkpt>
      <trkpt lat="43.859515" lon="5.634589">
        <ele>397.516807</ele>
        <time>2022-07-27T14:07:59.794Z</time>
      </trkpt>
      <trkpt lat="43.859537" lon="5.634805">
        <ele>397.718826</ele>
        <time>2022-07-27T14:08:04.589Z</time>
      </trkpt>
      <trkpt lat="43.859576" lon="5.635349">
        <ele>398.225094</ele>
        <time>2022-07-27T14:08:16.993Z</time>
      </trkpt>
      <trkpt lat="43.859583" lon="5.635435">
        <ele>398.305243</ele>
        <time>2022-07-27T14:08:19.035Z</time>
      </trkpt>
      <trkpt lat="43.859609" lon="5.635779">
        <ele>398.752580</ele>
        <time>2022-07-27T14:08:26.745Z</time>
      </trkpt>
      <trkpt lat="43.859679" lon="5.636973">
        <ele>400.446624</ele>
        <time>2022-07-27T14:08:53.089Z</time>
      </trkpt>
      <trkpt lat="43.859597" lon="5.637741">
        <ele>401.544519</ele>
        <time>2022-07-27T14:09:10.043Z</time>
      </trkpt>
      <trkpt lat="43.859401" lon="5.638473">
        <ele>402.172924</ele>
        <time>2022-07-27T14:09:26.638Z</time>
      </trkpt>
      <trkpt lat="43.858987" lon="5.639300">
        <ele>402.677021</ele>
        <time>2022-07-27T14:09:44.171Z</time>
      </trkpt>
      <trkpt lat="43.858835" lon="5.639733">
        <ele>402.918156</ele>
        <time>2022-07-27T14:09:51.938Z</time>
      </trkpt>
      <trkpt lat="43.858625" lon="5.640840">
        <ele>403.317574</ele>
        <time>2022-07-27T14:10:10.617Z</time>
      </trkpt>
      <trkpt lat="43.857844" lon="5.644326">
        <ele>404.754418</ele>
        <time>2022-07-27T14:11:13.626Z</time>
      </trkpt>
      <trkpt lat="43.857832" lon="5.644655">
        <ele>404.936145</ele>
        <time>2022-07-27T14:11:19.956Z</time>
      </trkpt>
      <trkpt lat="43.857881" lon="5.645070">
        <ele>405.241740</ele>
        <time>2022-07-27T14:11:28.364Z</time>
      </trkpt>
      <trkpt lat="43.858204" lon="5.646752">
        <ele>408.009703</ele>
        <time>2022-07-27T14:12:06.703Z</time>
      </trkpt>
      <trkpt lat="43.858709" lon="5.649090">
        <ele>412.887726</ele>
        <time>2022-07-27T14:13:06.631Z</time>
      </trkpt>
      <trkpt lat="43.859897" lon="5.652360">
        <ele>420.591074</ele>
        <time>2022-07-27T14:14:38.553Z</time>
      </trkpt>
      <trkpt lat="43.860054" lon="5.652765">
        <ele>421.184268</ele>
        <time>2022-07-27T14:14:49.346Z</time>
      </trkpt>
      <trkpt lat="43.860726" lon="5.654126">
        <ele>423.258555</ele>
        <time>2022-07-27T14:15:22.399Z</time>
      </trkpt>
      <trkpt lat="43.861041" lon="5.655082">
        <ele>423.365475</ele>
        <time>2022-07-27T14:15:39.140Z</time>
      </trkpt>
      <trkpt lat="43.861379" lon="5.655885">
        <ele>423.460059</ele>
        <time>2022-07-27T14:15:53.399Z</time>
      </trkpt>
      <trkpt lat="43.861966" lon="5.656756">
        <ele>423.990009</ele>
        <time>2022-07-27T14:16:12.989Z</time>
      </trkpt>
      <trkpt lat="43.862498" lon="5.657700">
        <ele>424.788431</ele>
        <time>2022-07-27T14:16:35.270Z</time>
      </trkpt>
      <trkpt lat="43.862747" lon="5.658505">
        <ele>425.637845</ele>
        <time>2022-07-27T14:16:54.295Z</time>
      </trkpt>
      <trkpt lat="43.862859" lon="5.658447">
        <ele>425.893631</ele>
        <time>2022-07-27T14:16:58.444Z</time>
      </trkpt>
      <trkpt lat="43.863147" lon="5.660753">
        <ele>429.481805</ele>
        <time>2022-07-27T14:18:03.099Z</time>
      </trkpt>
      <trkpt lat="43.863234" lon="5.661098">
        <ele>430.020030</ele>
        <time>2022-07-27T14:18:13.512Z</time>
      </trkpt>
      <trkpt lat="43.863293" lon="5.661333">
        <ele>430.386471</ele>
        <time>2022-07-27T14:18:20.706Z</time>
      </trkpt>
      <trkpt lat="43.863766" lon="5.662466">
        <ele>432.314426</ele>
        <time>2022-07-27T14:18:56.008Z</time>
      </trkpt>
      <trkpt lat="43.863861" lon="5.663124">
        <ele>433.107866</ele>
        <time>2022-07-27T14:19:12.799Z</time>
      </trkpt>
      <trkpt lat="43.863421" lon="5.663112">
        <ele>433.720048</ele>
        <time>2022-07-27T14:19:24.411Z</time>
      </trkpt>
      <trkpt lat="43.863431" lon="5.663285">
        <ele>433.894114</ele>
        <time>2022-07-27T14:19:27.745Z</time>
      </trkpt>
      <trkpt lat="43.863444" lon="5.663467">
        <ele>434.077543</ele>
        <time>2022-07-27T14:19:31.425Z</time>
      </trkpt>
      <trkpt lat="43.863431" lon="5.664674">
        <ele>435.333993</ele>
        <time>2022-07-27T14:19:55.138Z</time>
      </trkpt>
      <trkpt lat="43.863084" lon="5.668550">
        <ele>442.233497</ele>
        <time>2022-07-27T14:21:22.665Z</time>
      </trkpt>
      <trkpt lat="43.863033" lon="5.669880">
        <ele>445.756926</ele>
        <time>2022-07-27T14:21:59.512Z</time>
      </trkpt>
      <trkpt lat="43.863018" lon="5.672787">
        <ele>457.491023</ele>
        <time>2022-07-27T14:23:34.526Z</time>
      </trkpt>
      <trkpt lat="43.863006" lon="5.676340">
        <ele>473.215258</ele>
        <time>2022-07-27T14:25:35.718Z</time>
      </trkpt>
      <trkpt lat="43.863019" lon="5.676648">
        <ele>474.590194</ele>
        <time>2022-07-27T14:25:46.175Z</time>
      </trkpt>
      <trkpt lat="43.863119" lon="5.677353">
        <ele>477.498786</ele>
        <time>2022-07-27T14:26:10.082Z</time>
      </trkpt>
      <trkpt lat="43.863248" lon="5.677917">
        <ele>479.633114</ele>
        <time>2022-07-27T14:26:29.525Z</time>
      </trkpt>
      <trkpt lat="43.863442" lon="5.678479">
        <ele>481.880674</ele>
        <time>2022-07-27T14:26:48.887Z</time>
      </trkpt>
      <trkpt lat="43.864100" lon="5.679727">
        <ele>486.427785</ele>
        <time>2022-07-27T14:27:31.914Z</time>
      </trkpt>
      <trkpt lat="43.864176" lon="5.679863">
        <ele>486.758774</ele>
        <time>2022-07-27T14:27:36.419Z</time>
      </trkpt>
      <trkpt lat="43.864213" lon="5.679928">
        <ele>486.918079</ele>
        <time>2022-07-27T14:27:38.497Z</time>
      </trkpt>
      <trkpt lat="43.864134" lon="5.680064">
        <ele>487.254030</ele>
        <time>2022-07-27T14:27:42.347Z</time>
      </trkpt>
      <trkpt lat="43.863910" lon="5.680539">
        <ele>488.345827</ele>
        <time>2022-07-27T14:27:55.392Z</time>
      </trkpt>
      <trkpt lat="43.863621" lon="5.681172">
        <ele>489.787064</ele>
        <time>2022-07-27T14:28:11.500Z</time>
      </trkpt>
      <trkpt lat="43.863491" lon="5.681544">
        <ele>490.438189</ele>
        <time>2022-07-27T14:28:19.561Z</time>
      </trkpt>
      <trkpt lat="43.863482" lon="5.681571">
        <ele>490.479923</ele>
        <time>2022-07-27T14:28:20.181Z</time>
      </trkpt>
      <trkpt lat="43.863082" lon="5.682666">
        <ele>492.202130</ele>
        <time>2022-07-27T14:28:45.277Z</time>
      </trkpt>
      <trkpt lat="43.862748" lon="5.683380">
        <ele>493.396243</ele>
        <time>2022-07-27T14:29:04.064Z</time>
      </trkpt>
      <trkpt lat="43.862510" lon="5.683697">
        <ele>494.715996</ele>
        <time>2022-07-27T14:29:15.047Z</time>
      </trkpt>
      <trkpt lat="43.862261" lon="5.683896">
        <ele>496.051076</ele>
        <time>2022-07-27T14:29:25.530Z</time>
      </trkpt>
      <trkpt lat="43.862172" lon="5.683937">
        <ele>496.486753</ele>
        <time>2022-07-27T14:29:29.061Z</time>
      </trkpt>
      <trkpt lat="43.862069" lon="5.683968">
        <ele>496.976396</ele>
        <time>2022-07-27T14:29:33.103Z</time>
      </trkpt>
      <trkpt lat="43.861694" lon="5.684009">
        <ele>498.723933</ele>
        <time>2022-07-27T14:29:48.856Z</time>
      </trkpt>
      <trkpt lat="43.858967" lon="5.684238">
        <ele>514.402054</ele>
        <time>2022-07-27T14:31:57.874Z</time>
      </trkpt>
      <trkpt lat="43.858639" lon="5.684220">
        <ele>516.204886</ele>
        <time>2022-07-27T14:32:12.266Z</time>
      </trkpt>
      <trkpt lat="43.858379" lon="5.684105">
        <ele>517.703707</ele>
        <time>2022-07-27T14:32:24.583Z</time>
      </trkpt>
      <trkpt lat="43.858059" lon="5.683844">
        <ele>519.742598</ele>
        <time>2022-07-27T14:32:41.500Z</time>
      </trkpt>
      <trkpt lat="43.857407" lon="5.682950">
        <ele>524.242306</ele>
        <time>2022-07-27T14:33:19.693Z</time>
      </trkpt>
      <trkpt lat="43.857086" lon="5.682679">
        <ele>525.712309</ele>
        <time>2022-07-27T14:33:34.776Z</time>
      </trkpt>
      <trkpt lat="43.856530" lon="5.682446">
        <ele>527.984317</ele>
        <time>2022-07-27T14:33:57.929Z</time>
      </trkpt>
      <trkpt lat="43.855176" lon="5.682312">
        <ele>530.971130</ele>
        <time>2022-07-27T14:34:40.535Z</time>
      </trkpt>
      <trkpt lat="43.854788" lon="5.682350">
        <ele>531.435176</ele>
        <time>2022-07-27T14:34:49.817Z</time>
      </trkpt>
      <trkpt lat="43.854560" lon="5.682433">
        <ele>531.716401</ele>
        <time>2022-07-27T14:34:55.018Z</time>
      </trkpt>
      <trkpt lat="43.853768" lon="5.683052">
        <ele>532.951807</ele>
        <time>2022-07-27T14:35:15.205Z</time>
      </trkpt>
      <trkpt lat="43.853443" lon="5.683473">
        <ele>533.596127</ele>
        <time>2022-07-27T14:35:25.601Z</time>
      </trkpt>
      <trkpt lat="43.853246" lon="5.683796">
        <ele>534.038085</ele>
        <time>2022-07-27T14:35:33.415Z</time>
      </trkpt>
      <trkpt lat="43.852173" lon="5.686181">
        <ele>542.413263</ele>
        <time>2022-07-27T14:36:54.264Z</time>
      </trkpt>
      <trkpt lat="43.851623" lon="5.687659">
        <ele>550.322663</ele>
        <time>2022-07-27T14:37:57.203Z</time>
      </trkpt>
      <trkpt lat="43.851002" lon="5.689711">
        <ele>560.503557</ele>
        <time>2022-07-27T14:39:16.860Z</time>
      </trkpt>
      <trkpt lat="43.850133" lon="5.691592">
        <ele>568.629748</ele>
        <time>2022-07-27T14:40:23.282Z</time>
      </trkpt>
      <trkpt lat="43.849840" lon="5.691971">
        <ele>570.229352</ele>
        <time>2022-07-27T14:40:39.328Z</time>
      </trkpt>
      <trkpt lat="43.848695" lon="5.692963">
        <ele>575.226324</ele>
        <time>2022-07-27T14:41:26.876Z</time>
      </trkpt>
      <trkpt lat="43.848193" lon="5.693512">
        <ele>577.312942</ele>
        <time>2022-07-27T14:41:48.065Z</time>
      </trkpt>
      <trkpt lat="43.847954" lon="5.693561">
        <ele>578.101443</ele>
        <time>2022-07-27T14:41:56.454Z</time>
      </trkpt>
      <trkpt lat="43.847764" lon="5.693499">
        <ele>578.738483</ele>
        <time>2022-07-27T14:42:03.664Z</time>
      </trkpt>
      <trkpt lat="43.847478" lon="5.693282">
        <ele>580.089937</ele>
        <time>2022-07-27T14:42:15.607Z</time>
      </trkpt>
      <trkpt lat="43.847328" lon="5.693040">
        <ele>581.304106</ele>
        <time>2022-07-27T14:42:24.119Z</time>
      </trkpt>
      <trkpt lat="43.846732" lon="5.690634">
        <ele>591.465620</ele>
        <time>2022-07-27T14:43:47.526Z</time>
      </trkpt>
      <trkpt lat="43.846590" lon="5.689303">
        <ele>597.727937</ele>
        <time>2022-07-27T14:44:36.738Z</time>
      </trkpt>
      <trkpt lat="43.846557" lon="5.688838">
        <ele>599.902652</ele>
        <time>2022-07-27T14:44:52.713Z</time>
      </trkpt>
      <trkpt lat="43.846493" lon="5.688590">
        <ele>601.060139</ele>
        <time>2022-07-27T14:45:01.357Z</time>
      </trkpt>
      <trkpt lat="43.846333" lon="5.688226">
        <ele>602.848716</ele>
        <time>2022-07-27T14:45:15.343Z</time>
      </trkpt>
      <trkpt lat="43.846202" lon="5.688104">
        <ele>603.766795</ele>
        <time>2022-07-27T14:45:22.495Z</time>
      </trkpt>
      <trkpt lat="43.846109" lon="5.688018">
        <ele>604.417136</ele>
        <time>2022-07-27T14:45:27.445Z</time>
      </trkpt>
      <trkpt lat="43.845828" lon="5.688043">
        <ele>606.055295</ele>
        <time>2022-07-27T14:45:39.844Z</time>
      </trkpt>
      <trkpt lat="43.845342" lon="5.688358">
        <ele>609.176399</ele>
        <time>2022-07-27T14:46:04.526Z</time>
      </trkpt>
      <trkpt lat="43.845090" lon="5.688446">
        <ele>610.688261</ele>
        <time>2022-07-27T14:46:14.736Z</time>
      </trkpt>
      <trkpt lat="43.844115" lon="5.688219">
        <ele>617.508104</ele>
        <time>2022-07-27T14:47:02.022Z</time>
      </trkpt>
      <trkpt lat="43.843914" lon="5.688222">
        <ele>618.902923</ele>
        <time>2022-07-27T14:47:13.763Z</time>
      </trkpt>
      <trkpt lat="43.843883" lon="5.688251">
        <ele>619.162414</ele>
        <time>2022-07-27T14:47:15.589Z</time>
      </trkpt>
      <trkpt lat="43.843768" lon="5.688068">
        <ele>620.377137</ele>
        <time>2022-07-27T14:47:23.156Z</time>
      </trkpt>
      <trkpt lat="43.843837" lon="5.688319">
        <ele>621.721450</ele>
        <time>2022-07-27T14:47:34.835Z</time>
      </trkpt>
      <trkpt lat="43.843823" lon="5.688376">
        <ele>622.022800</ele>
        <time>2022-07-27T14:47:36.644Z</time>
      </trkpt>
      <trkpt lat="43.843903" lon="5.688673">
        <ele>623.599536</ele>
        <time>2022-07-27T14:47:49.802Z</time>
      </trkpt>
      <trkpt lat="43.844389" lon="5.689162">
        <ele>627.587328</ele>
        <time>2022-07-27T14:48:21.942Z</time>
      </trkpt>
      <trkpt lat="43.844526" lon="5.689767">
        <ele>630.624526</ele>
        <time>2022-07-27T14:48:46.264Z</time>
      </trkpt>
      <trkpt lat="43.844570" lon="5.690521">
        <ele>634.247702</ele>
        <time>2022-07-27T14:49:10.537Z</time>
      </trkpt>
      <trkpt lat="43.844393" lon="5.691785">
        <ele>637.380365</ele>
        <time>2022-07-27T14:49:45.831Z</time>
      </trkpt>
      <trkpt lat="43.844380" lon="5.694062">
        <ele>640.601770</ele>
        <time>2022-07-27T14:50:32.370Z</time>
      </trkpt>
      <trkpt lat="43.844284" lon="5.695721">
        <ele>641.468062</ele>
        <time>2022-07-27T14:51:01.630Z</time>
      </trkpt>
      <trkpt lat="43.844243" lon="5.697385">
        <ele>639.965947</ele>
        <time>2022-07-27T14:51:25.202Z</time>
      </trkpt>
      <trkpt lat="43.844225" lon="5.697476">
        <ele>639.880816</ele>
        <time>2022-07-27T14:51:26.429Z</time>
      </trkpt>
      <trkpt lat="43.844210" lon="5.697546">
        <ele>639.814935</ele>
        <time>2022-07-27T14:51:27.350Z</time>
      </trkpt>
      <trkpt lat="43.843977" lon="5.698456">
        <ele>638.626545</ele>
        <time>2022-07-27T14:51:39.136Z</time>
      </trkpt>
      <trkpt lat="43.843902" lon="5.699375">
        <ele>636.877654</ele>
        <time>2022-07-27T14:51:50.114Z</time>
      </trkpt>
      <trkpt lat="43.843827" lon="5.699705">
        <ele>636.223384</ele>
        <time>2022-07-27T14:51:54.213Z</time>
      </trkpt>
      <trkpt lat="43.843564" lon="5.700319">
        <ele>634.872998</ele>
        <time>2022-07-27T14:52:02.812Z</time>
      </trkpt>
      <trkpt lat="43.843459" lon="5.700806">
        <ele>634.296653</ele>
        <time>2022-07-27T14:52:09.135Z</time>
      </trkpt>
      <trkpt lat="43.843712" lon="5.703570">
        <ele>632.747652</ele>
        <time>2022-07-27T14:52:49.952Z</time>
      </trkpt>
      <trkpt lat="43.843907" lon="5.704288">
        <ele>632.683874</ele>
        <time>2022-07-27T14:53:02.216Z</time>
      </trkpt>
      <trkpt lat="43.845034" lon="5.707613">
        <ele>632.819045</ele>
        <time>2022-07-27T14:54:02.118Z</time>
      </trkpt>
      <trkpt lat="43.845229" lon="5.708626">
        <ele>632.732996</ele>
        <time>2022-07-27T14:54:19.764Z</time>
      </trkpt>
      <trkpt lat="43.845414" lon="5.708948">
        <ele>632.699209</ele>
        <time>2022-07-27T14:54:26.457Z</time>
      </trkpt>
      <trkpt lat="43.845913" lon="5.709304">
        <ele>632.635349</ele>
        <time>2022-07-27T14:54:38.616Z</time>
      </trkpt>
      <trkpt lat="43.846116" lon="5.709540">
        <ele>632.359478</ele>
        <time>2022-07-27T14:54:43.967Z</time>
      </trkpt>
      <trkpt lat="43.846577" lon="5.710509">
        <ele>630.657757</ele>
        <time>2022-07-27T14:54:59.330Z</time>
      </trkpt>
      <trkpt lat="43.846932" lon="5.710948">
        <ele>629.690890</ele>
        <time>2022-07-27T14:55:07.322Z</time>
      </trkpt>
      <trkpt lat="43.847073" lon="5.711202">
        <ele>629.221017</ele>
        <time>2022-07-27T14:55:11.089Z</time>
      </trkpt>
      <trkpt lat="43.847344" lon="5.711873">
        <ele>627.551489</ele>
        <time>2022-07-27T14:55:20.054Z</time>
      </trkpt>
      <trkpt lat="43.847629" lon="5.712749">
        <ele>625.264971</ele>
        <time>2022-07-27T14:55:31.102Z</time>
      </trkpt>
      <trkpt lat="43.847849" lon="5.714422">
        <ele>621.503199</ele>
        <time>2022-07-27T14:55:51.171Z</time>
      </trkpt>
      <trkpt lat="43.848498" lon="5.715655">
        <ele>618.441616</ele>
        <time>2022-07-27T14:56:09.998Z</time>
      </trkpt>
      <trkpt lat="43.848793" lon="5.716740">
        <ele>615.530353</ele>
        <time>2022-07-27T14:56:23.625Z</time>
      </trkpt>
      <trkpt lat="43.848775" lon="5.717081">
        <ele>614.634531</ele>
        <time>2022-07-27T14:56:27.578Z</time>
      </trkpt>
      <trkpt lat="43.848601" lon="5.717870">
        <ele>612.472824</ele>
        <time>2022-07-27T14:56:36.887Z</time>
      </trkpt>
      <trkpt lat="43.848603" lon="5.718077">
        <ele>611.930426</ele>
        <time>2022-07-27T14:56:39.243Z</time>
      </trkpt>
      <trkpt lat="43.848804" lon="5.719290">
        <ele>608.574811</ele>
        <time>2022-07-27T14:56:53.100Z</time>
      </trkpt>
      <trkpt lat="43.848985" lon="5.719576">
        <ele>607.544431</ele>
        <time>2022-07-27T14:56:57.351Z</time>
      </trkpt>
      <trkpt lat="43.849955" lon="5.720583">
        <ele>603.338288</ele>
        <time>2022-07-27T14:57:17.286Z</time>
      </trkpt>
      <trkpt lat="43.849995" lon="5.720697">
        <ele>603.062618</ele>
        <time>2022-07-27T14:57:18.798Z</time>
      </trkpt>
      <trkpt lat="43.850051" lon="5.720859">
        <ele>602.671981</ele>
        <time>2022-07-27T14:57:20.985Z</time>
      </trkpt>
      <trkpt lat="43.850180" lon="5.721546">
        <ele>601.128339</ele>
        <time>2022-07-27T14:57:29.510Z</time>
      </trkpt>
      <trkpt lat="43.850335" lon="5.721901">
        <ele>600.225961</ele>
        <time>2022-07-27T14:57:34.405Z</time>
      </trkpt>
      <trkpt lat="43.850480" lon="5.722116">
        <ele>599.585879</ele>
        <time>2022-07-27T14:57:37.874Z</time>
      </trkpt>
      <trkpt lat="43.850638" lon="5.722350">
        <ele>598.758404</ele>
        <time>2022-07-27T14:57:41.674Z</time>
      </trkpt>
      <trkpt lat="43.850900" lon="5.722552">
        <ele>597.578629</ele>
        <time>2022-07-27T14:57:46.520Z</time>
      </trkpt>
      <trkpt lat="43.851170" lon="5.722896">
        <ele>596.135613</ele>
        <time>2022-07-27T14:57:52.298Z</time>
      </trkpt>
      <trkpt lat="43.851351" lon="5.723088">
        <ele>595.238757</ele>
        <time>2022-07-27T14:57:55.780Z</time>
      </trkpt>
      <trkpt lat="43.851580" lon="5.723229">
        <ele>594.252667</ele>
        <time>2022-07-27T14:57:59.635Z</time>
      </trkpt>
      <trkpt lat="43.851667" lon="5.723350">
        <ele>593.767732</ele>
        <time>2022-07-27T14:58:01.535Z</time>
      </trkpt>
      <trkpt lat="43.851792" lon="5.723747">
        <ele>592.538306</ele>
        <time>2022-07-27T14:58:06.395Z</time>
      </trkpt>
      <trkpt lat="43.851832" lon="5.723904">
        <ele>592.094242</ele>
        <time>2022-07-27T14:58:08.268Z</time>
      </trkpt>
      <trkpt lat="43.852092" lon="5.724841">
        <ele>589.717616</ele>
        <time>2022-07-27T14:58:19.616Z</time>
      </trkpt>
      <trkpt lat="43.852277" lon="5.725048">
        <ele>588.937287</ele>
        <time>2022-07-27T14:58:23.504Z</time>
      </trkpt>
      <trkpt lat="43.852786" lon="5.725286">
        <ele>587.173992</ele>
        <time>2022-07-27T14:58:32.339Z</time>
      </trkpt>
      <trkpt lat="43.852870" lon="5.725451">
        <ele>586.695880</ele>
        <time>2022-07-27T14:58:34.861Z</time>
      </trkpt>
      <trkpt lat="43.852880" lon="5.725788">
        <ele>586.092539</ele>
        <time>2022-07-27T14:58:39.157Z</time>
      </trkpt>
      <trkpt lat="43.852806" lon="5.726019">
        <ele>585.762041</ele>
        <time>2022-07-27T14:58:42.514Z</time>
      </trkpt>
      <trkpt lat="43.852679" lon="5.726095">
        <ele>585.511242</ele>
        <time>2022-07-27T14:58:44.920Z</time>
      </trkpt>
      <trkpt lat="43.852384" lon="5.726048">
        <ele>584.972837</ele>
        <time>2022-07-27T14:58:50.322Z</time>
      </trkpt>
      <trkpt lat="43.852281" lon="5.726168">
        <ele>584.728918</ele>
        <time>2022-07-27T14:58:52.563Z</time>
      </trkpt>
      <trkpt lat="43.852272" lon="5.726293">
        <ele>584.564664</ele>
        <time>2022-07-27T14:58:54.166Z</time>
      </trkpt>
      <trkpt lat="43.852345" lon="5.726478">
        <ele>584.288926</ele>
        <time>2022-07-27T14:58:57.014Z</time>
      </trkpt>
      <trkpt lat="43.852883" lon="5.727087">
        <ele>583.063113</ele>
        <time>2022-07-27T14:59:09.449Z</time>
      </trkpt>
      <trkpt lat="43.852947" lon="5.727335">
        <ele>582.990803</ele>
        <time>2022-07-27T14:59:12.761Z</time>
      </trkpt>
      <trkpt lat="43.852696" lon="5.728522">
        <ele>582.651222</ele>
        <time>2022-07-27T14:59:31.145Z</time>
      </trkpt>
      <trkpt lat="43.852685" lon="5.728568">
        <ele>582.637917</ele>
        <time>2022-07-27T14:59:31.825Z</time>
      </trkpt>
      <trkpt lat="43.852669" lon="5.728601">
        <ele>582.627001</ele>
        <time>2022-07-27T14:59:32.375Z</time>
      </trkpt>
      <trkpt lat="43.852617" lon="5.728712">
        <ele>582.590663</ele>
        <time>2022-07-27T14:59:34.200Z</time>
      </trkpt>
      <trkpt lat="43.852503" lon="5.728946">
        <ele>582.513138</ele>
        <time>2022-07-27T14:59:39.343Z</time>
      </trkpt>
      <trkpt lat="43.851595" lon="5.730508">
        <ele>582.920721</ele>
        <time>2022-07-27T15:00:16.516Z</time>
      </trkpt>
      <trkpt lat="43.850659" lon="5.732446">
        <ele>581.920225</ele>
        <time>2022-07-27T15:00:53.445Z</time>
      </trkpt>
      <trkpt lat="43.850038" lon="5.734110">
        <ele>578.250276</ele>
        <time>2022-07-27T15:01:15.964Z</time>
      </trkpt>
      <trkpt lat="43.849202" lon="5.735022">
        <ele>573.222823</ele>
        <time>2022-07-27T15:01:31.851Z</time>
      </trkpt>
      <trkpt lat="43.848630" lon="5.735685">
        <ele>568.943822</ele>
        <time>2022-07-27T15:01:42.670Z</time>
      </trkpt>
      <trkpt lat="43.848065" lon="5.736379">
        <ele>564.363017</ele>
        <time>2022-07-27T15:01:53.545Z</time>
      </trkpt>
      <trkpt lat="43.847332" lon="5.737800">
        <ele>557.643672</ele>
        <time>2022-07-27T15:02:12.539Z</time>
      </trkpt>
      <trkpt lat="43.847214" lon="5.737951">
        <ele>556.860362</ele>
        <time>2022-07-27T15:02:15.039Z</time>
      </trkpt>
      <trkpt lat="43.846976" lon="5.738101">
        <ele>555.585028</ele>
        <time>2022-07-27T15:02:19.206Z</time>
      </trkpt>
      <trkpt lat="43.846388" lon="5.738195">
        <ele>552.697605</ele>
        <time>2022-07-27T15:02:28.277Z</time>
      </trkpt>
      <trkpt lat="43.846183" lon="5.738318">
        <ele>551.186887</ele>
        <time>2022-07-27T15:02:31.541Z</time>
      </trkpt>
      <trkpt lat="43.846005" lon="5.738551">
        <ele>549.518667</ele>
        <time>2022-07-27T15:02:35.154Z</time>
      </trkpt>
      <trkpt lat="43.845661" lon="5.739351">
        <ele>544.940852</ele>
        <time>2022-07-27T15:02:44.776Z</time>
      </trkpt>
      <trkpt lat="43.845471" lon="5.739576">
        <ele>543.238041</ele>
        <time>2022-07-27T15:02:48.267Z</time>
      </trkpt>
      <trkpt lat="43.844488" lon="5.739699">
        <ele>537.181557</ele>
        <time>2022-07-27T15:03:02.190Z</time>
      </trkpt>
      <trkpt lat="43.844144" lon="5.739530">
        <ele>535.121665</ele>
        <time>2022-07-27T15:03:07.344Z</time>
      </trkpt>
      <trkpt lat="43.843793" lon="5.739248">
        <ele>532.831978</ele>
        <time>2022-07-27T15:03:13.348Z</time>
      </trkpt>
      <trkpt lat="43.843495" lon="5.739088">
        <ele>531.028291</ele>
        <time>2022-07-27T15:03:18.425Z</time>
      </trkpt>
      <trkpt lat="43.843234" lon="5.739143">
        <ele>530.339993</ele>
        <time>2022-07-27T15:03:22.800Z</time>
      </trkpt>
      <trkpt lat="43.841075" lon="5.742177">
        <ele>533.778113</ele>
        <time>2022-07-27T15:04:49.483Z</time>
      </trkpt>
      <trkpt lat="43.841011" lon="5.742343">
        <ele>534.008176</ele>
        <time>2022-07-27T15:04:54.016Z</time>
      </trkpt>
      <trkpt lat="43.840848" lon="5.742906">
        <ele>534.350471</ele>
        <time>2022-07-27T15:05:08.644Z</time>
      </trkpt>
      <trkpt lat="43.840530" lon="5.743703">
        <ele>533.988652</ele>
        <time>2022-07-27T15:05:26.144Z</time>
      </trkpt>
      <trkpt lat="43.840519" lon="5.743908">
        <ele>533.906991</ele>
        <time>2022-07-27T15:05:29.709Z</time>
      </trkpt>
      <trkpt lat="43.840685" lon="5.744480">
        <ele>533.662063</ele>
        <time>2022-07-27T15:05:38.745Z</time>
      </trkpt>
      <trkpt lat="43.841760" lon="5.747446">
        <ele>522.889067</ele>
        <time>2022-07-27T15:06:15.022Z</time>
      </trkpt>
      <trkpt lat="43.841723" lon="5.748676">
        <ele>515.771018</ele>
        <time>2022-07-27T15:06:27.660Z</time>
      </trkpt>
      <trkpt lat="43.842101" lon="5.750527">
        <ele>502.924593</ele>
        <time>2022-07-27T15:06:46.448Z</time>
      </trkpt>
      <trkpt lat="43.842117" lon="5.751210">
        <ele>497.762499</ele>
        <time>2022-07-27T15:06:53.006Z</time>
      </trkpt>
      <trkpt lat="43.842074" lon="5.751689">
        <ele>494.116220</ele>
        <time>2022-07-27T15:06:57.700Z</time>
      </trkpt>
      <trkpt lat="43.841581" lon="5.752967">
        <ele>485.614089</ele>
        <time>2022-07-27T15:07:12.186Z</time>
      </trkpt>
      <trkpt lat="43.841427" lon="5.753049">
        <ele>484.397673</ele>
        <time>2022-07-27T15:07:14.520Z</time>
      </trkpt>
      <trkpt lat="43.841312" lon="5.753029">
        <ele>483.543050</ele>
        <time>2022-07-27T15:07:16.170Z</time>
      </trkpt>
      <trkpt lat="43.840982" lon="5.752713">
        <ele>480.585766</ele>
        <time>2022-07-27T15:07:22.096Z</time>
      </trkpt>
      <trkpt lat="43.839259" lon="5.751761">
        <ele>469.089629</ele>
        <time>2022-07-27T15:07:49.638Z</time>
      </trkpt>
      <trkpt lat="43.839151" lon="5.751753">
        <ele>468.446556</ele>
        <time>2022-07-27T15:07:51.201Z</time>
      </trkpt>
      <trkpt lat="43.838766" lon="5.751907">
        <ele>465.828658</ele>
        <time>2022-07-27T15:07:56.874Z</time>
      </trkpt>
      <trkpt lat="43.837021" lon="5.752726">
        <ele>453.699020</ele>
        <time>2022-07-27T15:08:23.164Z</time>
      </trkpt>
      <trkpt lat="43.836713" lon="5.752676">
        <ele>452.266065</ele>
        <time>2022-07-27T15:08:27.738Z</time>
      </trkpt>
      <trkpt lat="43.835118" lon="5.752085">
        <ele>444.493707</ele>
        <time>2022-07-27T15:08:54.256Z</time>
      </trkpt>
      <trkpt lat="43.834667" lon="5.751473">
        <ele>441.373477</ele>
        <time>2022-07-27T15:09:03.873Z</time>
      </trkpt>
      <trkpt lat="43.834598" lon="5.751406">
        <ele>440.956973</ele>
        <time>2022-07-27T15:09:05.201Z</time>
      </trkpt>
      <trkpt lat="43.834418" lon="5.751347">
        <ele>440.042496</ele>
        <time>2022-07-27T15:09:07.874Z</time>
      </trkpt>
      <trkpt lat="43.834234" lon="5.751376">
        <ele>439.126919</ele>
        <time>2022-07-27T15:09:10.732Z</time>
      </trkpt>
      <trkpt lat="43.834076" lon="5.751522">
        <ele>438.188115</ele>
        <time>2022-07-27T15:09:13.428Z</time>
      </trkpt>
      <trkpt lat="43.833914" lon="5.751808">
        <ele>436.561043</ele>
        <time>2022-07-27T15:09:17.284Z</time>
      </trkpt>
      <trkpt lat="43.833196" lon="5.753527">
        <ele>426.884383</ele>
        <time>2022-07-27T15:09:37.597Z</time>
      </trkpt>
      <trkpt lat="43.832939" lon="5.755221">
        <ele>420.558270</ele>
        <time>2022-07-27T15:09:56.468Z</time>
      </trkpt>
      <trkpt lat="43.832824" lon="5.757080">
        <ele>414.216959</ele>
        <time>2022-07-27T15:10:17.570Z</time>
      </trkpt>
      <trkpt lat="43.832839" lon="5.757740">
        <ele>412.009450</ele>
        <time>2022-07-27T15:10:24.923Z</time>
      </trkpt>
      <trkpt lat="43.832916" lon="5.758458">
        <ele>409.582761</ele>
        <time>2022-07-27T15:10:32.759Z</time>
      </trkpt>
      <trkpt lat="43.832870" lon="5.759605">
        <ele>405.412615</ele>
        <time>2022-07-27T15:10:45.187Z</time>
      </trkpt>
      <trkpt lat="43.832825" lon="5.759886">
        <ele>404.343824</ele>
        <time>2022-07-27T15:10:48.166Z</time>
      </trkpt>
      <trkpt lat="43.832411" lon="5.761312">
        <ele>398.625728</ele>
        <time>2022-07-27T15:11:05.049Z</time>
      </trkpt>
      <trkpt lat="43.832334" lon="5.761832">
        <ele>396.629786</ele>
        <time>2022-07-27T15:11:10.875Z</time>
      </trkpt>
      <trkpt lat="43.832334" lon="5.761933">
        <ele>396.250031</ele>
        <time>2022-07-27T15:11:12.006Z</time>
      </trkpt>
      <trkpt lat="43.832349" lon="5.762248">
        <ele>395.063067</ele>
        <time>2022-07-27T15:11:15.485Z</time>
      </trkpt>
      <trkpt lat="43.832355" lon="5.762299">
        <ele>394.868776</ele>
        <time>2022-07-27T15:11:16.052Z</time>
      </trkpt>
      <trkpt lat="43.832380" lon="5.762536">
        <ele>393.968191</ele>
        <time>2022-07-27T15:11:18.647Z</time>
      </trkpt>
      <trkpt lat="43.832401" lon="5.762693">
        <ele>393.367817</ele>
        <time>2022-07-27T15:11:20.378Z</time>
      </trkpt>
      <trkpt lat="43.832410" lon="5.762757">
        <ele>393.122650</ele>
        <time>2022-07-27T15:11:21.068Z</time>
      </trkpt>
      <trkpt lat="43.832457" lon="5.763101">
        <ele>391.806233</ele>
        <time>2022-07-27T15:11:24.824Z</time>
      </trkpt>
      <trkpt lat="43.832701" lon="5.764853">
        <ele>384.591370</ele>
        <time>2022-07-27T15:11:43.717Z</time>
      </trkpt>
      <trkpt lat="43.833050" lon="5.767525">
        <ele>374.327139</ele>
        <time>2022-07-27T15:12:12.831Z</time>
      </trkpt>
      <trkpt lat="43.833085" lon="5.767797">
        <ele>373.357843</ele>
        <time>2022-07-27T15:12:15.943Z</time>
      </trkpt>
      <trkpt lat="43.833138" lon="5.768205">
        <ele>371.903471</ele>
        <time>2022-07-27T15:12:20.604Z</time>
      </trkpt>
      <trkpt lat="43.833143" lon="5.768243">
        <ele>371.767959</ele>
        <time>2022-07-27T15:12:21.056Z</time>
      </trkpt>
      <trkpt lat="43.833183" lon="5.768605">
        <ele>370.703011</ele>
        <time>2022-07-27T15:12:25.193Z</time>
      </trkpt>
      <trkpt lat="43.833198" lon="5.768810">
        <ele>370.278739</ele>
        <time>2022-07-27T15:12:27.627Z</time>
      </trkpt>
      <trkpt lat="43.833201" lon="5.768887">
        <ele>370.119961</ele>
        <time>2022-07-27T15:12:28.520Z</time>
      </trkpt>
      <trkpt lat="43.833194" lon="5.769025">
        <ele>369.835111</ele>
        <time>2022-07-27T15:12:30.117Z</time>
      </trkpt>
      <trkpt lat="43.833141" lon="5.769121">
        <ele>369.586194</ele>
        <time>2022-07-27T15:12:31.565Z</time>
      </trkpt>
      <trkpt lat="43.833184" lon="5.769209">
        <ele>369.367340</ele>
        <time>2022-07-27T15:12:32.889Z</time>
      </trkpt>
      <trkpt lat="43.833178" lon="5.769315">
        <ele>369.148409</ele>
        <time>2022-07-27T15:12:34.176Z</time>
      </trkpt>
      <trkpt lat="43.832901" lon="5.770485">
        <ele>366.612882</ele>
        <time>2022-07-27T15:12:49.370Z</time>
      </trkpt>
      <trkpt lat="43.832821" lon="5.770727">
        <ele>366.064757</ele>
        <time>2022-07-27T15:12:52.624Z</time>
      </trkpt>
      <trkpt lat="43.832718" lon="5.771041">
        <ele>365.483948</ele>
        <time>2022-07-27T15:12:56.723Z</time>
      </trkpt>
      <trkpt lat="43.832691" lon="5.771132">
        <ele>365.331125</ele>
        <time>2022-07-27T15:12:57.905Z</time>
      </trkpt>
      <trkpt lat="43.832654" lon="5.771246">
        <ele>365.136973</ele>
        <time>2022-07-27T15:12:59.396Z</time>
      </trkpt>
      <trkpt lat="43.832603" lon="5.771406">
        <ele>364.865294</ele>
        <time>2022-07-27T15:13:01.521Z</time>
      </trkpt>
      <trkpt lat="43.832402" lon="5.771969">
        <ele>363.889652</ele>
        <time>2022-07-27T15:13:09.367Z</time>
      </trkpt>
      <trkpt lat="43.832326" lon="5.772192">
        <ele>363.506595</ele>
        <time>2022-07-27T15:13:12.519Z</time>
      </trkpt>
      <trkpt lat="43.832275" lon="5.772340">
        <ele>363.251851</ele>
        <time>2022-07-27T15:13:14.660Z</time>
      </trkpt>
      <trkpt lat="43.832223" lon="5.772483">
        <ele>363.003129</ele>
        <time>2022-07-27T15:13:16.767Z</time>
      </trkpt>
      <trkpt lat="43.832015" lon="5.773057">
        <ele>362.005361</ele>
        <time>2022-07-27T15:13:25.095Z</time>
      </trkpt>
      <trkpt lat="43.831750" lon="5.774184">
        <ele>360.105447</ele>
        <time>2022-07-27T15:13:40.085Z</time>
      </trkpt>
      <trkpt lat="43.831739" lon="5.774252">
        <ele>359.993748</ele>
        <time>2022-07-27T15:13:40.945Z</time>
      </trkpt>
      <trkpt lat="43.831729" lon="5.774311">
        <ele>359.896607</ele>
        <time>2022-07-27T15:13:41.685Z</time>
      </trkpt>
      <trkpt lat="43.831721" lon="5.774361">
        <ele>359.814518</ele>
        <time>2022-07-27T15:13:42.312Z</time>
      </trkpt>
      <trkpt lat="43.831717" lon="5.774384">
        <ele>359.776597</ele>
        <time>2022-07-27T15:13:42.590Z</time>
      </trkpt>
      <trkpt lat="43.831666" lon="5.774727">
        <ele>359.215273</ele>
        <time>2022-07-27T15:13:46.891Z</time>
      </trkpt>
      <trkpt lat="43.831640" lon="5.774904">
        <ele>358.925751</ele>
        <time>2022-07-27T15:13:49.117Z</time>
      </trkpt>
      <trkpt lat="43.831586" lon="5.775256">
        <ele>358.348940</ele>
        <time>2022-07-27T15:13:53.577Z</time>
      </trkpt>
      <trkpt lat="43.831573" lon="5.775328">
        <ele>358.229977</ele>
        <time>2022-07-27T15:13:54.514Z</time>
      </trkpt>
      <trkpt lat="43.831526" lon="5.775589">
        <ele>357.758565</ele>
        <time>2022-07-27T15:13:57.854Z</time>
      </trkpt>
      <trkpt lat="43.831486" lon="5.775792">
        <ele>357.357727</ele>
        <time>2022-07-27T15:14:00.455Z</time>
      </trkpt>
      <trkpt lat="43.831265" lon="5.776647">
        <ele>355.627735</ele>
        <time>2022-07-27T15:14:11.470Z</time>
      </trkpt>
      <trkpt lat="43.831126" lon="5.777164">
        <ele>354.576780</ele>
        <time>2022-07-27T15:14:18.054Z</time>
      </trkpt>
      <trkpt lat="43.830995" lon="5.777491">
        <ele>353.864306</ele>
        <time>2022-07-27T15:14:22.573Z</time>
      </trkpt>
      <trkpt lat="43.830921" lon="5.777546">
        <ele>353.642596</ele>
        <time>2022-07-27T15:14:23.944Z</time>
      </trkpt>
      <trkpt lat="43.830777" lon="5.777537">
        <ele>353.262056</ele>
        <time>2022-07-27T15:14:26.365Z</time>
      </trkpt>
      <trkpt lat="43.830720" lon="5.777485">
        <ele>353.094259</ele>
        <time>2022-07-27T15:14:27.506Z</time>
      </trkpt>
      <trkpt lat="43.830629" lon="5.777483">
        <ele>352.870457</ele>
        <time>2022-07-27T15:14:29.040Z</time>
      </trkpt>
      <trkpt lat="43.830604" lon="5.777499">
        <ele>352.802744</ele>
        <time>2022-07-27T15:14:29.485Z</time>
      </trkpt>
      <trkpt lat="43.830533" lon="5.777652">
        <ele>352.480024</ele>
        <time>2022-07-27T15:14:31.708Z</time>
      </trkpt>
      <trkpt lat="43.830535" lon="5.777704">
        <ele>352.387648</ele>
        <time>2022-07-27T15:14:32.357Z</time>
      </trkpt>
      <trkpt lat="43.830486" lon="5.777807">
        <ele>352.168778</ele>
        <time>2022-07-27T15:14:33.886Z</time>
      </trkpt>
      <trkpt lat="43.830385" lon="5.777932">
        <ele>351.835829</ele>
        <time>2022-07-27T15:14:36.173Z</time>
      </trkpt>
      <trkpt lat="43.829904" lon="5.778260">
        <ele>350.517650</ele>
        <time>2022-07-27T15:14:45.334Z</time>
      </trkpt>
      <trkpt lat="43.829301" lon="5.778922">
        <ele>348.694139</ele>
        <time>2022-07-27T15:14:58.441Z</time>
      </trkpt>
      <trkpt lat="43.829121" lon="5.779106">
        <ele>348.318980</ele>
        <time>2022-07-27T15:15:02.389Z</time>
      </trkpt>
      <trkpt lat="43.829039" lon="5.779197">
        <ele>348.142780</ele>
        <time>2022-07-27T15:15:04.218Z</time>
      </trkpt>
      <trkpt lat="43.828811" lon="5.779465">
        <ele>347.641332</ele>
        <time>2022-07-27T15:15:09.587Z</time>
      </trkpt>
      <trkpt lat="43.828753" lon="5.779572">
        <ele>347.479370</ele>
        <time>2022-07-27T15:15:11.271Z</time>
      </trkpt>
      <trkpt lat="43.828321" lon="5.780060">
        <ele>346.544565</ele>
        <time>2022-07-27T15:15:21.284Z</time>
      </trkpt>
      <trkpt lat="43.827429" lon="5.781172">
        <ele>345.715938</ele>
        <time>2022-07-27T15:15:44.383Z</time>
      </trkpt>
      <trkpt lat="43.827289" lon="5.781328">
        <ele>345.690945</ele>
        <time>2022-07-27T15:15:48.348Z</time>
      </trkpt>
      <trkpt lat="43.827216" lon="5.781398">
        <ele>345.678595</ele>
        <time>2022-07-27T15:15:50.440Z</time>
      </trkpt>
      <trkpt lat="43.827162" lon="5.781389">
        <ele>345.671028</ele>
        <time>2022-07-27T15:15:51.745Z</time>
      </trkpt>
      <trkpt lat="43.827128" lon="5.781417">
        <ele>345.665525</ele>
        <time>2022-07-27T15:15:52.662Z</time>
      </trkpt>
      <trkpt lat="43.827109" lon="5.781492">
        <ele>345.657546</ele>
        <time>2022-07-27T15:15:53.961Z</time>
      </trkpt>
      <trkpt lat="43.827019" lon="5.781584">
        <ele>345.641987</ele>
        <time>2022-07-27T15:15:56.607Z</time>
      </trkpt>
      <trkpt lat="43.826944" lon="5.781658">
        <ele>345.629179</ele>
        <time>2022-07-27T15:15:58.887Z</time>
      </trkpt>
      <trkpt lat="43.826897" lon="5.781700">
        <ele>345.621398</ele>
        <time>2022-07-27T15:16:00.349Z</time>
      </trkpt>
      <trkpt lat="43.826549" lon="5.782040">
        <ele>345.598764</ele>
        <time>2022-07-27T15:16:11.521Z</time>
      </trkpt>
      <trkpt lat="43.826457" lon="5.782133">
        <ele>345.637677</ele>
        <time>2022-07-27T15:16:14.571Z</time>
      </trkpt>
      <trkpt lat="43.825751" lon="5.782791">
        <ele>345.928412</ele>
        <time>2022-07-27T15:16:37.092Z</time>
      </trkpt>
      <trkpt lat="43.825519" lon="5.783035">
        <ele>346.027934</ele>
        <time>2022-07-27T15:16:44.174Z</time>
      </trkpt>
      <trkpt lat="43.825311" lon="5.783262">
        <ele>346.118404</ele>
        <time>2022-07-27T15:16:49.875Z</time>
      </trkpt>
      <trkpt lat="43.825251" lon="5.783334">
        <ele>346.145525</ele>
        <time>2022-07-27T15:16:51.522Z</time>
      </trkpt>
      <trkpt lat="43.825006" lon="5.784365">
        <ele>344.396447</ele>
        <time>2022-07-27T15:17:11.775Z</time>
      </trkpt>
      <trkpt lat="43.824762" lon="5.785396">
        <ele>342.273964</ele>
        <time>2022-07-27T15:17:32.034Z</time>
      </trkpt>
      <trkpt lat="43.824518" lon="5.786427">
        <ele>339.663825</ele>
        <time>2022-07-27T15:17:52.298Z</time>
      </trkpt>
      <trkpt lat="43.824273" lon="5.787459">
        <ele>336.644632</ele>
        <time>2022-07-27T15:18:12.564Z</time>
      </trkpt>
      <trkpt lat="43.824029" lon="5.788490">
        <ele>333.897731</ele>
        <time>2022-07-27T15:18:32.824Z</time>
      </trkpt>
      <trkpt lat="43.823785" lon="5.789521">
        <ele>331.956956</ele>
        <time>2022-07-27T15:18:53.080Z</time>
      </trkpt>
      <trkpt lat="43.823541" lon="5.790552">
        <ele>330.016175</ele>
        <time>2022-07-27T15:19:13.335Z</time>
      </trkpt>
      <trkpt lat="43.823277" lon="5.790947">
        <ele>329.199360</ele>
        <time>2022-07-27T15:19:20.642Z</time>
      </trkpt>
      <trkpt lat="43.823272" lon="5.790974">
        <ele>329.157880</ele>
        <time>2022-07-27T15:19:21.037Z</time>
      </trkpt>
      <trkpt lat="43.823255" lon="5.791054">
        <ele>329.033778</ele>
        <time>2022-07-27T15:19:22.199Z</time>
      </trkpt>
      <trkpt lat="43.823015" lon="5.791271">
        <ele>328.442763</ele>
        <time>2022-07-27T15:19:27.323Z</time>
      </trkpt>
      <trkpt lat="43.822725" lon="5.791520">
        <ele>327.739165</ele>
        <time>2022-07-27T15:19:33.381Z</time>
      </trkpt>
      <trkpt lat="43.822626" lon="5.791582">
        <ele>327.515100</ele>
        <time>2022-07-27T15:19:35.270Z</time>
      </trkpt>
      <trkpt lat="43.822591" lon="5.791566">
        <ele>327.439087</ele>
        <time>2022-07-27T15:19:35.892Z</time>
      </trkpt>
      <trkpt lat="43.822492" lon="5.791576">
        <ele>327.234356</ele>
        <time>2022-07-27T15:19:37.582Z</time>
      </trkpt>
      <trkpt lat="43.822407" lon="5.791659">
        <ele>327.019904</ele>
        <time>2022-07-27T15:19:39.398Z</time>
      </trkpt>
      <trkpt lat="43.822281" lon="5.791685">
        <ele>326.757163</ele>
        <time>2022-07-27T15:19:41.589Z</time>
      </trkpt>
      <trkpt lat="43.822131" lon="5.791771">
        <ele>326.422361</ele>
        <time>2022-07-27T15:19:44.346Z</time>
      </trkpt>
      <trkpt lat="43.822093" lon="5.791786">
        <ele>326.340869</ele>
        <time>2022-07-27T15:19:45.038Z</time>
      </trkpt>
      <trkpt lat="43.822040" lon="5.791816">
        <ele>326.222792</ele>
        <time>2022-07-27T15:19:46.025Z</time>
      </trkpt>
      <trkpt lat="43.821942" lon="5.791877">
        <ele>325.949037</ele>
        <time>2022-07-27T15:19:47.878Z</time>
      </trkpt>
      <trkpt lat="43.821767" lon="5.792010">
        <ele>325.436317</ele>
        <time>2022-07-27T15:19:51.293Z</time>
      </trkpt>
      <trkpt lat="43.821614" lon="5.792145">
        <ele>324.970377</ele>
        <time>2022-07-27T15:19:54.379Z</time>
      </trkpt>
      <trkpt lat="43.821228" lon="5.792567">
        <ele>323.707398</ele>
        <time>2022-07-27T15:20:02.709Z</time>
      </trkpt>
      <trkpt lat="43.820961" lon="5.792856">
        <ele>322.837101</ele>
        <time>2022-07-27T15:20:08.354Z</time>
      </trkpt>
      <trkpt lat="43.820796" lon="5.793049">
        <ele>322.282444</ele>
        <time>2022-07-27T15:20:11.941Z</time>
      </trkpt>
      <trkpt lat="43.820343" lon="5.793607">
        <ele>320.892701</ele>
        <time>2022-07-27T15:20:22.069Z</time>
      </trkpt>
      <trkpt lat="43.820280" lon="5.793713">
        <ele>320.687202</ele>
        <time>2022-07-27T15:20:23.781Z</time>
      </trkpt>
      <trkpt lat="43.820093" lon="5.794041">
        <ele>320.061664</ele>
        <time>2022-07-27T15:20:29.032Z</time>
      </trkpt>
      <trkpt lat="43.819997" lon="5.794226">
        <ele>319.720675</ele>
        <time>2022-07-27T15:20:31.949Z</time>
      </trkpt>
      <trkpt lat="43.819917" lon="5.794265">
        <ele>319.544798</ele>
        <time>2022-07-27T15:20:33.463Z</time>
      </trkpt>
      <trkpt lat="43.819866" lon="5.794369">
        <ele>319.356634</ele>
        <time>2022-07-27T15:20:35.059Z</time>
      </trkpt>
      <trkpt lat="43.819870" lon="5.794494">
        <ele>319.169403</ele>
        <time>2022-07-27T15:20:36.665Z</time>
      </trkpt>
      <trkpt lat="43.819821" lon="5.794617">
        <ele>318.959158</ele>
        <time>2022-07-27T15:20:38.437Z</time>
      </trkpt>
      <trkpt lat="43.819763" lon="5.794737">
        <ele>318.743027</ele>
        <time>2022-07-27T15:20:40.261Z</time>
      </trkpt>
      <trkpt lat="43.819674" lon="5.794887">
        <ele>318.452425</ele>
        <time>2022-07-27T15:20:42.773Z</time>
      </trkpt>
      <trkpt lat="43.819110" lon="5.795840">
        <ele>317.152181</ele>
        <time>2022-07-27T15:20:59.147Z</time>
      </trkpt>
      <trkpt lat="43.819035" lon="5.795962">
        <ele>317.016349</ele>
        <time>2022-07-27T15:21:01.363Z</time>
      </trkpt>
      <trkpt lat="43.818830" lon="5.796279">
        <ele>316.655585</ele>
        <time>2022-07-27T15:21:07.457Z</time>
      </trkpt>
      <trkpt lat="43.818792" lon="5.796342">
        <ele>316.585996</ele>
        <time>2022-07-27T15:21:08.668Z</time>
      </trkpt>
      <trkpt lat="43.818342" lon="5.797099">
        <ele>315.754763</ele>
        <time>2022-07-27T15:21:22.473Z</time>
      </trkpt>
      <trkpt lat="43.817700" lon="5.798158">
        <ele>314.050476</ele>
        <time>2022-07-27T15:21:40.589Z</time>
      </trkpt>
      <trkpt lat="43.817609" lon="5.798250">
        <ele>313.857892</ele>
        <time>2022-07-27T15:21:42.570Z</time>
      </trkpt>
      <trkpt lat="43.817463" lon="5.798359">
        <ele>313.574354</ele>
        <time>2022-07-27T15:21:45.540Z</time>
      </trkpt>
      <trkpt lat="43.817327" lon="5.798414">
        <ele>313.332131</ele>
        <time>2022-07-27T15:21:48.071Z</time>
      </trkpt>
      <trkpt lat="43.817278" lon="5.798529">
        <ele>313.167370</ele>
        <time>2022-07-27T15:21:49.726Z</time>
      </trkpt>
      <trkpt lat="43.817273" lon="5.798580">
        <ele>313.103875</ele>
        <time>2022-07-27T15:21:50.389Z</time>
      </trkpt>
      <trkpt lat="43.817209" lon="5.798771">
        <ele>312.844076</ele>
        <time>2022-07-27T15:21:53.122Z</time>
      </trkpt>
      <trkpt lat="43.817191" lon="5.798758">
        <ele>312.809372</ele>
        <time>2022-07-27T15:21:53.474Z</time>
      </trkpt>
      <trkpt lat="43.817047" lon="5.798995">
        <ele>312.356492</ele>
        <time>2022-07-27T15:21:57.316Z</time>
      </trkpt>
      <trkpt lat="43.816634" lon="5.799487">
        <ele>311.159960</ele>
        <time>2022-07-27T15:22:06.741Z</time>
      </trkpt>
      <trkpt lat="43.816596" lon="5.799528">
        <ele>311.054155</ele>
        <time>2022-07-27T15:22:07.542Z</time>
      </trkpt>
      <trkpt lat="43.816444" lon="5.799497">
        <ele>310.716606</ele>
        <time>2022-07-27T15:22:10.137Z</time>
      </trkpt>
      <trkpt lat="43.816376" lon="5.799411">
        <ele>310.514350</ele>
        <time>2022-07-27T15:22:11.731Z</time>
      </trkpt>
      <trkpt lat="43.816342" lon="5.799440">
        <ele>310.426636</ele>
        <time>2022-07-27T15:22:12.420Z</time>
      </trkpt>
      <trkpt lat="43.816286" lon="5.799476">
        <ele>310.291009</ele>
        <time>2022-07-27T15:22:13.481Z</time>
      </trkpt>
      <trkpt lat="43.816230" lon="5.799508">
        <ele>310.157926</ele>
        <time>2022-07-27T15:22:14.502Z</time>
      </trkpt>
      <trkpt lat="43.816168" lon="5.799821">
        <ele>309.643366</ele>
        <time>2022-07-27T15:22:18.575Z</time>
      </trkpt>
      <trkpt lat="43.815300" lon="5.801037">
        <ele>307.136229</ele>
        <time>2022-07-27T15:22:40.215Z</time>
      </trkpt>
      <trkpt lat="43.814941" lon="5.801566">
        <ele>306.116371</ele>
        <time>2022-07-27T15:22:49.428Z</time>
      </trkpt>
      <trkpt lat="43.813890" lon="5.803401">
        <ele>303.294742</ele>
        <time>2022-07-27T15:23:19.898Z</time>
      </trkpt>
      <trkpt lat="43.813710" lon="5.803617">
        <ele>302.921936</ele>
        <time>2022-07-27T15:23:24.356Z</time>
      </trkpt>
      <trkpt lat="43.813716" lon="5.803623">
        <ele>302.910352</ele>
        <time>2022-07-27T15:23:24.503Z</time>
      </trkpt>
      <trkpt lat="43.813711" lon="5.803891">
        <ele>302.607459</ele>
        <time>2022-07-27T15:23:28.325Z</time>
      </trkpt>
      <trkpt lat="43.813628" lon="5.804155">
        <ele>302.303369</ele>
        <time>2022-07-27T15:23:32.183Z</time>
      </trkpt>
      <trkpt lat="43.812304" lon="5.807780">
        <ele>298.502921</ele>
        <time>2022-07-27T15:24:27.009Z</time>
      </trkpt>
      <trkpt lat="43.811818" lon="5.808820">
        <ele>297.461154</ele>
        <time>2022-07-27T15:24:50.130Z</time>
      </trkpt>
      <trkpt lat="43.811333" lon="5.809860">
        <ele>296.638550</ele>
        <time>2022-07-27T15:25:13.251Z</time>
      </trkpt>
      <trkpt lat="43.810847" lon="5.810901">
        <ele>295.965995</ele>
        <time>2022-07-27T15:25:36.371Z</time>
      </trkpt>
      <trkpt lat="43.810362" lon="5.811941">
        <ele>295.596956</ele>
        <time>2022-07-27T15:25:59.491Z</time>
      </trkpt>
      <trkpt lat="43.809876" lon="5.812981">
        <ele>295.242342</ele>
        <time>2022-07-27T15:26:22.611Z</time>
      </trkpt>
      <trkpt lat="43.809391" lon="5.814022">
        <ele>294.918736</ele>
        <time>2022-07-27T15:26:45.732Z</time>
      </trkpt>
      <trkpt lat="43.808905" lon="5.815062">
        <ele>294.617038</ele>
        <time>2022-07-27T15:27:08.852Z</time>
      </trkpt>
      <trkpt lat="43.808420" lon="5.816102">
        <ele>294.364405</ele>
        <time>2022-07-27T15:27:31.973Z</time>
      </trkpt>
      <trkpt lat="43.807934" lon="5.817143">
        <ele>294.205154</ele>
        <time>2022-07-27T15:27:55.094Z</time>
      </trkpt>
      <trkpt lat="43.807448" lon="5.818183">
        <ele>294.267213</ele>
        <time>2022-07-27T15:28:18.215Z</time>
      </trkpt>
      <trkpt lat="43.806963" lon="5.819223">
        <ele>294.365347</ele>
        <time>2022-07-27T15:28:41.336Z</time>
      </trkpt>
      <trkpt lat="43.806477" lon="5.820264">
        <ele>294.554045</ele>
        <time>2022-07-27T15:29:04.457Z</time>
      </trkpt>
      <trkpt lat="43.805992" lon="5.821304">
        <ele>294.404611</ele>
        <time>2022-07-27T15:29:27.578Z</time>
      </trkpt>
      <trkpt lat="43.805506" lon="5.822344">
        <ele>293.359849</ele>
        <time>2022-07-27T15:29:50.702Z</time>
      </trkpt>
      <trkpt lat="43.805021" lon="5.823385">
        <ele>292.533030</ele>
        <time>2022-07-27T15:30:13.826Z</time>
      </trkpt>
      <trkpt lat="43.804535" lon="5.824425">
        <ele>292.318793</ele>
        <time>2022-07-27T15:30:36.947Z</time>
      </trkpt>
      <trkpt lat="43.804050" lon="5.825465">
        <ele>292.272811</ele>
        <time>2022-07-27T15:31:00.070Z</time>
      </trkpt>
      <trkpt lat="43.803564" lon="5.826506">
        <ele>292.730324</ele>
        <time>2022-07-27T15:31:23.192Z</time>
      </trkpt>
      <trkpt lat="43.803078" lon="5.827546">
        <ele>293.033366</ele>
        <time>2022-07-27T15:31:46.314Z</time>
      </trkpt>
      <trkpt lat="43.802593" lon="5.828586">
        <ele>292.847244</ele>
        <time>2022-07-27T15:32:09.437Z</time>
      </trkpt>
      <trkpt lat="43.802107" lon="5.829627">
        <ele>292.761815</ele>
        <time>2022-07-27T15:32:32.559Z</time>
      </trkpt>
      <trkpt lat="43.801622" lon="5.830667">
        <ele>293.017716</ele>
        <time>2022-07-27T15:32:55.682Z</time>
      </trkpt>
      <trkpt lat="43.801136" lon="5.831707">
        <ele>293.253467</ele>
        <time>2022-07-27T15:33:18.804Z</time>
      </trkpt>
      <trkpt lat="43.800651" lon="5.832748">
        <ele>293.415592</ele>
        <time>2022-07-27T15:33:41.927Z</time>
      </trkpt>
      <trkpt lat="43.800454" lon="5.833031">
        <ele>293.467038</ele>
        <time>2022-07-27T15:33:48.264Z</time>
      </trkpt>
      <trkpt lat="43.800360" lon="5.833065">
        <ele>293.484651</ele>
        <time>2022-07-27T15:33:50.494Z</time>
      </trkpt>
      <trkpt lat="43.800257" lon="5.833008">
        <ele>293.504758</ele>
        <time>2022-07-27T15:33:52.998Z</time>
      </trkpt>
      <trkpt lat="43.800228" lon="5.833051">
        <ele>293.512459</ele>
        <time>2022-07-27T15:33:53.867Z</time>
      </trkpt>
      <trkpt lat="43.800162" lon="5.833131">
        <ele>293.528357</ele>
        <time>2022-07-27T15:33:55.727Z</time>
      </trkpt>
      <trkpt lat="43.800219" lon="5.833327">
        <ele>293.652233</ele>
        <time>2022-07-27T15:33:59.086Z</time>
      </trkpt>
      <trkpt lat="43.800221" lon="5.833402">
        <ele>293.744193</ele>
        <time>2022-07-27T15:34:00.263Z</time>
      </trkpt>
      <trkpt lat="43.800158" lon="5.833979">
        <ele>294.459234</ele>
        <time>2022-07-27T15:34:09.499Z</time>
      </trkpt>
      <trkpt lat="43.799206" lon="5.836616">
        <ele>300.846089</ele>
        <time>2022-07-27T15:35:18.383Z</time>
      </trkpt>
      <trkpt lat="43.798342" lon="5.838988">
        <ele>311.537646</ele>
        <time>2022-07-27T15:36:55.586Z</time>
      </trkpt>
      <trkpt lat="43.798160" lon="5.839735">
        <ele>315.076281</ele>
        <time>2022-07-27T15:37:21.460Z</time>
      </trkpt>
      <trkpt lat="43.798113" lon="5.839965">
        <ele>316.149170</ele>
        <time>2022-07-27T15:37:28.901Z</time>
      </trkpt>
      <trkpt lat="43.797998" lon="5.840737">
        <ele>318.395193</ele>
        <time>2022-07-27T15:37:51.200Z</time>
      </trkpt>
      <trkpt lat="43.797680" lon="5.843119">
        <ele>324.633461</ele>
        <time>2022-07-27T15:38:52.115Z</time>
      </trkpt>
      <trkpt lat="43.797450" lon="5.844863">
        <ele>328.966919</ele>
        <time>2022-07-27T15:39:38.844Z</time>
      </trkpt>
      <trkpt lat="43.797369" lon="5.846046">
        <ele>331.525419</ele>
        <time>2022-07-27T15:40:08.250Z</time>
      </trkpt>
      <trkpt lat="43.797396" lon="5.846861">
        <ele>333.260913</ele>
        <time>2022-07-27T15:40:28.103Z</time>
      </trkpt>
      <trkpt lat="43.797543" lon="5.847939">
        <ele>335.548247</ele>
        <time>2022-07-27T15:40:54.418Z</time>
      </trkpt>
      <trkpt lat="43.797671" lon="5.848487">
        <ele>336.721370</ele>
        <time>2022-07-27T15:41:07.964Z</time>
      </trkpt>
      <trkpt lat="43.798164" lon="5.850087">
        <ele>340.397834</ele>
        <time>2022-07-27T15:41:50.098Z</time>
      </trkpt>
      <trkpt lat="43.799384" lon="5.853713">
        <ele>350.248594</ele>
        <time>2022-07-27T15:43:34.720Z</time>
      </trkpt>
      <trkpt lat="43.799697" lon="5.854422">
        <ele>352.312939</ele>
        <time>2022-07-27T15:43:56.270Z</time>
      </trkpt>
      <trkpt lat="43.800653" lon="5.856306">
        <ele>357.928933</ele>
        <time>2022-07-27T15:44:55.910Z</time>
      </trkpt>
      <trkpt lat="43.801568" lon="5.858079">
        <ele>362.789734</ele>
        <time>2022-07-27T15:45:50.470Z</time>
      </trkpt>
      <trkpt lat="43.802763" lon="5.860379">
        <ele>368.850463</ele>
        <time>2022-07-27T15:46:59.070Z</time>
      </trkpt>
      <trkpt lat="43.803468" lon="5.861838">
        <ele>373.610911</ele>
        <time>2022-07-27T15:47:46.687Z</time>
      </trkpt>
      <trkpt lat="43.804131" lon="5.863723">
        <ele>379.236046</ele>
        <time>2022-07-27T15:48:44.215Z</time>
      </trkpt>
      <trkpt lat="43.805308" lon="5.866534">
        <ele>387.804281</ele>
        <time>2022-07-27T15:50:08.026Z</time>
      </trkpt>
      <trkpt lat="43.806315" lon="5.869831">
        <ele>398.976912</ele>
        <time>2022-07-27T15:51:53.583Z</time>
      </trkpt>
      <trkpt lat="43.806471" lon="5.870439">
        <ele>400.781373</ele>
        <time>2022-07-27T15:52:11.954Z</time>
      </trkpt>
      <trkpt lat="43.807570" lon="5.875943">
        <ele>414.035666</ele>
        <time>2022-07-27T15:54:34.982Z</time>
      </trkpt>
      <trkpt lat="43.807639" lon="5.876731">
        <ele>415.659682</ele>
        <time>2022-07-27T15:54:53.588Z</time>
      </trkpt>
      <trkpt lat="43.807617" lon="5.877438">
        <ele>417.030083</ele>
        <time>2022-07-27T15:55:10.156Z</time>
      </trkpt>
      <trkpt lat="43.807203" lon="5.881276">
        <ele>424.847924</ele>
        <time>2022-07-27T15:56:43.135Z</time>
      </trkpt>
      <trkpt lat="43.807085" lon="5.881881">
        <ele>426.474861</ele>
        <time>2022-07-27T15:56:59.802Z</time>
      </trkpt>
      <trkpt lat="43.806878" lon="5.882447">
        <ele>428.122116</ele>
        <time>2022-07-27T15:57:17.110Z</time>
      </trkpt>
      <trkpt lat="43.805470" lon="5.886045">
        <ele>438.355871</ele>
        <time>2022-07-27T15:59:05.580Z</time>
      </trkpt>
      <trkpt lat="43.805379" lon="5.886332">
        <ele>438.929676</ele>
        <time>2022-07-27T15:59:12.750Z</time>
      </trkpt>
      <trkpt lat="43.805275" lon="5.886946">
        <ele>440.084112</ele>
        <time>2022-07-27T15:59:27.180Z</time>
      </trkpt>
      <trkpt lat="43.805278" lon="5.887851">
        <ele>441.740689</ele>
        <time>2022-07-27T15:59:47.432Z</time>
      </trkpt>
      <trkpt lat="43.805407" lon="5.888504">
        <ele>442.969407</ele>
        <time>2022-07-27T16:00:02.367Z</time>
      </trkpt>
      <trkpt lat="43.805882" lon="5.890083">
        <ele>446.057610</ele>
        <time>2022-07-27T16:00:42.208Z</time>
      </trkpt>
      <trkpt lat="43.806031" lon="5.891064">
        <ele>448.118109</ele>
        <time>2022-07-27T16:01:06.627Z</time>
      </trkpt>
      <trkpt lat="43.806143" lon="5.892643">
        <ele>451.604789</ele>
        <time>2022-07-27T16:01:46.069Z</time>
      </trkpt>
      <trkpt lat="43.806284" lon="5.893185">
        <ele>452.985434</ele>
        <time>2022-07-27T16:02:00.718Z</time>
      </trkpt>
      <trkpt lat="43.806447" lon="5.893485">
        <ele>453.949569</ele>
        <time>2022-07-27T16:02:10.455Z</time>
      </trkpt>
      <trkpt lat="43.806962" lon="5.894140">
        <ele>456.436534</ele>
        <time>2022-07-27T16:02:36.791Z</time>
      </trkpt>
      <trkpt lat="43.808045" lon="5.895518">
        <ele>461.333435</ele>
        <time>2022-07-27T16:03:29.901Z</time>
      </trkpt>
      <trkpt lat="43.808343" lon="5.896056">
        <ele>462.885738</ele>
        <time>2022-07-27T16:03:47.053Z</time>
      </trkpt>
      <trkpt lat="43.808781" lon="5.897022">
        <ele>465.367268</ele>
        <time>2022-07-27T16:04:14.338Z</time>
      </trkpt>
      <trkpt lat="43.809023" lon="5.897347">
        <ele>466.320901</ele>
        <time>2022-07-27T16:04:25.177Z</time>
      </trkpt>
      <trkpt lat="43.809409" lon="5.897662">
        <ele>467.588517</ele>
        <time>2022-07-27T16:04:39.654Z</time>
      </trkpt>
      <trkpt lat="43.811614" lon="5.899155">
        <ele>475.268180</ele>
        <time>2022-07-27T16:06:06.026Z</time>
      </trkpt>
      <trkpt lat="43.811891" lon="5.899455">
        <ele>476.291646</ele>
        <time>2022-07-27T16:06:18.374Z</time>
      </trkpt>
      <trkpt lat="43.812184" lon="5.899967">
        <ele>477.664411</ele>
        <time>2022-07-27T16:06:34.639Z</time>
      </trkpt>
      <trkpt lat="43.812520" lon="5.900771">
        <ele>479.616221</ele>
        <time>2022-07-27T16:06:57.089Z</time>
      </trkpt>
      <trkpt lat="43.812947" lon="5.902122">
        <ele>482.765996</ele>
        <time>2022-07-27T16:07:31.758Z</time>
      </trkpt>
      <trkpt lat="43.813417" lon="5.903011">
        <ele>485.133495</ele>
        <time>2022-07-27T16:07:59.107Z</time>
      </trkpt>
      <trkpt lat="43.813653" lon="5.903558">
        <ele>486.680304</ele>
        <time>2022-07-27T16:08:15.828Z</time>
      </trkpt>
      <trkpt lat="43.813911" lon="5.904827">
        <ele>490.226462</ele>
        <time>2022-07-27T16:08:52.079Z</time>
      </trkpt>
      <trkpt lat="43.814347" lon="5.906117">
        <ele>493.823781</ele>
        <time>2022-07-27T16:09:30.098Z</time>
      </trkpt>
      <trkpt lat="43.814393" lon="5.906484">
        <ele>494.674898</ele>
        <time>2022-07-27T16:09:39.254Z</time>
      </trkpt>
      <trkpt lat="43.814335" lon="5.907108">
        <ele>496.112460</ele>
        <time>2022-07-27T16:09:54.527Z</time>
      </trkpt>
      <trkpt lat="43.814055" lon="5.907970">
        <ele>498.266859</ele>
        <time>2022-07-27T16:10:18.429Z</time>
      </trkpt>
      <trkpt lat="43.813686" lon="5.908654">
        <ele>500.073652</ele>
        <time>2022-07-27T16:10:39.258Z</time>
      </trkpt>
      <trkpt lat="43.813253" lon="5.909251">
        <ele>501.864437</ele>
        <time>2022-07-27T16:10:59.982Z</time>
      </trkpt>
      <trkpt lat="43.813079" lon="5.909604">
        <ele>502.768870</ele>
        <time>2022-07-27T16:11:10.411Z</time>
      </trkpt>
      <trkpt lat="43.813034" lon="5.909792">
        <ele>503.187924</ele>
        <time>2022-07-27T16:11:15.162Z</time>
      </trkpt>
      <trkpt lat="43.813042" lon="5.910325">
        <ele>504.139517</ele>
        <time>2022-07-27T16:11:28.414Z</time>
      </trkpt>
      <trkpt lat="43.813407" lon="5.911414">
        <ele>506.149834</ele>
        <time>2022-07-27T16:11:56.121Z</time>
      </trkpt>
      <trkpt lat="43.813479" lon="5.912279">
        <ele>507.607643</ele>
        <time>2022-07-27T16:12:14.727Z</time>
      </trkpt>
      <trkpt lat="43.813369" lon="5.912914">
        <ele>508.460078</ele>
        <time>2022-07-27T16:12:28.621Z</time>
      </trkpt>
      <trkpt lat="43.812623" lon="5.915471">
        <ele>512.207341</ele>
        <time>2022-07-27T16:13:26.826Z</time>
      </trkpt>
      <trkpt lat="43.812610" lon="5.915958">
        <ele>512.936211</ele>
        <time>2022-07-27T16:13:37.577Z</time>
      </trkpt>
      <trkpt lat="43.812716" lon="5.916478">
        <ele>513.744374</ele>
        <time>2022-07-27T16:13:49.646Z</time>
      </trkpt>
      <trkpt lat="43.812944" lon="5.917334">
        <ele>515.290464</ele>
        <time>2022-07-27T16:14:10.662Z</time>
      </trkpt>
      <trkpt lat="43.812906" lon="5.918670">
        <ele>517.994394</ele>
        <time>2022-07-27T16:14:42.608Z</time>
      </trkpt>
      <trkpt lat="43.812967" lon="5.919037">
        <ele>518.756023</ele>
        <time>2022-07-27T16:14:52.228Z</time>
      </trkpt>
      <trkpt lat="43.813038" lon="5.919205">
        <ele>519.149754</ele>
        <time>2022-07-27T16:14:57.089Z</time>
      </trkpt>
      <trkpt lat="43.813273" lon="5.919551">
        <ele>520.129531</ele>
        <time>2022-07-27T16:15:08.994Z</time>
      </trkpt>
      <trkpt lat="43.814243" lon="5.920447">
        <ele>523.525992</ele>
        <time>2022-07-27T16:15:48.857Z</time>
      </trkpt>
      <trkpt lat="43.814874" lon="5.921402">
        <ele>526.177075</ele>
        <time>2022-07-27T16:16:19.889Z</time>
      </trkpt>
      <trkpt lat="43.815017" lon="5.921714">
        <ele>526.913819</ele>
        <time>2022-07-27T16:16:28.757Z</time>
      </trkpt>
      <trkpt lat="43.815147" lon="5.922162">
        <ele>527.876297</ele>
        <time>2022-07-27T16:16:40.429Z</time>
      </trkpt>
      <trkpt lat="43.815138" lon="5.922651">
        <ele>528.851313</ele>
        <time>2022-07-27T16:16:52.255Z</time>
      </trkpt>
      <trkpt lat="43.815008" lon="5.923070">
        <ele>529.760417</ele>
        <time>2022-07-27T16:17:03.200Z</time>
      </trkpt>
      <trkpt lat="43.813920" lon="5.924413">
        <ele>533.441062</ele>
        <time>2022-07-27T16:17:50.562Z</time>
      </trkpt>
      <trkpt lat="43.813581" lon="5.925141">
        <ele>534.854165</ele>
        <time>2022-07-27T16:18:10.320Z</time>
      </trkpt>
      <trkpt lat="43.812837" lon="5.925940">
        <ele>536.621243</ele>
        <time>2022-07-27T16:18:38.967Z</time>
      </trkpt>
      <trkpt lat="43.812354" lon="5.927269">
        <ele>537.990381</ele>
        <time>2022-07-27T16:19:08.984Z</time>
      </trkpt>
      <trkpt lat="43.812279" lon="5.927733">
        <ele>538.162197</ele>
        <time>2022-07-27T16:19:17.892Z</time>
      </trkpt>
      <trkpt lat="43.812306" lon="5.928149">
        <ele>538.313121</ele>
        <time>2022-07-27T16:19:25.235Z</time>
      </trkpt>
      <trkpt lat="43.812405" lon="5.928524">
        <ele>538.457407</ele>
        <time>2022-07-27T16:19:31.815Z</time>
      </trkpt>
      <trkpt lat="43.812722" lon="5.929302">
        <ele>538.387735</ele>
        <time>2022-07-27T16:19:45.081Z</time>
      </trkpt>
      <trkpt lat="43.813392" lon="5.930939">
        <ele>536.923191</ele>
        <time>2022-07-27T16:20:10.162Z</time>
      </trkpt>
      <trkpt lat="43.813739" lon="5.931672">
        <ele>537.269515</ele>
        <time>2022-07-27T16:20:22.506Z</time>
      </trkpt>
      <trkpt lat="43.814104" lon="5.932012">
        <ele>537.821986</ele>
        <time>2022-07-27T16:20:33.105Z</time>
      </trkpt>
      <trkpt lat="43.814569" lon="5.932143">
        <ele>538.418072</ele>
        <time>2022-07-27T16:20:47.323Z</time>
      </trkpt>
      <trkpt lat="43.815223" lon="5.932124">
        <ele>539.762843</ele>
        <time>2022-07-27T16:21:10.627Z</time>
      </trkpt>
      <trkpt lat="43.815866" lon="5.932312">
        <ele>542.222313</ele>
        <time>2022-07-27T16:21:36.279Z</time>
      </trkpt>
      <trkpt lat="43.816155" lon="5.932416">
        <ele>543.339796</ele>
        <time>2022-07-27T16:21:47.785Z</time>
      </trkpt>
      <trkpt lat="43.816766" lon="5.932640">
        <ele>545.705188</ele>
        <time>2022-07-27T16:22:11.848Z</time>
      </trkpt>
      <trkpt lat="43.817384" lon="5.932891">
        <ele>546.785318</ele>
        <time>2022-07-27T16:22:33.507Z</time>
      </trkpt>
      <trkpt lat="43.817808" lon="5.933031">
        <ele>547.515629</ele>
        <time>2022-07-27T16:22:45.731Z</time>
      </trkpt>
      <trkpt lat="43.819541" lon="5.933351">
        <ele>549.335207</ele>
        <time>2022-07-27T16:23:27.707Z</time>
      </trkpt>
      <trkpt lat="43.819847" lon="5.933466">
        <ele>549.524494</ele>
        <time>2022-07-27T16:23:35.350Z</time>
      </trkpt>
      <trkpt lat="43.820180" lon="5.933691">
        <ele>549.745671</ele>
        <time>2022-07-27T16:23:44.691Z</time>
      </trkpt>
      <trkpt lat="43.820511" lon="5.934040">
        <ele>550.156687</ele>
        <time>2022-07-27T16:23:55.693Z</time>
      </trkpt>
      <trkpt lat="43.820687" lon="5.934303">
        <ele>550.437380</ele>
        <time>2022-07-27T16:24:02.730Z</time>
      </trkpt>
      <trkpt lat="43.821278" lon="5.935613">
        <ele>551.646360</ele>
        <time>2022-07-27T16:24:32.948Z</time>
      </trkpt>
      <trkpt lat="43.821573" lon="5.936164">
        <ele>552.172553</ele>
        <time>2022-07-27T16:24:45.838Z</time>
      </trkpt>
      <trkpt lat="43.821973" lon="5.936669">
        <ele>552.745020</ele>
        <time>2022-07-27T16:24:59.641Z</time>
      </trkpt>
      <trkpt lat="43.822859" lon="5.937607">
        <ele>554.080117</ele>
        <time>2022-07-27T16:25:29.408Z</time>
      </trkpt>
      <trkpt lat="43.823661" lon="5.938659">
        <ele>555.906201</ele>
        <time>2022-07-27T16:26:01.399Z</time>
      </trkpt>
      <trkpt lat="43.823997" lon="5.939115">
        <ele>556.691184</ele>
        <time>2022-07-27T16:26:15.610Z</time>
      </trkpt>
      <trkpt lat="43.825126" lon="5.940606">
        <ele>559.579614</ele>
        <time>2022-07-27T16:27:02.828Z</time>
      </trkpt>
      <trkpt lat="43.825581" lon="5.941051">
        <ele>560.277335</ele>
        <time>2022-07-27T16:27:18.496Z</time>
      </trkpt>
      <trkpt lat="43.827594" lon="5.942671">
        <ele>562.155180</ele>
        <time>2022-07-27T16:28:16.533Z</time>
      </trkpt>
      <trkpt lat="43.827777" lon="5.942849">
        <ele>562.297514</ele>
        <time>2022-07-27T16:28:21.915Z</time>
      </trkpt>
      <trkpt lat="43.828086" lon="5.943296">
        <ele>562.581866</ele>
        <time>2022-07-27T16:28:32.372Z</time>
      </trkpt>
      <trkpt lat="43.828797" lon="5.944786">
        <ele>564.154609</ele>
        <time>2022-07-27T16:29:06.217Z</time>
      </trkpt>
      <trkpt lat="43.829668" lon="5.947897">
        <ele>568.317197</ele>
        <time>2022-07-27T16:30:18.495Z</time>
      </trkpt>
      <trkpt lat="43.830102" lon="5.948996">
        <ele>569.646970</ele>
        <time>2022-07-27T16:30:44.547Z</time>
      </trkpt>
      <trkpt lat="43.830334" lon="5.949392">
        <ele>570.158077</ele>
        <time>2022-07-27T16:30:54.672Z</time>
      </trkpt>
      <trkpt lat="43.832152" lon="5.951980">
        <ele>573.101492</ele>
        <time>2022-07-27T16:32:03.292Z</time>
      </trkpt>
      <trkpt lat="43.833597" lon="5.954284">
        <ele>575.260704</ele>
        <time>2022-07-27T16:33:01.663Z</time>
      </trkpt>
      <trkpt lat="43.834284" lon="5.955385">
        <ele>576.105532</ele>
        <time>2022-07-27T16:33:28.073Z</time>
      </trkpt>
      <trkpt lat="43.834704" lon="5.956007">
        <ele>576.499678</ele>
        <time>2022-07-27T16:33:43.175Z</time>
      </trkpt>
      <trkpt lat="43.834953" lon="5.956293">
        <ele>576.679577</ele>
        <time>2022-07-27T16:33:51.034Z</time>
      </trkpt>
      <trkpt lat="43.836719" lon="5.957729">
        <ele>578.201163</ele>
        <time>2022-07-27T16:34:41.008Z</time>
      </trkpt>
      <trkpt lat="43.837280" lon="5.958480">
        <ele>578.940632</ele>
        <time>2022-07-27T16:35:02.498Z</time>
      </trkpt>
      <trkpt lat="43.837944" lon="5.959914">
        <ele>580.493246</ele>
        <time>2022-07-27T16:35:38.503Z</time>
      </trkpt>
      <trkpt lat="43.838332" lon="5.960910">
        <ele>580.820305</ele>
        <time>2022-07-27T16:35:59.254Z</time>
      </trkpt>
      <trkpt lat="43.838404" lon="5.961433">
        <ele>579.969104</ele>
        <time>2022-07-27T16:36:07.102Z</time>
      </trkpt>
      <trkpt lat="43.838404" lon="5.961515">
        <ele>579.838012</ele>
        <time>2022-07-27T16:36:08.211Z</time>
      </trkpt>
      <trkpt lat="43.838405" lon="5.961682">
        <ele>579.571024</ele>
        <time>2022-07-27T16:36:10.479Z</time>
      </trkpt>
      <trkpt lat="43.838401" lon="5.961776">
        <ele>579.420487</ele>
        <time>2022-07-27T16:36:11.752Z</time>
      </trkpt>
      <trkpt lat="43.838121" lon="5.963870">
        <ele>574.414089</ele>
        <time>2022-07-27T16:36:35.947Z</time>
      </trkpt>
      <trkpt lat="43.837679" lon="5.965970">
        <ele>566.981704</ele>
        <time>2022-07-27T16:36:59.252Z</time>
      </trkpt>
      <trkpt lat="43.837378" lon="5.967786">
        <ele>562.047564</ele>
        <time>2022-07-27T16:37:20.640Z</time>
      </trkpt>
      <trkpt lat="43.837011" lon="5.970026">
        <ele>561.400375</ele>
        <time>2022-07-27T16:37:55.558Z</time>
      </trkpt>
      <trkpt lat="43.836991" lon="5.970468">
        <ele>561.536012</ele>
        <time>2022-07-27T16:38:05.043Z</time>
      </trkpt>
      <trkpt lat="43.837081" lon="5.971101">
        <ele>562.631342</ele>
        <time>2022-07-27T16:38:19.129Z</time>
      </trkpt>
      <trkpt lat="43.837096" lon="5.971184">
        <ele>562.776608</ele>
        <time>2022-07-27T16:38:21.014Z</time>
      </trkpt>
      <trkpt lat="43.837115" lon="5.971287">
        <ele>562.957099</ele>
        <time>2022-07-27T16:38:23.550Z</time>
      </trkpt>
      <trkpt lat="43.837189" lon="5.971939">
        <ele>564.077624</ele>
        <time>2022-07-27T16:38:39.678Z</time>
      </trkpt>
      <trkpt lat="43.837169" lon="5.972330">
        <ele>564.743095</ele>
        <time>2022-07-27T16:38:49.114Z</time>
      </trkpt>
      <trkpt lat="43.837099" lon="5.972683">
        <ele>565.364621</ele>
        <time>2022-07-27T16:38:57.686Z</time>
      </trkpt>
      <trkpt lat="43.836926" lon="5.973129">
        <ele>566.207307</ele>
        <time>2022-07-27T16:39:09.855Z</time>
      </trkpt>
      <trkpt lat="43.836640" lon="5.973631">
        <ele>567.264131</ele>
        <time>2022-07-27T16:39:25.630Z</time>
      </trkpt>
      <trkpt lat="43.836614" lon="5.973678">
        <ele>567.361984</ele>
        <time>2022-07-27T16:39:26.997Z</time>
      </trkpt>
      <trkpt lat="43.836410" lon="5.974051">
        <ele>568.135311</ele>
        <time>2022-07-27T16:39:36.904Z</time>
      </trkpt>
      <trkpt lat="43.836126" lon="5.974717">
        <ele>569.413483</ele>
        <time>2022-07-27T16:39:53.786Z</time>
      </trkpt>
      <trkpt lat="43.835774" lon="5.975919">
        <ele>570.433978</ele>
        <time>2022-07-27T16:40:21.321Z</time>
      </trkpt>
      <trkpt lat="43.835698" lon="5.976191">
        <ele>570.622830</ele>
        <time>2022-07-27T16:40:26.888Z</time>
      </trkpt>
      <trkpt lat="43.835519" lon="5.976838">
        <ele>571.071473</ele>
        <time>2022-07-27T16:40:38.794Z</time>
      </trkpt>
      <trkpt lat="43.835481" lon="5.976977">
        <ele>571.167713</ele>
        <time>2022-07-27T16:40:41.108Z</time>
      </trkpt>
      <trkpt lat="43.835447" lon="5.977100">
        <ele>571.252995</ele>
        <time>2022-07-27T16:40:43.009Z</time>
      </trkpt>
      <trkpt lat="43.835274" lon="5.977776">
        <ele>571.272368</ele>
        <time>2022-07-27T16:40:53.124Z</time>
      </trkpt>
      <trkpt lat="43.835255" lon="5.977924">
        <ele>571.259358</ele>
        <time>2022-07-27T16:40:55.474Z</time>
      </trkpt>
      <trkpt lat="43.835244" lon="5.978062">
        <ele>571.247342</ele>
        <time>2022-07-27T16:40:57.878Z</time>
      </trkpt>
      <trkpt lat="43.835249" lon="5.978385">
        <ele>571.219381</ele>
        <time>2022-07-27T16:41:02.681Z</time>
      </trkpt>
      <trkpt lat="43.835279" lon="5.978637">
        <ele>571.197276</ele>
        <time>2022-07-27T16:41:07.268Z</time>
      </trkpt>
      <trkpt lat="43.835351" lon="5.979040">
        <ele>571.161344</ele>
        <time>2022-07-27T16:41:14.306Z</time>
      </trkpt>
      <trkpt lat="43.835375" lon="5.979178">
        <ele>571.149058</ele>
        <time>2022-07-27T16:41:16.339Z</time>
      </trkpt>
      <trkpt lat="43.835380" lon="5.979206">
        <ele>571.146561</ele>
        <time>2022-07-27T16:41:16.755Z</time>
      </trkpt>
      <trkpt lat="43.835393" lon="5.979272">
        <ele>571.140640</ele>
        <time>2022-07-27T16:41:17.713Z</time>
      </trkpt>
      <trkpt lat="43.835402" lon="5.979328">
        <ele>571.135675</ele>
        <time>2022-07-27T16:41:18.499Z</time>
      </trkpt>
      <trkpt lat="43.835531" lon="5.979317">
        <ele>571.120168</ele>
        <time>2022-07-27T16:41:21.800Z</time>
      </trkpt>
      <trkpt lat="43.835558" lon="5.979354">
        <ele>571.115613</ele>
        <time>2022-07-27T16:41:22.555Z</time>
      </trkpt>
      <trkpt lat="43.835653" lon="5.979465">
        <ele>571.238795</ele>
        <time>2022-07-27T16:41:24.976Z</time>
      </trkpt>
      <trkpt lat="43.835765" lon="5.979676">
        <ele>571.591887</ele>
        <time>2022-07-27T16:41:29.444Z</time>
      </trkpt>
      <trkpt lat="43.835850" lon="5.979899">
        <ele>571.931834</ele>
        <time>2022-07-27T16:41:33.179Z</time>
      </trkpt>
      <trkpt lat="43.835923" lon="5.980131">
        <ele>572.272983</ele>
        <time>2022-07-27T16:41:38.000Z</time>
      </trkpt>
      <trkpt lat="43.836063" lon="5.980550">
        <ele>572.895363</ele>
        <time>2022-07-27T16:41:46.806Z</time>
      </trkpt>
      <trkpt lat="43.836105" lon="5.980684">
        <ele>573.092283</ele>
        <time>2022-07-27T16:41:49.887Z</time>
      </trkpt>
      <trkpt lat="43.836158" lon="5.980809">
        <ele>573.287710</ele>
        <time>2022-07-27T16:41:53.071Z</time>
      </trkpt>
      <trkpt lat="43.836289" lon="5.981049">
        <ele>573.693360</ele>
        <time>2022-07-27T16:42:01.140Z</time>
      </trkpt>
      <trkpt lat="43.836340" lon="5.981105">
        <ele>573.814924</ele>
        <time>2022-07-27T16:42:03.601Z</time>
      </trkpt>
      <trkpt lat="43.836448" lon="5.981164">
        <ele>574.031827</ele>
        <time>2022-07-27T16:42:08.111Z</time>
      </trkpt>
      <trkpt lat="43.837260" lon="5.981683">
        <ele>576.436537</ele>
        <time>2022-07-27T16:42:43.058Z</time>
      </trkpt>
      <trkpt lat="43.837314" lon="5.981745">
        <ele>576.645554</ele>
        <time>2022-07-27T16:42:45.320Z</time>
      </trkpt>
      <trkpt lat="43.837355" lon="5.981786">
        <ele>576.796257</ele>
        <time>2022-07-27T16:42:47.082Z</time>
      </trkpt>
      <trkpt lat="43.837493" lon="5.981938">
        <ele>577.321678</ele>
        <time>2022-07-27T16:42:53.214Z</time>
      </trkpt>
      <trkpt lat="43.837974" lon="5.982090">
        <ele>578.792360</ele>
        <time>2022-07-27T16:43:08.093Z</time>
      </trkpt>
      <trkpt lat="43.838155" lon="5.982221">
        <ele>579.401038</ele>
        <time>2022-07-27T16:43:14.332Z</time>
      </trkpt>
      <trkpt lat="43.838237" lon="5.982345">
        <ele>579.762767</ele>
        <time>2022-07-27T16:43:17.466Z</time>
      </trkpt>
      <trkpt lat="43.838196" lon="5.982400">
        <ele>579.910663</ele>
        <time>2022-07-27T16:43:19.209Z</time>
      </trkpt>
      <trkpt lat="43.838212" lon="5.982464">
        <ele>580.024352</ele>
        <time>2022-07-27T16:43:20.792Z</time>
      </trkpt>
      <trkpt lat="43.838276" lon="5.982465">
        <ele>580.173288</ele>
        <time>2022-07-27T16:43:22.972Z</time>
      </trkpt>
      <trkpt lat="43.838372" lon="5.982639">
        <ele>580.540977</ele>
        <time>2022-07-27T16:43:27.631Z</time>
      </trkpt>
      <trkpt lat="43.838439" lon="5.982711">
        <ele>580.738236</ele>
        <time>2022-07-27T16:43:30.448Z</time>
      </trkpt>
      <trkpt lat="43.838458" lon="5.982733">
        <ele>580.795840</ele>
        <time>2022-07-27T16:43:31.315Z</time>
      </trkpt>
      <trkpt lat="43.838626" lon="5.982886">
        <ele>581.263572</ele>
        <time>2022-07-27T16:43:38.459Z</time>
      </trkpt>
      <trkpt lat="43.838654" lon="5.982908">
        <ele>581.338463</ele>
        <time>2022-07-27T16:43:39.416Z</time>
      </trkpt>
      <trkpt lat="43.839107" lon="5.983239">
        <ele>582.530021</ele>
        <time>2022-07-27T16:43:56.050Z</time>
      </trkpt>
      <trkpt lat="43.839330" lon="5.983328">
        <ele>583.070008</ele>
        <time>2022-07-27T16:44:02.836Z</time>
      </trkpt>
      <trkpt lat="43.839707" lon="5.983192">
        <ele>583.976487</ele>
        <time>2022-07-27T16:44:14.191Z</time>
      </trkpt>
      <trkpt lat="43.840164" lon="5.983037">
        <ele>585.508057</ele>
        <time>2022-07-27T16:44:29.808Z</time>
      </trkpt>
      <trkpt lat="43.840207" lon="5.983075">
        <ele>585.675882</ele>
        <time>2022-07-27T16:44:31.533Z</time>
      </trkpt>
      <trkpt lat="43.840259" lon="5.983126">
        <ele>585.885516</ele>
        <time>2022-07-27T16:44:33.681Z</time>
      </trkpt>
      <trkpt lat="43.840280" lon="5.983148">
        <ele>585.972143</ele>
        <time>2022-07-27T16:44:34.602Z</time>
      </trkpt>
      <trkpt lat="43.840351" lon="5.983214">
        <ele>586.253479</ele>
        <time>2022-07-27T16:44:37.563Z</time>
      </trkpt>
      <trkpt lat="43.840472" lon="5.983327">
        <ele>586.733629</ele>
        <time>2022-07-27T16:44:43.182Z</time>
      </trkpt>
      <trkpt lat="43.840568" lon="5.983419">
        <ele>587.117715</ele>
        <time>2022-07-27T16:44:47.558Z</time>
      </trkpt>
      <trkpt lat="43.840741" lon="5.983588">
        <ele>587.814227</ele>
        <time>2022-07-27T16:44:56.045Z</time>
      </trkpt>
      <trkpt lat="43.841054" lon="5.983881">
        <ele>589.057186</ele>
        <time>2022-07-27T16:45:10.934Z</time>
      </trkpt>
      <trkpt lat="43.841141" lon="5.983970">
        <ele>589.413024</ele>
        <time>2022-07-27T16:45:14.843Z</time>
      </trkpt>
      <trkpt lat="43.841215" lon="5.984042">
        <ele>589.710559</ele>
        <time>2022-07-27T16:45:18.153Z</time>
      </trkpt>
      <trkpt lat="43.841383" lon="5.984198">
        <ele>590.186134</ele>
        <time>2022-07-27T16:45:25.158Z</time>
      </trkpt>
      <trkpt lat="43.841452" lon="5.984262">
        <ele>590.341229</ele>
        <time>2022-07-27T16:45:27.841Z</time>
      </trkpt>
      <trkpt lat="43.841558" lon="5.984364">
        <ele>590.582284</ele>
        <time>2022-07-27T16:45:32.045Z</time>
      </trkpt>
      <trkpt lat="43.841623" lon="5.984423">
        <ele>590.727428</ele>
        <time>2022-07-27T16:45:34.439Z</time>
      </trkpt>
      <trkpt lat="43.841782" lon="5.984559">
        <ele>591.076457</ele>
        <time>2022-07-27T16:45:40.343Z</time>
      </trkpt>
      <trkpt lat="43.842010" lon="5.984753">
        <ele>591.576231</ele>
        <time>2022-07-27T16:45:48.472Z</time>
      </trkpt>
      <trkpt lat="43.842348" lon="5.985038">
        <ele>592.315300</ele>
        <time>2022-07-27T16:45:59.810Z</time>
      </trkpt>
      <trkpt lat="43.842523" lon="5.985171">
        <ele>592.688136</ele>
        <time>2022-07-27T16:46:05.089Z</time>
      </trkpt>
      <trkpt lat="43.842826" lon="5.985380">
        <ele>593.299288</ele>
        <time>2022-07-27T16:46:13.505Z</time>
      </trkpt>
      <trkpt lat="43.843089" lon="5.985663">
        <ele>593.357717</ele>
        <time>2022-07-27T16:46:21.628Z</time>
      </trkpt>
      <trkpt lat="43.843363" lon="5.986094">
        <ele>593.430444</ele>
        <time>2022-07-27T16:46:31.431Z</time>
      </trkpt>
      <trkpt lat="43.843576" lon="5.986430">
        <ele>593.487070</ele>
        <time>2022-07-27T16:46:38.755Z</time>
      </trkpt>
      <trkpt lat="43.843779" lon="5.986597">
        <ele>593.528498</ele>
        <time>2022-07-27T16:46:43.974Z</time>
      </trkpt>
      <trkpt lat="43.844462" lon="5.987160">
        <ele>593.635606</ele>
        <time>2022-07-27T16:47:00.780Z</time>
      </trkpt>
      <trkpt lat="43.844527" lon="5.987231">
        <ele>593.641615</ele>
        <time>2022-07-27T16:47:02.461Z</time>
      </trkpt>
      <trkpt lat="43.844719" lon="5.987488">
        <ele>593.660993</ele>
        <time>2022-07-27T16:47:08.174Z</time>
      </trkpt>
      <trkpt lat="43.844829" lon="5.987634">
        <ele>593.672050</ele>
        <time>2022-07-27T16:47:11.430Z</time>
      </trkpt>
      <trkpt lat="43.845190" lon="5.988407">
        <ele>593.720276</ele>
        <time>2022-07-27T16:47:26.144Z</time>
      </trkpt>
      <trkpt lat="43.845325" lon="5.988574">
        <ele>593.733413</ele>
        <time>2022-07-27T16:47:30.698Z</time>
      </trkpt>
      <trkpt lat="43.845459" lon="5.988600">
        <ele>593.743238</ele>
        <time>2022-07-27T16:47:33.702Z</time>
      </trkpt>
      <trkpt lat="43.845894" lon="5.988548">
        <ele>594.621745</ele>
        <time>2022-07-27T16:47:45.197Z</time>
      </trkpt>
      <trkpt lat="43.846484" lon="5.988358">
        <ele>595.845813</ele>
        <time>2022-07-27T16:48:03.856Z</time>
      </trkpt>
      <trkpt lat="43.846528" lon="5.988352">
        <ele>595.935162</ele>
        <time>2022-07-27T16:48:05.164Z</time>
      </trkpt>
      <trkpt lat="43.846574" lon="5.988360">
        <ele>596.028852</ele>
        <time>2022-07-27T16:48:06.712Z</time>
      </trkpt>
      <trkpt lat="43.846989" lon="5.988507">
        <ele>596.894460</ele>
        <time>2022-07-27T16:48:21.084Z</time>
      </trkpt>
      <trkpt lat="43.847275" lon="5.988745">
        <ele>597.605758</ele>
        <time>2022-07-27T16:48:32.502Z</time>
      </trkpt>
      <trkpt lat="43.847429" lon="5.988942">
        <ele>598.112016</ele>
        <time>2022-07-27T16:48:39.718Z</time>
      </trkpt>
      <trkpt lat="43.847913" lon="5.989688">
        <ele>599.860567</ele>
        <time>2022-07-27T16:49:03.555Z</time>
      </trkpt>
      <trkpt lat="43.848494" lon="5.990686">
        <ele>601.940435</ele>
        <time>2022-07-27T16:49:32.157Z</time>
      </trkpt>
      <trkpt lat="43.849165" lon="5.991792">
        <ele>603.407182</ele>
        <time>2022-07-27T16:50:00.378Z</time>
      </trkpt>
      <trkpt lat="43.849474" lon="5.992188">
        <ele>603.999271</ele>
        <time>2022-07-27T16:50:11.755Z</time>
      </trkpt>
      <trkpt lat="43.850189" lon="5.992788">
        <ele>605.089881</ele>
        <time>2022-07-27T16:50:34.728Z</time>
      </trkpt>
      <trkpt lat="43.851424" lon="5.994004">
        <ele>607.048016</ele>
        <time>2022-07-27T16:51:15.970Z</time>
      </trkpt>
      <trkpt lat="43.851462" lon="5.994059">
        <ele>607.121789</ele>
        <time>2022-07-27T16:51:17.469Z</time>
      </trkpt>
      <trkpt lat="43.854004" lon="5.996840">
        <ele>611.440621</ele>
        <time>2022-07-27T16:52:47.291Z</time>
      </trkpt>
      <trkpt lat="43.857163" lon="6.000277">
        <ele>615.841370</ele>
        <time>2022-07-27T16:54:34.764Z</time>
      </trkpt>
      <trkpt lat="43.858062" lon="6.001251">
        <ele>616.793106</ele>
        <time>2022-07-27T16:55:03.291Z</time>
      </trkpt>
      <trkpt lat="43.858709" lon="6.001958">
        <ele>617.660294</ele>
        <time>2022-07-27T16:55:23.950Z</time>
      </trkpt>
      <trkpt lat="43.863497" lon="6.007171">
        <ele>624.337812</ele>
        <time>2022-07-27T16:58:07.505Z</time>
      </trkpt>
      <trkpt lat="43.866563" lon="6.010537">
        <ele>627.474573</ele>
        <time>2022-07-27T16:59:46.092Z</time>
      </trkpt>
      <trkpt lat="43.868694" lon="6.014506">
        <ele>631.033537</ele>
        <time>2022-07-27T17:01:20.122Z</time>
      </trkpt>
      <trkpt lat="43.868747" lon="6.014606">
        <ele>631.125672</ele>
        <time>2022-07-27T17:01:22.480Z</time>
      </trkpt>
      <trkpt lat="43.869374" lon="6.015801">
        <ele>632.254402</ele>
        <time>2022-07-27T17:01:50.965Z</time>
      </trkpt>
      <trkpt lat="43.870460" lon="6.017772">
        <ele>633.885927</ele>
        <time>2022-07-27T17:02:37.643Z</time>
      </trkpt>
      <trkpt lat="43.873068" lon="6.021576">
        <ele>636.444979</ele>
        <time>2022-07-27T17:04:09.879Z</time>
      </trkpt>
      <trkpt lat="43.876580" lon="6.026360">
        <ele>642.956300</ele>
        <time>2022-07-27T17:06:25.681Z</time>
      </trkpt>
      <trkpt lat="43.876932" lon="6.026880">
        <ele>643.832828</ele>
        <time>2022-07-27T17:06:41.256Z</time>
      </trkpt>
      <trkpt lat="43.877750" lon="6.028360">
        <ele>645.907504</ele>
        <time>2022-07-27T17:07:21.508Z</time>
      </trkpt>
      <trkpt lat="43.877920" lon="6.028750">
        <ele>646.371596</ele>
        <time>2022-07-27T17:07:30.679Z</time>
      </trkpt>
      <trkpt lat="43.878343" lon="6.030138">
        <ele>647.642976</ele>
        <time>2022-07-27T17:07:59.227Z</time>
      </trkpt>
      <trkpt lat="43.879255" lon="6.033557">
        <ele>649.464450</ele>
        <time>2022-07-27T17:09:03.602Z</time>
      </trkpt>
      <trkpt lat="43.879570" lon="6.034720">
        <ele>650.200223</ele>
        <time>2022-07-27T17:09:26.746Z</time>
      </trkpt>
      <trkpt lat="43.880016" lon="6.036057">
        <ele>651.328263</ele>
        <time>2022-07-27T17:09:55.986Z</time>
      </trkpt>
      <trkpt lat="43.880176" lon="6.036523">
        <ele>651.723485</ele>
        <time>2022-07-27T17:10:05.473Z</time>
      </trkpt>
      <trkpt lat="43.880480" lon="6.037387">
        <ele>652.105139</ele>
        <time>2022-07-27T17:10:22.745Z</time>
      </trkpt>
      <trkpt lat="43.880829" lon="6.038383">
        <ele>652.491746</ele>
        <time>2022-07-27T17:10:41.975Z</time>
      </trkpt>
      <trkpt lat="43.881109" lon="6.039163">
        <ele>652.747332</ele>
        <time>2022-07-27T17:10:55.829Z</time>
      </trkpt>
      <trkpt lat="43.881700" lon="6.041120">
        <ele>653.179654</ele>
        <time>2022-07-27T17:11:30.736Z</time>
      </trkpt>
      <trkpt lat="43.882414" lon="6.043896">
        <ele>655.945215</ele>
        <time>2022-07-27T17:12:29.473Z</time>
      </trkpt>
      <trkpt lat="43.882934" lon="6.045887">
        <ele>658.802141</ele>
        <time>2022-07-27T17:13:16.108Z</time>
      </trkpt>
      <trkpt lat="43.883092" lon="6.046468">
        <ele>659.454342</ele>
        <time>2022-07-27T17:13:29.364Z</time>
      </trkpt>
      <trkpt lat="43.883378" lon="6.047529">
        <ele>660.644064</ele>
        <time>2022-07-27T17:13:52.133Z</time>
      </trkpt>
      <trkpt lat="43.883690" lon="6.048413">
        <ele>661.590923</ele>
        <time>2022-07-27T17:14:10.594Z</time>
      </trkpt>
      <trkpt lat="43.885425" lon="6.052217">
        <ele>664.824530</ele>
        <time>2022-07-27T17:15:35.897Z</time>
      </trkpt>
      <trkpt lat="43.888307" lon="6.058674">
        <ele>669.043005</ele>
        <time>2022-07-27T17:17:54.176Z</time>
      </trkpt>
      <trkpt lat="43.888516" lon="6.059214">
        <ele>669.441986</ele>
        <time>2022-07-27T17:18:05.499Z</time>
      </trkpt>
      <trkpt lat="43.889237" lon="6.061799">
        <ele>671.452745</ele>
        <time>2022-07-27T17:18:57.644Z</time>
      </trkpt>
      <trkpt lat="43.889580" lon="6.062625">
        <ele>672.278175</ele>
        <time>2022-07-27T17:19:16.620Z</time>
      </trkpt>
      <trkpt lat="43.890424" lon="6.064201">
        <ele>674.030211</ele>
        <time>2022-07-27T17:19:55.472Z</time>
      </trkpt>
      <trkpt lat="43.890879" lon="6.065263">
        <ele>675.153157</ele>
        <time>2022-07-27T17:20:19.459Z</time>
      </trkpt>
      <trkpt lat="43.891461" lon="6.066909">
        <ele>677.051677</ele>
        <time>2022-07-27T17:20:55.996Z</time>
      </trkpt>
      <trkpt lat="43.891892" lon="6.067941">
        <ele>678.349657</ele>
        <time>2022-07-27T17:21:20.964Z</time>
      </trkpt>
      <trkpt lat="43.892028" lon="6.068841">
        <ele>679.417929</ele>
        <time>2022-07-27T17:21:39.815Z</time>
      </trkpt>
      <trkpt lat="43.892167" lon="6.069081">
        <ele>679.775619</ele>
        <time>2022-07-27T17:21:46.325Z</time>
      </trkpt>
      <trkpt lat="43.892647" lon="6.069460">
        <ele>680.665885</ele>
        <time>2022-07-27T17:22:02.197Z</time>
      </trkpt>
      <trkpt lat="43.892967" lon="6.069830">
        <ele>681.338573</ele>
        <time>2022-07-27T17:22:14.012Z</time>
      </trkpt>
      <trkpt lat="43.894998" lon="6.073417">
        <ele>686.489553</ele>
        <time>2022-07-27T17:23:48.612Z</time>
      </trkpt>
      <trkpt lat="43.895118" lon="6.074067">
        <ele>686.959192</ele>
        <time>2022-07-27T17:24:01.027Z</time>
      </trkpt>
      <trkpt lat="43.895216" lon="6.075530">
        <ele>687.987583</ele>
        <time>2022-07-27T17:24:27.790Z</time>
      </trkpt>
      <trkpt lat="43.895490" lon="6.079141">
        <ele>690.896017</ele>
        <time>2022-07-27T17:25:38.157Z</time>
      </trkpt>
      <trkpt lat="43.895521" lon="6.080063">
        <ele>691.653550</ele>
        <time>2022-07-27T17:25:55.814Z</time>
      </trkpt>
      <trkpt lat="43.895561" lon="6.081297">
        <ele>692.758716</ele>
        <time>2022-07-27T17:26:19.235Z</time>
      </trkpt>
      <trkpt lat="43.896270" lon="6.101960">
        <ele>712.881566</ele>
        <time>2022-07-27T17:33:12.865Z</time>
      </trkpt>
      <trkpt lat="43.896500" lon="6.107882">
        <ele>716.926656</ele>
        <time>2022-07-27T17:35:03.279Z</time>
      </trkpt>
      <trkpt lat="43.895843" lon="6.112905">
        <ele>720.439083</ele>
        <time>2022-07-27T17:36:39.297Z</time>
      </trkpt>
      <trkpt lat="43.895459" lon="6.115810">
        <ele>721.946099</ele>
        <time>2022-07-27T17:37:32.997Z</time>
      </trkpt>
      <trkpt lat="43.895042" lon="6.118671">
        <ele>722.862094</ele>
        <time>2022-07-27T17:38:21.727Z</time>
      </trkpt>
      <trkpt lat="43.894937" lon="6.119771">
        <ele>723.433083</ele>
        <time>2022-07-27T17:38:41.642Z</time>
      </trkpt>
      <trkpt lat="43.894922" lon="6.119921">
        <ele>723.511011</ele>
        <time>2022-07-27T17:38:44.490Z</time>
      </trkpt>
      <trkpt lat="43.895012" lon="6.120781">
        <ele>724.213858</ele>
        <time>2022-07-27T17:39:01.446Z</time>
      </trkpt>
      <trkpt lat="43.896015" lon="6.127393">
        <ele>732.144453</ele>
        <time>2022-07-27T17:41:24.508Z</time>
      </trkpt>
      <trkpt lat="43.896253" lon="6.128527">
        <ele>731.648961</ele>
        <time>2022-07-27T17:41:44.118Z</time>
      </trkpt>
      <trkpt lat="43.896280" lon="6.128764">
        <ele>731.384252</ele>
        <time>2022-07-27T17:41:47.536Z</time>
      </trkpt>
      <trkpt lat="43.896160" lon="6.128760">
        <ele>731.200482</ele>
        <time>2022-07-27T17:41:50.251Z</time>
      </trkpt>
      <trkpt lat="43.891327" lon="6.131385">
        <ele>720.296634</ele>
        <time>2022-07-27T17:43:20.921Z</time>
      </trkpt>
      <trkpt lat="43.891258" lon="6.131414">
        <ele>719.979851</ele>
        <time>2022-07-27T17:43:21.978Z</time>
      </trkpt>
      <trkpt lat="43.890626" lon="6.131545">
        <ele>717.172072</ele>
        <time>2022-07-27T17:43:31.422Z</time>
      </trkpt>
      <trkpt lat="43.890127" lon="6.131750">
        <ele>714.888604</ele>
        <time>2022-07-27T17:43:39.066Z</time>
      </trkpt>
      <trkpt lat="43.890016" lon="6.131879">
        <ele>714.257136</ele>
        <time>2022-07-27T17:43:41.235Z</time>
      </trkpt>
      <trkpt lat="43.889974" lon="6.132053">
        <ele>713.680380</ele>
        <time>2022-07-27T17:43:43.223Z</time>
      </trkpt>
      <trkpt lat="43.890051" lon="6.132325">
        <ele>712.761872</ele>
        <time>2022-07-27T17:43:46.281Z</time>
      </trkpt>
      <trkpt lat="43.890413" lon="6.132919">
        <ele>710.316837</ele>
        <time>2022-07-27T17:43:54.831Z</time>
      </trkpt>
      <trkpt lat="43.890827" lon="6.133412">
        <ele>707.937523</ele>
        <time>2022-07-27T17:44:03.623Z</time>
      </trkpt>
      <trkpt lat="43.890834" lon="6.133545">
        <ele>707.518386</ele>
        <time>2022-07-27T17:44:05.384Z</time>
      </trkpt>
      <trkpt lat="43.890763" lon="6.133635">
        <ele>707.335681</ele>
        <time>2022-07-27T17:44:07.455Z</time>
      </trkpt>
      <trkpt lat="43.890603" lon="6.133545">
        <ele>707.063362</ele>
        <time>2022-07-27T17:44:10.220Z</time>
      </trkpt>
      <trkpt lat="43.890200" lon="6.133021">
        <ele>706.192240</ele>
        <time>2022-07-27T17:44:20.155Z</time>
      </trkpt>
      <trkpt lat="43.889377" lon="6.132418">
        <ele>704.724249</ele>
        <time>2022-07-27T17:44:36.611Z</time>
      </trkpt>
      <trkpt lat="43.889009" lon="6.131953">
        <ele>705.821023</ele>
        <time>2022-07-27T17:44:49.871Z</time>
      </trkpt>
      <trkpt lat="43.888700" lon="6.131937">
        <ele>706.656637</ele>
        <time>2022-07-27T17:44:59.703Z</time>
      </trkpt>
      <trkpt lat="43.888548" lon="6.132008">
        <ele>707.090047</ele>
        <time>2022-07-27T17:45:05.548Z</time>
      </trkpt>
      <trkpt lat="43.888303" lon="6.132101">
        <ele>707.776456</ele>
        <time>2022-07-27T17:45:14.704Z</time>
      </trkpt>
      <trkpt lat="43.888095" lon="6.132181">
        <ele>708.359744</ele>
        <time>2022-07-27T17:45:22.887Z</time>
      </trkpt>
      <trkpt lat="43.887543" lon="6.132434">
        <ele>710.181817</ele>
        <time>2022-07-27T17:45:46.664Z</time>
      </trkpt>
      <trkpt lat="43.887247" lon="6.132550">
        <ele>711.490187</ele>
        <time>2022-07-27T17:45:59.692Z</time>
      </trkpt>
      <trkpt lat="43.886472" lon="6.132605">
        <ele>714.791158</ele>
        <time>2022-07-27T17:46:32.853Z</time>
      </trkpt>
      <trkpt lat="43.885897" lon="6.132794">
        <ele>717.185041</ele>
        <time>2022-07-27T17:46:53.905Z</time>
      </trkpt>
      <trkpt lat="43.885530" lon="6.132805">
        <ele>717.581161</ele>
        <time>2022-07-27T17:47:04.943Z</time>
      </trkpt>
      <trkpt lat="43.885196" lon="6.132670">
        <ele>717.956559</ele>
        <time>2022-07-27T17:47:14.662Z</time>
      </trkpt>
      <trkpt lat="43.884700" lon="6.132222">
        <ele>718.595208</ele>
        <time>2022-07-27T17:47:29.366Z</time>
      </trkpt>
      <trkpt lat="43.884476" lon="6.132120">
        <ele>718.849610</ele>
        <time>2022-07-27T17:47:34.723Z</time>
      </trkpt>
      <trkpt lat="43.883818" lon="6.131991">
        <ele>718.681377</ele>
        <time>2022-07-27T17:47:48.747Z</time>
      </trkpt>
      <trkpt lat="43.882401" lon="6.131805">
        <ele>717.384397</ele>
        <time>2022-07-27T17:48:15.701Z</time>
      </trkpt>
      <trkpt lat="43.881820" lon="6.131738">
        <ele>716.786030</ele>
        <time>2022-07-27T17:48:26.556Z</time>
      </trkpt>
      <trkpt lat="43.881011" lon="6.131745">
        <ele>715.955696</ele>
        <time>2022-07-27T17:48:42.261Z</time>
      </trkpt>
      <trkpt lat="43.879201" lon="6.131269">
        <ele>714.387475</ele>
        <time>2022-07-27T17:49:19.218Z</time>
      </trkpt>
      <trkpt lat="43.877726" lon="6.130716">
        <ele>712.408693</ele>
        <time>2022-07-27T17:49:47.706Z</time>
      </trkpt>
      <trkpt lat="43.873963" lon="6.129770">
        <ele>706.104859</ele>
        <time>2022-07-27T17:50:56.477Z</time>
      </trkpt>
      <trkpt lat="43.872353" lon="6.129552">
        <ele>703.814157</ele>
        <time>2022-07-27T17:51:26.429Z</time>
      </trkpt>
      <trkpt lat="43.870316" lon="6.128969">
        <ele>701.468313</ele>
        <time>2022-07-27T17:52:05.913Z</time>
      </trkpt>
      <trkpt lat="43.869558" lon="6.129044">
        <ele>700.992228</ele>
        <time>2022-07-27T17:52:21.073Z</time>
      </trkpt>
      <trkpt lat="43.869212" lon="6.129070">
        <ele>700.841599</ele>
        <time>2022-07-27T17:52:28.593Z</time>
      </trkpt>
      <trkpt lat="43.868760" lon="6.128985">
        <ele>700.643313</ele>
        <time>2022-07-27T17:52:38.296Z</time>
      </trkpt>
      <trkpt lat="43.867846" lon="6.128618">
        <ele>700.169796</ele>
        <time>2022-07-27T17:52:58.427Z</time>
      </trkpt>
      <trkpt lat="43.867775" lon="6.128585">
        <ele>700.127900</ele>
        <time>2022-07-27T17:52:59.924Z</time>
      </trkpt>
      <trkpt lat="43.867568" lon="6.128500">
        <ele>700.007112</ele>
        <time>2022-07-27T17:53:04.443Z</time>
      </trkpt>
      <trkpt lat="43.867184" lon="6.128359">
        <ele>699.784859</ele>
        <time>2022-07-27T17:53:12.800Z</time>
      </trkpt>
      <trkpt lat="43.866801" lon="6.128234">
        <ele>699.564714</ele>
        <time>2022-07-27T17:53:20.832Z</time>
      </trkpt>
      <trkpt lat="43.866668" lon="6.128191">
        <ele>699.488304</ele>
        <time>2022-07-27T17:53:23.464Z</time>
      </trkpt>
      <trkpt lat="43.866347" lon="6.128085">
        <ele>698.783427</ele>
        <time>2022-07-27T17:53:29.743Z</time>
      </trkpt>
      <trkpt lat="43.866291" lon="6.128068">
        <ele>698.621202</ele>
        <time>2022-07-27T17:53:30.814Z</time>
      </trkpt>
      <trkpt lat="43.865946" lon="6.127964">
        <ele>697.622096</ele>
        <time>2022-07-27T17:53:37.353Z</time>
      </trkpt>
      <trkpt lat="43.865864" lon="6.127945">
        <ele>697.386829</ele>
        <time>2022-07-27T17:53:38.867Z</time>
      </trkpt>
      <trkpt lat="43.865699" lon="6.127919">
        <ele>696.916893</ele>
        <time>2022-07-27T17:53:41.804Z</time>
      </trkpt>
      <trkpt lat="43.865436" lon="6.127902">
        <ele>696.171823</ele>
        <time>2022-07-27T17:53:46.250Z</time>
      </trkpt>
      <trkpt lat="43.865309" lon="6.127894">
        <ele>695.812056</ele>
        <time>2022-07-27T17:53:48.278Z</time>
      </trkpt>
      <trkpt lat="43.865200" lon="6.127892">
        <ele>695.503570</ele>
        <time>2022-07-27T17:53:49.994Z</time>
      </trkpt>
      <trkpt lat="43.865077" lon="6.127891">
        <ele>695.155487</ele>
        <time>2022-07-27T17:53:51.878Z</time>
      </trkpt>
      <trkpt lat="43.865004" lon="6.127890">
        <ele>694.948894</ele>
        <time>2022-07-27T17:53:52.998Z</time>
      </trkpt>
      <trkpt lat="43.864785" lon="6.127887">
        <ele>694.311294</ele>
        <time>2022-07-27T17:53:56.252Z</time>
      </trkpt>
      <trkpt lat="43.864756" lon="6.127886">
        <ele>694.114918</ele>
        <time>2022-07-27T17:53:56.687Z</time>
      </trkpt>
      <trkpt lat="43.864637" lon="6.127885">
        <ele>693.309332</ele>
        <time>2022-07-27T17:53:58.468Z</time>
      </trkpt>
      <trkpt lat="43.864601" lon="6.127884">
        <ele>693.065581</ele>
        <time>2022-07-27T17:53:59.014Z</time>
      </trkpt>
      <trkpt lat="43.864558" lon="6.127884">
        <ele>692.774492</ele>
        <time>2022-07-27T17:53:59.637Z</time>
      </trkpt>
      <trkpt lat="43.864455" lon="6.127859">
        <ele>692.066638</ele>
        <time>2022-07-27T17:54:01.142Z</time>
      </trkpt>
      <trkpt lat="43.864429" lon="6.127850">
        <ele>691.885232</ele>
        <time>2022-07-27T17:54:01.543Z</time>
      </trkpt>
      <trkpt lat="43.864409" lon="6.127898">
        <ele>691.614650</ele>
        <time>2022-07-27T17:54:02.137Z</time>
      </trkpt>
      <trkpt lat="43.864188" lon="6.128061">
        <ele>689.920217</ele>
        <time>2022-07-27T17:54:05.791Z</time>
      </trkpt>
      <trkpt lat="43.864035" lon="6.128257">
        <ele>688.510300</ele>
        <time>2022-07-27T17:54:08.792Z</time>
      </trkpt>
      <trkpt lat="43.863868" lon="6.128665">
        <ele>686.220438</ele>
        <time>2022-07-27T17:54:13.569Z</time>
      </trkpt>
      <trkpt lat="43.863862" lon="6.128751">
        <ele>685.798735</ele>
        <time>2022-07-27T17:54:14.488Z</time>
      </trkpt>
      <trkpt lat="43.863937" lon="6.128921">
        <ele>684.825999</ele>
        <time>2022-07-27T17:54:16.499Z</time>
      </trkpt>
      <trkpt lat="43.864105" lon="6.129153">
        <ele>683.221143</ele>
        <time>2022-07-27T17:54:19.864Z</time>
      </trkpt>
      <trkpt lat="43.864138" lon="6.129191">
        <ele>682.930793</ele>
        <time>2022-07-27T17:54:20.466Z</time>
      </trkpt>
      <trkpt lat="43.864289" lon="6.129375">
        <ele>681.660424</ele>
        <time>2022-07-27T17:54:23.263Z</time>
      </trkpt>
      <trkpt lat="43.864493" lon="6.129593">
        <ele>680.181248</ele>
        <time>2022-07-27T17:54:26.881Z</time>
      </trkpt>
      <trkpt lat="43.864799" lon="6.130023">
        <ele>677.679241</ele>
        <time>2022-07-27T17:54:33.080Z</time>
      </trkpt>
      <trkpt lat="43.865235" lon="6.130949">
        <ele>673.099253</ele>
        <time>2022-07-27T17:54:45.327Z</time>
      </trkpt>
      <trkpt lat="43.865278" lon="6.131207">
        <ele>672.002670</ele>
        <time>2022-07-27T17:54:48.370Z</time>
      </trkpt>
      <trkpt lat="43.865288" lon="6.131881">
        <ele>670.146662</ele>
        <time>2022-07-27T17:54:55.994Z</time>
      </trkpt>
      <trkpt lat="43.865359" lon="6.132081">
        <ele>669.552680</ele>
        <time>2022-07-27T17:54:58.571Z</time>
      </trkpt>
      <trkpt lat="43.865890" lon="6.132643">
        <ele>667.084259</ele>
        <time>2022-07-27T17:55:09.226Z</time>
      </trkpt>
      <trkpt lat="43.866308" lon="6.132939">
        <ele>665.349819</ele>
        <time>2022-07-27T17:55:16.785Z</time>
      </trkpt>
      <trkpt lat="43.866697" lon="6.133220">
        <ele>663.513698</ele>
        <time>2022-07-27T17:55:23.949Z</time>
      </trkpt>
      <trkpt lat="43.867332" lon="6.133510">
        <ele>660.678530</ele>
        <time>2022-07-27T17:55:34.411Z</time>
      </trkpt>
      <trkpt lat="43.867941" lon="6.134293">
        <ele>656.995434</ele>
        <time>2022-07-27T17:55:46.996Z</time>
      </trkpt>
      <trkpt lat="43.868023" lon="6.134486">
        <ele>656.036020</ele>
        <time>2022-07-27T17:55:49.442Z</time>
      </trkpt>
      <trkpt lat="43.868040" lon="6.134663">
        <ele>655.271289</ele>
        <time>2022-07-27T17:55:51.483Z</time>
      </trkpt>
      <trkpt lat="43.867964" lon="6.134905">
        <ele>654.140816</ele>
        <time>2022-07-27T17:55:54.185Z</time>
      </trkpt>
      <trkpt lat="43.867578" lon="6.135352">
        <ele>651.153736</ele>
        <time>2022-07-27T17:56:01.752Z</time>
      </trkpt>
      <trkpt lat="43.867428" lon="6.135607">
        <ele>649.744247</ele>
        <time>2022-07-27T17:56:05.101Z</time>
      </trkpt>
      <trkpt lat="43.867294" lon="6.136327">
        <ele>646.540942</ele>
        <time>2022-07-27T17:56:12.855Z</time>
      </trkpt>
      <trkpt lat="43.867187" lon="6.136418">
        <ele>645.751297</ele>
        <time>2022-07-27T17:56:14.564Z</time>
      </trkpt>
      <trkpt lat="43.867019" lon="6.136439">
        <ele>644.690058</ele>
        <time>2022-07-27T17:56:17.082Z</time>
      </trkpt>
      <trkpt lat="43.864289" lon="6.136091">
        <ele>628.329628</ele>
        <time>2022-07-27T17:56:57.171Z</time>
      </trkpt>
      <trkpt lat="43.863947" lon="6.136197">
        <ele>626.365952</ele>
        <time>2022-07-27T17:57:02.519Z</time>
      </trkpt>
      <trkpt lat="43.863292" lon="6.136550">
        <ele>623.938100</ele>
        <time>2022-07-27T17:57:13.378Z</time>
      </trkpt>
      <trkpt lat="43.862991" lon="6.136637">
        <ele>623.067423</ele>
        <time>2022-07-27T17:57:18.266Z</time>
      </trkpt>
      <trkpt lat="43.862742" lon="6.136544">
        <ele>622.337192</ele>
        <time>2022-07-27T17:57:22.531Z</time>
      </trkpt>
      <trkpt lat="43.862310" lon="6.136173">
        <ele>620.898337</ele>
        <time>2022-07-27T17:57:31.734Z</time>
      </trkpt>
      <trkpt lat="43.862103" lon="6.136180">
        <ele>620.412895</ele>
        <time>2022-07-27T17:57:35.761Z</time>
      </trkpt>
      <trkpt lat="43.861804" lon="6.136551">
        <ele>620.800181</ele>
        <time>2022-07-27T17:57:44.205Z</time>
      </trkpt>
      <trkpt lat="43.860987" lon="6.137584">
        <ele>621.867408</ele>
        <time>2022-07-27T17:58:13.452Z</time>
      </trkpt>
      <trkpt lat="43.860912" lon="6.137677">
        <ele>621.964526</ele>
        <time>2022-07-27T17:58:16.870Z</time>
      </trkpt>
      <trkpt lat="43.860691" lon="6.137852">
        <ele>622.419197</ele>
        <time>2022-07-27T17:58:25.407Z</time>
      </trkpt>
      <trkpt lat="43.860050" lon="6.137803">
        <ele>624.533757</ele>
        <time>2022-07-27T17:58:48.084Z</time>
      </trkpt>
      <trkpt lat="43.859626" lon="6.137802">
        <ele>625.930349</ele>
        <time>2022-07-27T17:59:02.782Z</time>
      </trkpt>
      <trkpt lat="43.859405" lon="6.137980">
        <ele>626.772141</ele>
        <time>2022-07-27T17:59:12.314Z</time>
      </trkpt>
      <trkpt lat="43.859034" lon="6.138556">
        <ele>628.755106</ele>
        <time>2022-07-27T17:59:33.567Z</time>
      </trkpt>
      <trkpt lat="43.858504" lon="6.139039">
        <ele>631.399961</ele>
        <time>2022-07-27T17:59:57.959Z</time>
      </trkpt>
      <trkpt lat="43.857828" lon="6.139488">
        <ele>634.525856</ele>
        <time>2022-07-27T18:00:27.303Z</time>
      </trkpt>
      <trkpt lat="43.857131" lon="6.140217">
        <ele>638.127108</ele>
        <time>2022-07-27T18:01:02.568Z</time>
      </trkpt>
      <trkpt lat="43.856357" lon="6.140514">
        <ele>641.425717</ele>
        <time>2022-07-27T18:01:33.292Z</time>
      </trkpt>
      <trkpt lat="43.855670" lon="6.140740">
        <ele>644.311644</ele>
        <time>2022-07-27T18:01:59.484Z</time>
      </trkpt>
      <trkpt lat="43.855034" lon="6.140639">
        <ele>646.914187</ele>
        <time>2022-07-27T18:02:23.456Z</time>
      </trkpt>
      <trkpt lat="43.853564" lon="6.140314">
        <ele>653.163721</ele>
        <time>2022-07-27T18:03:23.013Z</time>
      </trkpt>
      <trkpt lat="43.853257" lon="6.140256">
        <ele>654.515073</ele>
        <time>2022-07-27T18:03:36.059Z</time>
      </trkpt>
      <trkpt lat="43.853047" lon="6.140343">
        <ele>655.470989</ele>
        <time>2022-07-27T18:03:44.949Z</time>
      </trkpt>
      <trkpt lat="43.852643" lon="6.140968">
        <ele>658.100498</ele>
        <time>2022-07-27T18:04:09.036Z</time>
      </trkpt>
      <trkpt lat="43.851869" lon="6.141823">
        <ele>659.737700</ele>
        <time>2022-07-27T18:04:42.949Z</time>
      </trkpt>
      <trkpt lat="43.851255" lon="6.142701">
        <ele>660.842817</ele>
        <time>2022-07-27T18:05:02.891Z</time>
      </trkpt>
      <trkpt lat="43.850761" lon="6.143096">
        <ele>659.154479</ele>
        <time>2022-07-27T18:05:12.926Z</time>
      </trkpt>
      <trkpt lat="43.850561" lon="6.143360">
        <ele>658.336942</ele>
        <time>2022-07-27T18:05:17.386Z</time>
      </trkpt>
      <trkpt lat="43.850483" lon="6.143489">
        <ele>657.977505</ele>
        <time>2022-07-27T18:05:19.337Z</time>
      </trkpt>
      <trkpt lat="43.850333" lon="6.143809">
        <ele>657.162608</ele>
        <time>2022-07-27T18:05:23.619Z</time>
      </trkpt>
      <trkpt lat="43.850285" lon="6.144053">
        <ele>656.622597</ele>
        <time>2022-07-27T18:05:26.463Z</time>
      </trkpt>
      <trkpt lat="43.850142" lon="6.146202">
        <ele>651.141971</ele>
        <time>2022-07-27T18:05:50.483Z</time>
      </trkpt>
      <trkpt lat="43.850222" lon="6.146525">
        <ele>650.242169</ele>
        <time>2022-07-27T18:05:54.397Z</time>
      </trkpt>
      <trkpt lat="43.850447" lon="6.146832">
        <ele>649.214394</ele>
        <time>2022-07-27T18:05:59.716Z</time>
      </trkpt>
      <trkpt lat="43.850490" lon="6.147152">
        <ele>649.630699</ele>
        <time>2022-07-27T18:06:04.044Z</time>
      </trkpt>
      <trkpt lat="43.850220" lon="6.148028">
        <ele>650.849088</ele>
        <time>2022-07-27T18:06:21.392Z</time>
      </trkpt>
      <trkpt lat="43.850078" lon="6.148452">
        <ele>651.446983</ele>
        <time>2022-07-27T18:06:33.157Z</time>
      </trkpt>
      <trkpt lat="43.850312" lon="6.150397">
        <ele>655.186072</ele>
        <time>2022-07-27T18:07:33.152Z</time>
      </trkpt>
      <trkpt lat="43.850282" lon="6.150736">
        <ele>655.954007</ele>
        <time>2022-07-27T18:07:43.384Z</time>
      </trkpt>
      <trkpt lat="43.850232" lon="6.150817">
        <ele>656.193738</ele>
        <time>2022-07-27T18:07:46.499Z</time>
      </trkpt>
      <trkpt lat="43.850002" lon="6.150937">
        <ele>656.959917</ele>
        <time>2022-07-27T18:07:55.147Z</time>
      </trkpt>
      <trkpt lat="43.847174" lon="6.151474">
        <ele>653.183139</ele>
        <time>2022-07-27T18:08:45.563Z</time>
      </trkpt>
      <trkpt lat="43.846856" lon="6.151669">
        <ele>652.320665</ele>
        <time>2022-07-27T18:08:51.176Z</time>
      </trkpt>
      <trkpt lat="43.846527" lon="6.152272">
        <ele>650.968053</ele>
        <time>2022-07-27T18:09:00.186Z</time>
      </trkpt>
      <trkpt lat="43.846427" lon="6.152477">
        <ele>650.529337</ele>
        <time>2022-07-27T18:09:03.170Z</time>
      </trkpt>
      <trkpt lat="43.845948" lon="6.153522">
        <ele>649.149424</ele>
        <time>2022-07-27T18:09:18.990Z</time>
      </trkpt>
      <trkpt lat="43.845800" lon="6.154350">
        <ele>648.198738</ele>
        <time>2022-07-27T18:09:30.494Z</time>
      </trkpt>
      <trkpt lat="43.845174" lon="6.155941">
        <ele>647.062363</ele>
        <time>2022-07-27T18:09:57.406Z</time>
      </trkpt>
      <trkpt lat="43.845004" lon="6.156151">
        <ele>646.907546</ele>
        <time>2022-07-27T18:10:02.203Z</time>
      </trkpt>
      <trkpt lat="43.844288" lon="6.156406">
        <ele>646.290458</ele>
        <time>2022-07-27T18:10:16.667Z</time>
      </trkpt>
      <trkpt lat="43.844092" lon="6.156559">
        <ele>646.001520</ele>
        <time>2022-07-27T18:10:20.815Z</time>
      </trkpt>
      <trkpt lat="43.843942" lon="6.156908">
        <ele>645.625119</ele>
        <time>2022-07-27T18:10:26.273Z</time>
      </trkpt>
      <trkpt lat="43.843920" lon="6.157453">
        <ele>645.119397</ele>
        <time>2022-07-27T18:10:33.577Z</time>
      </trkpt>
      <trkpt lat="43.843904" lon="6.157564">
        <ele>645.014524</ele>
        <time>2022-07-27T18:10:35.183Z</time>
      </trkpt>
      <trkpt lat="43.843760" lon="6.157950">
        <ele>644.611894</ele>
        <time>2022-07-27T18:10:40.906Z</time>
      </trkpt>
      <trkpt lat="43.843378" lon="6.158661">
        <ele>643.950137</ele>
        <time>2022-07-27T18:10:52.752Z</time>
      </trkpt>
      <trkpt lat="43.843248" lon="6.159071">
        <ele>643.688340</ele>
        <time>2022-07-27T18:10:58.733Z</time>
      </trkpt>
      <trkpt lat="43.843338" lon="6.159631">
        <ele>643.352971</ele>
        <time>2022-07-27T18:11:06.377Z</time>
      </trkpt>
      <trkpt lat="43.843858" lon="6.160979">
        <ele>643.150775</ele>
        <time>2022-07-27T18:11:30.972Z</time>
      </trkpt>
      <trkpt lat="43.843922" lon="6.161258">
        <ele>643.366393</ele>
        <time>2022-07-27T18:11:36.086Z</time>
      </trkpt>
      <trkpt lat="43.843962" lon="6.161443">
        <ele>643.508631</ele>
        <time>2022-07-27T18:11:39.679Z</time>
      </trkpt>
      <trkpt lat="43.843979" lon="6.161477">
        <ele>643.539099</ele>
        <time>2022-07-27T18:11:40.453Z</time>
      </trkpt>
      <trkpt lat="43.844047" lon="6.161483">
        <ele>643.608677</ele>
        <time>2022-07-27T18:11:42.197Z</time>
      </trkpt>
      <trkpt lat="43.844082" lon="6.161519">
        <ele>643.653177</ele>
        <time>2022-07-27T18:11:43.320Z</time>
      </trkpt>
      <trkpt lat="43.844536" lon="6.161616">
        <ele>644.122242</ele>
        <time>2022-07-27T18:11:55.696Z</time>
      </trkpt>
      <trkpt lat="43.844857" lon="6.161969">
        <ele>644.540604</ele>
        <time>2022-07-27T18:12:07.439Z</time>
      </trkpt>
      <trkpt lat="43.846352" lon="6.164668">
        <ele>650.298008</ele>
        <time>2022-07-27T18:13:25.127Z</time>
      </trkpt>
      <trkpt lat="43.847898" lon="6.167516">
        <ele>657.516214</ele>
        <time>2022-07-27T18:14:51.576Z</time>
      </trkpt>
      <trkpt lat="43.848230" lon="6.168126">
        <ele>659.160519</ele>
        <time>2022-07-27T18:15:10.787Z</time>
      </trkpt>
      <trkpt lat="43.848606" lon="6.168845">
        <ele>661.206557</ele>
        <time>2022-07-27T18:15:33.425Z</time>
      </trkpt>
      <trkpt lat="43.849056" lon="6.170366">
        <ele>665.000095</ele>
        <time>2022-07-27T18:16:15.189Z</time>
      </trkpt>
      <trkpt lat="43.849405" lon="6.170984">
        <ele>666.832000</ele>
        <time>2022-07-27T18:16:34.619Z</time>
      </trkpt>
      <trkpt lat="43.849530" lon="6.171123">
        <ele>667.350534</ele>
        <time>2022-07-27T18:16:40.235Z</time>
      </trkpt>
      <trkpt lat="43.850154" lon="6.171723">
        <ele>669.807917</ele>
        <time>2022-07-27T18:17:07.083Z</time>
      </trkpt>
      <trkpt lat="43.850400" lon="6.172066">
        <ele>670.937694</ele>
        <time>2022-07-27T18:17:19.550Z</time>
      </trkpt>
      <trkpt lat="43.850568" lon="6.172388">
        <ele>671.866485</ele>
        <time>2022-07-27T18:17:29.928Z</time>
      </trkpt>
      <trkpt lat="43.850714" lon="6.172836">
        <ele>673.015384</ele>
        <time>2022-07-27T18:17:42.412Z</time>
      </trkpt>
      <trkpt lat="43.850835" lon="6.173555">
        <ele>674.740798</ele>
        <time>2022-07-27T18:18:01.496Z</time>
      </trkpt>
      <trkpt lat="43.850845" lon="6.173648">
        <ele>674.960537</ele>
        <time>2022-07-27T18:18:03.878Z</time>
      </trkpt>
      <trkpt lat="43.851020" lon="6.175189">
        <ele>678.560321</ele>
        <time>2022-07-27T18:18:42.015Z</time>
      </trkpt>
      <trkpt lat="43.851086" lon="6.175522">
        <ele>679.352188</ele>
        <time>2022-07-27T18:18:50.849Z</time>
      </trkpt>
      <trkpt lat="43.851214" lon="6.175975">
        <ele>680.467782</ele>
        <time>2022-07-27T18:19:03.229Z</time>
      </trkpt>
      <trkpt lat="43.851247" lon="6.176069">
        <ele>680.707503</ele>
        <time>2022-07-27T18:19:05.695Z</time>
      </trkpt>
      <trkpt lat="43.851445" lon="6.176625">
        <ele>682.146242</ele>
        <time>2022-07-27T18:19:22.025Z</time>
      </trkpt>
      <trkpt lat="43.852273" lon="6.178914">
        <ele>688.309472</ele>
        <time>2022-07-27T18:20:28.808Z</time>
      </trkpt>
      <trkpt lat="43.852431" lon="6.179451">
        <ele>689.313795</ele>
        <time>2022-07-27T18:20:42.629Z</time>
      </trkpt>
      <trkpt lat="43.852507" lon="6.179990">
        <ele>690.264831</ele>
        <time>2022-07-27T18:20:55.227Z</time>
      </trkpt>
      <trkpt lat="43.852472" lon="6.180743">
        <ele>691.571472</ele>
        <time>2022-07-27T18:21:11.724Z</time>
      </trkpt>
      <trkpt lat="43.851991" lon="6.182608">
        <ele>694.890379</ele>
        <time>2022-07-27T18:21:54.490Z</time>
      </trkpt>
      <trkpt lat="43.851846" lon="6.183530">
        <ele>696.456551</ele>
        <time>2022-07-27T18:22:17.549Z</time>
      </trkpt>
      <trkpt lat="43.851856" lon="6.184319">
        <ele>698.016797</ele>
        <time>2022-07-27T18:22:36.346Z</time>
      </trkpt>
      <trkpt lat="43.851964" lon="6.185014">
        <ele>699.425222</ele>
        <time>2022-07-27T18:22:53.812Z</time>
      </trkpt>
      <trkpt lat="43.852173" lon="6.185669">
        <ele>700.844148</ele>
        <time>2022-07-27T18:23:11.101Z</time>
      </trkpt>
      <trkpt lat="43.854400" lon="6.190485">
        <ele>708.762738</ele>
        <time>2022-07-27T18:25:21.640Z</time>
      </trkpt>
      <trkpt lat="43.854885" lon="6.191535">
        <ele>706.614038</ele>
        <time>2022-07-27T18:25:37.400Z</time>
      </trkpt>
      <trkpt lat="43.855023" lon="6.191831">
        <ele>706.006661</ele>
        <time>2022-07-27T18:25:41.394Z</time>
      </trkpt>
      <trkpt lat="43.856850" lon="6.195781">
        <ele>685.661149</ele>
        <time>2022-07-27T18:26:29.902Z</time>
      </trkpt>
      <trkpt lat="43.857054" lon="6.196479">
        <ele>682.465701</ele>
        <time>2022-07-27T18:26:38.338Z</time>
      </trkpt>
      <trkpt lat="43.857301" lon="6.197002">
        <ele>681.186794</ele>
        <time>2022-07-27T18:26:45.652Z</time>
      </trkpt>
      <trkpt lat="43.857477" lon="6.197261">
        <ele>680.458783</ele>
        <time>2022-07-27T18:26:50.055Z</time>
      </trkpt>
      <trkpt lat="43.857873" lon="6.197522">
        <ele>679.214948</ele>
        <time>2022-07-27T18:26:57.944Z</time>
      </trkpt>
      <trkpt lat="43.858080" lon="6.197911">
        <ele>678.225985</ele>
        <time>2022-07-27T18:27:04.663Z</time>
      </trkpt>
      <trkpt lat="43.858496" lon="6.198500">
        <ele>675.719671</ele>
        <time>2022-07-27T18:27:14.352Z</time>
      </trkpt>
      <trkpt lat="43.858493" lon="6.198669">
        <ele>675.036075</ele>
        <time>2022-07-27T18:27:16.079Z</time>
      </trkpt>
      <trkpt lat="43.858364" lon="6.198710">
        <ele>674.293879</ele>
        <time>2022-07-27T18:27:18.022Z</time>
      </trkpt>
      <trkpt lat="43.857752" lon="6.198023">
        <ele>669.878315</ele>
        <time>2022-07-27T18:27:29.631Z</time>
      </trkpt>
      <trkpt lat="43.857550" lon="6.197890">
        <ele>668.624297</ele>
        <time>2022-07-27T18:27:32.775Z</time>
      </trkpt>
      <trkpt lat="43.857120" lon="6.197746">
        <ele>666.083645</ele>
        <time>2022-07-27T18:27:39.121Z</time>
      </trkpt>
      <trkpt lat="43.856813" lon="6.197478">
        <ele>663.943195</ele>
        <time>2022-07-27T18:27:44.327Z</time>
      </trkpt>
      <trkpt lat="43.856648" lon="6.197250">
        <ele>662.568824</ele>
        <time>2022-07-27T18:27:47.640Z</time>
      </trkpt>
      <trkpt lat="43.856341" lon="6.196523">
        <ele>658.984264</ele>
        <time>2022-07-27T18:27:56.335Z</time>
      </trkpt>
      <trkpt lat="43.855736" lon="6.195911">
        <ele>655.997943</ele>
        <time>2022-07-27T18:28:08.796Z</time>
      </trkpt>
      <trkpt lat="43.855454" lon="6.195490">
        <ele>655.210143</ele>
        <time>2022-07-27T18:28:16.040Z</time>
      </trkpt>
      <trkpt lat="43.855354" lon="6.195445">
        <ele>655.010254</ele>
        <time>2022-07-27T18:28:17.885Z</time>
      </trkpt>
      <trkpt lat="43.855297" lon="6.195529">
        <ele>654.852114</ele>
        <time>2022-07-27T18:28:19.399Z</time>
      </trkpt>
      <trkpt lat="43.855309" lon="6.195655">
        <ele>654.677866</ele>
        <time>2022-07-27T18:28:21.092Z</time>
      </trkpt>
      <trkpt lat="43.855952" lon="6.196642">
        <ele>652.786941</ele>
        <time>2022-07-27T18:28:39.979Z</time>
      </trkpt>
      <trkpt lat="43.856147" lon="6.197024">
        <ele>652.038652</ele>
        <time>2022-07-27T18:28:46.131Z</time>
      </trkpt>
      <trkpt lat="43.856375" lon="6.197696">
        <ele>650.851275</ele>
        <time>2022-07-27T18:28:55.675Z</time>
      </trkpt>
      <trkpt lat="43.856500" lon="6.197930">
        <ele>650.385683</ele>
        <time>2022-07-27T18:28:59.442Z</time>
      </trkpt>
      <trkpt lat="43.856523" lon="6.198038">
        <ele>650.205641</ele>
        <time>2022-07-27T18:29:00.813Z</time>
      </trkpt>
      <trkpt lat="43.856488" lon="6.198150">
        <ele>650.010485</ele>
        <time>2022-07-27T18:29:02.095Z</time>
      </trkpt>
      <trkpt lat="43.856543" lon="6.198326">
        <ele>649.703810</ele>
        <time>2022-07-27T18:29:06.427Z</time>
      </trkpt>
      <trkpt lat="43.856488" lon="6.198150">
        <ele>649.397136</ele>
        <time>2022-07-27T18:29:10.465Z</time>
      </trkpt>
      <trkpt lat="43.856381" lon="6.198151">
        <ele>649.041811</ele>
        <time>2022-07-27T18:29:12.022Z</time>
      </trkpt>
      <trkpt lat="43.856102" lon="6.197595">
        <ele>646.809163</ele>
        <time>2022-07-27T18:29:19.791Z</time>
      </trkpt>
      <trkpt lat="43.855436" lon="6.197044">
        <ele>643.264354</ele>
        <time>2022-07-27T18:29:31.661Z</time>
      </trkpt>
      <trkpt lat="43.854695" lon="6.196479">
        <ele>639.203264</ele>
        <time>2022-07-27T18:29:44.288Z</time>
      </trkpt>
      <trkpt lat="43.854330" lon="6.196008">
        <ele>636.653921</ele>
        <time>2022-07-27T18:29:51.637Z</time>
      </trkpt>
      <trkpt lat="43.853469" lon="6.195416">
        <ele>631.764151</ele>
        <time>2022-07-27T18:30:06.242Z</time>
      </trkpt>
      <trkpt lat="43.853332" lon="6.195350">
        <ele>631.181433</ele>
        <time>2022-07-27T18:30:08.450Z</time>
      </trkpt>
      <trkpt lat="43.853129" lon="6.195361">
        <ele>630.365183</ele>
        <time>2022-07-27T18:30:11.694Z</time>
      </trkpt>
      <trkpt lat="43.852190" lon="6.195591">
        <ele>626.533999</ele>
        <time>2022-07-27T18:30:26.449Z</time>
      </trkpt>
      <trkpt lat="43.851942" lon="6.195614">
        <ele>625.535341</ele>
        <time>2022-07-27T18:30:30.399Z</time>
      </trkpt>
      <trkpt lat="43.851665" lon="6.195558">
        <ele>624.471073</ele>
        <time>2022-07-27T18:30:35.026Z</time>
      </trkpt>
      <trkpt lat="43.851287" lon="6.195572">
        <ele>623.378100</ele>
        <time>2022-07-27T18:30:41.360Z</time>
      </trkpt>
      <trkpt lat="43.850622" lon="6.195862">
        <ele>621.363154</ele>
        <time>2022-07-27T18:30:53.087Z</time>
      </trkpt>
      <trkpt lat="43.849990" lon="6.196260">
        <ele>619.330821</ele>
        <time>2022-07-27T18:31:04.545Z</time>
      </trkpt>
      <trkpt lat="43.849511" lon="6.196723">
        <ele>617.018750</ele>
        <time>2022-07-27T18:31:14.231Z</time>
      </trkpt>
      <trkpt lat="43.848660" lon="6.198220">
        <ele>611.266165</ele>
        <time>2022-07-27T18:31:35.510Z</time>
      </trkpt>
      <trkpt lat="43.848290" lon="6.199200">
        <ele>606.768455</ele>
        <time>2022-07-27T18:31:47.273Z</time>
      </trkpt>
      <trkpt lat="43.848086" lon="6.199579">
        <ele>604.845537</ele>
        <time>2022-07-27T18:31:52.271Z</time>
      </trkpt>
      <trkpt lat="43.846965" lon="6.201572">
        <ele>595.027078</ele>
        <time>2022-07-27T18:32:18.994Z</time>
      </trkpt>
      <trkpt lat="43.846228" lon="6.202798">
        <ele>590.343244</ele>
        <time>2022-07-27T18:32:37.403Z</time>
      </trkpt>
      <trkpt lat="43.846122" lon="6.203000">
        <ele>589.752962</ele>
        <time>2022-07-27T18:32:40.397Z</time>
      </trkpt>
      <trkpt lat="43.846105" lon="6.203147">
        <ele>589.401178</ele>
        <time>2022-07-27T18:32:42.178Z</time>
      </trkpt>
      <trkpt lat="43.846176" lon="6.203434">
        <ele>588.684238</ele>
        <time>2022-07-27T18:32:45.738Z</time>
      </trkpt>
      <trkpt lat="43.846193" lon="6.203591">
        <ele>588.309105</ele>
        <time>2022-07-27T18:32:47.679Z</time>
      </trkpt>
      <trkpt lat="43.846142" lon="6.203791">
        <ele>587.807855</ele>
        <time>2022-07-27T18:32:50.087Z</time>
      </trkpt>
      <trkpt lat="43.846020" lon="6.203976">
        <ele>587.215521</ele>
        <time>2022-07-27T18:32:53.198Z</time>
      </trkpt>
      <trkpt lat="43.845149" lon="6.204798">
        <ele>583.817086</ele>
        <time>2022-07-27T18:33:10.753Z</time>
      </trkpt>
      <trkpt lat="43.844567" lon="6.205598">
        <ele>581.180303</ele>
        <time>2022-07-27T18:33:23.841Z</time>
      </trkpt>
      <trkpt lat="43.844383" lon="6.205999">
        <ele>580.032062</ele>
        <time>2022-07-27T18:33:29.293Z</time>
      </trkpt>
      <trkpt lat="43.844111" lon="6.206875">
        <ele>577.704579</ele>
        <time>2022-07-27T18:33:40.260Z</time>
      </trkpt>
      <trkpt lat="43.843699" lon="6.207893">
        <ele>574.858697</ele>
        <time>2022-07-27T18:33:54.003Z</time>
      </trkpt>
      <trkpt lat="43.843401" lon="6.208829">
        <ele>572.888168</ele>
        <time>2022-07-27T18:34:06.226Z</time>
      </trkpt>
      <trkpt lat="43.843003" lon="6.210032">
        <ele>570.339089</ele>
        <time>2022-07-27T18:34:22.439Z</time>
      </trkpt>
      <trkpt lat="43.842566" lon="6.211632">
        <ele>567.923614</ele>
        <time>2022-07-27T18:34:43.475Z</time>
      </trkpt>
      <trkpt lat="43.842310" lon="6.212344">
        <ele>566.837309</ele>
        <time>2022-07-27T18:34:54.164Z</time>
      </trkpt>
      <trkpt lat="43.842160" lon="6.213060">
        <ele>566.697061</ele>
        <time>2022-07-27T18:35:05.229Z</time>
      </trkpt>
      <trkpt lat="43.842083" lon="6.213595">
        <ele>566.728761</ele>
        <time>2022-07-27T18:35:14.184Z</time>
      </trkpt>
      <trkpt lat="43.842098" lon="6.213675">
        <ele>566.733564</ele>
        <time>2022-07-27T18:35:15.755Z</time>
      </trkpt>
      <trkpt lat="43.842158" lon="6.213849">
        <ele>566.744771</ele>
        <time>2022-07-27T18:35:18.810Z</time>
      </trkpt>
      <trkpt lat="43.842239" lon="6.213970">
        <ele>566.754363</ele>
        <time>2022-07-27T18:35:21.337Z</time>
      </trkpt>
      <trkpt lat="43.842424" lon="6.214089">
        <ele>566.770794</ele>
        <time>2022-07-27T18:35:26.261Z</time>
      </trkpt>
      <trkpt lat="43.843010" lon="6.214412">
        <ele>566.968929</ele>
        <time>2022-07-27T18:35:42.054Z</time>
      </trkpt>
      <trkpt lat="43.843271" lon="6.214489">
        <ele>567.195271</ele>
        <time>2022-07-27T18:35:49.455Z</time>
      </trkpt>
      <trkpt lat="43.843711" lon="6.214655">
        <ele>567.582057</ele>
        <time>2022-07-27T18:36:01.842Z</time>
      </trkpt>
      <trkpt lat="43.843793" lon="6.214707">
        <ele>567.658541</ele>
        <time>2022-07-27T18:36:04.118Z</time>
      </trkpt>
      <trkpt lat="43.844194" lon="6.215202">
        <ele>568.113946</ele>
        <time>2022-07-27T18:36:17.399Z</time>
      </trkpt>
      <trkpt lat="43.844380" lon="6.215496">
        <ele>568.412966</ele>
        <time>2022-07-27T18:36:23.940Z</time>
      </trkpt>
      <trkpt lat="43.844466" lon="6.215701">
        <ele>568.963056</ele>
        <time>2022-07-27T18:36:27.940Z</time>
      </trkpt>
      <trkpt lat="43.844472" lon="6.215842">
        <ele>569.290675</ele>
        <time>2022-07-27T18:36:30.443Z</time>
      </trkpt>
      <trkpt lat="43.844532" lon="6.215893">
        <ele>569.517014</ele>
        <time>2022-07-27T18:36:32.191Z</time>
      </trkpt>
      <trkpt lat="43.844696" lon="6.216083">
        <ele>570.204336</ele>
        <time>2022-07-27T18:36:38.081Z</time>
      </trkpt>
      <trkpt lat="43.844850" lon="6.216478">
        <ele>571.245838</ele>
        <time>2022-07-27T18:36:48.741Z</time>
      </trkpt>
      <trkpt lat="43.844924" lon="6.216819">
        <ele>572.071814</ele>
        <time>2022-07-27T18:36:58.974Z</time>
      </trkpt>
      <trkpt lat="43.844963" lon="6.217239">
        <ele>573.054042</ele>
        <time>2022-07-27T18:37:11.866Z</time>
      </trkpt>
      <trkpt lat="43.844898" lon="6.217873">
        <ele>574.951217</ele>
        <time>2022-07-27T18:37:31.800Z</time>
      </trkpt>
      <trkpt lat="43.844735" lon="6.218395">
        <ele>577.555100</ele>
        <time>2022-07-27T18:37:50.973Z</time>
      </trkpt>
      <trkpt lat="43.844479" lon="6.218850">
        <ele>580.196761</ele>
        <time>2022-07-27T18:38:11.528Z</time>
      </trkpt>
      <trkpt lat="43.844180" lon="6.219182">
        <ele>582.628086</ele>
        <time>2022-07-27T18:38:30.826Z</time>
      </trkpt>
      <trkpt lat="43.843499" lon="6.219494">
        <ele>586.806544</ele>
        <time>2022-07-27T18:39:06.643Z</time>
      </trkpt>
      <trkpt lat="43.843385" lon="6.219529">
        <ele>587.379535</ele>
        <time>2022-07-27T18:39:11.766Z</time>
      </trkpt>
      <trkpt lat="43.842657" lon="6.219769">
        <ele>591.051694</ele>
        <time>2022-07-27T18:39:42.098Z</time>
      </trkpt>
      <trkpt lat="43.842262" lon="6.219974">
        <ele>593.121452</ele>
        <time>2022-07-27T18:39:58.939Z</time>
      </trkpt>
      <trkpt lat="43.841879" lon="6.220342">
        <ele>594.965920</ele>
        <time>2022-07-27T18:40:16.438Z</time>
      </trkpt>
      <trkpt lat="43.841428" lon="6.220984">
        <ele>596.800689</ele>
        <time>2022-07-27T18:40:40.283Z</time>
      </trkpt>
      <trkpt lat="43.841231" lon="6.221146">
        <ele>597.450835</ele>
        <time>2022-07-27T18:40:48.511Z</time>
      </trkpt>
      <trkpt lat="43.841155" lon="6.221235">
        <ele>597.733215</ele>
        <time>2022-07-27T18:40:52.517Z</time>
      </trkpt>
      <trkpt lat="43.841043" lon="6.221344">
        <ele>598.121632</ele>
        <time>2022-07-27T18:40:57.248Z</time>
      </trkpt>
      <trkpt lat="43.840959" lon="6.221436">
        <ele>598.425488</ele>
        <time>2022-07-27T18:41:00.945Z</time>
      </trkpt>
      <trkpt lat="43.840394" lon="6.221897">
        <ele>599.150808</ele>
        <time>2022-07-27T18:41:16.992Z</time>
      </trkpt>
      <trkpt lat="43.840125" lon="6.221954">
        <ele>598.855866</ele>
        <time>2022-07-27T18:41:22.447Z</time>
      </trkpt>
      <trkpt lat="43.839810" lon="6.221993">
        <ele>598.513093</ele>
        <time>2022-07-27T18:41:28.543Z</time>
      </trkpt>
      <trkpt lat="43.839675" lon="6.221959">
        <ele>598.364378</ele>
        <time>2022-07-27T18:41:31.286Z</time>
      </trkpt>
      <trkpt lat="43.839510" lon="6.221873">
        <ele>598.173322</ele>
        <time>2022-07-27T18:41:34.580Z</time>
      </trkpt>
      <trkpt lat="43.839362" lon="6.221710">
        <ele>597.968458</ele>
        <time>2022-07-27T18:41:38.296Z</time>
      </trkpt>
      <trkpt lat="43.839016" lon="6.221269">
        <ele>597.135627</ele>
        <time>2022-07-27T18:41:46.406Z</time>
      </trkpt>
      <trkpt lat="43.838794" lon="6.221227">
        <ele>595.492040</ele>
        <time>2022-07-27T18:41:50.278Z</time>
      </trkpt>
      <trkpt lat="43.838654" lon="6.221287">
        <ele>594.417113</ele>
        <time>2022-07-27T18:41:52.416Z</time>
      </trkpt>
      <trkpt lat="43.838374" lon="6.221742">
        <ele>591.252534</ele>
        <time>2022-07-27T18:41:58.655Z</time>
      </trkpt>
      <trkpt lat="43.838227" lon="6.221790">
        <ele>590.144701</ele>
        <time>2022-07-27T18:42:00.758Z</time>
      </trkpt>
      <trkpt lat="43.838113" lon="6.221717">
        <ele>589.223555</ele>
        <time>2022-07-27T18:42:02.446Z</time>
      </trkpt>
      <trkpt lat="43.837931" lon="6.221366">
        <ele>586.936290</ele>
        <time>2022-07-27T18:42:06.744Z</time>
      </trkpt>
      <trkpt lat="43.837464" lon="6.221037">
        <ele>582.285779</ele>
        <time>2022-07-27T18:42:13.903Z</time>
      </trkpt>
      <trkpt lat="43.837427" lon="6.221019">
        <ele>581.808814</ele>
        <time>2022-07-27T18:42:14.422Z</time>
      </trkpt>
      <trkpt lat="43.836346" lon="6.220676">
        <ele>568.319760</ele>
        <time>2022-07-27T18:42:29.048Z</time>
      </trkpt>
      <trkpt lat="43.835876" lon="6.220874">
        <ele>562.380732</ele>
        <time>2022-07-27T18:42:35.500Z</time>
      </trkpt>
      <trkpt lat="43.835479" lon="6.220912">
        <ele>559.320711</ele>
        <time>2022-07-27T18:42:40.813Z</time>
      </trkpt>
      <trkpt lat="43.835344" lon="6.221011">
        <ele>558.146330</ele>
        <time>2022-07-27T18:42:42.888Z</time>
      </trkpt>
      <trkpt lat="43.835124" lon="6.221319">
        <ele>555.742069</ele>
        <time>2022-07-27T18:42:47.215Z</time>
      </trkpt>
      <trkpt lat="43.835038" lon="6.221671">
        <ele>553.680658</ele>
        <time>2022-07-27T18:42:51.105Z</time>
      </trkpt>
      <trkpt lat="43.834942" lon="6.221841">
        <ele>552.483124</ele>
        <time>2022-07-27T18:42:53.472Z</time>
      </trkpt>
      <trkpt lat="43.834504" lon="6.221985">
        <ele>549.021682</ele>
        <time>2022-07-27T18:43:00.545Z</time>
      </trkpt>
      <trkpt lat="43.834153" lon="6.222330">
        <ele>547.074800</ele>
        <time>2022-07-27T18:43:07.617Z</time>
      </trkpt>
      <trkpt lat="43.834089" lon="6.222285">
        <ele>546.782194</ele>
        <time>2022-07-27T18:43:08.600Z</time>
      </trkpt>
      <trkpt lat="43.834001" lon="6.222222">
        <ele>546.378353</ele>
        <time>2022-07-27T18:43:10.048Z</time>
      </trkpt>
      <trkpt lat="43.834015" lon="6.221972">
        <ele>545.640817</ele>
        <time>2022-07-27T18:43:13.368Z</time>
      </trkpt>
      <trkpt lat="43.834646" lon="6.221090">
        <ele>541.987095</ele>
        <time>2022-07-27T18:43:27.228Z</time>
      </trkpt>
      <trkpt lat="43.834623" lon="6.220862">
        <ele>541.309961</ele>
        <time>2022-07-27T18:43:30.452Z</time>
      </trkpt>
      <trkpt lat="43.834481" lon="6.220775">
        <ele>540.794348</ele>
        <time>2022-07-27T18:43:32.634Z</time>
      </trkpt>
      <trkpt lat="43.833484" lon="6.221378">
        <ele>537.225402</ele>
        <time>2022-07-27T18:43:49.644Z</time>
      </trkpt>
      <trkpt lat="43.832871" lon="6.222163">
        <ele>535.507388</ele>
        <time>2022-07-27T18:44:04.244Z</time>
      </trkpt>
      <trkpt lat="43.831431" lon="6.224455">
        <ele>535.605516</ele>
        <time>2022-07-27T18:45:03.663Z</time>
      </trkpt>
      <trkpt lat="43.831167" lon="6.224744">
        <ele>535.282428</ele>
        <time>2022-07-27T18:45:10.042Z</time>
      </trkpt>
      <trkpt lat="43.830794" lon="6.224939">
        <ele>534.899549</ele>
        <time>2022-07-27T18:45:16.971Z</time>
      </trkpt>
      <trkpt lat="43.830418" lon="6.224998">
        <ele>534.536113</ele>
        <time>2022-07-27T18:45:23.287Z</time>
      </trkpt>
      <trkpt lat="43.829857" lon="6.224928">
        <ele>534.103680</ele>
        <time>2022-07-27T18:45:32.346Z</time>
      </trkpt>
      <trkpt lat="43.829545" lon="6.224881">
        <ele>533.864995</ele>
        <time>2022-07-27T18:45:37.447Z</time>
      </trkpt>
      <trkpt lat="43.829273" lon="6.224845">
        <ele>533.657188</ele>
        <time>2022-07-27T18:45:42.350Z</time>
      </trkpt>
      <trkpt lat="43.828453" lon="6.224667">
        <ele>534.353694</ele>
        <time>2022-07-27T18:46:05.742Z</time>
      </trkpt>
      <trkpt lat="43.828126" lon="6.224591">
        <ele>536.828306</ele>
        <time>2022-07-27T18:46:21.369Z</time>
      </trkpt>
      <trkpt lat="43.828016" lon="6.224539">
        <ele>537.695713</ele>
        <time>2022-07-27T18:46:27.492Z</time>
      </trkpt>
      <trkpt lat="43.827952" lon="6.224597">
        <ele>538.266400</ele>
        <time>2022-07-27T18:46:31.917Z</time>
      </trkpt>
      <trkpt lat="43.827936" lon="6.224734">
        <ele>539.013651</ele>
        <time>2022-07-27T18:46:38.073Z</time>
      </trkpt>
      <trkpt lat="43.827988" lon="6.224823">
        <ele>539.630299</ele>
        <time>2022-07-27T18:46:42.516Z</time>
      </trkpt>
      <trkpt lat="43.828095" lon="6.225004">
        <ele>540.890260</ele>
        <time>2022-07-27T18:46:52.129Z</time>
      </trkpt>
      <trkpt lat="43.828192" lon="6.225295">
        <ele>542.616251</ele>
        <time>2022-07-27T18:47:05.908Z</time>
      </trkpt>
      <trkpt lat="43.828238" lon="6.225391">
        <ele>543.236768</ele>
        <time>2022-07-27T18:47:10.737Z</time>
      </trkpt>
      <trkpt lat="43.828250" lon="6.225418">
        <ele>543.407517</ele>
        <time>2022-07-27T18:47:12.127Z</time>
      </trkpt>
      <trkpt lat="43.828740" lon="6.226309">
        <ele>549.163355</ele>
        <time>2022-07-27T18:48:02.631Z</time>
      </trkpt>
      <trkpt lat="43.828862" lon="6.226746">
        <ele>551.442995</ele>
        <time>2022-07-27T18:48:21.822Z</time>
      </trkpt>
      <trkpt lat="43.829267" lon="6.227683">
        <ele>556.757041</ele>
        <time>2022-07-27T18:48:58.086Z</time>
      </trkpt>
      <trkpt lat="43.829284" lon="6.227944">
        <ele>558.031957</ele>
        <time>2022-07-27T18:49:06.399Z</time>
      </trkpt>
      <trkpt lat="43.829214" lon="6.228002">
        <ele>558.581919</ele>
        <time>2022-07-27T18:49:07.607Z</time>
      </trkpt>
      <trkpt lat="43.829130" lon="6.227983">
        <ele>558.923771</ele>
        <time>2022-07-27T18:49:11.080Z</time>
      </trkpt>
      <trkpt lat="43.828929" lon="6.227440">
        <ele>560.373523</ele>
        <time>2022-07-27T18:49:27.745Z</time>
      </trkpt>
      <trkpt lat="43.828561" lon="6.226735">
        <ele>562.440621</ele>
        <time>2022-07-27T18:49:45.899Z</time>
      </trkpt>
      <trkpt lat="43.828465" lon="6.226603">
        <ele>562.885865</ele>
        <time>2022-07-27T18:49:54.525Z</time>
      </trkpt>
      <trkpt lat="43.828330" lon="6.226549">
        <ele>563.348527</ele>
        <time>2022-07-27T18:49:56.912Z</time>
      </trkpt>
      <trkpt lat="43.828061" lon="6.226636">
        <ele>564.258072</ele>
        <time>2022-07-27T18:50:08.074Z</time>
      </trkpt>
      <trkpt lat="43.827371" lon="6.227260">
        <ele>568.769753</ele>
        <time>2022-07-27T18:50:39.164Z</time>
      </trkpt>
      <trkpt lat="43.827323" lon="6.227378">
        <ele>569.338296</ele>
        <time>2022-07-27T18:50:44.302Z</time>
      </trkpt>
      <trkpt lat="43.827387" lon="6.227525">
        <ele>570.058892</ele>
        <time>2022-07-27T18:50:52.901Z</time>
      </trkpt>
      <trkpt lat="43.828094" lon="6.227648">
        <ele>574.204182</ele>
        <time>2022-07-27T18:51:27.722Z</time>
      </trkpt>
      <trkpt lat="43.828136" lon="6.227808">
        <ele>574.918760</ele>
        <time>2022-07-27T18:51:32.539Z</time>
      </trkpt>
      <trkpt lat="43.828074" lon="6.227927">
        <ele>575.639960</ele>
        <time>2022-07-27T18:51:36.917Z</time>
      </trkpt>
      <trkpt lat="43.827579" lon="6.228133">
        <ele>579.355002</ele>
        <time>2022-07-27T18:52:03.374Z</time>
      </trkpt>
      <trkpt lat="43.826642" lon="6.228922">
        <ele>587.235698</ele>
        <time>2022-07-27T18:52:58.046Z</time>
      </trkpt>
      <trkpt lat="43.825642" lon="6.229392">
        <ele>598.209329</ele>
        <time>2022-07-27T18:54:00.883Z</time>
      </trkpt>
      <trkpt lat="43.825538" lon="6.229611">
        <ele>600.244701</ele>
        <time>2022-07-27T18:54:13.493Z</time>
      </trkpt>
      <trkpt lat="43.825444" lon="6.230654">
        <ele>608.516793</ele>
        <time>2022-07-27T18:55:10.925Z</time>
      </trkpt>
      <trkpt lat="43.825410" lon="6.230730">
        <ele>609.286448</ele>
        <time>2022-07-27T18:55:16.402Z</time>
      </trkpt>
      <trkpt lat="43.824337" lon="6.232133">
        <ele>626.883670</ele>
        <time>2022-07-27T18:57:06.329Z</time>
      </trkpt>
      <trkpt lat="43.823971" lon="6.232406">
        <ele>629.666534</ele>
        <time>2022-07-27T18:57:27.877Z</time>
      </trkpt>
      <trkpt lat="43.823577" lon="6.232548">
        <ele>631.016949</ele>
        <time>2022-07-27T18:57:45.022Z</time>
      </trkpt>
      <trkpt lat="43.823324" lon="6.232466">
        <ele>631.878826</ele>
        <time>2022-07-27T18:57:52.547Z</time>
      </trkpt>
      <trkpt lat="43.822904" lon="6.232135">
        <ele>633.481491</ele>
        <time>2022-07-27T18:58:07.072Z</time>
      </trkpt>
      <trkpt lat="43.822764" lon="6.232088">
        <ele>633.959320</ele>
        <time>2022-07-27T18:58:09.845Z</time>
      </trkpt>
      <trkpt lat="43.822254" lon="6.232143">
        <ele>634.954236</ele>
        <time>2022-07-27T18:58:20.367Z</time>
      </trkpt>
      <trkpt lat="43.821961" lon="6.232255">
        <ele>635.140656</ele>
        <time>2022-07-27T18:58:25.692Z</time>
      </trkpt>
      <trkpt lat="43.821587" lon="6.232458">
        <ele>635.387011</ele>
        <time>2022-07-27T18:58:36.569Z</time>
      </trkpt>
      <trkpt lat="43.821301" lon="6.232701">
        <ele>635.592766</ele>
        <time>2022-07-27T18:58:45.954Z</time>
      </trkpt>
      <trkpt lat="43.820780" lon="6.233467">
        <ele>636.270768</ele>
        <time>2022-07-27T18:59:07.071Z</time>
      </trkpt>
      <trkpt lat="43.820281" lon="6.233710">
        <ele>637.024157</ele>
        <time>2022-07-27T18:59:21.443Z</time>
      </trkpt>
      <trkpt lat="43.819985" lon="6.234345">
        <ele>637.801130</ele>
        <time>2022-07-27T18:59:36.560Z</time>
      </trkpt>
      <trkpt lat="43.819854" lon="6.234425">
        <ele>638.005041</ele>
        <time>2022-07-27T18:59:40.376Z</time>
      </trkpt>
      <trkpt lat="43.819532" lon="6.234415">
        <ele>638.466748</ele>
        <time>2022-07-27T18:59:49.467Z</time>
      </trkpt>
      <trkpt lat="43.819338" lon="6.234551">
        <ele>639.029085</ele>
        <time>2022-07-27T18:59:55.766Z</time>
      </trkpt>
      <trkpt lat="43.819131" lon="6.235047">
        <ele>640.098462</ele>
        <time>2022-07-27T19:00:08.733Z</time>
      </trkpt>
      <trkpt lat="43.819111" lon="6.236040">
        <ele>641.952418</ele>
        <time>2022-07-27T19:00:33.381Z</time>
      </trkpt>
      <trkpt lat="43.818940" lon="6.236773">
        <ele>643.364413</ele>
        <time>2022-07-27T19:00:53.581Z</time>
      </trkpt>
      <trkpt lat="43.818984" lon="6.237561">
        <ele>644.702717</ele>
        <time>2022-07-27T19:01:10.207Z</time>
      </trkpt>
      <trkpt lat="43.818647" lon="6.238351">
        <ele>646.256723</ele>
        <time>2022-07-27T19:01:27.779Z</time>
      </trkpt>
      <trkpt lat="43.818287" lon="6.239209">
        <ele>649.494821</ele>
        <time>2022-07-27T19:01:51.928Z</time>
      </trkpt>
      <trkpt lat="43.818171" lon="6.239765">
        <ele>653.003171</ele>
        <time>2022-07-27T19:02:11.865Z</time>
      </trkpt>
      <trkpt lat="43.818137" lon="6.240293">
        <ele>656.216456</ele>
        <time>2022-07-27T19:02:34.411Z</time>
      </trkpt>
      <trkpt lat="43.817995" lon="6.240913">
        <ele>660.159489</ele>
        <time>2022-07-27T19:03:04.390Z</time>
      </trkpt>
      <trkpt lat="43.817982" lon="6.241257">
        <ele>662.247569</ele>
        <time>2022-07-27T19:03:21.744Z</time>
      </trkpt>
      <trkpt lat="43.818072" lon="6.241934">
        <ele>666.291894</ele>
        <time>2022-07-27T19:04:01.049Z</time>
      </trkpt>
      <trkpt lat="43.818061" lon="6.242165">
        <ele>667.649837</ele>
        <time>2022-07-27T19:04:15.889Z</time>
      </trkpt>
      <trkpt lat="43.817703" lon="6.243571">
        <ele>676.395598</ele>
        <time>2022-07-27T19:05:10.052Z</time>
      </trkpt>
      <trkpt lat="43.817577" lon="6.243576">
        <ele>676.916464</ele>
        <time>2022-07-27T19:05:12.129Z</time>
      </trkpt>
      <trkpt lat="43.817402" lon="6.243488">
        <ele>676.276841</ele>
        <time>2022-07-27T19:05:18.771Z</time>
      </trkpt>
      <trkpt lat="43.816807" lon="6.242610">
        <ele>673.290688</ele>
        <time>2022-07-27T19:05:32.088Z</time>
      </trkpt>
      <trkpt lat="43.816666" lon="6.242529">
        <ele>672.766268</ele>
        <time>2022-07-27T19:05:34.525Z</time>
      </trkpt>
      <trkpt lat="43.816402" lon="6.242490">
        <ele>671.854074</ele>
        <time>2022-07-27T19:05:38.272Z</time>
      </trkpt>
      <trkpt lat="43.815593" lon="6.242761">
        <ele>670.159832</ele>
        <time>2022-07-27T19:05:50.364Z</time>
      </trkpt>
      <trkpt lat="43.815418" lon="6.242882">
        <ele>669.901795</ele>
        <time>2022-07-27T19:05:53.716Z</time>
      </trkpt>
      <trkpt lat="43.815156" lon="6.243125">
        <ele>669.485839</ele>
        <time>2022-07-27T19:06:01.439Z</time>
      </trkpt>
      <trkpt lat="43.815021" lon="6.243331">
        <ele>669.220904</ele>
        <time>2022-07-27T19:06:07.538Z</time>
      </trkpt>
      <trkpt lat="43.814881" lon="6.243888">
        <ele>668.659359</ele>
        <time>2022-07-27T19:06:21.548Z</time>
      </trkpt>
      <trkpt lat="43.814709" lon="6.244854">
        <ele>668.549268</ele>
        <time>2022-07-27T19:06:42.473Z</time>
      </trkpt>
      <trkpt lat="43.814767" lon="6.245376">
        <ele>668.571900</ele>
        <time>2022-07-27T19:06:51.390Z</time>
      </trkpt>
      <trkpt lat="43.814810" lon="6.245582">
        <ele>668.581090</ele>
        <time>2022-07-27T19:06:55.371Z</time>
      </trkpt>
      <trkpt lat="43.814855" lon="6.245725">
        <ele>668.587775</ele>
        <time>2022-07-27T19:06:57.617Z</time>
      </trkpt>
      <trkpt lat="43.814906" lon="6.245850">
        <ele>668.593928</ele>
        <time>2022-07-27T19:06:59.520Z</time>
      </trkpt>
      <trkpt lat="43.814968" lon="6.245958">
        <ele>668.599842</ele>
        <time>2022-07-27T19:07:01.839Z</time>
      </trkpt>
      <trkpt lat="43.815222" lon="6.246461">
        <ele>668.031699</ele>
        <time>2022-07-27T19:07:09.851Z</time>
      </trkpt>
      <trkpt lat="43.815207" lon="6.246740">
        <ele>666.880443</ele>
        <time>2022-07-27T19:07:12.976Z</time>
      </trkpt>
      <trkpt lat="43.815040" lon="6.247342">
        <ele>664.226474</ele>
        <time>2022-07-27T19:07:20.264Z</time>
      </trkpt>
      <trkpt lat="43.815139" lon="6.247798">
        <ele>662.266955</ele>
        <time>2022-07-27T19:07:25.195Z</time>
      </trkpt>
      <trkpt lat="43.815131" lon="6.247959">
        <ele>661.602877</ele>
        <time>2022-07-27T19:07:26.860Z</time>
      </trkpt>
      <trkpt lat="43.815055" lon="6.248085">
        <ele>660.927103</ele>
        <time>2022-07-27T19:07:28.486Z</time>
      </trkpt>
      <trkpt lat="43.814632" lon="6.248380">
        <ele>658.157978</ele>
        <time>2022-07-27T19:07:35.148Z</time>
      </trkpt>
      <trkpt lat="43.814318" lon="6.248838">
        <ele>654.248129</ele>
        <time>2022-07-27T19:07:41.523Z</time>
      </trkpt>
      <trkpt lat="43.814199" lon="6.249331">
        <ele>651.030854</ele>
        <time>2022-07-27T19:07:46.704Z</time>
      </trkpt>
      <trkpt lat="43.814291" lon="6.249760">
        <ele>648.261073</ele>
        <time>2022-07-27T19:07:51.134Z</time>
      </trkpt>
      <trkpt lat="43.814254" lon="6.249987">
        <ele>646.820813</ele>
        <time>2022-07-27T19:07:53.391Z</time>
      </trkpt>
      <trkpt lat="43.814027" lon="6.250183">
        <ele>644.526941</ele>
        <time>2022-07-27T19:07:57.021Z</time>
      </trkpt>
      <trkpt lat="43.813388" lon="6.250491">
        <ele>643.653248</ele>
        <time>2022-07-27T19:08:06.689Z</time>
      </trkpt>
      <trkpt lat="43.813188" lon="6.250448">
        <ele>643.948658</ele>
        <time>2022-07-27T19:08:10.056Z</time>
      </trkpt>
      <trkpt lat="43.812973" lon="6.250282">
        <ele>644.307888</ele>
        <time>2022-07-27T19:08:14.926Z</time>
      </trkpt>
      <trkpt lat="43.812868" lon="6.250305">
        <ele>644.463048</ele>
        <time>2022-07-27T19:08:17.236Z</time>
      </trkpt>
      <trkpt lat="43.812819" lon="6.250403">
        <ele>644.588623</ele>
        <time>2022-07-27T19:08:19.989Z</time>
      </trkpt>
      <trkpt lat="43.812759" lon="6.250836">
        <ele>645.053012</ele>
        <time>2022-07-27T19:08:33.043Z</time>
      </trkpt>
      <trkpt lat="43.812906" lon="6.252505">
        <ele>660.418174</ele>
        <time>2022-07-27T19:10:09.915Z</time>
      </trkpt>
      <trkpt lat="43.812919" lon="6.253155">
        <ele>668.479276</ele>
        <time>2022-07-27T19:10:55.060Z</time>
      </trkpt>
      <trkpt lat="43.812811" lon="6.253443">
        <ele>672.502921</ele>
        <time>2022-07-27T19:11:21.845Z</time>
      </trkpt>
      <trkpt lat="43.812428" lon="6.253845">
        <ele>680.139914</ele>
        <time>2022-07-27T19:12:13.196Z</time>
      </trkpt>
      <trkpt lat="43.812333" lon="6.254033">
        <ele>682.576389</ele>
        <time>2022-07-27T19:12:30.118Z</time>
      </trkpt>
      <trkpt lat="43.812208" lon="6.254477">
        <ele>687.635876</ele>
        <time>2022-07-27T19:13:01.850Z</time>
      </trkpt>
      <trkpt lat="43.812283" lon="6.254925">
        <ele>692.518117</ele>
        <time>2022-07-27T19:13:27.867Z</time>
      </trkpt>
      <trkpt lat="43.812250" lon="6.255109">
        <ele>694.530871</ele>
        <time>2022-07-27T19:13:43.422Z</time>
      </trkpt>
      <trkpt lat="43.811965" lon="6.255222">
        <ele>698.891854</ele>
        <time>2022-07-27T19:13:58.820Z</time>
      </trkpt>
      <trkpt lat="43.811709" lon="6.255206">
        <ele>702.661798</ele>
        <time>2022-07-27T19:14:09.849Z</time>
      </trkpt>
      <trkpt lat="43.811458" lon="6.255223">
        <ele>703.526463</ele>
        <time>2022-07-27T19:14:24.548Z</time>
      </trkpt>
      <trkpt lat="43.810877" lon="6.255128">
        <ele>705.039397</ele>
        <time>2022-07-27T19:14:49.415Z</time>
      </trkpt>
      <trkpt lat="43.810772" lon="6.255204">
        <ele>705.345745</ele>
        <time>2022-07-27T19:14:54.105Z</time>
      </trkpt>
      <trkpt lat="43.810583" lon="6.255566">
        <ele>706.179579</ele>
        <time>2022-07-27T19:14:59.669Z</time>
      </trkpt>
      <trkpt lat="43.810363" lon="6.255587">
        <ele>706.749864</ele>
        <time>2022-07-27T19:15:03.237Z</time>
      </trkpt>
      <trkpt lat="43.810111" lon="6.255420">
        <ele>707.472243</ele>
        <time>2022-07-27T19:15:08.371Z</time>
      </trkpt>
      <trkpt lat="43.809866" lon="6.254937">
        <ele>708.993568</ele>
        <time>2022-07-27T19:15:18.576Z</time>
      </trkpt>
      <trkpt lat="43.809745" lon="6.254793">
        <ele>709.579058</ele>
        <time>2022-07-27T19:15:23.194Z</time>
      </trkpt>
      <trkpt lat="43.809287" lon="6.254504">
        <ele>711.426397</ele>
        <time>2022-07-27T19:15:38.832Z</time>
      </trkpt>
      <trkpt lat="43.808912" lon="6.254430">
        <ele>712.816844</ele>
        <time>2022-07-27T19:15:55.879Z</time>
      </trkpt>
      <trkpt lat="43.808599" lon="6.254777">
        <ele>714.406067</ele>
        <time>2022-07-27T19:16:17.735Z</time>
      </trkpt>
      <trkpt lat="43.808480" lon="6.254827">
        <ele>715.342842</ele>
        <time>2022-07-27T19:16:24.993Z</time>
      </trkpt>
      <trkpt lat="43.807847" lon="6.254797">
        <ele>720.114251</ele>
        <time>2022-07-27T19:17:04.473Z</time>
      </trkpt>
      <trkpt lat="43.807560" lon="6.254731">
        <ele>722.305899</ele>
        <time>2022-07-27T19:17:22.258Z</time>
      </trkpt>
      <trkpt lat="43.806748" lon="6.254386">
        <ele>727.425608</ele>
        <time>2022-07-27T19:18:01.961Z</time>
      </trkpt>
      <trkpt lat="43.806322" lon="6.254567">
        <ele>726.393950</ele>
        <time>2022-07-27T19:18:15.639Z</time>
      </trkpt>
      <trkpt lat="43.806025" lon="6.254356">
        <ele>725.621182</ele>
        <time>2022-07-27T19:18:21.872Z</time>
      </trkpt>
      <trkpt lat="43.805819" lon="6.254079">
        <ele>724.956560</ele>
        <time>2022-07-27T19:18:26.235Z</time>
      </trkpt>
      <trkpt lat="43.805432" lon="6.253969">
        <ele>724.041869</ele>
        <time>2022-07-27T19:18:31.917Z</time>
      </trkpt>
      <trkpt lat="43.804583" lon="6.253945">
        <ele>714.654050</ele>
        <time>2022-07-27T19:18:43.707Z</time>
      </trkpt>
      <trkpt lat="43.804292" lon="6.254060">
        <ele>710.454117</ele>
        <time>2022-07-27T19:18:47.582Z</time>
      </trkpt>
      <trkpt lat="43.803882" lon="6.253950">
        <ele>704.657913</ele>
        <time>2022-07-27T19:18:52.893Z</time>
      </trkpt>
      <trkpt lat="43.803458" lon="6.254367">
        <ele>697.432516</ele>
        <time>2022-07-27T19:18:59.606Z</time>
      </trkpt>
      <trkpt lat="43.803247" lon="6.254430">
        <ele>694.413891</ele>
        <time>2022-07-27T19:19:02.429Z</time>
      </trkpt>
      <trkpt lat="43.803094" lon="6.254393">
        <ele>692.241801</ele>
        <time>2022-07-27T19:19:04.445Z</time>
      </trkpt>
      <trkpt lat="43.802758" lon="6.254278">
        <ele>687.401514</ele>
        <time>2022-07-27T19:19:08.998Z</time>
      </trkpt>
      <trkpt lat="43.802583" lon="6.254314">
        <ele>684.927266</ele>
        <time>2022-07-27T19:19:11.293Z</time>
      </trkpt>
      <trkpt lat="43.802435" lon="6.254466">
        <ele>682.350837</ele>
        <time>2022-07-27T19:19:13.758Z</time>
      </trkpt>
      <trkpt lat="43.802300" lon="6.254977">
        <ele>676.858315</ele>
        <time>2022-07-27T19:19:18.882Z</time>
      </trkpt>
      <trkpt lat="43.802152" lon="6.255338">
        <ele>673.317418</ele>
        <time>2022-07-27T19:19:22.785Z</time>
      </trkpt>
      <trkpt lat="43.802006" lon="6.255477">
        <ele>672.915246</ele>
        <time>2022-07-27T19:19:25.048Z</time>
      </trkpt>
      <trkpt lat="43.801623" lon="6.255677">
        <ele>671.986016</ele>
        <time>2022-07-27T19:19:30.806Z</time>
      </trkpt>
      <trkpt lat="43.800605" lon="6.256999">
        <ele>671.666948</ele>
        <time>2022-07-27T19:20:15.572Z</time>
      </trkpt>
      <trkpt lat="43.800252" lon="6.257327">
        <ele>675.778170</ele>
        <time>2022-07-27T19:20:40.905Z</time>
      </trkpt>
      <trkpt lat="43.800266" lon="6.257526">
        <ele>677.174043</ele>
        <time>2022-07-27T19:20:53.792Z</time>
      </trkpt>
      <trkpt lat="43.800362" lon="6.257759">
        <ele>679.047080</ele>
        <time>2022-07-27T19:21:05.292Z</time>
      </trkpt>
      <trkpt lat="43.800475" lon="6.257923">
        <ele>680.629980</ele>
        <time>2022-07-27T19:21:19.911Z</time>
      </trkpt>
      <trkpt lat="43.800669" lon="6.258015">
        <ele>682.613362</ele>
        <time>2022-07-27T19:21:32.418Z</time>
      </trkpt>
      <trkpt lat="43.800825" lon="6.258483">
        <ele>686.212225</ele>
        <time>2022-07-27T19:22:00.240Z</time>
      </trkpt>
      <trkpt lat="43.800727" lon="6.259408">
        <ele>687.049856</ele>
        <time>2022-07-27T19:22:43.104Z</time>
      </trkpt>
      <trkpt lat="43.800664" lon="6.259564">
        <ele>687.110822</ele>
        <time>2022-07-27T19:22:48.671Z</time>
      </trkpt>
      <trkpt lat="43.800509" lon="6.259665">
        <ele>687.191760</ele>
        <time>2022-07-27T19:22:52.754Z</time>
      </trkpt>
      <trkpt lat="43.800097" lon="6.259631">
        <ele>687.386788</ele>
        <time>2022-07-27T19:22:58.986Z</time>
      </trkpt>
      <trkpt lat="43.799868" lon="6.259674">
        <ele>687.495987</ele>
        <time>2022-07-27T19:23:02.200Z</time>
      </trkpt>
      <trkpt lat="43.799315" lon="6.259475">
        <ele>685.268162</ele>
        <time>2022-07-27T19:23:09.925Z</time>
      </trkpt>
      <trkpt lat="43.798397" lon="6.259801">
        <ele>678.654640</ele>
        <time>2022-07-27T19:23:22.832Z</time>
      </trkpt>
      <trkpt lat="43.798184" lon="6.260033">
        <ele>676.763824</ele>
        <time>2022-07-27T19:23:26.723Z</time>
      </trkpt>
      <trkpt lat="43.797824" lon="6.260739">
        <ele>680.615268</ele>
        <time>2022-07-27T19:23:39.142Z</time>
      </trkpt>
      <trkpt lat="43.797820" lon="6.260911">
        <ele>682.436887</ele>
        <time>2022-07-27T19:23:45.386Z</time>
      </trkpt>
      <trkpt lat="43.798114" lon="6.261503">
        <ele>690.043409</ele>
        <time>2022-07-27T19:24:38.112Z</time>
      </trkpt>
      <trkpt lat="43.798106" lon="6.261678">
        <ele>691.899542</ele>
        <time>2022-07-27T19:24:52.531Z</time>
      </trkpt>
      <trkpt lat="43.797747" lon="6.261983">
        <ele>698.075497</ele>
        <time>2022-07-27T19:25:40.475Z</time>
      </trkpt>
      <trkpt lat="43.797427" lon="6.262385">
        <ele>704.060867</ele>
        <time>2022-07-27T19:26:28.116Z</time>
      </trkpt>
      <trkpt lat="43.796947" lon="6.262712">
        <ele>710.984212</ele>
        <time>2022-07-27T19:27:20.221Z</time>
      </trkpt>
      <trkpt lat="43.796803" lon="6.262881">
        <ele>713.426930</ele>
        <time>2022-07-27T19:27:34.896Z</time>
      </trkpt>
      <trkpt lat="43.795792" lon="6.263272">
        <ele>726.107339</ele>
        <time>2022-07-27T19:28:31.809Z</time>
      </trkpt>
      <trkpt lat="43.795449" lon="6.263185">
        <ele>728.842660</ele>
        <time>2022-07-27T19:28:37.104Z</time>
      </trkpt>
      <trkpt lat="43.795358" lon="6.263111">
        <ele>729.670378</ele>
        <time>2022-07-27T19:28:42.874Z</time>
      </trkpt>
      <trkpt lat="43.795120" lon="6.262722">
        <ele>732.557738</ele>
        <time>2022-07-27T19:28:56.133Z</time>
      </trkpt>
      <trkpt lat="43.794961" lon="6.262594">
        <ele>734.000269</ele>
        <time>2022-07-27T19:29:01.701Z</time>
      </trkpt>
      <trkpt lat="43.794750" lon="6.262495">
        <ele>735.747766</ele>
        <time>2022-07-27T19:29:25.776Z</time>
      </trkpt>
      <trkpt lat="43.794609" lon="6.262563">
        <ele>736.918915</ele>
        <time>2022-07-27T19:29:28.771Z</time>
      </trkpt>
      <trkpt lat="43.794444" lon="6.263099">
        <ele>742.069523</ele>
        <time>2022-07-27T19:30:08.596Z</time>
      </trkpt>
      <trkpt lat="43.794044" lon="6.263731">
        <ele>753.143498</ele>
        <time>2022-07-27T19:31:11.323Z</time>
      </trkpt>
      <trkpt lat="43.793897" lon="6.264107">
        <ele>758.777205</ele>
        <time>2022-07-27T19:31:45.814Z</time>
      </trkpt>
      <trkpt lat="43.793838" lon="6.264495">
        <ele>764.001284</ele>
        <time>2022-07-27T19:32:15.771Z</time>
      </trkpt>
      <trkpt lat="43.793773" lon="6.264628">
        <ele>766.117403</ele>
        <time>2022-07-27T19:32:29.105Z</time>
      </trkpt>
      <trkpt lat="43.793594" lon="6.264814">
        <ele>770.201427</ele>
        <time>2022-07-27T19:32:53.617Z</time>
      </trkpt>
      <trkpt lat="43.793130" lon="6.265090">
        <ele>770.935727</ele>
        <time>2022-07-27T19:33:28.590Z</time>
      </trkpt>
      <trkpt lat="43.792896" lon="6.265092">
        <ele>770.541783</ele>
        <time>2022-07-27T19:33:32.815Z</time>
      </trkpt>
      <trkpt lat="43.792640" lon="6.265197">
        <ele>770.092318</ele>
        <time>2022-07-27T19:33:36.818Z</time>
      </trkpt>
      <trkpt lat="43.791910" lon="6.265105">
        <ele>768.858295</ele>
        <time>2022-07-27T19:33:46.813Z</time>
      </trkpt>
      <trkpt lat="43.791465" lon="6.265220">
        <ele>766.204205</ele>
        <time>2022-07-27T19:33:52.818Z</time>
      </trkpt>
      <trkpt lat="43.790898" lon="6.264994">
        <ele>761.650464</ele>
        <time>2022-07-27T19:34:00.780Z</time>
      </trkpt>
      <trkpt lat="43.790723" lon="6.264983">
        <ele>760.298397</ele>
        <time>2022-07-27T19:34:03.241Z</time>
      </trkpt>
      <trkpt lat="43.790334" lon="6.265199">
        <ele>757.063821</ele>
        <time>2022-07-27T19:34:09.343Z</time>
      </trkpt>
      <trkpt lat="43.789444" lon="6.265325">
        <ele>754.474724</ele>
        <time>2022-07-27T19:34:25.495Z</time>
      </trkpt>
      <trkpt lat="43.789320" lon="6.265452">
        <ele>754.405356</ele>
        <time>2022-07-27T19:34:29.284Z</time>
      </trkpt>
      <trkpt lat="43.789124" lon="6.265917">
        <ele>754.230505</ele>
        <time>2022-07-27T19:34:38.324Z</time>
      </trkpt>
      <trkpt lat="43.789108" lon="6.266251">
        <ele>754.121808</ele>
        <time>2022-07-27T19:34:45.238Z</time>
      </trkpt>
      <trkpt lat="43.789033" lon="6.266509">
        <ele>754.031492</ele>
        <time>2022-07-27T19:34:50.535Z</time>
      </trkpt>
      <trkpt lat="43.788809" lon="6.266674">
        <ele>753.870454</ele>
        <time>2022-07-27T19:34:57.011Z</time>
      </trkpt>
      <trkpt lat="43.788059" lon="6.266433">
        <ele>752.467628</ele>
        <time>2022-07-27T19:35:13.788Z</time>
      </trkpt>
      <trkpt lat="43.787802" lon="6.266291">
        <ele>751.963483</ele>
        <time>2022-07-27T19:35:19.027Z</time>
      </trkpt>
      <trkpt lat="43.787680" lon="6.266193">
        <ele>751.706520</ele>
        <time>2022-07-27T19:35:21.416Z</time>
      </trkpt>
      <trkpt lat="43.787470" lon="6.265791">
        <ele>751.053826</ele>
        <time>2022-07-27T19:35:27.245Z</time>
      </trkpt>
      <trkpt lat="43.787346" lon="6.265761">
        <ele>750.824471</ele>
        <time>2022-07-27T19:35:29.258Z</time>
      </trkpt>
      <trkpt lat="43.786723" lon="6.266029">
        <ele>745.335333</ele>
        <time>2022-07-27T19:35:38.804Z</time>
      </trkpt>
      <trkpt lat="43.786437" lon="6.266230">
        <ele>742.286494</ele>
        <time>2022-07-27T19:35:43.260Z</time>
      </trkpt>
      <trkpt lat="43.785948" lon="6.266743">
        <ele>736.454952</ele>
        <time>2022-07-27T19:35:51.668Z</time>
      </trkpt>
      <trkpt lat="43.785744" lon="6.266779">
        <ele>734.499917</ele>
        <time>2022-07-27T19:35:54.420Z</time>
      </trkpt>
      <trkpt lat="43.785480" lon="6.266712">
        <ele>731.180961</ele>
        <time>2022-07-27T19:35:57.834Z</time>
      </trkpt>
      <trkpt lat="43.785258" lon="6.266797">
        <ele>727.946366</ele>
        <time>2022-07-27T19:36:00.752Z</time>
      </trkpt>
      <trkpt lat="43.784475" lon="6.267495">
        <ele>714.869805</ele>
        <time>2022-07-27T19:36:12.729Z</time>
      </trkpt>
      <trkpt lat="43.784345" lon="6.267764">
        <ele>711.587826</ele>
        <time>2022-07-27T19:36:15.749Z</time>
      </trkpt>
      <trkpt lat="43.784318" lon="6.268112">
        <ele>708.352460</ele>
        <time>2022-07-27T19:36:19.220Z</time>
      </trkpt>
      <trkpt lat="43.784366" lon="6.269646">
        <ele>711.703849</ele>
        <time>2022-07-27T19:36:42.580Z</time>
      </trkpt>
      <trkpt lat="43.784597" lon="6.270917">
        <ele>716.747296</ele>
        <time>2022-07-27T19:37:51.727Z</time>
      </trkpt>
      <trkpt lat="43.784469" lon="6.271477">
        <ele>721.402060</ele>
        <time>2022-07-27T19:38:23.177Z</time>
      </trkpt>
      <trkpt lat="43.784440" lon="6.271920">
        <ele>724.926976</ele>
        <time>2022-07-27T19:38:46.999Z</time>
      </trkpt>
      <trkpt lat="43.784484" lon="6.272448">
        <ele>729.138845</ele>
        <time>2022-07-27T19:39:12.110Z</time>
      </trkpt>
      <trkpt lat="43.784419" lon="6.272578">
        <ele>730.391958</ele>
        <time>2022-07-27T19:39:18.390Z</time>
      </trkpt>
      <trkpt lat="43.784111" lon="6.272852">
        <ele>734.142714</ele>
        <time>2022-07-27T19:39:38.040Z</time>
      </trkpt>
      <trkpt lat="43.783562" lon="6.273785">
        <ele>740.947551</ele>
        <time>2022-07-27T19:40:20.946Z</time>
      </trkpt>
      <trkpt lat="43.783486" lon="6.274026">
        <ele>742.434372</ele>
        <time>2022-07-27T19:40:30.813Z</time>
      </trkpt>
      <trkpt lat="43.783359" lon="6.274905">
        <ele>747.502411</ele>
        <time>2022-07-27T19:41:07.627Z</time>
      </trkpt>
      <trkpt lat="43.782909" lon="6.275606">
        <ele>753.577642</ele>
        <time>2022-07-27T19:41:46.467Z</time>
      </trkpt>
      <trkpt lat="43.782642" lon="6.276844">
        <ele>761.957980</ele>
        <time>2022-07-27T19:42:41.391Z</time>
      </trkpt>
      <trkpt lat="43.782543" lon="6.276961">
        <ele>763.127131</ele>
        <time>2022-07-27T19:42:49.108Z</time>
      </trkpt>
      <trkpt lat="43.782153" lon="6.277073">
        <ele>766.893387</ele>
        <time>2022-07-27T19:43:12.145Z</time>
      </trkpt>
      <trkpt lat="43.781294" lon="6.278597">
        <ele>780.224168</ele>
        <time>2022-07-27T19:44:36.566Z</time>
      </trkpt>
      <trkpt lat="43.781040" lon="6.278924">
        <ele>784.035851</ele>
        <time>2022-07-27T19:44:59.031Z</time>
      </trkpt>
      <trkpt lat="43.780945" lon="6.279186">
        <ele>786.440526</ele>
        <time>2022-07-27T19:45:12.279Z</time>
      </trkpt>
      <trkpt lat="43.780884" lon="6.279872">
        <ele>792.109549</ele>
        <time>2022-07-27T19:45:44.176Z</time>
      </trkpt>
      <trkpt lat="43.780828" lon="6.280030">
        <ele>793.553181</ele>
        <time>2022-07-27T19:45:52.277Z</time>
      </trkpt>
      <trkpt lat="43.780500" lon="6.280389">
        <ele>798.302293</ele>
        <time>2022-07-27T19:46:21.460Z</time>
      </trkpt>
      <trkpt lat="43.779918" lon="6.280722">
        <ele>805.824173</ele>
        <time>2022-07-27T19:47:10.492Z</time>
      </trkpt>
      <trkpt lat="43.779394" lon="6.280878">
        <ele>812.456560</ele>
        <time>2022-07-27T19:47:56.426Z</time>
      </trkpt>
      <trkpt lat="43.778237" lon="6.281846">
        <ele>824.080171</ele>
        <time>2022-07-27T19:49:25.114Z</time>
      </trkpt>
      <trkpt lat="43.777699" lon="6.282035">
        <ele>824.683819</ele>
        <time>2022-07-27T19:49:38.081Z</time>
      </trkpt>
      <trkpt lat="43.777675" lon="6.282044">
        <ele>824.710861</ele>
        <time>2022-07-27T19:49:38.438Z</time>
      </trkpt>
      <trkpt lat="43.776119" lon="6.282111">
        <ele>829.073729</ele>
        <time>2022-07-27T19:50:02.310Z</time>
      </trkpt>
      <trkpt lat="43.775977" lon="6.282193">
        <ele>829.760884</ele>
        <time>2022-07-27T19:50:04.864Z</time>
      </trkpt>
      <trkpt lat="43.775954" lon="6.282315">
        <ele>830.167521</ele>
        <time>2022-07-27T19:50:11.540Z</time>
      </trkpt>
      <trkpt lat="43.776005" lon="6.282421">
        <ele>830.578309</ele>
        <time>2022-07-27T19:50:17.550Z</time>
      </trkpt>
      <trkpt lat="43.775903" lon="6.282465">
        <ele>831.055470</ele>
        <time>2022-07-27T19:50:20.368Z</time>
      </trkpt>
      <trkpt lat="43.776005" lon="6.282421">
        <ele>831.532632</ele>
        <time>2022-07-27T19:50:32.286Z</time>
      </trkpt>
      <trkpt lat="43.776684" lon="6.282367">
        <ele>838.343187</ele>
        <time>2022-07-27T19:51:29.655Z</time>
      </trkpt>
      <trkpt lat="43.777975" lon="6.282674">
        <ele>866.439766</ele>
        <time>2022-07-27T19:53:58.959Z</time>
      </trkpt>
      <trkpt lat="43.778592" lon="6.282642">
        <ele>876.968847</ele>
        <time>2022-07-27T19:54:58.558Z</time>
      </trkpt>
      <trkpt lat="43.779049" lon="6.282375">
        <ele>883.769997</ele>
        <time>2022-07-27T19:55:36.576Z</time>
      </trkpt>
      <trkpt lat="43.779528" lon="6.282278">
        <ele>890.407925</ele>
        <time>2022-07-27T19:56:11.282Z</time>
      </trkpt>
      <trkpt lat="43.780059" lon="6.282410">
        <ele>897.328791</ele>
        <time>2022-07-27T19:56:46.067Z</time>
      </trkpt>
      <trkpt lat="43.780595" lon="6.282263">
        <ele>901.192430</ele>
        <time>2022-07-27T19:57:15.057Z</time>
      </trkpt>
      <trkpt lat="43.780671" lon="6.282322">
        <ele>901.808482</ele>
        <time>2022-07-27T19:57:18.067Z</time>
      </trkpt>
      <trkpt lat="43.780703" lon="6.282425">
        <ele>902.380936</ele>
        <time>2022-07-27T19:57:25.693Z</time>
      </trkpt>
      <trkpt lat="43.780677" lon="6.282537">
        <ele>902.981548</ele>
        <time>2022-07-27T19:57:30.776Z</time>
      </trkpt>
      <trkpt lat="43.780604" lon="6.282604">
        <ele>903.600775</ele>
        <time>2022-07-27T19:57:33.794Z</time>
      </trkpt>
      <trkpt lat="43.780254" lon="6.282578">
        <ele>906.079180</ele>
        <time>2022-07-27T19:57:52.404Z</time>
      </trkpt>
      <trkpt lat="43.779397" lon="6.282787">
        <ele>907.736212</ele>
        <time>2022-07-27T19:58:29.185Z</time>
      </trkpt>
      <trkpt lat="43.778763" lon="6.283227">
        <ele>904.378094</ele>
        <time>2022-07-27T19:58:40.376Z</time>
      </trkpt>
      <trkpt lat="43.778127" lon="6.283497">
        <ele>901.228025</ele>
        <time>2022-07-27T19:58:49.380Z</time>
      </trkpt>
      <trkpt lat="43.777494" lon="6.283623">
        <ele>892.697677</ele>
        <time>2022-07-27T19:58:57.730Z</time>
      </trkpt>
      <trkpt lat="43.776727" lon="6.283643">
        <ele>881.983308</ele>
        <time>2022-07-27T19:59:07.578Z</time>
      </trkpt>
      <trkpt lat="43.776411" lon="6.283975">
        <ele>876.443592</ele>
        <time>2022-07-27T19:59:12.742Z</time>
      </trkpt>
      <trkpt lat="43.775963" lon="6.284717">
        <ele>876.239582</ele>
        <time>2022-07-27T19:59:22.602Z</time>
      </trkpt>
      <trkpt lat="43.775880" lon="6.284921">
        <ele>876.326388</ele>
        <time>2022-07-27T19:59:25.712Z</time>
      </trkpt>
      <trkpt lat="43.775762" lon="6.285821">
        <ele>876.665490</ele>
        <time>2022-07-27T19:59:51.417Z</time>
      </trkpt>
      <trkpt lat="43.775780" lon="6.286048">
        <ele>876.750149</ele>
        <time>2022-07-27T20:00:01.654Z</time>
      </trkpt>
      <trkpt lat="43.775992" lon="6.286596">
        <ele>882.024035</ele>
        <time>2022-07-27T20:00:35.835Z</time>
      </trkpt>
      <trkpt lat="43.776077" lon="6.287067">
        <ele>888.015295</ele>
        <time>2022-07-27T20:01:08.945Z</time>
      </trkpt>
      <trkpt lat="43.776063" lon="6.288787">
        <ele>908.666092</ele>
        <time>2022-07-27T20:03:15.068Z</time>
      </trkpt>
      <trkpt lat="43.775929" lon="6.289871">
        <ele>917.572950</ele>
        <time>2022-07-27T20:04:24.634Z</time>
      </trkpt>
      <trkpt lat="43.775975" lon="6.290290">
        <ele>921.005361</ele>
        <time>2022-07-27T20:04:43.355Z</time>
      </trkpt>
      <trkpt lat="43.775720" lon="6.291400">
        <ele>927.777363</ele>
        <time>2022-07-27T20:05:14.185Z</time>
      </trkpt>
      <trkpt lat="43.775516" lon="6.291737">
        <ele>927.827013</ele>
        <time>2022-07-27T20:05:22.992Z</time>
      </trkpt>
      <trkpt lat="43.775076" lon="6.292258">
        <ele>927.917531</ele>
        <time>2022-07-27T20:05:34.311Z</time>
      </trkpt>
      <trkpt lat="43.774588" lon="6.293066">
        <ele>928.073648</ele>
        <time>2022-07-27T20:05:48.574Z</time>
      </trkpt>
      <trkpt lat="43.774550" lon="6.293407">
        <ele>928.206125</ele>
        <time>2022-07-27T20:05:52.853Z</time>
      </trkpt>
      <trkpt lat="43.774701" lon="6.293920">
        <ele>928.418828</ele>
        <time>2022-07-27T20:05:59.945Z</time>
      </trkpt>
      <trkpt lat="43.774671" lon="6.294257">
        <ele>928.549199</ele>
        <time>2022-07-27T20:06:06.609Z</time>
      </trkpt>
      <trkpt lat="43.774222" lon="6.294942">
        <ele>928.904409</ele>
        <time>2022-07-27T20:06:28.107Z</time>
      </trkpt>
      <trkpt lat="43.774082" lon="6.295235">
        <ele>929.247693</ele>
        <time>2022-07-27T20:06:36.456Z</time>
      </trkpt>
      <trkpt lat="43.773865" lon="6.295846">
        <ele>930.388856</ele>
        <time>2022-07-27T20:06:51.689Z</time>
      </trkpt>
      <trkpt lat="43.773502" lon="6.296619">
        <ele>931.934236</ele>
        <time>2022-07-27T20:07:12.460Z</time>
      </trkpt>
      <trkpt lat="43.773136" lon="6.297778">
        <ele>935.063879</ele>
        <time>2022-07-27T20:07:38.386Z</time>
      </trkpt>
      <trkpt lat="43.773014" lon="6.297927">
        <ele>935.863877</ele>
        <time>2022-07-27T20:07:49.143Z</time>
      </trkpt>
      <trkpt lat="43.772565" lon="6.298204">
        <ele>938.281297</ele>
        <time>2022-07-27T20:08:09.234Z</time>
      </trkpt>
      <trkpt lat="43.772261" lon="6.298723">
        <ele>940.654577</ele>
        <time>2022-07-27T20:08:29.270Z</time>
      </trkpt>
      <trkpt lat="43.771982" lon="6.299002">
        <ele>942.648925</ele>
        <time>2022-07-27T20:08:44.598Z</time>
      </trkpt>
      <trkpt lat="43.771932" lon="6.299124">
        <ele>943.577840</ele>
        <time>2022-07-27T20:08:53.912Z</time>
      </trkpt>
      <trkpt lat="43.771914" lon="6.299417">
        <ele>945.525052</ele>
        <time>2022-07-27T20:09:01.108Z</time>
      </trkpt>
      <trkpt lat="43.772033" lon="6.300630">
        <ele>953.631147</ele>
        <time>2022-07-27T20:09:57.944Z</time>
      </trkpt>
      <trkpt lat="43.772005" lon="6.300982">
        <ele>955.976136</ele>
        <time>2022-07-27T20:10:11.971Z</time>
      </trkpt>
      <trkpt lat="43.771857" lon="6.301375">
        <ele>958.780770</ele>
        <time>2022-07-27T20:10:37.811Z</time>
      </trkpt>
      <trkpt lat="43.771248" lon="6.302282">
        <ele>964.430726</ele>
        <time>2022-07-27T20:11:23.954Z</time>
      </trkpt>
      <trkpt lat="43.771163" lon="6.302699">
        <ele>966.407378</ele>
        <time>2022-07-27T20:11:37.752Z</time>
      </trkpt>
      <trkpt lat="43.771180" lon="6.303129">
        <ele>968.371936</ele>
        <time>2022-07-27T20:11:49.841Z</time>
      </trkpt>
      <trkpt lat="43.771118" lon="6.303435">
        <ele>969.821790</ele>
        <time>2022-07-27T20:11:57.634Z</time>
      </trkpt>
      <trkpt lat="43.770993" lon="6.303664">
        <ele>970.291713</ele>
        <time>2022-07-27T20:12:04.875Z</time>
      </trkpt>
      <trkpt lat="43.770867" lon="6.303755">
        <ele>970.598932</ele>
        <time>2022-07-27T20:12:08.600Z</time>
      </trkpt>
      <trkpt lat="43.770406" lon="6.303617">
        <ele>971.618589</ele>
        <time>2022-07-27T20:12:21.865Z</time>
      </trkpt>
      <trkpt lat="43.770189" lon="6.303612">
        <ele>972.087788</ele>
        <time>2022-07-27T20:12:27.459Z</time>
      </trkpt>
      <trkpt lat="43.769976" lon="6.303695">
        <ele>972.566157</ele>
        <time>2022-07-27T20:12:34.102Z</time>
      </trkpt>
      <trkpt lat="43.769891" lon="6.303843">
        <ele>972.861374</ele>
        <time>2022-07-27T20:12:37.669Z</time>
      </trkpt>
      <trkpt lat="43.769858" lon="6.304759">
        <ele>975.418433</ele>
        <time>2022-07-27T20:12:59.010Z</time>
      </trkpt>
      <trkpt lat="43.769949" lon="6.305198">
        <ele>977.590826</ele>
        <time>2022-07-27T20:13:11.294Z</time>
      </trkpt>
      <trkpt lat="43.770046" lon="6.305380">
        <ele>978.666738</ele>
        <time>2022-07-27T20:13:17.796Z</time>
      </trkpt>
      <trkpt lat="43.770448" lon="6.305694">
        <ele>981.706754</ele>
        <time>2022-07-27T20:13:40.541Z</time>
      </trkpt>
      <trkpt lat="43.770798" lon="6.306209">
        <ele>985.070502</ele>
        <time>2022-07-27T20:14:11.836Z</time>
      </trkpt>
      <trkpt lat="43.770784" lon="6.306322">
        <ele>985.628554</ele>
        <time>2022-07-27T20:14:17.688Z</time>
      </trkpt>
      <trkpt lat="43.770522" lon="6.306682">
        <ele>989.283142</ele>
        <time>2022-07-27T20:14:43.506Z</time>
      </trkpt>
      <trkpt lat="43.770220" lon="6.307420">
        <ele>995.348406</ele>
        <time>2022-07-27T20:15:25.408Z</time>
      </trkpt>
      <trkpt lat="43.770096" lon="6.308146">
        <ele>1000.682721</ele>
        <time>2022-07-27T20:15:58.225Z</time>
      </trkpt>
      <trkpt lat="43.770162" lon="6.309050">
        <ele>1003.097468</ele>
        <time>2022-07-27T20:16:32.738Z</time>
      </trkpt>
      <trkpt lat="43.769956" lon="6.309248">
        <ele>1002.898552</ele>
        <time>2022-07-27T20:16:43.009Z</time>
      </trkpt>
      <trkpt lat="43.769763" lon="6.309286">
        <ele>1002.743913</ele>
        <time>2022-07-27T20:16:49.468Z</time>
      </trkpt>
      <trkpt lat="43.768665" lon="6.308608">
        <ele>999.707974</ele>
        <time>2022-07-27T20:17:07.280Z</time>
      </trkpt>
      <trkpt lat="43.768496" lon="6.308592">
        <ele>998.046296</ele>
        <time>2022-07-27T20:17:09.495Z</time>
      </trkpt>
      <trkpt lat="43.768260" lon="6.308781">
        <ele>995.371981</ele>
        <time>2022-07-27T20:17:13.063Z</time>
      </trkpt>
      <trkpt lat="43.767952" lon="6.309205">
        <ele>991.111711</ele>
        <time>2022-07-27T20:17:18.766Z</time>
      </trkpt>
      <trkpt lat="43.767727" lon="6.309844">
        <ele>986.075655</ele>
        <time>2022-07-27T20:17:25.735Z</time>
      </trkpt>
      <trkpt lat="43.767546" lon="6.310191">
        <ele>984.717568</ele>
        <time>2022-07-27T20:17:30.153Z</time>
      </trkpt>
      <trkpt lat="43.767389" lon="6.310712">
        <ele>985.923753</ele>
        <time>2022-07-27T20:17:36.571Z</time>
      </trkpt>
      <trkpt lat="43.767336" lon="6.311184">
        <ele>986.944338</ele>
        <time>2022-07-27T20:17:43.491Z</time>
      </trkpt>
      <trkpt lat="43.767443" lon="6.311656">
        <ele>988.001325</ele>
        <time>2022-07-27T20:17:57.295Z</time>
      </trkpt>
      <trkpt lat="43.767822" lon="6.312250">
        <ele>989.842701</ele>
        <time>2022-07-27T20:18:37.194Z</time>
      </trkpt>
      <trkpt lat="43.768091" lon="6.312809">
        <ele>996.130749</ele>
        <time>2022-07-27T20:19:19.736Z</time>
      </trkpt>
      <trkpt lat="43.768464" lon="6.314140">
        <ele>1009.495182</ele>
        <time>2022-07-27T20:20:41.773Z</time>
      </trkpt>
      <trkpt lat="43.768554" lon="6.314902">
        <ele>1013.864462</ele>
        <time>2022-07-27T20:21:16.205Z</time>
      </trkpt>
      <trkpt lat="43.768629" lon="6.315115">
        <ele>1014.394973</ele>
        <time>2022-07-27T20:21:25.579Z</time>
      </trkpt>
      <trkpt lat="43.769468" lon="6.315869">
        <ele>1017.495684</ele>
        <time>2022-07-27T20:21:56.868Z</time>
      </trkpt>
      <trkpt lat="43.769538" lon="6.316003">
        <ele>1017.865929</ele>
        <time>2022-07-27T20:21:58.952Z</time>
      </trkpt>
      <trkpt lat="43.769630" lon="6.316434">
        <ele>1018.074703</ele>
        <time>2022-07-27T20:22:04.177Z</time>
      </trkpt>
      <trkpt lat="43.769841" lon="6.316675">
        <ele>1016.874517</ele>
        <time>2022-07-27T20:22:08.281Z</time>
      </trkpt>
      <trkpt lat="43.770020" lon="6.316890">
        <ele>1015.834760</ele>
        <time>2022-07-27T20:22:11.729Z</time>
      </trkpt>
      <trkpt lat="43.770243" lon="6.317416">
        <ele>1013.901993</ele>
        <time>2022-07-27T20:22:18.224Z</time>
      </trkpt>
      <trkpt lat="43.770236" lon="6.317734">
        <ele>1012.893874</ele>
        <time>2022-07-27T20:22:21.688Z</time>
      </trkpt>
      <trkpt lat="43.769951" lon="6.318691">
        <ele>1010.108025</ele>
        <time>2022-07-27T20:22:33.372Z</time>
      </trkpt>
      <trkpt lat="43.769892" lon="6.319076">
        <ele>1009.456175</ele>
        <time>2022-07-27T20:22:38.301Z</time>
      </trkpt>
      <trkpt lat="43.769896" lon="6.319393">
        <ele>1008.931069</ele>
        <time>2022-07-27T20:22:42.118Z</time>
      </trkpt>
      <trkpt lat="43.770093" lon="6.319900">
        <ele>1007.977516</ele>
        <time>2022-07-27T20:22:49.927Z</time>
      </trkpt>
      <trkpt lat="43.770166" lon="6.321419">
        <ele>1004.986786</ele>
        <time>2022-07-27T20:23:09.830Z</time>
      </trkpt>
      <trkpt lat="43.770350" lon="6.322096">
        <ele>1003.262196</ele>
        <time>2022-07-27T20:23:18.725Z</time>
      </trkpt>
      <trkpt lat="43.770614" lon="6.322715">
        <ele>1001.548252</ele>
        <time>2022-07-27T20:23:26.637Z</time>
      </trkpt>
      <trkpt lat="43.770860" lon="6.323097">
        <ele>1000.176925</ele>
        <time>2022-07-27T20:23:32.261Z</time>
      </trkpt>
      <trkpt lat="43.771311" lon="6.323561">
        <ele>997.234958</ele>
        <time>2022-07-27T20:23:40.685Z</time>
      </trkpt>
      <trkpt lat="43.771692" lon="6.324086">
        <ele>994.420568</ele>
        <time>2022-07-27T20:23:48.440Z</time>
      </trkpt>
      <trkpt lat="43.772090" lon="6.324344">
        <ele>992.119501</ele>
        <time>2022-07-27T20:23:55.181Z</time>
      </trkpt>
      <trkpt lat="43.772747" lon="6.325212">
        <ele>987.645199</ele>
        <time>2022-07-27T20:24:09.364Z</time>
      </trkpt>
      <trkpt lat="43.772782" lon="6.325438">
        <ele>986.835677</ele>
        <time>2022-07-27T20:24:11.926Z</time>
      </trkpt>
      <trkpt lat="43.772683" lon="6.326341">
        <ele>983.636844</ele>
        <time>2022-07-27T20:24:21.868Z</time>
      </trkpt>
      <trkpt lat="43.773007" lon="6.327212">
        <ele>979.907237</ele>
        <time>2022-07-27T20:24:32.283Z</time>
      </trkpt>
      <trkpt lat="43.773043" lon="6.327653">
        <ele>978.145866</ele>
        <time>2022-07-27T20:24:37.019Z</time>
      </trkpt>
      <trkpt lat="43.773034" lon="6.328054">
        <ele>976.553627</ele>
        <time>2022-07-27T20:24:41.242Z</time>
      </trkpt>
      <trkpt lat="43.772859" lon="6.329196">
        <ele>972.300842</ele>
        <time>2022-07-27T20:24:53.859Z</time>
      </trkpt>
      <trkpt lat="43.772885" lon="6.329706">
        <ele>971.482741</ele>
        <time>2022-07-27T20:24:59.570Z</time>
      </trkpt>
      <trkpt lat="43.772958" lon="6.330064">
        <ele>970.887491</ele>
        <time>2022-07-27T20:25:03.912Z</time>
      </trkpt>
      <trkpt lat="43.773390" lon="6.331322">
        <ele>968.658489</ele>
        <time>2022-07-27T20:25:23.156Z</time>
      </trkpt>
      <trkpt lat="43.773580" lon="6.331651">
        <ele>968.612890</ele>
        <time>2022-07-27T20:25:31.122Z</time>
      </trkpt>
      <trkpt lat="43.773775" lon="6.331785">
        <ele>968.646362</ele>
        <time>2022-07-27T20:25:37.028Z</time>
      </trkpt>
      <trkpt lat="43.774442" lon="6.331969">
        <ele>968.750938</ele>
        <time>2022-07-27T20:25:53.789Z</time>
      </trkpt>
      <trkpt lat="43.774798" lon="6.332287">
        <ele>968.816076</ele>
        <time>2022-07-27T20:26:03.863Z</time>
      </trkpt>
      <trkpt lat="43.775110" lon="6.332677">
        <ele>968.265686</ele>
        <time>2022-07-27T20:26:12.524Z</time>
      </trkpt>
      <trkpt lat="43.775565" lon="6.333235">
        <ele>966.564581</ele>
        <time>2022-07-27T20:26:23.173Z</time>
      </trkpt>
      <trkpt lat="43.776247" lon="6.333629">
        <ele>964.496225</ele>
        <time>2022-07-27T20:26:34.934Z</time>
      </trkpt>
      <trkpt lat="43.776504" lon="6.333936">
        <ele>963.326522</ele>
        <time>2022-07-27T20:26:40.073Z</time>
      </trkpt>
      <trkpt lat="43.777137" lon="6.335213">
        <ele>957.628994</ele>
        <time>2022-07-27T20:26:57.251Z</time>
      </trkpt>
      <trkpt lat="43.777468" lon="6.335706">
        <ele>955.152783</ele>
        <time>2022-07-27T20:27:04.320Z</time>
      </trkpt>
      <trkpt lat="43.777709" lon="6.336407">
        <ele>951.728100</ele>
        <time>2022-07-27T20:27:12.509Z</time>
      </trkpt>
      <trkpt lat="43.778128" lon="6.337226">
        <ele>947.144042</ele>
        <time>2022-07-27T20:27:23.017Z</time>
      </trkpt>
      <trkpt lat="43.778403" lon="6.337736">
        <ele>944.237098</ele>
        <time>2022-07-27T20:27:29.649Z</time>
      </trkpt>
      <trkpt lat="43.778884" lon="6.338651">
        <ele>939.865776</ele>
        <time>2022-07-27T20:27:41.595Z</time>
      </trkpt>
      <trkpt lat="43.778917" lon="6.338715">
        <ele>939.574715</ele>
        <time>2022-07-27T20:27:42.435Z</time>
      </trkpt>
      <trkpt lat="43.779076" lon="6.339025">
        <ele>938.167399</ele>
        <time>2022-07-27T20:27:46.606Z</time>
      </trkpt>
      <trkpt lat="43.779126" lon="6.339123">
        <ele>937.723290</ele>
        <time>2022-07-27T20:27:47.931Z</time>
      </trkpt>
      <trkpt lat="43.779218" lon="6.339293">
        <ele>936.937012</ele>
        <time>2022-07-27T20:27:50.282Z</time>
      </trkpt>
      <trkpt lat="43.779241" lon="6.339326">
        <ele>936.767261</ele>
        <time>2022-07-27T20:27:50.806Z</time>
      </trkpt>
      <trkpt lat="43.779613" lon="6.339685">
        <ele>934.443200</ele>
        <time>2022-07-27T20:27:57.881Z</time>
      </trkpt>
      <trkpt lat="43.779782" lon="6.340137">
        <ele>932.460624</ele>
        <time>2022-07-27T20:28:03.654Z</time>
      </trkpt>
      <trkpt lat="43.779831" lon="6.340580">
        <ele>930.692473</ele>
        <time>2022-07-27T20:28:08.655Z</time>
      </trkpt>
      <trkpt lat="43.779862" lon="6.340810">
        <ele>929.769383</ele>
        <time>2022-07-27T20:28:11.188Z</time>
      </trkpt>
      <trkpt lat="43.780074" lon="6.341261">
        <ele>927.646188</ele>
        <time>2022-07-27T20:28:16.969Z</time>
      </trkpt>
      <trkpt lat="43.780196" lon="6.341741">
        <ele>925.638548</ele>
        <time>2022-07-27T20:28:22.286Z</time>
      </trkpt>
      <trkpt lat="43.780222" lon="6.341894">
        <ele>925.018429</ele>
        <time>2022-07-27T20:28:23.927Z</time>
      </trkpt>
      <trkpt lat="43.780318" lon="6.342434">
        <ele>922.575178</ele>
        <time>2022-07-27T20:28:29.670Z</time>
      </trkpt>
      <trkpt lat="43.780410" lon="6.342871">
        <ele>920.460207</ele>
        <time>2022-07-27T20:28:34.388Z</time>
      </trkpt>
      <trkpt lat="43.780449" lon="6.342931">
        <ele>920.085101</ele>
        <time>2022-07-27T20:28:35.219Z</time>
      </trkpt>
      <trkpt lat="43.780505" lon="6.343016">
        <ele>919.550460</ele>
        <time>2022-07-27T20:28:36.409Z</time>
      </trkpt>
      <trkpt lat="43.780675" lon="6.343252">
        <ele>918.001534</ele>
        <time>2022-07-27T20:28:39.882Z</time>
      </trkpt>
      <trkpt lat="43.780825" lon="6.343465">
        <ele>916.619077</ele>
        <time>2022-07-27T20:28:42.958Z</time>
      </trkpt>
      <trkpt lat="43.781145" lon="6.343912">
        <ele>913.694354</ele>
        <time>2022-07-27T20:28:49.520Z</time>
      </trkpt>
      <trkpt lat="43.781813" lon="6.344834">
        <ele>909.772637</ele>
        <time>2022-07-27T20:29:03.882Z</time>
      </trkpt>
      <trkpt lat="43.781953" lon="6.345099">
        <ele>908.898680</ele>
        <time>2022-07-27T20:29:07.825Z</time>
      </trkpt>
      <trkpt lat="43.781971" lon="6.345299">
        <ele>908.362260</ele>
        <time>2022-07-27T20:29:10.270Z</time>
      </trkpt>
      <trkpt lat="43.781991" lon="6.345517">
        <ele>907.777388</ele>
        <time>2022-07-27T20:29:13.004Z</time>
      </trkpt>
      <trkpt lat="43.781922" lon="6.346018">
        <ele>906.419931</ele>
        <time>2022-07-27T20:29:19.265Z</time>
      </trkpt>
      <trkpt lat="43.781876" lon="6.346149">
        <ele>906.032224</ele>
        <time>2022-07-27T20:29:21.069Z</time>
      </trkpt>
      <trkpt lat="43.781860" lon="6.346183">
        <ele>905.943493</ele>
        <time>2022-07-27T20:29:21.557Z</time>
      </trkpt>
      <trkpt lat="43.781234" lon="6.347309">
        <ele>902.911229</ele>
        <time>2022-07-27T20:29:38.816Z</time>
      </trkpt>
      <trkpt lat="43.781177" lon="6.347290">
        <ele>902.737968</ele>
        <time>2022-07-27T20:29:40.566Z</time>
      </trkpt>
      <trkpt lat="43.781184" lon="6.347359">
        <ele>902.589298</ele>
        <time>2022-07-27T20:29:41.973Z</time>
      </trkpt>
      <trkpt lat="43.780450" lon="6.349049">
        <ele>897.920607</ele>
        <time>2022-07-27T20:30:23.737Z</time>
      </trkpt>
      <trkpt lat="43.780442" lon="6.349094">
        <ele>897.802131</ele>
        <time>2022-07-27T20:30:24.670Z</time>
      </trkpt>
      <trkpt lat="43.780306" lon="6.349866">
        <ele>895.770659</ele>
        <time>2022-07-27T20:30:41.568Z</time>
      </trkpt>
      <trkpt lat="43.780334" lon="6.350024">
        <ele>895.354751</ele>
        <time>2022-07-27T20:30:44.708Z</time>
      </trkpt>
      <trkpt lat="43.780248" lon="6.352275">
        <ele>889.739515</ele>
        <time>2022-07-27T20:31:10.449Z</time>
      </trkpt>
      <trkpt lat="43.780184" lon="6.353637">
        <ele>887.042463</ele>
        <time>2022-07-27T20:31:27.299Z</time>
      </trkpt>
      <trkpt lat="43.780124" lon="6.353728">
        <ele>886.852668</ele>
        <time>2022-07-27T20:31:28.861Z</time>
      </trkpt>
      <trkpt lat="43.779858" lon="6.355344">
        <ele>884.321159</ele>
        <time>2022-07-27T20:31:49.654Z</time>
      </trkpt>
      <trkpt lat="43.780160" lon="6.355292">
        <ele>884.132769</ele>
        <time>2022-07-27T20:31:55.382Z</time>
      </trkpt>
      <trkpt lat="43.780441" lon="6.356488">
        <ele>883.570629</ele>
        <time>2022-07-27T20:32:13.916Z</time>
      </trkpt>
      <trkpt lat="43.781132" lon="6.359250">
        <ele>882.467807</ele>
        <time>2022-07-27T20:33:01.002Z</time>
      </trkpt>
      <trkpt lat="43.782054" lon="6.362245">
        <ele>877.954914</ele>
        <time>2022-07-27T20:33:41.429Z</time>
      </trkpt>
      <trkpt lat="43.782271" lon="6.364379">
        <ele>874.770026</ele>
        <time>2022-07-27T20:34:09.589Z</time>
      </trkpt>
      <trkpt lat="43.782635" lon="6.365594">
        <ele>871.051795</ele>
        <time>2022-07-27T20:34:24.965Z</time>
      </trkpt>
      <trkpt lat="43.782997" lon="6.366597">
        <ele>867.854403</ele>
        <time>2022-07-27T20:34:37.229Z</time>
      </trkpt>
      <trkpt lat="43.783362" lon="6.367386">
        <ele>863.229155</ele>
        <time>2022-07-27T20:34:47.203Z</time>
      </trkpt>
      <trkpt lat="43.783568" lon="6.368059">
        <ele>859.621148</ele>
        <time>2022-07-27T20:34:54.818Z</time>
      </trkpt>
      <trkpt lat="43.783839" lon="6.368643">
        <ele>856.194582</ele>
        <time>2022-07-27T20:35:01.956Z</time>
      </trkpt>
      <trkpt lat="43.784223" lon="6.369709">
        <ele>847.994399</ele>
        <time>2022-07-27T20:35:13.661Z</time>
      </trkpt>
      <trkpt lat="43.784462" lon="6.370277">
        <ele>843.331272</ele>
        <time>2022-07-27T20:35:20.027Z</time>
      </trkpt>
      <trkpt lat="43.784610" lon="6.370504">
        <ele>841.161783</ele>
        <time>2022-07-27T20:35:23.026Z</time>
      </trkpt>
      <trkpt lat="43.784956" lon="6.371113">
        <ele>837.083229</ele>
        <time>2022-07-27T20:35:30.613Z</time>
      </trkpt>
      <trkpt lat="43.785452" lon="6.371623">
        <ele>834.778265</ele>
        <time>2022-07-27T20:35:39.401Z</time>
      </trkpt>
      <trkpt lat="43.785623" lon="6.371664">
        <ele>834.130706</ele>
        <time>2022-07-27T20:35:41.977Z</time>
      </trkpt>
      <trkpt lat="43.785899" lon="6.371536">
        <ele>833.044650</ele>
        <time>2022-07-27T20:35:46.595Z</time>
      </trkpt>
      <trkpt lat="43.786065" lon="6.371664">
        <ele>832.335732</ele>
        <time>2022-07-27T20:35:51.458Z</time>
      </trkpt>
      <trkpt lat="43.786171" lon="6.372310">
        <ele>832.424502</ele>
        <time>2022-07-27T20:36:11.325Z</time>
      </trkpt>
      <trkpt lat="43.786278" lon="6.372543">
        <ele>833.702933</ele>
        <time>2022-07-27T20:36:21.512Z</time>
      </trkpt>
      <trkpt lat="43.786601" lon="6.372999">
        <ele>836.660464</ele>
        <time>2022-07-27T20:36:46.869Z</time>
      </trkpt>
      <trkpt lat="43.786698" lon="6.373637">
        <ele>839.678886</ele>
        <time>2022-07-27T20:37:14.001Z</time>
      </trkpt>
      <trkpt lat="43.786885" lon="6.374188">
        <ele>842.497561</ele>
        <time>2022-07-27T20:37:38.014Z</time>
      </trkpt>
      <trkpt lat="43.787104" lon="6.374603">
        <ele>839.912868</ele>
        <time>2022-07-27T20:37:53.507Z</time>
      </trkpt>
      <trkpt lat="43.787621" lon="6.374920">
        <ele>834.978857</ele>
        <time>2022-07-27T20:38:02.744Z</time>
      </trkpt>
      <trkpt lat="43.788123" lon="6.375523">
        <ele>829.180288</ele>
        <time>2022-07-27T20:38:11.381Z</time>
      </trkpt>
      <trkpt lat="43.789459" lon="6.376505">
        <ele>796.117069</ele>
        <time>2022-07-27T20:38:30.506Z</time>
      </trkpt>
      <trkpt lat="43.789680" lon="6.376750">
        <ele>789.224839</ele>
        <time>2022-07-27T20:38:34.113Z</time>
      </trkpt>
      <trkpt lat="43.789876" lon="6.377137">
        <ele>781.292342</ele>
        <time>2022-07-27T20:38:38.437Z</time>
      </trkpt>
      <trkpt lat="43.789884" lon="6.377357">
        <ele>778.037239</ele>
        <time>2022-07-27T20:38:40.453Z</time>
      </trkpt>
      <trkpt lat="43.789842" lon="6.377451">
        <ele>776.403637</ele>
        <time>2022-07-27T20:38:41.467Z</time>
      </trkpt>
      <trkpt lat="43.789357" lon="6.377881">
        <ele>764.616199</ele>
        <time>2022-07-27T20:38:48.744Z</time>
      </trkpt>
      <trkpt lat="43.789146" lon="6.378166">
        <ele>758.583541</ele>
        <time>2022-07-27T20:38:52.504Z</time>
      </trkpt>
      <trkpt lat="43.788885" lon="6.378651">
        <ele>749.644214</ele>
        <time>2022-07-27T20:38:58.152Z</time>
      </trkpt>
      <trkpt lat="43.788753" lon="6.379072">
        <ele>745.027711</ele>
        <time>2022-07-27T20:39:02.506Z</time>
      </trkpt>
      <trkpt lat="43.788708" lon="6.379715">
        <ele>741.222349</ele>
        <time>2022-07-27T20:39:08.713Z</time>
      </trkpt>
      <trkpt lat="43.788447" lon="6.380158">
        <ele>737.854089</ele>
        <time>2022-07-27T20:39:14.354Z</time>
      </trkpt>
      <trkpt lat="43.788360" lon="6.380461">
        <ele>735.933254</ele>
        <time>2022-07-27T20:39:17.654Z</time>
      </trkpt>
      <trkpt lat="43.788201" lon="6.380540">
        <ele>734.554915</ele>
        <time>2022-07-27T20:39:20.589Z</time>
      </trkpt>
      <trkpt lat="43.787856" lon="6.380318">
        <ele>731.618818</ele>
        <time>2022-07-27T20:39:27.509Z</time>
      </trkpt>
      <trkpt lat="43.787399" lon="6.380363">
        <ele>729.748131</ele>
        <time>2022-07-27T20:39:40.624Z</time>
      </trkpt>
      <trkpt lat="43.786937" lon="6.380616">
        <ele>727.719673</ele>
        <time>2022-07-27T20:39:48.029Z</time>
      </trkpt>
      <trkpt lat="43.786894" lon="6.380756">
        <ele>727.271203</ele>
        <time>2022-07-27T20:39:49.898Z</time>
      </trkpt>
      <trkpt lat="43.786927" lon="6.380926">
        <ele>726.752300</ele>
        <time>2022-07-27T20:39:57.765Z</time>
      </trkpt>
      <trkpt lat="43.787017" lon="6.381010">
        <ele>726.309187</ele>
        <time>2022-07-27T20:39:59.141Z</time>
      </trkpt>
      <trkpt lat="43.787131" lon="6.381001">
        <ele>725.842958</ele>
        <time>2022-07-27T20:40:00.765Z</time>
      </trkpt>
      <trkpt lat="43.787365" lon="6.380732">
        <ele>724.601347</ele>
        <time>2022-07-27T20:40:05.104Z</time>
      </trkpt>
      <trkpt lat="43.787677" lon="6.380579">
        <ele>722.169060</ele>
        <time>2022-07-27T20:40:09.743Z</time>
      </trkpt>
      <trkpt lat="43.787857" lon="6.380621">
        <ele>720.748493</ele>
        <time>2022-07-27T20:40:12.912Z</time>
      </trkpt>
      <trkpt lat="43.788347" lon="6.381030">
        <ele>716.296320</ele>
        <time>2022-07-27T20:40:20.588Z</time>
      </trkpt>
      <trkpt lat="43.788693" lon="6.381086">
        <ele>713.585291</ele>
        <time>2022-07-27T20:40:25.446Z</time>
      </trkpt>
      <trkpt lat="43.788888" lon="6.381016">
        <ele>712.017594</ele>
        <time>2022-07-27T20:40:28.338Z</time>
      </trkpt>
      <trkpt lat="43.789483" lon="6.380028">
        <ele>706.933282</ele>
        <time>2022-07-27T20:40:42.325Z</time>
      </trkpt>
      <trkpt lat="43.789708" lon="6.379791">
        <ele>705.567435</ele>
        <time>2022-07-27T20:40:46.619Z</time>
      </trkpt>
      <trkpt lat="43.789918" lon="6.379174">
        <ele>703.187962</ele>
        <time>2022-07-27T20:40:54.497Z</time>
      </trkpt>
      <trkpt lat="43.790372" lon="6.378808">
        <ele>700.693186</ele>
        <time>2022-07-27T20:41:02.701Z</time>
      </trkpt>
      <trkpt lat="43.790574" lon="6.378550">
        <ele>699.417790</ele>
        <time>2022-07-27T20:41:06.767Z</time>
      </trkpt>
      <trkpt lat="43.791061" lon="6.378231">
        <ele>696.917191</ele>
        <time>2022-07-27T20:41:14.576Z</time>
      </trkpt>
      <trkpt lat="43.791390" lon="6.377687">
        <ele>694.539136</ele>
        <time>2022-07-27T20:41:22.318Z</time>
      </trkpt>
      <trkpt lat="43.791771" lon="6.377569">
        <ele>693.479764</ele>
        <time>2022-07-27T20:41:28.813Z</time>
      </trkpt>
      <trkpt lat="43.791899" lon="6.377615">
        <ele>693.547717</ele>
        <time>2022-07-27T20:41:31.247Z</time>
      </trkpt>
      <trkpt lat="43.792011" lon="6.377763">
        <ele>693.627255</ele>
        <time>2022-07-27T20:41:34.334Z</time>
      </trkpt>
      <trkpt lat="43.792076" lon="6.377920">
        <ele>693.694391</ele>
        <time>2022-07-27T20:41:37.135Z</time>
      </trkpt>
      <trkpt lat="43.792131" lon="6.378088">
        <ele>693.762819</ele>
        <time>2022-07-27T20:41:40.159Z</time>
      </trkpt>
      <trkpt lat="43.792164" lon="6.378194">
        <ele>693.805640</ele>
        <time>2022-07-27T20:41:42.110Z</time>
      </trkpt>
      <trkpt lat="43.792677" lon="6.379733">
        <ele>694.518942</ele>
        <time>2022-07-27T20:42:19.085Z</time>
      </trkpt>
      <trkpt lat="43.792696" lon="6.379945">
        <ele>694.661689</ele>
        <time>2022-07-27T20:42:24.983Z</time>
      </trkpt>
      <trkpt lat="43.792564" lon="6.380473">
        <ele>695.035060</ele>
        <time>2022-07-27T20:42:39.686Z</time>
      </trkpt>
      <trkpt lat="43.792567" lon="6.381049">
        <ele>695.419955</ele>
        <time>2022-07-27T20:42:51.249Z</time>
      </trkpt>
      <trkpt lat="43.792527" lon="6.381250">
        <ele>695.559274</ele>
        <time>2022-07-27T20:42:54.500Z</time>
      </trkpt>
      <trkpt lat="43.792225" lon="6.381877">
        <ele>695.913221</ele>
        <time>2022-07-27T20:43:04.327Z</time>
      </trkpt>
      <trkpt lat="43.791821" lon="6.382560">
        <ele>695.222465</ele>
        <time>2022-07-27T20:43:14.928Z</time>
      </trkpt>
      <trkpt lat="43.791750" lon="6.382988">
        <ele>694.878925</ele>
        <time>2022-07-27T20:43:20.262Z</time>
      </trkpt>
      <trkpt lat="43.791754" lon="6.383341">
        <ele>694.602749</ele>
        <time>2022-07-27T20:43:24.610Z</time>
      </trkpt>
      <trkpt lat="43.791803" lon="6.383560">
        <ele>694.423390</ele>
        <time>2022-07-27T20:43:27.717Z</time>
      </trkpt>
      <trkpt lat="43.792040" lon="6.383942">
        <ele>694.140715</ele>
        <time>2022-07-27T20:43:36.334Z</time>
      </trkpt>
      <trkpt lat="43.792217" lon="6.384068">
        <ele>695.480539</ele>
        <time>2022-07-27T20:43:42.692Z</time>
      </trkpt>
      <trkpt lat="43.793021" lon="6.383809">
        <ele>701.038079</ele>
        <time>2022-07-27T20:44:23.111Z</time>
      </trkpt>
      <trkpt lat="43.794509" lon="6.383831">
        <ele>712.381427</ele>
        <time>2022-07-27T20:45:53.359Z</time>
      </trkpt>
      <trkpt lat="43.795699" lon="6.382564">
        <ele>724.435847</ele>
        <time>2022-07-27T20:47:15.330Z</time>
      </trkpt>
      <trkpt lat="43.795908" lon="6.382451">
        <ele>725.947655</ele>
        <time>2022-07-27T20:47:24.659Z</time>
      </trkpt>
      <trkpt lat="43.796201" lon="6.382723">
        <ele>728.324323</ele>
        <time>2022-07-27T20:47:39.258Z</time>
      </trkpt>
      <trkpt lat="43.796238" lon="6.382827">
        <ele>728.888279</ele>
        <time>2022-07-27T20:47:42.681Z</time>
      </trkpt>
      <trkpt lat="43.796213" lon="6.383026">
        <ele>729.870752</ele>
        <time>2022-07-27T20:47:48.812Z</time>
      </trkpt>
      <trkpt lat="43.796007" lon="6.383432">
        <ele>732.284589</ele>
        <time>2022-07-27T20:48:06.718Z</time>
      </trkpt>
      <trkpt lat="43.795991" lon="6.383756">
        <ele>733.905363</ele>
        <time>2022-07-27T20:48:19.784Z</time>
      </trkpt>
      <trkpt lat="43.796186" lon="6.383964">
        <ele>735.892171</ele>
        <time>2022-07-27T20:48:34.145Z</time>
      </trkpt>
      <trkpt lat="43.796670" lon="6.384294">
        <ele>740.247124</ele>
        <time>2022-07-27T20:49:04.622Z</time>
      </trkpt>
      <trkpt lat="43.796700" lon="6.384528">
        <ele>741.632029</ele>
        <time>2022-07-27T20:49:14.536Z</time>
      </trkpt>
      <trkpt lat="43.796614" lon="6.384990">
        <ele>744.412277</ele>
        <time>2022-07-27T20:49:33.782Z</time>
      </trkpt>
      <trkpt lat="43.796453" lon="6.385249">
        <ele>746.404070</ele>
        <time>2022-07-27T20:49:46.853Z</time>
      </trkpt>
      <trkpt lat="43.796181" lon="6.385534">
        <ele>748.697830</ele>
        <time>2022-07-27T20:50:04.708Z</time>
      </trkpt>
      <trkpt lat="43.796143" lon="6.385704">
        <ele>749.248829</ele>
        <time>2022-07-27T20:50:11.915Z</time>
      </trkpt>
      <trkpt lat="43.796159" lon="6.386351">
        <ele>751.253186</ele>
        <time>2022-07-27T20:50:34.258Z</time>
      </trkpt>
      <trkpt lat="43.796026" lon="6.386584">
        <ele>752.172896</ele>
        <time>2022-07-27T20:50:42.974Z</time>
      </trkpt>
      <trkpt lat="43.795557" lon="6.386826">
        <ele>754.319618</ele>
        <time>2022-07-27T20:50:59.162Z</time>
      </trkpt>
      <trkpt lat="43.795398" lon="6.386733">
        <ele>755.059923</ele>
        <time>2022-07-27T20:51:04.278Z</time>
      </trkpt>
      <trkpt lat="43.795152" lon="6.386438">
        <ele>756.207600</ele>
        <time>2022-07-27T20:51:12.489Z</time>
      </trkpt>
      <trkpt lat="43.795005" lon="6.386438">
        <ele>756.560704</ele>
        <time>2022-07-27T20:51:15.712Z</time>
      </trkpt>
      <trkpt lat="43.794891" lon="6.386536">
        <ele>756.882975</ele>
        <time>2022-07-27T20:51:19.429Z</time>
      </trkpt>
      <trkpt lat="43.794779" lon="6.386867">
        <ele>757.516813</ele>
        <time>2022-07-27T20:51:27.391Z</time>
      </trkpt>
      <trkpt lat="43.794741" lon="6.387276">
        <ele>758.231816</ele>
        <time>2022-07-27T20:51:37.076Z</time>
      </trkpt>
      <trkpt lat="43.794991" lon="6.388185">
        <ele>759.918428</ele>
        <time>2022-07-27T20:52:02.755Z</time>
      </trkpt>
      <trkpt lat="43.795014" lon="6.388468">
        <ele>760.263539</ele>
        <time>2022-07-27T20:52:09.343Z</time>
      </trkpt>
      <trkpt lat="43.794975" lon="6.388741">
        <ele>760.386783</ele>
        <time>2022-07-27T20:52:16.398Z</time>
      </trkpt>
      <trkpt lat="43.794506" lon="6.389100">
        <ele>760.715525</ele>
        <time>2022-07-27T20:52:31.941Z</time>
      </trkpt>
      <trkpt lat="43.794167" lon="6.389614">
        <ele>761.023863</ele>
        <time>2022-07-27T20:52:44.209Z</time>
      </trkpt>
      <trkpt lat="43.793788" lon="6.390414">
        <ele>760.930301</ele>
        <time>2022-07-27T20:52:57.056Z</time>
      </trkpt>
      <trkpt lat="43.793603" lon="6.391112">
        <ele>759.965021</ele>
        <time>2022-07-27T20:53:05.359Z</time>
      </trkpt>
      <trkpt lat="43.793502" lon="6.392468">
        <ele>758.195342</ele>
        <time>2022-07-27T20:53:21.902Z</time>
      </trkpt>
      <trkpt lat="43.793668" lon="6.393076">
        <ele>760.570535</ele>
        <time>2022-07-27T20:53:37.548Z</time>
      </trkpt>
      <trkpt lat="43.793667" lon="6.393592">
        <ele>762.855254</ele>
        <time>2022-07-27T20:53:55.558Z</time>
      </trkpt>
      <trkpt lat="43.793803" lon="6.393934">
        <ele>764.584121</ele>
        <time>2022-07-27T20:54:10.488Z</time>
      </trkpt>
      <trkpt lat="43.793956" lon="6.394986">
        <ele>769.264640</ele>
        <time>2022-07-27T20:54:54.983Z</time>
      </trkpt>
      <trkpt lat="43.794093" lon="6.395532">
        <ele>771.003261</ele>
        <time>2022-07-27T20:55:20.336Z</time>
      </trkpt>
      <trkpt lat="43.794077" lon="6.396460">
        <ele>773.795247</ele>
        <time>2022-07-27T20:55:58.923Z</time>
      </trkpt>
      <trkpt lat="43.794142" lon="6.396650">
        <ele>774.427653</ele>
        <time>2022-07-27T20:56:04.732Z</time>
      </trkpt>
      <trkpt lat="43.794487" lon="6.397051">
        <ele>776.304152</ele>
        <time>2022-07-27T20:56:12.788Z</time>
      </trkpt>
      <trkpt lat="43.794528" lon="6.397192">
        <ele>776.319696</ele>
        <time>2022-07-27T20:56:14.237Z</time>
      </trkpt>
      <trkpt lat="43.794486" lon="6.397554">
        <ele>774.230224</ele>
        <time>2022-07-27T20:56:17.998Z</time>
      </trkpt>
      <trkpt lat="43.794503" lon="6.398042">
        <ele>771.445936</ele>
        <time>2022-07-27T20:56:22.950Z</time>
      </trkpt>
      <trkpt lat="43.794443" lon="6.398219">
        <ele>770.331541</ele>
        <time>2022-07-27T20:56:24.749Z</time>
      </trkpt>
      <trkpt lat="43.794277" lon="6.398383">
        <ele>768.721840</ele>
        <time>2022-07-27T20:56:29.392Z</time>
      </trkpt>
      <trkpt lat="43.794182" lon="6.398480">
        <ele>767.790106</ele>
        <time>2022-07-27T20:56:30.892Z</time>
      </trkpt>
      <trkpt lat="43.794040" lon="6.398840">
        <ele>765.452165</ele>
        <time>2022-07-27T20:56:35.351Z</time>
      </trkpt>
      <trkpt lat="43.794035" lon="6.399068">
        <ele>764.152212</ele>
        <time>2022-07-27T20:56:37.684Z</time>
      </trkpt>
      <trkpt lat="43.794085" lon="6.399180">
        <ele>763.401725</ele>
        <time>2022-07-27T20:56:39.241Z</time>
      </trkpt>
      <trkpt lat="43.793884" lon="6.399156">
        <ele>761.918349</ele>
        <time>2022-07-27T20:56:43.862Z</time>
      </trkpt>
      <trkpt lat="43.794085" lon="6.399180">
        <ele>760.616297</ele>
        <time>2022-07-27T20:56:50.480Z</time>
      </trkpt>
      <trkpt lat="43.794366" lon="6.399426">
        <ele>758.470983</ele>
        <time>2022-07-27T20:56:54.932Z</time>
      </trkpt>
      <trkpt lat="43.794523" lon="6.399757">
        <ele>756.625854</ele>
        <time>2022-07-27T20:56:58.749Z</time>
      </trkpt>
      <trkpt lat="43.794677" lon="6.400167">
        <ele>754.472697</ele>
        <time>2022-07-27T20:57:04.072Z</time>
      </trkpt>
      <trkpt lat="43.794936" lon="6.400446">
        <ele>752.355269</ele>
        <time>2022-07-27T20:57:09.061Z</time>
      </trkpt>
      <trkpt lat="43.794947" lon="6.400739">
        <ele>750.988456</ele>
        <time>2022-07-27T20:57:16.759Z</time>
      </trkpt>
      <trkpt lat="43.794894" lon="6.400970">
        <ele>749.878750</ele>
        <time>2022-07-27T20:57:19.643Z</time>
      </trkpt>
      <trkpt lat="43.794797" lon="6.401148">
        <ele>748.861260</ele>
        <time>2022-07-27T20:57:22.096Z</time>
      </trkpt>
      <trkpt lat="43.794476" lon="6.401433">
        <ele>746.451572</ele>
        <time>2022-07-27T20:57:27.755Z</time>
      </trkpt>
      <trkpt lat="43.794198" lon="6.401829">
        <ele>743.931450</ele>
        <time>2022-07-27T20:57:33.499Z</time>
      </trkpt>
      <trkpt lat="43.794160" lon="6.401930">
        <ele>743.411836</ele>
        <time>2022-07-27T20:57:34.649Z</time>
      </trkpt>
      <trkpt lat="43.794141" lon="6.402627">
        <ele>740.229739</ele>
        <time>2022-07-27T20:57:41.684Z</time>
      </trkpt>
      <trkpt lat="43.794094" lon="6.402857">
        <ele>738.759146</ele>
        <time>2022-07-27T20:57:44.089Z</time>
      </trkpt>
      <trkpt lat="43.793601" lon="6.403693">
        <ele>727.443808</ele>
        <time>2022-07-27T20:57:54.783Z</time>
      </trkpt>
      <trkpt lat="43.793620" lon="6.403992">
        <ele>724.297606</ele>
        <time>2022-07-27T20:57:57.695Z</time>
      </trkpt>
      <trkpt lat="43.793865" lon="6.404566">
        <ele>717.307877</ele>
        <time>2022-07-27T20:58:03.836Z</time>
      </trkpt>
      <trkpt lat="43.793886" lon="6.404725">
        <ele>715.613597</ele>
        <time>2022-07-27T20:58:05.315Z</time>
      </trkpt>
      <trkpt lat="43.793800" lon="6.405252">
        <ele>708.386476</ele>
        <time>2022-07-27T20:58:10.258Z</time>
      </trkpt>
      <trkpt lat="43.793762" lon="6.405854">
        <ele>699.107436</ele>
        <time>2022-07-27T20:58:15.767Z</time>
      </trkpt>
      <trkpt lat="43.793455" lon="6.406394">
        <ele>688.552715</ele>
        <time>2022-07-27T20:58:22.023Z</time>
      </trkpt>
      <trkpt lat="43.793387" lon="6.406523">
        <ele>686.099951</ele>
        <time>2022-07-27T20:58:23.475Z</time>
      </trkpt>
      <trkpt lat="43.793208" lon="6.406955">
        <ele>678.451319</ele>
        <time>2022-07-27T20:58:28.052Z</time>
      </trkpt>
      <trkpt lat="43.793183" lon="6.407074">
        <ele>676.548230</ele>
        <time>2022-07-27T20:58:29.228Z</time>
      </trkpt>
      <trkpt lat="43.793265" lon="6.407271">
        <ele>674.251663</ele>
        <time>2022-07-27T20:58:31.320Z</time>
      </trkpt>
      <trkpt lat="43.793495" lon="6.407491">
        <ele>671.866243</ele>
        <time>2022-07-27T20:58:34.923Z</time>
      </trkpt>
      <trkpt lat="43.793954" lon="6.407797">
        <ele>667.518839</ele>
        <time>2022-07-27T20:58:41.609Z</time>
      </trkpt>
      <trkpt lat="43.794105" lon="6.407773">
        <ele>666.221651</ele>
        <time>2022-07-27T20:58:43.954Z</time>
      </trkpt>
      <trkpt lat="43.794414" lon="6.407396">
        <ele>662.707527</ele>
        <time>2022-07-27T20:58:52.689Z</time>
      </trkpt>
      <trkpt lat="43.794637" lon="6.407351">
        <ele>660.784212</ele>
        <time>2022-07-27T20:59:00.823Z</time>
      </trkpt>
      <trkpt lat="43.795610" lon="6.407668">
        <ele>655.220305</ele>
        <time>2022-07-27T20:59:16.159Z</time>
      </trkpt>
      <trkpt lat="43.796028" lon="6.407954">
        <ele>652.826342</ele>
        <time>2022-07-27T20:59:23.168Z</time>
      </trkpt>
      <trkpt lat="43.796150" lon="6.408082">
        <ele>652.040488</ele>
        <time>2022-07-27T20:59:25.797Z</time>
      </trkpt>
      <trkpt lat="43.796166" lon="6.408184">
        <ele>651.653598</ele>
        <time>2022-07-27T20:59:26.751Z</time>
      </trkpt>
      <trkpt lat="43.795978" lon="6.408799">
        <ele>649.824996</ele>
        <time>2022-07-27T20:59:33.638Z</time>
      </trkpt>
      <trkpt lat="43.795908" lon="6.409313">
        <ele>648.860384</ele>
        <time>2022-07-27T20:59:39.073Z</time>
      </trkpt>
      <trkpt lat="43.795988" lon="6.409568">
        <ele>648.347630</ele>
        <time>2022-07-27T20:59:41.895Z</time>
      </trkpt>
      <trkpt lat="43.796206" lon="6.409724">
        <ele>647.720755</ele>
        <time>2022-07-27T20:59:45.850Z</time>
      </trkpt>
      <trkpt lat="43.796253" lon="6.409876">
        <ele>647.415809</ele>
        <time>2022-07-27T20:59:47.435Z</time>
      </trkpt>
      <trkpt lat="43.796184" lon="6.410221">
        <ele>646.755612</ele>
        <time>2022-07-27T20:59:52.018Z</time>
      </trkpt>
      <trkpt lat="43.796274" lon="6.410610">
        <ele>646.002294</ele>
        <time>2022-07-27T21:00:05.425Z</time>
      </trkpt>
      <trkpt lat="43.796293" lon="6.411013">
        <ele>648.803845</ele>
        <time>2022-07-27T21:00:24.756Z</time>
      </trkpt>
      <trkpt lat="43.796581" lon="6.411487">
        <ele>654.274374</ele>
        <time>2022-07-27T21:00:56.451Z</time>
      </trkpt>
      <trkpt lat="43.796746" lon="6.412011">
        <ele>659.322072</ele>
        <time>2022-07-27T21:01:28.389Z</time>
      </trkpt>
      <trkpt lat="43.797038" lon="6.412413">
        <ele>664.357608</ele>
        <time>2022-07-27T21:02:03.141Z</time>
      </trkpt>
      <trkpt lat="43.797122" lon="6.412552">
        <ele>665.958241</ele>
        <time>2022-07-27T21:02:14.437Z</time>
      </trkpt>
      <trkpt lat="43.797128" lon="6.412688">
        <ele>667.161272</ele>
        <time>2022-07-27T21:02:22.660Z</time>
      </trkpt>
      <trkpt lat="43.796795" lon="6.413322">
        <ele>672.108985</ele>
        <time>2022-07-27T21:03:05.667Z</time>
      </trkpt>
      <trkpt lat="43.796769" lon="6.413889">
        <ele>675.530278</ele>
        <time>2022-07-27T21:03:35.951Z</time>
      </trkpt>
      <trkpt lat="43.796623" lon="6.414203">
        <ele>677.779518</ele>
        <time>2022-07-27T21:03:52.398Z</time>
      </trkpt>
      <trkpt lat="43.796582" lon="6.414419">
        <ele>679.124474</ele>
        <time>2022-07-27T21:04:00.596Z</time>
      </trkpt>
      <trkpt lat="43.796178" lon="6.414881">
        <ele>682.364874</ele>
        <time>2022-07-27T21:04:13.030Z</time>
      </trkpt>
      <trkpt lat="43.796169" lon="6.415275">
        <ele>680.390642</ele>
        <time>2022-07-27T21:04:17.559Z</time>
      </trkpt>
      <trkpt lat="43.795997" lon="6.415571">
        <ele>678.487520</ele>
        <time>2022-07-27T21:04:21.595Z</time>
      </trkpt>
      <trkpt lat="43.795861" lon="6.415988">
        <ele>676.195788</ele>
        <time>2022-07-27T21:04:26.243Z</time>
      </trkpt>
      <trkpt lat="43.795477" lon="6.416604">
        <ele>672.119426</ele>
        <time>2022-07-27T21:04:34.220Z</time>
      </trkpt>
      <trkpt lat="43.794937" lon="6.417307">
        <ele>666.354470</ele>
        <time>2022-07-27T21:04:44.177Z</time>
      </trkpt>
      <trkpt lat="43.794543" lon="6.418032">
        <ele>660.980798</ele>
        <time>2022-07-27T21:04:53.128Z</time>
      </trkpt>
      <trkpt lat="43.794205" lon="6.418416">
        <ele>657.394953</ele>
        <time>2022-07-27T21:04:59.329Z</time>
      </trkpt>
      <trkpt lat="43.793602" lon="6.420051">
        <ele>653.801895</ele>
        <time>2022-07-27T21:05:22.157Z</time>
      </trkpt>
      <trkpt lat="43.793301" lon="6.420396">
        <ele>653.154873</ele>
        <time>2022-07-27T21:05:31.455Z</time>
      </trkpt>
      <trkpt lat="43.793030" lon="6.420927">
        <ele>653.055737</ele>
        <time>2022-07-27T21:05:41.898Z</time>
      </trkpt>
      <trkpt lat="43.793004" lon="6.421154">
        <ele>653.430613</ele>
        <time>2022-07-27T21:05:45.423Z</time>
      </trkpt>
      <trkpt lat="43.792933" lon="6.421320">
        <ele>653.745324</ele>
        <time>2022-07-27T21:05:48.768Z</time>
      </trkpt>
      <trkpt lat="43.792420" lon="6.421892">
        <ele>655.233279</ele>
        <time>2022-07-27T21:06:08.262Z</time>
      </trkpt>
      <trkpt lat="43.792109" lon="6.422051">
        <ele>655.982321</ele>
        <time>2022-07-27T21:06:20.172Z</time>
      </trkpt>
      <trkpt lat="43.791937" lon="6.422507">
        <ele>656.899172</ele>
        <time>2022-07-27T21:06:35.847Z</time>
      </trkpt>
      <trkpt lat="43.791635" lon="6.422882">
        <ele>658.580135</ele>
        <time>2022-07-27T21:06:52.783Z</time>
      </trkpt>
      <trkpt lat="43.790996" lon="6.423991">
        <ele>662.825635</ele>
        <time>2022-07-27T21:07:35.198Z</time>
      </trkpt>
      <trkpt lat="43.790917" lon="6.424204">
        <ele>663.542124</ele>
        <time>2022-07-27T21:07:42.607Z</time>
      </trkpt>
      <trkpt lat="43.790925" lon="6.424608">
        <ele>664.004416</ele>
        <time>2022-07-27T21:07:53.398Z</time>
      </trkpt>
      <trkpt lat="43.791347" lon="6.426360">
        <ele>662.263356</ele>
        <time>2022-07-27T21:08:19.022Z</time>
      </trkpt>
      <trkpt lat="43.791362" lon="6.426919">
        <ele>661.276070</ele>
        <time>2022-07-27T21:08:25.068Z</time>
      </trkpt>
      <trkpt lat="43.791615" lon="6.428011">
        <ele>655.147920</ele>
        <time>2022-07-27T21:08:36.948Z</time>
      </trkpt>
      <trkpt lat="43.791596" lon="6.428249">
        <ele>653.868443</ele>
        <time>2022-07-27T21:08:39.338Z</time>
      </trkpt>
      <trkpt lat="43.791520" lon="6.428483">
        <ele>652.497363</ele>
        <time>2022-07-27T21:08:41.910Z</time>
      </trkpt>
      <trkpt lat="43.791525" lon="6.428673">
        <ele>651.481445</ele>
        <time>2022-07-27T21:08:43.797Z</time>
      </trkpt>
      <trkpt lat="43.791660" lon="6.429011">
        <ele>649.417357</ele>
        <time>2022-07-27T21:08:47.636Z</time>
      </trkpt>
      <trkpt lat="43.792020" lon="6.429504">
        <ele>645.773468</ele>
        <time>2022-07-27T21:08:54.640Z</time>
      </trkpt>
      <trkpt lat="43.792297" lon="6.430080">
        <ele>642.209131</ele>
        <time>2022-07-27T21:09:01.664Z</time>
      </trkpt>
      <trkpt lat="43.792610" lon="6.431067">
        <ele>636.657331</ele>
        <time>2022-07-27T21:09:12.867Z</time>
      </trkpt>
      <trkpt lat="43.792575" lon="6.431335">
        <ele>635.547611</ele>
        <time>2022-07-27T21:09:15.785Z</time>
      </trkpt>
      <trkpt lat="43.792230" lon="6.431854">
        <ele>634.366544</ele>
        <time>2022-07-27T21:09:23.987Z</time>
      </trkpt>
      <trkpt lat="43.792148" lon="6.432132">
        <ele>633.863819</ele>
        <time>2022-07-27T21:09:27.559Z</time>
      </trkpt>
      <trkpt lat="43.792161" lon="6.432461">
        <ele>633.312249</ele>
        <time>2022-07-27T21:09:31.968Z</time>
      </trkpt>
      <trkpt lat="43.792408" lon="6.432698">
        <ele>632.615471</ele>
        <time>2022-07-27T21:09:37.561Z</time>
      </trkpt>
      <trkpt lat="43.792451" lon="6.432744">
        <ele>632.489482</ele>
        <time>2022-07-27T21:09:38.516Z</time>
      </trkpt>
      <trkpt lat="43.792493" lon="6.432829">
        <ele>632.317050</ele>
        <time>2022-07-27T21:09:39.829Z</time>
      </trkpt>
      <trkpt lat="43.792590" lon="6.433205">
        <ele>631.648642</ele>
        <time>2022-07-27T21:09:45.949Z</time>
      </trkpt>
      <trkpt lat="43.793086" lon="6.433617">
        <ele>632.127140</ele>
        <time>2022-07-27T21:09:59.092Z</time>
      </trkpt>
      <trkpt lat="43.793632" lon="6.433569">
        <ele>632.766289</ele>
        <time>2022-07-27T21:10:14.456Z</time>
      </trkpt>
      <trkpt lat="43.793792" lon="6.433649">
        <ele>632.965011</ele>
        <time>2022-07-27T21:10:19.465Z</time>
      </trkpt>
      <trkpt lat="43.793853" lon="6.433761">
        <ele>633.083328</ele>
        <time>2022-07-27T21:10:22.423Z</time>
      </trkpt>
      <trkpt lat="43.793968" lon="6.434238">
        <ele>633.507418</ele>
        <time>2022-07-27T21:10:33.362Z</time>
      </trkpt>
      <trkpt lat="43.794370" lon="6.434997">
        <ele>634.544856</ele>
        <time>2022-07-27T21:10:54.884Z</time>
      </trkpt>
      <trkpt lat="43.794626" lon="6.435353">
        <ele>635.119849</ele>
        <time>2022-07-27T21:11:06.181Z</time>
      </trkpt>
      <trkpt lat="43.795281" lon="6.435954">
        <ele>636.365236</ele>
        <time>2022-07-27T21:11:27.238Z</time>
      </trkpt>
      <trkpt lat="43.795701" lon="6.436414">
        <ele>636.360242</ele>
        <time>2022-07-27T21:11:39.267Z</time>
      </trkpt>
      <trkpt lat="43.795975" lon="6.437214">
        <ele>636.210716</ele>
        <time>2022-07-27T21:11:53.118Z</time>
      </trkpt>
      <trkpt lat="43.796011" lon="6.437331">
        <ele>636.189239</ele>
        <time>2022-07-27T21:11:54.970Z</time>
      </trkpt>
      <trkpt lat="43.796037" lon="6.437422">
        <ele>636.172712</ele>
        <time>2022-07-27T21:11:56.396Z</time>
      </trkpt>
      <trkpt lat="43.796173" lon="6.437844">
        <ele>636.094672</ele>
        <time>2022-07-27T21:12:02.948Z</time>
      </trkpt>
      <trkpt lat="43.796329" lon="6.438051">
        <ele>636.051679</ele>
        <time>2022-07-27T21:12:07.201Z</time>
      </trkpt>
      <trkpt lat="43.796789" lon="6.438415">
        <ele>636.110619</ele>
        <time>2022-07-27T21:12:17.744Z</time>
      </trkpt>
      <trkpt lat="43.797019" lon="6.438448">
        <ele>636.136345</ele>
        <time>2022-07-27T21:12:22.569Z</time>
      </trkpt>
      <trkpt lat="43.798266" lon="6.438202">
        <ele>636.785324</ele>
        <time>2022-07-27T21:12:53.166Z</time>
      </trkpt>
      <trkpt lat="43.799377" lon="6.437840">
        <ele>639.294790</ele>
        <time>2022-07-27T21:13:28.108Z</time>
      </trkpt>
      <trkpt lat="43.799609" lon="6.437950">
        <ele>639.833946</ele>
        <time>2022-07-27T21:13:36.772Z</time>
      </trkpt>
      <trkpt lat="43.800009" lon="6.438388">
        <ele>641.467386</ele>
        <time>2022-07-27T21:13:55.912Z</time>
      </trkpt>
      <trkpt lat="43.800220" lon="6.438426">
        <ele>642.254521</ele>
        <time>2022-07-27T21:14:04.019Z</time>
      </trkpt>
      <trkpt lat="43.801242" lon="6.437923">
        <ele>646.266734</ele>
        <time>2022-07-27T21:14:45.182Z</time>
      </trkpt>
      <trkpt lat="43.802726" lon="6.437743">
        <ele>650.722382</ele>
        <time>2022-07-27T21:15:38.097Z</time>
      </trkpt>
      <trkpt lat="43.803389" lon="6.437930">
        <ele>652.285017</ele>
        <time>2022-07-27T21:15:58.252Z</time>
      </trkpt>
      <trkpt lat="43.804155" lon="6.438464">
        <ele>653.111825</ele>
        <time>2022-07-27T21:16:21.498Z</time>
      </trkpt>
      <trkpt lat="43.804244" lon="6.438590">
        <ele>653.234514</ele>
        <time>2022-07-27T21:16:24.739Z</time>
      </trkpt>
      <trkpt lat="43.804351" lon="6.439511">
        <ele>653.843884</ele>
        <time>2022-07-27T21:16:40.241Z</time>
      </trkpt>
      <trkpt lat="43.804291" lon="6.440644">
        <ele>654.148491</ele>
        <time>2022-07-27T21:16:58.070Z</time>
      </trkpt>
      <trkpt lat="43.804361" lon="6.440881">
        <ele>654.217153</ele>
        <time>2022-07-27T21:17:02.332Z</time>
      </trkpt>
      <trkpt lat="43.804482" lon="6.441001">
        <ele>654.272435</ele>
        <time>2022-07-27T21:17:06.070Z</time>
      </trkpt>
      <trkpt lat="43.804621" lon="6.441019">
        <ele>654.324301</ele>
        <time>2022-07-27T21:17:09.408Z</time>
      </trkpt>
      <trkpt lat="43.804970" lon="6.440783">
        <ele>654.468579</ele>
        <time>2022-07-27T21:17:17.998Z</time>
      </trkpt>
      <trkpt lat="43.805308" lon="6.440236">
        <ele>656.256917</ele>
        <time>2022-07-27T21:17:32.219Z</time>
      </trkpt>
      <trkpt lat="43.805709" lon="6.439939">
        <ele>657.970297</ele>
        <time>2022-07-27T21:17:50.788Z</time>
      </trkpt>
      <trkpt lat="43.805609" lon="6.440790">
        <ele>660.315070</ele>
        <time>2022-07-27T21:18:15.666Z</time>
      </trkpt>
      <trkpt lat="43.805562" lon="6.441376">
        <ele>662.084100</ele>
        <time>2022-07-27T21:18:34.997Z</time>
      </trkpt>
      <trkpt lat="43.805453" lon="6.441599">
        <ele>663.002109</ele>
        <time>2022-07-27T21:18:45.517Z</time>
      </trkpt>
      <trkpt lat="43.805017" lon="6.441996">
        <ele>665.466093</ele>
        <time>2022-07-27T21:19:08.132Z</time>
      </trkpt>
      <trkpt lat="43.804571" lon="6.442199">
        <ele>667.683222</ele>
        <time>2022-07-27T21:19:29.589Z</time>
      </trkpt>
      <trkpt lat="43.804127" lon="6.442257">
        <ele>669.754606</ele>
        <time>2022-07-27T21:19:47.171Z</time>
      </trkpt>
      <trkpt lat="43.803941" lon="6.442128">
        <ele>669.589982</ele>
        <time>2022-07-27T21:19:51.370Z</time>
      </trkpt>
      <trkpt lat="43.803887" lon="6.442021">
        <ele>669.515401</ele>
        <time>2022-07-27T21:19:53.370Z</time>
      </trkpt>
      <trkpt lat="43.803820" lon="6.441512">
        <ele>669.219857</ele>
        <time>2022-07-27T21:20:00.754Z</time>
      </trkpt>
      <trkpt lat="43.803669" lon="6.440886">
        <ele>668.842834</ele>
        <time>2022-07-27T21:20:09.856Z</time>
      </trkpt>
      <trkpt lat="43.803644" lon="6.440638">
        <ele>668.699798</ele>
        <time>2022-07-27T21:20:13.118Z</time>
      </trkpt>
      <trkpt lat="43.803678" lon="6.440182">
        <ele>668.437937</ele>
        <time>2022-07-27T21:20:18.630Z</time>
      </trkpt>
      <trkpt lat="43.803629" lon="6.439856">
        <ele>668.383590</ele>
        <time>2022-07-27T21:20:22.563Z</time>
      </trkpt>
      <trkpt lat="43.803472" lon="6.439576">
        <ele>668.492631</ele>
        <time>2022-07-27T21:20:26.829Z</time>
      </trkpt>
      <trkpt lat="43.803071" lon="6.439135">
        <ele>668.710780</ele>
        <time>2022-07-27T21:20:35.609Z</time>
      </trkpt>
      <trkpt lat="43.802677" lon="6.439122">
        <ele>668.878714</ele>
        <time>2022-07-27T21:20:44.602Z</time>
      </trkpt>
      <trkpt lat="43.801749" lon="6.439796">
        <ele>672.431416</ele>
        <time>2022-07-27T21:21:29.021Z</time>
      </trkpt>
      <trkpt lat="43.800817" lon="6.439785">
        <ele>678.367531</ele>
        <time>2022-07-27T21:22:18.711Z</time>
      </trkpt>
      <trkpt lat="43.800493" lon="6.439932">
        <ele>680.538906</ele>
        <time>2022-07-27T21:22:36.091Z</time>
      </trkpt>
      <trkpt lat="43.800318" lon="6.440169">
        <ele>681.065457</ele>
        <time>2022-07-27T21:22:47.366Z</time>
      </trkpt>
      <trkpt lat="43.800100" lon="6.441009">
        <ele>682.418054</ele>
        <time>2022-07-27T21:23:11.468Z</time>
      </trkpt>
      <trkpt lat="43.799934" lon="6.441171">
        <ele>682.844327</ele>
        <time>2022-07-27T21:23:17.300Z</time>
      </trkpt>
      <trkpt lat="43.799500" lon="6.441130">
        <ele>683.757580</ele>
        <time>2022-07-27T21:23:26.569Z</time>
      </trkpt>
      <trkpt lat="43.799148" lon="6.441405">
        <ele>684.120790</ele>
        <time>2022-07-27T21:23:33.627Z</time>
      </trkpt>
      <trkpt lat="43.798737" lon="6.441442">
        <ele>683.442547</ele>
        <time>2022-07-27T21:23:40.620Z</time>
      </trkpt>
      <trkpt lat="43.798021" lon="6.441683">
        <ele>682.229174</ele>
        <time>2022-07-27T21:23:52.961Z</time>
      </trkpt>
      <trkpt lat="43.797944" lon="6.441814">
        <ele>682.028368</ele>
        <time>2022-07-27T21:23:55.105Z</time>
      </trkpt>
      <trkpt lat="43.797900" lon="6.442091">
        <ele>681.691247</ele>
        <time>2022-07-27T21:23:58.775Z</time>
      </trkpt>
      <trkpt lat="43.798011" lon="6.442810">
        <ele>682.373253</ele>
        <time>2022-07-27T21:24:11.329Z</time>
      </trkpt>
      <trkpt lat="43.797915" lon="6.443117">
        <ele>683.090803</ele>
        <time>2022-07-27T21:24:19.377Z</time>
      </trkpt>
      <trkpt lat="43.797728" lon="6.443390">
        <ele>683.897988</ele>
        <time>2022-07-27T21:24:29.982Z</time>
      </trkpt>
      <trkpt lat="43.797171" lon="6.443790">
        <ele>685.762156</ele>
        <time>2022-07-27T21:24:57.373Z</time>
      </trkpt>
      <trkpt lat="43.796859" lon="6.444141">
        <ele>686.966164</ele>
        <time>2022-07-27T21:25:10.924Z</time>
      </trkpt>
      <trkpt lat="43.796393" lon="6.444686">
        <ele>688.852225</ele>
        <time>2022-07-27T21:25:31.153Z</time>
      </trkpt>
      <trkpt lat="43.796179" lon="6.444757">
        <ele>689.532779</ele>
        <time>2022-07-27T21:25:37.011Z</time>
      </trkpt>
      <trkpt lat="43.796088" lon="6.444729">
        <ele>689.821073</ele>
        <time>2022-07-27T21:25:42.213Z</time>
      </trkpt>
      <trkpt lat="43.795958" lon="6.444556">
        <ele>690.378562</ele>
        <time>2022-07-27T21:25:47.457Z</time>
      </trkpt>
      <trkpt lat="43.795844" lon="6.444052">
        <ele>691.557615</ele>
        <time>2022-07-27T21:26:01.541Z</time>
      </trkpt>
      <trkpt lat="43.795836" lon="6.443427">
        <ele>693.090589</ele>
        <time>2022-07-27T21:26:16.991Z</time>
      </trkpt>
      <trkpt lat="43.795695" lon="6.443234">
        <ele>693.828724</ele>
        <time>2022-07-27T21:26:23.988Z</time>
      </trkpt>
      <trkpt lat="43.794615" lon="6.442972">
        <ele>697.911800</ele>
        <time>2022-07-27T21:27:02.313Z</time>
      </trkpt>
      <trkpt lat="43.793891" lon="6.442507">
        <ele>701.383257</ele>
        <time>2022-07-27T21:27:38.355Z</time>
      </trkpt>
      <trkpt lat="43.793559" lon="6.442458">
        <ele>702.952503</ele>
        <time>2022-07-27T21:27:52.228Z</time>
      </trkpt>
      <trkpt lat="43.793246" lon="6.442492">
        <ele>704.428134</ele>
        <time>2022-07-27T21:28:04.756Z</time>
      </trkpt>
      <trkpt lat="43.792707" lon="6.442856">
        <ele>707.246437</ele>
        <time>2022-07-27T21:28:26.768Z</time>
      </trkpt>
      <trkpt lat="43.791117" lon="6.442749">
        <ele>717.202626</ele>
        <time>2022-07-27T21:29:37.695Z</time>
      </trkpt>
      <trkpt lat="43.791013" lon="6.442824">
        <ele>717.940550</ele>
        <time>2022-07-27T21:29:46.042Z</time>
      </trkpt>
      <trkpt lat="43.790069" lon="6.444064">
        <ele>729.022830</ele>
        <time>2022-07-27T21:31:05.521Z</time>
      </trkpt>
      <trkpt lat="43.789827" lon="6.444112">
        <ele>731.165183</ele>
        <time>2022-07-27T21:31:21.454Z</time>
      </trkpt>
      <trkpt lat="43.789028" lon="6.444008">
        <ele>735.410081</ele>
        <time>2022-07-27T21:32:01.076Z</time>
      </trkpt>
      <trkpt lat="43.788841" lon="6.443839">
        <ele>735.886332</ele>
        <time>2022-07-27T21:32:10.046Z</time>
      </trkpt>
      <trkpt lat="43.788551" lon="6.443435">
        <ele>736.763606</ele>
        <time>2022-07-27T21:32:22.959Z</time>
      </trkpt>
      <trkpt lat="43.788348" lon="6.443330">
        <ele>737.225805</ele>
        <time>2022-07-27T21:32:26.950Z</time>
      </trkpt>
      <trkpt lat="43.787938" lon="6.443325">
        <ele>738.100367</ele>
        <time>2022-07-27T21:32:34.191Z</time>
      </trkpt>
      <trkpt lat="43.786284" lon="6.443506">
        <ele>737.221612</ele>
        <time>2022-07-27T21:33:03.586Z</time>
      </trkpt>
      <trkpt lat="43.785925" lon="6.443569">
        <ele>737.483880</ele>
        <time>2022-07-27T21:33:15.946Z</time>
      </trkpt>
      <trkpt lat="43.785762" lon="6.443701">
        <ele>738.289091</ele>
        <time>2022-07-27T21:33:22.836Z</time>
      </trkpt>
      <trkpt lat="43.785690" lon="6.443840">
        <ele>738.815798</ele>
        <time>2022-07-27T21:33:27.841Z</time>
      </trkpt>
      <trkpt lat="43.785547" lon="6.445120">
        <ele>742.803525</ele>
        <time>2022-07-27T21:34:07.528Z</time>
      </trkpt>
      <trkpt lat="43.785472" lon="6.445451">
        <ele>743.871613</ele>
        <time>2022-07-27T21:34:19.621Z</time>
      </trkpt>
      <trkpt lat="43.785266" lon="6.445735">
        <ele>744.760997</ele>
        <time>2022-07-27T21:34:31.781Z</time>
      </trkpt>
      <trkpt lat="43.785015" lon="6.445857">
        <ele>744.918438</ele>
        <time>2022-07-27T21:34:42.149Z</time>
      </trkpt>
      <trkpt lat="43.784757" lon="6.445857">
        <ele>745.071141</ele>
        <time>2022-07-27T21:34:51.360Z</time>
      </trkpt>
      <trkpt lat="43.784673" lon="6.445855">
        <ele>745.120866</ele>
        <time>2022-07-27T21:34:53.867Z</time>
      </trkpt>
      <trkpt lat="43.784314" lon="6.445849">
        <ele>745.333364</ele>
        <time>2022-07-27T21:35:03.684Z</time>
      </trkpt>
      <trkpt lat="43.783819" lon="6.445766">
        <ele>745.628480</ele>
        <time>2022-07-27T21:35:12.656Z</time>
      </trkpt>
      <trkpt lat="43.783591" lon="6.445696">
        <ele>745.766703</ele>
        <time>2022-07-27T21:35:16.337Z</time>
      </trkpt>
      <trkpt lat="43.783074" lon="6.445535">
        <ele>742.815475</ele>
        <time>2022-07-27T21:35:24.371Z</time>
      </trkpt>
      <trkpt lat="43.782350" lon="6.445464">
        <ele>738.738049</ele>
        <time>2022-07-27T21:35:34.754Z</time>
      </trkpt>
      <trkpt lat="43.781376" lon="6.444962">
        <ele>733.303838</ele>
        <time>2022-07-27T21:35:50.122Z</time>
      </trkpt>
      <trkpt lat="43.780811" lon="6.444491">
        <ele>730.140559</ele>
        <time>2022-07-27T21:36:00.056Z</time>
      </trkpt>
      <trkpt lat="43.780659" lon="6.444422">
        <ele>729.373268</ele>
        <time>2022-07-27T21:36:02.538Z</time>
      </trkpt>
      <trkpt lat="43.780383" lon="6.444508">
        <ele>728.016233</ele>
        <time>2022-07-27T21:36:06.874Z</time>
      </trkpt>
      <trkpt lat="43.779880" lon="6.445185">
        <ele>725.221279</ele>
        <time>2022-07-27T21:36:18.442Z</time>
      </trkpt>
      <trkpt lat="43.779653" lon="6.445315">
        <ele>724.324308</ele>
        <time>2022-07-27T21:36:22.643Z</time>
      </trkpt>
      <trkpt lat="43.779369" lon="6.445241">
        <ele>723.269068</ele>
        <time>2022-07-27T21:36:27.732Z</time>
      </trkpt>
      <trkpt lat="43.779314" lon="6.445093">
        <ele>722.830218</ele>
        <time>2022-07-27T21:36:29.733Z</time>
      </trkpt>
      <trkpt lat="43.779255" lon="6.444592">
        <ele>721.491889</ele>
        <time>2022-07-27T21:36:35.789Z</time>
      </trkpt>
      <trkpt lat="43.779123" lon="6.444468">
        <ele>720.909471</ele>
        <time>2022-07-27T21:36:38.273Z</time>
      </trkpt>
      <trkpt lat="43.778125" lon="6.444763">
        <ele>713.468243</ele>
        <time>2022-07-27T21:36:52.706Z</time>
      </trkpt>
      <trkpt lat="43.777812" lon="6.444916">
        <ele>710.885930</ele>
        <time>2022-07-27T21:36:57.267Z</time>
      </trkpt>
      <trkpt lat="43.777316" lon="6.445297">
        <ele>706.474644</ele>
        <time>2022-07-27T21:37:05.027Z</time>
      </trkpt>
      <trkpt lat="43.776415" lon="6.446235">
        <ele>702.266067</ele>
        <time>2022-07-27T21:37:21.269Z</time>
      </trkpt>
      <trkpt lat="43.776261" lon="6.446486">
        <ele>701.378076</ele>
        <time>2022-07-27T21:37:25.201Z</time>
      </trkpt>
      <trkpt lat="43.776229" lon="6.446648">
        <ele>700.925282</ele>
        <time>2022-07-27T21:37:30.326Z</time>
      </trkpt>
      <trkpt lat="43.776265" lon="6.447206">
        <ele>700.061485</ele>
        <time>2022-07-27T21:37:44.408Z</time>
      </trkpt>
      <trkpt lat="43.776353" lon="6.447796">
        <ele>701.479604</ele>
        <time>2022-07-27T21:38:01.541Z</time>
      </trkpt>
      <trkpt lat="43.776543" lon="6.448371">
        <ele>702.968088</ele>
        <time>2022-07-27T21:38:20.341Z</time>
      </trkpt>
      <trkpt lat="43.776537" lon="6.448481">
        <ele>703.227753</ele>
        <time>2022-07-27T21:38:26.403Z</time>
      </trkpt>
      <trkpt lat="43.776393" lon="6.448626">
        <ele>703.808161</ele>
        <time>2022-07-27T21:38:32.766Z</time>
      </trkpt>
      <trkpt lat="43.775929" lon="6.448520">
        <ele>705.341256</ele>
        <time>2022-07-27T21:38:46.457Z</time>
      </trkpt>
      <trkpt lat="43.775378" lon="6.448082">
        <ele>705.335182</ele>
        <time>2022-07-27T21:39:01.989Z</time>
      </trkpt>
      <trkpt lat="43.774047" lon="6.447432">
        <ele>705.320295</ele>
        <time>2022-07-27T21:39:27.325Z</time>
      </trkpt>
      <trkpt lat="43.773754" lon="6.447370">
        <ele>706.500668</ele>
        <time>2022-07-27T21:39:36.206Z</time>
      </trkpt>
      <trkpt lat="43.773559" lon="6.447483">
        <ele>707.342471</ele>
        <time>2022-07-27T21:39:42.009Z</time>
      </trkpt>
      <trkpt lat="43.773387" lon="6.447974">
        <ele>708.911762</ele>
        <time>2022-07-27T21:39:58.444Z</time>
      </trkpt>
      <trkpt lat="43.773291" lon="6.448121">
        <ele>709.481713</ele>
        <time>2022-07-27T21:40:05.631Z</time>
      </trkpt>
      <trkpt lat="43.772885" lon="6.448381">
        <ele>711.263048</ele>
        <time>2022-07-27T21:40:26.096Z</time>
      </trkpt>
      <trkpt lat="43.772688" lon="6.448632">
        <ele>712.635153</ele>
        <time>2022-07-27T21:40:40.478Z</time>
      </trkpt>
      <trkpt lat="43.772565" lon="6.448932">
        <ele>714.248786</ele>
        <time>2022-07-27T21:40:53.884Z</time>
      </trkpt>
      <trkpt lat="43.772490" lon="6.449338">
        <ele>716.208965</ele>
        <time>2022-07-27T21:41:13.602Z</time>
      </trkpt>
      <trkpt lat="43.772328" lon="6.449561">
        <ele>717.688540</ele>
        <time>2022-07-27T21:41:26.086Z</time>
      </trkpt>
      <trkpt lat="43.772198" lon="6.449523">
        <ele>718.549177</ele>
        <time>2022-07-27T21:41:32.464Z</time>
      </trkpt>
      <trkpt lat="43.772087" lon="6.449101">
        <ele>720.649927</ele>
        <time>2022-07-27T21:41:47.369Z</time>
      </trkpt>
      <trkpt lat="43.771910" lon="6.448963">
        <ele>721.965669</ele>
        <time>2022-07-27T21:41:55.820Z</time>
      </trkpt>
      <trkpt lat="43.770770" lon="6.448909">
        <ele>724.936315</ele>
        <time>2022-07-27T21:42:34.280Z</time>
      </trkpt>
      <trkpt lat="43.770385" lon="6.448837">
        <ele>725.556486</ele>
        <time>2022-07-27T21:42:44.996Z</time>
      </trkpt>
      <trkpt lat="43.769619" lon="6.448218">
        <ele>725.507386</ele>
        <time>2022-07-27T21:43:02.932Z</time>
      </trkpt>
      <trkpt lat="43.768860" lon="6.447877">
        <ele>723.720105</ele>
        <time>2022-07-27T21:43:16.141Z</time>
      </trkpt>
      <trkpt lat="43.768565" lon="6.447819">
        <ele>723.052723</ele>
        <time>2022-07-27T21:43:20.980Z</time>
      </trkpt>
      <trkpt lat="43.767833" lon="6.447823">
        <ele>721.749944</ele>
        <time>2022-07-27T21:43:33.213Z</time>
      </trkpt>
      <trkpt lat="43.767395" lon="6.447947">
        <ele>721.114842</ele>
        <time>2022-07-27T21:43:41.188Z</time>
      </trkpt>
      <trkpt lat="43.764640" lon="6.449815">
        <ele>718.525471</ele>
        <time>2022-07-27T21:44:43.942Z</time>
      </trkpt>
      <trkpt lat="43.763588" lon="6.450417">
        <ele>717.683011</ele>
        <time>2022-07-27T21:45:06.703Z</time>
      </trkpt>
      <trkpt lat="43.762945" lon="6.451217">
        <ele>717.131681</ele>
        <time>2022-07-27T21:45:23.215Z</time>
      </trkpt>
      <trkpt lat="43.762878" lon="6.451310">
        <ele>717.077224</ele>
        <time>2022-07-27T21:45:25.132Z</time>
      </trkpt>
      <trkpt lat="43.761745" lon="6.452767">
        <ele>716.588017</ele>
        <time>2022-07-27T21:45:57.315Z</time>
      </trkpt>
      <trkpt lat="43.761372" lon="6.453701">
        <ele>716.964349</ele>
        <time>2022-07-27T21:46:15.540Z</time>
      </trkpt>
      <trkpt lat="43.761341" lon="6.453794">
        <ele>717.000466</ele>
        <time>2022-07-27T21:46:17.439Z</time>
      </trkpt>
      <trkpt lat="43.761286" lon="6.453956">
        <ele>717.063585</ele>
        <time>2022-07-27T21:46:20.789Z</time>
      </trkpt>
      <trkpt lat="43.761134" lon="6.454408">
        <ele>717.239395</ele>
        <time>2022-07-27T21:46:30.066Z</time>
      </trkpt>
      <trkpt lat="43.760551" lon="6.456056">
        <ele>718.941220</ele>
        <time>2022-07-27T21:47:08.388Z</time>
      </trkpt>
      <trkpt lat="43.760380" lon="6.456513">
        <ele>719.439946</ele>
        <time>2022-07-27T21:47:18.335Z</time>
      </trkpt>
      <trkpt lat="43.760233" lon="6.456866">
        <ele>719.777691</ele>
        <time>2022-07-27T21:47:25.890Z</time>
      </trkpt>
      <trkpt lat="43.760064" lon="6.457156">
        <ele>719.990029</ele>
        <time>2022-07-27T21:47:32.906Z</time>
      </trkpt>
      <trkpt lat="43.759814" lon="6.457431">
        <ele>720.241946</ele>
        <time>2022-07-27T21:47:40.780Z</time>
      </trkpt>
      <trkpt lat="43.758392" lon="6.458635">
        <ele>721.740944</ele>
        <time>2022-07-27T21:48:22.823Z</time>
      </trkpt>
      <trkpt lat="43.758070" lon="6.459237">
        <ele>722.345543</ele>
        <time>2022-07-27T21:48:37.705Z</time>
      </trkpt>
      <trkpt lat="43.757677" lon="6.460102">
        <ele>723.163972</ele>
        <time>2022-07-27T21:48:57.987Z</time>
      </trkpt>
      <trkpt lat="43.757410" lon="6.460479">
        <ele>723.530192</ele>
        <time>2022-07-27T21:49:08.384Z</time>
      </trkpt>
      <trkpt lat="43.757052" lon="6.460842">
        <ele>723.956318</ele>
        <time>2022-07-27T21:49:20.163Z</time>
      </trkpt>
      <trkpt lat="43.756018" lon="6.461686">
        <ele>725.077276</ele>
        <time>2022-07-27T21:49:50.425Z</time>
      </trkpt>
      <trkpt lat="43.755878" lon="6.461849">
        <ele>725.231223</ele>
        <time>2022-07-27T21:49:54.682Z</time>
      </trkpt>
      <trkpt lat="43.755687" lon="6.462209">
        <ele>725.502750</ele>
        <time>2022-07-27T21:50:02.550Z</time>
      </trkpt>
      <trkpt lat="43.755418" lon="6.463048">
        <ele>726.060746</ele>
        <time>2022-07-27T21:50:19.716Z</time>
      </trkpt>
      <trkpt lat="43.755112" lon="6.463726">
        <ele>726.612247</ele>
        <time>2022-07-27T21:50:35.454Z</time>
      </trkpt>
      <trkpt lat="43.754101" lon="6.465202">
        <ele>728.297350</ele>
        <time>2022-07-27T21:51:15.414Z</time>
      </trkpt>
      <trkpt lat="43.752319" lon="6.467661">
        <ele>730.476444</ele>
        <time>2022-07-27T21:52:19.769Z</time>
      </trkpt>
      <trkpt lat="43.751945" lon="6.468195">
        <ele>730.905844</ele>
        <time>2022-07-27T21:52:33.219Z</time>
      </trkpt>
      <trkpt lat="43.749932" lon="6.470991">
        <ele>733.253024</ele>
        <time>2022-07-27T21:53:45.682Z</time>
      </trkpt>
      <trkpt lat="43.748077" lon="6.473561">
        <ele>736.034942</ele>
        <time>2022-07-27T21:54:54.117Z</time>
      </trkpt>
      <trkpt lat="43.747763" lon="6.474216">
        <ele>736.731808</ele>
        <time>2022-07-27T21:55:10.671Z</time>
      </trkpt>
      <trkpt lat="43.747703" lon="6.474354">
        <ele>736.923172</ele>
        <time>2022-07-27T21:55:14.060Z</time>
      </trkpt>
      <trkpt lat="43.747524" lon="6.474653">
        <ele>737.396587</ele>
        <time>2022-07-27T21:55:22.364Z</time>
      </trkpt>
      <trkpt lat="43.747254" lon="6.474949">
        <ele>737.977824</ele>
        <time>2022-07-27T21:55:32.619Z</time>
      </trkpt>
      <trkpt lat="43.747048" lon="6.475170">
        <ele>738.417651</ele>
        <time>2022-07-27T21:55:40.523Z</time>
      </trkpt>
      <trkpt lat="43.743141" lon="6.479303">
        <ele>745.580751</ele>
        <time>2022-07-27T21:57:58.932Z</time>
      </trkpt>
      <trkpt lat="43.742138" lon="6.480769">
        <ele>747.285475</ele>
        <time>2022-07-27T21:58:36.176Z</time>
      </trkpt>
      <trkpt lat="43.741976" lon="6.481286">
        <ele>748.004890</ele>
        <time>2022-07-27T21:58:47.750Z</time>
      </trkpt>
      <trkpt lat="43.741910" lon="6.481972">
        <ele>748.888380</ele>
        <time>2022-07-27T21:59:01.815Z</time>
      </trkpt>
      <trkpt lat="43.741868" lon="6.482384">
        <ele>749.419557</ele>
        <time>2022-07-27T21:59:11.034Z</time>
      </trkpt>
      <trkpt lat="43.741793" lon="6.482792">
        <ele>749.957013</ele>
        <time>2022-07-27T21:59:20.756Z</time>
      </trkpt>
      <trkpt lat="43.741350" lon="6.483871">
        <ele>751.954074</ele>
        <time>2022-07-27T21:59:50.455Z</time>
      </trkpt>
      <trkpt lat="43.741018" lon="6.484807">
        <ele>753.682663</ele>
        <time>2022-07-27T22:00:14.328Z</time>
      </trkpt>
      <trkpt lat="43.740755" lon="6.486042">
        <ele>754.890008</ele>
        <time>2022-07-27T22:00:40.898Z</time>
      </trkpt>
      <trkpt lat="43.740744" lon="6.487212">
        <ele>755.655102</ele>
        <time>2022-07-27T22:01:02.151Z</time>
      </trkpt>
      <trkpt lat="43.740653" lon="6.488139">
        <ele>755.711364</ele>
        <time>2022-07-27T22:01:16.859Z</time>
      </trkpt>
      <trkpt lat="43.741097" lon="6.491327">
        <ele>754.675152</ele>
        <time>2022-07-27T22:02:03.654Z</time>
      </trkpt>
      <trkpt lat="43.741087" lon="6.492264">
        <ele>754.455598</ele>
        <time>2022-07-27T22:02:18.247Z</time>
      </trkpt>
      <trkpt lat="43.741908" lon="6.495710">
        <ele>756.320774</ele>
        <time>2022-07-27T22:03:22.236Z</time>
      </trkpt>
      <trkpt lat="43.742294" lon="6.497296">
        <ele>758.562913</ele>
        <time>2022-07-27T22:03:58.066Z</time>
      </trkpt>
      <trkpt lat="43.742353" lon="6.497547">
        <ele>759.961100</ele>
        <time>2022-07-27T22:04:03.904Z</time>
      </trkpt>
      <trkpt lat="43.742508" lon="6.498325">
        <ele>764.236097</ele>
        <time>2022-07-27T22:04:29.972Z</time>
      </trkpt>
      <trkpt lat="43.742346" lon="6.499040">
        <ele>768.205435</ele>
        <time>2022-07-27T22:05:04.856Z</time>
      </trkpt>
      <trkpt lat="43.742258" lon="6.499345">
        <ele>769.945140</ele>
        <time>2022-07-27T22:05:20.253Z</time>
      </trkpt>
      <trkpt lat="43.742095" lon="6.499500">
        <ele>771.395135</ele>
        <time>2022-07-27T22:05:32.336Z</time>
      </trkpt>
      <trkpt lat="43.742050" lon="6.499539">
        <ele>771.775153</ele>
        <time>2022-07-27T22:05:35.659Z</time>
      </trkpt>
      <trkpt lat="43.741977" lon="6.499547">
        <ele>772.299291</ele>
        <time>2022-07-27T22:05:40.630Z</time>
      </trkpt>
      <trkpt lat="43.741726" lon="6.499521">
        <ele>774.100867</ele>
        <time>2022-07-27T22:05:55.135Z</time>
      </trkpt>
      <trkpt lat="43.741585" lon="6.499478">
        <ele>775.134290</ele>
        <time>2022-07-27T22:06:03.851Z</time>
      </trkpt>
      <trkpt lat="43.741107" lon="6.499322">
        <ele>778.649429</ele>
        <time>2022-07-27T22:06:29.052Z</time>
      </trkpt>
      <trkpt lat="43.740079" lon="6.498780">
        <ele>785.113393</ele>
        <time>2022-07-27T22:07:19.381Z</time>
      </trkpt>
      <trkpt lat="43.739742" lon="6.498672">
        <ele>786.040824</ele>
        <time>2022-07-27T22:07:28.356Z</time>
      </trkpt>
      <trkpt lat="43.739416" lon="6.498752">
        <ele>786.928491</ele>
        <time>2022-07-27T22:07:34.870Z</time>
      </trkpt>
      <trkpt lat="43.738864" lon="6.499132">
        <ele>788.581403</ele>
        <time>2022-07-27T22:07:52.334Z</time>
      </trkpt>
      <trkpt lat="43.738350" lon="6.499628">
        <ele>791.961250</ele>
        <time>2022-07-27T22:08:17.941Z</time>
      </trkpt>
      <trkpt lat="43.737294" lon="6.500716">
        <ele>800.618991</ele>
        <time>2022-07-27T22:09:26.207Z</time>
      </trkpt>
      <trkpt lat="43.737092" lon="6.500779">
        <ele>802.416107</ele>
        <time>2022-07-27T22:09:37.610Z</time>
      </trkpt>
      <trkpt lat="43.736753" lon="6.500749">
        <ele>805.567110</ele>
        <time>2022-07-27T22:09:57.713Z</time>
      </trkpt>
      <trkpt lat="43.736592" lon="6.500915">
        <ele>807.429413</ele>
        <time>2022-07-27T22:10:10.009Z</time>
      </trkpt>
      <trkpt lat="43.736578" lon="6.501047">
        <ele>808.323582</ele>
        <time>2022-07-27T22:10:15.240Z</time>
      </trkpt>
      <trkpt lat="43.736798" lon="6.502183">
        <ele>816.206006</ele>
        <time>2022-07-27T22:11:03.946Z</time>
      </trkpt>
      <trkpt lat="43.736828" lon="6.502895">
        <ele>821.855295</ele>
        <time>2022-07-27T22:11:40.636Z</time>
      </trkpt>
      <trkpt lat="43.737113" lon="6.503795">
        <ele>830.134038</ele>
        <time>2022-07-27T22:12:31.747Z</time>
      </trkpt>
      <trkpt lat="43.737080" lon="6.504035">
        <ele>832.192312</ele>
        <time>2022-07-27T22:12:44.290Z</time>
      </trkpt>
      <trkpt lat="43.736959" lon="6.504102">
        <ele>833.711957</ele>
        <time>2022-07-27T22:12:55.221Z</time>
      </trkpt>
      <trkpt lat="43.736827" lon="6.503993">
        <ele>835.504275</ele>
        <time>2022-07-27T22:13:05.219Z</time>
      </trkpt>
      <trkpt lat="43.735637" lon="6.502524">
        <ele>850.044572</ele>
        <time>2022-07-27T22:14:46.217Z</time>
      </trkpt>
      <trkpt lat="43.735075" lon="6.502267">
        <ele>854.498711</ele>
        <time>2022-07-27T22:15:09.463Z</time>
      </trkpt>
      <trkpt lat="43.734270" lon="6.501578">
        <ele>857.738883</ele>
        <time>2022-07-27T22:15:44.662Z</time>
      </trkpt>
      <trkpt lat="43.733815" lon="6.501313">
        <ele>859.428795</ele>
        <time>2022-07-27T22:16:00.237Z</time>
      </trkpt>
      <trkpt lat="43.733179" lon="6.501051">
        <ele>861.377902</ele>
        <time>2022-07-27T22:16:21.152Z</time>
      </trkpt>
      <trkpt lat="43.732809" lon="6.500511">
        <ele>862.814747</ele>
        <time>2022-07-27T22:16:38.934Z</time>
      </trkpt>
      <trkpt lat="43.731917" lon="6.500057">
        <ele>865.284005</ele>
        <time>2022-07-27T22:17:11.843Z</time>
      </trkpt>
      <trkpt lat="43.730686" lon="6.500164">
        <ele>867.849828</ele>
        <time>2022-07-27T22:17:48.390Z</time>
      </trkpt>
      <trkpt lat="43.729977" lon="6.500134">
        <ele>869.383566</ele>
        <time>2022-07-27T22:18:09.731Z</time>
      </trkpt>
      <trkpt lat="43.729247" lon="6.500290">
        <ele>871.083516</ele>
        <time>2022-07-27T22:18:31.963Z</time>
      </trkpt>
      <trkpt lat="43.729095" lon="6.500373">
        <ele>871.459580</ele>
        <time>2022-07-27T22:18:36.793Z</time>
      </trkpt>
      <trkpt lat="43.728831" lon="6.500675">
        <ele>872.247865</ele>
        <time>2022-07-27T22:18:46.998Z</time>
      </trkpt>
      <trkpt lat="43.728176" lon="6.502004">
        <ele>877.532643</ele>
        <time>2022-07-27T22:19:29.851Z</time>
      </trkpt>
      <trkpt lat="43.727638" lon="6.502542">
        <ele>881.048084</ele>
        <time>2022-07-27T22:20:03.385Z</time>
      </trkpt>
      <trkpt lat="43.727474" lon="6.502797">
        <ele>882.354557</ele>
        <time>2022-07-27T22:20:15.949Z</time>
      </trkpt>
      <trkpt lat="43.727291" lon="6.503235">
        <ele>884.425659</ele>
        <time>2022-07-27T22:20:34.321Z</time>
      </trkpt>
      <trkpt lat="43.726998" lon="6.503496">
        <ele>886.405799</ele>
        <time>2022-07-27T22:20:51.423Z</time>
      </trkpt>
      <trkpt lat="43.726753" lon="6.503677">
        <ele>887.984018</ele>
        <time>2022-07-27T22:21:05.500Z</time>
      </trkpt>
      <trkpt lat="43.725195" lon="6.505293">
        <ele>895.370206</ele>
        <time>2022-07-27T22:22:21.404Z</time>
      </trkpt>
      <trkpt lat="43.725004" lon="6.505399">
        <ele>895.865806</ele>
        <time>2022-07-27T22:22:26.371Z</time>
      </trkpt>
      <trkpt lat="43.724518" lon="6.505526">
        <ele>896.963233</ele>
        <time>2022-07-27T22:22:36.231Z</time>
      </trkpt>
      <trkpt lat="43.723692" lon="6.505744">
        <ele>895.852360</ele>
        <time>2022-07-27T22:22:52.762Z</time>
      </trkpt>
      <trkpt lat="43.723296" lon="6.505800">
        <ele>895.326493</ele>
        <time>2022-07-27T22:22:59.768Z</time>
      </trkpt>
      <trkpt lat="43.723215" lon="6.505782">
        <ele>895.218115</ele>
        <time>2022-07-27T22:23:01.133Z</time>
      </trkpt>
      <trkpt lat="43.722990" lon="6.505546">
        <ele>894.845129</ele>
        <time>2022-07-27T22:23:06.278Z</time>
      </trkpt>
      <trkpt lat="43.722857" lon="6.504954">
        <ele>895.003311</ele>
        <time>2022-07-27T22:23:14.073Z</time>
      </trkpt>
      <trkpt lat="43.722668" lon="6.504565">
        <ele>895.470309</ele>
        <time>2022-07-27T22:23:20.271Z</time>
      </trkpt>
      <trkpt lat="43.722468" lon="6.504395">
        <ele>895.793892</ele>
        <time>2022-07-27T22:23:25.551Z</time>
      </trkpt>
      <trkpt lat="43.721674" lon="6.503944">
        <ele>896.977122</ele>
        <time>2022-07-27T22:23:55.871Z</time>
      </trkpt>
      <trkpt lat="43.721420" lon="6.503581">
        <ele>898.769476</ele>
        <time>2022-07-27T22:24:10.789Z</time>
      </trkpt>
      <trkpt lat="43.721359" lon="6.503231">
        <ele>900.342822</ele>
        <time>2022-07-27T22:24:22.487Z</time>
      </trkpt>
      <trkpt lat="43.721366" lon="6.502440">
        <ele>903.799751</ele>
        <time>2022-07-27T22:24:50.847Z</time>
      </trkpt>
      <trkpt lat="43.721611" lon="6.501662">
        <ele>907.508344</ele>
        <time>2022-07-27T22:25:22.146Z</time>
      </trkpt>
      <trkpt lat="43.721537" lon="6.501305">
        <ele>908.561670</ele>
        <time>2022-07-27T22:25:36.105Z</time>
      </trkpt>
      <trkpt lat="43.721342" lon="6.501171">
        <ele>909.229211</ele>
        <time>2022-07-27T22:25:46.243Z</time>
      </trkpt>
      <trkpt lat="43.720694" lon="6.501464">
        <ele>911.319371</ele>
        <time>2022-07-27T22:26:10.182Z</time>
      </trkpt>
      <trkpt lat="43.720112" lon="6.501617">
        <ele>913.135706</ele>
        <time>2022-07-27T22:26:25.939Z</time>
      </trkpt>
      <trkpt lat="43.719996" lon="6.501753">
        <ele>913.442969</ele>
        <time>2022-07-27T22:26:29.116Z</time>
      </trkpt>
      <trkpt lat="43.719831" lon="6.502332">
        <ele>912.857011</ele>
        <time>2022-07-27T22:26:38.051Z</time>
      </trkpt>
      <trkpt lat="43.719714" lon="6.502562">
        <ele>912.592211</ele>
        <time>2022-07-27T22:26:41.911Z</time>
      </trkpt>
      <trkpt lat="43.719550" lon="6.502792">
        <ele>912.288023</ele>
        <time>2022-07-27T22:26:46.234Z</time>
      </trkpt>
      <trkpt lat="43.719283" lon="6.502976">
        <ele>911.899458</ele>
        <time>2022-07-27T22:26:51.463Z</time>
      </trkpt>
      <trkpt lat="43.718969" lon="6.503079">
        <ele>911.479082</ele>
        <time>2022-07-27T22:26:56.980Z</time>
      </trkpt>
      <trkpt lat="43.718648" lon="6.503071">
        <ele>911.036134</ele>
        <time>2022-07-27T22:27:02.562Z</time>
      </trkpt>
      <trkpt lat="43.718041" lon="6.502953">
        <ele>910.009313</ele>
        <time>2022-07-27T22:27:13.735Z</time>
      </trkpt>
      <trkpt lat="43.717251" lon="6.502578">
        <ele>908.610203</ele>
        <time>2022-07-27T22:27:29.175Z</time>
      </trkpt>
      <trkpt lat="43.716391" lon="6.502556">
        <ele>906.607606</ele>
        <time>2022-07-27T22:27:44.578Z</time>
      </trkpt>
      <trkpt lat="43.714983" lon="6.502989">
        <ele>902.608611</ele>
        <time>2022-07-27T22:28:08.315Z</time>
      </trkpt>
      <trkpt lat="43.714953" lon="6.503004">
        <ele>902.498475</ele>
        <time>2022-07-27T22:28:08.788Z</time>
      </trkpt>
      <trkpt lat="43.714726" lon="6.503115">
        <ele>901.667213</ele>
        <time>2022-07-27T22:28:12.592Z</time>
      </trkpt>
      <trkpt lat="43.713404" lon="6.504042">
        <ele>896.867912</ele>
        <time>2022-07-27T22:28:36.233Z</time>
      </trkpt>
      <trkpt lat="43.713284" lon="6.504218">
        <ele>896.580188</ele>
        <time>2022-07-27T22:28:39.374Z</time>
      </trkpt>
      <trkpt lat="43.713168" lon="6.504532">
        <ele>896.160834</ele>
        <time>2022-07-27T22:28:43.458Z</time>
      </trkpt>
      <trkpt lat="43.713035" lon="6.504869">
        <ele>895.704224</ele>
        <time>2022-07-27T22:28:48.273Z</time>
      </trkpt>
      <trkpt lat="43.712914" lon="6.505030">
        <ele>895.428020</ele>
        <time>2022-07-27T22:28:51.570Z</time>
      </trkpt>
      <trkpt lat="43.712721" lon="6.505162">
        <ele>895.073803</ele>
        <time>2022-07-27T22:28:55.501Z</time>
      </trkpt>
      <trkpt lat="43.712556" lon="6.505262">
        <ele>894.777431</ele>
        <time>2022-07-27T22:28:59.742Z</time>
      </trkpt>
      <trkpt lat="43.712449" lon="6.505518">
        <ele>894.425757</ele>
        <time>2022-07-27T22:29:04.273Z</time>
      </trkpt>
      <trkpt lat="43.712452" lon="6.505572">
        <ele>894.361350</ele>
        <time>2022-07-27T22:29:05.309Z</time>
      </trkpt>
      <trkpt lat="43.712526" lon="6.505534">
        <ele>894.231485</ele>
        <time>2022-07-27T22:29:07.707Z</time>
      </trkpt>
      <trkpt lat="43.712449" lon="6.505518">
        <ele>894.195174</ele>
        <time>2022-07-27T22:29:09.276Z</time>
      </trkpt>
      <trkpt lat="43.712151" lon="6.505554">
        <ele>894.180247</ele>
        <time>2022-07-27T22:29:15.912Z</time>
      </trkpt>
      <trkpt lat="43.711917" lon="6.505722">
        <ele>894.167092</ele>
        <time>2022-07-27T22:29:21.910Z</time>
      </trkpt>
      <trkpt lat="43.711317" lon="6.506049">
        <ele>894.134914</ele>
        <time>2022-07-27T22:29:35.308Z</time>
      </trkpt>
      <trkpt lat="43.711233" lon="6.506155">
        <ele>894.129241</ele>
        <time>2022-07-27T22:29:38.445Z</time>
      </trkpt>
      <trkpt lat="43.711317" lon="6.506049">
        <ele>894.123568</ele>
        <time>2022-07-27T22:29:41.123Z</time>
      </trkpt>
      <trkpt lat="43.711917" lon="6.505722">
        <ele>893.438918</ele>
        <time>2022-07-27T22:29:56.406Z</time>
      </trkpt>
      <trkpt lat="43.712097" lon="6.505658">
        <ele>893.071739</ele>
        <time>2022-07-27T22:29:59.833Z</time>
      </trkpt>
      <trkpt lat="43.712126" lon="6.505647">
        <ele>893.012330</ele>
        <time>2022-07-27T22:30:00.440Z</time>
      </trkpt>
      <trkpt lat="43.712455" lon="6.505617">
        <ele>892.360922</ele>
        <time>2022-07-27T22:30:06.234Z</time>
      </trkpt>
      <trkpt lat="43.712725" lon="6.505658">
        <ele>891.824285</ele>
        <time>2022-07-27T22:30:10.759Z</time>
      </trkpt>
      <trkpt lat="43.712971" lon="6.505469">
        <ele>891.268355</ele>
        <time>2022-07-27T22:30:15.282Z</time>
      </trkpt>
      <trkpt lat="43.713501" lon="6.504972">
        <ele>889.386851</ele>
        <time>2022-07-27T22:30:25.696Z</time>
      </trkpt>
      <trkpt lat="43.713929" lon="6.504568">
        <ele>887.218587</ele>
        <time>2022-07-27T22:30:34.233Z</time>
      </trkpt>
      <trkpt lat="43.714472" lon="6.504129">
        <ele>884.586696</ele>
        <time>2022-07-27T22:30:43.764Z</time>
      </trkpt>
      <trkpt lat="43.714863" lon="6.503984">
        <ele>882.842544</ele>
        <time>2022-07-27T22:30:49.873Z</time>
      </trkpt>
      <trkpt lat="43.715228" lon="6.503960">
        <ele>880.745939</ele>
        <time>2022-07-27T22:30:55.410Z</time>
      </trkpt>
      <trkpt lat="43.718509" lon="6.504815">
        <ele>861.162555</ele>
        <time>2022-07-27T22:31:44.361Z</time>
      </trkpt>
      <trkpt lat="43.719068" lon="6.505046">
        <ele>857.614081</ele>
        <time>2022-07-27T22:31:53.019Z</time>
      </trkpt>
      <trkpt lat="43.719564" lon="6.505516">
        <ele>853.957533</ele>
        <time>2022-07-27T22:32:01.838Z</time>
      </trkpt>
      <trkpt lat="43.719842" lon="6.505989">
        <ele>851.277498</ele>
        <time>2022-07-27T22:32:08.259Z</time>
      </trkpt>
      <trkpt lat="43.720040" lon="6.506609">
        <ele>848.388427</ele>
        <time>2022-07-27T22:32:15.253Z</time>
      </trkpt>
      <trkpt lat="43.720103" lon="6.507222">
        <ele>845.755648</ele>
        <time>2022-07-27T22:32:21.702Z</time>
      </trkpt>
      <trkpt lat="43.720057" lon="6.507846">
        <ele>843.088551</ele>
        <time>2022-07-27T22:32:28.469Z</time>
      </trkpt>
      <trkpt lat="43.719995" lon="6.508069">
        <ele>842.072581</ele>
        <time>2022-07-27T22:32:31.010Z</time>
      </trkpt>
      <trkpt lat="43.719626" lon="6.509386">
        <ele>838.810529</ele>
        <time>2022-07-27T22:32:46.698Z</time>
      </trkpt>
      <trkpt lat="43.718314" lon="6.513791">
        <ele>835.085432</ele>
        <time>2022-07-27T22:33:58.252Z</time>
      </trkpt>
      <trkpt lat="43.717686" lon="6.515907">
        <ele>832.260826</ele>
        <time>2022-07-27T22:34:29.299Z</time>
      </trkpt>
      <trkpt lat="43.716771" lon="6.518997">
        <ele>823.785178</ele>
        <time>2022-07-27T22:35:06.752Z</time>
      </trkpt>
      <trkpt lat="43.716548" lon="6.519782">
        <ele>821.575052</ele>
        <time>2022-07-27T22:35:16.515Z</time>
      </trkpt>
      <trkpt lat="43.716347" lon="6.520509">
        <ele>821.331718</ele>
        <time>2022-07-27T22:35:26.495Z</time>
      </trkpt>
      <trkpt lat="43.716131" lon="6.521290">
        <ele>821.605797</ele>
        <time>2022-07-27T22:35:40.077Z</time>
      </trkpt>
      <trkpt lat="43.716021" lon="6.521675">
        <ele>821.741485</ele>
        <time>2022-07-27T22:35:48.704Z</time>
      </trkpt>
      <trkpt lat="43.716003" lon="6.521743">
        <ele>821.765220</ele>
        <time>2022-07-27T22:35:50.282Z</time>
      </trkpt>
      <trkpt lat="43.715806" lon="6.522688">
        <ele>822.868798</ele>
        <time>2022-07-27T22:36:15.162Z</time>
      </trkpt>
      <trkpt lat="43.715848" lon="6.524239">
        <ele>826.217703</ele>
        <time>2022-07-27T22:36:56.188Z</time>
      </trkpt>
      <trkpt lat="43.715937" lon="6.526019">
        <ele>827.790116</ele>
        <time>2022-07-27T22:37:33.875Z</time>
      </trkpt>
      <trkpt lat="43.715988" lon="6.527331">
        <ele>828.206828</ele>
        <time>2022-07-27T22:37:52.828Z</time>
      </trkpt>
      <trkpt lat="43.715961" lon="6.528524">
        <ele>827.804891</ele>
        <time>2022-07-27T22:38:08.253Z</time>
      </trkpt>
      <trkpt lat="43.715906" lon="6.529180">
        <ele>827.582503</ele>
        <time>2022-07-27T22:38:18.282Z</time>
      </trkpt>
      <trkpt lat="43.715778" lon="6.529744">
        <ele>827.503822</ele>
        <time>2022-07-27T22:38:28.893Z</time>
      </trkpt>
      <trkpt lat="43.715754" lon="6.529842">
        <ele>827.688606</ele>
        <time>2022-07-27T22:38:31.139Z</time>
      </trkpt>
      <trkpt lat="43.715741" lon="6.529889">
        <ele>827.778476</ele>
        <time>2022-07-27T22:38:32.229Z</time>
      </trkpt>
      <trkpt lat="43.715288" lon="6.531768">
        <ele>831.315793</ele>
        <time>2022-07-27T22:39:20.185Z</time>
      </trkpt>
      <trkpt lat="43.715109" lon="6.532749">
        <ele>832.109319</ele>
        <time>2022-07-27T22:39:45.672Z</time>
      </trkpt>
      <trkpt lat="43.715095" lon="6.533277">
        <ele>832.303592</ele>
        <time>2022-07-27T22:39:56.100Z</time>
      </trkpt>
      <trkpt lat="43.715201" lon="6.533850">
        <ele>832.521071</ele>
        <time>2022-07-27T22:40:05.286Z</time>
      </trkpt>
      <trkpt lat="43.715845" lon="6.536070">
        <ele>830.293227</ele>
        <time>2022-07-27T22:40:35.236Z</time>
      </trkpt>
      <trkpt lat="43.715912" lon="6.536314">
        <ele>829.922531</ele>
        <time>2022-07-27T22:40:38.541Z</time>
      </trkpt>
      <trkpt lat="43.716013" lon="6.536678">
        <ele>829.368792</ele>
        <time>2022-07-27T22:40:43.535Z</time>
      </trkpt>
      <trkpt lat="43.716246" lon="6.537760">
        <ele>828.937863</ele>
        <time>2022-07-27T22:40:58.926Z</time>
      </trkpt>
      <trkpt lat="43.716535" lon="6.540405">
        <ele>830.248624</ele>
        <time>2022-07-27T22:41:44.289Z</time>
      </trkpt>
      <trkpt lat="43.716558" lon="6.541092">
        <ele>831.222084</ele>
        <time>2022-07-27T22:42:00.358Z</time>
      </trkpt>
      <trkpt lat="43.716486" lon="6.541776">
        <ele>832.481141</ele>
        <time>2022-07-27T22:42:18.690Z</time>
      </trkpt>
      <trkpt lat="43.715531" lon="6.546669">
        <ele>853.036469</ele>
        <time>2022-07-27T22:45:08.417Z</time>
      </trkpt>
      <trkpt lat="43.715453" lon="6.547335">
        <ele>854.593410</ele>
        <time>2022-07-27T22:45:26.536Z</time>
      </trkpt>
      <trkpt lat="43.715502" lon="6.548348">
        <ele>856.936290</ele>
        <time>2022-07-27T22:45:50.757Z</time>
      </trkpt>
      <trkpt lat="43.715902" lon="6.550295">
        <ele>860.454864</ele>
        <time>2022-07-27T22:46:33.580Z</time>
      </trkpt>
      <trkpt lat="43.715971" lon="6.550803">
        <ele>861.229104</ele>
        <time>2022-07-27T22:46:44.776Z</time>
      </trkpt>
      <trkpt lat="43.716016" lon="6.551714">
        <ele>863.148134</ele>
        <time>2022-07-27T22:47:05.530Z</time>
      </trkpt>
      <trkpt lat="43.715912" lon="6.553568">
        <ele>868.745156</ele>
        <time>2022-07-27T22:47:58.119Z</time>
      </trkpt>
      <trkpt lat="43.715858" lon="6.553915">
        <ele>869.933595</ele>
        <time>2022-07-27T22:48:09.906Z</time>
      </trkpt>
      <trkpt lat="43.715030" lon="6.555940">
        <ele>880.019607</ele>
        <time>2022-07-27T22:49:29.893Z</time>
      </trkpt>
      <trkpt lat="43.714867" lon="6.556728">
        <ele>882.893180</ele>
        <time>2022-07-27T22:49:55.777Z</time>
      </trkpt>
      <trkpt lat="43.714805" lon="6.557297">
        <ele>884.865121</ele>
        <time>2022-07-27T22:50:12.849Z</time>
      </trkpt>
      <trkpt lat="43.714879" lon="6.557778">
        <ele>886.550387</ele>
        <time>2022-07-27T22:50:26.958Z</time>
      </trkpt>
      <trkpt lat="43.715194" lon="6.558692">
        <ele>889.920637</ele>
        <time>2022-07-27T22:50:54.469Z</time>
      </trkpt>
      <trkpt lat="43.715330" lon="6.560187">
        <ele>894.641597</ele>
        <time>2022-07-27T22:51:37.644Z</time>
      </trkpt>
      <trkpt lat="43.715652" lon="6.561185">
        <ele>897.662772</ele>
        <time>2022-07-27T22:52:10.076Z</time>
      </trkpt>
      <trkpt lat="43.715719" lon="6.561655">
        <ele>898.735422</ele>
        <time>2022-07-27T22:52:23.804Z</time>
      </trkpt>
      <trkpt lat="43.715711" lon="6.561772">
        <ele>898.998567</ele>
        <time>2022-07-27T22:52:27.083Z</time>
      </trkpt>
      <trkpt lat="43.715290" lon="6.563471">
        <ele>902.145422</ele>
        <time>2022-07-27T22:53:08.672Z</time>
      </trkpt>
      <trkpt lat="43.714967" lon="6.565412">
        <ele>901.697239</ele>
        <time>2022-07-27T22:53:37.186Z</time>
      </trkpt>
      <trkpt lat="43.714651" lon="6.567328">
        <ele>899.118043</ele>
        <time>2022-07-27T22:54:02.037Z</time>
      </trkpt>
      <trkpt lat="43.714462" lon="6.568498">
        <ele>898.244804</ele>
        <time>2022-07-27T22:54:16.936Z</time>
      </trkpt>
      <trkpt lat="43.714367" lon="6.569367">
        <ele>898.336397</ele>
        <time>2022-07-27T22:54:29.611Z</time>
      </trkpt>
      <trkpt lat="43.714466" lon="6.569981">
        <ele>898.401958</ele>
        <time>2022-07-27T22:54:41.504Z</time>
      </trkpt>
      <trkpt lat="43.714555" lon="6.570225">
        <ele>898.430441</ele>
        <time>2022-07-27T22:54:47.153Z</time>
      </trkpt>
      <trkpt lat="43.715728" lon="6.572630">
        <ele>905.209808</ele>
        <time>2022-07-27T22:56:07.192Z</time>
      </trkpt>
      <trkpt lat="43.716738" lon="6.574219">
        <ele>908.381263</ele>
        <time>2022-07-27T22:56:54.361Z</time>
      </trkpt>
      <trkpt lat="43.716996" lon="6.574839">
        <ele>908.204105</ele>
        <time>2022-07-27T22:57:05.297Z</time>
      </trkpt>
      <trkpt lat="43.717083" lon="6.575362">
        <ele>907.857376</ele>
        <time>2022-07-27T22:57:12.998Z</time>
      </trkpt>
      <trkpt lat="43.717164" lon="6.576148">
        <ele>907.344429</ele>
        <time>2022-07-27T22:57:23.611Z</time>
      </trkpt>
      <trkpt lat="43.717256" lon="6.577015">
        <ele>906.687171</ele>
        <time>2022-07-27T22:57:34.722Z</time>
      </trkpt>
      <trkpt lat="43.717347" lon="6.578925">
        <ele>904.870839</ele>
        <time>2022-07-27T22:57:59.964Z</time>
      </trkpt>
      <trkpt lat="43.717349" lon="6.579084">
        <ele>904.719941</ele>
        <time>2022-07-27T22:58:02.391Z</time>
      </trkpt>
      <trkpt lat="43.717354" lon="6.579325">
        <ele>904.658622</ele>
        <time>2022-07-27T22:58:06.030Z</time>
      </trkpt>
      <trkpt lat="43.717356" lon="6.579412">
        <ele>904.691210</ele>
        <time>2022-07-27T22:58:07.257Z</time>
      </trkpt>
      <trkpt lat="43.717365" lon="6.579776">
        <ele>904.827568</ele>
        <time>2022-07-27T22:58:13.409Z</time>
      </trkpt>
      <trkpt lat="43.717401" lon="6.581922">
        <ele>905.704573</ele>
        <time>2022-07-27T22:58:53.927Z</time>
      </trkpt>
      <trkpt lat="43.717437" lon="6.582381">
        <ele>906.021042</ele>
        <time>2022-07-27T22:59:01.819Z</time>
      </trkpt>
      <trkpt lat="43.717581" lon="6.582972">
        <ele>906.448544</ele>
        <time>2022-07-27T22:59:12.563Z</time>
      </trkpt>
      <trkpt lat="43.718018" lon="6.584119">
        <ele>907.510804</ele>
        <time>2022-07-27T22:59:37.338Z</time>
      </trkpt>
      <trkpt lat="43.718180" lon="6.584381">
        <ele>908.210220</ele>
        <time>2022-07-27T22:59:44.835Z</time>
      </trkpt>
      <trkpt lat="43.718746" lon="6.584998">
        <ele>910.232580</ele>
        <time>2022-07-27T23:00:09.415Z</time>
      </trkpt>
      <trkpt lat="43.719899" lon="6.586052">
        <ele>913.738511</ele>
        <time>2022-07-27T23:00:59.528Z</time>
      </trkpt>
      <trkpt lat="43.720221" lon="6.586490">
        <ele>914.745548</ele>
        <time>2022-07-27T23:01:14.500Z</time>
      </trkpt>
      <trkpt lat="43.720356" lon="6.586765">
        <ele>915.281385</ele>
        <time>2022-07-27T23:01:21.622Z</time>
      </trkpt>
      <trkpt lat="43.720471" lon="6.587079">
        <ele>915.848774</ele>
        <time>2022-07-27T23:01:28.358Z</time>
      </trkpt>
      <trkpt lat="43.720601" lon="6.587826">
        <ele>916.267430</ele>
        <time>2022-07-27T23:01:41.152Z</time>
      </trkpt>
      <trkpt lat="43.720613" lon="6.589438">
        <ele>916.131272</ele>
        <time>2022-07-27T23:02:04.962Z</time>
      </trkpt>
      <trkpt lat="43.720622" lon="6.591893">
        <ele>916.639899</ele>
        <time>2022-07-27T23:02:45.412Z</time>
      </trkpt>
      <trkpt lat="43.720855" lon="6.595967">
        <ele>921.045024</ele>
        <time>2022-07-27T23:04:07.515Z</time>
      </trkpt>
      <trkpt lat="43.720937" lon="6.596600">
        <ele>922.098844</ele>
        <time>2022-07-27T23:04:22.682Z</time>
      </trkpt>
      <trkpt lat="43.721405" lon="6.598859">
        <ele>926.950292</ele>
        <time>2022-07-27T23:05:23.515Z</time>
      </trkpt>
      <trkpt lat="43.721468" lon="6.599154">
        <ele>927.638083</ele>
        <time>2022-07-27T23:05:30.899Z</time>
      </trkpt>
      <trkpt lat="43.721481" lon="6.599216">
        <ele>927.782427</ele>
        <time>2022-07-27T23:05:32.324Z</time>
      </trkpt>
      <trkpt lat="43.721552" lon="6.599497">
        <ele>928.448010</ele>
        <time>2022-07-27T23:05:39.187Z</time>
      </trkpt>
      <trkpt lat="43.721580" lon="6.599604">
        <ele>928.702453</ele>
        <time>2022-07-27T23:05:41.919Z</time>
      </trkpt>
      <trkpt lat="43.721805" lon="6.600295">
        <ele>930.237747</ele>
        <time>2022-07-27T23:05:59.320Z</time>
      </trkpt>
      <trkpt lat="43.722202" lon="6.601132">
        <ele>932.257216</ele>
        <time>2022-07-27T23:06:22.947Z</time>
      </trkpt>
      <trkpt lat="43.723708" lon="6.603544">
        <ele>939.427044</ele>
        <time>2022-07-27T23:07:45.213Z</time>
      </trkpt>
      <trkpt lat="43.723884" lon="6.603853">
        <ele>939.872612</ele>
        <time>2022-07-27T23:07:54.593Z</time>
      </trkpt>
      <trkpt lat="43.724215" lon="6.604646">
        <ele>940.710609</ele>
        <time>2022-07-27T23:08:13.842Z</time>
      </trkpt>
      <trkpt lat="43.724518" lon="6.605736">
        <ele>941.779282</ele>
        <time>2022-07-27T23:08:34.322Z</time>
      </trkpt>
      <trkpt lat="43.724658" lon="6.606908">
        <ele>941.556722</ele>
        <time>2022-07-27T23:08:52.668Z</time>
      </trkpt>
      <trkpt lat="43.724647" lon="6.608304">
        <ele>941.198976</ele>
        <time>2022-07-27T23:09:12.774Z</time>
      </trkpt>
      <trkpt lat="43.724627" lon="6.609232">
        <ele>941.124116</ele>
        <time>2022-07-27T23:09:27.039Z</time>
      </trkpt>
      <trkpt lat="43.724659" lon="6.610315">
        <ele>941.036718</ele>
        <time>2022-07-27T23:09:44.571Z</time>
      </trkpt>
      <trkpt lat="43.724825" lon="6.611513">
        <ele>941.165909</ele>
        <time>2022-07-27T23:10:04.826Z</time>
      </trkpt>
      <trkpt lat="43.725015" lon="6.612193">
        <ele>941.323768</ele>
        <time>2022-07-27T23:10:17.498Z</time>
      </trkpt>
      <trkpt lat="43.725347" lon="6.613038">
        <ele>941.532024</ele>
        <time>2022-07-27T23:10:34.168Z</time>
      </trkpt>
      <trkpt lat="43.725845" lon="6.613913">
        <ele>941.906664</ele>
        <time>2022-07-27T23:10:52.302Z</time>
      </trkpt>
      <trkpt lat="43.726512" lon="6.614774">
        <ele>942.335749</ele>
        <time>2022-07-27T23:11:14.172Z</time>
      </trkpt>
      <trkpt lat="43.726535" lon="6.614801">
        <ele>942.349937</ele>
        <time>2022-07-27T23:11:14.955Z</time>
      </trkpt>
      <trkpt lat="43.726683" lon="6.614981">
        <ele>942.576171</ele>
        <time>2022-07-27T23:11:20.144Z</time>
      </trkpt>
      <trkpt lat="43.726761" lon="6.615080">
        <ele>942.741566</ele>
        <time>2022-07-27T23:11:23.075Z</time>
      </trkpt>
      <trkpt lat="43.727218" lon="6.615646">
        <ele>943.699963</ele>
        <time>2022-07-27T23:11:40.461Z</time>
      </trkpt>
      <trkpt lat="43.727533" lon="6.616048">
        <ele>944.369575</ele>
        <time>2022-07-27T23:11:53.166Z</time>
      </trkpt>
      <trkpt lat="43.728556" lon="6.617332">
        <ele>946.771022</ele>
        <time>2022-07-27T23:12:34.155Z</time>
      </trkpt>
      <trkpt lat="43.728854" lon="6.617865">
        <ele>947.670977</ele>
        <time>2022-07-27T23:12:48.202Z</time>
      </trkpt>
      <trkpt lat="43.729583" lon="6.619477">
        <ele>950.621716</ele>
        <time>2022-07-27T23:13:29.637Z</time>
      </trkpt>
      <trkpt lat="43.729821" lon="6.619936">
        <ele>951.559644</ele>
        <time>2022-07-27T23:13:43.378Z</time>
      </trkpt>
      <trkpt lat="43.730096" lon="6.620317">
        <ele>952.453684</ele>
        <time>2022-07-27T23:13:56.288Z</time>
      </trkpt>
      <trkpt lat="43.730756" lon="6.620968">
        <ele>954.375735</ele>
        <time>2022-07-27T23:14:22.277Z</time>
      </trkpt>
      <trkpt lat="43.731042" lon="6.621253">
        <ele>955.214626</ele>
        <time>2022-07-27T23:14:33.325Z</time>
      </trkpt>
      <trkpt lat="43.731614" lon="6.621761">
        <ele>956.832407</ele>
        <time>2022-07-27T23:14:54.560Z</time>
      </trkpt>
      <trkpt lat="43.732004" lon="6.622003">
        <ele>958.334326</ele>
        <time>2022-07-27T23:15:07.574Z</time>
      </trkpt>
      <trkpt lat="43.732888" lon="6.622251">
        <ele>961.616747</ele>
        <time>2022-07-27T23:15:38.578Z</time>
      </trkpt>
      <trkpt lat="43.733024" lon="6.622288">
        <ele>962.121140</ele>
        <time>2022-07-27T23:15:44.396Z</time>
      </trkpt>
      <trkpt lat="43.733154" lon="6.622325">
        <ele>962.604128</ele>
        <time>2022-07-27T23:15:50.063Z</time>
      </trkpt>
      <trkpt lat="43.733220" lon="6.622343">
        <ele>962.848929</ele>
        <time>2022-07-27T23:15:52.927Z</time>
      </trkpt>
      <trkpt lat="43.733579" lon="6.622463">
        <ele>964.998411</ele>
        <time>2022-07-27T23:16:09.652Z</time>
      </trkpt>
      <trkpt lat="43.734540" lon="6.623050">
        <ele>973.133903</ele>
        <time>2022-07-27T23:17:01.905Z</time>
      </trkpt>
      <trkpt lat="43.734884" lon="6.623391">
        <ele>976.411032</ele>
        <time>2022-07-27T23:17:30.273Z</time>
      </trkpt>
      <trkpt lat="43.735340" lon="6.624158">
        <ele>981.981897</ele>
        <time>2022-07-27T23:18:15.693Z</time>
      </trkpt>
      <trkpt lat="43.735455" lon="6.624401">
        <ele>983.611908</ele>
        <time>2022-07-27T23:18:24.485Z</time>
      </trkpt>
      <trkpt lat="43.735505" lon="6.624641">
        <ele>985.013496</ele>
        <time>2022-07-27T23:18:36.417Z</time>
      </trkpt>
      <trkpt lat="43.735502" lon="6.624908">
        <ele>986.511907</ele>
        <time>2022-07-27T23:18:43.903Z</time>
      </trkpt>
      <trkpt lat="43.735491" lon="6.625128">
        <ele>987.749355</ele>
        <time>2022-07-27T23:18:53.608Z</time>
      </trkpt>
      <trkpt lat="43.735485" lon="6.625424">
        <ele>989.410968</ele>
        <time>2022-07-27T23:19:01.804Z</time>
      </trkpt>
      <trkpt lat="43.735570" lon="6.625808">
        <ele>991.591873</ele>
        <time>2022-07-27T23:19:14.808Z</time>
      </trkpt>
      <trkpt lat="43.735762" lon="6.625965">
        <ele>992.884703</ele>
        <time>2022-07-27T23:19:27.536Z</time>
      </trkpt>
      <trkpt lat="43.735886" lon="6.625971">
        <ele>993.604002</ele>
        <time>2022-07-27T23:19:31.050Z</time>
      </trkpt>
      <trkpt lat="43.736290" lon="6.625955">
        <ele>995.947051</ele>
        <time>2022-07-27T23:19:50.741Z</time>
      </trkpt>
      <trkpt lat="43.736493" lon="6.626068">
        <ele>997.215511</ele>
        <time>2022-07-27T23:19:59.633Z</time>
      </trkpt>
      <trkpt lat="43.736607" lon="6.626346">
        <ele>998.554434</ele>
        <time>2022-07-27T23:20:09.174Z</time>
      </trkpt>
      <trkpt lat="43.736563" lon="6.627095">
        <ele>1001.702098</ele>
        <time>2022-07-27T23:20:32.042Z</time>
      </trkpt>
      <trkpt lat="43.736645" lon="6.627456">
        <ele>1003.834908</ele>
        <time>2022-07-27T23:20:46.218Z</time>
      </trkpt>
      <trkpt lat="43.736862" lon="6.627767">
        <ele>1006.315094</ele>
        <time>2022-07-27T23:21:03.926Z</time>
      </trkpt>
      <trkpt lat="43.737256" lon="6.628176">
        <ele>1010.225420</ele>
        <time>2022-07-27T23:21:32.503Z</time>
      </trkpt>
      <trkpt lat="43.737510" lon="6.628241">
        <ele>1012.276271</ele>
        <time>2022-07-27T23:21:47.241Z</time>
      </trkpt>
      <trkpt lat="43.737911" lon="6.628191">
        <ele>1015.472962</ele>
        <time>2022-07-27T23:22:10.288Z</time>
      </trkpt>
      <trkpt lat="43.738235" lon="6.628228">
        <ele>1017.521803</ele>
        <time>2022-07-27T23:22:28.076Z</time>
      </trkpt>
      <trkpt lat="43.739003" lon="6.628576">
        <ele>1022.202838</ele>
        <time>2022-07-27T23:23:04.420Z</time>
      </trkpt>
      <trkpt lat="43.739730" lon="6.628558">
        <ele>1026.414713</ele>
        <time>2022-07-27T23:23:34.316Z</time>
      </trkpt>
      <trkpt lat="43.740025" lon="6.628516">
        <ele>1027.981279</ele>
        <time>2022-07-27T23:23:45.774Z</time>
      </trkpt>
      <trkpt lat="43.741258" lon="6.628377">
        <ele>1034.481454</ele>
        <time>2022-07-27T23:24:37.435Z</time>
      </trkpt>
      <trkpt lat="43.742458" lon="6.628637">
        <ele>1042.383877</ele>
        <time>2022-07-27T23:25:38.915Z</time>
      </trkpt>
      <trkpt lat="43.743730" lon="6.628604">
        <ele>1051.016907</ele>
        <time>2022-07-27T23:26:42.237Z</time>
      </trkpt>
      <trkpt lat="43.744152" lon="6.628734">
        <ele>1053.862405</ele>
        <time>2022-07-27T23:27:04.459Z</time>
      </trkpt>
      <trkpt lat="43.744976" lon="6.629226">
        <ele>1059.768905</ele>
        <time>2022-07-27T23:27:47.629Z</time>
      </trkpt>
      <trkpt lat="43.745351" lon="6.629330">
        <ele>1061.894778</ele>
        <time>2022-07-27T23:28:04.969Z</time>
      </trkpt>
      <trkpt lat="43.745973" lon="6.629330">
        <ele>1065.230888</ele>
        <time>2022-07-27T23:28:31.977Z</time>
      </trkpt>
      <trkpt lat="43.746638" lon="6.629367">
        <ele>1068.800510</ele>
        <time>2022-07-27T23:29:01.398Z</time>
      </trkpt>
      <trkpt lat="43.748602" lon="6.629940">
        <ele>1076.674407</ele>
        <time>2022-07-27T23:30:20.007Z</time>
      </trkpt>
      <trkpt lat="43.749462" lon="6.629919">
        <ele>1075.138644</ele>
        <time>2022-07-27T23:30:39.305Z</time>
      </trkpt>
      <trkpt lat="43.749814" lon="6.629875">
        <ele>1074.507594</ele>
        <time>2022-07-27T23:30:45.157Z</time>
      </trkpt>
      <trkpt lat="43.750250" lon="6.629766">
        <ele>1073.716527</ele>
        <time>2022-07-27T23:30:51.986Z</time>
      </trkpt>
      <trkpt lat="43.751031" lon="6.629522">
        <ele>1068.849414</ele>
        <time>2022-07-27T23:31:03.560Z</time>
      </trkpt>
      <trkpt lat="43.751932" lon="6.629518">
        <ele>1062.667372</ele>
        <time>2022-07-27T23:31:16.224Z</time>
      </trkpt>
      <trkpt lat="43.752476" lon="6.629570">
        <ele>1059.486209</ele>
        <time>2022-07-27T23:31:24.048Z</time>
      </trkpt>
      <trkpt lat="43.753514" lon="6.629902">
        <ele>1054.013644</ele>
        <time>2022-07-27T23:31:40.129Z</time>
      </trkpt>
      <trkpt lat="43.753635" lon="6.629956">
        <ele>1053.360581</ele>
        <time>2022-07-27T23:31:42.132Z</time>
      </trkpt>
      <trkpt lat="43.753871" lon="6.630109">
        <ele>1052.021931</ele>
        <time>2022-07-27T23:31:46.250Z</time>
      </trkpt>
      <trkpt lat="43.753879" lon="6.630113">
        <ele>1051.978238</ele>
        <time>2022-07-27T23:31:46.388Z</time>
      </trkpt>
      <trkpt lat="43.754137" lon="6.630340">
        <ele>1051.061819</ele>
        <time>2022-07-27T23:31:51.309Z</time>
      </trkpt>
      <trkpt lat="43.755890" lon="6.632828">
        <ele>1043.991837</ele>
        <time>2022-07-27T23:32:33.505Z</time>
      </trkpt>
      <trkpt lat="43.756189" lon="6.633412">
        <ele>1042.607758</ele>
        <time>2022-07-27T23:32:42.125Z</time>
      </trkpt>
      <trkpt lat="43.756573" lon="6.634408">
        <ele>1040.453781</ele>
        <time>2022-07-27T23:32:55.998Z</time>
      </trkpt>
      <trkpt lat="43.756887" lon="6.634980">
        <ele>1039.092532</ele>
        <time>2022-07-27T23:33:04.756Z</time>
      </trkpt>
      <trkpt lat="43.757194" lon="6.635370">
        <ele>1037.999575</ele>
        <time>2022-07-27T23:33:11.907Z</time>
      </trkpt>
      <trkpt lat="43.757791" lon="6.635834">
        <ele>1035.780091</ele>
        <time>2022-07-27T23:33:23.215Z</time>
      </trkpt>
      <trkpt lat="43.758072" lon="6.636031">
        <ele>1034.584120</ele>
        <time>2022-07-27T23:33:28.244Z</time>
      </trkpt>
      <trkpt lat="43.760766" lon="6.637881">
        <ele>1023.273745</ele>
        <time>2022-07-27T23:34:14.958Z</time>
      </trkpt>
      <trkpt lat="43.760947" lon="6.638007">
        <ele>1023.296547</ele>
        <time>2022-07-27T23:34:18.728Z</time>
      </trkpt>
      <trkpt lat="43.761317" lon="6.638258">
        <ele>1023.342921</ele>
        <time>2022-07-27T23:34:26.896Z</time>
      </trkpt>
      <trkpt lat="43.761707" lon="6.638523">
        <ele>1023.391817</ele>
        <time>2022-07-27T23:34:37.129Z</time>
      </trkpt>
      <trkpt lat="43.764558" lon="6.640451">
        <ele>1027.477115</ele>
        <time>2022-07-27T23:36:18.586Z</time>
      </trkpt>
      <trkpt lat="43.764697" lon="6.640547">
        <ele>1027.397436</ele>
        <time>2022-07-27T23:36:22.828Z</time>
      </trkpt>
      <trkpt lat="43.768116" lon="6.642863">
        <ele>1024.908998</ele>
        <time>2022-07-27T23:37:33.518Z</time>
      </trkpt>
      <trkpt lat="43.771254" lon="6.644988">
        <ele>1023.293047</ele>
        <time>2022-07-27T23:38:45.624Z</time>
      </trkpt>
      <trkpt lat="43.771889" lon="6.645315">
        <ele>1023.257165</ele>
        <time>2022-07-27T23:39:00.364Z</time>
      </trkpt>
      <trkpt lat="43.772534" lon="6.645250">
        <ele>1023.558377</ele>
        <time>2022-07-27T23:39:17.630Z</time>
      </trkpt>
      <trkpt lat="43.772746" lon="6.645283">
        <ele>1023.691412</ele>
        <time>2022-07-27T23:39:24.981Z</time>
      </trkpt>
      <trkpt lat="43.773553" lon="6.645739">
        <ele>1024.234932</ele>
        <time>2022-07-27T23:39:45.611Z</time>
      </trkpt>
      <trkpt lat="43.773689" lon="6.645884">
        <ele>1024.341962</ele>
        <time>2022-07-27T23:39:49.860Z</time>
      </trkpt>
      <trkpt lat="43.773740" lon="6.646094">
        <ele>1024.311941</ele>
        <time>2022-07-27T23:39:52.897Z</time>
      </trkpt>
      <trkpt lat="43.773723" lon="6.646164">
        <ele>1024.284343</ele>
        <time>2022-07-27T23:39:53.978Z</time>
      </trkpt>
      <trkpt lat="43.773756" lon="6.646271">
        <ele>1024.240864</ele>
        <time>2022-07-27T23:39:56.239Z</time>
      </trkpt>
      <trkpt lat="43.773845" lon="6.646301">
        <ele>1024.193460</ele>
        <time>2022-07-27T23:39:57.976Z</time>
      </trkpt>
      <trkpt lat="43.773913" lon="6.646218">
        <ele>1024.146551</ele>
        <time>2022-07-27T23:39:59.711Z</time>
      </trkpt>
      <trkpt lat="43.773919" lon="6.646151">
        <ele>1024.121322</ele>
        <time>2022-07-27T23:40:00.581Z</time>
      </trkpt>
      <trkpt lat="43.773986" lon="6.645959">
        <ele>1024.041634</ele>
        <time>2022-07-27T23:40:04.252Z</time>
      </trkpt>
      <trkpt lat="43.774006" lon="6.645897">
        <ele>1024.016259</ele>
        <time>2022-07-27T23:40:05.201Z</time>
      </trkpt>
      <trkpt lat="43.774134" lon="6.645409">
        <ele>1023.822241</ele>
        <time>2022-07-27T23:40:12.948Z</time>
      </trkpt>
      <trkpt lat="43.774341" lon="6.644857">
        <ele>1023.589807</ele>
        <time>2022-07-27T23:40:22.488Z</time>
      </trkpt>
      <trkpt lat="43.774671" lon="6.644411">
        <ele>1023.554259</ele>
        <time>2022-07-27T23:40:30.657Z</time>
      </trkpt>
      <trkpt lat="43.774926" lon="6.644261">
        <ele>1023.738822</ele>
        <time>2022-07-27T23:40:35.622Z</time>
      </trkpt>
      <trkpt lat="43.778509" lon="6.642932">
        <ele>1028.058614</ele>
        <time>2022-07-27T23:42:20.499Z</time>
      </trkpt>
      <trkpt lat="43.778792" lon="6.642771">
        <ele>1028.446856</ele>
        <time>2022-07-27T23:42:29.174Z</time>
      </trkpt>
      <trkpt lat="43.779088" lon="6.642486">
        <ele>1028.904327</ele>
        <time>2022-07-27T23:42:39.173Z</time>
      </trkpt>
      <trkpt lat="43.779268" lon="6.642365">
        <ele>1029.158229</ele>
        <time>2022-07-27T23:42:44.561Z</time>
      </trkpt>
      <trkpt lat="43.779347" lon="6.642347">
        <ele>1029.259827</ele>
        <time>2022-07-27T23:42:46.665Z</time>
      </trkpt>
      <trkpt lat="43.779549" lon="6.642430">
        <ele>1029.527207</ele>
        <time>2022-07-27T23:42:52.287Z</time>
      </trkpt>
      <trkpt lat="43.780536" lon="6.643269">
        <ele>1030.139306</ele>
        <time>2022-07-27T23:43:20.804Z</time>
      </trkpt>
      <trkpt lat="43.781031" lon="6.643406">
        <ele>1030.378094</ele>
        <time>2022-07-27T23:43:32.692Z</time>
      </trkpt>
      <trkpt lat="43.781301" lon="6.643493">
        <ele>1030.508820</ele>
        <time>2022-07-27T23:43:38.834Z</time>
      </trkpt>
      <trkpt lat="43.781523" lon="6.643698">
        <ele>1030.633237</ele>
        <time>2022-07-27T23:43:44.655Z</time>
      </trkpt>
      <trkpt lat="43.782264" lon="6.644474">
        <ele>1031.066419</ele>
        <time>2022-07-27T23:44:05.883Z</time>
      </trkpt>
      <trkpt lat="43.782905" lon="6.645112">
        <ele>1031.645065</ele>
        <time>2022-07-27T23:44:26.782Z</time>
      </trkpt>
      <trkpt lat="43.783274" lon="6.645639">
        <ele>1032.343839</ele>
        <time>2022-07-27T23:44:42.122Z</time>
      </trkpt>
      <trkpt lat="43.784132" lon="6.647093">
        <ele>1033.803827</ele>
        <time>2022-07-27T23:45:19.772Z</time>
      </trkpt>
      <trkpt lat="43.784500" lon="6.647564">
        <ele>1033.973600</ele>
        <time>2022-07-27T23:45:32.014Z</time>
      </trkpt>
      <trkpt lat="43.785471" lon="6.648811">
        <ele>1034.513732</ele>
        <time>2022-07-27T23:46:00.223Z</time>
      </trkpt>
      <trkpt lat="43.785940" lon="6.649226">
        <ele>1034.843399</ele>
        <time>2022-07-27T23:46:12.565Z</time>
      </trkpt>
      <trkpt lat="43.786877" lon="6.649852">
        <ele>1035.837195</ele>
        <time>2022-07-27T23:46:40.106Z</time>
      </trkpt>
      <trkpt lat="43.787122" lon="6.649986">
        <ele>1036.618823</ele>
        <time>2022-07-27T23:46:48.541Z</time>
      </trkpt>
      <trkpt lat="43.787351" lon="6.650030">
        <ele>1037.304860</ele>
        <time>2022-07-27T23:46:56.355Z</time>
      </trkpt>
      <trkpt lat="43.787582" lon="6.650028">
        <ele>1037.990339</ele>
        <time>2022-07-27T23:47:04.336Z</time>
      </trkpt>
      <trkpt lat="43.789395" lon="6.649494">
        <ele>1043.720327</ele>
        <time>2022-07-27T23:48:13.328Z</time>
      </trkpt>
      <trkpt lat="43.789589" lon="6.649490">
        <ele>1044.343533</ele>
        <time>2022-07-27T23:48:20.016Z</time>
      </trkpt>
      <trkpt lat="43.789816" lon="6.649572">
        <ele>1045.097050</ele>
        <time>2022-07-27T23:48:28.325Z</time>
      </trkpt>
      <trkpt lat="43.790556" lon="6.650103">
        <ele>1047.215860</ele>
        <time>2022-07-27T23:48:54.282Z</time>
      </trkpt>
      <trkpt lat="43.791020" lon="6.650421">
        <ele>1048.161478</ele>
        <time>2022-07-27T23:49:09.543Z</time>
      </trkpt>
      <trkpt lat="43.791200" lon="6.650760">
        <ele>1048.716384</ele>
        <time>2022-07-27T23:49:18.157Z</time>
      </trkpt>
      <trkpt lat="43.791252" lon="6.650997">
        <ele>1049.043008</ele>
        <time>2022-07-27T23:49:23.242Z</time>
      </trkpt>
      <trkpt lat="43.791313" lon="6.652235">
        <ele>1050.390369</ele>
        <time>2022-07-27T23:49:49.173Z</time>
      </trkpt>
      <trkpt lat="43.791400" lon="6.652771">
        <ele>1050.885761</ele>
        <time>2022-07-27T23:50:00.173Z</time>
      </trkpt>
      <trkpt lat="43.791655" lon="6.653653">
        <ele>1051.742498</ele>
        <time>2022-07-27T23:50:18.549Z</time>
      </trkpt>
      <trkpt lat="43.791692" lon="6.653953">
        <ele>1052.013617</ele>
        <time>2022-07-27T23:50:24.140Z</time>
      </trkpt>
      <trkpt lat="43.791701" lon="6.655091">
        <ele>1052.299605</ele>
        <time>2022-07-27T23:50:43.872Z</time>
      </trkpt>
      <trkpt lat="43.791833" lon="6.655488">
        <ele>1052.409442</ele>
        <time>2022-07-27T23:50:50.874Z</time>
      </trkpt>
      <trkpt lat="43.792631" lon="6.657216">
        <ele>1053.271820</ele>
        <time>2022-07-27T23:51:25.160Z</time>
      </trkpt>
      <trkpt lat="43.792845" lon="6.657624">
        <ele>1053.552025</ele>
        <time>2022-07-27T23:51:35.090Z</time>
      </trkpt>
      <trkpt lat="43.793154" lon="6.658004">
        <ele>1053.870047</ele>
        <time>2022-07-27T23:51:46.340Z</time>
      </trkpt>
      <trkpt lat="43.793355" lon="6.658104">
        <ele>1054.020687</ele>
        <time>2022-07-27T23:51:52.507Z</time>
      </trkpt>
      <trkpt lat="43.793522" lon="6.658117">
        <ele>1053.996509</ele>
        <time>2022-07-27T23:51:56.807Z</time>
      </trkpt>
      <trkpt lat="43.794026" lon="6.658005">
        <ele>1053.922724</ele>
        <time>2022-07-27T23:52:10.043Z</time>
      </trkpt>
      <trkpt lat="43.794093" lon="6.658149">
        <ele>1053.904848</ele>
        <time>2022-07-27T23:52:12.725Z</time>
      </trkpt>
      <trkpt lat="43.794222" lon="6.658160">
        <ele>1053.886166</ele>
        <time>2022-07-27T23:52:15.407Z</time>
      </trkpt>
      <trkpt lat="43.794610" lon="6.658069">
        <ele>1053.829283</ele>
        <time>2022-07-27T23:52:23.614Z</time>
      </trkpt>
      <trkpt lat="43.794807" lon="6.658114">
        <ele>1053.800422</ele>
        <time>2022-07-27T23:52:27.619Z</time>
      </trkpt>
      <trkpt lat="43.794913" lon="6.658260">
        <ele>1053.778815</ele>
        <time>2022-07-27T23:52:30.469Z</time>
      </trkpt>
      <trkpt lat="43.794924" lon="6.658527">
        <ele>1053.548126</ele>
        <time>2022-07-27T23:52:34.231Z</time>
      </trkpt>
      <trkpt lat="43.794786" lon="6.658739">
        <ele>1053.013044</ele>
        <time>2022-07-27T23:52:37.798Z</time>
      </trkpt>
      <trkpt lat="43.793780" lon="6.659826">
        <ele>1049.700137</ele>
        <time>2022-07-27T23:52:58.671Z</time>
      </trkpt>
      <trkpt lat="43.793531" lon="6.660203">
        <ele>1048.882761</ele>
        <time>2022-07-27T23:53:04.687Z</time>
      </trkpt>
      <trkpt lat="43.793081" lon="6.661170">
        <ele>1047.591623</ele>
        <time>2022-07-27T23:53:19.421Z</time>
      </trkpt>
      <trkpt lat="43.792562" lon="6.662286">
        <ele>1046.249092</ele>
        <time>2022-07-27T23:53:38.301Z</time>
      </trkpt>
      <trkpt lat="43.792496" lon="6.662415">
        <ele>1046.206205</ele>
        <time>2022-07-27T23:53:40.716Z</time>
      </trkpt>
      <trkpt lat="43.792427" lon="6.662564">
        <ele>1046.158188</ele>
        <time>2022-07-27T23:53:43.447Z</time>
      </trkpt>
      <trkpt lat="43.792402" lon="6.662608">
        <ele>1046.143000</ele>
        <time>2022-07-27T23:53:44.292Z</time>
      </trkpt>
      <trkpt lat="43.791958" lon="6.663634">
        <ele>1045.818529</ele>
        <time>2022-07-27T23:54:02.736Z</time>
      </trkpt>
      <trkpt lat="43.791741" lon="6.664888">
        <ele>1045.505928</ele>
        <time>2022-07-27T23:54:22.349Z</time>
      </trkpt>
      <trkpt lat="43.791482" lon="6.666526">
        <ele>1045.162750</ele>
        <time>2022-07-27T23:54:47.636Z</time>
      </trkpt>
      <trkpt lat="43.791480" lon="6.667585">
        <ele>1045.310304</ele>
        <time>2022-07-27T23:55:04.955Z</time>
      </trkpt>
      <trkpt lat="43.791665" lon="6.669440">
        <ele>1045.928938</ele>
        <time>2022-07-27T23:55:37.215Z</time>
      </trkpt>
      <trkpt lat="43.791917" lon="6.670497">
        <ele>1047.127636</ele>
        <time>2022-07-27T23:55:58.609Z</time>
      </trkpt>
      <trkpt lat="43.792057" lon="6.671507">
        <ele>1048.235117</ele>
        <time>2022-07-27T23:56:20.673Z</time>
      </trkpt>
      <trkpt lat="43.792636" lon="6.675516">
        <ele>1056.032646</ele>
        <time>2022-07-27T23:58:00.053Z</time>
      </trkpt>
      <trkpt lat="43.793252" lon="6.677649">
        <ele>1059.864757</ele>
        <time>2022-07-27T23:58:50.641Z</time>
      </trkpt>
      <trkpt lat="43.793470" lon="6.678228">
        <ele>1060.867580</ele>
        <time>2022-07-27T23:59:05.030Z</time>
      </trkpt>
      <trkpt lat="43.793744" lon="6.678947">
        <ele>1062.121943</ele>
        <time>2022-07-27T23:59:23.315Z</time>
      </trkpt>
      <trkpt lat="43.793908" lon="6.679915">
        <ele>1063.676355</ele>
        <time>2022-07-27T23:59:46.109Z</time>
      </trkpt>
      <trkpt lat="43.793931" lon="6.681239">
        <ele>1065.727937</ele>
        <time>2022-07-28T00:00:15.806Z</time>
      </trkpt>
      <trkpt lat="43.793879" lon="6.683677">
        <ele>1068.298325</ele>
        <time>2022-07-28T00:01:05.489Z</time>
      </trkpt>
      <trkpt lat="43.793761" lon="6.685050">
        <ele>1068.443533</ele>
        <time>2022-07-28T00:01:30.204Z</time>
      </trkpt>
      <trkpt lat="43.793743" lon="6.686267">
        <ele>1068.500514</ele>
        <time>2022-07-28T00:01:47.823Z</time>
      </trkpt>
      <trkpt lat="43.793686" lon="6.686914">
        <ele>1068.156046</ele>
        <time>2022-07-28T00:01:56.856Z</time>
      </trkpt>
      <trkpt lat="43.793358" lon="6.688195">
        <ele>1067.437723</ele>
        <time>2022-07-28T00:02:16.235Z</time>
      </trkpt>
      <trkpt lat="43.793211" lon="6.688950">
        <ele>1067.363672</ele>
        <time>2022-07-28T00:02:27.597Z</time>
      </trkpt>
      <trkpt lat="43.793283" lon="6.690235">
        <ele>1067.793019</ele>
        <time>2022-07-28T00:02:50.010Z</time>
      </trkpt>
      <trkpt lat="43.793378" lon="6.690925">
        <ele>1068.027016</ele>
        <time>2022-07-28T00:03:03.738Z</time>
      </trkpt>
      <trkpt lat="43.793535" lon="6.691805">
        <ele>1068.826248</ele>
        <time>2022-07-28T00:03:21.771Z</time>
      </trkpt>
      <trkpt lat="43.793991" lon="6.693191">
        <ele>1070.280722</ele>
        <time>2022-07-28T00:03:52.015Z</time>
      </trkpt>
      <trkpt lat="43.794075" lon="6.693541">
        <ele>1070.638284</ele>
        <time>2022-07-28T00:03:59.329Z</time>
      </trkpt>
      <trkpt lat="43.794155" lon="6.694319">
        <ele>1071.409754</ele>
        <time>2022-07-28T00:04:15.014Z</time>
      </trkpt>
      <trkpt lat="43.794190" lon="6.695228">
        <ele>1072.303383</ele>
        <time>2022-07-28T00:04:33.318Z</time>
      </trkpt>
      <trkpt lat="43.794375" lon="6.696729">
        <ele>1073.739778</ele>
        <time>2022-07-28T00:05:03.628Z</time>
      </trkpt>
      <trkpt lat="43.794402" lon="6.697196">
        <ele>1074.170159</ele>
        <time>2022-07-28T00:05:13.195Z</time>
      </trkpt>
      <trkpt lat="43.794356" lon="6.698395">
        <ele>1075.191614</ele>
        <time>2022-07-28T00:05:37.106Z</time>
      </trkpt>
      <trkpt lat="43.794447" lon="6.699544">
        <ele>1075.351346</ele>
        <time>2022-07-28T00:05:57.709Z</time>
      </trkpt>
      <trkpt lat="43.794455" lon="6.701354">
        <ele>1075.245101</ele>
        <time>2022-07-28T00:06:24.754Z</time>
      </trkpt>
      <trkpt lat="43.794583" lon="6.702475">
        <ele>1074.702944</ele>
        <time>2022-07-28T00:06:40.660Z</time>
      </trkpt>
      <trkpt lat="43.794770" lon="6.703344">
        <ele>1074.323870</ele>
        <time>2022-07-28T00:06:53.902Z</time>
      </trkpt>
      <trkpt lat="43.794902" lon="6.704373">
        <ele>1074.264383</ele>
        <time>2022-07-28T00:07:10.043Z</time>
      </trkpt>
      <trkpt lat="43.794918" lon="6.705912">
        <ele>1074.198315</ele>
        <time>2022-07-28T00:07:35.469Z</time>
      </trkpt>
      <trkpt lat="43.794844" lon="6.706823">
        <ele>1074.235462</ele>
        <time>2022-07-28T00:07:50.844Z</time>
      </trkpt>
      <trkpt lat="43.794831" lon="6.707676">
        <ele>1074.270034</ele>
        <time>2022-07-28T00:08:04.622Z</time>
      </trkpt>
      <trkpt lat="43.794863" lon="6.708354">
        <ele>1074.249993</ele>
        <time>2022-07-28T00:08:15.226Z</time>
      </trkpt>
      <trkpt lat="43.794914" lon="6.709212">
        <ele>1074.055591</ele>
        <time>2022-07-28T00:08:28.235Z</time>
      </trkpt>
      <trkpt lat="43.795015" lon="6.709596">
        <ele>1073.963302</ele>
        <time>2022-07-28T00:08:34.424Z</time>
      </trkpt>
      <trkpt lat="43.795487" lon="6.710555">
        <ele>1073.722664</ele>
        <time>2022-07-28T00:08:51.706Z</time>
      </trkpt>
      <trkpt lat="43.796173" lon="6.713650">
        <ele>1074.330058</ele>
        <time>2022-07-28T00:09:43.681Z</time>
      </trkpt>
      <trkpt lat="43.796268" lon="6.714318">
        <ele>1074.889018</ele>
        <time>2022-07-28T00:09:56.639Z</time>
      </trkpt>
      <trkpt lat="43.796325" lon="6.717495">
        <ele>1079.859724</ele>
        <time>2022-07-28T00:11:08.497Z</time>
      </trkpt>
      <trkpt lat="43.796828" lon="6.719403">
        <ele>1084.903433</ele>
        <time>2022-07-28T00:12:05.470Z</time>
      </trkpt>
      <trkpt lat="43.796953" lon="6.721037">
        <ele>1087.328573</ele>
        <time>2022-07-28T00:12:45.151Z</time>
      </trkpt>
      <trkpt lat="43.796996" lon="6.722061">
        <ele>1087.959683</ele>
        <time>2022-07-28T00:13:03.219Z</time>
      </trkpt>
      <trkpt lat="43.797327" lon="6.723939">
        <ele>1087.063213</ele>
        <time>2022-07-28T00:13:28.448Z</time>
      </trkpt>
      <trkpt lat="43.797462" lon="6.725355">
        <ele>1086.073075</ele>
        <time>2022-07-28T00:13:48.241Z</time>
      </trkpt>
      <trkpt lat="43.797693" lon="6.726429">
        <ele>1086.040327</ele>
        <time>2022-07-28T00:14:06.226Z</time>
      </trkpt>
      <trkpt lat="43.797732" lon="6.726931">
        <ele>1086.025573</ele>
        <time>2022-07-28T00:14:14.750Z</time>
      </trkpt>
      <trkpt lat="43.797703" lon="6.729184">
        <ele>1086.624745</ele>
        <time>2022-07-28T00:14:54.138Z</time>
      </trkpt>
      <trkpt lat="43.797548" lon="6.731228">
        <ele>1087.154052</ele>
        <time>2022-07-28T00:15:30.212Z</time>
      </trkpt>
      <trkpt lat="43.797151" lon="6.733287">
        <ele>1087.012690</ele>
        <time>2022-07-28T00:16:04.477Z</time>
      </trkpt>
      <trkpt lat="43.797051" lon="6.734071">
        <ele>1086.682492</ele>
        <time>2022-07-28T00:16:16.178Z</time>
      </trkpt>
      <trkpt lat="43.797078" lon="6.734619">
        <ele>1086.454683</ele>
        <time>2022-07-28T00:16:23.845Z</time>
      </trkpt>
      <trkpt lat="43.797238" lon="6.735447">
        <ele>1085.659864</ele>
        <time>2022-07-28T00:16:35.274Z</time>
      </trkpt>
      <trkpt lat="43.797258" lon="6.735759">
        <ele>1085.309515</ele>
        <time>2022-07-28T00:16:39.345Z</time>
      </trkpt>
      <trkpt lat="43.797068" lon="6.737929">
        <ele>1083.068852</ele>
        <time>2022-07-28T00:17:07.872Z</time>
      </trkpt>
      <trkpt lat="43.796869" lon="6.738970">
        <ele>1082.212753</ele>
        <time>2022-07-28T00:17:22.483Z</time>
      </trkpt>
      <trkpt lat="43.796179" lon="6.741436">
        <ele>1081.167806</ele>
        <time>2022-07-28T00:18:02.098Z</time>
      </trkpt>
      <trkpt lat="43.795852" lon="6.743052">
        <ele>1081.155447</ele>
        <time>2022-07-28T00:18:28.896Z</time>
      </trkpt>
      <trkpt lat="43.795689" lon="6.745623">
        <ele>1081.723964</ele>
        <time>2022-07-28T00:19:12.774Z</time>
      </trkpt>
      <trkpt lat="43.795608" lon="6.746312">
        <ele>1081.962511</ele>
        <time>2022-07-28T00:19:24.412Z</time>
      </trkpt>
      <trkpt lat="43.795399" lon="6.747181">
        <ele>1082.471990</ele>
        <time>2022-07-28T00:19:41.386Z</time>
      </trkpt>
      <trkpt lat="43.795378" lon="6.747463">
        <ele>1082.783970</ele>
        <time>2022-07-28T00:19:46.883Z</time>
      </trkpt>
      <trkpt lat="43.795488" lon="6.748305">
        <ele>1083.725623</ele>
        <time>2022-07-28T00:20:03.535Z</time>
      </trkpt>
      <trkpt lat="43.795553" lon="6.748950">
        <ele>1084.442312</ele>
        <time>2022-07-28T00:20:17.125Z</time>
      </trkpt>
      <trkpt lat="43.795543" lon="6.749423">
        <ele>1084.999027</ele>
        <time>2022-07-28T00:20:27.563Z</time>
      </trkpt>
      <trkpt lat="43.795394" lon="6.750849">
        <ele>1088.270440</ele>
        <time>2022-07-28T00:21:03.663Z</time>
      </trkpt>
      <trkpt lat="43.795512" lon="6.752854">
        <ele>1092.611958</ele>
        <time>2022-07-28T00:21:56.600Z</time>
      </trkpt>
      <trkpt lat="43.795455" lon="6.753226">
        <ele>1093.388755</ele>
        <time>2022-07-28T00:22:06.227Z</time>
      </trkpt>
      <trkpt lat="43.795276" lon="6.753743">
        <ele>1094.560010</ele>
        <time>2022-07-28T00:22:19.777Z</time>
      </trkpt>
      <trkpt lat="43.795029" lon="6.754756">
        <ele>1095.842028</ele>
        <time>2022-07-28T00:22:42.476Z</time>
      </trkpt>
      <trkpt lat="43.794881" lon="6.755613">
        <ele>1096.120728</ele>
        <time>2022-07-28T00:22:58.678Z</time>
      </trkpt>
      <trkpt lat="43.794873" lon="6.755902">
        <ele>1096.212200</ele>
        <time>2022-07-28T00:23:03.136Z</time>
      </trkpt>
      <trkpt lat="43.795106" lon="6.757575">
        <ele>1096.006807</ele>
        <time>2022-07-28T00:23:27.638Z</time>
      </trkpt>
      <trkpt lat="43.794987" lon="6.758242">
        <ele>1095.659030</ele>
        <time>2022-07-28T00:23:37.457Z</time>
      </trkpt>
      <trkpt lat="43.794893" lon="6.758676">
        <ele>1095.429674</ele>
        <time>2022-07-28T00:23:43.970Z</time>
      </trkpt>
      <trkpt lat="43.794842" lon="6.759353">
        <ele>1095.149445</ele>
        <time>2022-07-28T00:23:53.693Z</time>
      </trkpt>
      <trkpt lat="43.795211" lon="6.761916">
        <ele>1094.749347</ele>
        <time>2022-07-28T00:24:33.649Z</time>
      </trkpt>
      <trkpt lat="43.795256" lon="6.762554">
        <ele>1094.969644</ele>
        <time>2022-07-28T00:24:44.538Z</time>
      </trkpt>
      <trkpt lat="43.795162" lon="6.763406">
        <ele>1095.265840</ele>
        <time>2022-07-28T00:24:59.790Z</time>
      </trkpt>
      <trkpt lat="43.794787" lon="6.764833">
        <ele>1096.336693</ele>
        <time>2022-07-28T00:25:28.576Z</time>
      </trkpt>
      <trkpt lat="43.794746" lon="6.765153">
        <ele>1096.649886</ele>
        <time>2022-07-28T00:25:34.985Z</time>
      </trkpt>
      <trkpt lat="43.794725" lon="6.765889">
        <ele>1097.359698</ele>
        <time>2022-07-28T00:25:49.595Z</time>
      </trkpt>
      <trkpt lat="43.794418" lon="6.768194">
        <ele>1100.793919</ele>
        <time>2022-07-28T00:26:40.062Z</time>
      </trkpt>
      <trkpt lat="43.794372" lon="6.769725">
        <ele>1103.293147</ele>
        <time>2022-07-28T00:27:18.847Z</time>
      </trkpt>
      <trkpt lat="43.794163" lon="6.771649">
        <ele>1105.852430</ele>
        <time>2022-07-28T00:28:02.065Z</time>
      </trkpt>
      <trkpt lat="43.794197" lon="6.772563">
        <ele>1105.370911</ele>
        <time>2022-07-28T00:28:15.764Z</time>
      </trkpt>
      <trkpt lat="43.794332" lon="6.773635">
        <ele>1104.798383</ele>
        <time>2022-07-28T00:28:29.668Z</time>
      </trkpt>
      <trkpt lat="43.794564" lon="6.774553">
        <ele>1104.588624</ele>
        <time>2022-07-28T00:28:41.723Z</time>
      </trkpt>
      <trkpt lat="43.794793" lon="6.775902">
        <ele>1104.397559</ele>
        <time>2022-07-28T00:29:04.496Z</time>
      </trkpt>
      <trkpt lat="43.795046" lon="6.776393">
        <ele>1105.005763</ele>
        <time>2022-07-28T00:29:16.913Z</time>
      </trkpt>
      <trkpt lat="43.795355" lon="6.776916">
        <ele>1106.611481</ele>
        <time>2022-07-28T00:29:34.923Z</time>
      </trkpt>
      <trkpt lat="43.795746" lon="6.777938">
        <ele>1109.359527</ele>
        <time>2022-07-28T00:30:06.929Z</time>
      </trkpt>
      <trkpt lat="43.795924" lon="6.778551">
        <ele>1110.848190</ele>
        <time>2022-07-28T00:30:25.453Z</time>
      </trkpt>
      <trkpt lat="43.797056" lon="6.783471">
        <ele>1120.864841</ele>
        <time>2022-07-28T00:32:27.009Z</time>
      </trkpt>
      <trkpt lat="43.797137" lon="6.784039">
        <ele>1121.831659</ele>
        <time>2022-07-28T00:32:39.975Z</time>
      </trkpt>
      <trkpt lat="43.797299" lon="6.785817">
        <ele>1124.818006</ele>
        <time>2022-07-28T00:33:20.244Z</time>
      </trkpt>
      <trkpt lat="43.797767" lon="6.790411">
        <ele>1132.378354</ele>
        <time>2022-07-28T00:35:05.544Z</time>
      </trkpt>
      <trkpt lat="43.797795" lon="6.791155">
        <ele>1133.119148</ele>
        <time>2022-07-28T00:35:21.652Z</time>
      </trkpt>
      <trkpt lat="43.797748" lon="6.792454">
        <ele>1134.403206</ele>
        <time>2022-07-28T00:35:47.315Z</time>
      </trkpt>
      <trkpt lat="43.797901" lon="6.794391">
        <ele>1135.746274</ele>
        <time>2022-07-28T00:36:22.122Z</time>
      </trkpt>
      <trkpt lat="43.797942" lon="6.798166">
        <ele>1138.724581</ele>
        <time>2022-07-28T00:37:34.002Z</time>
      </trkpt>
      <trkpt lat="43.798003" lon="6.799089">
        <ele>1140.133843</ele>
        <time>2022-07-28T00:37:53.505Z</time>
      </trkpt>
      <trkpt lat="43.798079" lon="6.799579">
        <ele>1140.895879</ele>
        <time>2022-07-28T00:38:03.643Z</time>
      </trkpt>
      <trkpt lat="43.798220" lon="6.800453">
        <ele>1142.524620</ele>
        <time>2022-07-28T00:38:25.070Z</time>
      </trkpt>
      <trkpt lat="43.798728" lon="6.801508">
        <ele>1147.346803</ele>
        <time>2022-07-28T00:39:03.935Z</time>
      </trkpt>
      <trkpt lat="43.799139" lon="6.801497">
        <ele>1149.512350</ele>
        <time>2022-07-28T00:39:23.010Z</time>
      </trkpt>
      <trkpt lat="43.799351" lon="6.801563">
        <ele>1150.657011</ele>
        <time>2022-07-28T00:39:33.828Z</time>
      </trkpt>
      <trkpt lat="43.799905" lon="6.802463">
        <ele>1156.604256</ele>
        <time>2022-07-28T00:40:17.066Z</time>
      </trkpt>
      <trkpt lat="43.800208" lon="6.802816">
        <ele>1159.529661</ele>
        <time>2022-07-28T00:40:39.017Z</time>
      </trkpt>
      <trkpt lat="43.800875" lon="6.804980">
        <ele>1172.342076</ele>
        <time>2022-07-28T00:42:10.640Z</time>
      </trkpt>
      <trkpt lat="43.801122" lon="6.805406">
        <ele>1175.362182</ele>
        <time>2022-07-28T00:42:31.947Z</time>
      </trkpt>
      <trkpt lat="43.801290" lon="6.805480">
        <ele>1176.712116</ele>
        <time>2022-07-28T00:42:41.801Z</time>
      </trkpt>
      <trkpt lat="43.801479" lon="6.805262">
        <ele>1178.595292</ele>
        <time>2022-07-28T00:42:55.072Z</time>
      </trkpt>
      <trkpt lat="43.801593" lon="6.804627">
        <ele>1181.890308</ele>
        <time>2022-07-28T00:43:19.648Z</time>
      </trkpt>
      <trkpt lat="43.801656" lon="6.804506">
        <ele>1182.641114</ele>
        <time>2022-07-28T00:43:24.948Z</time>
      </trkpt>
      <trkpt lat="43.801907" lon="6.804458">
        <ele>1184.407770</ele>
        <time>2022-07-28T00:43:38.399Z</time>
      </trkpt>
      <trkpt lat="43.802227" lon="6.804698">
        <ele>1186.944831</ele>
        <time>2022-07-28T00:44:02.109Z</time>
      </trkpt>
      <trkpt lat="43.802415" lon="6.804579">
        <ele>1188.385944</ele>
        <time>2022-07-28T00:44:11.698Z</time>
      </trkpt>
      <trkpt lat="43.802832" lon="6.803219">
        <ele>1193.076329</ele>
        <time>2022-07-28T00:44:53.222Z</time>
      </trkpt>
      <trkpt lat="43.802909" lon="6.803077">
        <ele>1193.443711</ele>
        <time>2022-07-28T00:45:00.652Z</time>
      </trkpt>
      <trkpt lat="43.802946" lon="6.803052">
        <ele>1193.561688</ele>
        <time>2022-07-28T00:45:01.653Z</time>
      </trkpt>
      <trkpt lat="43.803111" lon="6.803077">
        <ele>1194.037391</ele>
        <time>2022-07-28T00:45:05.007Z</time>
      </trkpt>
      <trkpt lat="43.803282" lon="6.803509">
        <ele>1195.056522</ele>
        <time>2022-07-28T00:45:16.381Z</time>
      </trkpt>
      <trkpt lat="43.803652" lon="6.803924">
        <ele>1196.350181</ele>
        <time>2022-07-28T00:45:31.500Z</time>
      </trkpt>
      <trkpt lat="43.803699" lon="6.803981">
        <ele>1196.409554</ele>
        <time>2022-07-28T00:45:34.018Z</time>
      </trkpt>
      <trkpt lat="43.803909" lon="6.804226">
        <ele>1196.670513</ele>
        <time>2022-07-28T00:45:39.507Z</time>
      </trkpt>
      <trkpt lat="43.803943" lon="6.804403">
        <ele>1196.796169</ele>
        <time>2022-07-28T00:45:44.575Z</time>
      </trkpt>
      <trkpt lat="43.803649" lon="6.805288">
        <ele>1197.464548</ele>
        <time>2022-07-28T00:45:59.405Z</time>
      </trkpt>
      <trkpt lat="43.803590" lon="6.805715">
        <ele>1197.762809</ele>
        <time>2022-07-28T00:46:07.935Z</time>
      </trkpt>
      <trkpt lat="43.803614" lon="6.806101">
        <ele>1198.038347</ele>
        <time>2022-07-28T00:46:17.172Z</time>
      </trkpt>
      <trkpt lat="43.803775" lon="6.806543">
        <ele>1199.263818</ele>
        <time>2022-07-28T00:46:29.402Z</time>
      </trkpt>
      <trkpt lat="43.803894" lon="6.806724">
        <ele>1199.869846</ele>
        <time>2022-07-28T00:46:35.577Z</time>
      </trkpt>
      <trkpt lat="43.804022" lon="6.806793">
        <ele>1200.340884</ele>
        <time>2022-07-28T00:46:40.253Z</time>
      </trkpt>
      <trkpt lat="43.804388" lon="6.806840">
        <ele>1201.601487</ele>
        <time>2022-07-28T00:46:54.002Z</time>
      </trkpt>
      <trkpt lat="43.804636" lon="6.806795">
        <ele>1202.459283</ele>
        <time>2022-07-28T00:47:02.800Z</time>
      </trkpt>
      <trkpt lat="43.805003" lon="6.806409">
        <ele>1204.039472</ele>
        <time>2022-07-28T00:47:24.021Z</time>
      </trkpt>
      <trkpt lat="43.805111" lon="6.806355">
        <ele>1204.491866</ele>
        <time>2022-07-28T00:47:28.923Z</time>
      </trkpt>
      <trkpt lat="43.805310" lon="6.806411">
        <ele>1205.358537</ele>
        <time>2022-07-28T00:47:36.135Z</time>
      </trkpt>
      <trkpt lat="43.805598" lon="6.806647">
        <ele>1206.786583</ele>
        <time>2022-07-28T00:47:48.283Z</time>
      </trkpt>
      <trkpt lat="43.805680" lon="6.806625">
        <ele>1207.143060</ele>
        <time>2022-07-28T00:47:52.550Z</time>
      </trkpt>
      <trkpt lat="43.805797" lon="6.806711">
        <ele>1207.708326</ele>
        <time>2022-07-28T00:47:57.284Z</time>
      </trkpt>
      <trkpt lat="43.805790" lon="6.806730">
        <ele>1207.774034</ele>
        <time>2022-07-28T00:47:57.694Z</time>
      </trkpt>
      <trkpt lat="43.805265" lon="6.806160">
        <ele>1210.620655</ele>
        <time>2022-07-28T00:48:14.957Z</time>
      </trkpt>
      <trkpt lat="43.804740" lon="6.805590">
        <ele>1212.727991</ele>
        <time>2022-07-28T00:48:32.219Z</time>
      </trkpt>
      <trkpt lat="43.805005" lon="6.805020">
        <ele>1213.849799</ele>
        <time>2022-07-28T00:48:44.879Z</time>
      </trkpt>
      <trkpt lat="43.805270" lon="6.804450">
        <ele>1214.971603</ele>
        <time>2022-07-28T00:48:57.534Z</time>
      </trkpt>
      <trkpt lat="43.805500" lon="6.805590">
        <ele>1215.632836</ele>
        <time>2022-07-28T00:49:19.624Z</time>
      </trkpt>
      <trkpt lat="43.805960" lon="6.806310">
        <ele>1215.020243</ele>
        <time>2022-07-28T00:49:37.570Z</time>
      </trkpt>
      <trkpt lat="43.806420" lon="6.807030">
        <ele>1214.407654</ele>
        <time>2022-07-28T00:49:55.518Z</time>
      </trkpt>
      <trkpt lat="43.806880" lon="6.807750">
        <ele>1213.631323</ele>
        <time>2022-07-28T00:50:13.466Z</time>
      </trkpt>
      <trkpt lat="43.806610" lon="6.808770">
        <ele>1212.753625</ele>
        <time>2022-07-28T00:50:33.741Z</time>
      </trkpt>
      <trkpt lat="43.806537" lon="6.808574">
        <ele>1212.575441</ele>
        <time>2022-07-28T00:50:37.856Z</time>
      </trkpt>
      <trkpt lat="43.806495" lon="6.808980">
        <ele>1212.066341</ele>
        <time>2022-07-28T00:50:44.275Z</time>
      </trkpt>
      <trkpt lat="43.806416" lon="6.809552">
        <ele>1211.031630</ele>
        <time>2022-07-28T00:50:51.738Z</time>
      </trkpt>
      <trkpt lat="43.806435" lon="6.810163">
        <ele>1209.945064</ele>
        <time>2022-07-28T00:50:59.414Z</time>
      </trkpt>
      <trkpt lat="43.806450" lon="6.811989">
        <ele>1204.212830</ele>
        <time>2022-07-28T00:51:20.626Z</time>
      </trkpt>
      <trkpt lat="43.806423" lon="6.812355">
        <ele>1202.272316</ele>
        <time>2022-07-28T00:51:24.459Z</time>
      </trkpt>
      <trkpt lat="43.806362" lon="6.812571">
        <ele>1201.048908</ele>
        <time>2022-07-28T00:51:26.861Z</time>
      </trkpt>
      <trkpt lat="43.805829" lon="6.813081">
        <ele>1196.314912</ele>
        <time>2022-07-28T00:51:35.711Z</time>
      </trkpt>
      <trkpt lat="43.805309" lon="6.813634">
        <ele>1190.629904</ele>
        <time>2022-07-28T00:51:44.544Z</time>
      </trkpt>
      <trkpt lat="43.804811" lon="6.813741">
        <ele>1185.947022</ele>
        <time>2022-07-28T00:51:51.335Z</time>
      </trkpt>
      <trkpt lat="43.804428" lon="6.813810">
        <ele>1182.358105</ele>
        <time>2022-07-28T00:51:56.685Z</time>
      </trkpt>
      <trkpt lat="43.804325" lon="6.813880">
        <ele>1181.292068</ele>
        <time>2022-07-28T00:51:58.292Z</time>
      </trkpt>
      <trkpt lat="43.804297" lon="6.813996">
        <ele>1180.471774</ele>
        <time>2022-07-28T00:51:59.471Z</time>
      </trkpt>
      <trkpt lat="43.804338" lon="6.814169">
        <ele>1179.250624</ele>
        <time>2022-07-28T00:52:01.355Z</time>
      </trkpt>
      <trkpt lat="43.804714" lon="6.814993">
        <ele>1174.701390</ele>
        <time>2022-07-28T00:52:11.565Z</time>
      </trkpt>
      <trkpt lat="43.804784" lon="6.815342">
        <ele>1173.168042</ele>
        <time>2022-07-28T00:52:15.473Z</time>
      </trkpt>
      <trkpt lat="43.804779" lon="6.815618">
        <ele>1171.999337</ele>
        <time>2022-07-28T00:52:18.945Z</time>
      </trkpt>
      <trkpt lat="43.804740" lon="6.815822">
        <ele>1171.105999</ele>
        <time>2022-07-28T00:52:21.165Z</time>
      </trkpt>
      <trkpt lat="43.804614" lon="6.815957">
        <ele>1170.171778</ele>
        <time>2022-07-28T00:52:24.054Z</time>
      </trkpt>
      <trkpt lat="43.804388" lon="6.815884">
        <ele>1168.810645</ele>
        <time>2022-07-28T00:52:27.438Z</time>
      </trkpt>
      <trkpt lat="43.804051" lon="6.815574">
        <ele>1165.937791</ele>
        <time>2022-07-28T00:52:33.251Z</time>
      </trkpt>
      <trkpt lat="43.803887" lon="6.815539">
        <ele>1164.528749</ele>
        <time>2022-07-28T00:52:35.601Z</time>
      </trkpt>
      <trkpt lat="43.803216" lon="6.815977">
        <ele>1158.230261</ele>
        <time>2022-07-28T00:52:45.758Z</time>
      </trkpt>
      <trkpt lat="43.802500" lon="6.816080">
        <ele>1152.150894</ele>
        <time>2022-07-28T00:52:55.562Z</time>
      </trkpt>
      <trkpt lat="43.800400" lon="6.816382">
        <ele>1139.771047</ele>
        <time>2022-07-28T00:53:26.034Z</time>
      </trkpt>
      <trkpt lat="43.800074" lon="6.816260">
        <ele>1139.435468</ele>
        <time>2022-07-28T00:53:32.403Z</time>
      </trkpt>
      <trkpt lat="43.800142" lon="6.816639">
        <ele>1139.155352</ele>
        <time>2022-07-28T00:53:38.361Z</time>
      </trkpt>
      <trkpt lat="43.800191" lon="6.816890">
        <ele>1138.968850</ele>
        <time>2022-07-28T00:53:42.746Z</time>
      </trkpt>
      <trkpt lat="43.800620" lon="6.819130">
        <ele>1140.400369</ele>
        <time>2022-07-28T00:54:33.829Z</time>
      </trkpt>
      <trkpt lat="43.801423" lon="6.823288">
        <ele>1146.691501</ele>
        <time>2022-07-28T00:56:08.456Z</time>
      </trkpt>
      <trkpt lat="43.801538" lon="6.824111">
        <ele>1147.838469</ele>
        <time>2022-07-28T00:56:25.538Z</time>
      </trkpt>
      <trkpt lat="43.801527" lon="6.824358">
        <ele>1148.177066</ele>
        <time>2022-07-28T00:56:30.581Z</time>
      </trkpt>
      <trkpt lat="43.801238" lon="6.825632">
        <ele>1150.722466</ele>
        <time>2022-07-28T00:57:00.157Z</time>
      </trkpt>
      <trkpt lat="43.800990" lon="6.826458">
        <ele>1152.930213</ele>
        <time>2022-07-28T00:57:23.356Z</time>
      </trkpt>
      <trkpt lat="43.800718" lon="6.827086">
        <ele>1154.737639</ele>
        <time>2022-07-28T00:57:44.404Z</time>
      </trkpt>
      <trkpt lat="43.800299" lon="6.829197">
        <ele>1161.747610</ele>
        <time>2022-07-28T00:58:48.546Z</time>
      </trkpt>
      <trkpt lat="43.800095" lon="6.829553">
        <ele>1163.238782</ele>
        <time>2022-07-28T00:59:02.096Z</time>
      </trkpt>
      <trkpt lat="43.799413" lon="6.830366">
        <ele>1166.857405</ele>
        <time>2022-07-28T00:59:37.452Z</time>
      </trkpt>
      <trkpt lat="43.799224" lon="6.830668">
        <ele>1168.010147</ele>
        <time>2022-07-28T00:59:48.839Z</time>
      </trkpt>
      <trkpt lat="43.799011" lon="6.831290">
        <ele>1169.995596</ele>
        <time>2022-07-28T01:00:06.661Z</time>
      </trkpt>
      <trkpt lat="43.798963" lon="6.831781">
        <ele>1171.017979</ele>
        <time>2022-07-28T01:00:19.773Z</time>
      </trkpt>
      <trkpt lat="43.799033" lon="6.832281">
        <ele>1171.742470</ele>
        <time>2022-07-28T01:00:33.057Z</time>
      </trkpt>
      <trkpt lat="43.799360" lon="6.833730">
        <ele>1173.902025</ele>
        <time>2022-07-28T01:01:05.205Z</time>
      </trkpt>
      <trkpt lat="43.799847" lon="6.834920">
        <ele>1173.512688</ele>
        <time>2022-07-28T01:01:25.439Z</time>
      </trkpt>
      <trkpt lat="43.800498" lon="6.837017">
        <ele>1172.718525</ele>
        <time>2022-07-28T01:01:55.892Z</time>
      </trkpt>
      <trkpt lat="43.800520" lon="6.837189">
        <ele>1172.706210</ele>
        <time>2022-07-28T01:01:58.385Z</time>
      </trkpt>
      <trkpt lat="43.800455" lon="6.837788">
        <ele>1172.663504</ele>
        <time>2022-07-28T01:02:07.878Z</time>
      </trkpt>
      <trkpt lat="43.800390" lon="6.837870">
        <ele>1172.654917</ele>
        <time>2022-07-28T01:02:10.077Z</time>
      </trkpt>
      <trkpt lat="43.800417" lon="6.838023">
        <ele>1172.643812</ele>
        <time>2022-07-28T01:02:12.894Z</time>
      </trkpt>
      <trkpt lat="43.800528" lon="6.838040">
        <ele>1172.632903</ele>
        <time>2022-07-28T01:02:15.810Z</time>
      </trkpt>
      <trkpt lat="43.800922" lon="6.838412">
        <ele>1173.311358</ele>
        <time>2022-07-28T01:02:30.312Z</time>
      </trkpt>
      <trkpt lat="43.801197" lon="6.838932">
        <ele>1174.581014</ele>
        <time>2022-07-28T01:02:46.427Z</time>
      </trkpt>
      <trkpt lat="43.801383" lon="6.839327">
        <ele>1175.509904</ele>
        <time>2022-07-28T01:02:58.738Z</time>
      </trkpt>
      <trkpt lat="43.801763" lon="6.840375">
        <ele>1177.541107</ele>
        <time>2022-07-28T01:03:28.458Z</time>
      </trkpt>
      <trkpt lat="43.801939" lon="6.841026">
        <ele>1177.639342</ele>
        <time>2022-07-28T01:03:42.984Z</time>
      </trkpt>
      <trkpt lat="43.802089" lon="6.841779">
        <ele>1177.749727</ele>
        <time>2022-07-28T01:03:56.949Z</time>
      </trkpt>
      <trkpt lat="43.802353" lon="6.844706">
        <ele>1175.103370</ele>
        <time>2022-07-28T01:04:33.548Z</time>
      </trkpt>
      <trkpt lat="43.802505" lon="6.845923">
        <ele>1175.363051</ele>
        <time>2022-07-28T01:04:52.325Z</time>
      </trkpt>
      <trkpt lat="43.802808" lon="6.846970">
        <ele>1176.448350</ele>
        <time>2022-07-28T01:05:16.680Z</time>
      </trkpt>
      <trkpt lat="43.803347" lon="6.848464">
        <ele>1178.787731</ele>
        <time>2022-07-28T01:05:58.185Z</time>
      </trkpt>
      <trkpt lat="43.804826" lon="6.852950">
        <ele>1185.237558</ele>
        <time>2022-07-28T01:07:40.425Z</time>
      </trkpt>
      <trkpt lat="43.806331" lon="6.856349">
        <ele>1190.285171</ele>
        <time>2022-07-28T01:09:06.305Z</time>
      </trkpt>
      <trkpt lat="43.808005" lon="6.859462">
        <ele>1191.310378</ele>
        <time>2022-07-28T01:10:15.656Z</time>
      </trkpt>
      <trkpt lat="43.808240" lon="6.860324">
        <ele>1191.057478</ele>
        <time>2022-07-28T01:10:28.112Z</time>
      </trkpt>
      <trkpt lat="43.808617" lon="6.861427">
        <ele>1188.130882</ele>
        <time>2022-07-28T01:10:42.852Z</time>
      </trkpt>
      <trkpt lat="43.809047" lon="6.863490">
        <ele>1181.719817</ele>
        <time>2022-07-28T01:11:06.643Z</time>
      </trkpt>
      <trkpt lat="43.809002" lon="6.864520">
        <ele>1177.900087</ele>
        <time>2022-07-28T01:11:17.679Z</time>
      </trkpt>
      <trkpt lat="43.809049" lon="6.865222">
        <ele>1175.308223</ele>
        <time>2022-07-28T01:11:25.275Z</time>
      </trkpt>
      <trkpt lat="43.808971" lon="6.865596">
        <ele>1174.143028</ele>
        <time>2022-07-28T01:11:29.515Z</time>
      </trkpt>
      <trkpt lat="43.808476" lon="6.866637">
        <ele>1170.411729</ele>
        <time>2022-07-28T01:11:43.456Z</time>
      </trkpt>
      <trkpt lat="43.808337" lon="6.867093">
        <ele>1168.930142</ele>
        <time>2022-07-28T01:11:49.209Z</time>
      </trkpt>
      <trkpt lat="43.808315" lon="6.867696">
        <ele>1167.353125</ele>
        <time>2022-07-28T01:11:56.333Z</time>
      </trkpt>
      <trkpt lat="43.808408" lon="6.868476">
        <ele>1165.666662</ele>
        <time>2022-07-28T01:12:05.686Z</time>
      </trkpt>
      <trkpt lat="43.808357" lon="6.869133">
        <ele>1164.257057</ele>
        <time>2022-07-28T01:12:13.650Z</time>
      </trkpt>
      <trkpt lat="43.808141" lon="6.870173">
        <ele>1161.942102</ele>
        <time>2022-07-28T01:12:26.634Z</time>
      </trkpt>
      <trkpt lat="43.807997" lon="6.871518">
        <ele>1159.013517</ele>
        <time>2022-07-28T01:12:42.863Z</time>
      </trkpt>
      <trkpt lat="43.808153" lon="6.872706">
        <ele>1156.222101</ele>
        <time>2022-07-28T01:12:57.297Z</time>
      </trkpt>
      <trkpt lat="43.808268" lon="6.874493">
        <ele>1151.466386</ele>
        <time>2022-07-28T01:13:17.804Z</time>
      </trkpt>
      <trkpt lat="43.808464" lon="6.875433">
        <ele>1149.057241</ele>
        <time>2022-07-28T01:13:28.801Z</time>
      </trkpt>
      <trkpt lat="43.808765" lon="6.876271">
        <ele>1146.836113</ele>
        <time>2022-07-28T01:13:39.400Z</time>
      </trkpt>
      <trkpt lat="43.808902" lon="6.877018">
        <ele>1145.007262</ele>
        <time>2022-07-28T01:13:48.421Z</time>
      </trkpt>
      <trkpt lat="43.808979" lon="6.878726">
        <ele>1145.398124</ele>
        <time>2022-07-28T01:14:14.679Z</time>
      </trkpt>
      <trkpt lat="43.809052" lon="6.881393">
        <ele>1148.854485</ele>
        <time>2022-07-28T01:15:20.169Z</time>
      </trkpt>
      <trkpt lat="43.808914" lon="6.882615">
        <ele>1149.775398</ele>
        <time>2022-07-28T01:15:45.526Z</time>
      </trkpt>
      <trkpt lat="43.808839" lon="6.882855">
        <ele>1149.600384</ele>
        <time>2022-07-28T01:15:49.744Z</time>
      </trkpt>
      <trkpt lat="43.808762" lon="6.883003">
        <ele>1149.478291</ele>
        <time>2022-07-28T01:15:52.526Z</time>
      </trkpt>
      <trkpt lat="43.808808" lon="6.883128">
        <ele>1149.384396</ele>
        <time>2022-07-28T01:15:54.422Z</time>
      </trkpt>
      <trkpt lat="43.808807" lon="6.883396">
        <ele>1149.205054</ele>
        <time>2022-07-28T01:15:58.238Z</time>
      </trkpt>
      <trkpt lat="43.808631" lon="6.884659">
        <ele>1148.045776</ele>
        <time>2022-07-28T01:16:14.321Z</time>
      </trkpt>
      <trkpt lat="43.808184" lon="6.886230">
        <ele>1143.701983</ele>
        <time>2022-07-28T01:16:33.541Z</time>
      </trkpt>
      <trkpt lat="43.807869" lon="6.887778">
        <ele>1139.559494</ele>
        <time>2022-07-28T01:16:51.905Z</time>
      </trkpt>
      <trkpt lat="43.807257" lon="6.891772">
        <ele>1129.793770</ele>
        <time>2022-07-28T01:17:39.404Z</time>
      </trkpt>
      <trkpt lat="43.807011" lon="6.892331">
        <ele>1129.379284</ele>
        <time>2022-07-28T01:17:47.790Z</time>
      </trkpt>
      <trkpt lat="43.805097" lon="6.894839">
        <ele>1129.718463</ele>
        <time>2022-07-28T01:18:45.200Z</time>
      </trkpt>
      <trkpt lat="43.803719" lon="6.896650">
        <ele>1136.146170</ele>
        <time>2022-07-28T01:19:59.150Z</time>
      </trkpt>
      <trkpt lat="43.803294" lon="6.897355">
        <ele>1138.044206</ele>
        <time>2022-07-28T01:20:26.821Z</time>
      </trkpt>
      <trkpt lat="43.803112" lon="6.897876">
        <ele>1138.677030</ele>
        <time>2022-07-28T01:20:40.718Z</time>
      </trkpt>
      <trkpt lat="43.802955" lon="6.898666">
        <ele>1139.572884</ele>
        <time>2022-07-28T01:20:57.613Z</time>
      </trkpt>
      <trkpt lat="43.802835" lon="6.900451">
        <ele>1138.571202</ele>
        <time>2022-07-28T01:21:20.779Z</time>
      </trkpt>
      <trkpt lat="43.802703" lon="6.901021">
        <ele>1137.666440</ele>
        <time>2022-07-28T01:21:27.801Z</time>
      </trkpt>
      <trkpt lat="43.802614" lon="6.901221">
        <ele>1137.311319</ele>
        <time>2022-07-28T01:21:30.580Z</time>
      </trkpt>
      <trkpt lat="43.801986" lon="6.902172">
        <ele>1136.203517</ele>
        <time>2022-07-28T01:21:46.959Z</time>
      </trkpt>
      <trkpt lat="43.801859" lon="6.902953">
        <ele>1135.870145</ele>
        <time>2022-07-28T01:21:59.988Z</time>
      </trkpt>
      <trkpt lat="43.801763" lon="6.903168">
        <ele>1135.764868</ele>
        <time>2022-07-28T01:22:04.254Z</time>
      </trkpt>
      <trkpt lat="43.801573" lon="6.903306">
        <ele>1135.641096</ele>
        <time>2022-07-28T01:22:09.597Z</time>
      </trkpt>
      <trkpt lat="43.801179" lon="6.903393">
        <ele>1135.052633</ele>
        <time>2022-07-28T01:22:19.384Z</time>
      </trkpt>
      <trkpt lat="43.801037" lon="6.903477">
        <ele>1134.534921</ele>
        <time>2022-07-28T01:22:22.937Z</time>
      </trkpt>
      <trkpt lat="43.800950" lon="6.903649">
        <ele>1134.026628</ele>
        <time>2022-07-28T01:22:26.445Z</time>
      </trkpt>
      <trkpt lat="43.800926" lon="6.904183">
        <ele>1132.731815</ele>
        <time>2022-07-28T01:22:33.413Z</time>
      </trkpt>
      <trkpt lat="43.800980" lon="6.905016">
        <ele>1130.707794</ele>
        <time>2022-07-28T01:22:42.514Z</time>
      </trkpt>
      <trkpt lat="43.801238" lon="6.905881">
        <ele>1127.080025</ele>
        <time>2022-07-28T01:22:52.353Z</time>
      </trkpt>
      <trkpt lat="43.801450" lon="6.906281">
        <ele>1124.261359</ele>
        <time>2022-07-28T01:22:57.389Z</time>
      </trkpt>
      <trkpt lat="43.801535" lon="6.906790">
        <ele>1121.293993</ele>
        <time>2022-07-28T01:23:02.592Z</time>
      </trkpt>
      <trkpt lat="43.801367" lon="6.907579">
        <ele>1116.621721</ele>
        <time>2022-07-28T01:23:10.774Z</time>
      </trkpt>
      <trkpt lat="43.800895" lon="6.908420">
        <ele>1110.846033</ele>
        <time>2022-07-28T01:23:21.692Z</time>
      </trkpt>
      <trkpt lat="43.800329" lon="6.909133">
        <ele>1105.176450</ele>
        <time>2022-07-28T01:23:32.899Z</time>
      </trkpt>
      <trkpt lat="43.800049" lon="6.909323">
        <ele>1102.865701</ele>
        <time>2022-07-28T01:23:37.332Z</time>
      </trkpt>
      <trkpt lat="43.798241" lon="6.909732">
        <ele>1085.277287</ele>
        <time>2022-07-28T01:24:02.252Z</time>
      </trkpt>
      <trkpt lat="43.797913" lon="6.909717">
        <ele>1082.081731</ele>
        <time>2022-07-28T01:24:06.678Z</time>
      </trkpt>
      <trkpt lat="43.797622" lon="6.909594">
        <ele>1079.121306</ele>
        <time>2022-07-28T01:24:10.789Z</time>
      </trkpt>
      <trkpt lat="43.797445" lon="6.909392">
        <ele>1076.889918</ele>
        <time>2022-07-28T01:24:13.960Z</time>
      </trkpt>
      <trkpt lat="43.797245" lon="6.908982">
        <ele>1073.414375</ele>
        <time>2022-07-28T01:24:18.911Z</time>
      </trkpt>
      <trkpt lat="43.796993" lon="6.908617">
        <ele>1069.866905</ele>
        <time>2022-07-28T01:24:23.949Z</time>
      </trkpt>
      <trkpt lat="43.796860" lon="6.908544">
        <ele>1068.474885</ele>
        <time>2022-07-28T01:24:25.886Z</time>
      </trkpt>
      <trkpt lat="43.796739" lon="6.908597">
        <ele>1067.240051</ele>
        <time>2022-07-28T01:24:27.608Z</time>
      </trkpt>
      <trkpt lat="43.796695" lon="6.908805">
        <ele>1065.553721</ele>
        <time>2022-07-28T01:24:29.696Z</time>
      </trkpt>
      <trkpt lat="43.796728" lon="6.909915">
        <ele>1056.687215</ele>
        <time>2022-07-28T01:24:40.526Z</time>
      </trkpt>
      <trkpt lat="43.796555" lon="6.910932">
        <ele>1048.348090</ele>
        <time>2022-07-28T01:24:50.562Z</time>
      </trkpt>
      <trkpt lat="43.796740" lon="6.912212">
        <ele>1038.593140</ele>
        <time>2022-07-28T01:25:03.189Z</time>
      </trkpt>
      <trkpt lat="43.796788" lon="6.913092">
        <ele>1032.063242</ele>
        <time>2022-07-28T01:25:11.909Z</time>
      </trkpt>
      <trkpt lat="43.796767" lon="6.913402">
        <ele>1029.759397</ele>
        <time>2022-07-28T01:25:15.028Z</time>
      </trkpt>
      <trkpt lat="43.796567" lon="6.913882">
        <ele>1025.598741</ele>
        <time>2022-07-28T01:25:20.533Z</time>
      </trkpt>
      <trkpt lat="43.796278" lon="6.914091">
        <ele>1022.188846</ele>
        <time>2022-07-28T01:25:24.996Z</time>
      </trkpt>
      <trkpt lat="43.796114" lon="6.914299">
        <ele>1019.863205</ele>
        <time>2022-07-28T01:25:28.062Z</time>
      </trkpt>
      <trkpt lat="43.796073" lon="6.914414">
        <ele>1018.894836</ele>
        <time>2022-07-28T01:25:29.331Z</time>
      </trkpt>
      <trkpt lat="43.796072" lon="6.914892">
        <ele>1015.285985</ele>
        <time>2022-07-28T01:25:33.926Z</time>
      </trkpt>
      <trkpt lat="43.796005" lon="6.915258">
        <ele>1012.435252</ele>
        <time>2022-07-28T01:25:37.543Z</time>
      </trkpt>
      <trkpt lat="43.796066" lon="6.915785">
        <ele>1008.076199</ele>
        <time>2022-07-28T01:25:42.653Z</time>
      </trkpt>
      <trkpt lat="43.796351" lon="6.916301">
        <ele>1001.996109</ele>
        <time>2022-07-28T01:25:49.016Z</time>
      </trkpt>
      <trkpt lat="43.796329" lon="6.917017">
        <ele>995.289882</ele>
        <time>2022-07-28T01:25:55.825Z</time>
      </trkpt>
      <trkpt lat="43.796510" lon="6.917327">
        <ele>991.558721</ele>
        <time>2022-07-28T01:25:59.849Z</time>
      </trkpt>
      <trkpt lat="43.796533" lon="6.917433">
        <ele>990.522952</ele>
        <time>2022-07-28T01:26:00.864Z</time>
      </trkpt>
      <trkpt lat="43.796410" lon="6.918241">
        <ele>982.943784</ele>
        <time>2022-07-28T01:26:08.702Z</time>
      </trkpt>
      <trkpt lat="43.796148" lon="6.918851">
        <ele>976.569827</ele>
        <time>2022-07-28T01:26:15.267Z</time>
      </trkpt>
      <trkpt lat="43.796184" lon="6.919210">
        <ele>973.315184</ele>
        <time>2022-07-28T01:26:18.900Z</time>
      </trkpt>
      <trkpt lat="43.796239" lon="6.919604">
        <ele>969.711663</ele>
        <time>2022-07-28T01:26:22.879Z</time>
      </trkpt>
      <trkpt lat="43.796225" lon="6.919882">
        <ele>967.209264</ele>
        <time>2022-07-28T01:26:25.603Z</time>
      </trkpt>
      <trkpt lat="43.796117" lon="6.920212">
        <ele>964.052671</ele>
        <time>2022-07-28T01:26:29.347Z</time>
      </trkpt>
      <trkpt lat="43.796104" lon="6.920490">
        <ele>963.398358</ele>
        <time>2022-07-28T01:26:32.130Z</time>
      </trkpt>
      <trkpt lat="43.796192" lon="6.920704">
        <ele>962.819887</ele>
        <time>2022-07-28T01:26:34.547Z</time>
      </trkpt>
      <trkpt lat="43.796367" lon="6.920912">
        <ele>962.069602</ele>
        <time>2022-07-28T01:26:37.890Z</time>
      </trkpt>
      <trkpt lat="43.796701" lon="6.920999">
        <ele>960.963741</ele>
        <time>2022-07-28T01:26:43.233Z</time>
      </trkpt>
      <trkpt lat="43.796777" lon="6.921209">
        <ele>960.411990</ele>
        <time>2022-07-28T01:26:45.759Z</time>
      </trkpt>
      <trkpt lat="43.796777" lon="6.921577">
        <ele>959.547669</ele>
        <time>2022-07-28T01:26:54.074Z</time>
      </trkpt>
      <trkpt lat="43.796698" lon="6.921792">
        <ele>958.981034</ele>
        <time>2022-07-28T01:26:57.434Z</time>
      </trkpt>
      <trkpt lat="43.796666" lon="6.921962">
        <ele>958.568401</ele>
        <time>2022-07-28T01:27:02.649Z</time>
      </trkpt>
      <trkpt lat="43.796697" lon="6.922590">
        <ele>958.964333</ele>
        <time>2022-07-28T01:27:19.790Z</time>
      </trkpt>
      <trkpt lat="43.796792" lon="6.923609">
        <ele>960.503666</ele>
        <time>2022-07-28T01:27:47.915Z</time>
      </trkpt>
      <trkpt lat="43.796885" lon="6.924365">
        <ele>961.652624</ele>
        <time>2022-07-28T01:28:02.591Z</time>
      </trkpt>
      <trkpt lat="43.797218" lon="6.926269">
        <ele>958.158134</ele>
        <time>2022-07-28T01:28:28.684Z</time>
      </trkpt>
      <trkpt lat="43.797147" lon="6.926733">
        <ele>957.124918</ele>
        <time>2022-07-28T01:28:33.783Z</time>
      </trkpt>
      <trkpt lat="43.796752" lon="6.927384">
        <ele>952.825145</ele>
        <time>2022-07-28T01:28:42.375Z</time>
      </trkpt>
      <trkpt lat="43.796605" lon="6.928121">
        <ele>947.942702</ele>
        <time>2022-07-28T01:28:49.958Z</time>
      </trkpt>
      <trkpt lat="43.796638" lon="6.928697">
        <ele>944.253116</ele>
        <time>2022-07-28T01:28:55.550Z</time>
      </trkpt>
      <trkpt lat="43.796935" lon="6.929307">
        <ele>939.771163</ele>
        <time>2022-07-28T01:29:02.824Z</time>
      </trkpt>
      <trkpt lat="43.797415" lon="6.930613">
        <ele>932.301071</ele>
        <time>2022-07-28T01:29:18.030Z</time>
      </trkpt>
      <trkpt lat="43.797463" lon="6.931053">
        <ele>930.032895</ele>
        <time>2022-07-28T01:29:22.706Z</time>
      </trkpt>
      <trkpt lat="43.797474" lon="6.931891">
        <ele>925.740674</ele>
        <time>2022-07-28T01:29:31.555Z</time>
      </trkpt>
      <trkpt lat="43.797559" lon="6.932168">
        <ele>924.192195</ele>
        <time>2022-07-28T01:29:34.754Z</time>
      </trkpt>
      <trkpt lat="43.797900" lon="6.932829">
        <ele>920.012376</ele>
        <time>2022-07-28T01:29:43.281Z</time>
      </trkpt>
      <trkpt lat="43.798099" lon="6.933733">
        <ele>915.150251</ele>
        <time>2022-07-28T01:29:52.782Z</time>
      </trkpt>
      <trkpt lat="43.798342" lon="6.934569">
        <ele>909.869325</ele>
        <time>2022-07-28T01:30:01.735Z</time>
      </trkpt>
      <trkpt lat="43.798341" lon="6.935091">
        <ele>906.807046</ele>
        <time>2022-07-28T01:30:06.991Z</time>
      </trkpt>
      <trkpt lat="43.798290" lon="6.935912">
        <ele>901.972912</ele>
        <time>2022-07-28T01:30:15.307Z</time>
      </trkpt>
      <trkpt lat="43.798431" lon="6.936651">
        <ele>899.196407</ele>
        <time>2022-07-28T01:30:23.185Z</time>
      </trkpt>
      <trkpt lat="43.798502" lon="6.937473">
        <ele>897.105419</ele>
        <time>2022-07-28T01:30:32.476Z</time>
      </trkpt>
      <trkpt lat="43.798728" lon="6.938242">
        <ele>895.008278</ele>
        <time>2022-07-28T01:30:44.520Z</time>
      </trkpt>
      <trkpt lat="43.799004" lon="6.939202">
        <ele>892.538468</ele>
        <time>2022-07-28T01:30:58.968Z</time>
      </trkpt>
      <trkpt lat="43.798934" lon="6.939610">
        <ele>891.561965</ele>
        <time>2022-07-28T01:31:04.154Z</time>
      </trkpt>
      <trkpt lat="43.798621" lon="6.940480">
        <ele>889.298442</ele>
        <time>2022-07-28T01:31:15.448Z</time>
      </trkpt>
      <trkpt lat="43.798222" lon="6.941297">
        <ele>885.308126</ele>
        <time>2022-07-28T01:31:25.713Z</time>
      </trkpt>
      <trkpt lat="43.798058" lon="6.941824">
        <ele>882.343086</ele>
        <time>2022-07-28T01:31:31.542Z</time>
      </trkpt>
      <trkpt lat="43.797786" lon="6.942079">
        <ele>879.992249</ele>
        <time>2022-07-28T01:31:36.181Z</time>
      </trkpt>
      <trkpt lat="43.797671" lon="6.942224">
        <ele>878.879220</ele>
        <time>2022-07-28T01:31:38.305Z</time>
      </trkpt>
      <trkpt lat="43.797610" lon="6.942449">
        <ele>877.637445</ele>
        <time>2022-07-28T01:31:40.784Z</time>
      </trkpt>
      <trkpt lat="43.797568" lon="6.943522">
        <ele>872.720500</ele>
        <time>2022-07-28T01:31:51.878Z</time>
      </trkpt>
      <trkpt lat="43.797593" lon="6.943911">
        <ele>871.076195</ele>
        <time>2022-07-28T01:31:55.963Z</time>
      </trkpt>
      <trkpt lat="43.797516" lon="6.944010">
        <ele>870.463426</ele>
        <time>2022-07-28T01:31:57.506Z</time>
      </trkpt>
      <trkpt lat="43.797441" lon="6.943899">
        <ele>869.823259</ele>
        <time>2022-07-28T01:31:59.068Z</time>
      </trkpt>
      <trkpt lat="43.797463" lon="6.943394">
        <ele>867.693159</ele>
        <time>2022-07-28T01:32:04.757Z</time>
      </trkpt>
      <trkpt lat="43.797348" lon="6.942571">
        <ele>864.347030</ele>
        <time>2022-07-28T01:32:13.993Z</time>
      </trkpt>
      <trkpt lat="43.797395" lon="6.941864">
        <ele>861.994521</ele>
        <time>2022-07-28T01:32:21.612Z</time>
      </trkpt>
      <trkpt lat="43.797544" lon="6.941092">
        <ele>859.346688</ele>
        <time>2022-07-28T01:32:30.669Z</time>
      </trkpt>
      <trkpt lat="43.797572" lon="6.940403">
        <ele>857.060127</ele>
        <time>2022-07-28T01:32:38.834Z</time>
      </trkpt>
      <trkpt lat="43.797797" lon="6.939689">
        <ele>853.807080</ele>
        <time>2022-07-28T01:32:47.049Z</time>
      </trkpt>
      <trkpt lat="43.797807" lon="6.939228">
        <ele>851.830486</ele>
        <time>2022-07-28T01:32:51.781Z</time>
      </trkpt>
      <trkpt lat="43.797760" lon="6.938744">
        <ele>849.737524</ele>
        <time>2022-07-28T01:32:56.875Z</time>
      </trkpt>
      <trkpt lat="43.797612" lon="6.938512">
        <ele>848.410563</ele>
        <time>2022-07-28T01:33:00.183Z</time>
      </trkpt>
      <trkpt lat="43.797385" lon="6.938473">
        <ele>847.052402</ele>
        <time>2022-07-28T01:33:03.536Z</time>
      </trkpt>
      <trkpt lat="43.797111" lon="6.938717">
        <ele>845.388432</ele>
        <time>2022-07-28T01:33:08.289Z</time>
      </trkpt>
      <trkpt lat="43.797029" lon="6.939095">
        <ele>844.167996</ele>
        <time>2022-07-28T01:33:12.565Z</time>
      </trkpt>
      <trkpt lat="43.797117" lon="6.939961">
        <ele>841.463885</ele>
        <time>2022-07-28T01:33:22.244Z</time>
      </trkpt>
      <trkpt lat="43.797097" lon="6.940551">
        <ele>839.637572</ele>
        <time>2022-07-28T01:33:28.672Z</time>
      </trkpt>
      <trkpt lat="43.796896" lon="6.941426">
        <ele>837.487543</ele>
        <time>2022-07-28T01:33:40.810Z</time>
      </trkpt>
      <trkpt lat="43.796755" lon="6.941682">
        <ele>836.924949</ele>
        <time>2022-07-28T01:33:45.633Z</time>
      </trkpt>
      <trkpt lat="43.796659" lon="6.941851">
        <ele>836.549222</ele>
        <time>2022-07-28T01:33:48.377Z</time>
      </trkpt>
      <trkpt lat="43.796611" lon="6.941892">
        <ele>836.412733</ele>
        <time>2022-07-28T01:33:49.563Z</time>
      </trkpt>
      <trkpt lat="43.796507" lon="6.941899">
        <ele>836.160708</ele>
        <time>2022-07-28T01:33:52.145Z</time>
      </trkpt>
      <trkpt lat="43.796003" lon="6.941844">
        <ele>834.937016</ele>
        <time>2022-07-28T01:34:02.459Z</time>
      </trkpt>
      <trkpt lat="43.795979" lon="6.941766">
        <ele>834.788876</ele>
        <time>2022-07-28T01:34:03.372Z</time>
      </trkpt>
      <trkpt lat="43.795814" lon="6.941959">
        <ele>834.266190</ele>
        <time>2022-07-28T01:34:07.305Z</time>
      </trkpt>
      <trkpt lat="43.795789" lon="6.942036">
        <ele>834.118679</ele>
        <time>2022-07-28T01:34:08.334Z</time>
      </trkpt>
      <trkpt lat="43.795690" lon="6.941980">
        <ele>833.564563</ele>
        <time>2022-07-28T01:34:11.108Z</time>
      </trkpt>
      <trkpt lat="43.795550" lon="6.943123">
        <ele>828.008920</ele>
        <time>2022-07-28T01:34:32.805Z</time>
      </trkpt>
      <trkpt lat="43.795410" lon="6.944267">
        <ele>822.448540</ele>
        <time>2022-07-28T01:34:54.494Z</time>
      </trkpt>
      <trkpt lat="43.795270" lon="6.945410">
        <ele>818.003630</ele>
        <time>2022-07-28T01:35:16.179Z</time>
      </trkpt>
      <trkpt lat="43.795450" lon="6.944700">
        <ele>815.168476</ele>
        <time>2022-07-28T01:35:30.242Z</time>
      </trkpt>
      <trkpt lat="43.795885" lon="6.945710">
        <ele>811.534054</ele>
        <time>2022-07-28T01:35:52.203Z</time>
      </trkpt>
      <trkpt lat="43.796320" lon="6.946720">
        <ele>808.901577</ele>
        <time>2022-07-28T01:36:14.160Z</time>
      </trkpt>
      <trkpt lat="43.796352" lon="6.946696">
        <ele>808.788741</ele>
        <time>2022-07-28T01:36:15.098Z</time>
      </trkpt>
      <trkpt lat="43.796397" lon="6.946808">
        <ele>808.501839</ele>
        <time>2022-07-28T01:36:16.553Z</time>
      </trkpt>
      <trkpt lat="43.796594" lon="6.947542">
        <ele>806.371200</ele>
        <time>2022-07-28T01:36:25.764Z</time>
      </trkpt>
      <trkpt lat="43.796646" lon="6.947974">
        <ele>804.399503</ele>
        <time>2022-07-28T01:36:30.921Z</time>
      </trkpt>
      <trkpt lat="43.796675" lon="6.948186">
        <ele>803.428103</ele>
        <time>2022-07-28T01:36:33.422Z</time>
      </trkpt>
      <trkpt lat="43.796765" lon="6.948737">
        <ele>800.884816</ele>
        <time>2022-07-28T01:36:39.731Z</time>
      </trkpt>
      <trkpt lat="43.796771" lon="6.949211">
        <ele>798.750572</ele>
        <time>2022-07-28T01:36:44.953Z</time>
      </trkpt>
      <trkpt lat="43.796679" lon="6.949826">
        <ele>795.923046</ele>
        <time>2022-07-28T01:36:51.695Z</time>
      </trkpt>
      <trkpt lat="43.796743" lon="6.949939">
        <ele>794.811353</ele>
        <time>2022-07-28T01:36:53.155Z</time>
      </trkpt>
      <trkpt lat="43.796638" lon="6.950440">
        <ele>790.723426</ele>
        <time>2022-07-28T01:36:58.235Z</time>
      </trkpt>
      <trkpt lat="43.796650" lon="6.951591">
        <ele>781.703356</ele>
        <time>2022-07-28T01:37:09.291Z</time>
      </trkpt>
      <trkpt lat="43.796443" lon="6.952428">
        <ele>775.199418</ele>
        <time>2022-07-28T01:37:17.805Z</time>
      </trkpt>
      <trkpt lat="43.796444" lon="6.952692">
        <ele>773.682710</ele>
        <time>2022-07-28T01:37:20.427Z</time>
      </trkpt>
      <trkpt lat="43.796570" lon="6.953167">
        <ele>770.775381</ele>
        <time>2022-07-28T01:37:25.425Z</time>
      </trkpt>
      <trkpt lat="43.796645" lon="6.953675">
        <ele>767.796491</ele>
        <time>2022-07-28T01:37:30.624Z</time>
      </trkpt>
      <trkpt lat="43.796797" lon="6.954066">
        <ele>765.245122</ele>
        <time>2022-07-28T01:37:35.193Z</time>
      </trkpt>
      <trkpt lat="43.797139" lon="6.954676">
        <ele>761.542803</ele>
        <time>2022-07-28T01:37:43.755Z</time>
      </trkpt>
      <trkpt lat="43.797114" lon="6.954794">
        <ele>761.250246</ele>
        <time>2022-07-28T01:37:45.093Z</time>
      </trkpt>
      <trkpt lat="43.797020" lon="6.954748">
        <ele>760.921676</ele>
        <time>2022-07-28T01:37:46.668Z</time>
      </trkpt>
      <trkpt lat="43.796892" lon="6.954424">
        <ele>760.043001</ele>
        <time>2022-07-28T01:37:51.499Z</time>
      </trkpt>
      <trkpt lat="43.796545" lon="6.953895">
        <ele>758.342502</ele>
        <time>2022-07-28T01:38:00.034Z</time>
      </trkpt>
      <trkpt lat="43.795808" lon="6.952293">
        <ele>753.350659</ele>
        <time>2022-07-28T01:38:22.723Z</time>
      </trkpt>
      <trkpt lat="43.795743" lon="6.952231">
        <ele>753.037392</ele>
        <time>2022-07-28T01:38:23.980Z</time>
      </trkpt>
      <trkpt lat="43.795667" lon="6.952312">
        <ele>752.656757</ele>
        <time>2022-07-28T01:38:25.435Z</time>
      </trkpt>
      <trkpt lat="43.795718" lon="6.952525">
        <ele>752.013742</ele>
        <time>2022-07-28T01:38:27.978Z</time>
      </trkpt>
      <trkpt lat="43.795917" lon="6.952916">
        <ele>750.642910</ele>
        <time>2022-07-28T01:38:33.162Z</time>
      </trkpt>
      <trkpt lat="43.796122" lon="6.953835">
        <ele>747.534887</ele>
        <time>2022-07-28T01:38:43.757Z</time>
      </trkpt>
      <trkpt lat="43.796479" lon="6.954615">
        <ele>744.047604</ele>
        <time>2022-07-28T01:38:54.045Z</time>
      </trkpt>
      <trkpt lat="43.796672" lon="6.955494">
        <ele>740.578549</ele>
        <time>2022-07-28T01:39:04.124Z</time>
      </trkpt>
      <trkpt lat="43.796675" lon="6.955901">
        <ele>738.750960</ele>
        <time>2022-07-28T01:39:08.281Z</time>
      </trkpt>
      <trkpt lat="43.796615" lon="6.956384">
        <ele>735.911077</ele>
        <time>2022-07-28T01:39:13.202Z</time>
      </trkpt>
      <trkpt lat="43.796375" lon="6.957189">
        <ele>730.864264</ele>
        <time>2022-07-28T01:39:22.131Z</time>
      </trkpt>
      <trkpt lat="43.796259" lon="6.957808">
        <ele>727.158543</ele>
        <time>2022-07-28T01:39:28.563Z</time>
      </trkpt>
      <trkpt lat="43.796123" lon="6.958352">
        <ele>723.574464</ele>
        <time>2022-07-28T01:39:34.250Z</time>
      </trkpt>
      <trkpt lat="43.795433" lon="6.959218">
        <ele>714.699259</ele>
        <time>2022-07-28T01:39:46.889Z</time>
      </trkpt>
      <trkpt lat="43.795282" lon="6.959988">
        <ele>709.209020</ele>
        <time>2022-07-28T01:39:54.799Z</time>
      </trkpt>
      <trkpt lat="43.794729" lon="6.960796">
        <ele>702.003492</ele>
        <time>2022-07-28T01:40:05.939Z</time>
      </trkpt>
      <trkpt lat="43.794710" lon="6.960903">
        <ele>701.298868</ele>
        <time>2022-07-28T01:40:07.021Z</time>
      </trkpt>
      <trkpt lat="43.794844" lon="6.961649">
        <ele>696.382998</ele>
        <time>2022-07-28T01:40:14.646Z</time>
      </trkpt>
      <trkpt lat="43.794704" lon="6.962764">
        <ele>689.083914</ele>
        <time>2022-07-28T01:40:26.059Z</time>
      </trkpt>
      <trkpt lat="43.794296" lon="6.963872">
        <ele>680.961063</ele>
        <time>2022-07-28T01:40:38.420Z</time>
      </trkpt>
      <trkpt lat="43.794336" lon="6.964245">
        <ele>678.498469</ele>
        <time>2022-07-28T01:40:42.160Z</time>
      </trkpt>
      <trkpt lat="43.794507" lon="6.964651">
        <ele>675.475706</ele>
        <time>2022-07-28T01:40:46.793Z</time>
      </trkpt>
      <trkpt lat="43.794519" lon="6.964787">
        <ele>674.695928</ele>
        <time>2022-07-28T01:40:48.130Z</time>
      </trkpt>
      <trkpt lat="43.794397" lon="6.965310">
        <ele>671.567803</ele>
        <time>2022-07-28T01:40:53.608Z</time>
      </trkpt>
      <trkpt lat="43.794249" lon="6.965718">
        <ele>668.969024</ele>
        <time>2022-07-28T01:40:58.242Z</time>
      </trkpt>
      <trkpt lat="43.794171" lon="6.966166">
        <ele>666.346186</ele>
        <time>2022-07-28T01:41:03.004Z</time>
      </trkpt>
      <trkpt lat="43.794127" lon="6.966784">
        <ele>662.811872</ele>
        <time>2022-07-28T01:41:09.207Z</time>
      </trkpt>
      <trkpt lat="43.794241" lon="6.968130">
        <ele>660.957874</ele>
        <time>2022-07-28T01:41:23.902Z</time>
      </trkpt>
      <trkpt lat="43.794171" lon="6.968320">
        <ele>660.835857</ele>
        <time>2022-07-28T01:41:27.659Z</time>
      </trkpt>
      <trkpt lat="43.794126" lon="6.968337">
        <ele>660.798896</ele>
        <time>2022-07-28T01:41:28.443Z</time>
      </trkpt>
      <trkpt lat="43.794076" lon="6.968443">
        <ele>660.726466</ele>
        <time>2022-07-28T01:41:30.222Z</time>
      </trkpt>
      <trkpt lat="43.794088" lon="6.968523">
        <ele>660.679729</ele>
        <time>2022-07-28T01:41:32.339Z</time>
      </trkpt>
      <trkpt lat="43.794166" lon="6.968592">
        <ele>660.606393</ele>
        <time>2022-07-28T01:41:36.201Z</time>
      </trkpt>
      <trkpt lat="43.794224" lon="6.968573">
        <ele>660.559165</ele>
        <time>2022-07-28T01:41:39.085Z</time>
      </trkpt>
      <trkpt lat="43.794278" lon="6.968723">
        <ele>660.463287</ele>
        <time>2022-07-28T01:41:43.133Z</time>
      </trkpt>
      <trkpt lat="43.794295" lon="6.968968">
        <ele>660.322502</ele>
        <time>2022-07-28T01:41:50.459Z</time>
      </trkpt>
      <trkpt lat="43.794486" lon="6.969130">
        <ele>660.584377</ele>
        <time>2022-07-28T01:42:00.076Z</time>
      </trkpt>
      <trkpt lat="43.794957" lon="6.969189">
        <ele>664.111294</ele>
        <time>2022-07-28T01:42:21.699Z</time>
      </trkpt>
      <trkpt lat="43.795492" lon="6.969412">
        <ele>668.277851</ele>
        <time>2022-07-28T01:42:53.389Z</time>
      </trkpt>
      <trkpt lat="43.795549" lon="6.969628">
        <ele>669.515867</ele>
        <time>2022-07-28T01:43:01.968Z</time>
      </trkpt>
      <trkpt lat="43.795420" lon="6.969967">
        <ele>671.578797</ele>
        <time>2022-07-28T01:43:17.640Z</time>
      </trkpt>
      <trkpt lat="43.795424" lon="6.970346">
        <ele>673.619176</ele>
        <time>2022-07-28T01:43:33.776Z</time>
      </trkpt>
      <trkpt lat="43.795509" lon="6.970522">
        <ele>674.757012</ele>
        <time>2022-07-28T01:43:41.168Z</time>
      </trkpt>
      <trkpt lat="43.795797" lon="6.970768">
        <ele>677.275609</ele>
        <time>2022-07-28T01:44:01.922Z</time>
      </trkpt>
      <trkpt lat="43.795845" lon="6.970879">
        <ele>677.970870</ele>
        <time>2022-07-28T01:44:07.541Z</time>
      </trkpt>
      <trkpt lat="43.795736" lon="6.971721">
        <ele>682.567251</ele>
        <time>2022-07-28T01:44:38.558Z</time>
      </trkpt>
      <trkpt lat="43.795603" lon="6.972250">
        <ele>685.577146</ele>
        <time>2022-07-28T01:44:57.845Z</time>
      </trkpt>
      <trkpt lat="43.795616" lon="6.972593">
        <ele>687.345294</ele>
        <time>2022-07-28T01:45:09.963Z</time>
      </trkpt>
      <trkpt lat="43.795735" lon="6.972958">
        <ele>689.112287</ele>
        <time>2022-07-28T01:45:23.699Z</time>
      </trkpt>
      <trkpt lat="43.795772" lon="6.973055">
        <ele>689.596323</ele>
        <time>2022-07-28T01:45:27.696Z</time>
      </trkpt>
      <trkpt lat="43.795771" lon="6.973364">
        <ele>690.959613</ele>
        <time>2022-07-28T01:45:37.889Z</time>
      </trkpt>
      <trkpt lat="43.795765" lon="6.973481">
        <ele>691.477106</ele>
        <time>2022-07-28T01:45:41.855Z</time>
      </trkpt>
      <trkpt lat="43.795732" lon="6.974028">
        <ele>693.898830</ele>
        <time>2022-07-28T01:46:00.550Z</time>
      </trkpt>
      <trkpt lat="43.795581" lon="6.974783">
        <ele>697.355322</ele>
        <time>2022-07-28T01:46:26.954Z</time>
      </trkpt>
      <trkpt lat="43.795525" lon="6.975713">
        <ele>702.536379</ele>
        <time>2022-07-28T01:46:55.326Z</time>
      </trkpt>
      <trkpt lat="43.795656" lon="6.976866">
        <ele>709.256042</ele>
        <time>2022-07-28T01:47:42.784Z</time>
      </trkpt>
      <trkpt lat="43.795809" lon="6.977445">
        <ele>712.855770</ele>
        <time>2022-07-28T01:48:11.927Z</time>
      </trkpt>
      <trkpt lat="43.795915" lon="6.977637">
        <ele>714.393603</ele>
        <time>2022-07-28T01:48:22.968Z</time>
      </trkpt>
      <trkpt lat="43.796208" lon="6.977843">
        <ele>717.289595</ele>
        <time>2022-07-28T01:48:44.313Z</time>
      </trkpt>
      <trkpt lat="43.796280" lon="6.977981">
        <ele>718.372882</ele>
        <time>2022-07-28T01:48:51.062Z</time>
      </trkpt>
      <trkpt lat="43.796296" lon="6.978252">
        <ele>720.102724</ele>
        <time>2022-07-28T01:49:04.438Z</time>
      </trkpt>
      <trkpt lat="43.796430" lon="6.978763">
        <ele>723.561559</ele>
        <time>2022-07-28T01:49:26.995Z</time>
      </trkpt>
      <trkpt lat="43.796397" lon="6.978896">
        <ele>724.456290</ele>
        <time>2022-07-28T01:49:31.896Z</time>
      </trkpt>
      <trkpt lat="43.796287" lon="6.978982">
        <ele>725.569545</ele>
        <time>2022-07-28T01:49:39.418Z</time>
      </trkpt>
      <trkpt lat="43.796028" lon="6.978995">
        <ele>727.853848</ele>
        <time>2022-07-28T01:49:52.654Z</time>
      </trkpt>
      <trkpt lat="43.795718" lon="6.979338">
        <ele>729.531619</ele>
        <time>2022-07-28T01:50:11.777Z</time>
      </trkpt>
      <trkpt lat="43.795030" lon="6.979613">
        <ele>732.218982</ele>
        <time>2022-07-28T01:50:34.034Z</time>
      </trkpt>
      <trkpt lat="43.794823" lon="6.979945">
        <ele>733.407428</ele>
        <time>2022-07-28T01:50:43.366Z</time>
      </trkpt>
      <trkpt lat="43.794696" lon="6.980272">
        <ele>734.413351</ele>
        <time>2022-07-28T01:50:51.830Z</time>
      </trkpt>
      <trkpt lat="43.794639" lon="6.980819">
        <ele>737.057755</ele>
        <time>2022-07-28T01:51:06.619Z</time>
      </trkpt>
      <trkpt lat="43.794672" lon="6.981208">
        <ele>739.364039</ele>
        <time>2022-07-28T01:51:18.396Z</time>
      </trkpt>
      <trkpt lat="43.795066" lon="6.981970">
        <ele>744.883225</ele>
        <time>2022-07-28T01:51:55.512Z</time>
      </trkpt>
      <trkpt lat="43.795173" lon="6.982376">
        <ele>747.428186</ele>
        <time>2022-07-28T01:52:17.166Z</time>
      </trkpt>
      <trkpt lat="43.795124" lon="6.983432">
        <ele>756.998405</ele>
        <time>2022-07-28T01:53:10.695Z</time>
      </trkpt>
      <trkpt lat="43.795152" lon="6.983617">
        <ele>759.028315</ele>
        <time>2022-07-28T01:53:25.607Z</time>
      </trkpt>
      <trkpt lat="43.795318" lon="6.984483">
        <ele>768.650570</ele>
        <time>2022-07-28T01:54:24.795Z</time>
      </trkpt>
      <trkpt lat="43.795638" lon="6.985070">
        <ele>776.473633</ele>
        <time>2022-07-28T01:55:09.200Z</time>
      </trkpt>
      <trkpt lat="43.795634" lon="6.985250">
        <ele>777.609432</ele>
        <time>2022-07-28T01:55:17.692Z</time>
      </trkpt>
      <trkpt lat="43.795500" lon="6.985422">
        <ele>779.205588</ele>
        <time>2022-07-28T01:55:34.064Z</time>
      </trkpt>
      <trkpt lat="43.795270" lon="6.985503">
        <ele>781.279183</ele>
        <time>2022-07-28T01:55:49.250Z</time>
      </trkpt>
      <trkpt lat="43.795208" lon="6.985481">
        <ele>781.838410</ele>
        <time>2022-07-28T01:55:53.500Z</time>
      </trkpt>
      <trkpt lat="43.794664" lon="6.984547">
        <ele>789.407813</ele>
        <time>2022-07-28T01:56:39.661Z</time>
      </trkpt>
      <trkpt lat="43.794257" lon="6.984074">
        <ele>791.672040</ele>
        <time>2022-07-28T01:57:02.804Z</time>
      </trkpt>
      <trkpt lat="43.794129" lon="6.983769">
        <ele>791.209960</ele>
        <time>2022-07-28T01:57:07.425Z</time>
      </trkpt>
      <trkpt lat="43.794098" lon="6.983324">
        <ele>790.624416</ele>
        <time>2022-07-28T01:57:12.724Z</time>
      </trkpt>
      <trkpt lat="43.794030" lon="6.983072">
        <ele>790.272053</ele>
        <time>2022-07-28T01:57:15.717Z</time>
      </trkpt>
      <trkpt lat="43.793903" lon="6.982912">
        <ele>789.960578</ele>
        <time>2022-07-28T01:57:18.499Z</time>
      </trkpt>
      <trkpt lat="43.793684" lon="6.982761">
        <ele>789.516713</ele>
        <time>2022-07-28T01:57:22.317Z</time>
      </trkpt>
      <trkpt lat="43.793229" lon="6.981981">
        <ele>787.695779</ele>
        <time>2022-07-28T01:57:33.387Z</time>
      </trkpt>
      <trkpt lat="43.793112" lon="6.981961">
        <ele>787.305120</ele>
        <time>2022-07-28T01:57:35.203Z</time>
      </trkpt>
      <trkpt lat="43.792984" lon="6.982030">
        <ele>786.849967</ele>
        <time>2022-07-28T01:57:37.300Z</time>
      </trkpt>
      <trkpt lat="43.792550" lon="6.982579">
        <ele>784.902386</ele>
        <time>2022-07-28T01:57:46.771Z</time>
      </trkpt>
      <trkpt lat="43.792135" lon="6.982725">
        <ele>783.483491</ele>
        <time>2022-07-28T01:57:53.757Z</time>
      </trkpt>
      <trkpt lat="43.791795" lon="6.983181">
        <ele>783.300857</ele>
        <time>2022-07-28T01:58:02.342Z</time>
      </trkpt>
      <trkpt lat="43.791491" lon="6.983374">
        <ele>783.823360</ele>
        <time>2022-07-28T01:58:09.939Z</time>
      </trkpt>
      <trkpt lat="43.791289" lon="6.983863">
        <ele>784.458829</ele>
        <time>2022-07-28T01:58:20.886Z</time>
      </trkpt>
      <trkpt lat="43.791038" lon="6.985038">
        <ele>786.493612</ele>
        <time>2022-07-28T01:58:51.906Z</time>
      </trkpt>
      <trkpt lat="43.791336" lon="6.986700">
        <ele>795.683399</ele>
        <time>2022-07-28T01:59:55.356Z</time>
      </trkpt>
      <trkpt lat="43.791306" lon="6.987182">
        <ele>798.279543</ele>
        <time>2022-07-28T02:00:17.050Z</time>
      </trkpt>
      <trkpt lat="43.791036" lon="6.988844">
        <ele>810.254799</ele>
        <time>2022-07-28T02:01:35.229Z</time>
      </trkpt>
      <trkpt lat="43.790911" lon="6.989150">
        <ele>812.779290</ele>
        <time>2022-07-28T02:01:51.673Z</time>
      </trkpt>
      <trkpt lat="43.790608" lon="6.989610">
        <ele>817.215528</ele>
        <time>2022-07-28T02:02:18.776Z</time>
      </trkpt>
      <trkpt lat="43.790334" lon="6.990340">
        <ele>822.482015</ele>
        <time>2022-07-28T02:02:53.485Z</time>
      </trkpt>
      <trkpt lat="43.790183" lon="6.991085">
        <ele>827.435047</ele>
        <time>2022-07-28T02:03:26.608Z</time>
      </trkpt>
      <trkpt lat="43.789584" lon="6.992367">
        <ele>835.635945</ele>
        <time>2022-07-28T02:04:27.956Z</time>
      </trkpt>
      <trkpt lat="43.789369" lon="6.992634">
        <ele>837.266249</ele>
        <time>2022-07-28T02:04:40.499Z</time>
      </trkpt>
      <trkpt lat="43.789346" lon="6.992761">
        <ele>837.799926</ele>
        <time>2022-07-28T02:04:46.600Z</time>
      </trkpt>
      <trkpt lat="43.789424" lon="6.992795">
        <ele>838.261612</ele>
        <time>2022-07-28T02:04:49.203Z</time>
      </trkpt>
      <trkpt lat="43.789497" lon="6.992745">
        <ele>838.721409</ele>
        <time>2022-07-28T02:04:52.299Z</time>
      </trkpt>
      <trkpt lat="43.790086" lon="6.992075">
        <ele>843.024517</ele>
        <time>2022-07-28T02:05:22.429Z</time>
      </trkpt>
      <trkpt lat="43.790383" lon="6.991852">
        <ele>843.613211</ele>
        <time>2022-07-28T02:05:34.399Z</time>
      </trkpt>
      <trkpt lat="43.790817" lon="6.991260">
        <ele>844.665014</ele>
        <time>2022-07-28T02:05:50.694Z</time>
      </trkpt>
      <trkpt lat="43.791040" lon="6.991123">
        <ele>845.086274</ele>
        <time>2022-07-28T02:05:56.323Z</time>
      </trkpt>
      <trkpt lat="43.791331" lon="6.991071">
        <ele>845.592954</ele>
        <time>2022-07-28T02:06:03.503Z</time>
      </trkpt>
      <trkpt lat="43.791505" lon="6.990942">
        <ele>845.933752</ele>
        <time>2022-07-28T02:06:08.188Z</time>
      </trkpt>
      <trkpt lat="43.791846" lon="6.990299">
        <ele>847.965294</ele>
        <time>2022-07-28T02:06:25.870Z</time>
      </trkpt>
      <trkpt lat="43.791998" lon="6.989761">
        <ele>849.630598</ele>
        <time>2022-07-28T02:06:40.661Z</time>
      </trkpt>
      <trkpt lat="43.792115" lon="6.989725">
        <ele>850.109175</ele>
        <time>2022-07-28T02:06:45.110Z</time>
      </trkpt>
      <trkpt lat="43.792151" lon="6.989873">
        <ele>850.559345</ele>
        <time>2022-07-28T02:06:50.720Z</time>
      </trkpt>
      <trkpt lat="43.791635" lon="6.991517">
        <ele>857.406890</ele>
        <time>2022-07-28T02:07:48.973Z</time>
      </trkpt>
      <trkpt lat="43.791492" lon="6.991775">
        <ele>858.999194</ele>
        <time>2022-07-28T02:08:02.056Z</time>
      </trkpt>
      <trkpt lat="43.790538" lon="6.992908">
        <ele>867.306507</ele>
        <time>2022-07-28T02:09:06.762Z</time>
      </trkpt>
      <trkpt lat="43.790092" lon="6.993534">
        <ele>871.151939</ele>
        <time>2022-07-28T02:09:35.427Z</time>
      </trkpt>
      <trkpt lat="43.789584" lon="6.994376">
        <ele>875.949687</ele>
        <time>2022-07-28T02:10:10.358Z</time>
      </trkpt>
      <trkpt lat="43.789361" lon="6.994934">
        <ele>879.114914</ele>
        <time>2022-07-28T02:10:31.176Z</time>
      </trkpt>
      <trkpt lat="43.787502" lon="6.998624">
        <ele>902.813338</ele>
        <time>2022-07-28T02:13:21.330Z</time>
      </trkpt>
      <trkpt lat="43.787044" lon="6.999680">
        <ele>908.558616</ele>
        <time>2022-07-28T02:14:07.433Z</time>
      </trkpt>
      <trkpt lat="43.786678" lon="7.000890">
        <ele>914.465385</ele>
        <time>2022-07-28T02:14:50.618Z</time>
      </trkpt>
      <trkpt lat="43.786666" lon="7.001285">
        <ele>915.482856</ele>
        <time>2022-07-28T02:15:01.914Z</time>
      </trkpt>
      <trkpt lat="43.786579" lon="7.001654">
        <ele>916.481877</ele>
        <time>2022-07-28T02:15:12.499Z</time>
      </trkpt>
      <trkpt lat="43.786529" lon="7.002143">
        <ele>917.752929</ele>
        <time>2022-07-28T02:15:24.962Z</time>
      </trkpt>
      <trkpt lat="43.786220" lon="7.003396">
        <ele>921.018818</ele>
        <time>2022-07-28T02:15:56.785Z</time>
      </trkpt>
      <trkpt lat="43.786207" lon="7.005731">
        <ele>925.493750</ele>
        <time>2022-07-28T02:16:51.114Z</time>
      </trkpt>
      <trkpt lat="43.786133" lon="7.006752">
        <ele>928.052549</ele>
        <time>2022-07-28T02:17:17.298Z</time>
      </trkpt>
      <trkpt lat="43.786207" lon="7.008503">
        <ele>932.672745</ele>
        <time>2022-07-28T02:18:04.096Z</time>
      </trkpt>
      <trkpt lat="43.786046" lon="7.009276">
        <ele>935.255809</ele>
        <time>2022-07-28T02:18:27.510Z</time>
      </trkpt>
      <trkpt lat="43.786046" lon="7.009611">
        <ele>936.331382</ele>
        <time>2022-07-28T02:18:37.396Z</time>
      </trkpt>
      <trkpt lat="43.786306" lon="7.012409">
        <ele>945.690656</ele>
        <time>2022-07-28T02:20:01.699Z</time>
      </trkpt>
      <trkpt lat="43.786244" lon="7.013816">
        <ele>950.215110</ele>
        <time>2022-07-28T02:20:42.641Z</time>
      </trkpt>
      <trkpt lat="43.786319" lon="7.014220">
        <ele>951.489177</ele>
        <time>2022-07-28T02:20:54.020Z</time>
      </trkpt>
      <trkpt lat="43.786337" lon="7.014692">
        <ele>952.932797</ele>
        <time>2022-07-28T02:21:06.757Z</time>
      </trkpt>
      <trkpt lat="43.786331" lon="7.014941">
        <ele>953.693731</ele>
        <time>2022-07-28T02:21:13.578Z</time>
      </trkpt>
      <trkpt lat="43.786189" lon="7.015404">
        <ele>955.230176</ele>
        <time>2022-07-28T02:21:27.573Z</time>
      </trkpt>
      <trkpt lat="43.786220" lon="7.016528">
        <ele>959.844349</ele>
        <time>2022-07-28T02:22:00.715Z</time>
      </trkpt>
      <trkpt lat="43.786139" lon="7.017009">
        <ele>961.931414</ele>
        <time>2022-07-28T02:22:16.766Z</time>
      </trkpt>
      <trkpt lat="43.786139" lon="7.018442">
        <ele>968.765569</ele>
        <time>2022-07-28T02:23:09.111Z</time>
      </trkpt>
      <trkpt lat="43.785947" lon="7.019515">
        <ele>975.385980</ele>
        <time>2022-07-28T02:23:56.047Z</time>
      </trkpt>
      <trkpt lat="43.785798" lon="7.021121">
        <ele>983.430665</ele>
        <time>2022-07-28T02:25:01.044Z</time>
      </trkpt>
      <trkpt lat="43.785798" lon="7.021592">
        <ele>985.098354</ele>
        <time>2022-07-28T02:25:17.256Z</time>
      </trkpt>
      <trkpt lat="43.785984" lon="7.023249">
        <ele>989.613247</ele>
        <time>2022-07-28T02:25:59.337Z</time>
      </trkpt>
      <trkpt lat="43.786145" lon="7.024167">
        <ele>988.903712</ele>
        <time>2022-07-28T02:26:12.693Z</time>
      </trkpt>
      <trkpt lat="43.786817" lon="7.026715">
        <ele>985.234498</ele>
        <time>2022-07-28T02:26:45.215Z</time>
      </trkpt>
      <trkpt lat="43.787264" lon="7.028511">
        <ele>982.413797</ele>
        <time>2022-07-28T02:27:09.072Z</time>
      </trkpt>
      <trkpt lat="43.787361" lon="7.029189">
        <ele>981.657600</ele>
        <time>2022-07-28T02:27:18.449Z</time>
      </trkpt>
      <trkpt lat="43.787534" lon="7.029760">
        <ele>980.980108</ele>
        <time>2022-07-28T02:27:27.057Z</time>
      </trkpt>
      <trkpt lat="43.788152" lon="7.031407">
        <ele>978.749174</ele>
        <time>2022-07-28T02:27:52.517Z</time>
      </trkpt>
      <trkpt lat="43.788314" lon="7.032151">
        <ele>977.800590</ele>
        <time>2022-07-28T02:28:02.305Z</time>
      </trkpt>
      <trkpt lat="43.788329" lon="7.032235">
        <ele>977.694964</ele>
        <time>2022-07-28T02:28:03.372Z</time>
      </trkpt>
      <trkpt lat="43.788382" lon="7.032538">
        <ele>976.677449</ele>
        <time>2022-07-28T02:28:07.279Z</time>
      </trkpt>
      <trkpt lat="43.788444" lon="7.032752">
        <ele>975.841136</ele>
        <time>2022-07-28T02:28:09.947Z</time>
      </trkpt>
      <trkpt lat="43.788708" lon="7.033063">
        <ele>974.100039</ele>
        <time>2022-07-28T02:28:15.156Z</time>
      </trkpt>
      <trkpt lat="43.789673" lon="7.033658">
        <ele>968.793313</ele>
        <time>2022-07-28T02:28:30.710Z</time>
      </trkpt>
      <trkpt lat="43.789829" lon="7.033653">
        <ele>967.989881</ele>
        <time>2022-07-28T02:28:32.846Z</time>
      </trkpt>
      <trkpt lat="43.790105" lon="7.033446">
        <ele>966.361173</ele>
        <time>2022-07-28T02:28:37.493Z</time>
      </trkpt>
      <trkpt lat="43.790394" lon="7.033135">
        <ele>964.462101</ele>
        <time>2022-07-28T02:28:43.002Z</time>
      </trkpt>
      <trkpt lat="43.790447" lon="7.033175">
        <ele>964.148896</ele>
        <time>2022-07-28T02:28:43.891Z</time>
      </trkpt>
      <trkpt lat="43.790421" lon="7.033274">
        <ele>963.754254</ele>
        <time>2022-07-28T02:28:45.156Z</time>
      </trkpt>
      <trkpt lat="43.790222" lon="7.033715">
        <ele>961.806022</ele>
        <time>2022-07-28T02:28:50.837Z</time>
      </trkpt>
      <trkpt lat="43.789888" lon="7.034527">
        <ele>958.551857</ele>
        <time>2022-07-28T02:29:01.142Z</time>
      </trkpt>
      <trkpt lat="43.789860" lon="7.034736">
        <ele>957.959794</ele>
        <time>2022-07-28T02:29:03.528Z</time>
      </trkpt>
      <trkpt lat="43.789927" lon="7.035202">
        <ele>956.636361</ele>
        <time>2022-07-28T02:29:08.841Z</time>
      </trkpt>
      <trkpt lat="43.789729" lon="7.035765">
        <ele>954.892054</ele>
        <time>2022-07-28T02:29:16.006Z</time>
      </trkpt>
      <trkpt lat="43.789657" lon="7.036649">
        <ele>952.414238</ele>
        <time>2022-07-28T02:29:26.302Z</time>
      </trkpt>
      <trkpt lat="43.789178" lon="7.038030">
        <ele>950.690211</ele>
        <time>2022-07-28T02:29:44.770Z</time>
      </trkpt>
      <trkpt lat="43.788624" lon="7.038776">
        <ele>949.657327</ele>
        <time>2022-07-28T02:30:02.813Z</time>
      </trkpt>
      <trkpt lat="43.788308" lon="7.039540">
        <ele>950.183795</ele>
        <time>2022-07-28T02:30:20.098Z</time>
      </trkpt>
      <trkpt lat="43.788221" lon="7.039857">
        <ele>950.386567</ele>
        <time>2022-07-28T02:30:26.764Z</time>
      </trkpt>
      <trkpt lat="43.788233" lon="7.040613">
        <ele>950.838697</ele>
        <time>2022-07-28T02:30:41.458Z</time>
      </trkpt>
      <trkpt lat="43.788060" lon="7.041874">
        <ele>950.788588</ele>
        <time>2022-07-28T02:31:03.106Z</time>
      </trkpt>
      <trkpt lat="43.787608" lon="7.043059">
        <ele>950.297115</ele>
        <time>2022-07-28T02:31:22.067Z</time>
      </trkpt>
      <trkpt lat="43.787453" lon="7.044097">
        <ele>949.085774</ele>
        <time>2022-07-28T02:31:36.471Z</time>
      </trkpt>
      <trkpt lat="43.787155" lon="7.045273">
        <ele>947.272978</ele>
        <time>2022-07-28T02:31:52.387Z</time>
      </trkpt>
      <trkpt lat="43.786740" lon="7.048535">
        <ele>940.052762</ele>
        <time>2022-07-28T02:32:30.907Z</time>
      </trkpt>
      <trkpt lat="43.786560" lon="7.049118">
        <ele>939.060383</ele>
        <time>2022-07-28T02:32:38.432Z</time>
      </trkpt>
      <trkpt lat="43.786244" lon="7.049522">
        <ele>938.128125</ele>
        <time>2022-07-28T02:32:45.784Z</time>
      </trkpt>
      <trkpt lat="43.786102" lon="7.049865">
        <ele>937.509297</ele>
        <time>2022-07-28T02:32:50.911Z</time>
      </trkpt>
      <trkpt lat="43.785966" lon="7.050380">
        <ele>936.677537</ele>
        <time>2022-07-28T02:32:58.456Z</time>
      </trkpt>
      <trkpt lat="43.784918" lon="7.051127">
        <ele>937.222647</ele>
        <time>2022-07-28T02:33:26.054Z</time>
      </trkpt>
      <trkpt lat="43.784794" lon="7.051307">
        <ele>937.305720</ele>
        <time>2022-07-28T02:33:30.857Z</time>
      </trkpt>
      <trkpt lat="43.784700" lon="7.052954">
        <ele>937.865452</ele>
        <time>2022-07-28T02:34:04.099Z</time>
      </trkpt>
      <trkpt lat="43.784537" lon="7.054079">
        <ele>938.257363</ele>
        <time>2022-07-28T02:34:23.972Z</time>
      </trkpt>
      <trkpt lat="43.784523" lon="7.054970">
        <ele>937.354937</ele>
        <time>2022-07-28T02:34:36.232Z</time>
      </trkpt>
      <trkpt lat="43.784764" lon="7.058515">
        <ele>932.315332</ele>
        <time>2022-07-28T02:35:18.828Z</time>
      </trkpt>
      <trkpt lat="43.784749" lon="7.059275">
        <ele>931.448164</ele>
        <time>2022-07-28T02:35:31.104Z</time>
      </trkpt>
      <trkpt lat="43.784645" lon="7.059645">
        <ele>931.833511</ele>
        <time>2022-07-28T02:35:40.142Z</time>
      </trkpt>
      <trkpt lat="43.784519" lon="7.059868">
        <ele>932.211601</ele>
        <time>2022-07-28T02:35:46.249Z</time>
      </trkpt>
      <trkpt lat="43.783750" lon="7.060658">
        <ele>933.982261</ele>
        <time>2022-07-28T02:36:18.968Z</time>
      </trkpt>
      <trkpt lat="43.783509" lon="7.060899">
        <ele>934.531987</ele>
        <time>2022-07-28T02:36:28.358Z</time>
      </trkpt>
      <trkpt lat="43.783375" lon="7.061189">
        <ele>934.014550</ele>
        <time>2022-07-28T02:36:34.296Z</time>
      </trkpt>
      <trkpt lat="43.783375" lon="7.061468">
        <ele>933.104533</ele>
        <time>2022-07-28T02:36:39.200Z</time>
      </trkpt>
      <trkpt lat="43.783586" lon="7.062491">
        <ele>929.634314</ele>
        <time>2022-07-28T02:36:51.542Z</time>
      </trkpt>
      <trkpt lat="43.783571" lon="7.063783">
        <ele>924.696292</ele>
        <time>2022-07-28T02:37:04.433Z</time>
      </trkpt>
      <trkpt lat="43.783479" lon="7.064062">
        <ele>923.073187</ele>
        <time>2022-07-28T02:37:07.390Z</time>
      </trkpt>
      <trkpt lat="43.783249" lon="7.064228">
        <ele>921.172223</ele>
        <time>2022-07-28T02:37:10.897Z</time>
      </trkpt>
      <trkpt lat="43.781988" lon="7.064542">
        <ele>913.862882</ele>
        <time>2022-07-28T02:37:29.467Z</time>
      </trkpt>
      <trkpt lat="43.781506" lon="7.064373">
        <ele>914.909694</ele>
        <time>2022-07-28T02:37:42.165Z</time>
      </trkpt>
      <trkpt lat="43.781325" lon="7.064407">
        <ele>915.294260</ele>
        <time>2022-07-28T02:37:47.823Z</time>
      </trkpt>
      <trkpt lat="43.780815" lon="7.064669">
        <ele>916.439493</ele>
        <time>2022-07-28T02:38:10.362Z</time>
      </trkpt>
      <trkpt lat="43.780557" lon="7.064853">
        <ele>917.050466</ele>
        <time>2022-07-28T02:38:24.581Z</time>
      </trkpt>
      <trkpt lat="43.779874" lon="7.065890">
        <ele>922.778450</ele>
        <time>2022-07-28T02:39:17.256Z</time>
      </trkpt>
      <trkpt lat="43.779447" lon="7.066034">
        <ele>925.367471</ele>
        <time>2022-07-28T02:39:37.595Z</time>
      </trkpt>
      <trkpt lat="43.779297" lon="7.066210">
        <ele>926.525616</ele>
        <time>2022-07-28T02:39:45.691Z</time>
      </trkpt>
      <trkpt lat="43.779007" lon="7.066848">
        <ele>928.236677</ele>
        <time>2022-07-28T02:40:04.654Z</time>
      </trkpt>
      <trkpt lat="43.778830" lon="7.067430">
        <ele>928.863588</ele>
        <time>2022-07-28T02:40:18.693Z</time>
      </trkpt>
      <trkpt lat="43.778388" lon="7.067965">
        <ele>929.670662</ele>
        <time>2022-07-28T02:40:33.492Z</time>
      </trkpt>
      <trkpt lat="43.777990" lon="7.068886">
        <ele>929.039259</ele>
        <time>2022-07-28T02:40:50.069Z</time>
      </trkpt>
      <trkpt lat="43.777569" lon="7.069538">
        <ele>926.849876</ele>
        <time>2022-07-28T02:41:00.790Z</time>
      </trkpt>
      <trkpt lat="43.777274" lon="7.070187">
        <ele>924.930299</ele>
        <time>2022-07-28T02:41:09.269Z</time>
      </trkpt>
      <trkpt lat="43.777165" lon="7.070481">
        <ele>924.103056</ele>
        <time>2022-07-28T02:41:12.686Z</time>
      </trkpt>
      <trkpt lat="43.777108" lon="7.071025">
        <ele>921.404394</ele>
        <time>2022-07-28T02:41:18.305Z</time>
      </trkpt>
      <trkpt lat="43.776929" lon="7.071469">
        <ele>918.828258</ele>
        <time>2022-07-28T02:41:23.455Z</time>
      </trkpt>
      <trkpt lat="43.776814" lon="7.071959">
        <ele>916.218110</ele>
        <time>2022-07-28T02:41:28.680Z</time>
      </trkpt>
      <trkpt lat="43.776704" lon="7.072122">
        <ele>915.087844</ele>
        <time>2022-07-28T02:41:30.979Z</time>
      </trkpt>
      <trkpt lat="43.776501" lon="7.072222">
        <ele>913.576154</ele>
        <time>2022-07-28T02:41:34.002Z</time>
      </trkpt>
      <trkpt lat="43.775680" lon="7.072004">
        <ele>910.282436</ele>
        <time>2022-07-28T02:41:46.371Z</time>
      </trkpt>
      <trkpt lat="43.775217" lon="7.072126">
        <ele>909.281017</ele>
        <time>2022-07-28T02:41:54.022Z</time>
      </trkpt>
      <trkpt lat="43.774504" lon="7.072634">
        <ele>907.578351</ele>
        <time>2022-07-28T02:42:13.760Z</time>
      </trkpt>
      <trkpt lat="43.774281" lon="7.072662">
        <ele>908.273412</ele>
        <time>2022-07-28T02:42:20.260Z</time>
      </trkpt>
      <trkpt lat="43.772945" lon="7.072205">
        <ele>912.545167</ele>
        <time>2022-07-28T02:43:10.001Z</time>
      </trkpt>
      <trkpt lat="43.771274" lon="7.071253">
        <ele>919.430558</ele>
        <time>2022-07-28T02:44:20.784Z</time>
      </trkpt>
      <trkpt lat="43.770652" lon="7.070961">
        <ele>920.944687</ele>
        <time>2022-07-28T02:44:42.837Z</time>
      </trkpt>
      <trkpt lat="43.770452" lon="7.070787">
        <ele>921.335950</ele>
        <time>2022-07-28T02:44:49.767Z</time>
      </trkpt>
      <trkpt lat="43.770343" lon="7.070599">
        <ele>921.624355</ele>
        <time>2022-07-28T02:44:54.931Z</time>
      </trkpt>
      <trkpt lat="43.770269" lon="7.070325">
        <ele>921.974292</ele>
        <time>2022-07-28T02:45:00.438Z</time>
      </trkpt>
      <trkpt lat="43.770107" lon="7.068653">
        <ele>923.958776</ele>
        <time>2022-07-28T02:45:30.626Z</time>
      </trkpt>
      <trkpt lat="43.770043" lon="7.068458">
        <ele>924.204792</ele>
        <time>2022-07-28T02:45:34.343Z</time>
      </trkpt>
      <trkpt lat="43.769824" lon="7.068171">
        <ele>924.684364</ele>
        <time>2022-07-28T02:45:42.171Z</time>
      </trkpt>
      <trkpt lat="43.769664" lon="7.068094">
        <ele>924.953778</ele>
        <time>2022-07-28T02:45:46.994Z</time>
      </trkpt>
      <trkpt lat="43.769470" lon="7.068114">
        <ele>925.263193</ele>
        <time>2022-07-28T02:45:52.606Z</time>
      </trkpt>
      <trkpt lat="43.769149" lon="7.068356">
        <ele>925.844509</ele>
        <time>2022-07-28T02:46:04.447Z</time>
      </trkpt>
      <trkpt lat="43.768402" lon="7.069371">
        <ele>929.895834</ele>
        <time>2022-07-28T02:46:44.069Z</time>
      </trkpt>
      <trkpt lat="43.768322" lon="7.069511">
        <ele>930.427814</ele>
        <time>2022-07-28T02:46:49.298Z</time>
      </trkpt>
      <trkpt lat="43.768235" lon="7.069621">
        <ele>930.913934</ele>
        <time>2022-07-28T02:46:54.236Z</time>
      </trkpt>
      <trkpt lat="43.767919" lon="7.069838">
        <ele>932.369381</ele>
        <time>2022-07-28T02:47:08.868Z</time>
      </trkpt>
      <trkpt lat="43.765198" lon="7.070628">
        <ele>945.050636</ele>
        <time>2022-07-28T02:49:01.232Z</time>
      </trkpt>
      <trkpt lat="43.764187" lon="7.071212">
        <ele>950.222024</ele>
        <time>2022-07-28T02:49:47.690Z</time>
      </trkpt>
      <trkpt lat="43.763421" lon="7.071600">
        <ele>953.483284</ele>
        <time>2022-07-28T02:50:19.739Z</time>
      </trkpt>
      <trkpt lat="43.763157" lon="7.071739">
        <ele>954.612596</ele>
        <time>2022-07-28T02:50:30.494Z</time>
      </trkpt>
      <trkpt lat="43.762656" lon="7.072297">
        <ele>957.183418</ele>
        <time>2022-07-28T02:50:54.218Z</time>
      </trkpt>
      <trkpt lat="43.762161" lon="7.072755">
        <ele>958.218793</ele>
        <time>2022-07-28T02:51:14.813Z</time>
      </trkpt>
      <trkpt lat="43.761824" lon="7.073419">
        <ele>959.149796</ele>
        <time>2022-07-28T02:51:32.791Z</time>
      </trkpt>
      <trkpt lat="43.761559" lon="7.074035">
        <ele>959.972327</ele>
        <time>2022-07-28T02:51:45.125Z</time>
      </trkpt>
      <trkpt lat="43.761229" lon="7.074600">
        <ele>958.476015</ele>
        <time>2022-07-28T02:51:55.607Z</time>
      </trkpt>
      <trkpt lat="43.761020" lon="7.074825">
        <ele>957.307712</ele>
        <time>2022-07-28T02:52:00.213Z</time>
      </trkpt>
      <trkpt lat="43.760748" lon="7.075032">
        <ele>955.938011</ele>
        <time>2022-07-28T02:52:05.127Z</time>
      </trkpt>
      <trkpt lat="43.759680" lon="7.075647">
        <ele>949.280142</ele>
        <time>2022-07-28T02:52:21.620Z</time>
      </trkpt>
      <trkpt lat="43.758764" lon="7.076917">
        <ele>937.293807</ele>
        <time>2022-07-28T02:52:39.261Z</time>
      </trkpt>
      <trkpt lat="43.758514" lon="7.076996">
        <ele>934.922529</ele>
        <time>2022-07-28T02:52:42.741Z</time>
      </trkpt>
      <trkpt lat="43.758082" lon="7.076814">
        <ele>930.745941</ele>
        <time>2022-07-28T02:52:48.940Z</time>
      </trkpt>
      <trkpt lat="43.757976" lon="7.076699">
        <ele>929.500369</ele>
        <time>2022-07-28T02:52:50.790Z</time>
      </trkpt>
      <trkpt lat="43.757846" lon="7.076351">
        <ele>926.883020</ele>
        <time>2022-07-28T02:52:54.651Z</time>
      </trkpt>
      <trkpt lat="43.757549" lon="7.074999">
        <ele>917.612367</ele>
        <time>2022-07-28T02:53:08.773Z</time>
      </trkpt>
      <trkpt lat="43.757307" lon="7.074526">
        <ele>914.166673</ele>
        <time>2022-07-28T02:53:14.566Z</time>
      </trkpt>
      <trkpt lat="43.757164" lon="7.074511">
        <ele>912.986378</ele>
        <time>2022-07-28T02:53:16.547Z</time>
      </trkpt>
      <trkpt lat="43.757121" lon="7.074593">
        <ele>912.384006</ele>
        <time>2022-07-28T02:53:17.607Z</time>
      </trkpt>
      <trkpt lat="43.757186" lon="7.075325">
        <ele>907.999865</ele>
        <time>2022-07-28T02:53:25.132Z</time>
      </trkpt>
      <trkpt lat="43.757113" lon="7.076142">
        <ele>903.156680</ele>
        <time>2022-07-28T02:53:33.409Z</time>
      </trkpt>
      <trkpt lat="43.756827" lon="7.076993">
        <ele>897.839165</ele>
        <time>2022-07-28T02:53:42.976Z</time>
      </trkpt>
      <trkpt lat="43.756675" lon="7.077661">
        <ele>893.871376</ele>
        <time>2022-07-28T02:53:50.085Z</time>
      </trkpt>
      <trkpt lat="43.756703" lon="7.078786">
        <ele>887.686692</ele>
        <time>2022-07-28T02:54:01.555Z</time>
      </trkpt>
      <trkpt lat="43.756789" lon="7.079688">
        <ele>882.917118</ele>
        <time>2022-07-28T02:54:10.924Z</time>
      </trkpt>
      <trkpt lat="43.756842" lon="7.080050">
        <ele>880.980813</ele>
        <time>2022-07-28T02:54:14.727Z</time>
      </trkpt>
      <trkpt lat="43.756921" lon="7.080231">
        <ele>879.872170</ele>
        <time>2022-07-28T02:54:16.937Z</time>
      </trkpt>
      <trkpt lat="43.757576" lon="7.080804">
        <ele>874.642354</ele>
        <time>2022-07-28T02:54:27.960Z</time>
      </trkpt>
      <trkpt lat="43.758522" lon="7.081657">
        <ele>867.612900</ele>
        <time>2022-07-28T02:54:44.404Z</time>
      </trkpt>
      <trkpt lat="43.758962" lon="7.081914">
        <ele>864.813098</ele>
        <time>2022-07-28T02:54:51.538Z</time>
      </trkpt>
      <trkpt lat="43.759377" lon="7.082009">
        <ele>862.579584</ele>
        <time>2022-07-28T02:54:57.969Z</time>
      </trkpt>
      <trkpt lat="43.759706" lon="7.081949">
        <ele>860.817546</ele>
        <time>2022-07-28T02:55:03.089Z</time>
      </trkpt>
      <trkpt lat="43.760301" lon="7.081588">
        <ele>857.368149</ele>
        <time>2022-07-28T02:55:12.915Z</time>
      </trkpt>
      <trkpt lat="43.760412" lon="7.081442">
        <ele>856.555199</ele>
        <time>2022-07-28T02:55:15.151Z</time>
      </trkpt>
      <trkpt lat="43.760567" lon="7.081399">
        <ele>855.407936</ele>
        <time>2022-07-28T02:55:17.453Z</time>
      </trkpt>
      <trkpt lat="43.760760" lon="7.081554">
        <ele>853.563626</ele>
        <time>2022-07-28T02:55:20.639Z</time>
      </trkpt>
      <trkpt lat="43.761262" lon="7.082172">
        <ele>848.011012</ele>
        <time>2022-07-28T02:55:30.018Z</time>
      </trkpt>
      <trkpt lat="43.761473" lon="7.082532">
        <ele>845.243132</ele>
        <time>2022-07-28T02:55:34.609Z</time>
      </trkpt>
      <trkpt lat="43.761919" lon="7.083700">
        <ele>837.316723</ele>
        <time>2022-07-28T02:55:47.668Z</time>
      </trkpt>
      <trkpt lat="43.762123" lon="7.084060">
        <ele>834.558721</ele>
        <time>2022-07-28T02:55:52.287Z</time>
      </trkpt>
      <trkpt lat="43.763270" lon="7.084970">
        <ele>824.198948</ele>
        <time>2022-07-28T02:56:10.896Z</time>
      </trkpt>
      <trkpt lat="43.763301" lon="7.085124">
        <ele>823.461650</ele>
        <time>2022-07-28T02:56:12.559Z</time>
      </trkpt>
      <trkpt lat="43.763227" lon="7.085227">
        <ele>822.791613</ele>
        <time>2022-07-28T02:56:14.117Z</time>
      </trkpt>
      <trkpt lat="43.763081" lon="7.085290">
        <ele>821.815060</ele>
        <time>2022-07-28T02:56:16.327Z</time>
      </trkpt>
      <trkpt lat="43.762607" lon="7.085494">
        <ele>818.645340</ele>
        <time>2022-07-28T02:56:23.569Z</time>
      </trkpt>
      <trkpt lat="43.761658" lon="7.085039">
        <ele>813.067629</ele>
        <time>2022-07-28T02:56:38.423Z</time>
      </trkpt>
      <trkpt lat="43.761379" lon="7.084807">
        <ele>811.639084</ele>
        <time>2022-07-28T02:56:43.371Z</time>
      </trkpt>
      <trkpt lat="43.760933" lon="7.084094">
        <ele>808.648792</ele>
        <time>2022-07-28T02:56:54.379Z</time>
      </trkpt>
      <trkpt lat="43.760797" lon="7.083983">
        <ele>807.955825</ele>
        <time>2022-07-28T02:56:56.984Z</time>
      </trkpt>
      <trkpt lat="43.760673" lon="7.083974">
        <ele>807.410782</ele>
        <time>2022-07-28T02:56:58.922Z</time>
      </trkpt>
      <trkpt lat="43.760536" lon="7.084112">
        <ele>806.511460</ele>
        <time>2022-07-28T02:57:01.575Z</time>
      </trkpt>
      <trkpt lat="43.760338" lon="7.084798">
        <ele>803.104622</ele>
        <time>2022-07-28T02:57:09.756Z</time>
      </trkpt>
      <trkpt lat="43.759892" lon="7.085468">
        <ele>798.902625</ele>
        <time>2022-07-28T02:57:19.477Z</time>
      </trkpt>
      <trkpt lat="43.759656" lon="7.086034">
        <ele>795.888670</ele>
        <time>2022-07-28T02:57:25.989Z</time>
      </trkpt>
      <trkpt lat="43.759098" lon="7.086695">
        <ele>789.338101</ele>
        <time>2022-07-28T02:57:35.947Z</time>
      </trkpt>
      <trkpt lat="43.758987" lon="7.086742">
        <ele>788.277949</ele>
        <time>2022-07-28T02:57:37.542Z</time>
      </trkpt>
      <trkpt lat="43.758755" lon="7.086600">
        <ele>785.961192</ele>
        <time>2022-07-28T02:57:40.995Z</time>
      </trkpt>
      <trkpt lat="43.758326" lon="7.086651">
        <ele>782.028561</ele>
        <time>2022-07-28T02:57:46.999Z</time>
      </trkpt>
      <trkpt lat="43.757701" lon="7.086366">
        <ele>776.750873</ele>
        <time>2022-07-28T02:57:56.127Z</time>
      </trkpt>
      <trkpt lat="43.757583" lon="7.086250">
        <ele>775.743507</ele>
        <time>2022-07-28T02:57:58.169Z</time>
      </trkpt>
      <trkpt lat="43.757499" lon="7.086146">
        <ele>774.959109</ele>
        <time>2022-07-28T02:57:59.758Z</time>
      </trkpt>
      <trkpt lat="43.757356" lon="7.085639">
        <ele>772.222642</ele>
        <time>2022-07-28T02:58:05.409Z</time>
      </trkpt>
      <trkpt lat="43.757220" lon="7.085622">
        <ele>771.272119</ele>
        <time>2022-07-28T02:58:07.419Z</time>
      </trkpt>
      <trkpt lat="43.757015" lon="7.085759">
        <ele>769.687609</ele>
        <time>2022-07-28T02:58:10.790Z</time>
      </trkpt>
      <trkpt lat="43.756823" lon="7.085940">
        <ele>768.070732</ele>
        <time>2022-07-28T02:58:14.230Z</time>
      </trkpt>
      <trkpt lat="43.756650" lon="7.086009">
        <ele>766.817536</ele>
        <time>2022-07-28T02:58:16.920Z</time>
      </trkpt>
      <trkpt lat="43.756414" lon="7.086009">
        <ele>765.131584</ele>
        <time>2022-07-28T02:58:20.361Z</time>
      </trkpt>
      <trkpt lat="43.756315" lon="7.086086">
        <ele>764.316817</ele>
        <time>2022-07-28T02:58:22.015Z</time>
      </trkpt>
      <trkpt lat="43.756253" lon="7.086249">
        <ele>763.362076</ele>
        <time>2022-07-28T02:58:23.936Z</time>
      </trkpt>
      <trkpt lat="43.756253" lon="7.086893">
        <ele>760.024482</ele>
        <time>2022-07-28T02:58:30.479Z</time>
      </trkpt>
      <trkpt lat="43.755974" lon="7.087485">
        <ele>756.361034</ele>
        <time>2022-07-28T02:58:37.699Z</time>
      </trkpt>
      <trkpt lat="43.755794" lon="7.087699">
        <ele>754.658638</ele>
        <time>2022-07-28T02:58:41.119Z</time>
      </trkpt>
      <trkpt lat="43.755379" lon="7.088017">
        <ele>750.584924</ele>
        <time>2022-07-28T02:58:47.821Z</time>
      </trkpt>
      <trkpt lat="43.755038" lon="7.087957">
        <ele>747.434208</ele>
        <time>2022-07-28T02:58:52.621Z</time>
      </trkpt>
      <trkpt lat="43.754883" lon="7.088017">
        <ele>745.959003</ele>
        <time>2022-07-28T02:58:54.856Z</time>
      </trkpt>
      <trkpt lat="43.754740" lon="7.088257">
        <ele>743.899213</ele>
        <time>2022-07-28T02:58:57.931Z</time>
      </trkpt>
      <trkpt lat="43.754535" lon="7.089475">
        <ele>735.544191</ele>
        <time>2022-07-28T02:59:10.141Z</time>
      </trkpt>
      <trkpt lat="43.753956" lon="7.090741">
        <ele>725.147835</ele>
        <time>2022-07-28T02:59:24.769Z</time>
      </trkpt>
      <trkpt lat="43.753772" lon="7.091023">
        <ele>722.511192</ele>
        <time>2022-07-28T02:59:28.516Z</time>
      </trkpt>
      <trkpt lat="43.753652" lon="7.091117">
        <ele>721.186818</ele>
        <time>2022-07-28T02:59:30.463Z</time>
      </trkpt>
      <trkpt lat="43.753517" lon="7.091150">
        <ele>719.884154</ele>
        <time>2022-07-28T02:59:32.366Z</time>
      </trkpt>
      <trkpt lat="43.753232" lon="7.091030">
        <ele>718.075930</ele>
        <time>2022-07-28T02:59:36.682Z</time>
      </trkpt>
      <trkpt lat="43.752997" lon="7.090807">
        <ele>716.346520</ele>
        <time>2022-07-28T02:59:41.033Z</time>
      </trkpt>
      <trkpt lat="43.752884" lon="7.090612">
        <ele>715.250384</ele>
        <time>2022-07-28T02:59:43.796Z</time>
      </trkpt>
      <trkpt lat="43.752647" lon="7.089740">
        <ele>711.165293</ele>
        <time>2022-07-28T02:59:54.051Z</time>
      </trkpt>
      <trkpt lat="43.752563" lon="7.089649">
        <ele>710.517844</ele>
        <time>2022-07-28T02:59:55.651Z</time>
      </trkpt>
      <trkpt lat="43.752459" lon="7.089672">
        <ele>709.878548</ele>
        <time>2022-07-28T02:59:57.142Z</time>
      </trkpt>
      <trkpt lat="43.752424" lon="7.089878">
        <ele>708.928015</ele>
        <time>2022-07-28T02:59:59.309Z</time>
      </trkpt>
      <trkpt lat="43.752585" lon="7.090505">
        <ele>704.349758</ele>
        <time>2022-07-28T03:00:06.121Z</time>
      </trkpt>
      <trkpt lat="43.752597" lon="7.091758">
        <ele>695.728296</ele>
        <time>2022-07-28T03:00:18.434Z</time>
      </trkpt>
      <trkpt lat="43.752649" lon="7.092473">
        <ele>690.693362</ele>
        <time>2022-07-28T03:00:25.403Z</time>
      </trkpt>
      <trkpt lat="43.752803" lon="7.092831">
        <ele>687.584320</ele>
        <time>2022-07-28T03:00:29.367Z</time>
      </trkpt>
      <trkpt lat="43.753298" lon="7.093226">
        <ele>681.682449</ele>
        <time>2022-07-28T03:00:36.982Z</time>
      </trkpt>
      <trkpt lat="43.753680" lon="7.093388">
        <ele>677.555466</ele>
        <time>2022-07-28T03:00:42.439Z</time>
      </trkpt>
      <trkpt lat="43.753925" lon="7.093351">
        <ele>675.009644</ele>
        <time>2022-07-28T03:00:45.887Z</time>
      </trkpt>
      <trkpt lat="43.753291" lon="7.093976">
        <ele>668.723239</ele>
        <time>2022-07-28T03:01:06.079Z</time>
      </trkpt>
      <trkpt lat="43.752656" lon="7.094601">
        <ele>662.911665</ele>
        <time>2022-07-28T03:01:26.259Z</time>
      </trkpt>
      <trkpt lat="43.752021" lon="7.095226">
        <ele>657.286876</ele>
        <time>2022-07-28T03:01:46.447Z</time>
      </trkpt>
      <trkpt lat="43.751386" lon="7.095851">
        <ele>651.868217</ele>
        <time>2022-07-28T03:02:06.627Z</time>
      </trkpt>
      <trkpt lat="43.751177" lon="7.095830">
        <ele>650.410851</ele>
        <time>2022-07-28T03:02:09.570Z</time>
      </trkpt>
      <trkpt lat="43.750495" lon="7.096071">
        <ele>645.852612</ele>
        <time>2022-07-28T03:02:19.855Z</time>
      </trkpt>
      <trkpt lat="43.749793" lon="7.096211">
        <ele>641.824289</ele>
        <time>2022-07-28T03:02:30.099Z</time>
      </trkpt>
      <trkpt lat="43.749280" lon="7.096611">
        <ele>638.480195</ele>
        <time>2022-07-28T03:02:38.900Z</time>
      </trkpt>
      <trkpt lat="43.749197" lon="7.096528">
        <ele>637.898645</ele>
        <time>2022-07-28T03:02:40.513Z</time>
      </trkpt>
      <trkpt lat="43.749233" lon="7.096412">
        <ele>637.380649</ele>
        <time>2022-07-28T03:02:42.017Z</time>
      </trkpt>
      <trkpt lat="43.749882" lon="7.095855">
        <ele>633.472327</ele>
        <time>2022-07-28T03:02:53.987Z</time>
      </trkpt>
      <trkpt lat="43.750195" lon="7.095765">
        <ele>631.846763</ele>
        <time>2022-07-28T03:02:58.959Z</time>
      </trkpt>
      <trkpt lat="43.750214" lon="7.095612">
        <ele>631.276522</ele>
        <time>2022-07-28T03:03:00.633Z</time>
      </trkpt>
      <trkpt lat="43.750178" lon="7.095550">
        <ele>630.984333</ele>
        <time>2022-07-28T03:03:01.437Z</time>
      </trkpt>
      <trkpt lat="43.750091" lon="7.095542">
        <ele>630.540966</ele>
        <time>2022-07-28T03:03:02.872Z</time>
      </trkpt>
      <trkpt lat="43.749519" lon="7.095855">
        <ele>627.076159</ele>
        <time>2022-07-28T03:03:11.853Z</time>
      </trkpt>
      <trkpt lat="43.748727" lon="7.096343">
        <ele>620.098478</ele>
        <time>2022-07-28T03:03:23.985Z</time>
      </trkpt>
      <trkpt lat="43.748142" lon="7.097221">
        <ele>613.148878</ele>
        <time>2022-07-28T03:03:46.372Z</time>
      </trkpt>
      <trkpt lat="43.747557" lon="7.098100">
        <ele>606.110295</ele>
        <time>2022-07-28T03:04:08.766Z</time>
      </trkpt>
      <trkpt lat="43.746971" lon="7.098978">
        <ele>599.070476</ele>
        <time>2022-07-28T03:04:31.137Z</time>
      </trkpt>
      <trkpt lat="43.746386" lon="7.099857">
        <ele>592.007006</ele>
        <time>2022-07-28T03:04:53.507Z</time>
      </trkpt>
      <trkpt lat="43.745801" lon="7.100735">
        <ele>584.947048</ele>
        <time>2022-07-28T03:05:15.894Z</time>
      </trkpt>
      <trkpt lat="43.745216" lon="7.101614">
        <ele>575.966519</ele>
        <time>2022-07-28T03:05:38.305Z</time>
      </trkpt>
      <trkpt lat="43.744631" lon="7.102492">
        <ele>566.742782</ele>
        <time>2022-07-28T03:06:00.752Z</time>
      </trkpt>
      <trkpt lat="43.744046" lon="7.103371">
        <ele>558.174429</ele>
        <time>2022-07-28T03:06:23.180Z</time>
      </trkpt>
      <trkpt lat="43.744012" lon="7.103436">
        <ele>557.610105</ele>
        <time>2022-07-28T03:06:23.950Z</time>
      </trkpt>
      <trkpt lat="43.743751" lon="7.103731">
        <ele>554.330175</ele>
        <time>2022-07-28T03:06:28.594Z</time>
      </trkpt>
      <trkpt lat="43.743363" lon="7.103887">
        <ele>550.397308</ele>
        <time>2022-07-28T03:06:34.196Z</time>
      </trkpt>
      <trkpt lat="43.742581" lon="7.104539">
        <ele>542.454260</ele>
        <time>2022-07-28T03:06:46.885Z</time>
      </trkpt>
      <trkpt lat="43.741813" lon="7.104926">
        <ele>535.772650</ele>
        <time>2022-07-28T03:06:58.361Z</time>
      </trkpt>
      <trkpt lat="43.741453" lon="7.105234">
        <ele>532.350116</ele>
        <time>2022-07-28T03:07:04.311Z</time>
      </trkpt>
      <trkpt lat="43.741130" lon="7.105401">
        <ele>529.805735</ele>
        <time>2022-07-28T03:07:09.127Z</time>
      </trkpt>
      <trkpt lat="43.740761" lon="7.105435">
        <ele>527.076737</ele>
        <time>2022-07-28T03:07:14.339Z</time>
      </trkpt>
      <trkpt lat="43.740536" lon="7.105397">
        <ele>525.404074</ele>
        <time>2022-07-28T03:07:17.524Z</time>
      </trkpt>
      <trkpt lat="43.739541" lon="7.105555">
        <ele>518.217393</ele>
        <time>2022-07-28T03:07:31.893Z</time>
      </trkpt>
      <trkpt lat="43.738972" lon="7.105500">
        <ele>514.617000</ele>
        <time>2022-07-28T03:07:40.224Z</time>
      </trkpt>
      <trkpt lat="43.738509" lon="7.105579">
        <ele>511.672324</ele>
        <time>2022-07-28T03:07:47.081Z</time>
      </trkpt>
      <trkpt lat="43.738391" lon="7.105568">
        <ele>510.925796</ele>
        <time>2022-07-28T03:07:48.840Z</time>
      </trkpt>
      <trkpt lat="43.737713" lon="7.105234">
        <ele>506.266207</ele>
        <time>2022-07-28T03:07:59.291Z</time>
      </trkpt>
      <trkpt lat="43.737296" lon="7.105241">
        <ele>503.451397</ele>
        <time>2022-07-28T03:08:05.285Z</time>
      </trkpt>
      <trkpt lat="43.736840" lon="7.105376">
        <ele>500.303933</ele>
        <time>2022-07-28T03:08:11.965Z</time>
      </trkpt>
      <trkpt lat="43.736174" lon="7.105135">
        <ele>495.642451</ele>
        <time>2022-07-28T03:08:21.803Z</time>
      </trkpt>
      <trkpt lat="43.735780" lon="7.105120">
        <ele>492.834489</ele>
        <time>2022-07-28T03:08:27.536Z</time>
      </trkpt>
      <trkpt lat="43.735090" lon="7.104931">
        <ele>487.823504</ele>
        <time>2022-07-28T03:08:37.709Z</time>
      </trkpt>
      <trkpt lat="43.734879" lon="7.104951">
        <ele>486.316795</ele>
        <time>2022-07-28T03:08:40.715Z</time>
      </trkpt>
      <trkpt lat="43.734625" lon="7.105063">
        <ele>484.417649</ele>
        <time>2022-07-28T03:08:44.479Z</time>
      </trkpt>
      <trkpt lat="43.734228" lon="7.105372">
        <ele>480.736897</ele>
        <time>2022-07-28T03:08:50.832Z</time>
      </trkpt>
      <trkpt lat="43.733618" lon="7.105597">
        <ele>475.230771</ele>
        <time>2022-07-28T03:08:59.570Z</time>
      </trkpt>
      <trkpt lat="43.733543" lon="7.105623">
        <ele>474.556413</ele>
        <time>2022-07-28T03:09:00.631Z</time>
      </trkpt>
      <trkpt lat="43.732799" lon="7.105878">
        <ele>467.871221</ele>
        <time>2022-07-28T03:09:11.257Z</time>
      </trkpt>
      <trkpt lat="43.732448" lon="7.106041">
        <ele>464.185747</ele>
        <time>2022-07-28T03:09:16.335Z</time>
      </trkpt>
      <trkpt lat="43.732051" lon="7.106342">
        <ele>459.590984</ele>
        <time>2022-07-28T03:09:22.494Z</time>
      </trkpt>
      <trkpt lat="43.731283" lon="7.107113">
        <ele>449.960522</ele>
        <time>2022-07-28T03:09:35.258Z</time>
      </trkpt>
      <trkpt lat="43.730383" lon="7.108024">
        <ele>439.546172</ele>
        <time>2022-07-28T03:09:50.427Z</time>
      </trkpt>
      <trkpt lat="43.730160" lon="7.108244">
        <ele>437.004968</ele>
        <time>2022-07-28T03:09:54.206Z</time>
      </trkpt>
      <trkpt lat="43.730090" lon="7.108452">
        <ele>435.466470</ele>
        <time>2022-07-28T03:09:56.551Z</time>
      </trkpt>
      <trkpt lat="43.730081" lon="7.108672">
        <ele>433.988984</ele>
        <time>2022-07-28T03:09:58.768Z</time>
      </trkpt>
      <trkpt lat="43.730233" lon="7.109445">
        <ele>430.090284</ele>
        <time>2022-07-28T03:10:06.894Z</time>
      </trkpt>
      <trkpt lat="43.730194" lon="7.110282">
        <ele>426.609767</ele>
        <time>2022-07-28T03:10:15.767Z</time>
      </trkpt>
      <trkpt lat="43.730268" lon="7.110876">
        <ele>424.108478</ele>
        <time>2022-07-28T03:10:22.898Z</time>
      </trkpt>
      <trkpt lat="43.730223" lon="7.111010">
        <ele>423.495301</ele>
        <time>2022-07-28T03:10:24.423Z</time>
      </trkpt>
      <trkpt lat="43.730104" lon="7.111019">
        <ele>422.810898</ele>
        <time>2022-07-28T03:10:26.306Z</time>
      </trkpt>
      <trkpt lat="43.730051" lon="7.110936">
        <ele>422.351260</ele>
        <time>2022-07-28T03:10:27.824Z</time>
      </trkpt>
      <trkpt lat="43.729887" lon="7.110118">
        <ele>419.645504</ele>
        <time>2022-07-28T03:10:37.043Z</time>
      </trkpt>
      <trkpt lat="43.729760" lon="7.108916">
        <ele>415.843307</ele>
        <time>2022-07-28T03:10:50.325Z</time>
      </trkpt>
      <trkpt lat="43.729783" lon="7.108373">
        <ele>414.265770</ele>
        <time>2022-07-28T03:10:56.808Z</time>
      </trkpt>
      <trkpt lat="43.729831" lon="7.107896">
        <ele>413.609361</ele>
        <time>2022-07-28T03:11:02.529Z</time>
      </trkpt>
      <trkpt lat="43.730141" lon="7.106259">
        <ele>411.302845</ele>
        <time>2022-07-28T03:11:24.555Z</time>
      </trkpt>
      <trkpt lat="43.730216" lon="7.106067">
        <ele>411.005368</ele>
        <time>2022-07-28T03:11:27.612Z</time>
      </trkpt>
      <trkpt lat="43.730667" lon="7.105368">
        <ele>409.938861</ele>
        <time>2022-07-28T03:11:42.510Z</time>
      </trkpt>
      <trkpt lat="43.731071" lon="7.104737">
        <ele>408.984847</ele>
        <time>2022-07-28T03:11:57.245Z</time>
      </trkpt>
      <trkpt lat="43.731388" lon="7.104393">
        <ele>408.353991</ele>
        <time>2022-07-28T03:12:03.695Z</time>
      </trkpt>
      <trkpt lat="43.732412" lon="7.103861">
        <ele>400.684132</ele>
        <time>2022-07-28T03:12:19.744Z</time>
      </trkpt>
      <trkpt lat="43.732498" lon="7.103749">
        <ele>399.770473</ele>
        <time>2022-07-28T03:12:21.456Z</time>
      </trkpt>
      <trkpt lat="43.732504" lon="7.103551">
        <ele>398.662578</ele>
        <time>2022-07-28T03:12:23.476Z</time>
      </trkpt>
      <trkpt lat="43.732452" lon="7.103431">
        <ele>397.880326</ele>
        <time>2022-07-28T03:12:24.769Z</time>
      </trkpt>
      <trkpt lat="43.731792" lon="7.102685">
        <ele>390.187587</ele>
        <time>2022-07-28T03:12:36.254Z</time>
      </trkpt>
      <trkpt lat="43.731647" lon="7.102616">
        <ele>388.558979</ele>
        <time>2022-07-28T03:12:38.298Z</time>
      </trkpt>
      <trkpt lat="43.731319" lon="7.102616">
        <ele>385.075156</ele>
        <time>2022-07-28T03:12:42.643Z</time>
      </trkpt>
      <trkpt lat="43.730607" lon="7.102669">
        <ele>377.501777</ele>
        <time>2022-07-28T03:12:52.288Z</time>
      </trkpt>
      <trkpt lat="43.730299" lon="7.102773">
        <ele>374.406597</ele>
        <time>2022-07-28T03:12:56.671Z</time>
      </trkpt>
      <trkpt lat="43.729719" lon="7.103108">
        <ele>369.551175</ele>
        <time>2022-07-28T03:13:05.391Z</time>
      </trkpt>
      <trkpt lat="43.728482" lon="7.103115">
        <ele>360.056282</ele>
        <time>2022-07-28T03:13:23.181Z</time>
      </trkpt>
      <trkpt lat="43.728190" lon="7.103218">
        <ele>357.843844</ele>
        <time>2022-07-28T03:13:27.459Z</time>
      </trkpt>
      <trkpt lat="43.727359" lon="7.103694">
        <ele>351.240550</ele>
        <time>2022-07-28T03:13:40.156Z</time>
      </trkpt>
      <trkpt lat="43.726964" lon="7.103851">
        <ele>348.223172</ele>
        <time>2022-07-28T03:13:46.011Z</time>
      </trkpt>
      <trkpt lat="43.726360" lon="7.104256">
        <ele>343.776895</ele>
        <time>2022-07-28T03:13:55.631Z</time>
      </trkpt>
      <trkpt lat="43.726025" lon="7.104489">
        <ele>341.303975</ele>
        <time>2022-07-28T03:14:00.962Z</time>
      </trkpt>
      <trkpt lat="43.725802" lon="7.104720">
        <ele>339.466704</ele>
        <time>2022-07-28T03:14:04.915Z</time>
      </trkpt>
      <trkpt lat="43.725379" lon="7.105264">
        <ele>335.844031</ele>
        <time>2022-07-28T03:14:13.500Z</time>
      </trkpt>
      <trkpt lat="43.725295" lon="7.105415">
        <ele>335.266956</ele>
        <time>2022-07-28T03:14:15.485Z</time>
      </trkpt>
      <trkpt lat="43.724814" lon="7.106410">
        <ele>331.641703</ele>
        <time>2022-07-28T03:14:37.870Z</time>
      </trkpt>
      <trkpt lat="43.724333" lon="7.107405">
        <ele>328.282991</ele>
        <time>2022-07-28T03:15:00.255Z</time>
      </trkpt>
      <trkpt lat="43.723853" lon="7.108400">
        <ele>326.231436</ele>
        <time>2022-07-28T03:15:22.631Z</time>
      </trkpt>
      <trkpt lat="43.723372" lon="7.109395">
        <ele>324.298759</ele>
        <time>2022-07-28T03:15:45.007Z</time>
      </trkpt>
      <trkpt lat="43.723105" lon="7.111082">
        <ele>323.268542</ele>
        <time>2022-07-28T03:16:10.207Z</time>
      </trkpt>
      <trkpt lat="43.723072" lon="7.111280">
        <ele>323.147326</ele>
        <time>2022-07-28T03:16:13.400Z</time>
      </trkpt>
      <trkpt lat="43.723007" lon="7.111674">
        <ele>322.906242</ele>
        <time>2022-07-28T03:16:19.557Z</time>
      </trkpt>
      <trkpt lat="43.722884" lon="7.112358">
        <ele>322.543023</ele>
        <time>2022-07-28T03:16:29.591Z</time>
      </trkpt>
      <trkpt lat="43.722867" lon="7.112432">
        <ele>322.503461</ele>
        <time>2022-07-28T03:16:30.699Z</time>
      </trkpt>
      <trkpt lat="43.722838" lon="7.112439">
        <ele>322.482707</ele>
        <time>2022-07-28T03:16:32.752Z</time>
      </trkpt>
      <trkpt lat="43.722741" lon="7.112479">
        <ele>322.411349</ele>
        <time>2022-07-28T03:16:39.800Z</time>
      </trkpt>
      <trkpt lat="43.722536" lon="7.112533">
        <ele>322.264227</ele>
        <time>2022-07-28T03:16:54.324Z</time>
      </trkpt>
      <trkpt lat="43.722399" lon="7.112658">
        <ele>322.148534</ele>
        <time>2022-07-28T03:16:57.566Z</time>
      </trkpt>
      <trkpt lat="43.722255" lon="7.112848">
        <ele>322.008255</ele>
        <time>2022-07-28T03:17:02.116Z</time>
      </trkpt>
      <trkpt lat="43.722095" lon="7.113141">
        <ele>321.821145</ele>
        <time>2022-07-28T03:17:07.836Z</time>
      </trkpt>
      <trkpt lat="43.722062" lon="7.113202">
        <ele>321.782322</ele>
        <time>2022-07-28T03:17:08.989Z</time>
      </trkpt>
      <trkpt lat="43.721983" lon="7.113393">
        <ele>321.670195</ele>
        <time>2022-07-28T03:17:12.081Z</time>
      </trkpt>
      <trkpt lat="43.721922" lon="7.113617">
        <ele>321.481004</ele>
        <time>2022-07-28T03:17:15.601Z</time>
      </trkpt>
      <trkpt lat="43.721826" lon="7.113969">
        <ele>321.081130</ele>
        <time>2022-07-28T03:17:20.408Z</time>
      </trkpt>
      <trkpt lat="43.721828" lon="7.114149">
        <ele>320.889795</ele>
        <time>2022-07-28T03:17:22.732Z</time>
      </trkpt>
      <trkpt lat="43.721892" lon="7.114367">
        <ele>320.639707</ele>
        <time>2022-07-28T03:17:25.661Z</time>
      </trkpt>
      <trkpt lat="43.721912" lon="7.114434">
        <ele>320.562661</ele>
        <time>2022-07-28T03:17:26.610Z</time>
      </trkpt>
      <trkpt lat="43.722017" lon="7.114637">
        <ele>320.297338</ele>
        <time>2022-07-28T03:17:29.822Z</time>
      </trkpt>
      <trkpt lat="43.722214" lon="7.114823">
        <ele>319.946600</ele>
        <time>2022-07-28T03:17:34.178Z</time>
      </trkpt>
      <trkpt lat="43.722255" lon="7.114857">
        <ele>319.876304</ele>
        <time>2022-07-28T03:17:35.048Z</time>
      </trkpt>
      <trkpt lat="43.722268" lon="7.114868">
        <ele>319.853894</ele>
        <time>2022-07-28T03:17:35.318Z</time>
      </trkpt>
      <trkpt lat="43.722594" lon="7.115039">
        <ele>319.341169</ele>
        <time>2022-07-28T03:17:42.227Z</time>
      </trkpt>
      <trkpt lat="43.722516" lon="7.115503">
        <ele>318.645301</ele>
        <time>2022-07-28T03:17:48.816Z</time>
      </trkpt>
      <trkpt lat="43.722542" lon="7.116162">
        <ele>316.921932</ele>
        <time>2022-07-28T03:17:56.975Z</time>
      </trkpt>
      <trkpt lat="43.722426" lon="7.116867">
        <ele>315.033897</ele>
        <time>2022-07-28T03:18:05.363Z</time>
      </trkpt>
      <trkpt lat="43.722438" lon="7.117075">
        <ele>314.489030</ele>
        <time>2022-07-28T03:18:07.719Z</time>
      </trkpt>
      <trkpt lat="43.722583" lon="7.117584">
        <ele>313.060377</ele>
        <time>2022-07-28T03:18:13.752Z</time>
      </trkpt>
      <trkpt lat="43.722599" lon="7.118079">
        <ele>311.111930</ele>
        <time>2022-07-28T03:18:19.040Z</time>
      </trkpt>
      <trkpt lat="43.722514" lon="7.118476">
        <ele>309.019067</ele>
        <time>2022-07-28T03:18:23.405Z</time>
      </trkpt>
      <trkpt lat="43.721828" lon="7.119516">
        <ele>301.901955</ele>
        <time>2022-07-28T03:18:37.872Z</time>
      </trkpt>
      <trkpt lat="43.721662" lon="7.119752">
        <ele>300.237347</ele>
        <time>2022-07-28T03:18:41.219Z</time>
      </trkpt>
      <trkpt lat="43.721569" lon="7.120044">
        <ele>298.530913</ele>
        <time>2022-07-28T03:18:44.531Z</time>
      </trkpt>
      <trkpt lat="43.721632" lon="7.120467">
        <ele>296.186103</ele>
        <time>2022-07-28T03:18:48.794Z</time>
      </trkpt>
      <trkpt lat="43.721927" lon="7.120999">
        <ele>292.545546</ele>
        <time>2022-07-28T03:18:55.407Z</time>
      </trkpt>
      <trkpt lat="43.722022" lon="7.121298">
        <ele>290.772274</ele>
        <time>2022-07-28T03:18:58.791Z</time>
      </trkpt>
      <trkpt lat="43.722015" lon="7.121421">
        <ele>290.102421</ele>
        <time>2022-07-28T03:18:59.995Z</time>
      </trkpt>
      <trkpt lat="43.721995" lon="7.121752">
        <ele>288.299098</ele>
        <time>2022-07-28T03:19:03.560Z</time>
      </trkpt>
      <trkpt lat="43.721793" lon="7.122074">
        <ele>286.170847</ele>
        <time>2022-07-28T03:19:08.190Z</time>
      </trkpt>
      <trkpt lat="43.721651" lon="7.122154">
        <ele>285.570069</ele>
        <time>2022-07-28T03:19:10.613Z</time>
      </trkpt>
      <trkpt lat="43.721414" lon="7.122175">
        <ele>284.639487</ele>
        <time>2022-07-28T03:19:14.368Z</time>
      </trkpt>
      <trkpt lat="43.721249" lon="7.122096">
        <ele>283.955325</ele>
        <time>2022-07-28T03:19:17.077Z</time>
      </trkpt>
      <trkpt lat="43.721226" lon="7.121964">
        <ele>283.570800</ele>
        <time>2022-07-28T03:19:18.644Z</time>
      </trkpt>
      <trkpt lat="43.721170" lon="7.121962">
        <ele>283.351292</ele>
        <time>2022-07-28T03:19:19.482Z</time>
      </trkpt>
      <trkpt lat="43.720973" lon="7.121868">
        <ele>282.534741</ele>
        <time>2022-07-28T03:19:22.713Z</time>
      </trkpt>
      <trkpt lat="43.720660" lon="7.121588">
        <ele>281.074252</ele>
        <time>2022-07-28T03:19:28.530Z</time>
      </trkpt>
      <trkpt lat="43.720383" lon="7.121548">
        <ele>279.982938</ele>
        <time>2022-07-28T03:19:33.097Z</time>
      </trkpt>
      <trkpt lat="43.720225" lon="7.121740">
        <ele>279.065703</ele>
        <time>2022-07-28T03:19:36.998Z</time>
      </trkpt>
      <trkpt lat="43.720033" lon="7.122137">
        <ele>276.959849</ele>
        <time>2022-07-28T03:19:43.118Z</time>
      </trkpt>
      <trkpt lat="43.719686" lon="7.122574">
        <ele>274.097780</ele>
        <time>2022-07-28T03:19:50.436Z</time>
      </trkpt>
      <trkpt lat="43.718855" lon="7.123450">
        <ele>267.373873</ele>
        <time>2022-07-28T03:20:04.979Z</time>
      </trkpt>
      <trkpt lat="43.717278" lon="7.124571">
        <ele>250.923673</ele>
        <time>2022-07-28T03:20:29.042Z</time>
      </trkpt>
      <trkpt lat="43.717070" lon="7.124702">
        <ele>249.930781</ele>
        <time>2022-07-28T03:20:32.323Z</time>
      </trkpt>
      <trkpt lat="43.716727" lon="7.124814">
        <ele>248.399653</ele>
        <time>2022-07-28T03:20:37.491Z</time>
      </trkpt>
      <trkpt lat="43.716501" lon="7.124777">
        <ele>247.410928</ele>
        <time>2022-07-28T03:20:40.994Z</time>
      </trkpt>
      <trkpt lat="43.716312" lon="7.124650">
        <ele>246.498084</ele>
        <time>2022-07-28T03:20:44.785Z</time>
      </trkpt>
      <trkpt lat="43.716196" lon="7.124448">
        <ele>245.687940</ele>
        <time>2022-07-28T03:20:47.979Z</time>
      </trkpt>
      <trkpt lat="43.716123" lon="7.124192">
        <ele>244.823762</ele>
        <time>2022-07-28T03:20:51.690Z</time>
      </trkpt>
      <trkpt lat="43.716034" lon="7.123156">
        <ele>241.684568</ele>
        <time>2022-07-28T03:21:05.389Z</time>
      </trkpt>
      <trkpt lat="43.715991" lon="7.123019">
        <ele>241.249372</ele>
        <time>2022-07-28T03:21:07.159Z</time>
      </trkpt>
      <trkpt lat="43.715890" lon="7.122901">
        <ele>240.716460</ele>
        <time>2022-07-28T03:21:09.723Z</time>
      </trkpt>
      <trkpt lat="43.715658" lon="7.122894">
        <ele>239.780970</ele>
        <time>2022-07-28T03:21:13.282Z</time>
      </trkpt>
      <trkpt lat="43.715502" lon="7.123100">
        <ele>238.911614</ele>
        <time>2022-07-28T03:21:16.625Z</time>
      </trkpt>
      <trkpt lat="43.715245" lon="7.124665">
        <ele>232.564972</ele>
        <time>2022-07-28T03:21:33.685Z</time>
      </trkpt>
      <trkpt lat="43.715130" lon="7.125111">
        <ele>230.009339</ele>
        <time>2022-07-28T03:21:38.419Z</time>
      </trkpt>
      <trkpt lat="43.715024" lon="7.125343">
        <ele>228.528049</ele>
        <time>2022-07-28T03:21:41.165Z</time>
      </trkpt>
      <trkpt lat="43.714174" lon="7.126269">
        <ele>220.768336</ele>
        <time>2022-07-28T03:21:56.351Z</time>
      </trkpt>
      <trkpt lat="43.714020" lon="7.126480">
        <ele>219.372680</ele>
        <time>2022-07-28T03:21:59.473Z</time>
      </trkpt>
      <trkpt lat="43.713960" lon="7.126789">
        <ele>217.883488</ele>
        <time>2022-07-28T03:22:02.884Z</time>
      </trkpt>
      <trkpt lat="43.713981" lon="7.127561">
        <ele>214.287772</ele>
        <time>2022-07-28T03:22:11.087Z</time>
      </trkpt>
      <trkpt lat="43.713884" lon="7.127923">
        <ele>212.490837</ele>
        <time>2022-07-28T03:22:15.143Z</time>
      </trkpt>
      <trkpt lat="43.713369" lon="7.128615">
        <ele>208.472385</ele>
        <time>2022-07-28T03:22:25.765Z</time>
      </trkpt>
      <trkpt lat="43.713241" lon="7.128787">
        <ele>207.532879</ele>
        <time>2022-07-28T03:22:28.494Z</time>
      </trkpt>
      <trkpt lat="43.712792" lon="7.129095">
        <ele>204.894177</ele>
        <time>2022-07-28T03:22:36.040Z</time>
      </trkpt>
      <trkpt lat="43.712083" lon="7.129374">
        <ele>200.965957</ele>
        <time>2022-07-28T03:22:47.158Z</time>
      </trkpt>
      <trkpt lat="43.711985" lon="7.129410">
        <ele>200.396117</ele>
        <time>2022-07-28T03:22:48.671Z</time>
      </trkpt>
      <trkpt lat="43.711084" lon="7.129807">
        <ele>195.081925</ele>
        <time>2022-07-28T03:23:02.968Z</time>
      </trkpt>
      <trkpt lat="43.709823" lon="7.130695">
        <ele>186.240245</ele>
        <time>2022-07-28T03:23:23.351Z</time>
      </trkpt>
      <trkpt lat="43.709500" lon="7.130922">
        <ele>183.799393</ele>
        <time>2022-07-28T03:23:28.465Z</time>
      </trkpt>
      <trkpt lat="43.708088" lon="7.131138">
        <ele>177.013814</ele>
        <time>2022-07-28T03:23:49.121Z</time>
      </trkpt>
      <trkpt lat="43.707868" lon="7.131182">
        <ele>176.309556</ele>
        <time>2022-07-28T03:23:52.892Z</time>
      </trkpt>
      <trkpt lat="43.707720" lon="7.131206">
        <ele>175.837447</ele>
        <time>2022-07-28T03:23:55.404Z</time>
      </trkpt>
      <trkpt lat="43.707631" lon="7.131132">
        <ele>175.508461</ele>
        <time>2022-07-28T03:23:57.415Z</time>
      </trkpt>
      <trkpt lat="43.707624" lon="7.131115">
        <ele>175.463654</ele>
        <time>2022-07-28T03:23:57.685Z</time>
      </trkpt>
      <trkpt lat="43.707509" lon="7.131005">
        <ele>175.020692</ele>
        <time>2022-07-28T03:24:00.303Z</time>
      </trkpt>
      <trkpt lat="43.707415" lon="7.131019">
        <ele>174.721157</ele>
        <time>2022-07-28T03:24:02.078Z</time>
      </trkpt>
      <trkpt lat="43.707366" lon="7.131061">
        <ele>174.538528</ele>
        <time>2022-07-28T03:24:03.446Z</time>
      </trkpt>
      <trkpt lat="43.707309" lon="7.131236">
        <ele>174.098928</ele>
        <time>2022-07-28T03:24:06.789Z</time>
      </trkpt>
      <trkpt lat="43.707263" lon="7.131433">
        <ele>173.886164</ele>
        <time>2022-07-28T03:24:09.993Z</time>
      </trkpt>
      <trkpt lat="43.706578" lon="7.132028">
        <ele>175.429111</ele>
        <time>2022-07-28T03:24:35.244Z</time>
      </trkpt>
      <trkpt lat="43.705478" lon="7.132665">
        <ele>177.506462</ele>
        <time>2022-07-28T03:25:13.684Z</time>
      </trkpt>
      <trkpt lat="43.705369" lon="7.132729">
        <ele>177.640362</ele>
        <time>2022-07-28T03:25:17.032Z</time>
      </trkpt>
      <trkpt lat="43.704959" lon="7.132996">
        <ele>178.152792</ele>
        <time>2022-07-28T03:25:29.070Z</time>
      </trkpt>
      <trkpt lat="43.704375" lon="7.133273">
        <ele>178.850917</ele>
        <time>2022-07-28T03:25:44.613Z</time>
      </trkpt>
      <trkpt lat="43.704017" lon="7.133267">
        <ele>179.252821</ele>
        <time>2022-07-28T03:25:53.719Z</time>
      </trkpt>
      <trkpt lat="43.703753" lon="7.133153">
        <ele>179.241970</ele>
        <time>2022-07-28T03:26:00.108Z</time>
      </trkpt>
      <trkpt lat="43.703179" lon="7.132615">
        <ele>179.214765</ele>
        <time>2022-07-28T03:26:15.331Z</time>
      </trkpt>
      <trkpt lat="43.702924" lon="7.132440">
        <ele>179.203596</ele>
        <time>2022-07-28T03:26:21.207Z</time>
      </trkpt>
      <trkpt lat="43.702654" lon="7.132378">
        <ele>179.192857</ele>
        <time>2022-07-28T03:26:26.740Z</time>
      </trkpt>
      <trkpt lat="43.702162" lon="7.132405">
        <ele>179.196393</ele>
        <time>2022-07-28T03:26:37.213Z</time>
      </trkpt>
      <trkpt lat="43.701755" lon="7.132282">
        <ele>179.222453</ele>
        <time>2022-07-28T03:26:47.182Z</time>
      </trkpt>
      <trkpt lat="43.701271" lon="7.131704">
        <ele>179.262452</ele>
        <time>2022-07-28T03:27:03.574Z</time>
      </trkpt>
      <trkpt lat="43.701100" lon="7.131476">
        <ele>179.277309</ele>
        <time>2022-07-28T03:27:08.013Z</time>
      </trkpt>
      <trkpt lat="43.701082" lon="7.131344">
        <ele>179.283384</ele>
        <time>2022-07-28T03:27:10.511Z</time>
      </trkpt>
      <trkpt lat="43.700999" lon="7.131292">
        <ele>179.289083</ele>
        <time>2022-07-28T03:27:12.233Z</time>
      </trkpt>
      <trkpt lat="43.700470" lon="7.130587">
        <ele>178.437504</ele>
        <time>2022-07-28T03:27:27.409Z</time>
      </trkpt>
      <trkpt lat="43.700085" lon="7.130041">
        <ele>177.701429</ele>
        <time>2022-07-28T03:27:37.612Z</time>
      </trkpt>
      <trkpt lat="43.699750" lon="7.129793">
        <ele>177.194209</ele>
        <time>2022-07-28T03:27:44.464Z</time>
      </trkpt>
      <trkpt lat="43.699502" lon="7.129786">
        <ele>176.837982</ele>
        <time>2022-07-28T03:27:48.888Z</time>
      </trkpt>
      <trkpt lat="43.698874" lon="7.129967">
        <ele>175.282401</ele>
        <time>2022-07-28T03:27:59.298Z</time>
      </trkpt>
      <trkpt lat="43.698648" lon="7.129984">
        <ele>174.733552</ele>
        <time>2022-07-28T03:28:02.942Z</time>
      </trkpt>
      <trkpt lat="43.697763" lon="7.129829">
        <ele>172.570331</ele>
        <time>2022-07-28T03:28:18.476Z</time>
      </trkpt>
      <trkpt lat="43.697098" lon="7.130012">
        <ele>171.737887</ele>
        <time>2022-07-28T03:28:30.995Z</time>
      </trkpt>
      <trkpt lat="43.696302" lon="7.129989">
        <ele>170.783035</ele>
        <time>2022-07-28T03:28:47.093Z</time>
      </trkpt>
      <trkpt lat="43.694615" lon="7.130217">
        <ele>167.909972</ele>
        <time>2022-07-28T03:29:18.526Z</time>
      </trkpt>
      <trkpt lat="43.693794" lon="7.130269">
        <ele>165.787339</ele>
        <time>2022-07-28T03:29:32.084Z</time>
      </trkpt>
      <trkpt lat="43.691672" lon="7.130009">
        <ele>158.971654</ele>
        <time>2022-07-28T03:30:05.959Z</time>
      </trkpt>
      <trkpt lat="43.691382" lon="7.130117">
        <ele>158.178614</ele>
        <time>2022-07-28T03:30:11.121Z</time>
      </trkpt>
      <trkpt lat="43.690252" lon="7.130880">
        <ele>154.341190</ele>
        <time>2022-07-28T03:30:33.603Z</time>
      </trkpt>
      <trkpt lat="43.690120" lon="7.130969">
        <ele>153.791531</ele>
        <time>2022-07-28T03:30:36.287Z</time>
      </trkpt>
      <trkpt lat="43.689802" lon="7.131037">
        <ele>152.587129</ele>
        <time>2022-07-28T03:30:41.529Z</time>
      </trkpt>
      <trkpt lat="43.689397" lon="7.130927">
        <ele>151.042278</ele>
        <time>2022-07-28T03:30:47.907Z</time>
      </trkpt>
      <trkpt lat="43.688815" lon="7.130471">
        <ele>148.002432</ele>
        <time>2022-07-28T03:30:57.781Z</time>
      </trkpt>
      <trkpt lat="43.688274" lon="7.130295">
        <ele>144.571368</ele>
        <time>2022-07-28T03:31:05.682Z</time>
      </trkpt>
      <trkpt lat="43.687122" lon="7.130174">
        <ele>137.846169</ele>
        <time>2022-07-28T03:31:22.362Z</time>
      </trkpt>
      <trkpt lat="43.686749" lon="7.130146">
        <ele>136.683630</ele>
        <time>2022-07-28T03:31:28.787Z</time>
      </trkpt>
      <trkpt lat="43.686555" lon="7.130099">
        <ele>136.070678</ele>
        <time>2022-07-28T03:31:32.104Z</time>
      </trkpt>
      <trkpt lat="43.686304" lon="7.130125">
        <ele>135.287342</ele>
        <time>2022-07-28T03:31:36.690Z</time>
      </trkpt>
      <trkpt lat="43.686233" lon="7.130077">
        <ele>135.041388</ele>
        <time>2022-07-28T03:31:38.001Z</time>
      </trkpt>
      <trkpt lat="43.686157" lon="7.130106">
        <ele>134.796025</ele>
        <time>2022-07-28T03:31:39.356Z</time>
      </trkpt>
      <trkpt lat="43.686114" lon="7.130238">
        <ele>134.470209</ele>
        <time>2022-07-28T03:31:41.423Z</time>
      </trkpt>
      <trkpt lat="43.686129" lon="7.130305">
        <ele>134.312364</ele>
        <time>2022-07-28T03:31:42.232Z</time>
      </trkpt>
      <trkpt lat="43.686077" lon="7.130462">
        <ele>133.923738</ele>
        <time>2022-07-28T03:31:44.210Z</time>
      </trkpt>
      <trkpt lat="43.686045" lon="7.130484">
        <ele>133.812521</ele>
        <time>2022-07-28T03:31:44.788Z</time>
      </trkpt>
      <trkpt lat="43.685595" lon="7.130796">
        <ele>132.018251</ele>
        <time>2022-07-28T03:31:53.421Z</time>
      </trkpt>
      <trkpt lat="43.684903" lon="7.130776">
        <ele>128.687167</ele>
        <time>2022-07-28T03:32:04.762Z</time>
      </trkpt>
      <trkpt lat="43.684608" lon="7.130739">
        <ele>127.261606</ele>
        <time>2022-07-28T03:32:09.353Z</time>
      </trkpt>
      <trkpt lat="43.684328" lon="7.130781">
        <ele>125.906158</ele>
        <time>2022-07-28T03:32:13.466Z</time>
      </trkpt>
      <trkpt lat="43.683239" lon="7.131270">
        <ele>118.193028</ele>
        <time>2022-07-28T03:32:29.543Z</time>
      </trkpt>
      <trkpt lat="43.682792" lon="7.131570">
        <ele>114.342876</ele>
        <time>2022-07-28T03:32:36.574Z</time>
      </trkpt>
      <trkpt lat="43.682572" lon="7.131824">
        <ele>112.122038</ele>
        <time>2022-07-28T03:32:40.605Z</time>
      </trkpt>
      <trkpt lat="43.682336" lon="7.132214">
        <ele>109.311644</ele>
        <time>2022-07-28T03:32:45.738Z</time>
      </trkpt>
      <trkpt lat="43.681450" lon="7.134039">
        <ele>97.601263</ele>
        <time>2022-07-28T03:33:08.183Z</time>
      </trkpt>
      <trkpt lat="43.681068" lon="7.135086">
        <ele>94.775287</ele>
        <time>2022-07-28T03:33:20.811Z</time>
      </trkpt>
      <trkpt lat="43.680530" lon="7.136121">
        <ele>92.236275</ele>
        <time>2022-07-28T03:33:39.453Z</time>
      </trkpt>
      <trkpt lat="43.680420" lon="7.136280">
        <ele>91.829762</ele>
        <time>2022-07-28T03:33:42.413Z</time>
      </trkpt>
      <trkpt lat="43.680059" lon="7.136771">
        <ele>91.102135</ele>
        <time>2022-07-28T03:33:55.261Z</time>
      </trkpt>
      <trkpt lat="43.679688" lon="7.137303">
        <ele>90.334114</ele>
        <time>2022-07-28T03:34:05.948Z</time>
      </trkpt>
      <trkpt lat="43.679083" lon="7.138456">
        <ele>87.826566</ele>
        <time>2022-07-28T03:34:23.262Z</time>
      </trkpt>
      <trkpt lat="43.678336" lon="7.139552">
        <ele>82.489100</ele>
        <time>2022-07-28T03:34:39.345Z</time>
      </trkpt>
      <trkpt lat="43.677733" lon="7.140160">
        <ele>79.356859</ele>
        <time>2022-07-28T03:34:50.481Z</time>
      </trkpt>
      <trkpt lat="43.676925" lon="7.140617">
        <ele>76.453415</ele>
        <time>2022-07-28T03:35:04.356Z</time>
      </trkpt>
      <trkpt lat="43.676592" lon="7.140811">
        <ele>75.251602</ele>
        <time>2022-07-28T03:35:10.712Z</time>
      </trkpt>
      <trkpt lat="43.676500" lon="7.140862">
        <ele>74.921946</ele>
        <time>2022-07-28T03:35:12.507Z</time>
      </trkpt>
      <trkpt lat="43.676223" lon="7.141067">
        <ele>74.309166</ele>
        <time>2022-07-28T03:35:18.306Z</time>
      </trkpt>
      <trkpt lat="43.675433" lon="7.141863">
        <ele>73.373972</ele>
        <time>2022-07-28T03:35:38.177Z</time>
      </trkpt>
      <trkpt lat="43.674477" lon="7.142267">
        <ele>71.895849</ele>
        <time>2022-07-28T03:35:57.892Z</time>
      </trkpt>
      <trkpt lat="43.673234" lon="7.142761">
        <ele>68.788988</ele>
        <time>2022-07-28T03:36:20.171Z</time>
      </trkpt>
      <trkpt lat="43.672297" lon="7.143360">
        <ele>64.032625</ele>
        <time>2022-07-28T03:36:35.732Z</time>
      </trkpt>
      <trkpt lat="43.671808" lon="7.143543">
        <ele>61.516862</ele>
        <time>2022-07-28T03:36:43.233Z</time>
      </trkpt>
      <trkpt lat="43.671607" lon="7.143660">
        <ele>60.433834</ele>
        <time>2022-07-28T03:36:46.487Z</time>
      </trkpt>
      <trkpt lat="43.671191" lon="7.143687">
        <ele>58.525490</ele>
        <time>2022-07-28T03:36:52.721Z</time>
      </trkpt>
      <trkpt lat="43.670864" lon="7.143846">
        <ele>57.044444</ele>
        <time>2022-07-28T03:36:57.987Z</time>
      </trkpt>
      <trkpt lat="43.669649" lon="7.144389">
        <ele>51.516761</ele>
        <time>2022-07-28T03:37:18.229Z</time>
      </trkpt>
      <trkpt lat="43.669323" lon="7.144405">
        <ele>49.699168</ele>
        <time>2022-07-28T03:37:23.409Z</time>
      </trkpt>
      <trkpt lat="43.669164" lon="7.144356">
        <ele>48.791487</ele>
        <time>2022-07-28T03:37:25.908Z</time>
      </trkpt>
      <trkpt lat="43.669018" lon="7.144310">
        <ele>47.957126</ele>
        <time>2022-07-28T03:37:28.225Z</time>
      </trkpt>
      <trkpt lat="43.668873" lon="7.144208">
        <ele>47.050620</ele>
        <time>2022-07-28T03:37:30.612Z</time>
      </trkpt>
      <trkpt lat="43.668460" lon="7.143738">
        <ele>44.070029</ele>
        <time>2022-07-28T03:37:38.417Z</time>
      </trkpt>
      <trkpt lat="43.667480" lon="7.142544">
        <ele>36.380835</ele>
        <time>2022-07-28T03:37:57.029Z</time>
      </trkpt>
      <trkpt lat="43.666996" lon="7.141953">
        <ele>32.487764</ele>
        <time>2022-07-28T03:38:06.426Z</time>
      </trkpt>
      <trkpt lat="43.666958" lon="7.141890">
        <ele>32.130051</ele>
        <time>2022-07-28T03:38:07.385Z</time>
      </trkpt>
      <trkpt lat="43.666877" lon="7.141698">
        <ele>31.160773</ele>
        <time>2022-07-28T03:38:09.908Z</time>
      </trkpt>
      <trkpt lat="43.666866" lon="7.141641">
        <ele>30.954272</ele>
        <time>2022-07-28T03:38:10.565Z</time>
      </trkpt>
      <trkpt lat="43.666850" lon="7.141547">
        <ele>30.911482</ele>
        <time>2022-07-28T03:38:11.676Z</time>
      </trkpt>
      <trkpt lat="43.666764" lon="7.141452">
        <ele>30.844048</ele>
        <time>2022-07-28T03:38:13.611Z</time>
      </trkpt>
      <trkpt lat="43.666655" lon="7.141471">
        <ele>30.776750</ele>
        <time>2022-07-28T03:38:15.432Z</time>
      </trkpt>
      <trkpt lat="43.666603" lon="7.141545">
        <ele>30.731035</ele>
        <time>2022-07-28T03:38:16.659Z</time>
      </trkpt>
      <trkpt lat="43.666592" lon="7.141695">
        <ele>30.664227</ele>
        <time>2022-07-28T03:38:18.610Z</time>
      </trkpt>
      <trkpt lat="43.666465" lon="7.142010">
        <ele>30.504431</ele>
        <time>2022-07-28T03:38:23.568Z</time>
      </trkpt>
      <trkpt lat="43.666182" lon="7.142398">
        <ele>30.260276</ele>
        <time>2022-07-28T03:38:33.617Z</time>
      </trkpt>
      <trkpt lat="43.665865" lon="7.142818">
        <ele>29.991308</ele>
        <time>2022-07-28T03:38:46.721Z</time>
      </trkpt>
      <trkpt lat="43.665682" lon="7.143062">
        <ele>29.850568</ele>
        <time>2022-07-28T03:38:53.129Z</time>
      </trkpt>
      <trkpt lat="43.665500" lon="7.143305">
        <ele>29.798197</ele>
        <time>2022-07-28T03:38:59.081Z</time>
      </trkpt>
      <trkpt lat="43.665191" lon="7.143715">
        <ele>29.709548</ele>
        <time>2022-07-28T03:39:10.175Z</time>
      </trkpt>
      <trkpt lat="43.664830" lon="7.144220">
        <ele>29.603248</ele>
        <time>2022-07-28T03:39:21.398Z</time>
      </trkpt>
      <trkpt lat="43.664561" lon="7.145077">
        <ele>29.188905</ele>
        <time>2022-07-28T03:39:33.877Z</time>
      </trkpt>
      <trkpt lat="43.664425" lon="7.145377">
        <ele>28.491379</ele>
        <time>2022-07-28T03:39:38.526Z</time>
      </trkpt>
      <trkpt lat="43.663850" lon="7.146200">
        <ele>26.237138</ele>
        <time>2022-07-28T03:39:52.169Z</time>
      </trkpt>
      <trkpt lat="43.663748" lon="7.146332">
        <ele>25.856602</ele>
        <time>2022-07-28T03:39:54.452Z</time>
      </trkpt>
      <trkpt lat="43.663700" lon="7.146400">
        <ele>25.669414</ele>
        <time>2022-07-28T03:39:55.641Z</time>
      </trkpt>
      <trkpt lat="43.663524" lon="7.146709">
        <ele>24.894560</ele>
        <time>2022-07-28T03:40:00.188Z</time>
      </trkpt>
      <trkpt lat="43.663333" lon="7.147062">
        <ele>23.940462</ele>
        <time>2022-07-28T03:40:05.280Z</time>
      </trkpt>
      <trkpt lat="43.663350" lon="7.146930">
        <ele>23.636018</ele>
        <time>2022-07-28T03:40:07.789Z</time>
      </trkpt>
      <trkpt lat="43.663220" lon="7.147655">
        <ele>21.939952</ele>
        <time>2022-07-28T03:40:21.769Z</time>
      </trkpt>
      <trkpt lat="43.663090" lon="7.148380">
        <ele>20.243882</ele>
        <time>2022-07-28T03:40:35.746Z</time>
      </trkpt>
      <trkpt lat="43.662800" lon="7.148930">
        <ele>18.759538</ele>
        <time>2022-07-28T03:40:48.482Z</time>
      </trkpt>
      <trkpt lat="43.662510" lon="7.149480">
        <ele>17.602310</ele>
        <time>2022-07-28T03:41:01.218Z</time>
      </trkpt>
      <trkpt lat="43.663177" lon="7.149821">
        <ele>15.930795</ele>
        <time>2022-07-28T03:41:19.602Z</time>
      </trkpt>
      <trkpt lat="43.663843" lon="7.150162">
        <ele>14.574321</ele>
        <time>2022-07-28T03:41:37.984Z</time>
      </trkpt>
      <trkpt lat="43.664510" lon="7.150503">
        <ele>14.058291</ele>
        <time>2022-07-28T03:41:56.364Z</time>
      </trkpt>
      <trkpt lat="43.664711" lon="7.151625">
        <ele>13.451550</ele>
        <time>2022-07-28T03:42:17.981Z</time>
      </trkpt>
      <trkpt lat="43.664912" lon="7.152746">
        <ele>15.462461</ele>
        <time>2022-07-28T03:42:39.600Z</time>
      </trkpt>
      <trkpt lat="43.665113" lon="7.153868">
        <ele>17.673314</ele>
        <time>2022-07-28T03:43:01.227Z</time>
      </trkpt>
      <trkpt lat="43.665314" lon="7.154990">
        <ele>21.394929</ele>
        <time>2022-07-28T03:43:22.870Z</time>
      </trkpt>
      <trkpt lat="43.665515" lon="7.156112">
        <ele>25.548167</ele>
        <time>2022-07-28T03:43:44.509Z</time>
      </trkpt>
      <trkpt lat="43.665528" lon="7.156243">
        <ele>26.023270</ele>
        <time>2022-07-28T03:43:49.254Z</time>
      </trkpt>
      <trkpt lat="43.665959" lon="7.157380">
        <ele>30.160466</ele>
        <time>2022-07-28T03:44:26.190Z</time>
      </trkpt>
      <trkpt lat="43.666160" lon="7.157691">
        <ele>31.457677</ele>
        <time>2022-07-28T03:44:38.137Z</time>
      </trkpt>
      <trkpt lat="43.667033" lon="7.158706">
        <ele>36.213281</ele>
        <time>2022-07-28T03:45:21.827Z</time>
      </trkpt>
      <trkpt lat="43.667289" lon="7.159004">
        <ele>37.511874</ele>
        <time>2022-07-28T03:45:35.216Z</time>
      </trkpt>
      <trkpt lat="43.668000" lon="7.160002">
        <ele>41.443525</ele>
        <time>2022-07-28T03:46:13.857Z</time>
      </trkpt>
      <trkpt lat="43.668094" lon="7.160176">
        <ele>41.797441</ele>
        <time>2022-07-28T03:46:19.469Z</time>
      </trkpt>
      <trkpt lat="43.668405" lon="7.160727">
        <ele>41.681073</ele>
        <time>2022-07-28T03:46:36.869Z</time>
      </trkpt>
      <trkpt lat="43.668603" lon="7.161057">
        <ele>41.609685</ele>
        <time>2022-07-28T03:46:44.770Z</time>
      </trkpt>
      <trkpt lat="43.669333" lon="7.162230">
        <ele>40.697680</ele>
        <time>2022-07-28T03:47:03.562Z</time>
      </trkpt>
      <trkpt lat="43.669411" lon="7.162349">
        <ele>40.288056</ele>
        <time>2022-07-28T03:47:05.383Z</time>
      </trkpt>
      <trkpt lat="43.669902" lon="7.162897">
        <ele>38.062806</ele>
        <time>2022-07-28T03:47:15.129Z</time>
      </trkpt>
      <trkpt lat="43.670747" lon="7.163511">
        <ele>35.041137</ele>
        <time>2022-07-28T03:47:30.373Z</time>
      </trkpt>
      <trkpt lat="43.670779" lon="7.163601">
        <ele>35.031192</ele>
        <time>2022-07-28T03:47:31.515Z</time>
      </trkpt>
      <trkpt lat="43.670842" lon="7.163724">
        <ele>35.016246</ele>
        <time>2022-07-28T03:47:33.300Z</time>
      </trkpt>
      <trkpt lat="43.670965" lon="7.163789">
        <ele>34.998193</ele>
        <time>2022-07-28T03:47:35.732Z</time>
      </trkpt>
      <trkpt lat="43.671130" lon="7.163713">
        <ele>34.974350</ele>
        <time>2022-07-28T03:47:38.841Z</time>
      </trkpt>
      <trkpt lat="43.671251" lon="7.163731">
        <ele>34.957665</ele>
        <time>2022-07-28T03:47:41.901Z</time>
      </trkpt>
      <trkpt lat="43.671924" lon="7.164322">
        <ele>34.848360</ele>
        <time>2022-07-28T03:48:04.464Z</time>
      </trkpt>
      <trkpt lat="43.672079" lon="7.164209">
        <ele>34.824336</ele>
        <time>2022-07-28T03:48:09.053Z</time>
      </trkpt>
      <trkpt lat="43.672460" lon="7.164126">
        <ele>34.777455</ele>
        <time>2022-07-28T03:48:20.017Z</time>
      </trkpt>
      <trkpt lat="43.672837" lon="7.164189">
        <ele>34.733826</ele>
        <time>2022-07-28T03:48:30.079Z</time>
      </trkpt>
      <trkpt lat="43.673038" lon="7.164147">
        <ele>34.710471</ele>
        <time>2022-07-28T03:48:34.775Z</time>
      </trkpt>
      <trkpt lat="43.673042" lon="7.164142">
        <ele>34.709852</ele>
        <time>2022-07-28T03:48:35.097Z</time>
      </trkpt>
      <trkpt lat="43.673038" lon="7.164147">
        <ele>34.709232</ele>
        <time>2022-07-28T03:48:35.177Z</time>
      </trkpt>
      <trkpt lat="43.672837" lon="7.164189">
        <ele>34.685877</ele>
        <time>2022-07-28T03:48:39.911Z</time>
      </trkpt>
      <trkpt lat="43.672460" lon="7.164126">
        <ele>34.642248</ele>
        <time>2022-07-28T03:48:47.898Z</time>
      </trkpt>
      <trkpt lat="43.672079" lon="7.164209">
        <ele>34.526417</ele>
        <time>2022-07-28T03:48:55.867Z</time>
      </trkpt>
      <trkpt lat="43.671924" lon="7.164322">
        <ele>34.137624</ele>
        <time>2022-07-28T03:48:59.282Z</time>
      </trkpt>
      <trkpt lat="43.671251" lon="7.163731">
        <ele>32.368636</ele>
        <time>2022-07-28T03:49:12.214Z</time>
      </trkpt>
      <trkpt lat="43.671316" lon="7.163590">
        <ele>32.100300</ele>
        <time>2022-07-28T03:49:14.224Z</time>
      </trkpt>
      <trkpt lat="43.671260" lon="7.163453">
        <ele>31.847754</ele>
        <time>2022-07-28T03:49:16.333Z</time>
      </trkpt>
      <trkpt lat="43.671148" lon="7.163449">
        <ele>31.599170</ele>
        <time>2022-07-28T03:49:18.205Z</time>
      </trkpt>
      <trkpt lat="43.671091" lon="7.163553">
        <ele>31.389761</ele>
        <time>2022-07-28T03:49:19.863Z</time>
      </trkpt>
      <trkpt lat="43.670988" lon="7.163614">
        <ele>31.141143</ele>
        <time>2022-07-28T03:49:21.955Z</time>
      </trkpt>
      <trkpt lat="43.670842" lon="7.163724">
        <ele>30.772224</ele>
        <time>2022-07-28T03:49:24.843Z</time>
      </trkpt>
      <trkpt lat="43.670672" lon="7.163945">
        <ele>30.386238</ele>
        <time>2022-07-28T03:49:29.191Z</time>
      </trkpt>
      <trkpt lat="43.670593" lon="7.164006">
        <ele>30.259655</ele>
        <time>2022-07-28T03:49:30.748Z</time>
      </trkpt>
      <trkpt lat="43.670468" lon="7.164129">
        <ele>30.045019</ele>
        <time>2022-07-28T03:49:33.563Z</time>
      </trkpt>
      <trkpt lat="43.670261" lon="7.164391">
        <ele>29.652415</ele>
        <time>2022-07-28T03:49:38.766Z</time>
      </trkpt>
      <trkpt lat="43.669669" lon="7.165235">
        <ele>28.462786</ele>
        <time>2022-07-28T03:49:54.517Z</time>
      </trkpt>
      <trkpt lat="43.669162" lon="7.165687">
        <ele>27.682691</ele>
        <time>2022-07-28T03:50:06.245Z</time>
      </trkpt>
      <trkpt lat="43.669119" lon="7.165725">
        <ele>27.620871</ele>
        <time>2022-07-28T03:50:07.320Z</time>
      </trkpt>
      <trkpt lat="43.668981" lon="7.165858">
        <ele>27.417098</ele>
        <time>2022-07-28T03:50:10.561Z</time>
      </trkpt>
      <trkpt lat="43.668726" lon="7.166135">
        <ele>27.024265</ele>
        <time>2022-07-28T03:50:16.828Z</time>
      </trkpt>
      <trkpt lat="43.668400" lon="7.166819">
        <ele>26.306541</ele>
        <time>2022-07-28T03:50:28.031Z</time>
      </trkpt>
      <trkpt lat="43.668178" lon="7.167033">
        <ele>25.978709</ele>
        <time>2022-07-28T03:50:32.952Z</time>
      </trkpt>
      <trkpt lat="43.667180" lon="7.167715">
        <ele>23.955106</ele>
        <time>2022-07-28T03:50:52.882Z</time>
      </trkpt>
      <trkpt lat="43.666988" lon="7.167952">
        <ele>23.479640</ele>
        <time>2022-07-28T03:50:57.406Z</time>
      </trkpt>
      <trkpt lat="43.666721" lon="7.168493">
        <ele>22.604539</ele>
        <time>2022-07-28T03:51:05.874Z</time>
      </trkpt>
      <trkpt lat="43.666185" lon="7.169500">
        <ele>20.610961</ele>
        <time>2022-07-28T03:51:21.364Z</time>
      </trkpt>
      <trkpt lat="43.665773" lon="7.170049">
        <ele>19.348216</ele>
        <time>2022-07-28T03:51:31.168Z</time>
      </trkpt>
      <trkpt lat="43.665689" lon="7.170132">
        <ele>19.120375</ele>
        <time>2022-07-28T03:51:32.953Z</time>
      </trkpt>
      <trkpt lat="43.665509" lon="7.170306">
        <ele>18.635697</ele>
        <time>2022-07-28T03:51:36.873Z</time>
      </trkpt>
      <trkpt lat="43.665432" lon="7.170392">
        <ele>18.444667</ele>
        <time>2022-07-28T03:51:38.572Z</time>
      </trkpt>
      <trkpt lat="43.665290" lon="7.170548">
        <ele>18.097297</ele>
        <time>2022-07-28T03:51:41.833Z</time>
      </trkpt>
      <trkpt lat="43.664993" lon="7.171076">
        <ele>17.170685</ele>
        <time>2022-07-28T03:51:50.298Z</time>
      </trkpt>
      <trkpt lat="43.664926" lon="7.171200">
        <ele>16.956264</ele>
        <time>2022-07-28T03:51:52.221Z</time>
      </trkpt>
      <trkpt lat="43.664733" lon="7.171486">
        <ele>16.414400</ele>
        <time>2022-07-28T03:51:57.149Z</time>
      </trkpt>
      <trkpt lat="43.664560" lon="7.171640">
        <ele>16.020327</ele>
        <time>2022-07-28T03:52:00.797Z</time>
      </trkpt>
      <trkpt lat="43.664251" lon="7.171729">
        <ele>15.415837</ele>
        <time>2022-07-28T03:52:06.458Z</time>
      </trkpt>
      <trkpt lat="43.663927" lon="7.171787">
        <ele>14.914779</ele>
        <time>2022-07-28T03:52:12.512Z</time>
      </trkpt>
      <trkpt lat="43.663714" lon="7.171918">
        <ele>14.611009</ele>
        <time>2022-07-28T03:52:16.852Z</time>
      </trkpt>
      <trkpt lat="43.663592" lon="7.172005">
        <ele>14.432136</ele>
        <time>2022-07-28T03:52:19.448Z</time>
      </trkpt>
      <trkpt lat="43.663483" lon="7.172080">
        <ele>14.273487</ele>
        <time>2022-07-28T03:52:21.732Z</time>
      </trkpt>
      <trkpt lat="43.663077" lon="7.172311">
        <ele>13.701408</ele>
        <time>2022-07-28T03:52:29.934Z</time>
      </trkpt>
      <trkpt lat="43.662134" lon="7.172668">
        <ele>12.622210</ele>
        <time>2022-07-28T03:52:48.430Z</time>
      </trkpt>
      <trkpt lat="43.661880" lon="7.172757">
        <ele>12.443383</ele>
        <time>2022-07-28T03:52:53.555Z</time>
      </trkpt>
      <trkpt lat="43.661851" lon="7.172767">
        <ele>12.422985</ele>
        <time>2022-07-28T03:52:54.128Z</time>
      </trkpt>
      <trkpt lat="43.661182" lon="7.172996">
        <ele>11.952631</ele>
        <time>2022-07-28T03:53:07.975Z</time>
      </trkpt>
      <trkpt lat="43.660437" lon="7.173277">
        <ele>11.634440</ele>
        <time>2022-07-28T03:53:24.343Z</time>
      </trkpt>
      <trkpt lat="43.660371" lon="7.173312">
        <ele>11.641154</ele>
        <time>2022-07-28T03:53:25.880Z</time>
      </trkpt>
      <trkpt lat="43.660253" lon="7.173356">
        <ele>11.652761</ele>
        <time>2022-07-28T03:53:28.558Z</time>
      </trkpt>
      <trkpt lat="43.660192" lon="7.173379">
        <ele>11.658766</ele>
        <time>2022-07-28T03:53:29.933Z</time>
      </trkpt>
      <trkpt lat="43.660278" lon="7.173929">
        <ele>11.697429</ele>
        <time>2022-07-28T03:53:38.929Z</time>
      </trkpt>
      <trkpt lat="43.660292" lon="7.174012">
        <ele>11.703284</ele>
        <time>2022-07-28T03:53:40.273Z</time>
      </trkpt>
      <trkpt lat="43.660316" lon="7.174154">
        <ele>11.713304</ele>
        <time>2022-07-28T03:53:42.636Z</time>
      </trkpt>
      <trkpt lat="43.660390" lon="7.174933">
        <ele>11.767287</ele>
        <time>2022-07-28T03:53:56.027Z</time>
      </trkpt>
      <trkpt lat="43.660436" lon="7.175493">
        <ele>11.799606</ele>
        <time>2022-07-28T03:54:06.360Z</time>
      </trkpt>
      <trkpt lat="43.660453" lon="7.175701">
        <ele>11.810480</ele>
        <time>2022-07-28T03:54:10.268Z</time>
      </trkpt>
      <trkpt lat="43.660485" lon="7.176046">
        <ele>11.828549</ele>
        <time>2022-07-28T03:54:16.289Z</time>
      </trkpt>
      <trkpt lat="43.660506" lon="7.176506">
        <ele>11.852493</ele>
        <time>2022-07-28T03:54:23.880Z</time>
      </trkpt>
      <trkpt lat="43.660514" lon="7.176599">
        <ele>11.857359</ele>
        <time>2022-07-28T03:54:25.435Z</time>
      </trkpt>
      <trkpt lat="43.660619" lon="7.177647">
        <ele>11.873157</ele>
        <time>2022-07-28T03:54:41.516Z</time>
      </trkpt>
      <trkpt lat="43.660611" lon="7.178384">
        <ele>11.471811</ele>
        <time>2022-07-28T03:54:52.195Z</time>
      </trkpt>
      <trkpt lat="43.660286" lon="7.179797">
        <ele>10.664471</ele>
        <time>2022-07-28T03:55:13.233Z</time>
      </trkpt>
      <trkpt lat="43.660272" lon="7.179911">
        <ele>10.601509</ele>
        <time>2022-07-28T03:55:14.851Z</time>
      </trkpt>
      <trkpt lat="43.660259" lon="7.180027">
        <ele>10.533648</ele>
        <time>2022-07-28T03:55:16.502Z</time>
      </trkpt>
      <trkpt lat="43.660255" lon="7.180196">
        <ele>10.420881</ele>
        <time>2022-07-28T03:55:18.869Z</time>
      </trkpt>
      <trkpt lat="43.660283" lon="7.180656">
        <ele>10.113023</ele>
        <time>2022-07-28T03:55:25.473Z</time>
      </trkpt>
      <trkpt lat="43.660311" lon="7.180961">
        <ele>9.907987</ele>
        <time>2022-07-28T03:55:29.901Z</time>
      </trkpt>
      <trkpt lat="43.660368" lon="7.181824">
        <ele>9.330058</ele>
        <time>2022-07-28T03:55:42.031Z</time>
      </trkpt>
      <trkpt lat="43.660333" lon="7.182225">
        <ele>9.060692</ele>
        <time>2022-07-28T03:55:47.671Z</time>
      </trkpt>
      <trkpt lat="43.660167" lon="7.182894">
        <ele>8.457609</ele>
        <time>2022-07-28T03:55:57.506Z</time>
      </trkpt>
      <trkpt lat="43.660046" lon="7.183547">
        <ele>7.816294</ele>
        <time>2022-07-28T03:56:06.940Z</time>
      </trkpt>
      <trkpt lat="43.659324" lon="7.183720">
        <ele>6.852644</ele>
        <time>2022-07-28T03:56:25.885Z</time>
      </trkpt>
      <trkpt lat="43.658603" lon="7.183892">
        <ele>6.042225</ele>
        <time>2022-07-28T03:56:44.830Z</time>
      </trkpt>
      <trkpt lat="43.657881" lon="7.184064">
        <ele>5.306773</ele>
        <time>2022-07-28T03:57:03.773Z</time>
      </trkpt>
      <trkpt lat="43.658122" lon="7.185242">
        <ele>4.886837</ele>
        <time>2022-07-28T03:57:26.663Z</time>
      </trkpt>
      <trkpt lat="43.658363" lon="7.186419">
        <ele>5.349501</ele>
        <time>2022-07-28T03:57:49.554Z</time>
      </trkpt>
      <trkpt lat="43.658604" lon="7.187596">
        <ele>5.938665</ele>
        <time>2022-07-28T03:58:12.446Z</time>
      </trkpt>
      <trkpt lat="43.658845" lon="7.188774">
        <ele>6.803844</ele>
        <time>2022-07-28T03:58:35.336Z</time>
      </trkpt>
      <trkpt lat="43.659086" lon="7.189951">
        <ele>7.477519</ele>
        <time>2022-07-28T03:58:58.227Z</time>
      </trkpt>
      <trkpt lat="43.659137" lon="7.190151">
        <ele>7.510555</ele>
        <time>2022-07-28T03:59:04.408Z</time>
      </trkpt>
      <trkpt lat="43.659648" lon="7.191405">
        <ele>7.734770</ele>
        <time>2022-07-28T03:59:42.391Z</time>
      </trkpt>
      <trkpt lat="43.660965" lon="7.193511">
        <ele>8.380616</ele>
        <time>2022-07-28T04:01:00.632Z</time>
      </trkpt>
      <trkpt lat="43.660995" lon="7.193626">
        <ele>8.410961</ele>
        <time>2022-07-28T04:01:03.923Z</time>
      </trkpt>
      <trkpt lat="43.661219" lon="7.193989">
        <ele>8.416159</ele>
        <time>2022-07-28T04:01:16.717Z</time>
      </trkpt>
      <trkpt lat="43.661245" lon="7.193952">
        <ele>8.414661</ele>
        <time>2022-07-28T04:01:17.851Z</time>
      </trkpt>
      <trkpt lat="43.661435" lon="7.194179">
        <ele>8.404574</ele>
        <time>2022-07-28T04:01:23.381Z</time>
      </trkpt>
      <trkpt lat="43.662051" lon="7.195179">
        <ele>8.366412</ele>
        <time>2022-07-28T04:01:44.345Z</time>
      </trkpt>
      <trkpt lat="43.662709" lon="7.196276">
        <ele>8.342133</ele>
        <time>2022-07-28T04:02:06.037Z</time>
      </trkpt>
      <trkpt lat="43.662867" lon="7.196642">
        <ele>8.336640</ele>
        <time>2022-07-28T04:02:12.800Z</time>
      </trkpt>
      <trkpt lat="43.663166" lon="7.197334">
        <ele>8.326252</ele>
        <time>2022-07-28T04:02:26.347Z</time>
      </trkpt>
      <trkpt lat="43.663196" lon="7.197408">
        <ele>8.325159</ele>
        <time>2022-07-28T04:02:27.724Z</time>
      </trkpt>
      <trkpt lat="43.664195" lon="7.199981">
        <ele>8.826181</ele>
        <time>2022-07-28T04:04:54.461Z</time>
      </trkpt>
      <trkpt lat="43.664722" lon="7.201394">
        <ele>8.856919</ele>
        <time>2022-07-28T04:06:14.425Z</time>
      </trkpt>
      <trkpt lat="43.664737" lon="7.201433">
        <ele>8.857773</ele>
        <time>2022-07-28T04:06:16.645Z</time>
      </trkpt>
      <trkpt lat="43.665023" lon="7.202218">
        <ele>8.736145</ele>
        <time>2022-07-28T04:07:00.840Z</time>
      </trkpt>
      <trkpt lat="43.665216" lon="7.202976">
        <ele>8.433698</ele>
        <time>2022-07-28T04:07:41.241Z</time>
      </trkpt>
      <trkpt lat="43.665255" lon="7.203228">
        <ele>8.336706</ele>
        <time>2022-07-28T04:07:54.198Z</time>
      </trkpt>
      <trkpt lat="43.665446" lon="7.204442">
        <ele>7.901077</ele>
        <time>2022-07-28T04:08:56.648Z</time>
      </trkpt>
      <trkpt lat="43.665586" lon="7.205578">
        <ele>7.687217</ele>
        <time>2022-07-28T04:09:54.566Z</time>
      </trkpt>
      <trkpt lat="43.666037" lon="7.209477">
        <ele>7.384096</ele>
        <time>2022-07-28T04:13:13.059Z</time>
      </trkpt>
      <trkpt lat="43.666235" lon="7.211145">
        <ele>7.285290</ele>
        <time>2022-07-28T04:14:38.046Z</time>
      </trkpt>
      <trkpt lat="43.666168" lon="7.211158">
        <ele>7.279823</ele>
        <time>2022-07-28T04:14:39.670Z</time>
      </trkpt>
      <trkpt lat="43.666181" lon="7.211263">
        <ele>7.273596</ele>
        <time>2022-07-28T04:14:41.251Z</time>
      </trkpt>
      <trkpt lat="43.666219" lon="7.211561">
        <ele>7.255727</ele>
        <time>2022-07-28T04:14:46.060Z</time>
      </trkpt>
      <trkpt lat="43.666644" lon="7.215192">
        <ele>6.081702</ele>
        <time>2022-07-28T04:15:42.997Z</time>
      </trkpt>
      <trkpt lat="43.666620" lon="7.215333">
        <ele>5.983127</ele>
        <time>2022-07-28T04:15:44.902Z</time>
      </trkpt>
      <trkpt lat="43.666867" lon="7.216515">
        <ele>5.151194</ele>
        <time>2022-07-28T04:16:01.127Z</time>
      </trkpt>
      <trkpt lat="43.666955" lon="7.217028">
        <ele>4.826523</ele>
        <time>2022-07-28T04:16:27.676Z</time>
      </trkpt>
      <trkpt lat="43.667097" lon="7.217670">
        <ele>4.413105</ele>
        <time>2022-07-28T04:17:01.380Z</time>
      </trkpt>
      <trkpt lat="43.667417" lon="7.218691">
        <ele>3.727888</ele>
        <time>2022-07-28T04:17:57.338Z</time>
      </trkpt>
      <trkpt lat="43.667726" lon="7.219424">
        <ele>3.999322</ele>
        <time>2022-07-28T04:18:39.970Z</time>
      </trkpt>
      <trkpt lat="43.668010" lon="7.219975">
        <ele>4.293421</ele>
        <time>2022-07-28T04:19:14.016Z</time>
      </trkpt>
      <trkpt lat="43.668163" lon="7.220129">
        <ele>4.407152</ele>
        <time>2022-07-28T04:19:27.106Z</time>
      </trkpt>
      <trkpt lat="43.668610" lon="7.220785">
        <ele>4.784816</ele>
        <time>2022-07-28T04:20:12.453Z</time>
      </trkpt>
      <trkpt lat="43.668758" lon="7.220792">
        <ele>4.847253</ele>
        <time>2022-07-28T04:20:22.739Z</time>
      </trkpt>
      <trkpt lat="43.668858" lon="7.220728">
        <ele>4.893715</ele>
        <time>2022-07-28T04:20:25.481Z</time>
      </trkpt>
      <trkpt lat="43.668907" lon="7.220808">
        <ele>4.925685</ele>
        <time>2022-07-28T04:20:27.350Z</time>
      </trkpt>
      <trkpt lat="43.668862" lon="7.220924">
        <ele>4.965830</ele>
        <time>2022-07-28T04:20:29.778Z</time>
      </trkpt>
      <trkpt lat="43.668806" lon="7.221000">
        <ele>4.998917</ele>
        <time>2022-07-28T04:20:32.842Z</time>
      </trkpt>
      <trkpt lat="43.668829" lon="7.221091">
        <ele>5.028315</ele>
        <time>2022-07-28T04:20:35.570Z</time>
      </trkpt>
      <trkpt lat="43.668779" lon="7.221159">
        <ele>5.057888</ele>
        <time>2022-07-28T04:20:38.300Z</time>
      </trkpt>
      <trkpt lat="43.668700" lon="7.221272">
        <ele>5.105816</ele>
        <time>2022-07-28T04:20:42.766Z</time>
      </trkpt>
      <trkpt lat="43.671330" lon="7.224873">
        <ele>6.353973</ele>
        <time>2022-07-28T04:22:10.138Z</time>
      </trkpt>
      <trkpt lat="43.671705" lon="7.225396">
        <ele>6.402248</ele>
        <time>2022-07-28T04:22:21.942Z</time>
      </trkpt>
      <trkpt lat="43.672291" lon="7.226028">
        <ele>6.237644</ele>
        <time>2022-07-28T04:22:37.801Z</time>
      </trkpt>
      <trkpt lat="43.672992" lon="7.226631">
        <ele>5.857997</ele>
        <time>2022-07-28T04:22:54.726Z</time>
      </trkpt>
      <trkpt lat="43.673973" lon="7.227322">
        <ele>5.525512</ele>
        <time>2022-07-28T04:23:17.078Z</time>
      </trkpt>
      <trkpt lat="43.673998" lon="7.227509">
        <ele>5.505778</ele>
        <time>2022-07-28T04:23:19.780Z</time>
      </trkpt>
      <trkpt lat="43.674689" lon="7.227972">
        <ele>5.395608</ele>
        <time>2022-07-28T04:23:36.816Z</time>
      </trkpt>
      <trkpt lat="43.675374" lon="7.228333">
        <ele>5.488121</ele>
        <time>2022-07-28T04:23:54.123Z</time>
      </trkpt>
      <trkpt lat="43.675456" lon="7.228428">
        <ele>5.527116</ele>
        <time>2022-07-28T04:23:56.834Z</time>
      </trkpt>
      <trkpt lat="43.675817" lon="7.228615">
        <ele>5.667633</ele>
        <time>2022-07-28T04:24:06.168Z</time>
      </trkpt>
      <trkpt lat="43.675891" lon="7.228658">
        <ele>5.696891</ele>
        <time>2022-07-28T04:24:08.051Z</time>
      </trkpt>
      <trkpt lat="43.676142" lon="7.228804">
        <ele>5.796147</ele>
        <time>2022-07-28T04:24:14.748Z</time>
      </trkpt>
      <trkpt lat="43.676229" lon="7.228967">
        <ele>5.849552</ele>
        <time>2022-07-28T04:24:18.284Z</time>
      </trkpt>
      <trkpt lat="43.676921" lon="7.229335">
        <ele>5.849543</ele>
        <time>2022-07-28T04:24:35.659Z</time>
      </trkpt>
      <trkpt lat="43.676956" lon="7.229304">
        <ele>5.829972</ele>
        <time>2022-07-28T04:24:36.551Z</time>
      </trkpt>
      <trkpt lat="43.677147" lon="7.229118">
        <ele>5.719975</ele>
        <time>2022-07-28T04:24:41.603Z</time>
      </trkpt>
      <trkpt lat="43.677391" lon="7.229127">
        <ele>5.605050</ele>
        <time>2022-07-28T04:24:46.712Z</time>
      </trkpt>
      <trkpt lat="43.677708" lon="7.229337">
        <ele>5.439547</ele>
        <time>2022-07-28T04:24:53.582Z</time>
      </trkpt>
      <trkpt lat="43.679291" lon="7.230456">
        <ele>4.519475</ele>
        <time>2022-07-28T04:25:28.339Z</time>
      </trkpt>
      <trkpt lat="43.680294" lon="7.231226">
        <ele>4.260553</ele>
        <time>2022-07-28T04:25:54.029Z</time>
      </trkpt>
      <trkpt lat="43.681011" lon="7.231864">
        <ele>4.390544</ele>
        <time>2022-07-28T04:26:13.693Z</time>
      </trkpt>
      <trkpt lat="43.681062" lon="7.231774">
        <ele>4.403151</ele>
        <time>2022-07-28T04:26:19.435Z</time>
      </trkpt>
      <trkpt lat="43.681239" lon="7.231959">
        <ele>4.436978</ele>
        <time>2022-07-28T04:26:24.578Z</time>
      </trkpt>
      <trkpt lat="43.681858" lon="7.232624">
        <ele>4.531203</ele>
        <time>2022-07-28T04:26:42.640Z</time>
      </trkpt>
      <trkpt lat="43.681895" lon="7.232666">
        <ele>4.536680</ele>
        <time>2022-07-28T04:26:43.792Z</time>
      </trkpt>
      <trkpt lat="43.681844" lon="7.232756">
        <ele>4.546141</ele>
        <time>2022-07-28T04:26:49.567Z</time>
      </trkpt>
      <trkpt lat="43.682903" lon="7.233924">
        <ele>4.617594</ele>
        <time>2022-07-28T04:27:20.350Z</time>
      </trkpt>
      <trkpt lat="43.683840" lon="7.234965">
        <ele>4.469110</ele>
        <time>2022-07-28T04:27:46.507Z</time>
      </trkpt>
      <trkpt lat="43.685008" lon="7.236246">
        <ele>4.510539</ele>
        <time>2022-07-28T04:28:17.186Z</time>
      </trkpt>
      <trkpt lat="43.685662" lon="7.236982">
        <ele>4.825855</ele>
        <time>2022-07-28T04:28:39.486Z</time>
      </trkpt>
      <trkpt lat="43.686566" lon="7.238098">
        <ele>6.011396</ele>
        <time>2022-07-28T04:29:11.952Z</time>
      </trkpt>
      <trkpt lat="43.686626" lon="7.238020">
        <ele>6.091960</ele>
        <time>2022-07-28T04:29:17.690Z</time>
      </trkpt>
      <trkpt lat="43.686848" lon="7.238316">
        <ele>6.359211</ele>
        <time>2022-07-28T04:29:25.045Z</time>
      </trkpt>
      <trkpt lat="43.687207" lon="7.238866">
        <ele>6.686191</ele>
        <time>2022-07-28T04:29:38.478Z</time>
      </trkpt>
      <trkpt lat="43.687659" lon="7.239589">
        <ele>7.107970</ele>
        <time>2022-07-28T04:29:55.094Z</time>
      </trkpt>
      <trkpt lat="43.687589" lon="7.239669">
        <ele>7.163391</ele>
        <time>2022-07-28T04:30:01.386Z</time>
      </trkpt>
      <trkpt lat="43.688513" lon="7.241327">
        <ele>8.271330</ele>
        <time>2022-07-28T04:30:40.068Z</time>
      </trkpt>
      <trkpt lat="43.688584" lon="7.241251">
        <ele>8.340804</ele>
        <time>2022-07-28T04:30:46.358Z</time>
      </trkpt>
      <trkpt lat="43.688910" lon="7.241862">
        <ele>8.765674</ele>
        <time>2022-07-28T04:31:00.062Z</time>
      </trkpt>
      <trkpt lat="43.689654" lon="7.243260">
        <ele>8.283166</ele>
        <time>2022-07-28T04:31:27.603Z</time>
      </trkpt>
      <trkpt lat="43.689591" lon="7.243321">
        <ele>8.251162</ele>
        <time>2022-07-28T04:31:32.945Z</time>
      </trkpt>
      <trkpt lat="43.690394" lon="7.245290">
        <ele>6.462784</ele>
        <time>2022-07-28T04:32:03.392Z</time>
      </trkpt>
      <trkpt lat="43.690459" lon="7.245239">
        <ele>6.358691</ele>
        <time>2022-07-28T04:32:08.596Z</time>
      </trkpt>
      <trkpt lat="43.690394" lon="7.245290">
        <ele>6.254599</ele>
        <time>2022-07-28T04:32:13.799Z</time>
      </trkpt>
      <trkpt lat="43.690670" lon="7.246052">
        <ele>5.418513</ele>
        <time>2022-07-28T04:32:25.002Z</time>
      </trkpt>
      <trkpt lat="43.691148" lon="7.247444">
        <ele>4.110703</ele>
        <time>2022-07-28T04:32:45.109Z</time>
      </trkpt>
      <trkpt lat="43.691575" lon="7.248674">
        <ele>3.556162</ele>
        <time>2022-07-28T04:33:06.018Z</time>
      </trkpt>
      <trkpt lat="43.692161" lon="7.250420">
        <ele>4.002357</ele>
        <time>2022-07-28T04:33:40.229Z</time>
      </trkpt>
      <trkpt lat="43.692236" lon="7.250369">
        <ele>4.000226</ele>
        <time>2022-07-28T04:33:46.013Z</time>
      </trkpt>
      <trkpt lat="43.692582" lon="7.251364">
        <ele>3.969619</ele>
        <time>2022-07-28T04:34:03.861Z</time>
      </trkpt>
      <trkpt lat="43.692626" lon="7.251496">
        <ele>3.965589</ele>
        <time>2022-07-28T04:34:05.901Z</time>
      </trkpt>
      <trkpt lat="43.692725" lon="7.251654">
        <ele>3.959794</ele>
        <time>2022-07-28T04:34:08.950Z</time>
      </trkpt>
      <trkpt lat="43.692812" lon="7.251670">
        <ele>3.956429</ele>
        <time>2022-07-28T04:34:10.904Z</time>
      </trkpt>
      <trkpt lat="43.692881" lon="7.251654">
        <ele>3.953746</ele>
        <time>2022-07-28T04:34:12.275Z</time>
      </trkpt>
      <trkpt lat="43.692910" lon="7.251749">
        <ele>3.950888</ele>
        <time>2022-07-28T04:34:17.473Z</time>
      </trkpt>
      <trkpt lat="43.692846" lon="7.251786">
        <ele>3.948228</ele>
        <time>2022-07-28T04:34:22.316Z</time>
      </trkpt>
      <trkpt lat="43.692786" lon="7.251819">
        <ele>3.945752</ele>
        <time>2022-07-28T04:34:26.829Z</time>
      </trkpt>
      <trkpt lat="43.692816" lon="7.251936">
        <ele>3.942311</ele>
        <time>2022-07-28T04:34:33.041Z</time>
      </trkpt>
      <trkpt lat="43.692770" lon="7.251957">
        <ele>3.940454</ele>
        <time>2022-07-28T04:34:36.412Z</time>
      </trkpt>
      <trkpt lat="43.692690" lon="7.252003">
        <ele>3.937132</ele>
        <time>2022-07-28T04:34:42.448Z</time>
      </trkpt>
      <trkpt lat="43.693000" lon="7.253374">
        <ele>3.779477</ele>
        <time>2022-07-28T04:35:06.652Z</time>
      </trkpt>
      <trkpt lat="43.693353" lon="7.254921">
        <ele>3.494830</ele>
        <time>2022-07-28T04:35:30.517Z</time>
      </trkpt>
      <trkpt lat="43.693668" lon="7.256382">
        <ele>3.005313</ele>
        <time>2022-07-28T04:35:54.858Z</time>
      </trkpt>
      <trkpt lat="43.693713" lon="7.256586">
        <ele>2.936832</ele>
        <time>2022-07-28T04:35:57.771Z</time>
      </trkpt>
      <trkpt lat="43.693985" lon="7.257797">
        <ele>2.529195</ele>
        <time>2022-07-28T04:36:15.217Z</time>
      </trkpt>
      <trkpt lat="43.694147" lon="7.258515">
        <ele>2.287332</ele>
        <time>2022-07-28T04:36:26.725Z</time>
      </trkpt>
      <trkpt lat="43.694184" lon="7.258716">
        <ele>2.220636</ele>
        <time>2022-07-28T04:36:30.035Z</time>
      </trkpt>
      <trkpt lat="43.694263" lon="7.259238">
        <ele>2.049142</ele>
        <time>2022-07-28T04:36:38.782Z</time>
      </trkpt>
      <trkpt lat="43.694306" lon="7.259558">
        <ele>2.040168</ele>
        <time>2022-07-28T04:36:44.222Z</time>
      </trkpt>
      <trkpt lat="43.694420" lon="7.260337">
        <ele>2.022216</ele>
        <time>2022-07-28T04:36:57.010Z</time>
      </trkpt>
      <trkpt lat="43.694501" lon="7.260315">
        <ele>2.019637</ele>
        <time>2022-07-28T04:37:02.683Z</time>
      </trkpt>
      <trkpt lat="43.694590" lon="7.260944">
        <ele>2.005161</ele>
        <time>2022-07-28T04:37:12.452Z</time>
      </trkpt>
      <trkpt lat="43.694734" lon="7.261141">
        <ele>1.998834</ele>
        <time>2022-07-28T04:37:17.270Z</time>
      </trkpt>
      <trkpt lat="43.694612" lon="7.260285">
        <ele>2.005364</ele>
        <time>2022-07-28T04:37:31.458Z</time>
      </trkpt>
      <trkpt lat="43.694501" lon="7.260315">
        <ele>2.009503</ele>
        <time>2022-07-28T04:37:39.320Z</time>
      </trkpt>
      <trkpt lat="43.694420" lon="7.260337">
        <ele>2.012524</ele>
        <time>2022-07-28T04:37:44.994Z</time>
      </trkpt>
      <trkpt lat="43.694306" lon="7.259558">
        <ele>2.033555</ele>
        <time>2022-07-28T04:37:58.737Z</time>
      </trkpt>
      <trkpt lat="43.694263" lon="7.259238">
        <ele>2.042168</ele>
        <time>2022-07-28T04:38:03.900Z</time>
      </trkpt>
      <trkpt lat="43.694184" lon="7.258716">
        <ele>2.056280</ele>
        <time>2022-07-28T04:38:11.939Z</time>
      </trkpt>
      <trkpt lat="43.694147" lon="7.258515">
        <ele>2.046359</ele>
        <time>2022-07-28T04:38:14.951Z</time>
      </trkpt>
      <trkpt lat="43.693985" lon="7.257797">
        <ele>2.001471</ele>
        <time>2022-07-28T04:38:26.732Z</time>
      </trkpt>
      <trkpt lat="43.693713" lon="7.256586">
        <ele>1.925790</ele>
        <time>2022-07-28T04:38:47.144Z</time>
      </trkpt>
      <trkpt lat="43.693668" lon="7.256382">
        <ele>1.913062</ele>
        <time>2022-07-28T04:38:50.976Z</time>
      </trkpt>
      <trkpt lat="43.693713" lon="7.256586">
        <ele>1.908860</ele>
        <time>2022-07-28T04:38:54.063Z</time>
      </trkpt>
      <trkpt lat="43.693985" lon="7.257797">
        <ele>1.911500</ele>
        <time>2022-07-28T04:39:14.446Z</time>
      </trkpt>
      <trkpt lat="43.694147" lon="7.258515">
        <ele>1.913066</ele>
        <time>2022-07-28T04:39:26.835Z</time>
      </trkpt>
      <trkpt lat="43.694184" lon="7.258716">
        <ele>1.913498</ele>
        <time>2022-07-28T04:39:30.145Z</time>
      </trkpt>
      <trkpt lat="43.694263" lon="7.259238">
        <ele>1.970496</ele>
        <time>2022-07-28T04:39:38.569Z</time>
      </trkpt>
      <trkpt lat="43.694306" lon="7.259558">
        <ele>2.015388</ele>
        <time>2022-07-28T04:39:43.376Z</time>
      </trkpt>
      <trkpt lat="43.694420" lon="7.260337">
        <ele>2.125012</ele>
        <time>2022-07-28T04:39:56.478Z</time>
      </trkpt>
      <trkpt lat="43.694501" lon="7.260315">
        <ele>2.140758</ele>
        <time>2022-07-28T04:40:02.152Z</time>
      </trkpt>
      <trkpt lat="43.694590" lon="7.260944">
        <ele>2.229159</ele>
        <time>2022-07-28T04:40:13.845Z</time>
      </trkpt>
      <trkpt lat="43.694625" lon="7.261250">
        <ele>2.305384</ele>
        <time>2022-07-28T04:40:19.618Z</time>
      </trkpt>
      <trkpt lat="43.694544" lon="7.261268">
        <ele>2.355914</ele>
        <time>2022-07-28T04:40:25.294Z</time>
      </trkpt>
      <trkpt lat="43.694658" lon="7.262678">
        <ele>2.987759</ele>
        <time>2022-07-28T04:40:48.190Z</time>
      </trkpt>
      <trkpt lat="43.694728" lon="7.263684">
        <ele>3.524525</ele>
        <time>2022-07-28T04:41:08.673Z</time>
      </trkpt>
      <trkpt lat="43.694734" lon="7.263842">
        <ele>3.678503</ele>
        <time>2022-07-28T04:41:11.856Z</time>
      </trkpt>
      <trkpt lat="43.694747" lon="7.264220">
        <ele>4.046791</ele>
        <time>2022-07-28T04:41:19.626Z</time>
      </trkpt>
      <trkpt lat="43.694749" lon="7.264432">
        <ele>4.253129</ele>
        <time>2022-07-28T04:41:23.541Z</time>
      </trkpt>
      <trkpt lat="43.694782" lon="7.265368">
        <ele>5.165132</ele>
        <time>2022-07-28T04:41:40.818Z</time>
      </trkpt>
      <trkpt lat="43.694841" lon="7.266482">
        <ele>6.411772</ele>
        <time>2022-07-28T04:42:04.853Z</time>
      </trkpt>
      <trkpt lat="43.694916" lon="7.266476">
        <ele>6.547484</ele>
        <time>2022-07-28T04:42:07.378Z</time>
      </trkpt>
      <trkpt lat="43.695038" lon="7.266467">
        <ele>6.768188</ele>
        <time>2022-07-28T04:42:11.585Z</time>
      </trkpt>
      <trkpt lat="43.695145" lon="7.266459">
        <ele>6.961763</ele>
        <time>2022-07-28T04:42:15.227Z</time>
      </trkpt>
      <trkpt lat="43.695286" lon="7.266489">
        <ele>7.219473</ele>
        <time>2022-07-28T04:42:19.630Z</time>
      </trkpt>
      <trkpt lat="43.695852" lon="7.266853">
        <ele>8.347068</ele>
        <time>2022-07-28T04:42:38.387Z</time>
      </trkpt>
      <trkpt lat="43.696100" lon="7.267216">
        <ele>8.999371</ele>
        <time>2022-07-28T04:42:48.643Z</time>
      </trkpt>
      <trkpt lat="43.696249" lon="7.267557">
        <ele>9.392995</ele>
        <time>2022-07-28T04:42:56.647Z</time>
      </trkpt>
      <trkpt lat="43.696289" lon="7.267652">
        <ele>9.499038</ele>
        <time>2022-07-28T04:42:58.900Z</time>
      </trkpt>
      <trkpt lat="43.697128" lon="7.269638">
        <ele>11.703876</ele>
        <time>2022-07-28T04:43:46.607Z</time>
      </trkpt>
      <trkpt lat="43.697155" lon="7.269726">
        <ele>11.791564</ele>
        <time>2022-07-28T04:43:48.512Z</time>
      </trkpt>
      <trkpt lat="43.697383" lon="7.270465">
        <ele>12.528571</ele>
        <time>2022-07-28T04:44:04.245Z</time>
      </trkpt>
      <trkpt lat="43.697424" lon="7.270593">
        <ele>12.656989</ele>
        <time>2022-07-28T04:44:07.112Z</time>
      </trkpt>
      <trkpt lat="43.697816" lon="7.271968">
        <ele>14.077434</ele>
        <time>2022-07-28T04:44:36.785Z</time>
      </trkpt>
      <trkpt lat="43.697998" lon="7.272710">
        <ele>14.953077</ele>
        <time>2022-07-28T04:44:53.172Z</time>
      </trkpt>
      <trkpt lat="43.698017" lon="7.272800">
        <ele>15.057857</ele>
        <time>2022-07-28T04:44:55.154Z</time>
      </trkpt>
      <trkpt lat="43.698366" lon="7.274204">
        <ele>16.585750</ele>
        <time>2022-07-28T04:45:25.812Z</time>
      </trkpt>
      <trkpt lat="43.698603" lon="7.275157">
        <ele>17.040865</ele>
        <time>2022-07-28T04:45:45.254Z</time>
      </trkpt>
      <trkpt lat="43.698772" lon="7.275773">
        <ele>17.338399</ele>
        <time>2022-07-28T04:45:56.184Z</time>
      </trkpt>
      <trkpt lat="43.698901" lon="7.276049">
        <ele>17.486815</ele>
        <time>2022-07-28T04:46:01.556Z</time>
      </trkpt>
      <trkpt lat="43.699698" lon="7.276615">
        <ele>17.837787</ele>
        <time>2022-07-28T04:46:24.708Z</time>
      </trkpt>
      <trkpt lat="43.700494" lon="7.277181">
        <ele>18.123190</ele>
        <time>2022-07-28T04:46:47.861Z</time>
      </trkpt>
      <trkpt lat="43.701290" lon="7.277748">
        <ele>19.011179</ele>
        <time>2022-07-28T04:47:11.014Z</time>
      </trkpt>
      <trkpt lat="43.702087" lon="7.278314">
        <ele>20.097579</ele>
        <time>2022-07-28T04:47:34.168Z</time>
      </trkpt>
      <trkpt lat="43.702883" lon="7.278880">
        <ele>22.007311</ele>
        <time>2022-07-28T04:47:57.324Z</time>
      </trkpt>
      <trkpt lat="43.703679" lon="7.279446">
        <ele>24.199893</ele>
        <time>2022-07-28T04:48:20.485Z</time>
      </trkpt>
      <trkpt lat="43.704476" lon="7.280012">
        <ele>24.881850</ele>
        <time>2022-07-28T04:48:43.642Z</time>
      </trkpt>
      <trkpt lat="43.705272" lon="7.280578">
        <ele>25.018726</ele>
        <time>2022-07-28T04:49:06.794Z</time>
      </trkpt>
      <trkpt lat="43.706068" lon="7.281144">
        <ele>23.535023</ele>
        <time>2022-07-28T04:49:29.955Z</time>
      </trkpt>
      <trkpt lat="43.706859" lon="7.281407">
        <ele>21.631162</ele>
        <time>2022-07-28T04:49:50.997Z</time>
      </trkpt>
      <trkpt lat="43.707650" lon="7.281670">
        <ele>20.763236</ele>
        <time>2022-07-28T04:50:12.033Z</time>
      </trkpt>
      <trkpt lat="43.707485" lon="7.282345">
        <ele>20.673147</ele>
        <time>2022-07-28T04:50:25.353Z</time>
      </trkpt>
      <trkpt lat="43.707320" lon="7.283020">
        <ele>20.583057</ele>
        <time>2022-07-28T04:50:38.673Z</time>
      </trkpt>
      <trkpt lat="43.707361" lon="7.283047">
        <ele>20.575115</ele>
        <time>2022-07-28T04:50:39.840Z</time>
      </trkpt>
      <trkpt lat="43.707339" lon="7.283148">
        <ele>20.561778</ele>
        <time>2022-07-28T04:50:45.139Z</time>
      </trkpt>
      <trkpt lat="43.707412" lon="7.283183">
        <ele>20.548265</ele>
        <time>2022-07-28T04:50:46.919Z</time>
      </trkpt>
      <trkpt lat="43.707503" lon="7.283229">
        <ele>20.532856</ele>
        <time>2022-07-28T04:50:49.281Z</time>
      </trkpt>
      <trkpt lat="43.707855" lon="7.283399">
        <ele>20.567341</ele>
        <time>2022-07-28T04:50:58.136Z</time>
      </trkpt>
      <trkpt lat="43.707994" lon="7.283397">
        <ele>20.580198</ele>
        <time>2022-07-28T04:51:01.468Z</time>
      </trkpt>
      <trkpt lat="43.708415" lon="7.283539">
        <ele>20.620279</ele>
        <time>2022-07-28T04:51:11.645Z</time>
      </trkpt>
      <trkpt lat="43.708608" lon="7.283609">
        <ele>20.638734</ele>
        <time>2022-07-28T04:51:16.047Z</time>
      </trkpt>
      <trkpt lat="43.709219" lon="7.283814">
        <ele>20.696887</ele>
        <time>2022-07-28T04:51:29.113Z</time>
      </trkpt>
      <trkpt lat="43.709580" lon="7.283932">
        <ele>20.818408</ele>
        <time>2022-07-28T04:51:37.137Z</time>
      </trkpt>
      <trkpt lat="43.709639" lon="7.283954">
        <ele>20.839223</ele>
        <time>2022-07-28T04:51:38.415Z</time>
      </trkpt>
      <trkpt lat="43.709707" lon="7.283979">
        <ele>20.863191</ele>
        <time>2022-07-28T04:51:39.963Z</time>
      </trkpt>
      <trkpt lat="43.709807" lon="7.284016">
        <ele>20.898452</ele>
        <time>2022-07-28T04:51:42.442Z</time>
      </trkpt>
      <trkpt lat="43.710420" lon="7.284195">
        <ele>21.111865</ele>
        <time>2022-07-28T04:51:57.592Z</time>
      </trkpt>
      <trkpt lat="43.711046" lon="7.284255">
        <ele>21.378643</ele>
        <time>2022-07-28T04:52:12.730Z</time>
      </trkpt>
      <trkpt lat="43.711629" lon="7.284255">
        <ele>22.316826</ele>
        <time>2022-07-28T04:52:28.066Z</time>
      </trkpt>
      <trkpt lat="43.711658" lon="7.284829">
        <ele>22.986130</ele>
        <time>2022-07-28T04:52:40.491Z</time>
      </trkpt>
      <trkpt lat="43.711715" lon="7.284964">
        <ele>23.167988</ele>
        <time>2022-07-28T04:52:43.963Z</time>
      </trkpt>
      <trkpt lat="43.711713" lon="7.284253">
        <ele>23.995027</ele>
        <time>2022-07-28T04:53:00.399Z</time>
      </trkpt>
      <trkpt lat="43.712977" lon="7.283995">
        <ele>25.845159</ele>
        <time>2022-07-28T04:53:37.656Z</time>
      </trkpt>
      <trkpt lat="43.713763" lon="7.283648">
        <ele>26.822223</ele>
        <time>2022-07-28T04:53:59.466Z</time>
      </trkpt>
      <trkpt lat="43.714625" lon="7.283840">
        <ele>27.049323</ele>
        <time>2022-07-28T04:54:22.036Z</time>
      </trkpt>
      <trkpt lat="43.715486" lon="7.284031">
        <ele>27.310182</ele>
        <time>2022-07-28T04:54:44.606Z</time>
      </trkpt>
      <trkpt lat="43.716348" lon="7.284222">
        <ele>27.785850</ele>
        <time>2022-07-28T04:55:07.176Z</time>
      </trkpt>
      <trkpt lat="43.717210" lon="7.284414">
        <ele>28.262882</ele>
        <time>2022-07-28T04:55:29.747Z</time>
      </trkpt>
      <trkpt lat="43.718072" lon="7.284605">
        <ele>28.755514</ele>
        <time>2022-07-28T04:55:52.317Z</time>
      </trkpt>
      <trkpt lat="43.718934" lon="7.284797">
        <ele>29.247730</ele>
        <time>2022-07-28T04:56:14.887Z</time>
      </trkpt>
      <trkpt lat="43.719475" lon="7.285453">
        <ele>29.629743</ele>
        <time>2022-07-28T04:56:33.503Z</time>
      </trkpt>
      <trkpt lat="43.720016" lon="7.286110">
        <ele>30.012008</ele>
        <time>2022-07-28T04:56:52.119Z</time>
      </trkpt>
      <trkpt lat="43.720557" lon="7.286767">
        <ele>30.589703</ele>
        <time>2022-07-28T04:57:10.734Z</time>
      </trkpt>
      <trkpt lat="43.721099" lon="7.287423">
        <ele>31.347602</ele>
        <time>2022-07-28T04:57:29.351Z</time>
      </trkpt>
      <trkpt lat="43.721640" lon="7.288080">
        <ele>32.112014</ele>
        <time>2022-07-28T04:57:47.967Z</time>
      </trkpt>
      <trkpt lat="43.722330" lon="7.288300">
        <ele>33.157456</ele>
        <time>2022-07-28T04:58:06.279Z</time>
      </trkpt>
      <trkpt lat="43.723020" lon="7.288520">
        <ele>34.202897</ele>
        <time>2022-07-28T04:58:24.591Z</time>
      </trkpt>
      <trkpt lat="43.722969" lon="7.288592">
        <ele>34.310469</ele>
        <time>2022-07-28T04:58:26.486Z</time>
      </trkpt>
      <trkpt lat="43.722964" lon="7.288644">
        <ele>34.366443</ele>
        <time>2022-07-28T04:58:27.634Z</time>
      </trkpt>
      <trkpt lat="43.723037" lon="7.288660">
        <ele>34.475567</ele>
        <time>2022-07-28T04:58:29.787Z</time>
      </trkpt>
      <trkpt lat="43.723030" lon="7.288762">
        <ele>34.584892</ele>
        <time>2022-07-28T04:58:31.931Z</time>
      </trkpt>
      <trkpt lat="43.723103" lon="7.288739">
        <ele>34.695431</ele>
        <time>2022-07-28T04:58:34.143Z</time>
      </trkpt>
      <trkpt lat="43.723146" lon="7.288722">
        <ele>34.759113</ele>
        <time>2022-07-28T04:58:35.433Z</time>
      </trkpt>
      <trkpt lat="43.723178" lon="7.288706">
        <ele>34.802637</ele>
        <time>2022-07-28T04:58:36.383Z</time>
      </trkpt>
      <trkpt lat="43.723324" lon="7.288611">
        <ele>35.009015</ele>
        <time>2022-07-28T04:58:41.159Z</time>
      </trkpt>
      <trkpt lat="43.723779" lon="7.288514">
        <ele>35.597906</ele>
        <time>2022-07-28T04:58:54.479Z</time>
      </trkpt>
      <trkpt lat="43.724428" lon="7.288270">
        <ele>36.458187</ele>
        <time>2022-07-28T04:59:13.618Z</time>
      </trkpt>
      <trkpt lat="43.724870" lon="7.287960">
        <ele>37.040308</ele>
        <time>2022-07-28T04:59:25.996Z</time>
      </trkpt>
      <trkpt lat="43.725109" lon="7.287732">
        <ele>37.006019</ele>
        <time>2022-07-28T04:59:32.671Z</time>
      </trkpt>
      <trkpt lat="43.725355" lon="7.287390">
        <ele>36.964830</ele>
        <time>2022-07-28T04:59:40.575Z</time>
      </trkpt>
      <trkpt lat="43.725480" lon="7.287150">
        <ele>36.939577</ele>
        <time>2022-07-28T04:59:46.103Z</time>
      </trkpt>
      <trkpt lat="43.725960" lon="7.286345">
        <ele>36.850492</ele>
        <time>2022-07-28T05:00:05.606Z</time>
      </trkpt>
      <trkpt lat="43.726440" lon="7.285540">
        <ele>36.797931</ele>
        <time>2022-07-28T05:00:25.110Z</time>
      </trkpt>
      <trkpt lat="43.726920" lon="7.284735">
        <ele>36.754788</ele>
        <time>2022-07-28T05:00:44.613Z</time>
      </trkpt>
      <trkpt lat="43.727400" lon="7.283930">
        <ele>37.206882</ele>
        <time>2022-07-28T05:01:04.116Z</time>
      </trkpt>
      <trkpt lat="43.727935" lon="7.283600">
        <ele>38.111151</ele>
        <time>2022-07-28T05:01:19.263Z</time>
      </trkpt>
      <trkpt lat="43.728470" lon="7.283270">
        <ele>39.015418</ele>
        <time>2022-07-28T05:01:34.411Z</time>
      </trkpt>
      <trkpt lat="43.729320" lon="7.283250">
        <ele>41.632716</ele>
        <time>2022-07-28T05:01:56.402Z</time>
      </trkpt>
      <trkpt lat="43.729950" lon="7.283720">
        <ele>44.492167</ele>
        <time>2022-07-28T05:02:14.929Z</time>
      </trkpt>
      <trkpt lat="43.730239" lon="7.283954">
        <ele>45.829901</ele>
        <time>2022-07-28T05:02:23.596Z</time>
      </trkpt>
      <trkpt lat="43.730673" lon="7.284961">
        <ele>47.927285</ele>
        <time>2022-07-28T05:02:54.233Z</time>
      </trkpt>
      <trkpt lat="43.731016" lon="7.285811">
        <ele>49.303382</ele>
        <time>2022-07-28T05:03:15.400Z</time>
      </trkpt>
      <trkpt lat="43.731316" lon="7.286618">
        <ele>50.167105</ele>
        <time>2022-07-28T05:03:29.759Z</time>
      </trkpt>
      <trkpt lat="43.732110" lon="7.288607">
        <ele>49.933030</ele>
        <time>2022-07-28T05:04:01.669Z</time>
      </trkpt>
      <trkpt lat="43.732202" lon="7.288750">
        <ele>50.435009</ele>
        <time>2022-07-28T05:04:06.024Z</time>
      </trkpt>
      <trkpt lat="43.732619" lon="7.289943">
        <ele>53.909470</ele>
        <time>2022-07-28T05:04:41.689Z</time>
      </trkpt>
      <trkpt lat="43.732917" lon="7.291001">
        <ele>56.801684</ele>
        <time>2022-07-28T05:05:18.035Z</time>
      </trkpt>
      <trkpt lat="43.733221" lon="7.292486">
        <ele>60.230466</ele>
        <time>2022-07-28T05:06:02.645Z</time>
      </trkpt>
      <trkpt lat="43.734553" lon="7.303115">
        <ele>58.858620</ele>
        <time>2022-07-28T05:08:43.553Z</time>
      </trkpt>
      <trkpt lat="43.734762" lon="7.304051">
        <ele>59.372090</ele>
        <time>2022-07-28T05:09:00.491Z</time>
      </trkpt>
      <trkpt lat="43.735158" lon="7.305292">
        <ele>60.083129</ele>
        <time>2022-07-28T05:09:26.645Z</time>
      </trkpt>
      <trkpt lat="43.735738" lon="7.306545">
        <ele>61.482858</ele>
        <time>2022-07-28T05:09:56.641Z</time>
      </trkpt>
      <trkpt lat="43.736289" lon="7.307381">
        <ele>62.553552</ele>
        <time>2022-07-28T05:10:19.150Z</time>
      </trkpt>
      <trkpt lat="43.736604" lon="7.307761">
        <ele>63.011999</ele>
        <time>2022-07-28T05:10:30.352Z</time>
      </trkpt>
      <trkpt lat="43.737326" lon="7.308466">
        <ele>63.981420</ele>
        <time>2022-07-28T05:10:53.884Z</time>
      </trkpt>
      <trkpt lat="43.738051" lon="7.309045">
        <ele>64.840823</ele>
        <time>2022-07-28T05:11:15.523Z</time>
      </trkpt>
      <trkpt lat="43.738072" lon="7.309062">
        <ele>64.863869</ele>
        <time>2022-07-28T05:11:16.362Z</time>
      </trkpt>
      <trkpt lat="43.738964" lon="7.309610">
        <ele>65.788390</ele>
        <time>2022-07-28T05:11:41.028Z</time>
      </trkpt>
      <trkpt lat="43.739754" lon="7.309954">
        <ele>66.792166</ele>
        <time>2022-07-28T05:12:03.230Z</time>
      </trkpt>
      <trkpt lat="43.739909" lon="7.310024">
        <ele>67.031081</ele>
        <time>2022-07-28T05:12:08.299Z</time>
      </trkpt>
      <trkpt lat="43.741088" lon="7.310440">
        <ele>68.815671</ele>
        <time>2022-07-28T05:12:42.239Z</time>
      </trkpt>
      <trkpt lat="43.741312" lon="7.310518">
        <ele>69.244836</ele>
        <time>2022-07-28T05:12:49.159Z</time>
      </trkpt>
      <trkpt lat="43.741559" lon="7.310616">
        <ele>69.722248</ele>
        <time>2022-07-28T05:12:57.081Z</time>
      </trkpt>
      <trkpt lat="43.741312" lon="7.310518">
        <ele>70.199661</ele>
        <time>2022-07-28T05:13:04.524Z</time>
      </trkpt>
      <trkpt lat="43.741088" lon="7.310440">
        <ele>70.628825</ele>
        <time>2022-07-28T05:13:11.085Z</time>
      </trkpt>
      <trkpt lat="43.741463" lon="7.311466">
        <ele>72.181769</ele>
        <time>2022-07-28T05:13:32.585Z</time>
      </trkpt>
      <trkpt lat="43.741839" lon="7.312493">
        <ele>74.371911</ele>
        <time>2022-07-28T05:13:54.085Z</time>
      </trkpt>
      <trkpt lat="43.742214" lon="7.313520">
        <ele>76.560853</ele>
        <time>2022-07-28T05:14:15.589Z</time>
      </trkpt>
      <trkpt lat="43.742589" lon="7.314547">
        <ele>79.658989</ele>
        <time>2022-07-28T05:14:37.097Z</time>
      </trkpt>
      <trkpt lat="43.742964" lon="7.315573">
        <ele>82.912876</ele>
        <time>2022-07-28T05:14:58.608Z</time>
      </trkpt>
      <trkpt lat="43.743339" lon="7.316600">
        <ele>85.920572</ele>
        <time>2022-07-28T05:15:20.119Z</time>
      </trkpt>
      <trkpt lat="43.743714" lon="7.317627">
        <ele>88.815152</ele>
        <time>2022-07-28T05:15:41.625Z</time>
      </trkpt>
      <trkpt lat="43.744090" lon="7.318654">
        <ele>91.084202</ele>
        <time>2022-07-28T05:16:03.128Z</time>
      </trkpt>
      <trkpt lat="43.744465" lon="7.319681">
        <ele>92.782869</ele>
        <time>2022-07-28T05:16:24.626Z</time>
      </trkpt>
      <trkpt lat="43.744840" lon="7.320707">
        <ele>93.953238</ele>
        <time>2022-07-28T05:16:46.124Z</time>
      </trkpt>
      <trkpt lat="43.745130" lon="7.319994">
        <ele>94.120234</ele>
        <time>2022-07-28T05:17:01.422Z</time>
      </trkpt>
      <trkpt lat="43.745420" lon="7.319280">
        <ele>94.287407</ele>
        <time>2022-07-28T05:17:16.720Z</time>
      </trkpt>
      <trkpt lat="43.745070" lon="7.318725">
        <ele>94.464493</ele>
        <time>2022-07-28T05:17:30.484Z</time>
      </trkpt>
      <trkpt lat="43.744720" lon="7.318170">
        <ele>94.680800</ele>
        <time>2022-07-28T05:17:44.247Z</time>
      </trkpt>
      <trkpt lat="43.744831" lon="7.319198">
        <ele>94.985985</ele>
        <time>2022-07-28T05:18:03.671Z</time>
      </trkpt>
      <trkpt lat="43.744943" lon="7.320226">
        <ele>97.257859</ele>
        <time>2022-07-28T05:18:23.098Z</time>
      </trkpt>
      <trkpt lat="43.745054" lon="7.321255">
        <ele>100.839084</ele>
        <time>2022-07-28T05:18:42.538Z</time>
      </trkpt>
      <trkpt lat="43.745166" lon="7.322283">
        <ele>104.897306</ele>
        <time>2022-07-28T05:19:02.006Z</time>
      </trkpt>
      <trkpt lat="43.745162" lon="7.322393">
        <ele>105.522251</ele>
        <time>2022-07-28T05:19:06.684Z</time>
      </trkpt>
      <trkpt lat="43.745042" lon="7.323105">
        <ele>109.670729</ele>
        <time>2022-07-28T05:19:35.080Z</time>
      </trkpt>
      <trkpt lat="43.745021" lon="7.323201">
        <ele>110.239872</ele>
        <time>2022-07-28T05:19:38.927Z</time>
      </trkpt>
      <trkpt lat="43.744979" lon="7.323389">
        <ele>111.356455</ele>
        <time>2022-07-28T05:19:46.402Z</time>
      </trkpt>
      <trkpt lat="43.744960" lon="7.323434">
        <ele>111.652204</ele>
        <time>2022-07-28T05:19:48.325Z</time>
      </trkpt>
      <trkpt lat="43.744969" lon="7.323507">
        <ele>112.072406</ele>
        <time>2022-07-28T05:19:50.732Z</time>
      </trkpt>
      <trkpt lat="43.744960" lon="7.323660">
        <ele>112.943425</ele>
        <time>2022-07-28T05:19:56.644Z</time>
      </trkpt>
      <trkpt lat="43.744955" lon="7.323912">
        <ele>114.373852</ele>
        <time>2022-07-28T05:20:08.106Z</time>
      </trkpt>
      <trkpt lat="43.745001" lon="7.324258">
        <ele>116.370078</ele>
        <time>2022-07-28T05:20:22.026Z</time>
      </trkpt>
      <trkpt lat="43.745183" lon="7.324720">
        <ele>118.616818</ele>
        <time>2022-07-28T05:20:43.843Z</time>
      </trkpt>
      <trkpt lat="43.745593" lon="7.325294">
        <ele>121.014282</ele>
        <time>2022-07-28T05:21:10.784Z</time>
      </trkpt>
      <trkpt lat="43.745704" lon="7.325522">
        <ele>121.830879</ele>
        <time>2022-07-28T05:21:19.905Z</time>
      </trkpt>
      <trkpt lat="43.745703" lon="7.326117">
        <ele>123.598080</ele>
        <time>2022-07-28T05:21:32.063Z</time>
      </trkpt>
      <trkpt lat="43.745790" lon="7.326526">
        <ele>124.864406</ele>
        <time>2022-07-28T05:21:39.930Z</time>
      </trkpt>
      <trkpt lat="43.746450" lon="7.327395">
        <ele>125.132133</ele>
        <time>2022-07-28T05:22:00.037Z</time>
      </trkpt>
      <trkpt lat="43.746778" lon="7.327930">
        <ele>125.090810</ele>
        <time>2022-07-28T05:22:09.478Z</time>
      </trkpt>
      <trkpt lat="43.746855" lon="7.328283">
        <ele>125.069095</ele>
        <time>2022-07-28T05:22:14.426Z</time>
      </trkpt>
      <trkpt lat="43.746879" lon="7.328684">
        <ele>125.427105</ele>
        <time>2022-07-28T05:22:21.191Z</time>
      </trkpt>
      <trkpt lat="43.746893" lon="7.328971">
        <ele>126.248309</ele>
        <time>2022-07-28T05:22:27.721Z</time>
      </trkpt>
      <trkpt lat="43.746950" lon="7.329337">
        <ele>127.317184</ele>
        <time>2022-07-28T05:22:36.613Z</time>
      </trkpt>
      <trkpt lat="43.747073" lon="7.329674">
        <ele>128.395084</ele>
        <time>2022-07-28T05:22:46.425Z</time>
      </trkpt>
      <trkpt lat="43.747521" lon="7.330997">
        <ele>132.696441</ele>
        <time>2022-07-28T05:23:34.422Z</time>
      </trkpt>
      <trkpt lat="43.747596" lon="7.332632">
        <ele>138.874637</ele>
        <time>2022-07-28T05:24:29.789Z</time>
      </trkpt>
      <trkpt lat="43.747660" lon="7.332990">
        <ele>140.265421</ele>
        <time>2022-07-28T05:24:40.472Z</time>
      </trkpt>
      <trkpt lat="43.747784" lon="7.333334">
        <ele>141.644774</ele>
        <time>2022-07-28T05:24:50.241Z</time>
      </trkpt>
      <trkpt lat="43.747999" lon="7.333696">
        <ele>142.655829</ele>
        <time>2022-07-28T05:25:01.401Z</time>
      </trkpt>
      <trkpt lat="43.748082" lon="7.333943">
        <ele>143.243543</ele>
        <time>2022-07-28T05:25:07.752Z</time>
      </trkpt>
      <trkpt lat="43.748398" lon="7.335703">
        <ele>147.272112</ele>
        <time>2022-07-28T05:25:50.130Z</time>
      </trkpt>
      <trkpt lat="43.748304" lon="7.336626">
        <ele>150.280667</ele>
        <time>2022-07-28T05:26:17.731Z</time>
      </trkpt>
      <trkpt lat="43.748251" lon="7.337411">
        <ele>152.825395</ele>
        <time>2022-07-28T05:26:41.610Z</time>
      </trkpt>
      <trkpt lat="43.748339" lon="7.338478">
        <ele>156.463414</ele>
        <time>2022-07-28T05:27:13.237Z</time>
      </trkpt>
      <trkpt lat="43.748381" lon="7.339196">
        <ele>159.088029</ele>
        <time>2022-07-28T05:27:35.527Z</time>
      </trkpt>
      <trkpt lat="43.748371" lon="7.339399">
        <ele>159.829383</ele>
        <time>2022-07-28T05:27:42.436Z</time>
      </trkpt>
      <trkpt lat="43.748453" lon="7.340155">
        <ele>162.614763</ele>
        <time>2022-07-28T05:28:06.724Z</time>
      </trkpt>
      <trkpt lat="43.748373" lon="7.340784">
        <ele>164.748450</ele>
        <time>2022-07-28T05:28:25.404Z</time>
      </trkpt>
      <trkpt lat="43.748513" lon="7.341519">
        <ele>166.930360</ele>
        <time>2022-07-28T05:28:47.091Z</time>
      </trkpt>
      <trkpt lat="43.748520" lon="7.342055">
        <ele>168.469184</ele>
        <time>2022-07-28T05:29:01.920Z</time>
      </trkpt>
      <trkpt lat="43.748337" lon="7.342770">
        <ele>170.646588</ele>
        <time>2022-07-28T05:29:22.214Z</time>
      </trkpt>
      <trkpt lat="43.748316" lon="7.343050">
        <ele>171.512831</ele>
        <time>2022-07-28T05:29:29.490Z</time>
      </trkpt>
      <trkpt lat="43.748399" lon="7.343245">
        <ele>172.299003</ele>
        <time>2022-07-28T05:29:35.293Z</time>
      </trkpt>
      <trkpt lat="43.748649" lon="7.343442">
        <ele>173.682225</ele>
        <time>2022-07-28T05:29:44.395Z</time>
      </trkpt>
      <trkpt lat="43.748701" lon="7.343761">
        <ele>174.818135</ele>
        <time>2022-07-28T05:29:51.583Z</time>
      </trkpt>
      <trkpt lat="43.748597" lon="7.344116">
        <ele>176.148774</ele>
        <time>2022-07-28T05:30:01.693Z</time>
      </trkpt>
      <trkpt lat="43.748354" lon="7.344581">
        <ele>178.142288</ele>
        <time>2022-07-28T05:30:21.226Z</time>
      </trkpt>
      <trkpt lat="43.748293" lon="7.344771">
        <ele>178.864502</ele>
        <time>2022-07-28T05:30:30.068Z</time>
      </trkpt>
      <trkpt lat="43.748213" lon="7.344920">
        <ele>179.509358</ele>
        <time>2022-07-28T05:30:36.905Z</time>
      </trkpt>
      <trkpt lat="43.747822" lon="7.345277">
        <ele>183.148666</ele>
        <time>2022-07-28T05:31:00.860Z</time>
      </trkpt>
      <trkpt lat="43.747734" lon="7.345562">
        <ele>184.996917</ele>
        <time>2022-07-28T05:31:14.176Z</time>
      </trkpt>
      <trkpt lat="43.747734" lon="7.345658">
        <ele>185.569385</ele>
        <time>2022-07-28T05:31:17.951Z</time>
      </trkpt>
      <trkpt lat="43.747758" lon="7.346372">
        <ele>189.831720</ele>
        <time>2022-07-28T05:31:50.508Z</time>
      </trkpt>
      <trkpt lat="43.747723" lon="7.346685">
        <ele>191.720433</ele>
        <time>2022-07-28T05:32:02.217Z</time>
      </trkpt>
      <trkpt lat="43.747328" lon="7.347290">
        <ele>195.812808</ele>
        <time>2022-07-28T05:32:32.451Z</time>
      </trkpt>
      <trkpt lat="43.747306" lon="7.347451">
        <ele>196.395647</ele>
        <time>2022-07-28T05:32:38.296Z</time>
      </trkpt>
      <trkpt lat="43.747379" lon="7.347647">
        <ele>197.180033</ele>
        <time>2022-07-28T05:32:47.866Z</time>
      </trkpt>
      <trkpt lat="43.747645" lon="7.347985">
        <ele>198.957943</ele>
        <time>2022-07-28T05:33:05.044Z</time>
      </trkpt>
      <trkpt lat="43.747811" lon="7.348396">
        <ele>200.632862</ele>
        <time>2022-07-28T05:33:16.423Z</time>
      </trkpt>
      <trkpt lat="43.747846" lon="7.348497">
        <ele>201.031317</ele>
        <time>2022-07-28T05:33:18.865Z</time>
      </trkpt>
      <trkpt lat="43.747909" lon="7.349026">
        <ele>202.938373</ele>
        <time>2022-07-28T05:33:32.148Z</time>
      </trkpt>
      <trkpt lat="43.747889" lon="7.349255">
        <ele>203.712213</ele>
        <time>2022-07-28T05:33:37.713Z</time>
      </trkpt>
      <trkpt lat="43.747810" lon="7.349414">
        <ele>204.258615</ele>
        <time>2022-07-28T05:33:42.562Z</time>
      </trkpt>
      <trkpt lat="43.747723" lon="7.349519">
        <ele>204.711017</ele>
        <time>2022-07-28T05:33:46.107Z</time>
      </trkpt>
      <trkpt lat="43.747682" lon="7.349822">
        <ele>205.583861</ele>
        <time>2022-07-28T05:33:51.939Z</time>
      </trkpt>
      <trkpt lat="43.747874" lon="7.350864">
        <ele>208.628672</ele>
        <time>2022-07-28T05:34:22.408Z</time>
      </trkpt>
      <trkpt lat="43.747814" lon="7.351516">
        <ele>210.489679</ele>
        <time>2022-07-28T05:34:44.137Z</time>
      </trkpt>
      <trkpt lat="43.747838" lon="7.351673">
        <ele>211.077305</ele>
        <time>2022-07-28T05:34:48.264Z</time>
      </trkpt>
      <trkpt lat="43.747907" lon="7.352297">
        <ele>213.518918</ele>
        <time>2022-07-28T05:35:06.677Z</time>
      </trkpt>
      <trkpt lat="43.747919" lon="7.354093">
        <ele>220.419480</ele>
        <time>2022-07-28T05:36:05.767Z</time>
      </trkpt>
      <trkpt lat="43.748123" lon="7.354875">
        <ele>223.052774</ele>
        <time>2022-07-28T05:36:30.626Z</time>
      </trkpt>
      <trkpt lat="43.748248" lon="7.355788">
        <ele>225.995893</ele>
        <time>2022-07-28T05:36:55.235Z</time>
      </trkpt>
      <trkpt lat="43.748199" lon="7.356198">
        <ele>227.312090</ele>
        <time>2022-07-28T05:37:06.500Z</time>
      </trkpt>
      <trkpt lat="43.748074" lon="7.356575">
        <ele>228.912022</ele>
        <time>2022-07-28T05:37:18.038Z</time>
      </trkpt>
      <trkpt lat="43.747889" lon="7.356934">
        <ele>231.063059</ele>
        <time>2022-07-28T05:37:30.969Z</time>
      </trkpt>
      <trkpt lat="43.747845" lon="7.357250">
        <ele>232.632828</ele>
        <time>2022-07-28T05:37:41.024Z</time>
      </trkpt>
      <trkpt lat="43.748140" lon="7.358237">
        <ele>237.843052</ele>
        <time>2022-07-28T05:38:20.439Z</time>
      </trkpt>
      <trkpt lat="43.748241" lon="7.358820">
        <ele>241.036629</ele>
        <time>2022-07-28T05:38:45.355Z</time>
      </trkpt>
      <trkpt lat="43.748285" lon="7.360222">
        <ele>251.383073</ele>
        <time>2022-07-28T05:39:51.724Z</time>
      </trkpt>
      <trkpt lat="43.748368" lon="7.360859">
        <ele>256.155341</ele>
        <time>2022-07-28T05:40:23.026Z</time>
      </trkpt>
      <trkpt lat="43.748596" lon="7.361461">
        <ele>260.209435</ele>
        <time>2022-07-28T05:40:53.455Z</time>
      </trkpt>
      <trkpt lat="43.748677" lon="7.362074">
        <ele>263.091258</ele>
        <time>2022-07-28T05:41:18.397Z</time>
      </trkpt>
      <trkpt lat="43.748827" lon="7.362532">
        <ele>265.416766</ele>
        <time>2022-07-28T05:41:35.459Z</time>
      </trkpt>
      <trkpt lat="43.748721" lon="7.363672">
        <ele>270.291276</ele>
        <time>2022-07-28T05:42:08.059Z</time>
      </trkpt>
      <trkpt lat="43.748742" lon="7.363999">
        <ele>270.728614</ele>
        <time>2022-07-28T05:42:15.819Z</time>
      </trkpt>
      <trkpt lat="43.749153" lon="7.364394">
        <ele>271.651311</ele>
        <time>2022-07-28T05:42:29.801Z</time>
      </trkpt>
      <trkpt lat="43.749205" lon="7.364650">
        <ele>272.005570</ele>
        <time>2022-07-28T05:42:34.423Z</time>
      </trkpt>
      <trkpt lat="43.749135" lon="7.364913">
        <ele>272.378953</ele>
        <time>2022-07-28T05:42:39.780Z</time>
      </trkpt>
      <trkpt lat="43.748718" lon="7.365248">
        <ele>273.268074</ele>
        <time>2022-07-28T05:42:52.342Z</time>
      </trkpt>
      <trkpt lat="43.748531" lon="7.365634">
        <ele>274.372686</ele>
        <time>2022-07-28T05:43:01.782Z</time>
      </trkpt>
      <trkpt lat="43.748555" lon="7.365860">
        <ele>274.999990</ele>
        <time>2022-07-28T05:43:06.862Z</time>
      </trkpt>
      <trkpt lat="43.748677" lon="7.366022">
        <ele>275.642655</ele>
        <time>2022-07-28T05:43:12.855Z</time>
      </trkpt>
      <trkpt lat="43.748715" lon="7.366155">
        <ele>276.035424</ele>
        <time>2022-07-28T05:43:16.720Z</time>
      </trkpt>
      <trkpt lat="43.748369" lon="7.367430">
        <ele>279.775700</ele>
        <time>2022-07-28T05:43:56.896Z</time>
      </trkpt>
      <trkpt lat="43.748334" lon="7.367757">
        <ele>280.773537</ele>
        <time>2022-07-28T05:44:07.337Z</time>
      </trkpt>
      <trkpt lat="43.748486" lon="7.368144">
        <ele>282.245031</ele>
        <time>2022-07-28T05:44:21.731Z</time>
      </trkpt>
      <trkpt lat="43.748841" lon="7.368549">
        <ele>284.372281</ele>
        <time>2022-07-28T05:44:42.368Z</time>
      </trkpt>
      <trkpt lat="43.749035" lon="7.369047">
        <ele>286.262303</ele>
        <time>2022-07-28T05:44:59.750Z</time>
      </trkpt>
      <trkpt lat="43.749099" lon="7.369656">
        <ele>288.318049</ele>
        <time>2022-07-28T05:45:16.908Z</time>
      </trkpt>
      <trkpt lat="43.749008" lon="7.370130">
        <ele>289.023373</ele>
        <time>2022-07-28T05:45:27.803Z</time>
      </trkpt>
      <trkpt lat="43.749038" lon="7.370660">
        <ele>289.591165</ele>
        <time>2022-07-28T05:45:38.194Z</time>
      </trkpt>
      <trkpt lat="43.749007" lon="7.371566">
        <ele>290.559886</ele>
        <time>2022-07-28T05:45:55.337Z</time>
      </trkpt>
      <trkpt lat="43.748943" lon="7.371776">
        <ele>290.803316</ele>
        <time>2022-07-28T05:45:59.463Z</time>
      </trkpt>
      <trkpt lat="43.748762" lon="7.371964">
        <ele>291.137877</ele>
        <time>2022-07-28T05:46:05.473Z</time>
      </trkpt>
      <trkpt lat="43.748702" lon="7.372201">
        <ele>291.230905</ele>
        <time>2022-07-28T05:46:10.068Z</time>
      </trkpt>
      <trkpt lat="43.748797" lon="7.372401">
        <ele>291.209996</ele>
        <time>2022-07-28T05:46:15.136Z</time>
      </trkpt>
      <trkpt lat="43.749207" lon="7.372672">
        <ele>291.155055</ele>
        <time>2022-07-28T05:46:25.643Z</time>
      </trkpt>
      <trkpt lat="43.749316" lon="7.372915">
        <ele>291.130069</ele>
        <time>2022-07-28T05:46:29.802Z</time>
      </trkpt>
      <trkpt lat="43.749323" lon="7.373073">
        <ele>291.116241</ele>
        <time>2022-07-28T05:46:32.225Z</time>
      </trkpt>
      <trkpt lat="43.749119" lon="7.373607">
        <ele>291.063474</ele>
        <time>2022-07-28T05:46:40.626Z</time>
      </trkpt>
      <trkpt lat="43.749066" lon="7.374012">
        <ele>291.027520</ele>
        <time>2022-07-28T05:46:46.823Z</time>
      </trkpt>
      <trkpt lat="43.749287" lon="7.374982">
        <ele>292.078661</ele>
        <time>2022-07-28T05:47:01.773Z</time>
      </trkpt>
      <trkpt lat="43.749340" lon="7.375198">
        <ele>292.316944</ele>
        <time>2022-07-28T05:47:05.289Z</time>
      </trkpt>
      <trkpt lat="43.749353" lon="7.375249">
        <ele>292.373435</ele>
        <time>2022-07-28T05:47:06.158Z</time>
      </trkpt>
      <trkpt lat="43.749381" lon="7.375429">
        <ele>292.565763</ele>
        <time>2022-07-28T05:47:09.559Z</time>
      </trkpt>
      <trkpt lat="43.749426" lon="7.376784">
        <ele>295.879979</ele>
        <time>2022-07-28T05:47:45.135Z</time>
      </trkpt>
      <trkpt lat="43.749408" lon="7.377442">
        <ele>300.242444</ele>
        <time>2022-07-28T05:48:06.793Z</time>
      </trkpt>
      <trkpt lat="43.749395" lon="7.377475">
        <ele>300.491470</ele>
        <time>2022-07-28T05:48:08.913Z</time>
      </trkpt>
      <trkpt lat="43.749358" lon="7.377561">
        <ele>301.154630</ele>
        <time>2022-07-28T05:48:14.708Z</time>
      </trkpt>
      <trkpt lat="43.749283" lon="7.377838">
        <ele>303.114471</ele>
        <time>2022-07-28T05:48:31.119Z</time>
      </trkpt>
      <trkpt lat="43.749281" lon="7.378016">
        <ele>304.293891</ele>
        <time>2022-07-28T05:48:39.907Z</time>
      </trkpt>
      <trkpt lat="43.749511" lon="7.378463">
        <ele>307.929788</ele>
        <time>2022-07-28T05:49:08.255Z</time>
      </trkpt>
      <trkpt lat="43.749513" lon="7.379254">
        <ele>313.374582</ele>
        <time>2022-07-28T05:49:46.047Z</time>
      </trkpt>
      <trkpt lat="43.749613" lon="7.379545">
        <ele>315.652673</ele>
        <time>2022-07-28T05:50:04.681Z</time>
      </trkpt>
      <trkpt lat="43.749667" lon="7.379580">
        <ele>316.236190</ele>
        <time>2022-07-28T05:50:07.208Z</time>
      </trkpt>
      <trkpt lat="43.750361" lon="7.379672">
        <ele>323.058965</ele>
        <time>2022-07-28T05:50:45.868Z</time>
      </trkpt>
      <trkpt lat="43.750471" lon="7.379787">
        <ele>324.407946</ele>
        <time>2022-07-28T05:50:52.608Z</time>
      </trkpt>
      <trkpt lat="43.750531" lon="7.380326">
        <ele>328.209551</ele>
        <time>2022-07-28T05:51:18.265Z</time>
      </trkpt>
      <trkpt lat="43.750618" lon="7.380482">
        <ele>329.463648</ele>
        <time>2022-07-28T05:51:30.238Z</time>
      </trkpt>
      <trkpt lat="43.750979" lon="7.380756">
        <ele>333.090332</ele>
        <time>2022-07-28T05:51:48.101Z</time>
      </trkpt>
      <trkpt lat="43.751643" lon="7.381076">
        <ele>339.283859</ele>
        <time>2022-07-28T05:52:28.059Z</time>
      </trkpt>
      <trkpt lat="43.751890" lon="7.381203">
        <ele>341.604928</ele>
        <time>2022-07-28T05:52:44.333Z</time>
      </trkpt>
      <trkpt lat="43.751970" lon="7.381319">
        <ele>342.625453</ele>
        <time>2022-07-28T05:52:51.309Z</time>
      </trkpt>
      <trkpt lat="43.751996" lon="7.382196">
        <ele>347.057666</ele>
        <time>2022-07-28T05:53:31.036Z</time>
      </trkpt>
      <trkpt lat="43.752086" lon="7.382871">
        <ele>350.340190</ele>
        <time>2022-07-28T05:53:55.192Z</time>
      </trkpt>
      <trkpt lat="43.752175" lon="7.383007">
        <ele>351.217786</ele>
        <time>2022-07-28T05:54:01.265Z</time>
      </trkpt>
      <trkpt lat="43.752270" lon="7.383013">
        <ele>351.847383</ele>
        <time>2022-07-28T05:54:02.794Z</time>
      </trkpt>
      <trkpt lat="43.752401" lon="7.383021">
        <ele>352.715506</ele>
        <time>2022-07-28T05:54:10.406Z</time>
      </trkpt>
      <trkpt lat="43.753171" lon="7.382537">
        <ele>356.718785</ele>
        <time>2022-07-28T05:54:44.548Z</time>
      </trkpt>
      <trkpt lat="43.753270" lon="7.382572">
        <ele>357.014754</ele>
        <time>2022-07-28T05:54:46.063Z</time>
      </trkpt>
      <trkpt lat="43.753260" lon="7.382641">
        <ele>357.162001</ele>
        <time>2022-07-28T05:54:49.091Z</time>
      </trkpt>
      <trkpt lat="43.753402" lon="7.382652">
        <ele>357.573967</ele>
        <time>2022-07-28T05:54:56.956Z</time>
      </trkpt>
      <trkpt lat="43.753260" lon="7.382641">
        <ele>357.985932</ele>
        <time>2022-07-28T05:55:00.510Z</time>
      </trkpt>
      <trkpt lat="43.752475" lon="7.383191">
        <ele>360.534408</ele>
        <time>2022-07-28T05:55:30.551Z</time>
      </trkpt>
      <trkpt lat="43.752212" lon="7.383270">
        <ele>361.139153</ele>
        <time>2022-07-28T05:55:36.579Z</time>
      </trkpt>
      <trkpt lat="43.752092" lon="7.383245">
        <ele>361.392527</ele>
        <time>2022-07-28T05:55:41.661Z</time>
      </trkpt>
      <trkpt lat="43.751984" lon="7.383131">
        <ele>361.676094</ele>
        <time>2022-07-28T05:55:45.758Z</time>
      </trkpt>
      <trkpt lat="43.751708" lon="7.382430">
        <ele>362.880198</ele>
        <time>2022-07-28T05:56:03.741Z</time>
      </trkpt>
      <trkpt lat="43.751250" lon="7.382100">
        <ele>363.958241</ele>
        <time>2022-07-28T05:56:19.015Z</time>
      </trkpt>
      <trkpt lat="43.751032" lon="7.382096">
        <ele>364.413451</ele>
        <time>2022-07-28T05:56:25.516Z</time>
      </trkpt>
      <trkpt lat="43.750527" lon="7.382607">
        <ele>366.122087</ele>
        <time>2022-07-28T05:56:44.388Z</time>
      </trkpt>
      <trkpt lat="43.749726" lon="7.383387">
        <ele>368.811886</ele>
        <time>2022-07-28T05:57:15.772Z</time>
      </trkpt>
      <trkpt lat="43.749446" lon="7.383862">
        <ele>370.581388</ele>
        <time>2022-07-28T05:57:33.673Z</time>
      </trkpt>
      <trkpt lat="43.749479" lon="7.383930">
        <ele>370.883342</ele>
        <time>2022-07-28T05:57:36.070Z</time>
      </trkpt>
      <trkpt lat="43.749520" lon="7.383924">
        <ele>371.093714</ele>
        <time>2022-07-28T05:57:37.758Z</time>
      </trkpt>
      <trkpt lat="43.749544" lon="7.383920">
        <ele>371.217060</ele>
        <time>2022-07-28T05:57:38.769Z</time>
      </trkpt>
      <trkpt lat="43.749754" lon="7.383722">
        <ele>372.513530</ele>
        <time>2022-07-28T05:57:51.499Z</time>
      </trkpt>
      <trkpt lat="43.750202" lon="7.383860">
        <ele>374.855394</ele>
        <time>2022-07-28T05:58:10.529Z</time>
      </trkpt>
      <trkpt lat="43.750440" lon="7.383868">
        <ele>376.070166</ele>
        <time>2022-07-28T05:58:22.045Z</time>
      </trkpt>
      <trkpt lat="43.750658" lon="7.383807">
        <ele>377.205024</ele>
        <time>2022-07-28T05:58:30.199Z</time>
      </trkpt>
      <trkpt lat="43.750899" lon="7.383767">
        <ele>378.443553</ele>
        <time>2022-07-28T05:58:40.150Z</time>
      </trkpt>
      <trkpt lat="43.750955" lon="7.383822">
        <ele>378.902541</ele>
        <time>2022-07-28T05:58:43.003Z</time>
      </trkpt>
      <trkpt lat="43.750961" lon="7.383940">
        <ele>379.542078</ele>
        <time>2022-07-28T05:58:47.362Z</time>
      </trkpt>
      <trkpt lat="43.751057" lon="7.383959">
        <ele>380.267893</ele>
        <time>2022-07-28T05:58:52.918Z</time>
      </trkpt>
      <trkpt lat="43.750961" lon="7.383940">
        <ele>380.993709</ele>
        <time>2022-07-28T05:58:56.588Z</time>
      </trkpt>
      <trkpt lat="43.750062" lon="7.384703">
        <ele>388.886111</ele>
        <time>2022-07-28T05:59:51.595Z</time>
      </trkpt>
      <trkpt lat="43.749822" lon="7.384882">
        <ele>390.926496</ele>
        <time>2022-07-28T06:00:07.849Z</time>
      </trkpt>
      <trkpt lat="43.749617" lon="7.385111">
        <ele>393.303249</ele>
        <time>2022-07-28T06:00:23.252Z</time>
      </trkpt>
      <trkpt lat="43.749346" lon="7.385656">
        <ele>398.537044</ele>
        <time>2022-07-28T06:00:54.283Z</time>
      </trkpt>
      <trkpt lat="43.748360" lon="7.387461">
        <ele>415.957472</ele>
        <time>2022-07-28T06:02:46.695Z</time>
      </trkpt>
      <trkpt lat="43.748004" lon="7.388119">
        <ele>421.798126</ele>
        <time>2022-07-28T06:03:24.759Z</time>
      </trkpt>
      <trkpt lat="43.747665" lon="7.388751">
        <ele>427.390769</ele>
        <time>2022-07-28T06:03:58.114Z</time>
      </trkpt>
      <trkpt lat="43.747292" lon="7.389421">
        <ele>431.981411</ele>
        <time>2022-07-28T06:04:30.649Z</time>
      </trkpt>
      <trkpt lat="43.746487" lon="7.390582">
        <ele>439.350042</ele>
        <time>2022-07-28T06:05:23.149Z</time>
      </trkpt>
      <trkpt lat="43.746149" lon="7.391022">
        <ele>442.049924</ele>
        <time>2022-07-28T06:05:43.600Z</time>
      </trkpt>
      <trkpt lat="43.745921" lon="7.391093">
        <ele>443.290179</ele>
        <time>2022-07-28T06:05:54.335Z</time>
      </trkpt>
      <trkpt lat="43.745781" lon="7.390940">
        <ele>444.236816</ele>
        <time>2022-07-28T06:06:02.564Z</time>
      </trkpt>
      <trkpt lat="43.745779" lon="7.390849">
        <ele>444.585864</ele>
        <time>2022-07-28T06:06:05.618Z</time>
      </trkpt>
      <trkpt lat="43.745711" lon="7.390761">
        <ele>445.079892</ele>
        <time>2022-07-28T06:06:10.154Z</time>
      </trkpt>
      <trkpt lat="43.745620" lon="7.390785">
        <ele>445.571524</ele>
        <time>2022-07-28T06:06:14.576Z</time>
      </trkpt>
      <trkpt lat="43.745584" lon="7.390857">
        <ele>445.907234</ele>
        <time>2022-07-28T06:06:17.481Z</time>
      </trkpt>
      <trkpt lat="43.745397" lon="7.390994">
        <ele>447.030084</ele>
        <time>2022-07-28T06:06:27.117Z</time>
      </trkpt>
      <trkpt lat="43.745027" lon="7.391258">
        <ele>449.239220</ele>
        <time>2022-07-28T06:06:44.676Z</time>
      </trkpt>
      <trkpt lat="43.744798" lon="7.391530">
        <ele>450.465617</ele>
        <time>2022-07-28T06:06:56.130Z</time>
      </trkpt>
      <trkpt lat="43.744441" lon="7.391984">
        <ele>451.051227</ele>
        <time>2022-07-28T06:07:13.763Z</time>
      </trkpt>
      <trkpt lat="43.744358" lon="7.392103">
        <ele>451.195576</ele>
        <time>2022-07-28T06:07:17.775Z</time>
      </trkpt>
      <trkpt lat="43.744243" lon="7.392342">
        <ele>451.446173</ele>
        <time>2022-07-28T06:07:23.493Z</time>
      </trkpt>
      <trkpt lat="43.744200" lon="7.392568">
        <ele>451.650122</ele>
        <time>2022-07-28T06:07:27.550Z</time>
      </trkpt>
      <trkpt lat="43.744200" lon="7.392802">
        <ele>451.854328</ele>
        <time>2022-07-28T06:07:31.780Z</time>
      </trkpt>
      <trkpt lat="43.744273" lon="7.393115">
        <ele>452.141357</ele>
        <time>2022-07-28T06:07:37.182Z</time>
      </trkpt>
      <trkpt lat="43.744452" lon="7.393642">
        <ele>451.818419</ele>
        <time>2022-07-28T06:07:45.814Z</time>
      </trkpt>
      <trkpt lat="43.744692" lon="7.393935">
        <ele>449.566072</ele>
        <time>2022-07-28T06:07:51.093Z</time>
      </trkpt>
      <trkpt lat="43.744701" lon="7.394165">
        <ele>448.394866</ele>
        <time>2022-07-28T06:07:53.386Z</time>
      </trkpt>
      <trkpt lat="43.744637" lon="7.394223">
        <ele>447.856454</ele>
        <time>2022-07-28T06:07:54.473Z</time>
      </trkpt>
      <trkpt lat="43.744627" lon="7.394358">
        <ele>447.166414</ele>
        <time>2022-07-28T06:07:55.926Z</time>
      </trkpt>
      <trkpt lat="43.744708" lon="7.394445">
        <ele>446.444804</ele>
        <time>2022-07-28T06:07:57.511Z</time>
      </trkpt>
      <trkpt lat="43.744776" lon="7.394514">
        <ele>445.851370</ele>
        <time>2022-07-28T06:07:58.607Z</time>
      </trkpt>
      <trkpt lat="43.744868" lon="7.394619">
        <ele>445.012116</ele>
        <time>2022-07-28T06:08:00.275Z</time>
      </trkpt>
      <trkpt lat="43.744807" lon="7.394383">
        <ele>443.737625</ele>
        <time>2022-07-28T06:08:02.849Z</time>
      </trkpt>
      <trkpt lat="43.744784" lon="7.394192">
        <ele>442.753040</ele>
        <time>2022-07-28T06:08:04.723Z</time>
      </trkpt>
      <trkpt lat="43.744701" lon="7.394165">
        <ele>442.152937</ele>
        <time>2022-07-28T06:08:05.942Z</time>
      </trkpt>
      <trkpt lat="43.744637" lon="7.394223">
        <ele>441.614525</ele>
        <time>2022-07-28T06:08:07.046Z</time>
      </trkpt>
      <trkpt lat="43.744490" lon="7.394214">
        <ele>440.578866</ele>
        <time>2022-07-28T06:08:08.981Z</time>
      </trkpt>
      <trkpt lat="43.744288" lon="7.394016">
        <ele>438.084759</ele>
        <time>2022-07-28T06:08:12.478Z</time>
      </trkpt>
      <trkpt lat="43.744214" lon="7.394122">
        <ele>436.788809</ele>
        <time>2022-07-28T06:08:13.908Z</time>
      </trkpt>
      <trkpt lat="43.743952" lon="7.394091">
        <ele>433.588732</ele>
        <time>2022-07-28T06:08:17.710Z</time>
      </trkpt>
      <trkpt lat="43.743100" lon="7.393431">
        <ele>421.706926</ele>
        <time>2022-07-28T06:08:31.137Z</time>
      </trkpt>
      <trkpt lat="43.742691" lon="7.392973">
        <ele>415.245315</ele>
        <time>2022-07-28T06:08:38.407Z</time>
      </trkpt>
      <trkpt lat="43.742548" lon="7.392935">
        <ele>413.433950</ele>
        <time>2022-07-28T06:08:40.420Z</time>
      </trkpt>
      <trkpt lat="43.742263" lon="7.393003">
        <ele>409.836343</ele>
        <time>2022-07-28T06:08:44.476Z</time>
      </trkpt>
      <trkpt lat="43.742145" lon="7.392968">
        <ele>408.335132</ele>
        <time>2022-07-28T06:08:46.158Z</time>
      </trkpt>
      <trkpt lat="43.741901" lon="7.392584">
        <ele>403.739156</ele>
        <time>2022-07-28T06:08:51.305Z</time>
      </trkpt>
      <trkpt lat="43.741387" lon="7.392355">
        <ele>397.022077</ele>
        <time>2022-07-28T06:08:58.803Z</time>
      </trkpt>
      <trkpt lat="43.741138" lon="7.392488">
        <ele>393.606522</ele>
        <time>2022-07-28T06:09:02.484Z</time>
      </trkpt>
      <trkpt lat="43.740848" lon="7.392522">
        <ele>389.804506</ele>
        <time>2022-07-28T06:09:06.487Z</time>
      </trkpt>
      <trkpt lat="43.740603" lon="7.392334">
        <ele>386.144977</ele>
        <time>2022-07-28T06:09:10.315Z</time>
      </trkpt>
      <trkpt lat="43.739863" lon="7.392402">
        <ele>376.456618</ele>
        <time>2022-07-28T06:09:20.557Z</time>
      </trkpt>
      <trkpt lat="43.739229" lon="7.392004">
        <ele>366.358065</ele>
        <time>2022-07-28T06:09:30.229Z</time>
      </trkpt>
      <trkpt lat="43.738691" lon="7.391859">
        <ele>357.682776</ele>
        <time>2022-07-28T06:09:37.688Z</time>
      </trkpt>
      <trkpt lat="43.738474" lon="7.391705">
        <ele>353.822971</ele>
        <time>2022-07-28T06:09:40.937Z</time>
      </trkpt>
      <trkpt lat="43.737914" lon="7.391592">
        <ele>344.865708</ele>
        <time>2022-07-28T06:09:48.546Z</time>
      </trkpt>
      <trkpt lat="43.737782" lon="7.391662">
        <ele>342.412515</ele>
        <time>2022-07-28T06:09:50.404Z</time>
      </trkpt>
      <trkpt lat="43.737263" lon="7.392007">
        <ele>331.354333</ele>
        <time>2022-07-28T06:09:58.124Z</time>
      </trkpt>
      <trkpt lat="43.737094" lon="7.392022">
        <ele>328.101791</ele>
        <time>2022-07-28T06:10:00.365Z</time>
      </trkpt>
      <trkpt lat="43.736421" lon="7.391827">
        <ele>314.895696</ele>
        <time>2022-07-28T06:10:09.494Z</time>
      </trkpt>
      <trkpt lat="43.735488" lon="7.391891">
        <ele>299.540882</ele>
        <time>2022-07-28T06:10:21.990Z</time>
      </trkpt>
      <trkpt lat="43.735259" lon="7.391706">
        <ele>295.533304</ele>
        <time>2022-07-28T06:10:25.594Z</time>
      </trkpt>
      <trkpt lat="43.734849" lon="7.391099">
        <ele>286.459199</ele>
        <time>2022-07-28T06:10:33.816Z</time>
      </trkpt>
      <trkpt lat="43.734685" lon="7.390997">
        <ele>283.741729</ele>
        <time>2022-07-28T06:10:36.405Z</time>
      </trkpt>
      <trkpt lat="43.734580" lon="7.391068">
        <ele>281.975481</ele>
        <time>2022-07-28T06:10:37.966Z</time>
      </trkpt>
      <trkpt lat="43.734547" lon="7.391269">
        <ele>280.415357</ele>
        <time>2022-07-28T06:10:40.772Z</time>
      </trkpt>
      <trkpt lat="43.734184" lon="7.391396">
        <ele>276.545737</ele>
        <time>2022-07-28T06:10:47.639Z</time>
      </trkpt>
      <trkpt lat="43.734077" lon="7.391522">
        <ele>275.093766</ele>
        <time>2022-07-28T06:10:50.210Z</time>
      </trkpt>
      <trkpt lat="43.733714" lon="7.391600">
        <ele>271.297213</ele>
        <time>2022-07-28T06:10:55.437Z</time>
      </trkpt>
      <trkpt lat="43.733710" lon="7.391560">
        <ele>270.995660</ele>
        <time>2022-07-28T06:10:56.202Z</time>
      </trkpt>
      <trkpt lat="43.733220" lon="7.391105">
        <ele>264.897247</ele>
        <time>2022-07-28T06:11:11.529Z</time>
      </trkpt>
      <trkpt lat="43.732730" lon="7.390650">
        <ele>260.812068</ele>
        <time>2022-07-28T06:11:26.815Z</time>
      </trkpt>
      <trkpt lat="43.732500" lon="7.390880">
        <ele>259.185168</ele>
        <time>2022-07-28T06:11:34.160Z</time>
      </trkpt>
      <trkpt lat="43.732120" lon="7.390480">
        <ele>256.447892</ele>
        <time>2022-07-28T06:11:46.527Z</time>
      </trkpt>
      <trkpt lat="43.732128" lon="7.390456">
        <ele>256.338395</ele>
        <time>2022-07-28T06:11:47.033Z</time>
      </trkpt>
      <trkpt lat="43.731338" lon="7.390264">
        <ele>252.817184</ele>
        <time>2022-07-28T06:11:59.510Z</time>
      </trkpt>
      <trkpt lat="43.730730" lon="7.390246">
        <ele>252.292175</ele>
        <time>2022-07-28T06:12:10.162Z</time>
      </trkpt>
      <trkpt lat="43.730461" lon="7.390338">
        <ele>252.052960</ele>
        <time>2022-07-28T06:12:17.445Z</time>
      </trkpt>
      <trkpt lat="43.729711" lon="7.390849">
        <ele>251.004880</ele>
        <time>2022-07-28T06:12:39.667Z</time>
      </trkpt>
      <trkpt lat="43.729380" lon="7.390969">
        <ele>249.932863</ele>
        <time>2022-07-28T06:12:48.404Z</time>
      </trkpt>
      <trkpt lat="43.729037" lon="7.390992">
        <ele>248.856984</ele>
        <time>2022-07-28T06:12:55.757Z</time>
      </trkpt>
      <trkpt lat="43.728666" lon="7.390938">
        <ele>247.688231</ele>
        <time>2022-07-28T06:13:02.211Z</time>
      </trkpt>
      <trkpt lat="43.728336" lon="7.390766">
        <ele>246.583441</ele>
        <time>2022-07-28T06:13:07.490Z</time>
      </trkpt>
      <trkpt lat="43.728068" lon="7.390534">
        <ele>244.714898</ele>
        <time>2022-07-28T06:13:11.914Z</time>
      </trkpt>
      <trkpt lat="43.727425" lon="7.389945">
        <ele>232.962164</ele>
        <time>2022-07-28T06:13:22.063Z</time>
      </trkpt>
      <trkpt lat="43.726805" lon="7.389063">
        <ele>219.409904</ele>
        <time>2022-07-28T06:13:33.457Z</time>
      </trkpt>
      <trkpt lat="43.726444" lon="7.388834">
        <ele>211.793627</ele>
        <time>2022-07-28T06:13:38.460Z</time>
      </trkpt>
      <trkpt lat="43.726208" lon="7.388794">
        <ele>207.047623</ele>
        <time>2022-07-28T06:13:41.477Z</time>
      </trkpt>
      <trkpt lat="43.725827" lon="7.388900">
        <ele>199.290289</ele>
        <time>2022-07-28T06:13:46.391Z</time>
      </trkpt>
      <trkpt lat="43.725606" lon="7.389065">
        <ele>194.277776</ele>
        <time>2022-07-28T06:13:49.594Z</time>
      </trkpt>
      <trkpt lat="43.725416" lon="7.389309">
        <ele>189.103602</ele>
        <time>2022-07-28T06:13:52.866Z</time>
      </trkpt>
      <trkpt lat="43.725248" lon="7.389688">
        <ele>182.689961</ele>
        <time>2022-07-28T06:13:56.969Z</time>
      </trkpt>
      <trkpt lat="43.725005" lon="7.390672">
        <ele>172.432357</ele>
        <time>2022-07-28T06:14:06.619Z</time>
      </trkpt>
      <trkpt lat="43.724769" lon="7.391641">
        <ele>162.404141</ele>
        <time>2022-07-28T06:14:16.311Z</time>
      </trkpt>
      <trkpt lat="43.724747" lon="7.391856">
        <ele>160.274584</ele>
        <time>2022-07-28T06:14:18.610Z</time>
      </trkpt>
      <trkpt lat="43.724697" lon="7.391911">
        <ele>159.407780</ele>
        <time>2022-07-28T06:14:19.496Z</time>
      </trkpt>
      <trkpt lat="43.724605" lon="7.392333">
        <ele>157.286752</ele>
        <time>2022-07-28T06:14:24.163Z</time>
      </trkpt>
      <trkpt lat="43.724580" lon="7.392854">
        <ele>155.911699</ele>
        <time>2022-07-28T06:14:29.860Z</time>
      </trkpt>
      <trkpt lat="43.724716" lon="7.393721">
        <ele>153.575323</ele>
        <time>2022-07-28T06:14:40.344Z</time>
      </trkpt>
      <trkpt lat="43.725054" lon="7.394522">
        <ele>151.527147</ele>
        <time>2022-07-28T06:14:52.768Z</time>
      </trkpt>
      <trkpt lat="43.725735" lon="7.395570">
        <ele>151.404253</ele>
        <time>2022-07-28T06:15:18.056Z</time>
      </trkpt>
      <trkpt lat="43.725838" lon="7.395805">
        <ele>151.380287</ele>
        <time>2022-07-28T06:15:22.498Z</time>
      </trkpt>
      <trkpt lat="43.726038" lon="7.396538">
        <ele>151.169039</ele>
        <time>2022-07-28T06:15:34.686Z</time>
      </trkpt>
      <trkpt lat="43.726037" lon="7.397129">
        <ele>150.485846</ele>
        <time>2022-07-28T06:15:42.874Z</time>
      </trkpt>
      <trkpt lat="43.725991" lon="7.397481">
        <ele>150.072337</ele>
        <time>2022-07-28T06:15:47.519Z</time>
      </trkpt>
      <trkpt lat="43.725714" lon="7.399207">
        <ele>147.467297</ele>
        <time>2022-07-28T06:16:09.840Z</time>
      </trkpt>
      <trkpt lat="43.725521" lon="7.399865">
        <ele>145.544138</ele>
        <time>2022-07-28T06:16:18.438Z</time>
      </trkpt>
      <trkpt lat="43.725280" lon="7.400490">
        <ele>143.625649</ele>
        <time>2022-07-28T06:16:26.366Z</time>
      </trkpt>
      <trkpt lat="43.725130" lon="7.401063">
        <ele>141.975185</ele>
        <time>2022-07-28T06:16:33.099Z</time>
      </trkpt>
      <trkpt lat="43.725121" lon="7.401083">
        <ele>141.911378</ele>
        <time>2022-07-28T06:16:33.360Z</time>
      </trkpt>
      <trkpt lat="43.725052" lon="7.401231">
        <ele>141.235417</ele>
        <time>2022-07-28T06:16:35.352Z</time>
      </trkpt>
      <trkpt lat="43.725029" lon="7.401270">
        <ele>140.999222</ele>
        <time>2022-07-28T06:16:35.938Z</time>
      </trkpt>
      <trkpt lat="43.724953" lon="7.401314">
        <ele>140.464318</ele>
        <time>2022-07-28T06:16:37.041Z</time>
      </trkpt>
      <trkpt lat="43.724668" lon="7.401725">
        <ele>137.791633</ele>
        <time>2022-07-28T06:16:43.188Z</time>
      </trkpt>
      <trkpt lat="43.724509" lon="7.402049">
        <ele>135.953974</ele>
        <time>2022-07-28T06:16:47.343Z</time>
      </trkpt>
      <trkpt lat="43.724437" lon="7.402263">
        <ele>134.846355</ele>
        <time>2022-07-28T06:16:49.860Z</time>
      </trkpt>
      <trkpt lat="43.724397" lon="7.402567">
        <ele>133.396476</ele>
        <time>2022-07-28T06:16:52.977Z</time>
      </trkpt>
      <trkpt lat="43.724366" lon="7.403451">
        <ele>129.198987</ele>
        <time>2022-07-28T06:17:02.022Z</time>
      </trkpt>
      <trkpt lat="43.724176" lon="7.404234">
        <ele>125.102441</ele>
        <time>2022-07-28T06:17:10.430Z</time>
      </trkpt>
      <trkpt lat="43.724081" lon="7.405113">
        <ele>120.694343</ele>
        <time>2022-07-28T06:17:19.709Z</time>
      </trkpt>
      <trkpt lat="43.724101" lon="7.405334">
        <ele>119.589678</ele>
        <time>2022-07-28T06:17:22.089Z</time>
      </trkpt>
      <trkpt lat="43.724204" lon="7.405661">
        <ele>117.820484</ele>
        <time>2022-07-28T06:17:25.938Z</time>
      </trkpt>
      <trkpt lat="43.724560" lon="7.406262">
        <ele>115.247000</ele>
        <time>2022-07-28T06:17:34.126Z</time>
      </trkpt>
      <trkpt lat="43.724862" lon="7.406547">
        <ele>113.602571</ele>
        <time>2022-07-28T06:17:39.423Z</time>
      </trkpt>
      <trkpt lat="43.725152" lon="7.406708">
        <ele>112.196910</ele>
        <time>2022-07-28T06:17:43.924Z</time>
      </trkpt>
      <trkpt lat="43.725631" lon="7.406896">
        <ele>109.957103</ele>
        <time>2022-07-28T06:17:51.552Z</time>
      </trkpt>
      <trkpt lat="43.725896" lon="7.406970">
        <ele>111.368808</ele>
        <time>2022-07-28T06:17:57.345Z</time>
      </trkpt>
      <trkpt lat="43.726555" lon="7.407176">
        <ele>117.711168</ele>
        <time>2022-07-28T06:18:31.868Z</time>
      </trkpt>
      <trkpt lat="43.726958" lon="7.407261">
        <ele>121.538093</ele>
        <time>2022-07-28T06:19:07.715Z</time>
      </trkpt>
      <trkpt lat="43.726960" lon="7.407240">
        <ele>121.681788</ele>
        <time>2022-07-28T06:19:08.121Z</time>
      </trkpt>
      <trkpt lat="43.727655" lon="7.406925">
        <ele>128.858818</ele>
        <time>2022-07-28T06:19:27.189Z</time>
      </trkpt>
      <trkpt lat="43.728350" lon="7.406610">
        <ele>136.757662</ele>
        <time>2022-07-28T06:19:46.236Z</time>
      </trkpt>
      <trkpt lat="43.729018" lon="7.407092">
        <ele>144.894387</ele>
        <time>2022-07-28T06:20:05.784Z</time>
      </trkpt>
      <trkpt lat="43.729685" lon="7.407575">
        <ele>148.691242</ele>
        <time>2022-07-28T06:20:25.265Z</time>
      </trkpt>
      <trkpt lat="43.730353" lon="7.408057">
        <ele>151.876017</ele>
        <time>2022-07-28T06:20:44.739Z</time>
      </trkpt>
      <trkpt lat="43.731020" lon="7.408540">
        <ele>157.212243</ele>
        <time>2022-07-28T06:21:04.270Z</time>
      </trkpt>
      <trkpt lat="43.731618" lon="7.409325">
        <ele>165.536072</ele>
        <time>2022-07-28T06:21:25.724Z</time>
      </trkpt>
      <trkpt lat="43.732215" lon="7.410110">
        <ele>170.607134</ele>
        <time>2022-07-28T06:21:47.129Z</time>
      </trkpt>
      <trkpt lat="43.732813" lon="7.410895">
        <ele>166.542153</ele>
        <time>2022-07-28T06:22:08.434Z</time>
      </trkpt>
      <trkpt lat="43.733410" lon="7.411680">
        <ele>160.866903</ele>
        <time>2022-07-28T06:22:29.899Z</time>
      </trkpt>
      <trkpt lat="43.733490" lon="7.412820">
        <ele>136.234318</ele>
        <time>2022-07-28T06:22:51.912Z</time>
      </trkpt>
      <trkpt lat="43.732967" lon="7.413570">
        <ele>113.818071</ele>
        <time>2022-07-28T06:23:12.327Z</time>
      </trkpt>
      <trkpt lat="43.732445" lon="7.414320">
        <ele>89.216633</ele>
        <time>2022-07-28T06:23:32.991Z</time>
      </trkpt>
      <trkpt lat="43.731922" lon="7.415070">
        <ele>64.029254</ele>
        <time>2022-07-28T06:23:53.419Z</time>
      </trkpt>
      <trkpt lat="43.731400" lon="7.415820">
        <ele>45.067856</ele>
        <time>2022-07-28T06:24:13.410Z</time>
      </trkpt>
      <trkpt lat="43.731313" lon="7.415852">
        <ele>43.879269</ele>
        <time>2022-07-28T06:24:15.776Z</time>
      </trkpt>
      <trkpt lat="43.731210" lon="7.415310">
        <ele>38.532347</ele>
        <time>2022-07-28T06:24:20.955Z</time>
      </trkpt>
      <trkpt lat="43.731077" lon="7.414861">
        <ele>33.902581</ele>
        <time>2022-07-28T06:24:25.620Z</time>
      </trkpt>
      <trkpt lat="43.730755" lon="7.414400">
        <ele>27.785338</ele>
        <time>2022-07-28T06:24:32.578Z</time>
      </trkpt>
      <trkpt lat="43.730438" lon="7.414187">
        <ele>25.598662</ele>
        <time>2022-07-28T06:24:40.148Z</time>
      </trkpt>
      <trkpt lat="43.730320" lon="7.414022">
        <ele>25.829454</ele>
        <time>2022-07-28T06:24:45.711Z</time>
      </trkpt>
      <trkpt lat="43.730080" lon="7.413306">
        <ele>26.614136</ele>
        <time>2022-07-28T06:25:05.499Z</time>
      </trkpt>
      <trkpt lat="43.729935" lon="7.413103">
        <ele>26.897910</ele>
        <time>2022-07-28T06:25:11.586Z</time>
      </trkpt>
      <trkpt lat="43.729908" lon="7.413079">
        <ele>26.942060</ele>
        <time>2022-07-28T06:25:12.413Z</time>
      </trkpt>
      <trkpt lat="43.729565" lon="7.412947">
        <ele>27.431873</ele>
        <time>2022-07-28T06:25:23.187Z</time>
      </trkpt>
      <trkpt lat="43.729412" lon="7.412806">
        <ele>27.684778</ele>
        <time>2022-07-28T06:25:29.204Z</time>
      </trkpt>
      <trkpt lat="43.729201" lon="7.412612">
        <ele>28.001640</ele>
        <time>2022-07-28T06:25:36.667Z</time>
      </trkpt>
      <trkpt lat="43.728911" lon="7.412427">
        <ele>28.368806</ele>
        <time>2022-07-28T06:25:45.136Z</time>
      </trkpt>
      <trkpt lat="43.728739" lon="7.412398">
        <ele>28.568035</ele>
        <time>2022-07-28T06:25:49.639Z</time>
      </trkpt>
      <trkpt lat="43.728714" lon="7.412304">
        <ele>28.651258</ele>
        <time>2022-07-28T06:25:51.000Z</time>
      </trkpt>
      <trkpt lat="43.728621" lon="7.412283">
        <ele>28.759604</ele>
        <time>2022-07-28T06:25:52.781Z</time>
      </trkpt>
      <trkpt lat="43.729293" lon="7.412914">
        <ele>29.693349</ele>
        <time>2022-07-28T06:26:13.767Z</time>
      </trkpt>
      <trkpt lat="43.729964" lon="7.413545">
        <ele>32.607597</ele>
        <time>2022-07-28T06:26:34.761Z</time>
      </trkpt>
      <trkpt lat="43.730635" lon="7.414176">
        <ele>36.116348</ele>
        <time>2022-07-28T06:26:55.772Z</time>
      </trkpt>
      <trkpt lat="43.731306" lon="7.414807">
        <ele>39.332802</ele>
        <time>2022-07-28T06:27:16.782Z</time>
      </trkpt>
      <trkpt lat="43.731978" lon="7.415438">
        <ele>42.315171</ele>
        <time>2022-07-28T06:27:37.787Z</time>
      </trkpt>
      <trkpt lat="43.732649" lon="7.416069">
        <ele>43.404116</ele>
        <time>2022-07-28T06:27:58.775Z</time>
      </trkpt>
      <trkpt lat="43.733320" lon="7.416700">
        <ele>40.757542</ele>
        <time>2022-07-28T06:28:19.768Z</time>
      </trkpt>
      <trkpt lat="43.733992" lon="7.417331">
        <ele>37.844686</ele>
        <time>2022-07-28T06:28:40.785Z</time>
      </trkpt>
      <trkpt lat="43.734663" lon="7.417962">
        <ele>32.999690</ele>
        <time>2022-07-28T06:29:01.810Z</time>
      </trkpt>
      <trkpt lat="43.735334" lon="7.418593">
        <ele>28.154712</ele>
        <time>2022-07-28T06:29:22.831Z</time>
      </trkpt>
      <trkpt lat="43.735805" lon="7.419219">
        <ele>26.375847</ele>
        <time>2022-07-28T06:29:33.651Z</time>
      </trkpt>
      <trkpt lat="43.736120" lon="7.419577">
        <ele>25.447455</ele>
        <time>2022-07-28T06:29:41.062Z</time>
      </trkpt>
      <trkpt lat="43.736925" lon="7.420490">
        <ele>23.262142</ele>
        <time>2022-07-28T06:30:00.442Z</time>
      </trkpt>
      <trkpt lat="43.737153" lon="7.420934">
        <ele>22.691453</ele>
        <time>2022-07-28T06:30:08.131Z</time>
      </trkpt>
      <trkpt lat="43.737333" lon="7.421392">
        <ele>22.145223</ele>
        <time>2022-07-28T06:30:16.111Z</time>
      </trkpt>
      <trkpt lat="43.737516" lon="7.422039">
        <ele>21.417288</ele>
        <time>2022-07-28T06:30:25.272Z</time>
      </trkpt>
      <trkpt lat="43.737595" lon="7.422536">
        <ele>20.807183</ele>
        <time>2022-07-28T06:30:31.319Z</time>
      </trkpt>
      <trkpt lat="43.737556" lon="7.423793">
        <ele>18.415157</ele>
        <time>2022-07-28T06:30:46.407Z</time>
      </trkpt>
      <trkpt lat="43.737451" lon="7.425210">
        <ele>15.931769</ele>
        <time>2022-07-28T06:31:03.954Z</time>
      </trkpt>
      <trkpt lat="43.737436" lon="7.425847">
        <ele>15.225645</ele>
        <time>2022-07-28T06:31:11.788Z</time>
      </trkpt>
      <trkpt lat="43.737490" lon="7.426471">
        <ele>14.529357</ele>
        <time>2022-07-28T06:31:19.861Z</time>
      </trkpt>
      <trkpt lat="43.737665" lon="7.427306">
        <ele>13.566106</ele>
        <time>2022-07-28T06:31:32.242Z</time>
      </trkpt>
      <trkpt lat="43.737910" lon="7.427966">
        <ele>13.514094</ele>
        <time>2022-07-28T06:31:44.674Z</time>
      </trkpt>
      <trkpt lat="43.738180" lon="7.428522">
        <ele>13.540551</ele>
        <time>2022-07-28T06:31:56.126Z</time>
      </trkpt>
      <trkpt lat="43.738449" lon="7.428920">
        <ele>13.562075</ele>
        <time>2022-07-28T06:32:05.185Z</time>
      </trkpt>
      <trkpt lat="43.738959" lon="7.429385">
        <ele>13.664757</ele>
        <time>2022-07-28T06:32:18.762Z</time>
      </trkpt>
      <trkpt lat="43.739562" lon="7.429713">
        <ele>13.957086</ele>
        <time>2022-07-28T06:32:33.155Z</time>
      </trkpt>
      <trkpt lat="43.740205" lon="7.429872">
        <ele>14.251799</ele>
        <time>2022-07-28T06:32:49.033Z</time>
      </trkpt>
      <trkpt lat="43.740556" lon="7.429924">
        <ele>14.446285</ele>
        <time>2022-07-28T06:32:58.177Z</time>
      </trkpt>
      <trkpt lat="43.741383" lon="7.429939">
        <ele>15.783743</ele>
        <time>2022-07-28T06:33:21.190Z</time>
      </trkpt>
      <trkpt lat="43.742792" lon="7.429721">
        <ele>18.200428</ele>
        <time>2022-07-28T06:34:04.338Z</time>
      </trkpt>
      <trkpt lat="43.743153" lon="7.429719">
        <ele>18.878168</ele>
        <time>2022-07-28T06:34:14.558Z</time>
      </trkpt>
      <trkpt lat="43.743548" lon="7.429795">
        <ele>19.626864</ele>
        <time>2022-07-28T06:34:25.630Z</time>
      </trkpt>
      <trkpt lat="43.744013" lon="7.429987">
        <ele>20.537860</ele>
        <time>2022-07-28T06:34:40.109Z</time>
      </trkpt>
      <trkpt lat="43.744387" lon="7.430190">
        <ele>21.897571</ele>
        <time>2022-07-28T06:34:52.719Z</time>
      </trkpt>
      <trkpt lat="43.744768" lon="7.430399">
        <ele>23.431633</ele>
        <time>2022-07-28T06:35:06.342Z</time>
      </trkpt>
      <trkpt lat="43.745224" lon="7.430686">
        <ele>25.306685</ele>
        <time>2022-07-28T06:35:25.670Z</time>
      </trkpt>
      <trkpt lat="43.745430" lon="7.430806">
        <ele>26.143280</ele>
        <time>2022-07-28T06:35:34.635Z</time>
      </trkpt>
      <trkpt lat="43.745464" lon="7.430843">
        <ele>26.305169</ele>
        <time>2022-07-28T06:35:36.347Z</time>
      </trkpt>
      <trkpt lat="43.745498" lon="7.430848">
        <ele>26.433154</ele>
        <time>2022-07-28T06:35:37.829Z</time>
      </trkpt>
      <trkpt lat="43.745558" lon="7.430750">
        <ele>26.780529</ele>
        <time>2022-07-28T06:35:42.290Z</time>
      </trkpt>
      <trkpt lat="43.745526" lon="7.430670">
        <ele>27.027809</ele>
        <time>2022-07-28T06:35:45.050Z</time>
      </trkpt>
      <trkpt lat="43.745468" lon="7.430659">
        <ele>27.246943</ele>
        <time>2022-07-28T06:35:47.271Z</time>
      </trkpt>
      <trkpt lat="43.745051" lon="7.430109">
        <ele>30.025311</ele>
        <time>2022-07-28T06:36:13.608Z</time>
      </trkpt>
      <trkpt lat="43.744650" lon="7.429620">
        <ele>32.652097</ele>
        <time>2022-07-28T06:36:37.488Z</time>
      </trkpt>
      <trkpt lat="43.744435" lon="7.429476">
        <ele>33.826087</ele>
        <time>2022-07-28T06:36:47.896Z</time>
      </trkpt>
      <trkpt lat="43.744172" lon="7.429301">
        <ele>35.260405</ele>
        <time>2022-07-28T06:36:59.154Z</time>
      </trkpt>
      <trkpt lat="43.743191" lon="7.428835">
        <ele>38.680985</ele>
        <time>2022-07-28T06:37:35.439Z</time>
      </trkpt>
      <trkpt lat="43.742440" lon="7.428548">
        <ele>40.944584</ele>
        <time>2022-07-28T06:38:00.212Z</time>
      </trkpt>
      <trkpt lat="43.742351" lon="7.428517">
        <ele>41.211228</ele>
        <time>2022-07-28T06:38:03.295Z</time>
      </trkpt>
      <trkpt lat="43.742095" lon="7.428449">
        <ele>42.094337</ele>
        <time>2022-07-28T06:38:11.116Z</time>
      </trkpt>
      <trkpt lat="43.741921" lon="7.428387">
        <ele>42.751288</ele>
        <time>2022-07-28T06:38:17.051Z</time>
      </trkpt>
      <trkpt lat="43.741606" lon="7.428082">
        <ele>44.156875</ele>
        <time>2022-07-28T06:38:30.615Z</time>
      </trkpt>
      <trkpt lat="43.740614" lon="7.427061">
        <ele>48.507207</ele>
        <time>2022-07-28T06:39:19.791Z</time>
      </trkpt>
      <trkpt lat="43.740698" lon="7.426922">
        <ele>48.854557</ele>
        <time>2022-07-28T06:39:25.935Z</time>
      </trkpt>
      <trkpt lat="43.740875" lon="7.426824">
        <ele>49.360327</ele>
        <time>2022-07-28T06:39:32.021Z</time>
      </trkpt>
      <trkpt lat="43.741096" lon="7.426867">
        <ele>49.952421</ele>
        <time>2022-07-28T06:39:39.577Z</time>
      </trkpt>
      <trkpt lat="43.741430" lon="7.427045">
        <ele>50.901961</ele>
        <time>2022-07-28T06:39:50.918Z</time>
      </trkpt>
      <trkpt lat="43.741602" lon="7.426873">
        <ele>51.464923</ele>
        <time>2022-07-28T06:39:57.891Z</time>
      </trkpt>
      <trkpt lat="43.741651" lon="7.426867">
        <ele>51.595431</ele>
        <time>2022-07-28T06:39:59.781Z</time>
      </trkpt>
      <trkpt lat="43.741828" lon="7.427155">
        <ele>52.320172</ele>
        <time>2022-07-28T06:40:07.081Z</time>
      </trkpt>
      <trkpt lat="43.742021" lon="7.427458">
        <ele>52.787781</ele>
        <time>2022-07-28T06:40:15.560Z</time>
      </trkpt>
      <trkpt lat="43.742362" lon="7.427889">
        <ele>52.589513</ele>
        <time>2022-07-28T06:40:27.591Z</time>
      </trkpt>
      <trkpt lat="43.742547" lon="7.428004">
        <ele>52.502439</ele>
        <time>2022-07-28T06:40:31.852Z</time>
      </trkpt>
      <trkpt lat="43.743306" lon="7.428388">
        <ele>52.155469</ele>
        <time>2022-07-28T06:40:46.981Z</time>
      </trkpt>
      <trkpt lat="43.743548" lon="7.428522">
        <ele>51.983397</ele>
        <time>2022-07-28T06:40:51.635Z</time>
      </trkpt>
      <trkpt lat="43.743797" lon="7.428681">
        <ele>51.382911</ele>
        <time>2022-07-28T06:40:56.584Z</time>
      </trkpt>
      <trkpt lat="43.744959" lon="7.429242">
        <ele>48.688020</ele>
        <time>2022-07-28T06:41:18.283Z</time>
      </trkpt>
      <trkpt lat="43.744999" lon="7.429259">
        <ele>48.596392</ele>
        <time>2022-07-28T06:41:18.969Z</time>
      </trkpt>
      <trkpt lat="43.745090" lon="7.429304">
        <ele>48.384785</ele>
        <time>2022-07-28T06:41:20.521Z</time>
      </trkpt>
      <trkpt lat="43.745472" lon="7.429483">
        <ele>47.431009</ele>
        <time>2022-07-28T06:41:27.021Z</time>
      </trkpt>
      <trkpt lat="43.745590" lon="7.429580">
        <ele>47.096125</ele>
        <time>2022-07-28T06:41:29.282Z</time>
      </trkpt>
      <trkpt lat="43.745932" lon="7.430105">
        <ele>45.849953</ele>
        <time>2022-07-28T06:41:37.356Z</time>
      </trkpt>
      <trkpt lat="43.746211" lon="7.430298">
        <ele>45.088874</ele>
        <time>2022-07-28T06:41:42.420Z</time>
      </trkpt>
      <trkpt lat="43.746795" lon="7.431204">
        <ele>43.916887</ele>
        <time>2022-07-28T06:41:59.987Z</time>
      </trkpt>
      <trkpt lat="43.747163" lon="7.431674">
        <ele>44.207931</ele>
        <time>2022-07-28T06:42:12.368Z</time>
      </trkpt>
      <trkpt lat="43.747277" lon="7.431748">
        <ele>44.281120</ele>
        <time>2022-07-28T06:42:14.892Z</time>
      </trkpt>
      <trkpt lat="43.747518" lon="7.431732">
        <ele>44.421367</ele>
        <time>2022-07-28T06:42:22.571Z</time>
      </trkpt>
      <trkpt lat="43.747549" lon="7.431735">
        <ele>44.439430</ele>
        <time>2022-07-28T06:42:23.582Z</time>
      </trkpt>
      <trkpt lat="43.747737" lon="7.431846">
        <ele>44.558234</ele>
        <time>2022-07-28T06:42:29.195Z</time>
      </trkpt>
      <trkpt lat="43.747850" lon="7.432192">
        <ele>44.717679</ele>
        <time>2022-07-28T06:42:37.664Z</time>
      </trkpt>
      <trkpt lat="43.747885" lon="7.432310">
        <ele>44.771242</ele>
        <time>2022-07-28T06:42:40.820Z</time>
      </trkpt>
      <trkpt lat="43.747855" lon="7.432506">
        <ele>44.406023</ele>
        <time>2022-07-28T06:42:45.150Z</time>
      </trkpt>
      <trkpt lat="43.747957" lon="7.432810">
        <ele>43.749192</ele>
        <time>2022-07-28T06:42:50.736Z</time>
      </trkpt>
      <trkpt lat="43.748633" lon="7.433828">
        <ele>41.039590</ele>
        <time>2022-07-28T06:43:06.842Z</time>
      </trkpt>
      <trkpt lat="43.748900" lon="7.434261">
        <ele>39.924022</ele>
        <time>2022-07-28T06:43:13.002Z</time>
      </trkpt>
      <trkpt lat="43.749044" lon="7.434652">
        <ele>38.763430</ele>
        <time>2022-07-28T06:43:17.744Z</time>
      </trkpt>
      <trkpt lat="43.749066" lon="7.434783">
        <ele>38.404788</ele>
        <time>2022-07-28T06:43:19.157Z</time>
      </trkpt>
      <trkpt lat="43.749069" lon="7.434869">
        <ele>38.175192</ele>
        <time>2022-07-28T06:43:20.057Z</time>
      </trkpt>
      <trkpt lat="43.749067" lon="7.435335">
        <ele>36.932529</ele>
        <time>2022-07-28T06:43:25.122Z</time>
      </trkpt>
      <trkpt lat="43.749069" lon="7.435741">
        <ele>35.849860</ele>
        <time>2022-07-28T06:43:29.641Z</time>
      </trkpt>
      <trkpt lat="43.749166" lon="7.436160">
        <ele>34.676576</ele>
        <time>2022-07-28T06:43:34.585Z</time>
      </trkpt>
      <trkpt lat="43.749280" lon="7.436371">
        <ele>33.973957</ele>
        <time>2022-07-28T06:43:37.794Z</time>
      </trkpt>
      <trkpt lat="43.749660" lon="7.436766">
        <ele>34.417763</ele>
        <time>2022-07-28T06:43:47.581Z</time>
      </trkpt>
      <trkpt lat="43.749785" lon="7.436893">
        <ele>35.057808</ele>
        <time>2022-07-28T06:43:52.137Z</time>
      </trkpt>
      <trkpt lat="43.749902" lon="7.437031">
        <ele>35.692304</ele>
        <time>2022-07-28T06:43:57.997Z</time>
      </trkpt>
      <trkpt lat="43.749946" lon="7.437075">
        <ele>35.916364</ele>
        <time>2022-07-28T06:44:00.213Z</time>
      </trkpt>
      <trkpt lat="43.750012" lon="7.437170">
        <ele>36.309391</ele>
        <time>2022-07-28T06:44:04.181Z</time>
      </trkpt>
      <trkpt lat="43.750860" lon="7.437968">
        <ele>40.542043</ele>
        <time>2022-07-28T06:44:53.339Z</time>
      </trkpt>
      <trkpt lat="43.751183" lon="7.438114">
        <ele>42.049955</ele>
        <time>2022-07-28T06:45:10.911Z</time>
      </trkpt>
      <trkpt lat="43.751278" lon="7.438168">
        <ele>42.509241</ele>
        <time>2022-07-28T06:45:15.433Z</time>
      </trkpt>
      <trkpt lat="43.751375" lon="7.438225">
        <ele>42.980514</ele>
        <time>2022-07-28T06:45:20.230Z</time>
      </trkpt>
      <trkpt lat="43.751745" lon="7.438436">
        <ele>44.770148</ele>
        <time>2022-07-28T06:45:34.340Z</time>
      </trkpt>
      <trkpt lat="43.751869" lon="7.438423">
        <ele>45.326297</ele>
        <time>2022-07-28T06:45:38.637Z</time>
      </trkpt>
      <trkpt lat="43.751987" lon="7.438251">
        <ele>46.092612</ele>
        <time>2022-07-28T06:45:45.519Z</time>
      </trkpt>
      <trkpt lat="43.752004" lon="7.438079">
        <ele>46.653435</ele>
        <time>2022-07-28T06:45:50.647Z</time>
      </trkpt>
      <trkpt lat="43.751943" lon="7.437846">
        <ele>47.454054</ele>
        <time>2022-07-28T06:45:57.373Z</time>
      </trkpt>
      <trkpt lat="43.751781" lon="7.437722">
        <ele>48.281928</ele>
        <time>2022-07-28T06:46:05.057Z</time>
      </trkpt>
      <trkpt lat="43.751675" lon="7.437729">
        <ele>48.732808</ele>
        <time>2022-07-28T06:46:08.588Z</time>
      </trkpt>
      <trkpt lat="43.751572" lon="7.437772">
        <ele>48.839125</ele>
        <time>2022-07-28T06:46:12.689Z</time>
      </trkpt>
      <trkpt lat="43.751481" lon="7.437816">
        <ele>48.934384</ele>
        <time>2022-07-28T06:46:16.074Z</time>
      </trkpt>
      <trkpt lat="43.751395" lon="7.437890">
        <ele>49.034453</ele>
        <time>2022-07-28T06:46:19.252Z</time>
      </trkpt>
      <trkpt lat="43.751369" lon="7.437920">
        <ele>49.067902</ele>
        <time>2022-07-28T06:46:20.182Z</time>
      </trkpt>
      <trkpt lat="43.751330" lon="7.438094">
        <ele>49.197956</ele>
        <time>2022-07-28T06:46:24.472Z</time>
      </trkpt>
      <trkpt lat="43.751336" lon="7.438141">
        <ele>49.232027</ele>
        <time>2022-07-28T06:46:25.420Z</time>
      </trkpt>
      <trkpt lat="43.751375" lon="7.438225">
        <ele>49.303310</ele>
        <time>2022-07-28T06:46:27.587Z</time>
      </trkpt>
      <trkpt lat="43.751745" lon="7.438436">
        <ele>49.698771</ele>
        <time>2022-07-28T06:46:37.580Z</time>
      </trkpt>
      <trkpt lat="43.751950" lon="7.438721">
        <ele>49.985886</ele>
        <time>2022-07-28T06:46:43.759Z</time>
      </trkpt>
      <trkpt lat="43.752129" lon="7.439013">
        <ele>50.259275</ele>
        <time>2022-07-28T06:46:48.997Z</time>
      </trkpt>
      <trkpt lat="43.752717" lon="7.439422">
        <ele>49.994938</ele>
        <time>2022-07-28T06:47:02.964Z</time>
      </trkpt>
      <trkpt lat="43.752967" lon="7.439876">
        <ele>49.484382</ele>
        <time>2022-07-28T06:47:12.235Z</time>
      </trkpt>
      <trkpt lat="43.753211" lon="7.440607">
        <ele>48.764201</ele>
        <time>2022-07-28T06:47:22.818Z</time>
      </trkpt>
      <trkpt lat="43.753408" lon="7.442307">
        <ele>46.246450</ele>
        <time>2022-07-28T06:47:43.684Z</time>
      </trkpt>
      <trkpt lat="43.753405" lon="7.442645">
        <ele>45.663183</ele>
        <time>2022-07-28T06:47:47.949Z</time>
      </trkpt>
      <trkpt lat="43.753350" lon="7.443300">
        <ele>44.525363</ele>
        <time>2022-07-28T06:47:56.163Z</time>
      </trkpt>
      <trkpt lat="43.753229" lon="7.444782">
        <ele>42.376281</ele>
        <time>2022-07-28T06:48:14.803Z</time>
      </trkpt>
      <trkpt lat="43.753212" lon="7.445495">
        <ele>41.402915</ele>
        <time>2022-07-28T06:48:24.811Z</time>
      </trkpt>
      <trkpt lat="43.753637" lon="7.446332">
        <ele>40.498239</ele>
        <time>2022-07-28T06:48:37.573Z</time>
      </trkpt>
      <trkpt lat="43.753804" lon="7.446491">
        <ele>40.442210</ele>
        <time>2022-07-28T06:48:41.169Z</time>
      </trkpt>
      <trkpt lat="43.754092" lon="7.446544">
        <ele>40.361893</ele>
        <time>2022-07-28T06:48:46.557Z</time>
      </trkpt>
      <trkpt lat="43.754284" lon="7.446681">
        <ele>40.302181</ele>
        <time>2022-07-28T06:48:51.090Z</time>
      </trkpt>
      <trkpt lat="43.754528" lon="7.447240">
        <ele>40.171763</ele>
        <time>2022-07-28T06:49:02.743Z</time>
      </trkpt>
      <trkpt lat="43.754634" lon="7.447444">
        <ele>40.121583</ele>
        <time>2022-07-28T06:49:06.773Z</time>
      </trkpt>
      <trkpt lat="43.755482" lon="7.448049">
        <ele>42.607252</ele>
        <time>2022-07-28T06:49:37.731Z</time>
      </trkpt>
      <trkpt lat="43.755789" lon="7.448630">
        <ele>44.201582</ele>
        <time>2022-07-28T06:49:55.385Z</time>
      </trkpt>
      <trkpt lat="43.756065" lon="7.448999">
        <ele>45.378050</ele>
        <time>2022-07-28T06:50:11.932Z</time>
      </trkpt>
      <trkpt lat="43.756193" lon="7.449053">
        <ele>45.757255</ele>
        <time>2022-07-28T06:50:20.024Z</time>
      </trkpt>
      <trkpt lat="43.756586" lon="7.448999">
        <ele>46.767951</ele>
        <time>2022-07-28T06:50:34.163Z</time>
      </trkpt>
      <trkpt lat="43.756779" lon="7.449053">
        <ele>47.271857</ele>
        <time>2022-07-28T06:50:38.272Z</time>
      </trkpt>
      <trkpt lat="43.756794" lon="7.449061">
        <ele>47.312994</ele>
        <time>2022-07-28T06:50:38.926Z</time>
      </trkpt>
      <trkpt lat="43.757028" lon="7.449186">
        <ele>47.954869</ele>
        <time>2022-07-28T06:50:47.988Z</time>
      </trkpt>
      <trkpt lat="43.757294" lon="7.449491">
        <ele>48.838750</ele>
        <time>2022-07-28T06:50:59.681Z</time>
      </trkpt>
      <trkpt lat="43.757407" lon="7.449623">
        <ele>49.217116</ele>
        <time>2022-07-28T06:51:03.953Z</time>
      </trkpt>
      <trkpt lat="43.758074" lon="7.450121">
        <ele>50.425977</ele>
        <time>2022-07-28T06:51:23.551Z</time>
      </trkpt>
      <trkpt lat="43.758914" lon="7.450865">
        <ele>51.021997</ele>
        <time>2022-07-28T06:51:46.004Z</time>
      </trkpt>
      <trkpt lat="43.760073" lon="7.452223">
        <ele>53.841936</ele>
        <time>2022-07-28T06:52:25.943Z</time>
      </trkpt>
      <trkpt lat="43.760199" lon="7.452410">
        <ele>54.276629</ele>
        <time>2022-07-28T06:52:32.449Z</time>
      </trkpt>
      <trkpt lat="43.760197" lon="7.452535">
        <ele>54.489147</ele>
        <time>2022-07-28T06:52:34.738Z</time>
      </trkpt>
      <trkpt lat="43.760276" lon="7.452597">
        <ele>54.702857</ele>
        <time>2022-07-28T06:52:38.080Z</time>
      </trkpt>
      <trkpt lat="43.760346" lon="7.452545">
        <ele>54.889808</ele>
        <time>2022-07-28T06:52:42.493Z</time>
      </trkpt>
      <trkpt lat="43.760460" lon="7.452705">
        <ele>55.271828</ele>
        <time>2022-07-28T06:52:47.374Z</time>
      </trkpt>
      <trkpt lat="43.761022" lon="7.453722">
        <ele>61.554081</ele>
        <time>2022-07-28T06:53:31.579Z</time>
      </trkpt>
      <trkpt lat="43.761049" lon="7.453773">
        <ele>61.889377</ele>
        <time>2022-07-28T06:53:33.459Z</time>
      </trkpt>
      <trkpt lat="43.761272" lon="7.454043">
        <ele>64.064254</ele>
        <time>2022-07-28T06:53:49.962Z</time>
      </trkpt>
      <trkpt lat="43.761523" lon="7.454170">
        <ele>66.026219</ele>
        <time>2022-07-28T06:54:04.509Z</time>
      </trkpt>
      <trkpt lat="43.761788" lon="7.454160">
        <ele>67.972504</ele>
        <time>2022-07-28T06:54:19.701Z</time>
      </trkpt>
      <trkpt lat="43.762431" lon="7.453993">
        <ele>71.798047</ele>
        <time>2022-07-28T06:55:01.944Z</time>
      </trkpt>
      <trkpt lat="43.762920" lon="7.453964">
        <ele>74.526054</ele>
        <time>2022-07-28T06:55:27.614Z</time>
      </trkpt>
      <trkpt lat="43.763180" lon="7.454048">
        <ele>76.014124</ele>
        <time>2022-07-28T06:55:37.370Z</time>
      </trkpt>
      <trkpt lat="43.763280" lon="7.454307">
        <ele>77.196313</ele>
        <time>2022-07-28T06:55:44.831Z</time>
      </trkpt>
      <trkpt lat="43.763222" lon="7.454707">
        <ele>78.674500</ele>
        <time>2022-07-28T06:55:51.575Z</time>
      </trkpt>
      <trkpt lat="43.763074" lon="7.455004">
        <ele>77.670574</ele>
        <time>2022-07-28T06:55:56.084Z</time>
      </trkpt>
      <trkpt lat="43.762961" lon="7.455074">
        <ele>77.193676</ele>
        <time>2022-07-28T06:55:58.410Z</time>
      </trkpt>
      <trkpt lat="43.762581" lon="7.455137">
        <ele>75.719319</ele>
        <time>2022-07-28T06:56:04.636Z</time>
      </trkpt>
      <trkpt lat="43.762251" lon="7.455333">
        <ele>74.336015</ele>
        <time>2022-07-28T06:56:10.190Z</time>
      </trkpt>
      <trkpt lat="43.761789" lon="7.455810">
        <ele>72.115888</ele>
        <time>2022-07-28T06:56:18.555Z</time>
      </trkpt>
      <trkpt lat="43.761666" lon="7.456070">
        <ele>71.274168</ele>
        <time>2022-07-28T06:56:21.743Z</time>
      </trkpt>
      <trkpt lat="43.761644" lon="7.456426">
        <ele>70.320867</ele>
        <time>2022-07-28T06:56:25.489Z</time>
      </trkpt>
      <trkpt lat="43.761755" lon="7.456998">
        <ele>68.740606</ele>
        <time>2022-07-28T06:56:31.753Z</time>
      </trkpt>
      <trkpt lat="43.761840" lon="7.457149">
        <ele>68.229811</ele>
        <time>2022-07-28T06:56:33.979Z</time>
      </trkpt>
      <trkpt lat="43.762135" lon="7.457400">
        <ele>66.950697</ele>
        <time>2022-07-28T06:56:39.597Z</time>
      </trkpt>
      <trkpt lat="43.762238" lon="7.457723">
        <ele>66.008655</ele>
        <time>2022-07-28T06:56:44.008Z</time>
      </trkpt>
      <trkpt lat="43.762149" lon="7.458668">
        <ele>66.492831</ele>
        <time>2022-07-28T06:57:02.018Z</time>
      </trkpt>
      <trkpt lat="43.762288" lon="7.459987">
        <ele>69.261509</ele>
        <time>2022-07-28T06:57:33.915Z</time>
      </trkpt>
      <trkpt lat="43.762403" lon="7.460338">
        <ele>70.062075</ele>
        <time>2022-07-28T06:57:45.923Z</time>
      </trkpt>
      <trkpt lat="43.762653" lon="7.460692">
        <ele>71.834030</ele>
        <time>2022-07-28T06:58:04.063Z</time>
      </trkpt>
      <trkpt lat="43.762707" lon="7.460967">
        <ele>73.013034</ele>
        <time>2022-07-28T06:58:14.730Z</time>
      </trkpt>
      <trkpt lat="43.762612" lon="7.461862">
        <ele>76.755511</ele>
        <time>2022-07-28T06:58:46.116Z</time>
      </trkpt>
      <trkpt lat="43.762607" lon="7.461915">
        <ele>76.976640</ele>
        <time>2022-07-28T06:58:48.078Z</time>
      </trkpt>
      <trkpt lat="43.762243" lon="7.462464">
        <ele>80.059893</ele>
        <time>2022-07-28T06:59:11.048Z</time>
      </trkpt>
      <trkpt lat="43.762088" lon="7.462671">
        <ele>81.028192</ele>
        <time>2022-07-28T06:59:19.428Z</time>
      </trkpt>
      <trkpt lat="43.761417" lon="7.463523">
        <ele>84.112979</ele>
        <time>2022-07-28T06:59:54.992Z</time>
      </trkpt>
      <trkpt lat="43.761083" lon="7.464063">
        <ele>85.852787</ele>
        <time>2022-07-28T07:00:10.487Z</time>
      </trkpt>
      <trkpt lat="43.760897" lon="7.464266">
        <ele>86.655256</ele>
        <time>2022-07-28T07:00:18.392Z</time>
      </trkpt>
      <trkpt lat="43.760821" lon="7.464319">
        <ele>86.806137</ele>
        <time>2022-07-28T07:00:20.266Z</time>
      </trkpt>
      <trkpt lat="43.760759" lon="7.464362">
        <ele>86.883715</ele>
        <time>2022-07-28T07:00:21.735Z</time>
      </trkpt>
      <trkpt lat="43.760755" lon="7.464444">
        <ele>86.950123</ele>
        <time>2022-07-28T07:00:24.132Z</time>
      </trkpt>
      <trkpt lat="43.760766" lon="7.464467">
        <ele>86.972412</ele>
        <time>2022-07-28T07:00:25.043Z</time>
      </trkpt>
      <trkpt lat="43.760737" lon="7.464551">
        <ele>87.047640</ele>
        <time>2022-07-28T07:00:27.570Z</time>
      </trkpt>
      <trkpt lat="43.760433" lon="7.464789">
        <ele>87.438347</ele>
        <time>2022-07-28T07:00:37.865Z</time>
      </trkpt>
      <trkpt lat="43.760210" lon="7.465116">
        <ele>87.801740</ele>
        <time>2022-07-28T07:00:47.307Z</time>
      </trkpt>
      <trkpt lat="43.760055" lon="7.465417">
        <ele>88.100442</ele>
        <time>2022-07-28T07:00:53.767Z</time>
      </trkpt>
      <trkpt lat="43.759939" lon="7.465618">
        <ele>88.308334</ele>
        <time>2022-07-28T07:00:59.754Z</time>
      </trkpt>
      <trkpt lat="43.759078" lon="7.467121">
        <ele>88.440979</ele>
        <time>2022-07-28T07:01:27.426Z</time>
      </trkpt>
      <trkpt lat="43.758522" lon="7.468387">
        <ele>88.526205</ele>
        <time>2022-07-28T07:01:50.303Z</time>
      </trkpt>
      <trkpt lat="43.758324" lon="7.469003">
        <ele>89.155251</ele>
        <time>2022-07-28T07:02:03.360Z</time>
      </trkpt>
      <trkpt lat="43.758343" lon="7.469359">
        <ele>89.488292</ele>
        <time>2022-07-28T07:02:10.312Z</time>
      </trkpt>
      <trkpt lat="43.758431" lon="7.469503">
        <ele>89.664276</ele>
        <time>2022-07-28T07:02:14.406Z</time>
      </trkpt>
      <trkpt lat="43.758434" lon="7.469604">
        <ele>89.758585</ele>
        <time>2022-07-28T07:02:16.343Z</time>
      </trkpt>
      <trkpt lat="43.758493" lon="7.469664">
        <ele>89.853146</ele>
        <time>2022-07-28T07:02:18.551Z</time>
      </trkpt>
      <trkpt lat="43.758562" lon="7.469757">
        <ele>89.977533</ele>
        <time>2022-07-28T07:02:21.399Z</time>
      </trkpt>
      <trkpt lat="43.758793" lon="7.470035">
        <ele>90.372886</ele>
        <time>2022-07-28T07:02:30.922Z</time>
      </trkpt>
      <trkpt lat="43.759371" lon="7.470526">
        <ele>90.825499</ele>
        <time>2022-07-28T07:02:52.690Z</time>
      </trkpt>
      <trkpt lat="43.759675" lon="7.470688">
        <ele>91.004683</ele>
        <time>2022-07-28T07:03:02.098Z</time>
      </trkpt>
      <trkpt lat="43.760034" lon="7.470773">
        <ele>91.205031</ele>
        <time>2022-07-28T07:03:10.019Z</time>
      </trkpt>
      <trkpt lat="43.760811" lon="7.470824">
        <ele>90.487995</ele>
        <time>2022-07-28T07:03:24.626Z</time>
      </trkpt>
      <trkpt lat="43.761211" lon="7.470969">
        <ele>88.742758</ele>
        <time>2022-07-28T07:03:31.733Z</time>
      </trkpt>
      <trkpt lat="43.761419" lon="7.470998">
        <ele>87.860386</ele>
        <time>2022-07-28T07:03:35.051Z</time>
      </trkpt>
      <trkpt lat="43.761876" lon="7.470757">
        <ele>85.796298</ele>
        <time>2022-07-28T07:03:42.497Z</time>
      </trkpt>
      <trkpt lat="43.762173" lon="7.470670">
        <ele>84.514964</ele>
        <time>2022-07-28T07:03:46.870Z</time>
      </trkpt>
      <trkpt lat="43.762403" lon="7.470735">
        <ele>83.250476</ele>
        <time>2022-07-28T07:03:50.156Z</time>
      </trkpt>
      <trkpt lat="43.762535" lon="7.470920">
        <ele>81.894176</ele>
        <time>2022-07-28T07:03:52.802Z</time>
      </trkpt>
      <trkpt lat="43.762597" lon="7.471213">
        <ele>80.301837</ele>
        <time>2022-07-28T07:03:55.945Z</time>
      </trkpt>
      <trkpt lat="43.762516" lon="7.471915">
        <ele>76.594225</ele>
        <time>2022-07-28T07:04:03.314Z</time>
      </trkpt>
      <trkpt lat="43.762493" lon="7.472041">
        <ele>75.916424</ele>
        <time>2022-07-28T07:04:04.628Z</time>
      </trkpt>
      <trkpt lat="43.762468" lon="7.472192">
        <ele>75.108476</ele>
        <time>2022-07-28T07:04:06.324Z</time>
      </trkpt>
      <trkpt lat="43.762399" lon="7.472530">
        <ele>73.276614</ele>
        <time>2022-07-28T07:04:09.873Z</time>
      </trkpt>
      <trkpt lat="43.762210" lon="7.472949">
        <ele>70.677471</ele>
        <time>2022-07-28T07:04:14.909Z</time>
      </trkpt>
      <trkpt lat="43.762050" lon="7.473128">
        <ele>69.039010</ele>
        <time>2022-07-28T07:04:17.866Z</time>
      </trkpt>
      <trkpt lat="43.761654" lon="7.473377">
        <ele>65.574742</ele>
        <time>2022-07-28T07:04:23.968Z</time>
      </trkpt>
      <trkpt lat="43.761501" lon="7.473670">
        <ele>63.494771</ele>
        <time>2022-07-28T07:04:27.638Z</time>
      </trkpt>
      <trkpt lat="43.761433" lon="7.474071">
        <ele>61.125190</ele>
        <time>2022-07-28T07:04:31.763Z</time>
      </trkpt>
      <trkpt lat="43.761325" lon="7.474341">
        <ele>59.349637</ele>
        <time>2022-07-28T07:04:34.927Z</time>
      </trkpt>
      <trkpt lat="43.760929" lon="7.474891">
        <ele>54.766569</ele>
        <time>2022-07-28T07:04:42.796Z</time>
      </trkpt>
      <trkpt lat="43.760410" lon="7.475761">
        <ele>47.837609</ele>
        <time>2022-07-28T07:04:54.062Z</time>
      </trkpt>
      <trkpt lat="43.760248" lon="7.475941">
        <ele>46.071612</ele>
        <time>2022-07-28T07:04:56.929Z</time>
      </trkpt>
      <trkpt lat="43.759599" lon="7.476433">
        <ele>40.300182</ele>
        <time>2022-07-28T07:05:07.193Z</time>
      </trkpt>
      <trkpt lat="43.759454" lon="7.476756">
        <ele>38.762430</ele>
        <time>2022-07-28T07:05:11.087Z</time>
      </trkpt>
      <trkpt lat="43.759481" lon="7.476965">
        <ele>37.903939</ele>
        <time>2022-07-28T07:05:13.280Z</time>
      </trkpt>
      <trkpt lat="43.759883" lon="7.477449">
        <ele>34.921503</ele>
        <time>2022-07-28T07:05:21.186Z</time>
      </trkpt>
      <trkpt lat="43.760974" lon="7.478350">
        <ele>30.418750</ele>
        <time>2022-07-28T07:05:41.605Z</time>
      </trkpt>
      <trkpt lat="43.761392" lon="7.478590">
        <ele>29.816728</ele>
        <time>2022-07-28T07:05:51.558Z</time>
      </trkpt>
      <trkpt lat="43.761621" lon="7.478621">
        <ele>29.510615</ele>
        <time>2022-07-28T07:05:56.551Z</time>
      </trkpt>
      <trkpt lat="43.762233" lon="7.478526">
        <ele>28.627684</ele>
        <time>2022-07-28T07:06:10.090Z</time>
      </trkpt>
      <trkpt lat="43.762391" lon="7.478564">
        <ele>28.322491</ele>
        <time>2022-07-28T07:06:13.181Z</time>
      </trkpt>
      <trkpt lat="43.762656" lon="7.478790">
        <ele>27.730183</ele>
        <time>2022-07-28T07:06:19.696Z</time>
      </trkpt>
      <trkpt lat="43.762821" lon="7.478985">
        <ele>27.317344</ele>
        <time>2022-07-28T07:06:24.211Z</time>
      </trkpt>
      <trkpt lat="43.763664" lon="7.480234">
        <ele>24.490214</ele>
        <time>2022-07-28T07:06:44.699Z</time>
      </trkpt>
      <trkpt lat="43.763677" lon="7.480389">
        <ele>24.047365</ele>
        <time>2022-07-28T07:06:46.346Z</time>
      </trkpt>
      <trkpt lat="43.763779" lon="7.480395">
        <ele>23.646176</ele>
        <time>2022-07-28T07:06:47.923Z</time>
      </trkpt>
      <trkpt lat="43.764445" lon="7.481584">
        <ele>19.375816</ele>
        <time>2022-07-28T07:07:04.616Z</time>
      </trkpt>
      <trkpt lat="43.764589" lon="7.481863">
        <ele>18.402598</ele>
        <time>2022-07-28T07:07:08.576Z</time>
      </trkpt>
      <trkpt lat="43.764656" lon="7.481969">
        <ele>18.136817</ele>
        <time>2022-07-28T07:07:10.336Z</time>
      </trkpt>
      <trkpt lat="43.764690" lon="7.482020">
        <ele>18.016297</ele>
        <time>2022-07-28T07:07:11.641Z</time>
      </trkpt>
      <trkpt lat="43.765420" lon="7.482470">
        <ele>16.095048</ele>
        <time>2022-07-28T07:07:32.309Z</time>
      </trkpt>
      <trkpt lat="43.765730" lon="7.483230">
        <ele>14.579463</ele>
        <time>2022-07-28T07:07:48.613Z</time>
      </trkpt>
      <trkpt lat="43.766040" lon="7.483990">
        <ele>13.322446</ele>
        <time>2022-07-28T07:08:04.915Z</time>
      </trkpt>
      <trkpt lat="43.765509" lon="7.484282">
        <ele>12.318898</ele>
        <time>2022-07-28T07:08:19.682Z</time>
      </trkpt>
      <trkpt lat="43.764979" lon="7.484574">
        <ele>11.316981</ele>
        <time>2022-07-28T07:08:34.448Z</time>
      </trkpt>
      <trkpt lat="43.764979" lon="7.484803">
        <ele>11.026495</ele>
        <time>2022-07-28T07:08:37.494Z</time>
      </trkpt>
      <trkpt lat="43.765073" lon="7.485658">
        <ele>10.668891</ele>
        <time>2022-07-28T07:08:48.983Z</time>
      </trkpt>
      <trkpt lat="43.765215" lon="7.486219">
        <ele>10.511362</ele>
        <time>2022-07-28T07:08:57.756Z</time>
      </trkpt>
      <trkpt lat="43.765329" lon="7.486575">
        <ele>10.408166</ele>
        <time>2022-07-28T07:09:04.113Z</time>
      </trkpt>
      <trkpt lat="43.765563" lon="7.487066">
        <ele>10.252276</ele>
        <time>2022-07-28T07:09:14.898Z</time>
      </trkpt>
      <trkpt lat="43.765755" lon="7.487413">
        <ele>10.192820</ele>
        <time>2022-07-28T07:09:23.015Z</time>
      </trkpt>
      <trkpt lat="43.766362" lon="7.488213">
        <ele>10.141288</ele>
        <time>2022-07-28T07:09:44.694Z</time>
      </trkpt>
      <trkpt lat="43.766969" lon="7.489013">
        <ele>10.008376</ele>
        <time>2022-07-28T07:10:06.372Z</time>
      </trkpt>
      <trkpt lat="43.767577" lon="7.489813">
        <ele>8.854643</ele>
        <time>2022-07-28T07:10:28.051Z</time>
      </trkpt>
      <trkpt lat="43.768184" lon="7.490614">
        <ele>7.701227</ele>
        <time>2022-07-28T07:10:49.733Z</time>
      </trkpt>
      <trkpt lat="43.768791" lon="7.491414">
        <ele>7.490661</ele>
        <time>2022-07-28T07:11:11.411Z</time>
      </trkpt>
      <trkpt lat="43.769398" lon="7.492214">
        <ele>7.352149</ele>
        <time>2022-07-28T07:11:33.089Z</time>
      </trkpt>
      <trkpt lat="43.770006" lon="7.493015">
        <ele>7.689788</ele>
        <time>2022-07-28T07:11:54.767Z</time>
      </trkpt>
      <trkpt lat="43.770195" lon="7.493265">
        <ele>7.836099</ele>
        <time>2022-07-28T07:12:01.047Z</time>
      </trkpt>
      <trkpt lat="43.770353" lon="7.493537">
        <ele>7.977211</ele>
        <time>2022-07-28T07:12:07.494Z</time>
      </trkpt>
      <trkpt lat="43.770755" lon="7.494293">
        <ele>8.314403</ele>
        <time>2022-07-28T07:12:24.795Z</time>
      </trkpt>
      <trkpt lat="43.770950" lon="7.494667">
        <ele>8.217307</ele>
        <time>2022-07-28T07:12:32.154Z</time>
      </trkpt>
      <trkpt lat="43.771197" lon="7.495152">
        <ele>8.092388</ele>
        <time>2022-07-28T07:12:40.735Z</time>
      </trkpt>
      <trkpt lat="43.771321" lon="7.495387">
        <ele>8.031126</ele>
        <time>2022-07-28T07:12:45.295Z</time>
      </trkpt>
      <trkpt lat="43.771601" lon="7.495907">
        <ele>7.894595</ele>
        <time>2022-07-28T07:12:55.194Z</time>
      </trkpt>
      <trkpt lat="43.771817" lon="7.496335">
        <ele>7.794630</ele>
        <time>2022-07-28T07:13:02.748Z</time>
      </trkpt>
      <trkpt lat="43.771993" lon="7.496674">
        <ele>7.750584</ele>
        <time>2022-07-28T07:13:08.520Z</time>
      </trkpt>
      <trkpt lat="43.772239" lon="7.497167">
        <ele>7.687367</ele>
        <time>2022-07-28T07:13:17.334Z</time>
      </trkpt>
      <trkpt lat="43.772636" lon="7.497947">
        <ele>7.586697</ele>
        <time>2022-07-28T07:13:34.075Z</time>
      </trkpt>
      <trkpt lat="43.772794" lon="7.498259">
        <ele>7.546496</ele>
        <time>2022-07-28T07:13:40.257Z</time>
      </trkpt>
      <trkpt lat="43.772828" lon="7.498361">
        <ele>7.514928</ele>
        <time>2022-07-28T07:13:42.016Z</time>
      </trkpt>
      <trkpt lat="43.772895" lon="7.498474">
        <ele>7.457310</ele>
        <time>2022-07-28T07:13:44.502Z</time>
      </trkpt>
      <trkpt lat="43.772926" lon="7.498525">
        <ele>7.431039</ele>
        <time>2022-07-28T07:13:45.626Z</time>
      </trkpt>
      <trkpt lat="43.773013" lon="7.498668">
        <ele>7.357351</ele>
        <time>2022-07-28T07:13:48.347Z</time>
      </trkpt>
      <trkpt lat="43.773109" lon="7.498865">
        <ele>7.263694</ele>
        <time>2022-07-28T07:13:52.154Z</time>
      </trkpt>
      <trkpt lat="43.773341" lon="7.499327">
        <ele>7.041936</ele>
        <time>2022-07-28T07:14:00.727Z</time>
      </trkpt>
      <trkpt lat="43.773356" lon="7.499376">
        <ele>7.020963</ele>
        <time>2022-07-28T07:14:01.578Z</time>
      </trkpt>
      <trkpt lat="43.772993" lon="7.499792">
        <ele>6.763826</ele>
        <time>2022-07-28T07:14:11.120Z</time>
      </trkpt>
      <trkpt lat="43.773779" lon="7.501626">
        <ele>5.246721</ele>
        <time>2022-07-28T07:14:39.492Z</time>
      </trkpt>
      <trkpt lat="43.774401" lon="7.503748">
        <ele>4.717234</ele>
        <time>2022-07-28T07:15:12.869Z</time>
      </trkpt>
      <trkpt lat="43.774743" lon="7.504973">
        <ele>4.990870</ele>
        <time>2022-07-28T07:15:38.282Z</time>
      </trkpt>
      <trkpt lat="43.774743" lon="7.505116">
        <ele>5.072472</ele>
        <time>2022-07-28T07:15:41.078Z</time>
      </trkpt>
      <trkpt lat="43.774736" lon="7.505137">
        <ele>5.085671</ele>
        <time>2022-07-28T07:15:41.509Z</time>
      </trkpt>
      <trkpt lat="43.774767" lon="7.505221">
        <ele>5.139503</ele>
        <time>2022-07-28T07:15:43.552Z</time>
      </trkpt>
      <trkpt lat="43.774824" lon="7.505203">
        <ele>5.185706</ele>
        <time>2022-07-28T07:15:45.359Z</time>
      </trkpt>
      <trkpt lat="43.774830" lon="7.505121">
        <ele>5.232739</ele>
        <time>2022-07-28T07:15:46.981Z</time>
      </trkpt>
      <trkpt lat="43.774910" lon="7.505060">
        <ele>5.304911</ele>
        <time>2022-07-28T07:15:49.553Z</time>
      </trkpt>
      <trkpt lat="43.775128" lon="7.504954">
        <ele>5.487506</ele>
        <time>2022-07-28T07:15:56.306Z</time>
      </trkpt>
      <trkpt lat="43.775286" lon="7.505723">
        <ele>5.943748</ele>
        <time>2022-07-28T07:16:11.435Z</time>
      </trkpt>
      <trkpt lat="43.775428" lon="7.506423">
        <ele>6.227294</ele>
        <time>2022-07-28T07:16:23.978Z</time>
      </trkpt>
      <trkpt lat="43.775467" lon="7.506599">
        <ele>6.164114</ele>
        <time>2022-07-28T07:16:26.691Z</time>
      </trkpt>
      <trkpt lat="43.775511" lon="7.506784">
        <ele>6.097270</ele>
        <time>2022-07-28T07:16:29.834Z</time>
      </trkpt>
      <trkpt lat="43.775224" lon="7.506909">
        <ele>5.954278</ele>
        <time>2022-07-28T07:16:35.857Z</time>
      </trkpt>
      <trkpt lat="43.775240" lon="7.507060">
        <ele>5.901903</ele>
        <time>2022-07-28T07:16:38.715Z</time>
      </trkpt>
      <trkpt lat="43.775200" lon="7.507750">
        <ele>5.664346</ele>
        <time>2022-07-28T07:16:51.640Z</time>
      </trkpt>
      <trkpt lat="43.775160" lon="7.508440">
        <ele>5.426789</ele>
        <time>2022-07-28T07:17:04.565Z</time>
      </trkpt>
      <trkpt lat="43.775880" lon="7.508600">
        <ele>5.962734</ele>
        <time>2022-07-28T07:17:23.422Z</time>
      </trkpt>
      <trkpt lat="43.775848" lon="7.508542">
        <ele>6.002409</ele>
        <time>2022-07-28T07:17:24.796Z</time>
      </trkpt>
      <trkpt lat="43.776117" lon="7.508456">
        <ele>6.210227</ele>
        <time>2022-07-28T07:17:31.765Z</time>
      </trkpt>
      <trkpt lat="43.776694" lon="7.508128">
        <ele>6.679735</ele>
        <time>2022-07-28T07:17:50.187Z</time>
      </trkpt>
      <trkpt lat="43.776792" lon="7.508076">
        <ele>6.758734</ele>
        <time>2022-07-28T07:17:53.364Z</time>
      </trkpt>
      <trkpt lat="43.777360" lon="7.507777">
        <ele>7.084091</ele>
        <time>2022-07-28T07:18:10.856Z</time>
      </trkpt>
      <trkpt lat="43.777912" lon="7.507530">
        <ele>7.389836</ele>
        <time>2022-07-28T07:18:24.603Z</time>
      </trkpt>
      <trkpt lat="43.778355" lon="7.507418">
        <ele>7.627181</ele>
        <time>2022-07-28T07:18:34.172Z</time>
      </trkpt>
      <trkpt lat="43.778575" lon="7.507352">
        <ele>7.687840</ele>
        <time>2022-07-28T07:18:39.047Z</time>
      </trkpt>
      <trkpt lat="43.778721" lon="7.507375">
        <ele>7.562218</ele>
        <time>2022-07-28T07:18:41.883Z</time>
      </trkpt>
      <trkpt lat="43.779032" lon="7.507537">
        <ele>7.278158</ele>
        <time>2022-07-28T07:18:48.498Z</time>
      </trkpt>
      <trkpt lat="43.779914" lon="7.508331">
        <ele>6.378846</ele>
        <time>2022-07-28T07:19:08.298Z</time>
      </trkpt>
      <trkpt lat="43.780209" lon="7.508731">
        <ele>6.102005</ele>
        <time>2022-07-28T07:19:16.491Z</time>
      </trkpt>
      <trkpt lat="43.780904" lon="7.509389">
        <ele>5.724331</ele>
        <time>2022-07-28T07:19:35.143Z</time>
      </trkpt>
      <trkpt lat="43.781275" lon="7.509808">
        <ele>5.509576</ele>
        <time>2022-07-28T07:19:45.198Z</time>
      </trkpt>
      <trkpt lat="43.781603" lon="7.510314">
        <ele>5.142306</ele>
        <time>2022-07-28T07:19:55.218Z</time>
      </trkpt>
      <trkpt lat="43.782669" lon="7.512519">
        <ele>2.917800</ele>
        <time>2022-07-28T07:20:30.755Z</time>
      </trkpt>
      <trkpt lat="43.783319" lon="7.514378">
        <ele>1.360526</ele>
        <time>2022-07-28T07:20:59.239Z</time>
      </trkpt>
      <trkpt lat="43.783964" lon="7.517077">
        <ele>1.088514</ele>
        <time>2022-07-28T07:21:44.840Z</time>
      </trkpt>
      <trkpt lat="43.784260" lon="7.518367">
        <ele>1.088514</ele>
        <time>2022-07-28T07:22:06.192Z</time>
      </trkpt>
      <trkpt lat="43.784342" lon="7.518722">
        <ele>1.088514</ele>
        <time>2022-07-28T07:22:11.887Z</time>
      </trkpt>
    </trkseg>
  </trk>
</gpx>